<?xml version="1.0" encoding="UTF-8" standalone="no" ?>
<gpx xmlns="http://www.topografix.com/GPX/1/1" xmlns:xsi="http://www.w3.org/2001/XMLSchema-instance" xsi:schemaLocation="http://www.topografix.com/GPX/1/1 http://www.topografix.com/GPX/1/1/gpx.xsd" version="1.1" creator="VisuGPX - https://www.visugpx.com">
  <metadata>
    <name>Sortie vtt Denis Pierre Baptiste Christiane</name>
  </metadata>
  <trk>
    <name><![CDATA[Sortie à vélo l'après-midi]]></name>
    <trkseg>
      <trkpt lat="43.91592" lon="1.88322">
        <ele>257</ele>
        <time>2021-03-21T12:50:27Z</time>
      </trkpt>
      <trkpt lat="43.91592" lon="1.88322">
        <ele>257.6</ele>
        <time>2021-03-21T12:50:28Z</time>
      </trkpt>
      <trkpt lat="43.9158" lon="1.88325">
        <ele>257.6</ele>
        <time>2021-03-21T12:51:24Z</time>
      </trkpt>
      <trkpt lat="43.91578" lon="1.88325">
        <ele>257.4</ele>
        <time>2021-03-21T12:51:25Z</time>
      </trkpt>
      <trkpt lat="43.91576" lon="1.88326">
        <ele>257.6</ele>
        <time>2021-03-21T12:51:26Z</time>
      </trkpt>
      <trkpt lat="43.91574" lon="1.88326">
        <ele>257.4</ele>
        <time>2021-03-21T12:51:27Z</time>
      </trkpt>
      <trkpt lat="43.9157" lon="1.88327">
        <ele>257.4</ele>
        <time>2021-03-21T12:51:29Z</time>
      </trkpt>
      <trkpt lat="43.91567" lon="1.88328">
        <ele>257.4</ele>
        <time>2021-03-21T12:51:30Z</time>
      </trkpt>
      <trkpt lat="43.91561" lon="1.8833">
        <ele>257.6</ele>
        <time>2021-03-21T12:51:32Z</time>
      </trkpt>
      <trkpt lat="43.91559" lon="1.88331">
        <ele>257.4</ele>
        <time>2021-03-21T12:51:33Z</time>
      </trkpt>
      <trkpt lat="43.91556" lon="1.88332">
        <ele>257.4</ele>
        <time>2021-03-21T12:51:34Z</time>
      </trkpt>
      <trkpt lat="43.91553" lon="1.88333">
        <ele>257.4</ele>
        <time>2021-03-21T12:51:35Z</time>
      </trkpt>
      <trkpt lat="43.9155" lon="1.88334">
        <ele>257.2</ele>
        <time>2021-03-21T12:51:36Z</time>
      </trkpt>
      <trkpt lat="43.91547" lon="1.88335">
        <ele>257.2</ele>
        <time>2021-03-21T12:51:37Z</time>
      </trkpt>
      <trkpt lat="43.91541" lon="1.88338">
        <ele>257.2</ele>
        <time>2021-03-21T12:51:39Z</time>
      </trkpt>
      <trkpt lat="43.91538" lon="1.8834">
        <ele>257.2</ele>
        <time>2021-03-21T12:51:40Z</time>
      </trkpt>
      <trkpt lat="43.91535" lon="1.88342">
        <ele>257.2</ele>
        <time>2021-03-21T12:51:41Z</time>
      </trkpt>
      <trkpt lat="43.91531" lon="1.88344">
        <ele>257</ele>
        <time>2021-03-21T12:51:42Z</time>
      </trkpt>
      <trkpt lat="43.91525" lon="1.88347">
        <ele>257</ele>
        <time>2021-03-21T12:51:44Z</time>
      </trkpt>
      <trkpt lat="43.91521" lon="1.88348">
        <ele>257</ele>
        <time>2021-03-21T12:51:45Z</time>
      </trkpt>
      <trkpt lat="43.91518" lon="1.8835">
        <ele>257</ele>
        <time>2021-03-21T12:51:46Z</time>
      </trkpt>
      <trkpt lat="43.91514" lon="1.88352">
        <ele>256.8</ele>
        <time>2021-03-21T12:51:47Z</time>
      </trkpt>
      <trkpt lat="43.91511" lon="1.88354">
        <ele>257</ele>
        <time>2021-03-21T12:51:48Z</time>
      </trkpt>
      <trkpt lat="43.91507" lon="1.88356">
        <ele>256.8</ele>
        <time>2021-03-21T12:51:49Z</time>
      </trkpt>
      <trkpt lat="43.915" lon="1.8836">
        <ele>257</ele>
        <time>2021-03-21T12:51:51Z</time>
      </trkpt>
      <trkpt lat="43.91496" lon="1.88362">
        <ele>257</ele>
        <time>2021-03-21T12:51:52Z</time>
      </trkpt>
      <trkpt lat="43.91492" lon="1.88365">
        <ele>256.8</ele>
        <time>2021-03-21T12:51:53Z</time>
      </trkpt>
      <trkpt lat="43.91488" lon="1.88367">
        <ele>256.8</ele>
        <time>2021-03-21T12:51:54Z</time>
      </trkpt>
      <trkpt lat="43.9148" lon="1.88372">
        <ele>256.8</ele>
        <time>2021-03-21T12:51:56Z</time>
      </trkpt>
      <trkpt lat="43.91475" lon="1.88375">
        <ele>256.8</ele>
        <time>2021-03-21T12:51:57Z</time>
      </trkpt>
      <trkpt lat="43.91471" lon="1.88378">
        <ele>256.6</ele>
        <time>2021-03-21T12:51:58Z</time>
      </trkpt>
      <trkpt lat="43.91467" lon="1.88382">
        <ele>256.6</ele>
        <time>2021-03-21T12:51:59Z</time>
      </trkpt>
      <trkpt lat="43.91459" lon="1.88388">
        <ele>256.6</ele>
        <time>2021-03-21T12:52:01Z</time>
      </trkpt>
      <trkpt lat="43.91455" lon="1.88392">
        <ele>256.4</ele>
        <time>2021-03-21T12:52:02Z</time>
      </trkpt>
      <trkpt lat="43.91451" lon="1.88395">
        <ele>256.2</ele>
        <time>2021-03-21T12:52:03Z</time>
      </trkpt>
      <trkpt lat="43.91446" lon="1.88399">
        <ele>256</ele>
        <time>2021-03-21T12:52:04Z</time>
      </trkpt>
      <trkpt lat="43.91441" lon="1.88402">
        <ele>256.2</ele>
        <time>2021-03-21T12:52:05Z</time>
      </trkpt>
      <trkpt lat="43.91437" lon="1.88406">
        <ele>256</ele>
        <time>2021-03-21T12:52:06Z</time>
      </trkpt>
      <trkpt lat="43.91432" lon="1.8841">
        <ele>256</ele>
        <time>2021-03-21T12:52:07Z</time>
      </trkpt>
      <trkpt lat="43.91428" lon="1.88414">
        <ele>255.8</ele>
        <time>2021-03-21T12:52:08Z</time>
      </trkpt>
      <trkpt lat="43.91423" lon="1.88417">
        <ele>255.8</ele>
        <time>2021-03-21T12:52:09Z</time>
      </trkpt>
      <trkpt lat="43.91419" lon="1.88421">
        <ele>255.8</ele>
        <time>2021-03-21T12:52:10Z</time>
      </trkpt>
      <trkpt lat="43.91415" lon="1.88425">
        <ele>255.6</ele>
        <time>2021-03-21T12:52:11Z</time>
      </trkpt>
      <trkpt lat="43.91411" lon="1.88429">
        <ele>255.6</ele>
        <time>2021-03-21T12:52:12Z</time>
      </trkpt>
      <trkpt lat="43.91407" lon="1.88434">
        <ele>255.4</ele>
        <time>2021-03-21T12:52:13Z</time>
      </trkpt>
      <trkpt lat="43.91403" lon="1.88438">
        <ele>255.4</ele>
        <time>2021-03-21T12:52:14Z</time>
      </trkpt>
      <trkpt lat="43.914" lon="1.88442">
        <ele>255.4</ele>
        <time>2021-03-21T12:52:15Z</time>
      </trkpt>
      <trkpt lat="43.91396" lon="1.88447">
        <ele>255.2</ele>
        <time>2021-03-21T12:52:16Z</time>
      </trkpt>
      <trkpt lat="43.91392" lon="1.88451">
        <ele>255.2</ele>
        <time>2021-03-21T12:52:17Z</time>
      </trkpt>
      <trkpt lat="43.91389" lon="1.88455">
        <ele>255.2</ele>
        <time>2021-03-21T12:52:18Z</time>
      </trkpt>
      <trkpt lat="43.91385" lon="1.88459">
        <ele>255.2</ele>
        <time>2021-03-21T12:52:19Z</time>
      </trkpt>
      <trkpt lat="43.91382" lon="1.88464">
        <ele>255.2</ele>
        <time>2021-03-21T12:52:20Z</time>
      </trkpt>
      <trkpt lat="43.91378" lon="1.88469">
        <ele>255.2</ele>
        <time>2021-03-21T12:52:21Z</time>
      </trkpt>
      <trkpt lat="43.91371" lon="1.88477">
        <ele>255.2</ele>
        <time>2021-03-21T12:52:23Z</time>
      </trkpt>
      <trkpt lat="43.91368" lon="1.88482">
        <ele>255.2</ele>
        <time>2021-03-21T12:52:24Z</time>
      </trkpt>
      <trkpt lat="43.91364" lon="1.88486">
        <ele>255</ele>
        <time>2021-03-21T12:52:25Z</time>
      </trkpt>
      <trkpt lat="43.91361" lon="1.88491">
        <ele>255.2</ele>
        <time>2021-03-21T12:52:26Z</time>
      </trkpt>
      <trkpt lat="43.91357" lon="1.88495">
        <ele>255</ele>
        <time>2021-03-21T12:52:27Z</time>
      </trkpt>
      <trkpt lat="43.91353" lon="1.885">
        <ele>255</ele>
        <time>2021-03-21T12:52:28Z</time>
      </trkpt>
      <trkpt lat="43.91349" lon="1.88505">
        <ele>254.8</ele>
        <time>2021-03-21T12:52:29Z</time>
      </trkpt>
      <trkpt lat="43.91346" lon="1.88509">
        <ele>254.8</ele>
        <time>2021-03-21T12:52:30Z</time>
      </trkpt>
      <trkpt lat="43.91342" lon="1.88514">
        <ele>254.6</ele>
        <time>2021-03-21T12:52:31Z</time>
      </trkpt>
      <trkpt lat="43.91339" lon="1.88519">
        <ele>254.6</ele>
        <time>2021-03-21T12:52:32Z</time>
      </trkpt>
      <trkpt lat="43.91335" lon="1.88524">
        <ele>254.6</ele>
        <time>2021-03-21T12:52:33Z</time>
      </trkpt>
      <trkpt lat="43.91328" lon="1.88534">
        <ele>254.4</ele>
        <time>2021-03-21T12:52:35Z</time>
      </trkpt>
      <trkpt lat="43.91325" lon="1.8854">
        <ele>254.4</ele>
        <time>2021-03-21T12:52:36Z</time>
      </trkpt>
      <trkpt lat="43.91318" lon="1.8855">
        <ele>254</ele>
        <time>2021-03-21T12:52:38Z</time>
      </trkpt>
      <trkpt lat="43.91315" lon="1.88555">
        <ele>254</ele>
        <time>2021-03-21T12:52:39Z</time>
      </trkpt>
      <trkpt lat="43.91311" lon="1.8856">
        <ele>254</ele>
        <time>2021-03-21T12:52:40Z</time>
      </trkpt>
      <trkpt lat="43.91307" lon="1.88565">
        <ele>254</ele>
        <time>2021-03-21T12:52:41Z</time>
      </trkpt>
      <trkpt lat="43.91304" lon="1.88569">
        <ele>254</ele>
        <time>2021-03-21T12:52:42Z</time>
      </trkpt>
      <trkpt lat="43.913" lon="1.88574">
        <ele>253.8</ele>
        <time>2021-03-21T12:52:43Z</time>
      </trkpt>
      <trkpt lat="43.91297" lon="1.88579">
        <ele>253.8</ele>
        <time>2021-03-21T12:52:44Z</time>
      </trkpt>
      <trkpt lat="43.91293" lon="1.88584">
        <ele>253.8</ele>
        <time>2021-03-21T12:52:45Z</time>
      </trkpt>
      <trkpt lat="43.9129" lon="1.88589">
        <ele>253.8</ele>
        <time>2021-03-21T12:52:46Z</time>
      </trkpt>
      <trkpt lat="43.91286" lon="1.88594">
        <ele>253.8</ele>
        <time>2021-03-21T12:52:47Z</time>
      </trkpt>
      <trkpt lat="43.91283" lon="1.886">
        <ele>253.6</ele>
        <time>2021-03-21T12:52:48Z</time>
      </trkpt>
      <trkpt lat="43.91276" lon="1.88611">
        <ele>253.4</ele>
        <time>2021-03-21T12:52:50Z</time>
      </trkpt>
      <trkpt lat="43.91273" lon="1.88616">
        <ele>253.4</ele>
        <time>2021-03-21T12:52:51Z</time>
      </trkpt>
      <trkpt lat="43.91269" lon="1.88622">
        <ele>253.4</ele>
        <time>2021-03-21T12:52:52Z</time>
      </trkpt>
      <trkpt lat="43.91266" lon="1.88627">
        <ele>253.4</ele>
        <time>2021-03-21T12:52:53Z</time>
      </trkpt>
      <trkpt lat="43.91262" lon="1.88632">
        <ele>253.4</ele>
        <time>2021-03-21T12:52:54Z</time>
      </trkpt>
      <trkpt lat="43.91259" lon="1.88637">
        <ele>253.2</ele>
        <time>2021-03-21T12:52:55Z</time>
      </trkpt>
      <trkpt lat="43.91256" lon="1.88643">
        <ele>253</ele>
        <time>2021-03-21T12:52:56Z</time>
      </trkpt>
      <trkpt lat="43.91252" lon="1.88648">
        <ele>253.2</ele>
        <time>2021-03-21T12:52:57Z</time>
      </trkpt>
      <trkpt lat="43.91249" lon="1.88654">
        <ele>253</ele>
        <time>2021-03-21T12:52:58Z</time>
      </trkpt>
      <trkpt lat="43.91244" lon="1.88666">
        <ele>253</ele>
        <time>2021-03-21T12:53:00Z</time>
      </trkpt>
      <trkpt lat="43.91241" lon="1.88672">
        <ele>253.2</ele>
        <time>2021-03-21T12:53:01Z</time>
      </trkpt>
      <trkpt lat="43.91239" lon="1.88678">
        <ele>253</ele>
        <time>2021-03-21T12:53:02Z</time>
      </trkpt>
      <trkpt lat="43.91236" lon="1.88685">
        <ele>252.8</ele>
        <time>2021-03-21T12:53:03Z</time>
      </trkpt>
      <trkpt lat="43.91231" lon="1.88697">
        <ele>252.8</ele>
        <time>2021-03-21T12:53:05Z</time>
      </trkpt>
      <trkpt lat="43.91229" lon="1.88704">
        <ele>252.8</ele>
        <time>2021-03-21T12:53:06Z</time>
      </trkpt>
      <trkpt lat="43.91227" lon="1.8871">
        <ele>252.6</ele>
        <time>2021-03-21T12:53:07Z</time>
      </trkpt>
      <trkpt lat="43.91225" lon="1.88716">
        <ele>252.6</ele>
        <time>2021-03-21T12:53:08Z</time>
      </trkpt>
      <trkpt lat="43.91222" lon="1.88722">
        <ele>252.6</ele>
        <time>2021-03-21T12:53:09Z</time>
      </trkpt>
      <trkpt lat="43.91219" lon="1.88728">
        <ele>252.4</ele>
        <time>2021-03-21T12:53:10Z</time>
      </trkpt>
      <trkpt lat="43.91217" lon="1.88734">
        <ele>252.4</ele>
        <time>2021-03-21T12:53:11Z</time>
      </trkpt>
      <trkpt lat="43.91215" lon="1.8874">
        <ele>252.4</ele>
        <time>2021-03-21T12:53:12Z</time>
      </trkpt>
      <trkpt lat="43.91212" lon="1.88746">
        <ele>252.4</ele>
        <time>2021-03-21T12:53:13Z</time>
      </trkpt>
      <trkpt lat="43.9121" lon="1.88752">
        <ele>252.4</ele>
        <time>2021-03-21T12:53:14Z</time>
      </trkpt>
      <trkpt lat="43.91207" lon="1.88758">
        <ele>252.2</ele>
        <time>2021-03-21T12:53:15Z</time>
      </trkpt>
      <trkpt lat="43.91204" lon="1.88764">
        <ele>252.2</ele>
        <time>2021-03-21T12:53:16Z</time>
      </trkpt>
      <trkpt lat="43.91202" lon="1.88769">
        <ele>252.2</ele>
        <time>2021-03-21T12:53:17Z</time>
      </trkpt>
      <trkpt lat="43.91199" lon="1.88775">
        <ele>252.2</ele>
        <time>2021-03-21T12:53:18Z</time>
      </trkpt>
      <trkpt lat="43.91195" lon="1.88787">
        <ele>252.2</ele>
        <time>2021-03-21T12:53:20Z</time>
      </trkpt>
      <trkpt lat="43.91193" lon="1.88792">
        <ele>252.2</ele>
        <time>2021-03-21T12:53:21Z</time>
      </trkpt>
      <trkpt lat="43.9119" lon="1.88798">
        <ele>252</ele>
        <time>2021-03-21T12:53:22Z</time>
      </trkpt>
      <trkpt lat="43.91187" lon="1.88803">
        <ele>252</ele>
        <time>2021-03-21T12:53:23Z</time>
      </trkpt>
      <trkpt lat="43.91181" lon="1.88815">
        <ele>252</ele>
        <time>2021-03-21T12:53:25Z</time>
      </trkpt>
      <trkpt lat="43.91178" lon="1.88821">
        <ele>252</ele>
        <time>2021-03-21T12:53:26Z</time>
      </trkpt>
      <trkpt lat="43.91176" lon="1.88828">
        <ele>252</ele>
        <time>2021-03-21T12:53:27Z</time>
      </trkpt>
      <trkpt lat="43.91173" lon="1.88834">
        <ele>252</ele>
        <time>2021-03-21T12:53:28Z</time>
      </trkpt>
      <trkpt lat="43.91167" lon="1.88845">
        <ele>251.8</ele>
        <time>2021-03-21T12:53:30Z</time>
      </trkpt>
      <trkpt lat="43.91164" lon="1.88851">
        <ele>251.6</ele>
        <time>2021-03-21T12:53:31Z</time>
      </trkpt>
      <trkpt lat="43.91161" lon="1.88857">
        <ele>251.6</ele>
        <time>2021-03-21T12:53:32Z</time>
      </trkpt>
      <trkpt lat="43.91158" lon="1.88863">
        <ele>251.6</ele>
        <time>2021-03-21T12:53:33Z</time>
      </trkpt>
      <trkpt lat="43.91155" lon="1.88868">
        <ele>251.6</ele>
        <time>2021-03-21T12:53:34Z</time>
      </trkpt>
      <trkpt lat="43.91152" lon="1.88874">
        <ele>251.4</ele>
        <time>2021-03-21T12:53:35Z</time>
      </trkpt>
      <trkpt lat="43.91148" lon="1.88879">
        <ele>251.4</ele>
        <time>2021-03-21T12:53:36Z</time>
      </trkpt>
      <trkpt lat="43.91144" lon="1.88884">
        <ele>251.4</ele>
        <time>2021-03-21T12:53:37Z</time>
      </trkpt>
      <trkpt lat="43.91141" lon="1.8889">
        <ele>251.2</ele>
        <time>2021-03-21T12:53:38Z</time>
      </trkpt>
      <trkpt lat="43.91137" lon="1.88895">
        <ele>251.2</ele>
        <time>2021-03-21T12:53:39Z</time>
      </trkpt>
      <trkpt lat="43.91134" lon="1.889">
        <ele>251.2</ele>
        <time>2021-03-21T12:53:40Z</time>
      </trkpt>
      <trkpt lat="43.91126" lon="1.88911">
        <ele>250.8</ele>
        <time>2021-03-21T12:53:42Z</time>
      </trkpt>
      <trkpt lat="43.91122" lon="1.88916">
        <ele>251</ele>
        <time>2021-03-21T12:53:43Z</time>
      </trkpt>
      <trkpt lat="43.91119" lon="1.88922">
        <ele>251</ele>
        <time>2021-03-21T12:53:44Z</time>
      </trkpt>
      <trkpt lat="43.91116" lon="1.88927">
        <ele>250.8</ele>
        <time>2021-03-21T12:53:45Z</time>
      </trkpt>
      <trkpt lat="43.91112" lon="1.88932">
        <ele>250.8</ele>
        <time>2021-03-21T12:53:46Z</time>
      </trkpt>
      <trkpt lat="43.91108" lon="1.88938">
        <ele>250.8</ele>
        <time>2021-03-21T12:53:47Z</time>
      </trkpt>
      <trkpt lat="43.91105" lon="1.88943">
        <ele>250.6</ele>
        <time>2021-03-21T12:53:48Z</time>
      </trkpt>
      <trkpt lat="43.91101" lon="1.88949">
        <ele>250.4</ele>
        <time>2021-03-21T12:53:49Z</time>
      </trkpt>
      <trkpt lat="43.91098" lon="1.88954">
        <ele>250.6</ele>
        <time>2021-03-21T12:53:50Z</time>
      </trkpt>
      <trkpt lat="43.91094" lon="1.88959">
        <ele>250.6</ele>
        <time>2021-03-21T12:53:51Z</time>
      </trkpt>
      <trkpt lat="43.9109" lon="1.88965">
        <ele>250.4</ele>
        <time>2021-03-21T12:53:52Z</time>
      </trkpt>
      <trkpt lat="43.91086" lon="1.8897">
        <ele>250.4</ele>
        <time>2021-03-21T12:53:53Z</time>
      </trkpt>
      <trkpt lat="43.91083" lon="1.88976">
        <ele>250.4</ele>
        <time>2021-03-21T12:53:54Z</time>
      </trkpt>
      <trkpt lat="43.91079" lon="1.88981">
        <ele>250.2</ele>
        <time>2021-03-21T12:53:55Z</time>
      </trkpt>
      <trkpt lat="43.91075" lon="1.88986">
        <ele>250.4</ele>
        <time>2021-03-21T12:53:56Z</time>
      </trkpt>
      <trkpt lat="43.91072" lon="1.88991">
        <ele>250.2</ele>
        <time>2021-03-21T12:53:57Z</time>
      </trkpt>
      <trkpt lat="43.91064" lon="1.89002">
        <ele>250.4</ele>
        <time>2021-03-21T12:53:59Z</time>
      </trkpt>
      <trkpt lat="43.9106" lon="1.89007">
        <ele>250.2</ele>
        <time>2021-03-21T12:54:00Z</time>
      </trkpt>
      <trkpt lat="43.91056" lon="1.89012">
        <ele>250.2</ele>
        <time>2021-03-21T12:54:01Z</time>
      </trkpt>
      <trkpt lat="43.91052" lon="1.89017">
        <ele>250.2</ele>
        <time>2021-03-21T12:54:02Z</time>
      </trkpt>
      <trkpt lat="43.91047" lon="1.89022">
        <ele>250.2</ele>
        <time>2021-03-21T12:54:03Z</time>
      </trkpt>
      <trkpt lat="43.91043" lon="1.89026">
        <ele>250.2</ele>
        <time>2021-03-21T12:54:04Z</time>
      </trkpt>
      <trkpt lat="43.91039" lon="1.89031">
        <ele>250</ele>
        <time>2021-03-21T12:54:05Z</time>
      </trkpt>
      <trkpt lat="43.91035" lon="1.89035">
        <ele>250</ele>
        <time>2021-03-21T12:54:06Z</time>
      </trkpt>
      <trkpt lat="43.91031" lon="1.89039">
        <ele>250</ele>
        <time>2021-03-21T12:54:07Z</time>
      </trkpt>
      <trkpt lat="43.91026" lon="1.89043">
        <ele>250</ele>
        <time>2021-03-21T12:54:08Z</time>
      </trkpt>
      <trkpt lat="43.91022" lon="1.89047">
        <ele>249.8</ele>
        <time>2021-03-21T12:54:09Z</time>
      </trkpt>
      <trkpt lat="43.91018" lon="1.89051">
        <ele>250</ele>
        <time>2021-03-21T12:54:10Z</time>
      </trkpt>
      <trkpt lat="43.91014" lon="1.89054">
        <ele>250</ele>
        <time>2021-03-21T12:54:11Z</time>
      </trkpt>
      <trkpt lat="43.9101" lon="1.89058">
        <ele>249.8</ele>
        <time>2021-03-21T12:54:12Z</time>
      </trkpt>
      <trkpt lat="43.91006" lon="1.89061">
        <ele>249.8</ele>
        <time>2021-03-21T12:54:13Z</time>
      </trkpt>
      <trkpt lat="43.91002" lon="1.89065">
        <ele>249.8</ele>
        <time>2021-03-21T12:54:14Z</time>
      </trkpt>
      <trkpt lat="43.90998" lon="1.89068">
        <ele>249.8</ele>
        <time>2021-03-21T12:54:15Z</time>
      </trkpt>
      <trkpt lat="43.90994" lon="1.89071">
        <ele>249.8</ele>
        <time>2021-03-21T12:54:16Z</time>
      </trkpt>
      <trkpt lat="43.9099" lon="1.89074">
        <ele>249.8</ele>
        <time>2021-03-21T12:54:17Z</time>
      </trkpt>
      <trkpt lat="43.90985" lon="1.89077">
        <ele>249.8</ele>
        <time>2021-03-21T12:54:18Z</time>
      </trkpt>
      <trkpt lat="43.90981" lon="1.8908">
        <ele>249.8</ele>
        <time>2021-03-21T12:54:19Z</time>
      </trkpt>
      <trkpt lat="43.90977" lon="1.89082">
        <ele>249.8</ele>
        <time>2021-03-21T12:54:20Z</time>
      </trkpt>
      <trkpt lat="43.90973" lon="1.89085">
        <ele>249.8</ele>
        <time>2021-03-21T12:54:21Z</time>
      </trkpt>
      <trkpt lat="43.90968" lon="1.89087">
        <ele>249.6</ele>
        <time>2021-03-21T12:54:22Z</time>
      </trkpt>
      <trkpt lat="43.90964" lon="1.8909">
        <ele>249.6</ele>
        <time>2021-03-21T12:54:23Z</time>
      </trkpt>
      <trkpt lat="43.9096" lon="1.89092">
        <ele>249.6</ele>
        <time>2021-03-21T12:54:24Z</time>
      </trkpt>
      <trkpt lat="43.90956" lon="1.89094">
        <ele>249.6</ele>
        <time>2021-03-21T12:54:25Z</time>
      </trkpt>
      <trkpt lat="43.90951" lon="1.89096">
        <ele>249.4</ele>
        <time>2021-03-21T12:54:26Z</time>
      </trkpt>
      <trkpt lat="43.90947" lon="1.89097">
        <ele>249.4</ele>
        <time>2021-03-21T12:54:27Z</time>
      </trkpt>
      <trkpt lat="43.90938" lon="1.89101">
        <ele>249.4</ele>
        <time>2021-03-21T12:54:29Z</time>
      </trkpt>
      <trkpt lat="43.90934" lon="1.89103">
        <ele>249.4</ele>
        <time>2021-03-21T12:54:30Z</time>
      </trkpt>
      <trkpt lat="43.90929" lon="1.89105">
        <ele>249.4</ele>
        <time>2021-03-21T12:54:31Z</time>
      </trkpt>
      <trkpt lat="43.90925" lon="1.89107">
        <ele>249.4</ele>
        <time>2021-03-21T12:54:32Z</time>
      </trkpt>
      <trkpt lat="43.90916" lon="1.89112">
        <ele>249.2</ele>
        <time>2021-03-21T12:54:34Z</time>
      </trkpt>
      <trkpt lat="43.90912" lon="1.89115">
        <ele>249.2</ele>
        <time>2021-03-21T12:54:35Z</time>
      </trkpt>
      <trkpt lat="43.90908" lon="1.89118">
        <ele>249.4</ele>
        <time>2021-03-21T12:54:36Z</time>
      </trkpt>
      <trkpt lat="43.90903" lon="1.89121">
        <ele>249.4</ele>
        <time>2021-03-21T12:54:37Z</time>
      </trkpt>
      <trkpt lat="43.90895" lon="1.89128">
        <ele>249.4</ele>
        <time>2021-03-21T12:54:39Z</time>
      </trkpt>
      <trkpt lat="43.90891" lon="1.89132">
        <ele>249.2</ele>
        <time>2021-03-21T12:54:40Z</time>
      </trkpt>
      <trkpt lat="43.90887" lon="1.89136">
        <ele>249.4</ele>
        <time>2021-03-21T12:54:41Z</time>
      </trkpt>
      <trkpt lat="43.90883" lon="1.89141">
        <ele>249.2</ele>
        <time>2021-03-21T12:54:42Z</time>
      </trkpt>
      <trkpt lat="43.9088" lon="1.89145">
        <ele>249.4</ele>
        <time>2021-03-21T12:54:43Z</time>
      </trkpt>
      <trkpt lat="43.90876" lon="1.89149">
        <ele>249.2</ele>
        <time>2021-03-21T12:54:44Z</time>
      </trkpt>
      <trkpt lat="43.90872" lon="1.89153">
        <ele>249.4</ele>
        <time>2021-03-21T12:54:45Z</time>
      </trkpt>
      <trkpt lat="43.90868" lon="1.89158">
        <ele>249.4</ele>
        <time>2021-03-21T12:54:46Z</time>
      </trkpt>
      <trkpt lat="43.90864" lon="1.89162">
        <ele>249.4</ele>
        <time>2021-03-21T12:54:47Z</time>
      </trkpt>
      <trkpt lat="43.90861" lon="1.89166">
        <ele>249.4</ele>
        <time>2021-03-21T12:54:48Z</time>
      </trkpt>
      <trkpt lat="43.90857" lon="1.8917">
        <ele>249.2</ele>
        <time>2021-03-21T12:54:49Z</time>
      </trkpt>
      <trkpt lat="43.90853" lon="1.89174">
        <ele>249.4</ele>
        <time>2021-03-21T12:54:50Z</time>
      </trkpt>
      <trkpt lat="43.90849" lon="1.89178">
        <ele>249.4</ele>
        <time>2021-03-21T12:54:51Z</time>
      </trkpt>
      <trkpt lat="43.90844" lon="1.89182">
        <ele>249.4</ele>
        <time>2021-03-21T12:54:52Z</time>
      </trkpt>
      <trkpt lat="43.9084" lon="1.89186">
        <ele>249.4</ele>
        <time>2021-03-21T12:54:53Z</time>
      </trkpt>
      <trkpt lat="43.90836" lon="1.8919">
        <ele>249.4</ele>
        <time>2021-03-21T12:54:54Z</time>
      </trkpt>
      <trkpt lat="43.90832" lon="1.89195">
        <ele>249.4</ele>
        <time>2021-03-21T12:54:55Z</time>
      </trkpt>
      <trkpt lat="43.90828" lon="1.89199">
        <ele>249.4</ele>
        <time>2021-03-21T12:54:56Z</time>
      </trkpt>
      <trkpt lat="43.90824" lon="1.89204">
        <ele>249.4</ele>
        <time>2021-03-21T12:54:57Z</time>
      </trkpt>
      <trkpt lat="43.9082" lon="1.89208">
        <ele>249.4</ele>
        <time>2021-03-21T12:54:58Z</time>
      </trkpt>
      <trkpt lat="43.90815" lon="1.89212">
        <ele>249.2</ele>
        <time>2021-03-21T12:54:59Z</time>
      </trkpt>
      <trkpt lat="43.90811" lon="1.89216">
        <ele>249.2</ele>
        <time>2021-03-21T12:55:00Z</time>
      </trkpt>
      <trkpt lat="43.90807" lon="1.8922">
        <ele>249.6</ele>
        <time>2021-03-21T12:55:01Z</time>
      </trkpt>
      <trkpt lat="43.90803" lon="1.89223">
        <ele>249.4</ele>
        <time>2021-03-21T12:55:02Z</time>
      </trkpt>
      <trkpt lat="43.90799" lon="1.89226">
        <ele>249.4</ele>
        <time>2021-03-21T12:55:03Z</time>
      </trkpt>
      <trkpt lat="43.90795" lon="1.89229">
        <ele>249.2</ele>
        <time>2021-03-21T12:55:04Z</time>
      </trkpt>
      <trkpt lat="43.90791" lon="1.89233">
        <ele>249</ele>
        <time>2021-03-21T12:55:05Z</time>
      </trkpt>
      <trkpt lat="43.90787" lon="1.89236">
        <ele>248.8</ele>
        <time>2021-03-21T12:55:06Z</time>
      </trkpt>
      <trkpt lat="43.90783" lon="1.89239">
        <ele>248.6</ele>
        <time>2021-03-21T12:55:07Z</time>
      </trkpt>
      <trkpt lat="43.90779" lon="1.89242">
        <ele>248.6</ele>
        <time>2021-03-21T12:55:08Z</time>
      </trkpt>
      <trkpt lat="43.90776" lon="1.89245">
        <ele>248.6</ele>
        <time>2021-03-21T12:55:09Z</time>
      </trkpt>
      <trkpt lat="43.90772" lon="1.89248">
        <ele>248.6</ele>
        <time>2021-03-21T12:55:10Z</time>
      </trkpt>
      <trkpt lat="43.90769" lon="1.8925">
        <ele>248.4</ele>
        <time>2021-03-21T12:55:11Z</time>
      </trkpt>
      <trkpt lat="43.90765" lon="1.89253">
        <ele>248.4</ele>
        <time>2021-03-21T12:55:12Z</time>
      </trkpt>
      <trkpt lat="43.90761" lon="1.89256">
        <ele>248.4</ele>
        <time>2021-03-21T12:55:13Z</time>
      </trkpt>
      <trkpt lat="43.90758" lon="1.89259">
        <ele>248.6</ele>
        <time>2021-03-21T12:55:14Z</time>
      </trkpt>
      <trkpt lat="43.90754" lon="1.89263">
        <ele>248.4</ele>
        <time>2021-03-21T12:55:15Z</time>
      </trkpt>
      <trkpt lat="43.9075" lon="1.89266">
        <ele>248.6</ele>
        <time>2021-03-21T12:55:16Z</time>
      </trkpt>
      <trkpt lat="43.90747" lon="1.89269">
        <ele>248.6</ele>
        <time>2021-03-21T12:55:17Z</time>
      </trkpt>
      <trkpt lat="43.90744" lon="1.89272">
        <ele>248.4</ele>
        <time>2021-03-21T12:55:18Z</time>
      </trkpt>
      <trkpt lat="43.9074" lon="1.89275">
        <ele>248.4</ele>
        <time>2021-03-21T12:55:19Z</time>
      </trkpt>
      <trkpt lat="43.90737" lon="1.89278">
        <ele>248.4</ele>
        <time>2021-03-21T12:55:20Z</time>
      </trkpt>
      <trkpt lat="43.90734" lon="1.89281">
        <ele>248.6</ele>
        <time>2021-03-21T12:55:21Z</time>
      </trkpt>
      <trkpt lat="43.90732" lon="1.89284">
        <ele>248.6</ele>
        <time>2021-03-21T12:55:22Z</time>
      </trkpt>
      <trkpt lat="43.90729" lon="1.89287">
        <ele>248.4</ele>
        <time>2021-03-21T12:55:23Z</time>
      </trkpt>
      <trkpt lat="43.90727" lon="1.8929">
        <ele>248.6</ele>
        <time>2021-03-21T12:55:24Z</time>
      </trkpt>
      <trkpt lat="43.90724" lon="1.89293">
        <ele>248.6</ele>
        <time>2021-03-21T12:55:25Z</time>
      </trkpt>
      <trkpt lat="43.90722" lon="1.89296">
        <ele>248.6</ele>
        <time>2021-03-21T12:55:26Z</time>
      </trkpt>
      <trkpt lat="43.90719" lon="1.893">
        <ele>248.4</ele>
        <time>2021-03-21T12:55:27Z</time>
      </trkpt>
      <trkpt lat="43.90716" lon="1.89304">
        <ele>248.4</ele>
        <time>2021-03-21T12:55:28Z</time>
      </trkpt>
      <trkpt lat="43.9071" lon="1.89311">
        <ele>248.6</ele>
        <time>2021-03-21T12:55:30Z</time>
      </trkpt>
      <trkpt lat="43.90707" lon="1.89316">
        <ele>248.6</ele>
        <time>2021-03-21T12:55:31Z</time>
      </trkpt>
      <trkpt lat="43.90703" lon="1.8932">
        <ele>248.4</ele>
        <time>2021-03-21T12:55:32Z</time>
      </trkpt>
      <trkpt lat="43.907" lon="1.89324">
        <ele>248.6</ele>
        <time>2021-03-21T12:55:33Z</time>
      </trkpt>
      <trkpt lat="43.90693" lon="1.89333">
        <ele>248.2</ele>
        <time>2021-03-21T12:55:35Z</time>
      </trkpt>
      <trkpt lat="43.9069" lon="1.89337">
        <ele>248.2</ele>
        <time>2021-03-21T12:55:36Z</time>
      </trkpt>
      <trkpt lat="43.90687" lon="1.89342">
        <ele>248.2</ele>
        <time>2021-03-21T12:55:37Z</time>
      </trkpt>
      <trkpt lat="43.90683" lon="1.89346">
        <ele>248.2</ele>
        <time>2021-03-21T12:55:38Z</time>
      </trkpt>
      <trkpt lat="43.9068" lon="1.8935">
        <ele>248.2</ele>
        <time>2021-03-21T12:55:39Z</time>
      </trkpt>
      <trkpt lat="43.90677" lon="1.89354">
        <ele>248.2</ele>
        <time>2021-03-21T12:55:40Z</time>
      </trkpt>
      <trkpt lat="43.90673" lon="1.89358">
        <ele>248</ele>
        <time>2021-03-21T12:55:41Z</time>
      </trkpt>
      <trkpt lat="43.90669" lon="1.89362">
        <ele>247.8</ele>
        <time>2021-03-21T12:55:42Z</time>
      </trkpt>
      <trkpt lat="43.90666" lon="1.89365">
        <ele>248</ele>
        <time>2021-03-21T12:55:43Z</time>
      </trkpt>
      <trkpt lat="43.90662" lon="1.89369">
        <ele>247.8</ele>
        <time>2021-03-21T12:55:44Z</time>
      </trkpt>
      <trkpt lat="43.90659" lon="1.89373">
        <ele>247.6</ele>
        <time>2021-03-21T12:55:45Z</time>
      </trkpt>
      <trkpt lat="43.90657" lon="1.89376">
        <ele>247.8</ele>
        <time>2021-03-21T12:55:46Z</time>
      </trkpt>
      <trkpt lat="43.90655" lon="1.89378">
        <ele>247.8</ele>
        <time>2021-03-21T12:55:47Z</time>
      </trkpt>
      <trkpt lat="43.90654" lon="1.89381">
        <ele>247.8</ele>
        <time>2021-03-21T12:55:48Z</time>
      </trkpt>
      <trkpt lat="43.90655" lon="1.89382">
        <ele>247.6</ele>
        <time>2021-03-21T12:55:49Z</time>
      </trkpt>
      <trkpt lat="43.90657" lon="1.89381">
        <ele>247.6</ele>
        <time>2021-03-21T12:55:50Z</time>
      </trkpt>
      <trkpt lat="43.90659" lon="1.89379">
        <ele>247.6</ele>
        <time>2021-03-21T12:55:51Z</time>
      </trkpt>
      <trkpt lat="43.90662" lon="1.89377">
        <ele>247.6</ele>
        <time>2021-03-21T12:55:52Z</time>
      </trkpt>
      <trkpt lat="43.90664" lon="1.89374">
        <ele>247.4</ele>
        <time>2021-03-21T12:55:53Z</time>
      </trkpt>
      <trkpt lat="43.90667" lon="1.89371">
        <ele>247.6</ele>
        <time>2021-03-21T12:55:54Z</time>
      </trkpt>
      <trkpt lat="43.90669" lon="1.89368">
        <ele>247.4</ele>
        <time>2021-03-21T12:55:55Z</time>
      </trkpt>
      <trkpt lat="43.90671" lon="1.89366">
        <ele>247.4</ele>
        <time>2021-03-21T12:55:56Z</time>
      </trkpt>
      <trkpt lat="43.90674" lon="1.89363">
        <ele>247.4</ele>
        <time>2021-03-21T12:55:57Z</time>
      </trkpt>
      <trkpt lat="43.90676" lon="1.8936">
        <ele>247.4</ele>
        <time>2021-03-21T12:55:58Z</time>
      </trkpt>
      <trkpt lat="43.90678" lon="1.89358">
        <ele>247.4</ele>
        <time>2021-03-21T12:55:59Z</time>
      </trkpt>
      <trkpt lat="43.90681" lon="1.89355">
        <ele>247.4</ele>
        <time>2021-03-21T12:56:00Z</time>
      </trkpt>
      <trkpt lat="43.90683" lon="1.89352">
        <ele>247.2</ele>
        <time>2021-03-21T12:56:01Z</time>
      </trkpt>
      <trkpt lat="43.90686" lon="1.89349">
        <ele>247.2</ele>
        <time>2021-03-21T12:56:02Z</time>
      </trkpt>
      <trkpt lat="43.90691" lon="1.89343">
        <ele>247.4</ele>
        <time>2021-03-21T12:56:04Z</time>
      </trkpt>
      <trkpt lat="43.90693" lon="1.89339">
        <ele>247.2</ele>
        <time>2021-03-21T12:56:05Z</time>
      </trkpt>
      <trkpt lat="43.90696" lon="1.89336">
        <ele>247.4</ele>
        <time>2021-03-21T12:56:06Z</time>
      </trkpt>
      <trkpt lat="43.90698" lon="1.89332">
        <ele>247.4</ele>
        <time>2021-03-21T12:56:07Z</time>
      </trkpt>
      <trkpt lat="43.90704" lon="1.89326">
        <ele>247.2</ele>
        <time>2021-03-21T12:56:09Z</time>
      </trkpt>
      <trkpt lat="43.90707" lon="1.89323">
        <ele>247</ele>
        <time>2021-03-21T12:56:10Z</time>
      </trkpt>
      <trkpt lat="43.90709" lon="1.89319">
        <ele>247.2</ele>
        <time>2021-03-21T12:56:11Z</time>
      </trkpt>
      <trkpt lat="43.90712" lon="1.89316">
        <ele>247.2</ele>
        <time>2021-03-21T12:56:12Z</time>
      </trkpt>
      <trkpt lat="43.90718" lon="1.89311">
        <ele>247</ele>
        <time>2021-03-21T12:56:14Z</time>
      </trkpt>
      <trkpt lat="43.90721" lon="1.89308">
        <ele>247.2</ele>
        <time>2021-03-21T12:56:15Z</time>
      </trkpt>
      <trkpt lat="43.90724" lon="1.89306">
        <ele>247</ele>
        <time>2021-03-21T12:56:16Z</time>
      </trkpt>
      <trkpt lat="43.90728" lon="1.89305">
        <ele>247.2</ele>
        <time>2021-03-21T12:56:17Z</time>
      </trkpt>
      <trkpt lat="43.90731" lon="1.89303">
        <ele>247</ele>
        <time>2021-03-21T12:56:18Z</time>
      </trkpt>
      <trkpt lat="43.90734" lon="1.893">
        <ele>247</ele>
        <time>2021-03-21T12:56:19Z</time>
      </trkpt>
      <trkpt lat="43.90736" lon="1.89297">
        <ele>247</ele>
        <time>2021-03-21T12:56:20Z</time>
      </trkpt>
      <trkpt lat="43.90737" lon="1.89293">
        <ele>247</ele>
        <time>2021-03-21T12:56:21Z</time>
      </trkpt>
      <trkpt lat="43.90739" lon="1.89289">
        <ele>246.8</ele>
        <time>2021-03-21T12:56:22Z</time>
      </trkpt>
      <trkpt lat="43.90741" lon="1.89284">
        <ele>247</ele>
        <time>2021-03-21T12:56:23Z</time>
      </trkpt>
      <trkpt lat="43.90743" lon="1.8928">
        <ele>247</ele>
        <time>2021-03-21T12:56:24Z</time>
      </trkpt>
      <trkpt lat="43.90746" lon="1.89276">
        <ele>247</ele>
        <time>2021-03-21T12:56:25Z</time>
      </trkpt>
      <trkpt lat="43.9075" lon="1.89273">
        <ele>247</ele>
        <time>2021-03-21T12:56:26Z</time>
      </trkpt>
      <trkpt lat="43.90753" lon="1.8927">
        <ele>247</ele>
        <time>2021-03-21T12:56:27Z</time>
      </trkpt>
      <trkpt lat="43.90757" lon="1.89267">
        <ele>247</ele>
        <time>2021-03-21T12:56:28Z</time>
      </trkpt>
      <trkpt lat="43.90761" lon="1.89263">
        <ele>247.2</ele>
        <time>2021-03-21T12:56:29Z</time>
      </trkpt>
      <trkpt lat="43.90768" lon="1.89257">
        <ele>247</ele>
        <time>2021-03-21T12:56:31Z</time>
      </trkpt>
      <trkpt lat="43.90772" lon="1.89254">
        <ele>247</ele>
        <time>2021-03-21T12:56:32Z</time>
      </trkpt>
      <trkpt lat="43.90775" lon="1.89251">
        <ele>247</ele>
        <time>2021-03-21T12:56:33Z</time>
      </trkpt>
      <trkpt lat="43.90779" lon="1.89248">
        <ele>247</ele>
        <time>2021-03-21T12:56:34Z</time>
      </trkpt>
      <trkpt lat="43.90783" lon="1.89245">
        <ele>247</ele>
        <time>2021-03-21T12:56:35Z</time>
      </trkpt>
      <trkpt lat="43.90787" lon="1.89241">
        <ele>247</ele>
        <time>2021-03-21T12:56:36Z</time>
      </trkpt>
      <trkpt lat="43.9079" lon="1.89238">
        <ele>247.2</ele>
        <time>2021-03-21T12:56:37Z</time>
      </trkpt>
      <trkpt lat="43.90794" lon="1.89235">
        <ele>247</ele>
        <time>2021-03-21T12:56:38Z</time>
      </trkpt>
      <trkpt lat="43.90798" lon="1.89232">
        <ele>247</ele>
        <time>2021-03-21T12:56:39Z</time>
      </trkpt>
      <trkpt lat="43.90802" lon="1.89229">
        <ele>247.2</ele>
        <time>2021-03-21T12:56:40Z</time>
      </trkpt>
      <trkpt lat="43.90805" lon="1.89225">
        <ele>247</ele>
        <time>2021-03-21T12:56:41Z</time>
      </trkpt>
      <trkpt lat="43.90809" lon="1.89222">
        <ele>247.2</ele>
        <time>2021-03-21T12:56:42Z</time>
      </trkpt>
      <trkpt lat="43.90813" lon="1.89219">
        <ele>247</ele>
        <time>2021-03-21T12:56:43Z</time>
      </trkpt>
      <trkpt lat="43.90818" lon="1.89216">
        <ele>247</ele>
        <time>2021-03-21T12:56:44Z</time>
      </trkpt>
      <trkpt lat="43.90822" lon="1.89212">
        <ele>247</ele>
        <time>2021-03-21T12:56:45Z</time>
      </trkpt>
      <trkpt lat="43.90826" lon="1.89209">
        <ele>247</ele>
        <time>2021-03-21T12:56:46Z</time>
      </trkpt>
      <trkpt lat="43.9083" lon="1.89206">
        <ele>247</ele>
        <time>2021-03-21T12:56:47Z</time>
      </trkpt>
      <trkpt lat="43.90834" lon="1.89202">
        <ele>246.8</ele>
        <time>2021-03-21T12:56:48Z</time>
      </trkpt>
      <trkpt lat="43.90837" lon="1.89199">
        <ele>246.8</ele>
        <time>2021-03-21T12:56:49Z</time>
      </trkpt>
      <trkpt lat="43.90841" lon="1.89195">
        <ele>247</ele>
        <time>2021-03-21T12:56:50Z</time>
      </trkpt>
      <trkpt lat="43.90844" lon="1.89191">
        <ele>247</ele>
        <time>2021-03-21T12:56:51Z</time>
      </trkpt>
      <trkpt lat="43.90848" lon="1.89188">
        <ele>247.2</ele>
        <time>2021-03-21T12:56:52Z</time>
      </trkpt>
      <trkpt lat="43.90852" lon="1.89184">
        <ele>247</ele>
        <time>2021-03-21T12:56:53Z</time>
      </trkpt>
      <trkpt lat="43.90855" lon="1.8918">
        <ele>247.2</ele>
        <time>2021-03-21T12:56:54Z</time>
      </trkpt>
      <trkpt lat="43.90859" lon="1.89176">
        <ele>247.2</ele>
        <time>2021-03-21T12:56:55Z</time>
      </trkpt>
      <trkpt lat="43.90862" lon="1.89173">
        <ele>247.2</ele>
        <time>2021-03-21T12:56:56Z</time>
      </trkpt>
      <trkpt lat="43.90866" lon="1.89168">
        <ele>247.2</ele>
        <time>2021-03-21T12:56:57Z</time>
      </trkpt>
      <trkpt lat="43.90869" lon="1.89164">
        <ele>247.2</ele>
        <time>2021-03-21T12:56:58Z</time>
      </trkpt>
      <trkpt lat="43.90872" lon="1.89161">
        <ele>247.4</ele>
        <time>2021-03-21T12:56:59Z</time>
      </trkpt>
      <trkpt lat="43.90876" lon="1.89156">
        <ele>247.2</ele>
        <time>2021-03-21T12:57:00Z</time>
      </trkpt>
      <trkpt lat="43.90879" lon="1.89152">
        <ele>247.4</ele>
        <time>2021-03-21T12:57:01Z</time>
      </trkpt>
      <trkpt lat="43.90887" lon="1.89144">
        <ele>247.2</ele>
        <time>2021-03-21T12:57:03Z</time>
      </trkpt>
      <trkpt lat="43.9089" lon="1.8914">
        <ele>247.2</ele>
        <time>2021-03-21T12:57:04Z</time>
      </trkpt>
      <trkpt lat="43.90894" lon="1.89136">
        <ele>247.4</ele>
        <time>2021-03-21T12:57:05Z</time>
      </trkpt>
      <trkpt lat="43.90897" lon="1.89132">
        <ele>247.4</ele>
        <time>2021-03-21T12:57:06Z</time>
      </trkpt>
      <trkpt lat="43.90901" lon="1.89128">
        <ele>247.2</ele>
        <time>2021-03-21T12:57:07Z</time>
      </trkpt>
      <trkpt lat="43.90905" lon="1.89124">
        <ele>247.4</ele>
        <time>2021-03-21T12:57:08Z</time>
      </trkpt>
      <trkpt lat="43.90909" lon="1.89121">
        <ele>247.4</ele>
        <time>2021-03-21T12:57:09Z</time>
      </trkpt>
      <trkpt lat="43.90912" lon="1.89118">
        <ele>247.4</ele>
        <time>2021-03-21T12:57:10Z</time>
      </trkpt>
      <trkpt lat="43.90916" lon="1.89115">
        <ele>247.4</ele>
        <time>2021-03-21T12:57:11Z</time>
      </trkpt>
      <trkpt lat="43.90921" lon="1.89113">
        <ele>247.2</ele>
        <time>2021-03-21T12:57:12Z</time>
      </trkpt>
      <trkpt lat="43.90925" lon="1.8911">
        <ele>247.4</ele>
        <time>2021-03-21T12:57:13Z</time>
      </trkpt>
      <trkpt lat="43.9093" lon="1.89107">
        <ele>247.4</ele>
        <time>2021-03-21T12:57:14Z</time>
      </trkpt>
      <trkpt lat="43.90939" lon="1.89103">
        <ele>247.4</ele>
        <time>2021-03-21T12:57:16Z</time>
      </trkpt>
      <trkpt lat="43.90943" lon="1.89102">
        <ele>247.4</ele>
        <time>2021-03-21T12:57:17Z</time>
      </trkpt>
      <trkpt lat="43.90947" lon="1.89099">
        <ele>247.4</ele>
        <time>2021-03-21T12:57:18Z</time>
      </trkpt>
      <trkpt lat="43.90952" lon="1.89097">
        <ele>247.2</ele>
        <time>2021-03-21T12:57:19Z</time>
      </trkpt>
      <trkpt lat="43.90956" lon="1.89095">
        <ele>247.2</ele>
        <time>2021-03-21T12:57:20Z</time>
      </trkpt>
      <trkpt lat="43.90961" lon="1.89093">
        <ele>247.4</ele>
        <time>2021-03-21T12:57:21Z</time>
      </trkpt>
      <trkpt lat="43.90965" lon="1.89091">
        <ele>247.4</ele>
        <time>2021-03-21T12:57:22Z</time>
      </trkpt>
      <trkpt lat="43.9097" lon="1.89088">
        <ele>247.4</ele>
        <time>2021-03-21T12:57:23Z</time>
      </trkpt>
      <trkpt lat="43.90974" lon="1.89086">
        <ele>247.4</ele>
        <time>2021-03-21T12:57:24Z</time>
      </trkpt>
      <trkpt lat="43.90978" lon="1.89084">
        <ele>247.4</ele>
        <time>2021-03-21T12:57:25Z</time>
      </trkpt>
      <trkpt lat="43.90983" lon="1.89081">
        <ele>247.4</ele>
        <time>2021-03-21T12:57:26Z</time>
      </trkpt>
      <trkpt lat="43.90987" lon="1.89078">
        <ele>247.4</ele>
        <time>2021-03-21T12:57:27Z</time>
      </trkpt>
      <trkpt lat="43.90991" lon="1.89075">
        <ele>247.4</ele>
        <time>2021-03-21T12:57:28Z</time>
      </trkpt>
      <trkpt lat="43.90995" lon="1.89072">
        <ele>247.4</ele>
        <time>2021-03-21T12:57:29Z</time>
      </trkpt>
      <trkpt lat="43.90999" lon="1.89069">
        <ele>247.6</ele>
        <time>2021-03-21T12:57:30Z</time>
      </trkpt>
      <trkpt lat="43.91003" lon="1.89066">
        <ele>247.6</ele>
        <time>2021-03-21T12:57:31Z</time>
      </trkpt>
      <trkpt lat="43.91008" lon="1.89062">
        <ele>247.6</ele>
        <time>2021-03-21T12:57:32Z</time>
      </trkpt>
      <trkpt lat="43.91012" lon="1.89059">
        <ele>247.4</ele>
        <time>2021-03-21T12:57:33Z</time>
      </trkpt>
      <trkpt lat="43.91016" lon="1.89055">
        <ele>247.4</ele>
        <time>2021-03-21T12:57:34Z</time>
      </trkpt>
      <trkpt lat="43.9102" lon="1.89052">
        <ele>247.4</ele>
        <time>2021-03-21T12:57:35Z</time>
      </trkpt>
      <trkpt lat="43.91024" lon="1.89048">
        <ele>247.4</ele>
        <time>2021-03-21T12:57:36Z</time>
      </trkpt>
      <trkpt lat="43.91028" lon="1.89044">
        <ele>247.4</ele>
        <time>2021-03-21T12:57:37Z</time>
      </trkpt>
      <trkpt lat="43.91032" lon="1.8904">
        <ele>247.6</ele>
        <time>2021-03-21T12:57:38Z</time>
      </trkpt>
      <trkpt lat="43.91036" lon="1.89036">
        <ele>247.6</ele>
        <time>2021-03-21T12:57:39Z</time>
      </trkpt>
      <trkpt lat="43.9104" lon="1.89032">
        <ele>247.6</ele>
        <time>2021-03-21T12:57:40Z</time>
      </trkpt>
      <trkpt lat="43.91044" lon="1.89028">
        <ele>247.6</ele>
        <time>2021-03-21T12:57:41Z</time>
      </trkpt>
      <trkpt lat="43.91048" lon="1.89024">
        <ele>247.4</ele>
        <time>2021-03-21T12:57:42Z</time>
      </trkpt>
      <trkpt lat="43.91052" lon="1.8902">
        <ele>247.6</ele>
        <time>2021-03-21T12:57:43Z</time>
      </trkpt>
      <trkpt lat="43.91055" lon="1.89016">
        <ele>247.6</ele>
        <time>2021-03-21T12:57:44Z</time>
      </trkpt>
      <trkpt lat="43.91059" lon="1.89012">
        <ele>247.6</ele>
        <time>2021-03-21T12:57:45Z</time>
      </trkpt>
      <trkpt lat="43.91063" lon="1.89008">
        <ele>247.6</ele>
        <time>2021-03-21T12:57:46Z</time>
      </trkpt>
      <trkpt lat="43.91066" lon="1.89003">
        <ele>247.8</ele>
        <time>2021-03-21T12:57:47Z</time>
      </trkpt>
      <trkpt lat="43.9107" lon="1.88999">
        <ele>248</ele>
        <time>2021-03-21T12:57:48Z</time>
      </trkpt>
      <trkpt lat="43.91073" lon="1.88995">
        <ele>248</ele>
        <time>2021-03-21T12:57:49Z</time>
      </trkpt>
      <trkpt lat="43.91077" lon="1.88991">
        <ele>248</ele>
        <time>2021-03-21T12:57:50Z</time>
      </trkpt>
      <trkpt lat="43.9108" lon="1.88986">
        <ele>248</ele>
        <time>2021-03-21T12:57:51Z</time>
      </trkpt>
      <trkpt lat="43.91084" lon="1.88981">
        <ele>248</ele>
        <time>2021-03-21T12:57:52Z</time>
      </trkpt>
      <trkpt lat="43.91087" lon="1.88977">
        <ele>248</ele>
        <time>2021-03-21T12:57:53Z</time>
      </trkpt>
      <trkpt lat="43.91091" lon="1.88972">
        <ele>248</ele>
        <time>2021-03-21T12:57:54Z</time>
      </trkpt>
      <trkpt lat="43.91094" lon="1.88968">
        <ele>248</ele>
        <time>2021-03-21T12:57:55Z</time>
      </trkpt>
      <trkpt lat="43.91097" lon="1.88963">
        <ele>248</ele>
        <time>2021-03-21T12:57:56Z</time>
      </trkpt>
      <trkpt lat="43.911" lon="1.88958">
        <ele>248</ele>
        <time>2021-03-21T12:57:57Z</time>
      </trkpt>
      <trkpt lat="43.91102" lon="1.88953">
        <ele>248</ele>
        <time>2021-03-21T12:57:58Z</time>
      </trkpt>
      <trkpt lat="43.91105" lon="1.88948">
        <ele>248</ele>
        <time>2021-03-21T12:57:59Z</time>
      </trkpt>
      <trkpt lat="43.91109" lon="1.88944">
        <ele>248</ele>
        <time>2021-03-21T12:58:00Z</time>
      </trkpt>
      <trkpt lat="43.91112" lon="1.88939">
        <ele>248.2</ele>
        <time>2021-03-21T12:58:01Z</time>
      </trkpt>
      <trkpt lat="43.91115" lon="1.88934">
        <ele>248</ele>
        <time>2021-03-21T12:58:02Z</time>
      </trkpt>
      <trkpt lat="43.91118" lon="1.8893">
        <ele>248</ele>
        <time>2021-03-21T12:58:03Z</time>
      </trkpt>
      <trkpt lat="43.91121" lon="1.88925">
        <ele>248.2</ele>
        <time>2021-03-21T12:58:04Z</time>
      </trkpt>
      <trkpt lat="43.91124" lon="1.8892">
        <ele>248</ele>
        <time>2021-03-21T12:58:05Z</time>
      </trkpt>
      <trkpt lat="43.91127" lon="1.88916">
        <ele>248.2</ele>
        <time>2021-03-21T12:58:06Z</time>
      </trkpt>
      <trkpt lat="43.9113" lon="1.88911">
        <ele>248</ele>
        <time>2021-03-21T12:58:07Z</time>
      </trkpt>
      <trkpt lat="43.91133" lon="1.88906">
        <ele>248.2</ele>
        <time>2021-03-21T12:58:08Z</time>
      </trkpt>
      <trkpt lat="43.91137" lon="1.88901">
        <ele>248.2</ele>
        <time>2021-03-21T12:58:09Z</time>
      </trkpt>
      <trkpt lat="43.91144" lon="1.88891">
        <ele>248.6</ele>
        <time>2021-03-21T12:58:11Z</time>
      </trkpt>
      <trkpt lat="43.91147" lon="1.88886">
        <ele>248.8</ele>
        <time>2021-03-21T12:58:12Z</time>
      </trkpt>
      <trkpt lat="43.9115" lon="1.8888">
        <ele>249</ele>
        <time>2021-03-21T12:58:13Z</time>
      </trkpt>
      <trkpt lat="43.91153" lon="1.88875">
        <ele>249</ele>
        <time>2021-03-21T12:58:14Z</time>
      </trkpt>
      <trkpt lat="43.91156" lon="1.8887">
        <ele>249.2</ele>
        <time>2021-03-21T12:58:15Z</time>
      </trkpt>
      <trkpt lat="43.91159" lon="1.88865">
        <ele>249.4</ele>
        <time>2021-03-21T12:58:16Z</time>
      </trkpt>
      <trkpt lat="43.91162" lon="1.8886">
        <ele>249.4</ele>
        <time>2021-03-21T12:58:17Z</time>
      </trkpt>
      <trkpt lat="43.91165" lon="1.88855">
        <ele>249.4</ele>
        <time>2021-03-21T12:58:18Z</time>
      </trkpt>
      <trkpt lat="43.91168" lon="1.88849">
        <ele>249.4</ele>
        <time>2021-03-21T12:58:19Z</time>
      </trkpt>
      <trkpt lat="43.91171" lon="1.88844">
        <ele>249.4</ele>
        <time>2021-03-21T12:58:20Z</time>
      </trkpt>
      <trkpt lat="43.91174" lon="1.88838">
        <ele>249.4</ele>
        <time>2021-03-21T12:58:21Z</time>
      </trkpt>
      <trkpt lat="43.91177" lon="1.88832">
        <ele>249.4</ele>
        <time>2021-03-21T12:58:22Z</time>
      </trkpt>
      <trkpt lat="43.91182" lon="1.88821">
        <ele>249.4</ele>
        <time>2021-03-21T12:58:24Z</time>
      </trkpt>
      <trkpt lat="43.91185" lon="1.88815">
        <ele>249.4</ele>
        <time>2021-03-21T12:58:25Z</time>
      </trkpt>
      <trkpt lat="43.91187" lon="1.88809">
        <ele>249.4</ele>
        <time>2021-03-21T12:58:26Z</time>
      </trkpt>
      <trkpt lat="43.9119" lon="1.88803">
        <ele>249.4</ele>
        <time>2021-03-21T12:58:27Z</time>
      </trkpt>
      <trkpt lat="43.91193" lon="1.88797">
        <ele>249.2</ele>
        <time>2021-03-21T12:58:28Z</time>
      </trkpt>
      <trkpt lat="43.91195" lon="1.88791">
        <ele>249.4</ele>
        <time>2021-03-21T12:58:29Z</time>
      </trkpt>
      <trkpt lat="43.91197" lon="1.88785">
        <ele>249.4</ele>
        <time>2021-03-21T12:58:30Z</time>
      </trkpt>
      <trkpt lat="43.912" lon="1.8878">
        <ele>249.2</ele>
        <time>2021-03-21T12:58:31Z</time>
      </trkpt>
      <trkpt lat="43.91202" lon="1.88774">
        <ele>249.2</ele>
        <time>2021-03-21T12:58:32Z</time>
      </trkpt>
      <trkpt lat="43.91205" lon="1.88768">
        <ele>249.2</ele>
        <time>2021-03-21T12:58:33Z</time>
      </trkpt>
      <trkpt lat="43.91208" lon="1.88762">
        <ele>249.2</ele>
        <time>2021-03-21T12:58:34Z</time>
      </trkpt>
      <trkpt lat="43.9121" lon="1.88757">
        <ele>249.2</ele>
        <time>2021-03-21T12:58:35Z</time>
      </trkpt>
      <trkpt lat="43.91212" lon="1.88751">
        <ele>249.2</ele>
        <time>2021-03-21T12:58:36Z</time>
      </trkpt>
      <trkpt lat="43.91215" lon="1.88746">
        <ele>249.2</ele>
        <time>2021-03-21T12:58:37Z</time>
      </trkpt>
      <trkpt lat="43.91217" lon="1.8874">
        <ele>249.2</ele>
        <time>2021-03-21T12:58:38Z</time>
      </trkpt>
      <trkpt lat="43.91219" lon="1.88735">
        <ele>249.2</ele>
        <time>2021-03-21T12:58:39Z</time>
      </trkpt>
      <trkpt lat="43.91222" lon="1.88729">
        <ele>249.2</ele>
        <time>2021-03-21T12:58:40Z</time>
      </trkpt>
      <trkpt lat="43.91224" lon="1.88724">
        <ele>249.2</ele>
        <time>2021-03-21T12:58:41Z</time>
      </trkpt>
      <trkpt lat="43.91226" lon="1.88718">
        <ele>249.2</ele>
        <time>2021-03-21T12:58:42Z</time>
      </trkpt>
      <trkpt lat="43.91228" lon="1.88712">
        <ele>249.2</ele>
        <time>2021-03-21T12:58:43Z</time>
      </trkpt>
      <trkpt lat="43.91231" lon="1.88707">
        <ele>249.2</ele>
        <time>2021-03-21T12:58:44Z</time>
      </trkpt>
      <trkpt lat="43.91233" lon="1.88701">
        <ele>249.4</ele>
        <time>2021-03-21T12:58:45Z</time>
      </trkpt>
      <trkpt lat="43.91235" lon="1.88696">
        <ele>249.2</ele>
        <time>2021-03-21T12:58:46Z</time>
      </trkpt>
      <trkpt lat="43.91237" lon="1.88691">
        <ele>249.2</ele>
        <time>2021-03-21T12:58:47Z</time>
      </trkpt>
      <trkpt lat="43.91242" lon="1.8868">
        <ele>249.6</ele>
        <time>2021-03-21T12:58:49Z</time>
      </trkpt>
      <trkpt lat="43.91244" lon="1.88675">
        <ele>249.8</ele>
        <time>2021-03-21T12:58:50Z</time>
      </trkpt>
      <trkpt lat="43.91246" lon="1.8867">
        <ele>249.8</ele>
        <time>2021-03-21T12:58:51Z</time>
      </trkpt>
      <trkpt lat="43.91249" lon="1.88665">
        <ele>249.8</ele>
        <time>2021-03-21T12:58:52Z</time>
      </trkpt>
      <trkpt lat="43.91253" lon="1.88655">
        <ele>250.2</ele>
        <time>2021-03-21T12:58:54Z</time>
      </trkpt>
      <trkpt lat="43.91256" lon="1.88649">
        <ele>250.2</ele>
        <time>2021-03-21T12:58:55Z</time>
      </trkpt>
      <trkpt lat="43.91258" lon="1.88644">
        <ele>250.4</ele>
        <time>2021-03-21T12:58:56Z</time>
      </trkpt>
      <trkpt lat="43.91261" lon="1.88639">
        <ele>250.4</ele>
        <time>2021-03-21T12:58:57Z</time>
      </trkpt>
      <trkpt lat="43.91267" lon="1.88629">
        <ele>250.4</ele>
        <time>2021-03-21T12:58:59Z</time>
      </trkpt>
      <trkpt lat="43.9127" lon="1.88624">
        <ele>250.4</ele>
        <time>2021-03-21T12:59:00Z</time>
      </trkpt>
      <trkpt lat="43.91273" lon="1.8862">
        <ele>250.4</ele>
        <time>2021-03-21T12:59:01Z</time>
      </trkpt>
      <trkpt lat="43.91277" lon="1.88615">
        <ele>250.6</ele>
        <time>2021-03-21T12:59:02Z</time>
      </trkpt>
      <trkpt lat="43.9128" lon="1.88611">
        <ele>250.4</ele>
        <time>2021-03-21T12:59:03Z</time>
      </trkpt>
      <trkpt lat="43.91283" lon="1.88607">
        <ele>250.6</ele>
        <time>2021-03-21T12:59:04Z</time>
      </trkpt>
      <trkpt lat="43.91285" lon="1.88603">
        <ele>250.4</ele>
        <time>2021-03-21T12:59:05Z</time>
      </trkpt>
      <trkpt lat="43.91288" lon="1.88598">
        <ele>250.6</ele>
        <time>2021-03-21T12:59:06Z</time>
      </trkpt>
      <trkpt lat="43.91291" lon="1.88594">
        <ele>250.6</ele>
        <time>2021-03-21T12:59:07Z</time>
      </trkpt>
      <trkpt lat="43.91294" lon="1.8859">
        <ele>250.6</ele>
        <time>2021-03-21T12:59:08Z</time>
      </trkpt>
      <trkpt lat="43.91297" lon="1.88586">
        <ele>251</ele>
        <time>2021-03-21T12:59:09Z</time>
      </trkpt>
      <trkpt lat="43.91303" lon="1.88577">
        <ele>251.2</ele>
        <time>2021-03-21T12:59:11Z</time>
      </trkpt>
      <trkpt lat="43.91306" lon="1.88572">
        <ele>251.2</ele>
        <time>2021-03-21T12:59:12Z</time>
      </trkpt>
      <trkpt lat="43.91309" lon="1.88568">
        <ele>251.4</ele>
        <time>2021-03-21T12:59:13Z</time>
      </trkpt>
      <trkpt lat="43.91312" lon="1.88563">
        <ele>251.2</ele>
        <time>2021-03-21T12:59:14Z</time>
      </trkpt>
      <trkpt lat="43.91315" lon="1.88559">
        <ele>251.4</ele>
        <time>2021-03-21T12:59:15Z</time>
      </trkpt>
      <trkpt lat="43.91318" lon="1.88555">
        <ele>251.6</ele>
        <time>2021-03-21T12:59:16Z</time>
      </trkpt>
      <trkpt lat="43.9132" lon="1.88551">
        <ele>251.8</ele>
        <time>2021-03-21T12:59:17Z</time>
      </trkpt>
      <trkpt lat="43.91323" lon="1.88547">
        <ele>251.8</ele>
        <time>2021-03-21T12:59:18Z</time>
      </trkpt>
      <trkpt lat="43.91326" lon="1.88542">
        <ele>251.6</ele>
        <time>2021-03-21T12:59:19Z</time>
      </trkpt>
      <trkpt lat="43.91329" lon="1.88538">
        <ele>251.8</ele>
        <time>2021-03-21T12:59:20Z</time>
      </trkpt>
      <trkpt lat="43.91333" lon="1.88534">
        <ele>251.8</ele>
        <time>2021-03-21T12:59:21Z</time>
      </trkpt>
      <trkpt lat="43.91336" lon="1.88529">
        <ele>252</ele>
        <time>2021-03-21T12:59:22Z</time>
      </trkpt>
      <trkpt lat="43.91339" lon="1.88525">
        <ele>252</ele>
        <time>2021-03-21T12:59:23Z</time>
      </trkpt>
      <trkpt lat="43.91342" lon="1.88521">
        <ele>252</ele>
        <time>2021-03-21T12:59:24Z</time>
      </trkpt>
      <trkpt lat="43.91349" lon="1.88512">
        <ele>252.2</ele>
        <time>2021-03-21T12:59:26Z</time>
      </trkpt>
      <trkpt lat="43.91352" lon="1.88508">
        <ele>252</ele>
        <time>2021-03-21T12:59:27Z</time>
      </trkpt>
      <trkpt lat="43.91355" lon="1.88503">
        <ele>252.2</ele>
        <time>2021-03-21T12:59:28Z</time>
      </trkpt>
      <trkpt lat="43.91359" lon="1.88499">
        <ele>252.4</ele>
        <time>2021-03-21T12:59:29Z</time>
      </trkpt>
      <trkpt lat="43.91362" lon="1.88495">
        <ele>252.4</ele>
        <time>2021-03-21T12:59:30Z</time>
      </trkpt>
      <trkpt lat="43.91365" lon="1.88491">
        <ele>252.4</ele>
        <time>2021-03-21T12:59:31Z</time>
      </trkpt>
      <trkpt lat="43.91368" lon="1.88487">
        <ele>252.4</ele>
        <time>2021-03-21T12:59:32Z</time>
      </trkpt>
      <trkpt lat="43.91371" lon="1.88483">
        <ele>252.4</ele>
        <time>2021-03-21T12:59:33Z</time>
      </trkpt>
      <trkpt lat="43.91373" lon="1.8848">
        <ele>252.6</ele>
        <time>2021-03-21T12:59:34Z</time>
      </trkpt>
      <trkpt lat="43.91374" lon="1.88475">
        <ele>252.6</ele>
        <time>2021-03-21T12:59:35Z</time>
      </trkpt>
      <trkpt lat="43.91374" lon="1.8847">
        <ele>252.8</ele>
        <time>2021-03-21T12:59:36Z</time>
      </trkpt>
      <trkpt lat="43.91373" lon="1.88465">
        <ele>252.8</ele>
        <time>2021-03-21T12:59:37Z</time>
      </trkpt>
      <trkpt lat="43.9137" lon="1.88455">
        <ele>253</ele>
        <time>2021-03-21T12:59:39Z</time>
      </trkpt>
      <trkpt lat="43.91368" lon="1.88449">
        <ele>253.2</ele>
        <time>2021-03-21T12:59:40Z</time>
      </trkpt>
      <trkpt lat="43.91366" lon="1.88444">
        <ele>253</ele>
        <time>2021-03-21T12:59:41Z</time>
      </trkpt>
      <trkpt lat="43.91365" lon="1.88438">
        <ele>253.2</ele>
        <time>2021-03-21T12:59:42Z</time>
      </trkpt>
      <trkpt lat="43.91365" lon="1.88432">
        <ele>253.2</ele>
        <time>2021-03-21T12:59:43Z</time>
      </trkpt>
      <trkpt lat="43.91365" lon="1.88427">
        <ele>253.2</ele>
        <time>2021-03-21T12:59:44Z</time>
      </trkpt>
      <trkpt lat="43.91365" lon="1.88421">
        <ele>253.4</ele>
        <time>2021-03-21T12:59:45Z</time>
      </trkpt>
      <trkpt lat="43.91367" lon="1.88415">
        <ele>253.2</ele>
        <time>2021-03-21T12:59:46Z</time>
      </trkpt>
      <trkpt lat="43.91369" lon="1.8841">
        <ele>253.4</ele>
        <time>2021-03-21T12:59:47Z</time>
      </trkpt>
      <trkpt lat="43.91371" lon="1.88405">
        <ele>253.6</ele>
        <time>2021-03-21T12:59:48Z</time>
      </trkpt>
      <trkpt lat="43.91373" lon="1.884">
        <ele>253.4</ele>
        <time>2021-03-21T12:59:49Z</time>
      </trkpt>
      <trkpt lat="43.91375" lon="1.88394">
        <ele>253.6</ele>
        <time>2021-03-21T12:59:50Z</time>
      </trkpt>
      <trkpt lat="43.91378" lon="1.88389">
        <ele>253.6</ele>
        <time>2021-03-21T12:59:51Z</time>
      </trkpt>
      <trkpt lat="43.9138" lon="1.88384">
        <ele>253.8</ele>
        <time>2021-03-21T12:59:52Z</time>
      </trkpt>
      <trkpt lat="43.91384" lon="1.88374">
        <ele>253.8</ele>
        <time>2021-03-21T12:59:54Z</time>
      </trkpt>
      <trkpt lat="43.91386" lon="1.88368">
        <ele>253.8</ele>
        <time>2021-03-21T12:59:55Z</time>
      </trkpt>
      <trkpt lat="43.91388" lon="1.88363">
        <ele>254</ele>
        <time>2021-03-21T12:59:56Z</time>
      </trkpt>
      <trkpt lat="43.9139" lon="1.88358">
        <ele>254</ele>
        <time>2021-03-21T12:59:57Z</time>
      </trkpt>
      <trkpt lat="43.91392" lon="1.88353">
        <ele>254</ele>
        <time>2021-03-21T12:59:58Z</time>
      </trkpt>
      <trkpt lat="43.91394" lon="1.88348">
        <ele>254</ele>
        <time>2021-03-21T12:59:59Z</time>
      </trkpt>
      <trkpt lat="43.91399" lon="1.88337">
        <ele>253.8</ele>
        <time>2021-03-21T13:00:01Z</time>
      </trkpt>
      <trkpt lat="43.91401" lon="1.88332">
        <ele>254</ele>
        <time>2021-03-21T13:00:02Z</time>
      </trkpt>
      <trkpt lat="43.91403" lon="1.88326">
        <ele>254</ele>
        <time>2021-03-21T13:00:03Z</time>
      </trkpt>
      <trkpt lat="43.91406" lon="1.88321">
        <ele>254.2</ele>
        <time>2021-03-21T13:00:04Z</time>
      </trkpt>
      <trkpt lat="43.91408" lon="1.88315">
        <ele>254</ele>
        <time>2021-03-21T13:00:05Z</time>
      </trkpt>
      <trkpt lat="43.9141" lon="1.8831">
        <ele>254.2</ele>
        <time>2021-03-21T13:00:06Z</time>
      </trkpt>
      <trkpt lat="43.91413" lon="1.88305">
        <ele>254.2</ele>
        <time>2021-03-21T13:00:07Z</time>
      </trkpt>
      <trkpt lat="43.91415" lon="1.88299">
        <ele>254.4</ele>
        <time>2021-03-21T13:00:08Z</time>
      </trkpt>
      <trkpt lat="43.91418" lon="1.88294">
        <ele>254.2</ele>
        <time>2021-03-21T13:00:09Z</time>
      </trkpt>
      <trkpt lat="43.9142" lon="1.88289">
        <ele>254.2</ele>
        <time>2021-03-21T13:00:10Z</time>
      </trkpt>
      <trkpt lat="43.91422" lon="1.88284">
        <ele>254.4</ele>
        <time>2021-03-21T13:00:11Z</time>
      </trkpt>
      <trkpt lat="43.91424" lon="1.88279">
        <ele>254.4</ele>
        <time>2021-03-21T13:00:12Z</time>
      </trkpt>
      <trkpt lat="43.91427" lon="1.88275">
        <ele>254.4</ele>
        <time>2021-03-21T13:00:13Z</time>
      </trkpt>
      <trkpt lat="43.91429" lon="1.8827">
        <ele>254.2</ele>
        <time>2021-03-21T13:00:14Z</time>
      </trkpt>
      <trkpt lat="43.91431" lon="1.88264">
        <ele>254.2</ele>
        <time>2021-03-21T13:00:15Z</time>
      </trkpt>
      <trkpt lat="43.91433" lon="1.88259">
        <ele>254.2</ele>
        <time>2021-03-21T13:00:16Z</time>
      </trkpt>
      <trkpt lat="43.91435" lon="1.88255">
        <ele>254.2</ele>
        <time>2021-03-21T13:00:17Z</time>
      </trkpt>
      <trkpt lat="43.91437" lon="1.8825">
        <ele>254.2</ele>
        <time>2021-03-21T13:00:18Z</time>
      </trkpt>
      <trkpt lat="43.91439" lon="1.88245">
        <ele>254.4</ele>
        <time>2021-03-21T13:00:19Z</time>
      </trkpt>
      <trkpt lat="43.91443" lon="1.88236">
        <ele>254.6</ele>
        <time>2021-03-21T13:00:21Z</time>
      </trkpt>
      <trkpt lat="43.91445" lon="1.88232">
        <ele>254.6</ele>
        <time>2021-03-21T13:00:22Z</time>
      </trkpt>
      <trkpt lat="43.91446" lon="1.88227">
        <ele>254.6</ele>
        <time>2021-03-21T13:00:23Z</time>
      </trkpt>
      <trkpt lat="43.91448" lon="1.88222">
        <ele>254.6</ele>
        <time>2021-03-21T13:00:24Z</time>
      </trkpt>
      <trkpt lat="43.9145" lon="1.88217">
        <ele>254.6</ele>
        <time>2021-03-21T13:00:25Z</time>
      </trkpt>
      <trkpt lat="43.91451" lon="1.88211">
        <ele>254.8</ele>
        <time>2021-03-21T13:00:26Z</time>
      </trkpt>
      <trkpt lat="43.91453" lon="1.88206">
        <ele>254.8</ele>
        <time>2021-03-21T13:00:27Z</time>
      </trkpt>
      <trkpt lat="43.91454" lon="1.88201">
        <ele>254.8</ele>
        <time>2021-03-21T13:00:28Z</time>
      </trkpt>
      <trkpt lat="43.91456" lon="1.88196">
        <ele>254.8</ele>
        <time>2021-03-21T13:00:29Z</time>
      </trkpt>
      <trkpt lat="43.91457" lon="1.88191">
        <ele>254.8</ele>
        <time>2021-03-21T13:00:30Z</time>
      </trkpt>
      <trkpt lat="43.91458" lon="1.88187">
        <ele>255</ele>
        <time>2021-03-21T13:00:31Z</time>
      </trkpt>
      <trkpt lat="43.9146" lon="1.88182">
        <ele>255</ele>
        <time>2021-03-21T13:00:32Z</time>
      </trkpt>
      <trkpt lat="43.91461" lon="1.88177">
        <ele>255</ele>
        <time>2021-03-21T13:00:33Z</time>
      </trkpt>
      <trkpt lat="43.91463" lon="1.88172">
        <ele>255</ele>
        <time>2021-03-21T13:00:34Z</time>
      </trkpt>
      <trkpt lat="43.91465" lon="1.88167">
        <ele>255</ele>
        <time>2021-03-21T13:00:35Z</time>
      </trkpt>
      <trkpt lat="43.91466" lon="1.88163">
        <ele>255</ele>
        <time>2021-03-21T13:00:36Z</time>
      </trkpt>
      <trkpt lat="43.91469" lon="1.88159">
        <ele>255</ele>
        <time>2021-03-21T13:00:37Z</time>
      </trkpt>
      <trkpt lat="43.91471" lon="1.88156">
        <ele>255</ele>
        <time>2021-03-21T13:00:38Z</time>
      </trkpt>
      <trkpt lat="43.91473" lon="1.88152">
        <ele>255.2</ele>
        <time>2021-03-21T13:00:39Z</time>
      </trkpt>
      <trkpt lat="43.91476" lon="1.88149">
        <ele>255.2</ele>
        <time>2021-03-21T13:00:40Z</time>
      </trkpt>
      <trkpt lat="43.91479" lon="1.88145">
        <ele>255</ele>
        <time>2021-03-21T13:00:41Z</time>
      </trkpt>
      <trkpt lat="43.91481" lon="1.88142">
        <ele>255</ele>
        <time>2021-03-21T13:00:42Z</time>
      </trkpt>
      <trkpt lat="43.91484" lon="1.88139">
        <ele>255.2</ele>
        <time>2021-03-21T13:00:43Z</time>
      </trkpt>
      <trkpt lat="43.91487" lon="1.88136">
        <ele>255</ele>
        <time>2021-03-21T13:00:44Z</time>
      </trkpt>
      <trkpt lat="43.91489" lon="1.88133">
        <ele>254.8</ele>
        <time>2021-03-21T13:00:45Z</time>
      </trkpt>
      <trkpt lat="43.91492" lon="1.8813">
        <ele>254.8</ele>
        <time>2021-03-21T13:00:46Z</time>
      </trkpt>
      <trkpt lat="43.91494" lon="1.88127">
        <ele>254.8</ele>
        <time>2021-03-21T13:00:47Z</time>
      </trkpt>
      <trkpt lat="43.91496" lon="1.88123">
        <ele>255</ele>
        <time>2021-03-21T13:00:48Z</time>
      </trkpt>
      <trkpt lat="43.91497" lon="1.88119">
        <ele>255</ele>
        <time>2021-03-21T13:00:49Z</time>
      </trkpt>
      <trkpt lat="43.91499" lon="1.88115">
        <ele>255</ele>
        <time>2021-03-21T13:00:50Z</time>
      </trkpt>
      <trkpt lat="43.915" lon="1.8811">
        <ele>255</ele>
        <time>2021-03-21T13:00:51Z</time>
      </trkpt>
      <trkpt lat="43.91501" lon="1.88105">
        <ele>255.2</ele>
        <time>2021-03-21T13:00:52Z</time>
      </trkpt>
      <trkpt lat="43.91501" lon="1.881">
        <ele>255.2</ele>
        <time>2021-03-21T13:00:53Z</time>
      </trkpt>
      <trkpt lat="43.91502" lon="1.88094">
        <ele>255</ele>
        <time>2021-03-21T13:00:54Z</time>
      </trkpt>
      <trkpt lat="43.91502" lon="1.88089">
        <ele>255.4</ele>
        <time>2021-03-21T13:00:55Z</time>
      </trkpt>
      <trkpt lat="43.91503" lon="1.88083">
        <ele>255.2</ele>
        <time>2021-03-21T13:00:56Z</time>
      </trkpt>
      <trkpt lat="43.91503" lon="1.88078">
        <ele>255.4</ele>
        <time>2021-03-21T13:00:57Z</time>
      </trkpt>
      <trkpt lat="43.91504" lon="1.88072">
        <ele>255.4</ele>
        <time>2021-03-21T13:00:58Z</time>
      </trkpt>
      <trkpt lat="43.91504" lon="1.88067">
        <ele>255.2</ele>
        <time>2021-03-21T13:00:59Z</time>
      </trkpt>
      <trkpt lat="43.91505" lon="1.88061">
        <ele>255.4</ele>
        <time>2021-03-21T13:01:00Z</time>
      </trkpt>
      <trkpt lat="43.91506" lon="1.88056">
        <ele>255.4</ele>
        <time>2021-03-21T13:01:01Z</time>
      </trkpt>
      <trkpt lat="43.91506" lon="1.88051">
        <ele>255.4</ele>
        <time>2021-03-21T13:01:02Z</time>
      </trkpt>
      <trkpt lat="43.91507" lon="1.88045">
        <ele>255.4</ele>
        <time>2021-03-21T13:01:03Z</time>
      </trkpt>
      <trkpt lat="43.91508" lon="1.8804">
        <ele>255.6</ele>
        <time>2021-03-21T13:01:04Z</time>
      </trkpt>
      <trkpt lat="43.91509" lon="1.88035">
        <ele>255.4</ele>
        <time>2021-03-21T13:01:05Z</time>
      </trkpt>
      <trkpt lat="43.91509" lon="1.8803">
        <ele>255.6</ele>
        <time>2021-03-21T13:01:06Z</time>
      </trkpt>
      <trkpt lat="43.9151" lon="1.88025">
        <ele>255.6</ele>
        <time>2021-03-21T13:01:07Z</time>
      </trkpt>
      <trkpt lat="43.91511" lon="1.8802">
        <ele>255.6</ele>
        <time>2021-03-21T13:01:08Z</time>
      </trkpt>
      <trkpt lat="43.91512" lon="1.88015">
        <ele>255.8</ele>
        <time>2021-03-21T13:01:09Z</time>
      </trkpt>
      <trkpt lat="43.91514" lon="1.8801">
        <ele>255.8</ele>
        <time>2021-03-21T13:01:10Z</time>
      </trkpt>
      <trkpt lat="43.91516" lon="1.88006">
        <ele>255.8</ele>
        <time>2021-03-21T13:01:11Z</time>
      </trkpt>
      <trkpt lat="43.91518" lon="1.88001">
        <ele>255.8</ele>
        <time>2021-03-21T13:01:12Z</time>
      </trkpt>
      <trkpt lat="43.91521" lon="1.87997">
        <ele>255.8</ele>
        <time>2021-03-21T13:01:13Z</time>
      </trkpt>
      <trkpt lat="43.91523" lon="1.87993">
        <ele>255.8</ele>
        <time>2021-03-21T13:01:14Z</time>
      </trkpt>
      <trkpt lat="43.91525" lon="1.87988">
        <ele>255.8</ele>
        <time>2021-03-21T13:01:15Z</time>
      </trkpt>
      <trkpt lat="43.91527" lon="1.87984">
        <ele>256</ele>
        <time>2021-03-21T13:01:16Z</time>
      </trkpt>
      <trkpt lat="43.91529" lon="1.8798">
        <ele>256</ele>
        <time>2021-03-21T13:01:17Z</time>
      </trkpt>
      <trkpt lat="43.91531" lon="1.87976">
        <ele>256</ele>
        <time>2021-03-21T13:01:18Z</time>
      </trkpt>
      <trkpt lat="43.91533" lon="1.87971">
        <ele>256</ele>
        <time>2021-03-21T13:01:19Z</time>
      </trkpt>
      <trkpt lat="43.91534" lon="1.87967">
        <ele>256.2</ele>
        <time>2021-03-21T13:01:20Z</time>
      </trkpt>
      <trkpt lat="43.91535" lon="1.87961">
        <ele>256.2</ele>
        <time>2021-03-21T13:01:21Z</time>
      </trkpt>
      <trkpt lat="43.91537" lon="1.87956">
        <ele>256.2</ele>
        <time>2021-03-21T13:01:22Z</time>
      </trkpt>
      <trkpt lat="43.91537" lon="1.87951">
        <ele>256.2</ele>
        <time>2021-03-21T13:01:23Z</time>
      </trkpt>
      <trkpt lat="43.91538" lon="1.87946">
        <ele>256.4</ele>
        <time>2021-03-21T13:01:24Z</time>
      </trkpt>
      <trkpt lat="43.91539" lon="1.87941">
        <ele>256.4</ele>
        <time>2021-03-21T13:01:25Z</time>
      </trkpt>
      <trkpt lat="43.91539" lon="1.87936">
        <ele>256.4</ele>
        <time>2021-03-21T13:01:26Z</time>
      </trkpt>
      <trkpt lat="43.9154" lon="1.87931">
        <ele>256.4</ele>
        <time>2021-03-21T13:01:27Z</time>
      </trkpt>
      <trkpt lat="43.91541" lon="1.87927">
        <ele>256.4</ele>
        <time>2021-03-21T13:01:28Z</time>
      </trkpt>
      <trkpt lat="43.91541" lon="1.87922">
        <ele>256.4</ele>
        <time>2021-03-21T13:01:29Z</time>
      </trkpt>
      <trkpt lat="43.91543" lon="1.87912">
        <ele>256.4</ele>
        <time>2021-03-21T13:01:31Z</time>
      </trkpt>
      <trkpt lat="43.91543" lon="1.87907">
        <ele>256.4</ele>
        <time>2021-03-21T13:01:32Z</time>
      </trkpt>
      <trkpt lat="43.91544" lon="1.87902">
        <ele>256.2</ele>
        <time>2021-03-21T13:01:33Z</time>
      </trkpt>
      <trkpt lat="43.91545" lon="1.87897">
        <ele>256.2</ele>
        <time>2021-03-21T13:01:34Z</time>
      </trkpt>
      <trkpt lat="43.91545" lon="1.87893">
        <ele>256.2</ele>
        <time>2021-03-21T13:01:35Z</time>
      </trkpt>
      <trkpt lat="43.91546" lon="1.87888">
        <ele>256</ele>
        <time>2021-03-21T13:01:36Z</time>
      </trkpt>
      <trkpt lat="43.91547" lon="1.87883">
        <ele>256</ele>
        <time>2021-03-21T13:01:37Z</time>
      </trkpt>
      <trkpt lat="43.91547" lon="1.87878">
        <ele>256</ele>
        <time>2021-03-21T13:01:38Z</time>
      </trkpt>
      <trkpt lat="43.91548" lon="1.87873">
        <ele>256</ele>
        <time>2021-03-21T13:01:39Z</time>
      </trkpt>
      <trkpt lat="43.91549" lon="1.87864">
        <ele>256</ele>
        <time>2021-03-21T13:01:41Z</time>
      </trkpt>
      <trkpt lat="43.9155" lon="1.87859">
        <ele>256</ele>
        <time>2021-03-21T13:01:42Z</time>
      </trkpt>
      <trkpt lat="43.91551" lon="1.87855">
        <ele>256</ele>
        <time>2021-03-21T13:01:43Z</time>
      </trkpt>
      <trkpt lat="43.91552" lon="1.8785">
        <ele>256.2</ele>
        <time>2021-03-21T13:01:44Z</time>
      </trkpt>
      <trkpt lat="43.91554" lon="1.87846">
        <ele>256.4</ele>
        <time>2021-03-21T13:01:45Z</time>
      </trkpt>
      <trkpt lat="43.91556" lon="1.87841">
        <ele>256.2</ele>
        <time>2021-03-21T13:01:46Z</time>
      </trkpt>
      <trkpt lat="43.91558" lon="1.87837">
        <ele>256.2</ele>
        <time>2021-03-21T13:01:47Z</time>
      </trkpt>
      <trkpt lat="43.9156" lon="1.87833">
        <ele>256.4</ele>
        <time>2021-03-21T13:01:48Z</time>
      </trkpt>
      <trkpt lat="43.91562" lon="1.8783">
        <ele>256.6</ele>
        <time>2021-03-21T13:01:49Z</time>
      </trkpt>
      <trkpt lat="43.91565" lon="1.87826">
        <ele>256.8</ele>
        <time>2021-03-21T13:01:50Z</time>
      </trkpt>
      <trkpt lat="43.91567" lon="1.87823">
        <ele>256.8</ele>
        <time>2021-03-21T13:01:51Z</time>
      </trkpt>
      <trkpt lat="43.91569" lon="1.8782">
        <ele>257</ele>
        <time>2021-03-21T13:01:52Z</time>
      </trkpt>
      <trkpt lat="43.91572" lon="1.87817">
        <ele>257.2</ele>
        <time>2021-03-21T13:01:53Z</time>
      </trkpt>
      <trkpt lat="43.91574" lon="1.87813">
        <ele>257.2</ele>
        <time>2021-03-21T13:01:54Z</time>
      </trkpt>
      <trkpt lat="43.91579" lon="1.87806">
        <ele>257.6</ele>
        <time>2021-03-21T13:01:56Z</time>
      </trkpt>
      <trkpt lat="43.91581" lon="1.87803">
        <ele>257.4</ele>
        <time>2021-03-21T13:01:57Z</time>
      </trkpt>
      <trkpt lat="43.91583" lon="1.87799">
        <ele>257.4</ele>
        <time>2021-03-21T13:01:58Z</time>
      </trkpt>
      <trkpt lat="43.91586" lon="1.87796">
        <ele>257.6</ele>
        <time>2021-03-21T13:01:59Z</time>
      </trkpt>
      <trkpt lat="43.9159" lon="1.87789">
        <ele>257.8</ele>
        <time>2021-03-21T13:02:01Z</time>
      </trkpt>
      <trkpt lat="43.91592" lon="1.87786">
        <ele>257.8</ele>
        <time>2021-03-21T13:02:02Z</time>
      </trkpt>
      <trkpt lat="43.91594" lon="1.87783">
        <ele>257.8</ele>
        <time>2021-03-21T13:02:03Z</time>
      </trkpt>
      <trkpt lat="43.91596" lon="1.8778">
        <ele>258</ele>
        <time>2021-03-21T13:02:04Z</time>
      </trkpt>
      <trkpt lat="43.91598" lon="1.87777">
        <ele>257.8</ele>
        <time>2021-03-21T13:02:05Z</time>
      </trkpt>
      <trkpt lat="43.916" lon="1.87775">
        <ele>258</ele>
        <time>2021-03-21T13:02:06Z</time>
      </trkpt>
      <trkpt lat="43.91601" lon="1.87772">
        <ele>258</ele>
        <time>2021-03-21T13:02:07Z</time>
      </trkpt>
      <trkpt lat="43.91603" lon="1.87768">
        <ele>258.2</ele>
        <time>2021-03-21T13:02:08Z</time>
      </trkpt>
      <trkpt lat="43.91605" lon="1.87765">
        <ele>258.4</ele>
        <time>2021-03-21T13:02:09Z</time>
      </trkpt>
      <trkpt lat="43.91607" lon="1.87762">
        <ele>258.2</ele>
        <time>2021-03-21T13:02:10Z</time>
      </trkpt>
      <trkpt lat="43.91609" lon="1.87759">
        <ele>258.4</ele>
        <time>2021-03-21T13:02:11Z</time>
      </trkpt>
      <trkpt lat="43.9161" lon="1.87757">
        <ele>258.4</ele>
        <time>2021-03-21T13:02:12Z</time>
      </trkpt>
      <trkpt lat="43.91612" lon="1.87754">
        <ele>258.6</ele>
        <time>2021-03-21T13:02:13Z</time>
      </trkpt>
      <trkpt lat="43.91613" lon="1.87752">
        <ele>258.6</ele>
        <time>2021-03-21T13:02:14Z</time>
      </trkpt>
      <trkpt lat="43.91614" lon="1.87751">
        <ele>258.6</ele>
        <time>2021-03-21T13:02:15Z</time>
      </trkpt>
      <trkpt lat="43.91614" lon="1.87749">
        <ele>258.8</ele>
        <time>2021-03-21T13:02:16Z</time>
      </trkpt>
      <trkpt lat="43.91614" lon="1.87747">
        <ele>259</ele>
        <time>2021-03-21T13:02:17Z</time>
      </trkpt>
      <trkpt lat="43.91614" lon="1.87744">
        <ele>259</ele>
        <time>2021-03-21T13:02:18Z</time>
      </trkpt>
      <trkpt lat="43.91614" lon="1.87741">
        <ele>259</ele>
        <time>2021-03-21T13:02:19Z</time>
      </trkpt>
      <trkpt lat="43.91613" lon="1.87738">
        <ele>259.2</ele>
        <time>2021-03-21T13:02:20Z</time>
      </trkpt>
      <trkpt lat="43.91612" lon="1.87735">
        <ele>259.4</ele>
        <time>2021-03-21T13:02:21Z</time>
      </trkpt>
      <trkpt lat="43.91612" lon="1.87731">
        <ele>259.4</ele>
        <time>2021-03-21T13:02:22Z</time>
      </trkpt>
      <trkpt lat="43.91612" lon="1.87727">
        <ele>259.6</ele>
        <time>2021-03-21T13:02:23Z</time>
      </trkpt>
      <trkpt lat="43.91612" lon="1.87723">
        <ele>259.8</ele>
        <time>2021-03-21T13:02:24Z</time>
      </trkpt>
      <trkpt lat="43.91613" lon="1.87719">
        <ele>259.8</ele>
        <time>2021-03-21T13:02:25Z</time>
      </trkpt>
      <trkpt lat="43.91615" lon="1.87715">
        <ele>259.8</ele>
        <time>2021-03-21T13:02:26Z</time>
      </trkpt>
      <trkpt lat="43.91617" lon="1.87711">
        <ele>259.8</ele>
        <time>2021-03-21T13:02:27Z</time>
      </trkpt>
      <trkpt lat="43.91619" lon="1.87708">
        <ele>259.8</ele>
        <time>2021-03-21T13:02:28Z</time>
      </trkpt>
      <trkpt lat="43.91622" lon="1.87705">
        <ele>259.8</ele>
        <time>2021-03-21T13:02:29Z</time>
      </trkpt>
      <trkpt lat="43.91624" lon="1.87701">
        <ele>260</ele>
        <time>2021-03-21T13:02:30Z</time>
      </trkpt>
      <trkpt lat="43.91627" lon="1.87698">
        <ele>260</ele>
        <time>2021-03-21T13:02:31Z</time>
      </trkpt>
      <trkpt lat="43.91629" lon="1.87694">
        <ele>259.8</ele>
        <time>2021-03-21T13:02:32Z</time>
      </trkpt>
      <trkpt lat="43.91632" lon="1.87691">
        <ele>259.8</ele>
        <time>2021-03-21T13:02:33Z</time>
      </trkpt>
      <trkpt lat="43.91634" lon="1.87687">
        <ele>259.8</ele>
        <time>2021-03-21T13:02:34Z</time>
      </trkpt>
      <trkpt lat="43.91639" lon="1.8768">
        <ele>259.8</ele>
        <time>2021-03-21T13:02:36Z</time>
      </trkpt>
      <trkpt lat="43.91642" lon="1.87677">
        <ele>259.8</ele>
        <time>2021-03-21T13:02:37Z</time>
      </trkpt>
      <trkpt lat="43.91645" lon="1.87673">
        <ele>259.6</ele>
        <time>2021-03-21T13:02:38Z</time>
      </trkpt>
      <trkpt lat="43.91648" lon="1.8767">
        <ele>259.6</ele>
        <time>2021-03-21T13:02:39Z</time>
      </trkpt>
      <trkpt lat="43.9165" lon="1.87666">
        <ele>259.6</ele>
        <time>2021-03-21T13:02:40Z</time>
      </trkpt>
      <trkpt lat="43.91653" lon="1.87663">
        <ele>259.4</ele>
        <time>2021-03-21T13:02:41Z</time>
      </trkpt>
      <trkpt lat="43.91656" lon="1.87659">
        <ele>259.6</ele>
        <time>2021-03-21T13:02:42Z</time>
      </trkpt>
      <trkpt lat="43.91659" lon="1.87656">
        <ele>259.4</ele>
        <time>2021-03-21T13:02:43Z</time>
      </trkpt>
      <trkpt lat="43.91662" lon="1.87653">
        <ele>259.4</ele>
        <time>2021-03-21T13:02:44Z</time>
      </trkpt>
      <trkpt lat="43.91665" lon="1.87649">
        <ele>259.4</ele>
        <time>2021-03-21T13:02:45Z</time>
      </trkpt>
      <trkpt lat="43.91668" lon="1.87646">
        <ele>259.6</ele>
        <time>2021-03-21T13:02:46Z</time>
      </trkpt>
      <trkpt lat="43.91674" lon="1.87639">
        <ele>259.4</ele>
        <time>2021-03-21T13:02:48Z</time>
      </trkpt>
      <trkpt lat="43.91677" lon="1.87635">
        <ele>259.6</ele>
        <time>2021-03-21T13:02:49Z</time>
      </trkpt>
      <trkpt lat="43.9168" lon="1.87632">
        <ele>259.4</ele>
        <time>2021-03-21T13:02:50Z</time>
      </trkpt>
      <trkpt lat="43.91683" lon="1.87628">
        <ele>259.4</ele>
        <time>2021-03-21T13:02:51Z</time>
      </trkpt>
      <trkpt lat="43.91689" lon="1.87621">
        <ele>259.6</ele>
        <time>2021-03-21T13:02:53Z</time>
      </trkpt>
      <trkpt lat="43.91692" lon="1.87618">
        <ele>259.8</ele>
        <time>2021-03-21T13:02:54Z</time>
      </trkpt>
      <trkpt lat="43.91695" lon="1.87615">
        <ele>259.8</ele>
        <time>2021-03-21T13:02:55Z</time>
      </trkpt>
      <trkpt lat="43.91698" lon="1.87611">
        <ele>259.8</ele>
        <time>2021-03-21T13:02:56Z</time>
      </trkpt>
      <trkpt lat="43.91701" lon="1.87608">
        <ele>259.8</ele>
        <time>2021-03-21T13:02:57Z</time>
      </trkpt>
      <trkpt lat="43.91704" lon="1.87604">
        <ele>259.8</ele>
        <time>2021-03-21T13:02:58Z</time>
      </trkpt>
      <trkpt lat="43.91707" lon="1.87601">
        <ele>259.8</ele>
        <time>2021-03-21T13:02:59Z</time>
      </trkpt>
      <trkpt lat="43.91711" lon="1.87598">
        <ele>259.8</ele>
        <time>2021-03-21T13:03:00Z</time>
      </trkpt>
      <trkpt lat="43.91714" lon="1.87594">
        <ele>259.8</ele>
        <time>2021-03-21T13:03:01Z</time>
      </trkpt>
      <trkpt lat="43.91721" lon="1.87587">
        <ele>259.8</ele>
        <time>2021-03-21T13:03:03Z</time>
      </trkpt>
      <trkpt lat="43.91724" lon="1.87584">
        <ele>259.8</ele>
        <time>2021-03-21T13:03:04Z</time>
      </trkpt>
      <trkpt lat="43.91728" lon="1.87581">
        <ele>259.8</ele>
        <time>2021-03-21T13:03:05Z</time>
      </trkpt>
      <trkpt lat="43.91732" lon="1.87578">
        <ele>259.8</ele>
        <time>2021-03-21T13:03:06Z</time>
      </trkpt>
      <trkpt lat="43.91736" lon="1.87575">
        <ele>259.8</ele>
        <time>2021-03-21T13:03:07Z</time>
      </trkpt>
      <trkpt lat="43.91739" lon="1.87572">
        <ele>259.8</ele>
        <time>2021-03-21T13:03:08Z</time>
      </trkpt>
      <trkpt lat="43.91743" lon="1.8757">
        <ele>259.8</ele>
        <time>2021-03-21T13:03:09Z</time>
      </trkpt>
      <trkpt lat="43.91747" lon="1.87567">
        <ele>259.8</ele>
        <time>2021-03-21T13:03:10Z</time>
      </trkpt>
      <trkpt lat="43.91751" lon="1.87566">
        <ele>260</ele>
        <time>2021-03-21T13:03:11Z</time>
      </trkpt>
      <trkpt lat="43.91755" lon="1.87564">
        <ele>260</ele>
        <time>2021-03-21T13:03:12Z</time>
      </trkpt>
      <trkpt lat="43.91759" lon="1.87562">
        <ele>260</ele>
        <time>2021-03-21T13:03:13Z</time>
      </trkpt>
      <trkpt lat="43.91763" lon="1.87561">
        <ele>260</ele>
        <time>2021-03-21T13:03:14Z</time>
      </trkpt>
      <trkpt lat="43.91768" lon="1.87561">
        <ele>260.4</ele>
        <time>2021-03-21T13:03:15Z</time>
      </trkpt>
      <trkpt lat="43.91771" lon="1.87561">
        <ele>260.6</ele>
        <time>2021-03-21T13:03:16Z</time>
      </trkpt>
      <trkpt lat="43.91775" lon="1.87561">
        <ele>260.6</ele>
        <time>2021-03-21T13:03:17Z</time>
      </trkpt>
      <trkpt lat="43.91779" lon="1.87561">
        <ele>260.8</ele>
        <time>2021-03-21T13:03:18Z</time>
      </trkpt>
      <trkpt lat="43.91783" lon="1.87562">
        <ele>260.8</ele>
        <time>2021-03-21T13:03:19Z</time>
      </trkpt>
      <trkpt lat="43.91787" lon="1.87563">
        <ele>260.8</ele>
        <time>2021-03-21T13:03:20Z</time>
      </trkpt>
      <trkpt lat="43.9179" lon="1.87563">
        <ele>260.8</ele>
        <time>2021-03-21T13:03:21Z</time>
      </trkpt>
      <trkpt lat="43.91798" lon="1.87565">
        <ele>260.8</ele>
        <time>2021-03-21T13:03:23Z</time>
      </trkpt>
      <trkpt lat="43.91802" lon="1.87566">
        <ele>260.8</ele>
        <time>2021-03-21T13:03:24Z</time>
      </trkpt>
      <trkpt lat="43.91805" lon="1.87567">
        <ele>261</ele>
        <time>2021-03-21T13:03:25Z</time>
      </trkpt>
      <trkpt lat="43.91809" lon="1.87568">
        <ele>261</ele>
        <time>2021-03-21T13:03:26Z</time>
      </trkpt>
      <trkpt lat="43.91813" lon="1.87568">
        <ele>261</ele>
        <time>2021-03-21T13:03:27Z</time>
      </trkpt>
      <trkpt lat="43.91817" lon="1.87569">
        <ele>261</ele>
        <time>2021-03-21T13:03:28Z</time>
      </trkpt>
      <trkpt lat="43.9182" lon="1.87569">
        <ele>261</ele>
        <time>2021-03-21T13:03:29Z</time>
      </trkpt>
      <trkpt lat="43.91824" lon="1.8757">
        <ele>261</ele>
        <time>2021-03-21T13:03:30Z</time>
      </trkpt>
      <trkpt lat="43.91828" lon="1.87571">
        <ele>261</ele>
        <time>2021-03-21T13:03:31Z</time>
      </trkpt>
      <trkpt lat="43.91831" lon="1.87571">
        <ele>261</ele>
        <time>2021-03-21T13:03:32Z</time>
      </trkpt>
      <trkpt lat="43.91835" lon="1.87571">
        <ele>261</ele>
        <time>2021-03-21T13:03:33Z</time>
      </trkpt>
      <trkpt lat="43.91839" lon="1.87571">
        <ele>261</ele>
        <time>2021-03-21T13:03:34Z</time>
      </trkpt>
      <trkpt lat="43.91847" lon="1.87571">
        <ele>261</ele>
        <time>2021-03-21T13:03:36Z</time>
      </trkpt>
      <trkpt lat="43.91851" lon="1.87571">
        <ele>261</ele>
        <time>2021-03-21T13:03:37Z</time>
      </trkpt>
      <trkpt lat="43.91855" lon="1.87571">
        <ele>261.2</ele>
        <time>2021-03-21T13:03:38Z</time>
      </trkpt>
      <trkpt lat="43.91859" lon="1.87571">
        <ele>261</ele>
        <time>2021-03-21T13:03:39Z</time>
      </trkpt>
      <trkpt lat="43.91867" lon="1.87572">
        <ele>261.4</ele>
        <time>2021-03-21T13:03:41Z</time>
      </trkpt>
      <trkpt lat="43.91871" lon="1.87572">
        <ele>261.6</ele>
        <time>2021-03-21T13:03:42Z</time>
      </trkpt>
      <trkpt lat="43.91875" lon="1.87572">
        <ele>261.8</ele>
        <time>2021-03-21T13:03:43Z</time>
      </trkpt>
      <trkpt lat="43.91879" lon="1.87572">
        <ele>261.8</ele>
        <time>2021-03-21T13:03:44Z</time>
      </trkpt>
      <trkpt lat="43.91887" lon="1.87573">
        <ele>262</ele>
        <time>2021-03-21T13:03:46Z</time>
      </trkpt>
      <trkpt lat="43.91891" lon="1.87573">
        <ele>262</ele>
        <time>2021-03-21T13:03:47Z</time>
      </trkpt>
      <trkpt lat="43.91895" lon="1.87574">
        <ele>262.2</ele>
        <time>2021-03-21T13:03:48Z</time>
      </trkpt>
      <trkpt lat="43.91899" lon="1.87575">
        <ele>262.4</ele>
        <time>2021-03-21T13:03:49Z</time>
      </trkpt>
      <trkpt lat="43.91903" lon="1.87575">
        <ele>262.4</ele>
        <time>2021-03-21T13:03:50Z</time>
      </trkpt>
      <trkpt lat="43.91906" lon="1.87576">
        <ele>262.4</ele>
        <time>2021-03-21T13:03:51Z</time>
      </trkpt>
      <trkpt lat="43.9191" lon="1.87577">
        <ele>262.6</ele>
        <time>2021-03-21T13:03:52Z</time>
      </trkpt>
      <trkpt lat="43.91914" lon="1.87578">
        <ele>262.6</ele>
        <time>2021-03-21T13:03:53Z</time>
      </trkpt>
      <trkpt lat="43.91918" lon="1.87578">
        <ele>262.6</ele>
        <time>2021-03-21T13:03:54Z</time>
      </trkpt>
      <trkpt lat="43.91921" lon="1.87579">
        <ele>262.6</ele>
        <time>2021-03-21T13:03:55Z</time>
      </trkpt>
      <trkpt lat="43.91925" lon="1.8758">
        <ele>262.6</ele>
        <time>2021-03-21T13:03:56Z</time>
      </trkpt>
      <trkpt lat="43.91929" lon="1.8758">
        <ele>262.8</ele>
        <time>2021-03-21T13:03:57Z</time>
      </trkpt>
      <trkpt lat="43.91933" lon="1.87581">
        <ele>263</ele>
        <time>2021-03-21T13:03:58Z</time>
      </trkpt>
      <trkpt lat="43.91936" lon="1.87581">
        <ele>262.8</ele>
        <time>2021-03-21T13:03:59Z</time>
      </trkpt>
      <trkpt lat="43.9194" lon="1.87582">
        <ele>263</ele>
        <time>2021-03-21T13:04:00Z</time>
      </trkpt>
      <trkpt lat="43.91943" lon="1.87582">
        <ele>263.4</ele>
        <time>2021-03-21T13:04:01Z</time>
      </trkpt>
      <trkpt lat="43.91947" lon="1.87582">
        <ele>263.4</ele>
        <time>2021-03-21T13:04:02Z</time>
      </trkpt>
      <trkpt lat="43.9195" lon="1.87582">
        <ele>263.8</ele>
        <time>2021-03-21T13:04:03Z</time>
      </trkpt>
      <trkpt lat="43.91954" lon="1.87582">
        <ele>264.2</ele>
        <time>2021-03-21T13:04:04Z</time>
      </trkpt>
      <trkpt lat="43.91957" lon="1.87582">
        <ele>264.4</ele>
        <time>2021-03-21T13:04:05Z</time>
      </trkpt>
      <trkpt lat="43.91961" lon="1.87581">
        <ele>264.6</ele>
        <time>2021-03-21T13:04:06Z</time>
      </trkpt>
      <trkpt lat="43.91964" lon="1.87581">
        <ele>265</ele>
        <time>2021-03-21T13:04:07Z</time>
      </trkpt>
      <trkpt lat="43.91968" lon="1.87581">
        <ele>265.2</ele>
        <time>2021-03-21T13:04:08Z</time>
      </trkpt>
      <trkpt lat="43.91971" lon="1.8758">
        <ele>265.2</ele>
        <time>2021-03-21T13:04:09Z</time>
      </trkpt>
      <trkpt lat="43.91975" lon="1.87579">
        <ele>265.6</ele>
        <time>2021-03-21T13:04:10Z</time>
      </trkpt>
      <trkpt lat="43.91978" lon="1.87578">
        <ele>265.6</ele>
        <time>2021-03-21T13:04:11Z</time>
      </trkpt>
      <trkpt lat="43.91981" lon="1.87577">
        <ele>265.6</ele>
        <time>2021-03-21T13:04:12Z</time>
      </trkpt>
      <trkpt lat="43.91985" lon="1.87576">
        <ele>265.6</ele>
        <time>2021-03-21T13:04:13Z</time>
      </trkpt>
      <trkpt lat="43.91988" lon="1.87574">
        <ele>265.8</ele>
        <time>2021-03-21T13:04:14Z</time>
      </trkpt>
      <trkpt lat="43.91991" lon="1.87572">
        <ele>265.8</ele>
        <time>2021-03-21T13:04:15Z</time>
      </trkpt>
      <trkpt lat="43.91994" lon="1.87571">
        <ele>265.8</ele>
        <time>2021-03-21T13:04:16Z</time>
      </trkpt>
      <trkpt lat="43.91997" lon="1.87569">
        <ele>266</ele>
        <time>2021-03-21T13:04:17Z</time>
      </trkpt>
      <trkpt lat="43.92" lon="1.87568">
        <ele>266.2</ele>
        <time>2021-03-21T13:04:18Z</time>
      </trkpt>
      <trkpt lat="43.92002" lon="1.87566">
        <ele>266.4</ele>
        <time>2021-03-21T13:04:19Z</time>
      </trkpt>
      <trkpt lat="43.92004" lon="1.87564">
        <ele>266.6</ele>
        <time>2021-03-21T13:04:20Z</time>
      </trkpt>
      <trkpt lat="43.92007" lon="1.87563">
        <ele>266.6</ele>
        <time>2021-03-21T13:04:21Z</time>
      </trkpt>
      <trkpt lat="43.92009" lon="1.87562">
        <ele>266.8</ele>
        <time>2021-03-21T13:04:22Z</time>
      </trkpt>
      <trkpt lat="43.9201" lon="1.87561">
        <ele>266.8</ele>
        <time>2021-03-21T13:04:23Z</time>
      </trkpt>
      <trkpt lat="43.92012" lon="1.87559">
        <ele>267.2</ele>
        <time>2021-03-21T13:04:24Z</time>
      </trkpt>
      <trkpt lat="43.92013" lon="1.87558">
        <ele>267.4</ele>
        <time>2021-03-21T13:04:25Z</time>
      </trkpt>
      <trkpt lat="43.92013" lon="1.87555">
        <ele>267.4</ele>
        <time>2021-03-21T13:04:26Z</time>
      </trkpt>
      <trkpt lat="43.92013" lon="1.87553">
        <ele>267.8</ele>
        <time>2021-03-21T13:04:27Z</time>
      </trkpt>
      <trkpt lat="43.92013" lon="1.8755">
        <ele>268.2</ele>
        <time>2021-03-21T13:04:28Z</time>
      </trkpt>
      <trkpt lat="43.92012" lon="1.87548">
        <ele>268.6</ele>
        <time>2021-03-21T13:04:29Z</time>
      </trkpt>
      <trkpt lat="43.92011" lon="1.87546">
        <ele>268.6</ele>
        <time>2021-03-21T13:04:30Z</time>
      </trkpt>
      <trkpt lat="43.9201" lon="1.87544">
        <ele>268.6</ele>
        <time>2021-03-21T13:04:31Z</time>
      </trkpt>
      <trkpt lat="43.9201" lon="1.87542">
        <ele>268.6</ele>
        <time>2021-03-21T13:04:32Z</time>
      </trkpt>
      <trkpt lat="43.92009" lon="1.87539">
        <ele>269</ele>
        <time>2021-03-21T13:04:33Z</time>
      </trkpt>
      <trkpt lat="43.92009" lon="1.87538">
        <ele>269</ele>
        <time>2021-03-21T13:04:34Z</time>
      </trkpt>
      <trkpt lat="43.92009" lon="1.87536">
        <ele>269</ele>
        <time>2021-03-21T13:04:35Z</time>
      </trkpt>
      <trkpt lat="43.92009" lon="1.87534">
        <ele>269.2</ele>
        <time>2021-03-21T13:04:36Z</time>
      </trkpt>
      <trkpt lat="43.92009" lon="1.87532">
        <ele>269.2</ele>
        <time>2021-03-21T13:04:37Z</time>
      </trkpt>
      <trkpt lat="43.92009" lon="1.8753">
        <ele>269.8</ele>
        <time>2021-03-21T13:04:38Z</time>
      </trkpt>
      <trkpt lat="43.92008" lon="1.87528">
        <ele>270</ele>
        <time>2021-03-21T13:04:39Z</time>
      </trkpt>
      <trkpt lat="43.92008" lon="1.87527">
        <ele>270.2</ele>
        <time>2021-03-21T13:04:40Z</time>
      </trkpt>
      <trkpt lat="43.92008" lon="1.87525">
        <ele>270.6</ele>
        <time>2021-03-21T13:04:41Z</time>
      </trkpt>
      <trkpt lat="43.92008" lon="1.87523">
        <ele>271</ele>
        <time>2021-03-21T13:04:42Z</time>
      </trkpt>
      <trkpt lat="43.92008" lon="1.87522">
        <ele>271.4</ele>
        <time>2021-03-21T13:04:43Z</time>
      </trkpt>
      <trkpt lat="43.92007" lon="1.8752">
        <ele>271.6</ele>
        <time>2021-03-21T13:04:44Z</time>
      </trkpt>
      <trkpt lat="43.92007" lon="1.87519">
        <ele>272</ele>
        <time>2021-03-21T13:04:45Z</time>
      </trkpt>
      <trkpt lat="43.92007" lon="1.87517">
        <ele>272.4</ele>
        <time>2021-03-21T13:04:46Z</time>
      </trkpt>
      <trkpt lat="43.92007" lon="1.87516">
        <ele>272.4</ele>
        <time>2021-03-21T13:04:47Z</time>
      </trkpt>
      <trkpt lat="43.92006" lon="1.87514">
        <ele>272.6</ele>
        <time>2021-03-21T13:04:48Z</time>
      </trkpt>
      <trkpt lat="43.92006" lon="1.87513">
        <ele>273</ele>
        <time>2021-03-21T13:04:49Z</time>
      </trkpt>
      <trkpt lat="43.92006" lon="1.87512">
        <ele>273</ele>
        <time>2021-03-21T13:04:50Z</time>
      </trkpt>
      <trkpt lat="43.92006" lon="1.8751">
        <ele>273.2</ele>
        <time>2021-03-21T13:04:51Z</time>
      </trkpt>
      <trkpt lat="43.92005" lon="1.87508">
        <ele>273.4</ele>
        <time>2021-03-21T13:04:52Z</time>
      </trkpt>
      <trkpt lat="43.92005" lon="1.87507">
        <ele>273.8</ele>
        <time>2021-03-21T13:04:53Z</time>
      </trkpt>
      <trkpt lat="43.92005" lon="1.87505">
        <ele>273.8</ele>
        <time>2021-03-21T13:04:54Z</time>
      </trkpt>
      <trkpt lat="43.92005" lon="1.87503">
        <ele>273.8</ele>
        <time>2021-03-21T13:04:55Z</time>
      </trkpt>
      <trkpt lat="43.92005" lon="1.87501">
        <ele>274</ele>
        <time>2021-03-21T13:04:56Z</time>
      </trkpt>
      <trkpt lat="43.92005" lon="1.875">
        <ele>274.2</ele>
        <time>2021-03-21T13:04:57Z</time>
      </trkpt>
      <trkpt lat="43.92004" lon="1.87498">
        <ele>274.2</ele>
        <time>2021-03-21T13:04:58Z</time>
      </trkpt>
      <trkpt lat="43.92004" lon="1.87496">
        <ele>274.4</ele>
        <time>2021-03-21T13:04:59Z</time>
      </trkpt>
      <trkpt lat="43.92004" lon="1.87494">
        <ele>274.6</ele>
        <time>2021-03-21T13:05:00Z</time>
      </trkpt>
      <trkpt lat="43.92004" lon="1.87492">
        <ele>274.8</ele>
        <time>2021-03-21T13:05:01Z</time>
      </trkpt>
      <trkpt lat="43.92004" lon="1.87491">
        <ele>275</ele>
        <time>2021-03-21T13:05:02Z</time>
      </trkpt>
      <trkpt lat="43.92004" lon="1.87489">
        <ele>275.2</ele>
        <time>2021-03-21T13:05:03Z</time>
      </trkpt>
      <trkpt lat="43.92003" lon="1.87487">
        <ele>275.6</ele>
        <time>2021-03-21T13:05:04Z</time>
      </trkpt>
      <trkpt lat="43.92003" lon="1.87485">
        <ele>275.6</ele>
        <time>2021-03-21T13:05:05Z</time>
      </trkpt>
      <trkpt lat="43.92003" lon="1.87483">
        <ele>275.8</ele>
        <time>2021-03-21T13:05:06Z</time>
      </trkpt>
      <trkpt lat="43.92003" lon="1.87482">
        <ele>275.8</ele>
        <time>2021-03-21T13:05:07Z</time>
      </trkpt>
      <trkpt lat="43.92002" lon="1.8748">
        <ele>276</ele>
        <time>2021-03-21T13:05:08Z</time>
      </trkpt>
      <trkpt lat="43.92002" lon="1.87479">
        <ele>276</ele>
        <time>2021-03-21T13:05:09Z</time>
      </trkpt>
      <trkpt lat="43.92002" lon="1.87477">
        <ele>276</ele>
        <time>2021-03-21T13:05:10Z</time>
      </trkpt>
      <trkpt lat="43.92001" lon="1.87475">
        <ele>276</ele>
        <time>2021-03-21T13:05:11Z</time>
      </trkpt>
      <trkpt lat="43.92001" lon="1.87474">
        <ele>276</ele>
        <time>2021-03-21T13:05:12Z</time>
      </trkpt>
      <trkpt lat="43.92001" lon="1.87472">
        <ele>276.2</ele>
        <time>2021-03-21T13:05:13Z</time>
      </trkpt>
      <trkpt lat="43.92" lon="1.87471">
        <ele>276.2</ele>
        <time>2021-03-21T13:05:14Z</time>
      </trkpt>
      <trkpt lat="43.92" lon="1.87469">
        <ele>276.4</ele>
        <time>2021-03-21T13:05:15Z</time>
      </trkpt>
      <trkpt lat="43.92" lon="1.87467">
        <ele>276.6</ele>
        <time>2021-03-21T13:05:16Z</time>
      </trkpt>
      <trkpt lat="43.92" lon="1.87466">
        <ele>276.8</ele>
        <time>2021-03-21T13:05:17Z</time>
      </trkpt>
      <trkpt lat="43.91999" lon="1.87464">
        <ele>276.8</ele>
        <time>2021-03-21T13:05:18Z</time>
      </trkpt>
      <trkpt lat="43.91999" lon="1.87462">
        <ele>277</ele>
        <time>2021-03-21T13:05:19Z</time>
      </trkpt>
      <trkpt lat="43.91998" lon="1.87461">
        <ele>277.2</ele>
        <time>2021-03-21T13:05:20Z</time>
      </trkpt>
      <trkpt lat="43.91998" lon="1.87459">
        <ele>277.6</ele>
        <time>2021-03-21T13:05:21Z</time>
      </trkpt>
      <trkpt lat="43.91998" lon="1.87457">
        <ele>278</ele>
        <time>2021-03-21T13:05:22Z</time>
      </trkpt>
      <trkpt lat="43.91997" lon="1.87456">
        <ele>278</ele>
        <time>2021-03-21T13:05:23Z</time>
      </trkpt>
      <trkpt lat="43.91997" lon="1.87454">
        <ele>278.4</ele>
        <time>2021-03-21T13:05:24Z</time>
      </trkpt>
      <trkpt lat="43.91996" lon="1.87453">
        <ele>278.6</ele>
        <time>2021-03-21T13:05:25Z</time>
      </trkpt>
      <trkpt lat="43.91995" lon="1.87452">
        <ele>278.8</ele>
        <time>2021-03-21T13:05:26Z</time>
      </trkpt>
      <trkpt lat="43.91995" lon="1.8745">
        <ele>278.8</ele>
        <time>2021-03-21T13:05:27Z</time>
      </trkpt>
      <trkpt lat="43.91994" lon="1.87449">
        <ele>278.8</ele>
        <time>2021-03-21T13:05:28Z</time>
      </trkpt>
      <trkpt lat="43.91994" lon="1.87447">
        <ele>279</ele>
        <time>2021-03-21T13:05:29Z</time>
      </trkpt>
      <trkpt lat="43.91994" lon="1.87446">
        <ele>279.2</ele>
        <time>2021-03-21T13:05:30Z</time>
      </trkpt>
      <trkpt lat="43.91993" lon="1.87444">
        <ele>279.4</ele>
        <time>2021-03-21T13:05:31Z</time>
      </trkpt>
      <trkpt lat="43.91993" lon="1.87443">
        <ele>279.6</ele>
        <time>2021-03-21T13:05:32Z</time>
      </trkpt>
      <trkpt lat="43.91992" lon="1.87441">
        <ele>279.6</ele>
        <time>2021-03-21T13:05:33Z</time>
      </trkpt>
      <trkpt lat="43.91991" lon="1.8744">
        <ele>279.8</ele>
        <time>2021-03-21T13:05:34Z</time>
      </trkpt>
      <trkpt lat="43.91991" lon="1.87438">
        <ele>280</ele>
        <time>2021-03-21T13:05:35Z</time>
      </trkpt>
      <trkpt lat="43.9199" lon="1.87436">
        <ele>280.2</ele>
        <time>2021-03-21T13:05:36Z</time>
      </trkpt>
      <trkpt lat="43.9199" lon="1.87435">
        <ele>280.2</ele>
        <time>2021-03-21T13:05:37Z</time>
      </trkpt>
      <trkpt lat="43.9199" lon="1.87433">
        <ele>280.4</ele>
        <time>2021-03-21T13:05:38Z</time>
      </trkpt>
      <trkpt lat="43.91989" lon="1.87431">
        <ele>280.6</ele>
        <time>2021-03-21T13:05:39Z</time>
      </trkpt>
      <trkpt lat="43.91989" lon="1.8743">
        <ele>280.4</ele>
        <time>2021-03-21T13:05:40Z</time>
      </trkpt>
      <trkpt lat="43.91988" lon="1.87428">
        <ele>280.8</ele>
        <time>2021-03-21T13:05:41Z</time>
      </trkpt>
      <trkpt lat="43.91988" lon="1.87426">
        <ele>281</ele>
        <time>2021-03-21T13:05:42Z</time>
      </trkpt>
      <trkpt lat="43.91987" lon="1.87425">
        <ele>281</ele>
        <time>2021-03-21T13:05:43Z</time>
      </trkpt>
      <trkpt lat="43.91986" lon="1.87423">
        <ele>281.2</ele>
        <time>2021-03-21T13:05:44Z</time>
      </trkpt>
      <trkpt lat="43.91986" lon="1.87422">
        <ele>281.2</ele>
        <time>2021-03-21T13:05:45Z</time>
      </trkpt>
      <trkpt lat="43.91985" lon="1.8742">
        <ele>281.6</ele>
        <time>2021-03-21T13:05:46Z</time>
      </trkpt>
      <trkpt lat="43.91984" lon="1.87418">
        <ele>281.4</ele>
        <time>2021-03-21T13:05:47Z</time>
      </trkpt>
      <trkpt lat="43.91984" lon="1.87416">
        <ele>281.6</ele>
        <time>2021-03-21T13:05:48Z</time>
      </trkpt>
      <trkpt lat="43.91983" lon="1.87415">
        <ele>281.6</ele>
        <time>2021-03-21T13:05:49Z</time>
      </trkpt>
      <trkpt lat="43.91982" lon="1.87413">
        <ele>281.8</ele>
        <time>2021-03-21T13:05:50Z</time>
      </trkpt>
      <trkpt lat="43.91982" lon="1.87411">
        <ele>282</ele>
        <time>2021-03-21T13:05:51Z</time>
      </trkpt>
      <trkpt lat="43.91981" lon="1.8741">
        <ele>282</ele>
        <time>2021-03-21T13:05:52Z</time>
      </trkpt>
      <trkpt lat="43.9198" lon="1.87408">
        <ele>282</ele>
        <time>2021-03-21T13:05:53Z</time>
      </trkpt>
      <trkpt lat="43.91979" lon="1.87407">
        <ele>282</ele>
        <time>2021-03-21T13:05:54Z</time>
      </trkpt>
      <trkpt lat="43.91978" lon="1.87405">
        <ele>282</ele>
        <time>2021-03-21T13:05:55Z</time>
      </trkpt>
      <trkpt lat="43.91978" lon="1.87403">
        <ele>282</ele>
        <time>2021-03-21T13:05:56Z</time>
      </trkpt>
      <trkpt lat="43.91977" lon="1.87401">
        <ele>282</ele>
        <time>2021-03-21T13:05:57Z</time>
      </trkpt>
      <trkpt lat="43.91976" lon="1.87399">
        <ele>282.2</ele>
        <time>2021-03-21T13:05:58Z</time>
      </trkpt>
      <trkpt lat="43.91975" lon="1.87397">
        <ele>282.2</ele>
        <time>2021-03-21T13:05:59Z</time>
      </trkpt>
      <trkpt lat="43.91974" lon="1.87395">
        <ele>282.2</ele>
        <time>2021-03-21T13:06:00Z</time>
      </trkpt>
      <trkpt lat="43.91974" lon="1.87393">
        <ele>282.2</ele>
        <time>2021-03-21T13:06:01Z</time>
      </trkpt>
      <trkpt lat="43.91973" lon="1.87391">
        <ele>282.2</ele>
        <time>2021-03-21T13:06:02Z</time>
      </trkpt>
      <trkpt lat="43.91972" lon="1.87387">
        <ele>282.2</ele>
        <time>2021-03-21T13:06:04Z</time>
      </trkpt>
      <trkpt lat="43.91971" lon="1.87385">
        <ele>282</ele>
        <time>2021-03-21T13:06:05Z</time>
      </trkpt>
      <trkpt lat="43.9197" lon="1.87382">
        <ele>282</ele>
        <time>2021-03-21T13:06:06Z</time>
      </trkpt>
      <trkpt lat="43.91969" lon="1.8738">
        <ele>282.2</ele>
        <time>2021-03-21T13:06:07Z</time>
      </trkpt>
      <trkpt lat="43.91968" lon="1.87377">
        <ele>282.2</ele>
        <time>2021-03-21T13:06:08Z</time>
      </trkpt>
      <trkpt lat="43.91968" lon="1.87374">
        <ele>282</ele>
        <time>2021-03-21T13:06:09Z</time>
      </trkpt>
      <trkpt lat="43.91967" lon="1.87369">
        <ele>282</ele>
        <time>2021-03-21T13:06:11Z</time>
      </trkpt>
      <trkpt lat="43.91967" lon="1.87366">
        <ele>281.6</ele>
        <time>2021-03-21T13:06:12Z</time>
      </trkpt>
      <trkpt lat="43.91967" lon="1.87364">
        <ele>281.6</ele>
        <time>2021-03-21T13:06:13Z</time>
      </trkpt>
      <trkpt lat="43.91968" lon="1.87361">
        <ele>281.6</ele>
        <time>2021-03-21T13:06:14Z</time>
      </trkpt>
      <trkpt lat="43.91968" lon="1.87358">
        <ele>281.6</ele>
        <time>2021-03-21T13:06:15Z</time>
      </trkpt>
      <trkpt lat="43.91969" lon="1.87356">
        <ele>281.6</ele>
        <time>2021-03-21T13:06:16Z</time>
      </trkpt>
      <trkpt lat="43.91971" lon="1.87354">
        <ele>281.6</ele>
        <time>2021-03-21T13:06:17Z</time>
      </trkpt>
      <trkpt lat="43.91972" lon="1.87352">
        <ele>281.4</ele>
        <time>2021-03-21T13:06:18Z</time>
      </trkpt>
      <trkpt lat="43.91973" lon="1.87351">
        <ele>281.4</ele>
        <time>2021-03-21T13:06:19Z</time>
      </trkpt>
      <trkpt lat="43.91975" lon="1.87349">
        <ele>281.6</ele>
        <time>2021-03-21T13:06:20Z</time>
      </trkpt>
      <trkpt lat="43.91976" lon="1.87348">
        <ele>281.6</ele>
        <time>2021-03-21T13:06:21Z</time>
      </trkpt>
      <trkpt lat="43.91977" lon="1.87346">
        <ele>281.6</ele>
        <time>2021-03-21T13:06:22Z</time>
      </trkpt>
      <trkpt lat="43.91978" lon="1.87345">
        <ele>281.6</ele>
        <time>2021-03-21T13:06:23Z</time>
      </trkpt>
      <trkpt lat="43.91979" lon="1.87344">
        <ele>281.6</ele>
        <time>2021-03-21T13:06:24Z</time>
      </trkpt>
      <trkpt lat="43.91981" lon="1.87343">
        <ele>281.6</ele>
        <time>2021-03-21T13:06:25Z</time>
      </trkpt>
      <trkpt lat="43.91982" lon="1.87342">
        <ele>281.8</ele>
        <time>2021-03-21T13:06:26Z</time>
      </trkpt>
      <trkpt lat="43.91983" lon="1.87341">
        <ele>281.8</ele>
        <time>2021-03-21T13:06:27Z</time>
      </trkpt>
      <trkpt lat="43.91984" lon="1.87339">
        <ele>282</ele>
        <time>2021-03-21T13:06:28Z</time>
      </trkpt>
      <trkpt lat="43.91985" lon="1.87338">
        <ele>282.2</ele>
        <time>2021-03-21T13:06:29Z</time>
      </trkpt>
      <trkpt lat="43.91987" lon="1.87337">
        <ele>282.6</ele>
        <time>2021-03-21T13:06:30Z</time>
      </trkpt>
      <trkpt lat="43.91988" lon="1.87336">
        <ele>282.6</ele>
        <time>2021-03-21T13:06:31Z</time>
      </trkpt>
      <trkpt lat="43.91989" lon="1.87334">
        <ele>282.6</ele>
        <time>2021-03-21T13:06:32Z</time>
      </trkpt>
      <trkpt lat="43.9199" lon="1.87333">
        <ele>282.8</ele>
        <time>2021-03-21T13:06:33Z</time>
      </trkpt>
      <trkpt lat="43.91991" lon="1.87332">
        <ele>283</ele>
        <time>2021-03-21T13:06:34Z</time>
      </trkpt>
      <trkpt lat="43.91992" lon="1.87331">
        <ele>283.4</ele>
        <time>2021-03-21T13:06:35Z</time>
      </trkpt>
      <trkpt lat="43.91993" lon="1.8733">
        <ele>283.6</ele>
        <time>2021-03-21T13:06:36Z</time>
      </trkpt>
      <trkpt lat="43.91994" lon="1.87328">
        <ele>283.6</ele>
        <time>2021-03-21T13:06:37Z</time>
      </trkpt>
      <trkpt lat="43.91995" lon="1.87327">
        <ele>283.8</ele>
        <time>2021-03-21T13:06:38Z</time>
      </trkpt>
      <trkpt lat="43.91996" lon="1.87326">
        <ele>284</ele>
        <time>2021-03-21T13:06:39Z</time>
      </trkpt>
      <trkpt lat="43.91997" lon="1.87324">
        <ele>284.4</ele>
        <time>2021-03-21T13:06:40Z</time>
      </trkpt>
      <trkpt lat="43.91998" lon="1.87323">
        <ele>284.4</ele>
        <time>2021-03-21T13:06:41Z</time>
      </trkpt>
      <trkpt lat="43.91999" lon="1.87322">
        <ele>284.8</ele>
        <time>2021-03-21T13:06:42Z</time>
      </trkpt>
      <trkpt lat="43.92" lon="1.87321">
        <ele>285</ele>
        <time>2021-03-21T13:06:43Z</time>
      </trkpt>
      <trkpt lat="43.92001" lon="1.87319">
        <ele>285.4</ele>
        <time>2021-03-21T13:06:44Z</time>
      </trkpt>
      <trkpt lat="43.92002" lon="1.87318">
        <ele>285.4</ele>
        <time>2021-03-21T13:06:45Z</time>
      </trkpt>
      <trkpt lat="43.92003" lon="1.87317">
        <ele>285.8</ele>
        <time>2021-03-21T13:06:46Z</time>
      </trkpt>
      <trkpt lat="43.92004" lon="1.87316">
        <ele>286</ele>
        <time>2021-03-21T13:06:47Z</time>
      </trkpt>
      <trkpt lat="43.92005" lon="1.87315">
        <ele>286.2</ele>
        <time>2021-03-21T13:06:48Z</time>
      </trkpt>
      <trkpt lat="43.92006" lon="1.87314">
        <ele>286.4</ele>
        <time>2021-03-21T13:06:49Z</time>
      </trkpt>
      <trkpt lat="43.92007" lon="1.87313">
        <ele>286.8</ele>
        <time>2021-03-21T13:06:50Z</time>
      </trkpt>
      <trkpt lat="43.92008" lon="1.87312">
        <ele>287</ele>
        <time>2021-03-21T13:06:51Z</time>
      </trkpt>
      <trkpt lat="43.9201" lon="1.87311">
        <ele>287</ele>
        <time>2021-03-21T13:06:52Z</time>
      </trkpt>
      <trkpt lat="43.92011" lon="1.8731">
        <ele>287</ele>
        <time>2021-03-21T13:06:53Z</time>
      </trkpt>
      <trkpt lat="43.92011" lon="1.87309">
        <ele>287.2</ele>
        <time>2021-03-21T13:06:54Z</time>
      </trkpt>
      <trkpt lat="43.92012" lon="1.87308">
        <ele>287.4</ele>
        <time>2021-03-21T13:06:55Z</time>
      </trkpt>
      <trkpt lat="43.92014" lon="1.87306">
        <ele>287.4</ele>
        <time>2021-03-21T13:06:56Z</time>
      </trkpt>
      <trkpt lat="43.92015" lon="1.87305">
        <ele>287.6</ele>
        <time>2021-03-21T13:06:57Z</time>
      </trkpt>
      <trkpt lat="43.92015" lon="1.87304">
        <ele>288</ele>
        <time>2021-03-21T13:06:58Z</time>
      </trkpt>
      <trkpt lat="43.92016" lon="1.87303">
        <ele>288</ele>
        <time>2021-03-21T13:06:59Z</time>
      </trkpt>
      <trkpt lat="43.92017" lon="1.87302">
        <ele>288.2</ele>
        <time>2021-03-21T13:07:00Z</time>
      </trkpt>
      <trkpt lat="43.92018" lon="1.87301">
        <ele>288.2</ele>
        <time>2021-03-21T13:07:01Z</time>
      </trkpt>
      <trkpt lat="43.9202" lon="1.873">
        <ele>288.2</ele>
        <time>2021-03-21T13:07:02Z</time>
      </trkpt>
      <trkpt lat="43.92021" lon="1.87298">
        <ele>288.6</ele>
        <time>2021-03-21T13:07:03Z</time>
      </trkpt>
      <trkpt lat="43.92022" lon="1.87297">
        <ele>288.8</ele>
        <time>2021-03-21T13:07:04Z</time>
      </trkpt>
      <trkpt lat="43.92023" lon="1.87296">
        <ele>288.8</ele>
        <time>2021-03-21T13:07:05Z</time>
      </trkpt>
      <trkpt lat="43.92023" lon="1.87294">
        <ele>289</ele>
        <time>2021-03-21T13:07:06Z</time>
      </trkpt>
      <trkpt lat="43.92024" lon="1.87293">
        <ele>289.2</ele>
        <time>2021-03-21T13:07:07Z</time>
      </trkpt>
      <trkpt lat="43.92025" lon="1.87292">
        <ele>289.4</ele>
        <time>2021-03-21T13:07:08Z</time>
      </trkpt>
      <trkpt lat="43.92026" lon="1.8729">
        <ele>289.4</ele>
        <time>2021-03-21T13:07:09Z</time>
      </trkpt>
      <trkpt lat="43.92026" lon="1.87289">
        <ele>289.2</ele>
        <time>2021-03-21T13:07:10Z</time>
      </trkpt>
      <trkpt lat="43.92027" lon="1.87287">
        <ele>289.4</ele>
        <time>2021-03-21T13:07:11Z</time>
      </trkpt>
      <trkpt lat="43.92028" lon="1.87286">
        <ele>289.6</ele>
        <time>2021-03-21T13:07:12Z</time>
      </trkpt>
      <trkpt lat="43.92029" lon="1.87284">
        <ele>289.6</ele>
        <time>2021-03-21T13:07:13Z</time>
      </trkpt>
      <trkpt lat="43.92029" lon="1.87283">
        <ele>289.4</ele>
        <time>2021-03-21T13:07:14Z</time>
      </trkpt>
      <trkpt lat="43.92029" lon="1.87281">
        <ele>289.6</ele>
        <time>2021-03-21T13:07:15Z</time>
      </trkpt>
      <trkpt lat="43.92029" lon="1.87278">
        <ele>289.6</ele>
        <time>2021-03-21T13:07:16Z</time>
      </trkpt>
      <trkpt lat="43.92028" lon="1.87277">
        <ele>289.8</ele>
        <time>2021-03-21T13:07:17Z</time>
      </trkpt>
      <trkpt lat="43.92027" lon="1.87275">
        <ele>289.8</ele>
        <time>2021-03-21T13:07:18Z</time>
      </trkpt>
      <trkpt lat="43.92027" lon="1.87274">
        <ele>290</ele>
        <time>2021-03-21T13:07:19Z</time>
      </trkpt>
      <trkpt lat="43.92026" lon="1.87272">
        <ele>290</ele>
        <time>2021-03-21T13:07:20Z</time>
      </trkpt>
      <trkpt lat="43.92024" lon="1.87271">
        <ele>290</ele>
        <time>2021-03-21T13:07:21Z</time>
      </trkpt>
      <trkpt lat="43.92023" lon="1.8727">
        <ele>290</ele>
        <time>2021-03-21T13:07:22Z</time>
      </trkpt>
      <trkpt lat="43.92022" lon="1.87269">
        <ele>290.2</ele>
        <time>2021-03-21T13:07:23Z</time>
      </trkpt>
      <trkpt lat="43.92021" lon="1.87268">
        <ele>290.6</ele>
        <time>2021-03-21T13:07:24Z</time>
      </trkpt>
      <trkpt lat="43.9202" lon="1.87267">
        <ele>290.8</ele>
        <time>2021-03-21T13:07:25Z</time>
      </trkpt>
      <trkpt lat="43.92019" lon="1.87266">
        <ele>291.2</ele>
        <time>2021-03-21T13:07:26Z</time>
      </trkpt>
      <trkpt lat="43.92018" lon="1.87265">
        <ele>291.4</ele>
        <time>2021-03-21T13:07:27Z</time>
      </trkpt>
      <trkpt lat="43.92017" lon="1.87264">
        <ele>291.4</ele>
        <time>2021-03-21T13:07:28Z</time>
      </trkpt>
      <trkpt lat="43.92016" lon="1.87263">
        <ele>291.6</ele>
        <time>2021-03-21T13:07:29Z</time>
      </trkpt>
      <trkpt lat="43.92015" lon="1.87262">
        <ele>292</ele>
        <time>2021-03-21T13:07:30Z</time>
      </trkpt>
      <trkpt lat="43.92014" lon="1.87261">
        <ele>292</ele>
        <time>2021-03-21T13:07:31Z</time>
      </trkpt>
      <trkpt lat="43.92013" lon="1.87259">
        <ele>292</ele>
        <time>2021-03-21T13:07:32Z</time>
      </trkpt>
      <trkpt lat="43.92012" lon="1.87258">
        <ele>292.2</ele>
        <time>2021-03-21T13:07:33Z</time>
      </trkpt>
      <trkpt lat="43.92011" lon="1.87257">
        <ele>292.4</ele>
        <time>2021-03-21T13:07:34Z</time>
      </trkpt>
      <trkpt lat="43.92009" lon="1.87256">
        <ele>292.6</ele>
        <time>2021-03-21T13:07:35Z</time>
      </trkpt>
      <trkpt lat="43.92008" lon="1.87254">
        <ele>292.8</ele>
        <time>2021-03-21T13:07:36Z</time>
      </trkpt>
      <trkpt lat="43.92006" lon="1.87253">
        <ele>293</ele>
        <time>2021-03-21T13:07:37Z</time>
      </trkpt>
      <trkpt lat="43.92005" lon="1.87251">
        <ele>293.4</ele>
        <time>2021-03-21T13:07:38Z</time>
      </trkpt>
      <trkpt lat="43.92004" lon="1.8725">
        <ele>293.4</ele>
        <time>2021-03-21T13:07:39Z</time>
      </trkpt>
      <trkpt lat="43.92002" lon="1.87249">
        <ele>293.6</ele>
        <time>2021-03-21T13:07:40Z</time>
      </trkpt>
      <trkpt lat="43.92001" lon="1.87247">
        <ele>293.6</ele>
        <time>2021-03-21T13:07:41Z</time>
      </trkpt>
      <trkpt lat="43.92" lon="1.87246">
        <ele>293.8</ele>
        <time>2021-03-21T13:07:42Z</time>
      </trkpt>
      <trkpt lat="43.91999" lon="1.87245">
        <ele>294</ele>
        <time>2021-03-21T13:07:43Z</time>
      </trkpt>
      <trkpt lat="43.91998" lon="1.87244">
        <ele>294</ele>
        <time>2021-03-21T13:07:44Z</time>
      </trkpt>
      <trkpt lat="43.91997" lon="1.87243">
        <ele>294.2</ele>
        <time>2021-03-21T13:07:45Z</time>
      </trkpt>
      <trkpt lat="43.91995" lon="1.87242">
        <ele>294.4</ele>
        <time>2021-03-21T13:07:46Z</time>
      </trkpt>
      <trkpt lat="43.91994" lon="1.8724">
        <ele>294.4</ele>
        <time>2021-03-21T13:07:47Z</time>
      </trkpt>
      <trkpt lat="43.91993" lon="1.87239">
        <ele>294.6</ele>
        <time>2021-03-21T13:07:48Z</time>
      </trkpt>
      <trkpt lat="43.91992" lon="1.87237">
        <ele>294.8</ele>
        <time>2021-03-21T13:07:49Z</time>
      </trkpt>
      <trkpt lat="43.9199" lon="1.87236">
        <ele>295</ele>
        <time>2021-03-21T13:07:50Z</time>
      </trkpt>
      <trkpt lat="43.91989" lon="1.87235">
        <ele>294.8</ele>
        <time>2021-03-21T13:07:51Z</time>
      </trkpt>
      <trkpt lat="43.91987" lon="1.87234">
        <ele>294.8</ele>
        <time>2021-03-21T13:07:52Z</time>
      </trkpt>
      <trkpt lat="43.91986" lon="1.87232">
        <ele>295</ele>
        <time>2021-03-21T13:07:53Z</time>
      </trkpt>
      <trkpt lat="43.91985" lon="1.87231">
        <ele>295.2</ele>
        <time>2021-03-21T13:07:54Z</time>
      </trkpt>
      <trkpt lat="43.91984" lon="1.8723">
        <ele>295.4</ele>
        <time>2021-03-21T13:07:55Z</time>
      </trkpt>
      <trkpt lat="43.91983" lon="1.87229">
        <ele>295.6</ele>
        <time>2021-03-21T13:07:56Z</time>
      </trkpt>
      <trkpt lat="43.91982" lon="1.87228">
        <ele>296</ele>
        <time>2021-03-21T13:07:57Z</time>
      </trkpt>
      <trkpt lat="43.91981" lon="1.87227">
        <ele>296</ele>
        <time>2021-03-21T13:07:58Z</time>
      </trkpt>
      <trkpt lat="43.91979" lon="1.87226">
        <ele>296</ele>
        <time>2021-03-21T13:07:59Z</time>
      </trkpt>
      <trkpt lat="43.91978" lon="1.87225">
        <ele>296.2</ele>
        <time>2021-03-21T13:08:00Z</time>
      </trkpt>
      <trkpt lat="43.91977" lon="1.87224">
        <ele>296.4</ele>
        <time>2021-03-21T13:08:01Z</time>
      </trkpt>
      <trkpt lat="43.91976" lon="1.87223">
        <ele>296.4</ele>
        <time>2021-03-21T13:08:02Z</time>
      </trkpt>
      <trkpt lat="43.91974" lon="1.87222">
        <ele>296.6</ele>
        <time>2021-03-21T13:08:03Z</time>
      </trkpt>
      <trkpt lat="43.91973" lon="1.87221">
        <ele>296.8</ele>
        <time>2021-03-21T13:08:04Z</time>
      </trkpt>
      <trkpt lat="43.91972" lon="1.8722">
        <ele>297</ele>
        <time>2021-03-21T13:08:05Z</time>
      </trkpt>
      <trkpt lat="43.9197" lon="1.87219">
        <ele>297.2</ele>
        <time>2021-03-21T13:08:06Z</time>
      </trkpt>
      <trkpt lat="43.91969" lon="1.87217">
        <ele>297.2</ele>
        <time>2021-03-21T13:08:07Z</time>
      </trkpt>
      <trkpt lat="43.91968" lon="1.87216">
        <ele>297.6</ele>
        <time>2021-03-21T13:08:08Z</time>
      </trkpt>
      <trkpt lat="43.91968" lon="1.87214">
        <ele>297.8</ele>
        <time>2021-03-21T13:08:09Z</time>
      </trkpt>
      <trkpt lat="43.91968" lon="1.87212">
        <ele>297.8</ele>
        <time>2021-03-21T13:08:10Z</time>
      </trkpt>
      <trkpt lat="43.91969" lon="1.87211">
        <ele>298</ele>
        <time>2021-03-21T13:08:11Z</time>
      </trkpt>
      <trkpt lat="43.9197" lon="1.8721">
        <ele>298.2</ele>
        <time>2021-03-21T13:08:12Z</time>
      </trkpt>
      <trkpt lat="43.91971" lon="1.87209">
        <ele>298.2</ele>
        <time>2021-03-21T13:08:13Z</time>
      </trkpt>
      <trkpt lat="43.91973" lon="1.87209">
        <ele>298.2</ele>
        <time>2021-03-21T13:08:14Z</time>
      </trkpt>
      <trkpt lat="43.91974" lon="1.87209">
        <ele>298.2</ele>
        <time>2021-03-21T13:08:15Z</time>
      </trkpt>
      <trkpt lat="43.91975" lon="1.87208">
        <ele>298.4</ele>
        <time>2021-03-21T13:08:16Z</time>
      </trkpt>
      <trkpt lat="43.91976" lon="1.87207">
        <ele>298.4</ele>
        <time>2021-03-21T13:08:17Z</time>
      </trkpt>
      <trkpt lat="43.91977" lon="1.87207">
        <ele>298.6</ele>
        <time>2021-03-21T13:08:18Z</time>
      </trkpt>
      <trkpt lat="43.91979" lon="1.87206">
        <ele>298.8</ele>
        <time>2021-03-21T13:08:19Z</time>
      </trkpt>
      <trkpt lat="43.9198" lon="1.87206">
        <ele>299</ele>
        <time>2021-03-21T13:08:20Z</time>
      </trkpt>
      <trkpt lat="43.91981" lon="1.87205">
        <ele>299.2</ele>
        <time>2021-03-21T13:08:21Z</time>
      </trkpt>
      <trkpt lat="43.91982" lon="1.87205">
        <ele>299.8</ele>
        <time>2021-03-21T13:08:22Z</time>
      </trkpt>
      <trkpt lat="43.91983" lon="1.87205">
        <ele>300.2</ele>
        <time>2021-03-21T13:08:23Z</time>
      </trkpt>
      <trkpt lat="43.91984" lon="1.87204">
        <ele>300.6</ele>
        <time>2021-03-21T13:08:24Z</time>
      </trkpt>
      <trkpt lat="43.91986" lon="1.87204">
        <ele>300.8</ele>
        <time>2021-03-21T13:08:25Z</time>
      </trkpt>
      <trkpt lat="43.91987" lon="1.87203">
        <ele>301</ele>
        <time>2021-03-21T13:08:26Z</time>
      </trkpt>
      <trkpt lat="43.91988" lon="1.87202">
        <ele>301.2</ele>
        <time>2021-03-21T13:08:27Z</time>
      </trkpt>
      <trkpt lat="43.9199" lon="1.87201">
        <ele>301.6</ele>
        <time>2021-03-21T13:08:28Z</time>
      </trkpt>
      <trkpt lat="43.91991" lon="1.872">
        <ele>301.8</ele>
        <time>2021-03-21T13:08:29Z</time>
      </trkpt>
      <trkpt lat="43.91992" lon="1.87199">
        <ele>301.8</ele>
        <time>2021-03-21T13:08:30Z</time>
      </trkpt>
      <trkpt lat="43.91993" lon="1.87197">
        <ele>302</ele>
        <time>2021-03-21T13:08:31Z</time>
      </trkpt>
      <trkpt lat="43.91994" lon="1.87196">
        <ele>302.2</ele>
        <time>2021-03-21T13:08:32Z</time>
      </trkpt>
      <trkpt lat="43.91996" lon="1.87195">
        <ele>302.2</ele>
        <time>2021-03-21T13:08:33Z</time>
      </trkpt>
      <trkpt lat="43.91997" lon="1.87194">
        <ele>302.4</ele>
        <time>2021-03-21T13:08:34Z</time>
      </trkpt>
      <trkpt lat="43.91998" lon="1.87192">
        <ele>302.6</ele>
        <time>2021-03-21T13:08:35Z</time>
      </trkpt>
      <trkpt lat="43.92" lon="1.87191">
        <ele>302.4</ele>
        <time>2021-03-21T13:08:36Z</time>
      </trkpt>
      <trkpt lat="43.92001" lon="1.8719">
        <ele>302.6</ele>
        <time>2021-03-21T13:08:37Z</time>
      </trkpt>
      <trkpt lat="43.92003" lon="1.87189">
        <ele>302.6</ele>
        <time>2021-03-21T13:08:38Z</time>
      </trkpt>
      <trkpt lat="43.92004" lon="1.87188">
        <ele>302.8</ele>
        <time>2021-03-21T13:08:39Z</time>
      </trkpt>
      <trkpt lat="43.92005" lon="1.87186">
        <ele>303</ele>
        <time>2021-03-21T13:08:40Z</time>
      </trkpt>
      <trkpt lat="43.92006" lon="1.87185">
        <ele>303</ele>
        <time>2021-03-21T13:08:41Z</time>
      </trkpt>
      <trkpt lat="43.92007" lon="1.87183">
        <ele>303</ele>
        <time>2021-03-21T13:08:42Z</time>
      </trkpt>
      <trkpt lat="43.92009" lon="1.87182">
        <ele>303.2</ele>
        <time>2021-03-21T13:08:43Z</time>
      </trkpt>
      <trkpt lat="43.9201" lon="1.8718">
        <ele>303.2</ele>
        <time>2021-03-21T13:08:44Z</time>
      </trkpt>
      <trkpt lat="43.92012" lon="1.87178">
        <ele>303.2</ele>
        <time>2021-03-21T13:08:45Z</time>
      </trkpt>
      <trkpt lat="43.92013" lon="1.87176">
        <ele>303.2</ele>
        <time>2021-03-21T13:08:46Z</time>
      </trkpt>
      <trkpt lat="43.92015" lon="1.87175">
        <ele>303.2</ele>
        <time>2021-03-21T13:08:47Z</time>
      </trkpt>
      <trkpt lat="43.92017" lon="1.87173">
        <ele>303.2</ele>
        <time>2021-03-21T13:08:48Z</time>
      </trkpt>
      <trkpt lat="43.92019" lon="1.87172">
        <ele>303.2</ele>
        <time>2021-03-21T13:08:49Z</time>
      </trkpt>
      <trkpt lat="43.92021" lon="1.87171">
        <ele>303.4</ele>
        <time>2021-03-21T13:08:50Z</time>
      </trkpt>
      <trkpt lat="43.92023" lon="1.87169">
        <ele>303.4</ele>
        <time>2021-03-21T13:08:51Z</time>
      </trkpt>
      <trkpt lat="43.92025" lon="1.87167">
        <ele>303.2</ele>
        <time>2021-03-21T13:08:52Z</time>
      </trkpt>
      <trkpt lat="43.92027" lon="1.87164">
        <ele>303.2</ele>
        <time>2021-03-21T13:08:53Z</time>
      </trkpt>
      <trkpt lat="43.92029" lon="1.87162">
        <ele>303.2</ele>
        <time>2021-03-21T13:08:54Z</time>
      </trkpt>
      <trkpt lat="43.92031" lon="1.87158">
        <ele>303.4</ele>
        <time>2021-03-21T13:08:55Z</time>
      </trkpt>
      <trkpt lat="43.92033" lon="1.87154">
        <ele>303.2</ele>
        <time>2021-03-21T13:08:56Z</time>
      </trkpt>
      <trkpt lat="43.92035" lon="1.8715">
        <ele>303.2</ele>
        <time>2021-03-21T13:08:57Z</time>
      </trkpt>
      <trkpt lat="43.92038" lon="1.87146">
        <ele>303.2</ele>
        <time>2021-03-21T13:08:58Z</time>
      </trkpt>
      <trkpt lat="43.92039" lon="1.87142">
        <ele>303.2</ele>
        <time>2021-03-21T13:08:59Z</time>
      </trkpt>
      <trkpt lat="43.92041" lon="1.87138">
        <ele>303</ele>
        <time>2021-03-21T13:09:00Z</time>
      </trkpt>
      <trkpt lat="43.92043" lon="1.87131">
        <ele>303.2</ele>
        <time>2021-03-21T13:09:02Z</time>
      </trkpt>
      <trkpt lat="43.92045" lon="1.87127">
        <ele>303</ele>
        <time>2021-03-21T13:09:03Z</time>
      </trkpt>
      <trkpt lat="43.92047" lon="1.87123">
        <ele>303.2</ele>
        <time>2021-03-21T13:09:04Z</time>
      </trkpt>
      <trkpt lat="43.92048" lon="1.87119">
        <ele>303.2</ele>
        <time>2021-03-21T13:09:05Z</time>
      </trkpt>
      <trkpt lat="43.9205" lon="1.87115">
        <ele>303.2</ele>
        <time>2021-03-21T13:09:06Z</time>
      </trkpt>
      <trkpt lat="43.92052" lon="1.87111">
        <ele>303.2</ele>
        <time>2021-03-21T13:09:07Z</time>
      </trkpt>
      <trkpt lat="43.92054" lon="1.87107">
        <ele>303.4</ele>
        <time>2021-03-21T13:09:08Z</time>
      </trkpt>
      <trkpt lat="43.92056" lon="1.87103">
        <ele>303.2</ele>
        <time>2021-03-21T13:09:09Z</time>
      </trkpt>
      <trkpt lat="43.92057" lon="1.871">
        <ele>303.2</ele>
        <time>2021-03-21T13:09:10Z</time>
      </trkpt>
      <trkpt lat="43.92059" lon="1.87098">
        <ele>303.2</ele>
        <time>2021-03-21T13:09:11Z</time>
      </trkpt>
      <trkpt lat="43.92061" lon="1.87096">
        <ele>303.4</ele>
        <time>2021-03-21T13:09:12Z</time>
      </trkpt>
      <trkpt lat="43.92062" lon="1.87094">
        <ele>303.4</ele>
        <time>2021-03-21T13:09:13Z</time>
      </trkpt>
      <trkpt lat="43.92063" lon="1.87091">
        <ele>303.6</ele>
        <time>2021-03-21T13:09:14Z</time>
      </trkpt>
      <trkpt lat="43.92064" lon="1.87088">
        <ele>303.8</ele>
        <time>2021-03-21T13:09:15Z</time>
      </trkpt>
      <trkpt lat="43.92065" lon="1.87085">
        <ele>303.8</ele>
        <time>2021-03-21T13:09:16Z</time>
      </trkpt>
      <trkpt lat="43.92066" lon="1.87083">
        <ele>304</ele>
        <time>2021-03-21T13:09:17Z</time>
      </trkpt>
      <trkpt lat="43.92068" lon="1.8708">
        <ele>304.4</ele>
        <time>2021-03-21T13:09:18Z</time>
      </trkpt>
      <trkpt lat="43.92069" lon="1.87077">
        <ele>304.6</ele>
        <time>2021-03-21T13:09:19Z</time>
      </trkpt>
      <trkpt lat="43.9207" lon="1.87075">
        <ele>305</ele>
        <time>2021-03-21T13:09:20Z</time>
      </trkpt>
      <trkpt lat="43.92072" lon="1.87071">
        <ele>305.2</ele>
        <time>2021-03-21T13:09:21Z</time>
      </trkpt>
      <trkpt lat="43.92073" lon="1.87068">
        <ele>305.4</ele>
        <time>2021-03-21T13:09:22Z</time>
      </trkpt>
      <trkpt lat="43.92075" lon="1.87066">
        <ele>305.6</ele>
        <time>2021-03-21T13:09:23Z</time>
      </trkpt>
      <trkpt lat="43.92076" lon="1.87063">
        <ele>305.6</ele>
        <time>2021-03-21T13:09:24Z</time>
      </trkpt>
      <trkpt lat="43.92077" lon="1.8706">
        <ele>305.8</ele>
        <time>2021-03-21T13:09:25Z</time>
      </trkpt>
      <trkpt lat="43.92078" lon="1.87057">
        <ele>305.8</ele>
        <time>2021-03-21T13:09:26Z</time>
      </trkpt>
      <trkpt lat="43.92079" lon="1.87053">
        <ele>305.8</ele>
        <time>2021-03-21T13:09:27Z</time>
      </trkpt>
      <trkpt lat="43.9208" lon="1.8705">
        <ele>306</ele>
        <time>2021-03-21T13:09:28Z</time>
      </trkpt>
      <trkpt lat="43.92081" lon="1.87048">
        <ele>306.4</ele>
        <time>2021-03-21T13:09:29Z</time>
      </trkpt>
      <trkpt lat="43.92082" lon="1.87045">
        <ele>306.6</ele>
        <time>2021-03-21T13:09:30Z</time>
      </trkpt>
      <trkpt lat="43.92083" lon="1.87042">
        <ele>306.6</ele>
        <time>2021-03-21T13:09:31Z</time>
      </trkpt>
      <trkpt lat="43.92083" lon="1.87039">
        <ele>306.6</ele>
        <time>2021-03-21T13:09:32Z</time>
      </trkpt>
      <trkpt lat="43.92084" lon="1.87037">
        <ele>307</ele>
        <time>2021-03-21T13:09:33Z</time>
      </trkpt>
      <trkpt lat="43.92085" lon="1.87034">
        <ele>307.4</ele>
        <time>2021-03-21T13:09:34Z</time>
      </trkpt>
      <trkpt lat="43.92086" lon="1.87031">
        <ele>307.6</ele>
        <time>2021-03-21T13:09:35Z</time>
      </trkpt>
      <trkpt lat="43.92086" lon="1.87028">
        <ele>308.2</ele>
        <time>2021-03-21T13:09:36Z</time>
      </trkpt>
      <trkpt lat="43.92087" lon="1.87025">
        <ele>308.2</ele>
        <time>2021-03-21T13:09:37Z</time>
      </trkpt>
      <trkpt lat="43.92089" lon="1.87022">
        <ele>308.2</ele>
        <time>2021-03-21T13:09:38Z</time>
      </trkpt>
      <trkpt lat="43.9209" lon="1.87019">
        <ele>308.4</ele>
        <time>2021-03-21T13:09:39Z</time>
      </trkpt>
      <trkpt lat="43.9209" lon="1.87016">
        <ele>308.4</ele>
        <time>2021-03-21T13:09:40Z</time>
      </trkpt>
      <trkpt lat="43.92091" lon="1.87013">
        <ele>308.8</ele>
        <time>2021-03-21T13:09:41Z</time>
      </trkpt>
      <trkpt lat="43.92092" lon="1.87009">
        <ele>309</ele>
        <time>2021-03-21T13:09:42Z</time>
      </trkpt>
      <trkpt lat="43.92093" lon="1.87006">
        <ele>309</ele>
        <time>2021-03-21T13:09:43Z</time>
      </trkpt>
      <trkpt lat="43.92094" lon="1.87003">
        <ele>309.2</ele>
        <time>2021-03-21T13:09:44Z</time>
      </trkpt>
      <trkpt lat="43.92094" lon="1.87">
        <ele>309.4</ele>
        <time>2021-03-21T13:09:45Z</time>
      </trkpt>
      <trkpt lat="43.92095" lon="1.86997">
        <ele>309.6</ele>
        <time>2021-03-21T13:09:46Z</time>
      </trkpt>
      <trkpt lat="43.92096" lon="1.86994">
        <ele>309.6</ele>
        <time>2021-03-21T13:09:47Z</time>
      </trkpt>
      <trkpt lat="43.92097" lon="1.86991">
        <ele>310</ele>
        <time>2021-03-21T13:09:48Z</time>
      </trkpt>
      <trkpt lat="43.92098" lon="1.86988">
        <ele>310</ele>
        <time>2021-03-21T13:09:49Z</time>
      </trkpt>
      <trkpt lat="43.92099" lon="1.86986">
        <ele>310</ele>
        <time>2021-03-21T13:09:50Z</time>
      </trkpt>
      <trkpt lat="43.92099" lon="1.86984">
        <ele>310.2</ele>
        <time>2021-03-21T13:09:51Z</time>
      </trkpt>
      <trkpt lat="43.92099" lon="1.86982">
        <ele>310.2</ele>
        <time>2021-03-21T13:09:52Z</time>
      </trkpt>
      <trkpt lat="43.921" lon="1.8698">
        <ele>310.2</ele>
        <time>2021-03-21T13:09:53Z</time>
      </trkpt>
      <trkpt lat="43.92101" lon="1.86978">
        <ele>310.6</ele>
        <time>2021-03-21T13:09:54Z</time>
      </trkpt>
      <trkpt lat="43.92101" lon="1.86976">
        <ele>311</ele>
        <time>2021-03-21T13:09:55Z</time>
      </trkpt>
      <trkpt lat="43.921" lon="1.86973">
        <ele>311.4</ele>
        <time>2021-03-21T13:09:56Z</time>
      </trkpt>
      <trkpt lat="43.921" lon="1.86971">
        <ele>311.4</ele>
        <time>2021-03-21T13:09:57Z</time>
      </trkpt>
      <trkpt lat="43.921" lon="1.86968">
        <ele>311.6</ele>
        <time>2021-03-21T13:09:58Z</time>
      </trkpt>
      <trkpt lat="43.92101" lon="1.86966">
        <ele>311.6</ele>
        <time>2021-03-21T13:09:59Z</time>
      </trkpt>
      <trkpt lat="43.92102" lon="1.86964">
        <ele>311.8</ele>
        <time>2021-03-21T13:10:00Z</time>
      </trkpt>
      <trkpt lat="43.92103" lon="1.86961">
        <ele>311.8</ele>
        <time>2021-03-21T13:10:01Z</time>
      </trkpt>
      <trkpt lat="43.92104" lon="1.86958">
        <ele>311.8</ele>
        <time>2021-03-21T13:10:02Z</time>
      </trkpt>
      <trkpt lat="43.92105" lon="1.86955">
        <ele>311.6</ele>
        <time>2021-03-21T13:10:03Z</time>
      </trkpt>
      <trkpt lat="43.92106" lon="1.86952">
        <ele>311.8</ele>
        <time>2021-03-21T13:10:04Z</time>
      </trkpt>
      <trkpt lat="43.92107" lon="1.86949">
        <ele>312</ele>
        <time>2021-03-21T13:10:05Z</time>
      </trkpt>
      <trkpt lat="43.92108" lon="1.86947">
        <ele>312</ele>
        <time>2021-03-21T13:10:06Z</time>
      </trkpt>
      <trkpt lat="43.92109" lon="1.86944">
        <ele>311.8</ele>
        <time>2021-03-21T13:10:07Z</time>
      </trkpt>
      <trkpt lat="43.9211" lon="1.86941">
        <ele>312</ele>
        <time>2021-03-21T13:10:08Z</time>
      </trkpt>
      <trkpt lat="43.92111" lon="1.86938">
        <ele>312.2</ele>
        <time>2021-03-21T13:10:09Z</time>
      </trkpt>
      <trkpt lat="43.92112" lon="1.86935">
        <ele>312.6</ele>
        <time>2021-03-21T13:10:10Z</time>
      </trkpt>
      <trkpt lat="43.92113" lon="1.86932">
        <ele>312.6</ele>
        <time>2021-03-21T13:10:11Z</time>
      </trkpt>
      <trkpt lat="43.92114" lon="1.8693">
        <ele>313</ele>
        <time>2021-03-21T13:10:12Z</time>
      </trkpt>
      <trkpt lat="43.92115" lon="1.86927">
        <ele>313</ele>
        <time>2021-03-21T13:10:13Z</time>
      </trkpt>
      <trkpt lat="43.92115" lon="1.86924">
        <ele>313</ele>
        <time>2021-03-21T13:10:14Z</time>
      </trkpt>
      <trkpt lat="43.92116" lon="1.86921">
        <ele>313.2</ele>
        <time>2021-03-21T13:10:15Z</time>
      </trkpt>
      <trkpt lat="43.92116" lon="1.86918">
        <ele>313.4</ele>
        <time>2021-03-21T13:10:16Z</time>
      </trkpt>
      <trkpt lat="43.92116" lon="1.86915">
        <ele>313.6</ele>
        <time>2021-03-21T13:10:17Z</time>
      </trkpt>
      <trkpt lat="43.92116" lon="1.86912">
        <ele>313.6</ele>
        <time>2021-03-21T13:10:18Z</time>
      </trkpt>
      <trkpt lat="43.92116" lon="1.86908">
        <ele>313.8</ele>
        <time>2021-03-21T13:10:19Z</time>
      </trkpt>
      <trkpt lat="43.92117" lon="1.86905">
        <ele>313.8</ele>
        <time>2021-03-21T13:10:20Z</time>
      </trkpt>
      <trkpt lat="43.92117" lon="1.86901">
        <ele>314</ele>
        <time>2021-03-21T13:10:21Z</time>
      </trkpt>
      <trkpt lat="43.92117" lon="1.86898">
        <ele>314</ele>
        <time>2021-03-21T13:10:22Z</time>
      </trkpt>
      <trkpt lat="43.92117" lon="1.86894">
        <ele>314</ele>
        <time>2021-03-21T13:10:23Z</time>
      </trkpt>
      <trkpt lat="43.92117" lon="1.8689">
        <ele>314.2</ele>
        <time>2021-03-21T13:10:24Z</time>
      </trkpt>
      <trkpt lat="43.92117" lon="1.86887">
        <ele>314</ele>
        <time>2021-03-21T13:10:25Z</time>
      </trkpt>
      <trkpt lat="43.92117" lon="1.86883">
        <ele>314.6</ele>
        <time>2021-03-21T13:10:26Z</time>
      </trkpt>
      <trkpt lat="43.92117" lon="1.8688">
        <ele>314.6</ele>
        <time>2021-03-21T13:10:27Z</time>
      </trkpt>
      <trkpt lat="43.92118" lon="1.86876">
        <ele>314.6</ele>
        <time>2021-03-21T13:10:28Z</time>
      </trkpt>
      <trkpt lat="43.92118" lon="1.86873">
        <ele>314.8</ele>
        <time>2021-03-21T13:10:29Z</time>
      </trkpt>
      <trkpt lat="43.92118" lon="1.86869">
        <ele>314.8</ele>
        <time>2021-03-21T13:10:30Z</time>
      </trkpt>
      <trkpt lat="43.92118" lon="1.86866">
        <ele>315</ele>
        <time>2021-03-21T13:10:31Z</time>
      </trkpt>
      <trkpt lat="43.92119" lon="1.86863">
        <ele>315</ele>
        <time>2021-03-21T13:10:32Z</time>
      </trkpt>
      <trkpt lat="43.92119" lon="1.8686">
        <ele>315</ele>
        <time>2021-03-21T13:10:33Z</time>
      </trkpt>
      <trkpt lat="43.92118" lon="1.86856">
        <ele>315.2</ele>
        <time>2021-03-21T13:10:34Z</time>
      </trkpt>
      <trkpt lat="43.92118" lon="1.86853">
        <ele>315.2</ele>
        <time>2021-03-21T13:10:35Z</time>
      </trkpt>
      <trkpt lat="43.92118" lon="1.8685">
        <ele>315.2</ele>
        <time>2021-03-21T13:10:36Z</time>
      </trkpt>
      <trkpt lat="43.92118" lon="1.86845">
        <ele>315.2</ele>
        <time>2021-03-21T13:10:37Z</time>
      </trkpt>
      <trkpt lat="43.92119" lon="1.86842">
        <ele>315.4</ele>
        <time>2021-03-21T13:10:38Z</time>
      </trkpt>
      <trkpt lat="43.9212" lon="1.86838">
        <ele>315.4</ele>
        <time>2021-03-21T13:10:39Z</time>
      </trkpt>
      <trkpt lat="43.92121" lon="1.86834">
        <ele>315.4</ele>
        <time>2021-03-21T13:10:40Z</time>
      </trkpt>
      <trkpt lat="43.92122" lon="1.8683">
        <ele>315.4</ele>
        <time>2021-03-21T13:10:41Z</time>
      </trkpt>
      <trkpt lat="43.92122" lon="1.86826">
        <ele>315.4</ele>
        <time>2021-03-21T13:10:42Z</time>
      </trkpt>
      <trkpt lat="43.92122" lon="1.86823">
        <ele>315.6</ele>
        <time>2021-03-21T13:10:43Z</time>
      </trkpt>
      <trkpt lat="43.92122" lon="1.8682">
        <ele>315.8</ele>
        <time>2021-03-21T13:10:44Z</time>
      </trkpt>
      <trkpt lat="43.92122" lon="1.86817">
        <ele>315.8</ele>
        <time>2021-03-21T13:10:45Z</time>
      </trkpt>
      <trkpt lat="43.92123" lon="1.86815">
        <ele>315.8</ele>
        <time>2021-03-21T13:10:46Z</time>
      </trkpt>
      <trkpt lat="43.92123" lon="1.86813">
        <ele>316</ele>
        <time>2021-03-21T13:10:47Z</time>
      </trkpt>
      <trkpt lat="43.92124" lon="1.86811">
        <ele>316</ele>
        <time>2021-03-21T13:10:48Z</time>
      </trkpt>
      <trkpt lat="43.92124" lon="1.86809">
        <ele>316</ele>
        <time>2021-03-21T13:10:49Z</time>
      </trkpt>
      <trkpt lat="43.92124" lon="1.86806">
        <ele>316</ele>
        <time>2021-03-21T13:10:50Z</time>
      </trkpt>
      <trkpt lat="43.92124" lon="1.86803">
        <ele>316</ele>
        <time>2021-03-21T13:10:51Z</time>
      </trkpt>
      <trkpt lat="43.92125" lon="1.86797">
        <ele>316</ele>
        <time>2021-03-21T13:10:53Z</time>
      </trkpt>
      <trkpt lat="43.92126" lon="1.86793">
        <ele>316</ele>
        <time>2021-03-21T13:10:54Z</time>
      </trkpt>
      <trkpt lat="43.92127" lon="1.8679">
        <ele>316.2</ele>
        <time>2021-03-21T13:10:55Z</time>
      </trkpt>
      <trkpt lat="43.92128" lon="1.86787">
        <ele>316</ele>
        <time>2021-03-21T13:10:56Z</time>
      </trkpt>
      <trkpt lat="43.92129" lon="1.86779">
        <ele>316</ele>
        <time>2021-03-21T13:10:58Z</time>
      </trkpt>
      <trkpt lat="43.9213" lon="1.86776">
        <ele>316</ele>
        <time>2021-03-21T13:10:59Z</time>
      </trkpt>
      <trkpt lat="43.92131" lon="1.86772">
        <ele>316</ele>
        <time>2021-03-21T13:11:00Z</time>
      </trkpt>
      <trkpt lat="43.92132" lon="1.86768">
        <ele>316</ele>
        <time>2021-03-21T13:11:01Z</time>
      </trkpt>
      <trkpt lat="43.92133" lon="1.86764">
        <ele>315.8</ele>
        <time>2021-03-21T13:11:02Z</time>
      </trkpt>
      <trkpt lat="43.92134" lon="1.86759">
        <ele>316</ele>
        <time>2021-03-21T13:11:03Z</time>
      </trkpt>
      <trkpt lat="43.92135" lon="1.86756">
        <ele>316</ele>
        <time>2021-03-21T13:11:04Z</time>
      </trkpt>
      <trkpt lat="43.92136" lon="1.86753">
        <ele>316</ele>
        <time>2021-03-21T13:11:05Z</time>
      </trkpt>
      <trkpt lat="43.92137" lon="1.8675">
        <ele>316</ele>
        <time>2021-03-21T13:11:06Z</time>
      </trkpt>
      <trkpt lat="43.92138" lon="1.86747">
        <ele>315.8</ele>
        <time>2021-03-21T13:11:07Z</time>
      </trkpt>
      <trkpt lat="43.92139" lon="1.86744">
        <ele>315.8</ele>
        <time>2021-03-21T13:11:08Z</time>
      </trkpt>
      <trkpt lat="43.92142" lon="1.86736">
        <ele>315.8</ele>
        <time>2021-03-21T13:11:10Z</time>
      </trkpt>
      <trkpt lat="43.92142" lon="1.86732">
        <ele>315.8</ele>
        <time>2021-03-21T13:11:11Z</time>
      </trkpt>
      <trkpt lat="43.92144" lon="1.86729">
        <ele>315.6</ele>
        <time>2021-03-21T13:11:12Z</time>
      </trkpt>
      <trkpt lat="43.92145" lon="1.86726">
        <ele>315.8</ele>
        <time>2021-03-21T13:11:13Z</time>
      </trkpt>
      <trkpt lat="43.92146" lon="1.86722">
        <ele>315.6</ele>
        <time>2021-03-21T13:11:14Z</time>
      </trkpt>
      <trkpt lat="43.92146" lon="1.86718">
        <ele>315.8</ele>
        <time>2021-03-21T13:11:15Z</time>
      </trkpt>
      <trkpt lat="43.92147" lon="1.86715">
        <ele>315.8</ele>
        <time>2021-03-21T13:11:16Z</time>
      </trkpt>
      <trkpt lat="43.92149" lon="1.86712">
        <ele>315.8</ele>
        <time>2021-03-21T13:11:17Z</time>
      </trkpt>
      <trkpt lat="43.92149" lon="1.86709">
        <ele>315.8</ele>
        <time>2021-03-21T13:11:18Z</time>
      </trkpt>
      <trkpt lat="43.92151" lon="1.86705">
        <ele>315.8</ele>
        <time>2021-03-21T13:11:19Z</time>
      </trkpt>
      <trkpt lat="43.92153" lon="1.867">
        <ele>316</ele>
        <time>2021-03-21T13:11:20Z</time>
      </trkpt>
      <trkpt lat="43.92154" lon="1.86697">
        <ele>316</ele>
        <time>2021-03-21T13:11:21Z</time>
      </trkpt>
      <trkpt lat="43.92155" lon="1.86693">
        <ele>316</ele>
        <time>2021-03-21T13:11:22Z</time>
      </trkpt>
      <trkpt lat="43.92156" lon="1.86688">
        <ele>316</ele>
        <time>2021-03-21T13:11:23Z</time>
      </trkpt>
      <trkpt lat="43.92157" lon="1.86684">
        <ele>316</ele>
        <time>2021-03-21T13:11:24Z</time>
      </trkpt>
      <trkpt lat="43.92158" lon="1.86681">
        <ele>316.2</ele>
        <time>2021-03-21T13:11:25Z</time>
      </trkpt>
      <trkpt lat="43.92159" lon="1.86677">
        <ele>316</ele>
        <time>2021-03-21T13:11:26Z</time>
      </trkpt>
      <trkpt lat="43.9216" lon="1.86674">
        <ele>316.2</ele>
        <time>2021-03-21T13:11:27Z</time>
      </trkpt>
      <trkpt lat="43.92161" lon="1.86669">
        <ele>316.2</ele>
        <time>2021-03-21T13:11:28Z</time>
      </trkpt>
      <trkpt lat="43.92163" lon="1.86666">
        <ele>316</ele>
        <time>2021-03-21T13:11:29Z</time>
      </trkpt>
      <trkpt lat="43.92165" lon="1.86662">
        <ele>316.2</ele>
        <time>2021-03-21T13:11:30Z</time>
      </trkpt>
      <trkpt lat="43.92167" lon="1.86658">
        <ele>316.2</ele>
        <time>2021-03-21T13:11:31Z</time>
      </trkpt>
      <trkpt lat="43.92169" lon="1.86654">
        <ele>316</ele>
        <time>2021-03-21T13:11:32Z</time>
      </trkpt>
      <trkpt lat="43.92171" lon="1.86649">
        <ele>316</ele>
        <time>2021-03-21T13:11:33Z</time>
      </trkpt>
      <trkpt lat="43.92173" lon="1.86644">
        <ele>316</ele>
        <time>2021-03-21T13:11:34Z</time>
      </trkpt>
      <trkpt lat="43.92176" lon="1.8664">
        <ele>316</ele>
        <time>2021-03-21T13:11:35Z</time>
      </trkpt>
      <trkpt lat="43.92178" lon="1.86635">
        <ele>315.8</ele>
        <time>2021-03-21T13:11:36Z</time>
      </trkpt>
      <trkpt lat="43.92179" lon="1.86632">
        <ele>315.8</ele>
        <time>2021-03-21T13:11:37Z</time>
      </trkpt>
      <trkpt lat="43.92181" lon="1.86628">
        <ele>315.8</ele>
        <time>2021-03-21T13:11:38Z</time>
      </trkpt>
      <trkpt lat="43.92183" lon="1.86625">
        <ele>315.8</ele>
        <time>2021-03-21T13:11:39Z</time>
      </trkpt>
      <trkpt lat="43.92184" lon="1.86621">
        <ele>315.6</ele>
        <time>2021-03-21T13:11:40Z</time>
      </trkpt>
      <trkpt lat="43.92186" lon="1.86618">
        <ele>315.8</ele>
        <time>2021-03-21T13:11:41Z</time>
      </trkpt>
      <trkpt lat="43.92188" lon="1.86614">
        <ele>315.6</ele>
        <time>2021-03-21T13:11:42Z</time>
      </trkpt>
      <trkpt lat="43.9219" lon="1.86606">
        <ele>315.6</ele>
        <time>2021-03-21T13:11:44Z</time>
      </trkpt>
      <trkpt lat="43.92191" lon="1.86602">
        <ele>315.6</ele>
        <time>2021-03-21T13:11:45Z</time>
      </trkpt>
      <trkpt lat="43.92193" lon="1.86599">
        <ele>315.6</ele>
        <time>2021-03-21T13:11:46Z</time>
      </trkpt>
      <trkpt lat="43.92194" lon="1.86594">
        <ele>315.4</ele>
        <time>2021-03-21T13:11:47Z</time>
      </trkpt>
      <trkpt lat="43.92196" lon="1.86591">
        <ele>315.4</ele>
        <time>2021-03-21T13:11:48Z</time>
      </trkpt>
      <trkpt lat="43.92198" lon="1.86586">
        <ele>315.4</ele>
        <time>2021-03-21T13:11:49Z</time>
      </trkpt>
      <trkpt lat="43.922" lon="1.86581">
        <ele>315.4</ele>
        <time>2021-03-21T13:11:50Z</time>
      </trkpt>
      <trkpt lat="43.92202" lon="1.86577">
        <ele>315.2</ele>
        <time>2021-03-21T13:11:51Z</time>
      </trkpt>
      <trkpt lat="43.92203" lon="1.86573">
        <ele>315.4</ele>
        <time>2021-03-21T13:11:52Z</time>
      </trkpt>
      <trkpt lat="43.92205" lon="1.8657">
        <ele>315.4</ele>
        <time>2021-03-21T13:11:53Z</time>
      </trkpt>
      <trkpt lat="43.92206" lon="1.86566">
        <ele>315.4</ele>
        <time>2021-03-21T13:11:54Z</time>
      </trkpt>
      <trkpt lat="43.92208" lon="1.86562">
        <ele>315.2</ele>
        <time>2021-03-21T13:11:55Z</time>
      </trkpt>
      <trkpt lat="43.9221" lon="1.86557">
        <ele>315.2</ele>
        <time>2021-03-21T13:11:56Z</time>
      </trkpt>
      <trkpt lat="43.92213" lon="1.86552">
        <ele>315</ele>
        <time>2021-03-21T13:11:57Z</time>
      </trkpt>
      <trkpt lat="43.92218" lon="1.8654">
        <ele>314.6</ele>
        <time>2021-03-21T13:11:59Z</time>
      </trkpt>
      <trkpt lat="43.92219" lon="1.86534">
        <ele>314.4</ele>
        <time>2021-03-21T13:12:00Z</time>
      </trkpt>
      <trkpt lat="43.92221" lon="1.8653">
        <ele>314.2</ele>
        <time>2021-03-21T13:12:01Z</time>
      </trkpt>
      <trkpt lat="43.92222" lon="1.86525">
        <ele>314</ele>
        <time>2021-03-21T13:12:02Z</time>
      </trkpt>
      <trkpt lat="43.92224" lon="1.8652">
        <ele>314</ele>
        <time>2021-03-21T13:12:03Z</time>
      </trkpt>
      <trkpt lat="43.92226" lon="1.86515">
        <ele>313.8</ele>
        <time>2021-03-21T13:12:04Z</time>
      </trkpt>
      <trkpt lat="43.92227" lon="1.86511">
        <ele>313.8</ele>
        <time>2021-03-21T13:12:05Z</time>
      </trkpt>
      <trkpt lat="43.92229" lon="1.86507">
        <ele>313.8</ele>
        <time>2021-03-21T13:12:06Z</time>
      </trkpt>
      <trkpt lat="43.92231" lon="1.86503">
        <ele>313.8</ele>
        <time>2021-03-21T13:12:07Z</time>
      </trkpt>
      <trkpt lat="43.92233" lon="1.865">
        <ele>313.6</ele>
        <time>2021-03-21T13:12:08Z</time>
      </trkpt>
      <trkpt lat="43.92236" lon="1.86496">
        <ele>313.6</ele>
        <time>2021-03-21T13:12:09Z</time>
      </trkpt>
      <trkpt lat="43.92239" lon="1.86493">
        <ele>313.6</ele>
        <time>2021-03-21T13:12:10Z</time>
      </trkpt>
      <trkpt lat="43.92243" lon="1.8649">
        <ele>313.6</ele>
        <time>2021-03-21T13:12:11Z</time>
      </trkpt>
      <trkpt lat="43.92245" lon="1.86488">
        <ele>313.6</ele>
        <time>2021-03-21T13:12:12Z</time>
      </trkpt>
      <trkpt lat="43.92248" lon="1.86486">
        <ele>313.6</ele>
        <time>2021-03-21T13:12:13Z</time>
      </trkpt>
      <trkpt lat="43.92251" lon="1.86483">
        <ele>313.6</ele>
        <time>2021-03-21T13:12:14Z</time>
      </trkpt>
      <trkpt lat="43.92254" lon="1.86481">
        <ele>313.6</ele>
        <time>2021-03-21T13:12:15Z</time>
      </trkpt>
      <trkpt lat="43.92257" lon="1.8648">
        <ele>313.6</ele>
        <time>2021-03-21T13:12:16Z</time>
      </trkpt>
      <trkpt lat="43.9226" lon="1.86477">
        <ele>313.6</ele>
        <time>2021-03-21T13:12:17Z</time>
      </trkpt>
      <trkpt lat="43.92263" lon="1.86475">
        <ele>313.8</ele>
        <time>2021-03-21T13:12:18Z</time>
      </trkpt>
      <trkpt lat="43.92266" lon="1.86474">
        <ele>314</ele>
        <time>2021-03-21T13:12:19Z</time>
      </trkpt>
      <trkpt lat="43.92268" lon="1.86472">
        <ele>314</ele>
        <time>2021-03-21T13:12:20Z</time>
      </trkpt>
      <trkpt lat="43.92271" lon="1.86471">
        <ele>314.2</ele>
        <time>2021-03-21T13:12:21Z</time>
      </trkpt>
      <trkpt lat="43.92274" lon="1.86468">
        <ele>314.2</ele>
        <time>2021-03-21T13:12:22Z</time>
      </trkpt>
      <trkpt lat="43.92277" lon="1.86466">
        <ele>314.4</ele>
        <time>2021-03-21T13:12:23Z</time>
      </trkpt>
      <trkpt lat="43.9228" lon="1.86464">
        <ele>314.4</ele>
        <time>2021-03-21T13:12:24Z</time>
      </trkpt>
      <trkpt lat="43.92283" lon="1.86462">
        <ele>314.6</ele>
        <time>2021-03-21T13:12:25Z</time>
      </trkpt>
      <trkpt lat="43.92286" lon="1.86461">
        <ele>314.4</ele>
        <time>2021-03-21T13:12:26Z</time>
      </trkpt>
      <trkpt lat="43.92289" lon="1.86459">
        <ele>314.6</ele>
        <time>2021-03-21T13:12:27Z</time>
      </trkpt>
      <trkpt lat="43.92295" lon="1.86455">
        <ele>314.8</ele>
        <time>2021-03-21T13:12:29Z</time>
      </trkpt>
      <trkpt lat="43.92297" lon="1.86454">
        <ele>314.8</ele>
        <time>2021-03-21T13:12:30Z</time>
      </trkpt>
      <trkpt lat="43.923" lon="1.86452">
        <ele>314.8</ele>
        <time>2021-03-21T13:12:31Z</time>
      </trkpt>
      <trkpt lat="43.92302" lon="1.86451">
        <ele>315</ele>
        <time>2021-03-21T13:12:32Z</time>
      </trkpt>
      <trkpt lat="43.92305" lon="1.86446">
        <ele>315</ele>
        <time>2021-03-21T13:12:34Z</time>
      </trkpt>
      <trkpt lat="43.92307" lon="1.86444">
        <ele>315</ele>
        <time>2021-03-21T13:12:35Z</time>
      </trkpt>
      <trkpt lat="43.92309" lon="1.86442">
        <ele>315</ele>
        <time>2021-03-21T13:12:36Z</time>
      </trkpt>
      <trkpt lat="43.92312" lon="1.8644">
        <ele>315.2</ele>
        <time>2021-03-21T13:12:37Z</time>
      </trkpt>
      <trkpt lat="43.92314" lon="1.86437">
        <ele>315.2</ele>
        <time>2021-03-21T13:12:38Z</time>
      </trkpt>
      <trkpt lat="43.92316" lon="1.86435">
        <ele>315.2</ele>
        <time>2021-03-21T13:12:39Z</time>
      </trkpt>
      <trkpt lat="43.92317" lon="1.86432">
        <ele>315.2</ele>
        <time>2021-03-21T13:12:40Z</time>
      </trkpt>
      <trkpt lat="43.92319" lon="1.86431">
        <ele>315.4</ele>
        <time>2021-03-21T13:12:41Z</time>
      </trkpt>
      <trkpt lat="43.92321" lon="1.86429">
        <ele>315.4</ele>
        <time>2021-03-21T13:12:42Z</time>
      </trkpt>
      <trkpt lat="43.92324" lon="1.86426">
        <ele>315.4</ele>
        <time>2021-03-21T13:12:43Z</time>
      </trkpt>
      <trkpt lat="43.92325" lon="1.86424">
        <ele>315.6</ele>
        <time>2021-03-21T13:12:44Z</time>
      </trkpt>
      <trkpt lat="43.92327" lon="1.86422">
        <ele>315.8</ele>
        <time>2021-03-21T13:12:45Z</time>
      </trkpt>
      <trkpt lat="43.92329" lon="1.86419">
        <ele>315.8</ele>
        <time>2021-03-21T13:12:46Z</time>
      </trkpt>
      <trkpt lat="43.92332" lon="1.86416">
        <ele>316.2</ele>
        <time>2021-03-21T13:12:47Z</time>
      </trkpt>
      <trkpt lat="43.92334" lon="1.86413">
        <ele>316.2</ele>
        <time>2021-03-21T13:12:48Z</time>
      </trkpt>
      <trkpt lat="43.92337" lon="1.8641">
        <ele>316.2</ele>
        <time>2021-03-21T13:12:49Z</time>
      </trkpt>
      <trkpt lat="43.92339" lon="1.86408">
        <ele>316.6</ele>
        <time>2021-03-21T13:12:50Z</time>
      </trkpt>
      <trkpt lat="43.92341" lon="1.86406">
        <ele>316.6</ele>
        <time>2021-03-21T13:12:51Z</time>
      </trkpt>
      <trkpt lat="43.92342" lon="1.86403">
        <ele>317.2</ele>
        <time>2021-03-21T13:12:52Z</time>
      </trkpt>
      <trkpt lat="43.92344" lon="1.86401">
        <ele>317.4</ele>
        <time>2021-03-21T13:12:53Z</time>
      </trkpt>
      <trkpt lat="43.92346" lon="1.86399">
        <ele>317.4</ele>
        <time>2021-03-21T13:12:54Z</time>
      </trkpt>
      <trkpt lat="43.92349" lon="1.86396">
        <ele>317.6</ele>
        <time>2021-03-21T13:12:55Z</time>
      </trkpt>
      <trkpt lat="43.92351" lon="1.86393">
        <ele>317.6</ele>
        <time>2021-03-21T13:12:56Z</time>
      </trkpt>
      <trkpt lat="43.92353" lon="1.8639">
        <ele>317.8</ele>
        <time>2021-03-21T13:12:57Z</time>
      </trkpt>
      <trkpt lat="43.92355" lon="1.86388">
        <ele>317.8</ele>
        <time>2021-03-21T13:12:58Z</time>
      </trkpt>
      <trkpt lat="43.92357" lon="1.86384">
        <ele>317.8</ele>
        <time>2021-03-21T13:12:59Z</time>
      </trkpt>
      <trkpt lat="43.92359" lon="1.86381">
        <ele>318</ele>
        <time>2021-03-21T13:13:00Z</time>
      </trkpt>
      <trkpt lat="43.9236" lon="1.86379">
        <ele>318</ele>
        <time>2021-03-21T13:13:01Z</time>
      </trkpt>
      <trkpt lat="43.92364" lon="1.86372">
        <ele>318.2</ele>
        <time>2021-03-21T13:13:03Z</time>
      </trkpt>
      <trkpt lat="43.92366" lon="1.86369">
        <ele>318</ele>
        <time>2021-03-21T13:13:04Z</time>
      </trkpt>
      <trkpt lat="43.92368" lon="1.86366">
        <ele>318.2</ele>
        <time>2021-03-21T13:13:05Z</time>
      </trkpt>
      <trkpt lat="43.9237" lon="1.86364">
        <ele>318</ele>
        <time>2021-03-21T13:13:06Z</time>
      </trkpt>
      <trkpt lat="43.92372" lon="1.86361">
        <ele>318</ele>
        <time>2021-03-21T13:13:07Z</time>
      </trkpt>
      <trkpt lat="43.92373" lon="1.86358">
        <ele>318</ele>
        <time>2021-03-21T13:13:08Z</time>
      </trkpt>
      <trkpt lat="43.92376" lon="1.86354">
        <ele>318</ele>
        <time>2021-03-21T13:13:09Z</time>
      </trkpt>
      <trkpt lat="43.92378" lon="1.86351">
        <ele>318</ele>
        <time>2021-03-21T13:13:10Z</time>
      </trkpt>
      <trkpt lat="43.9238" lon="1.86349">
        <ele>318</ele>
        <time>2021-03-21T13:13:11Z</time>
      </trkpt>
      <trkpt lat="43.92384" lon="1.86344">
        <ele>318</ele>
        <time>2021-03-21T13:13:13Z</time>
      </trkpt>
      <trkpt lat="43.92387" lon="1.8634">
        <ele>317.8</ele>
        <time>2021-03-21T13:13:14Z</time>
      </trkpt>
      <trkpt lat="43.9239" lon="1.86337">
        <ele>318</ele>
        <time>2021-03-21T13:13:15Z</time>
      </trkpt>
      <trkpt lat="43.92393" lon="1.86333">
        <ele>318</ele>
        <time>2021-03-21T13:13:16Z</time>
      </trkpt>
      <trkpt lat="43.92396" lon="1.86329">
        <ele>318</ele>
        <time>2021-03-21T13:13:17Z</time>
      </trkpt>
      <trkpt lat="43.92399" lon="1.86326">
        <ele>318</ele>
        <time>2021-03-21T13:13:18Z</time>
      </trkpt>
      <trkpt lat="43.92403" lon="1.86322">
        <ele>318</ele>
        <time>2021-03-21T13:13:19Z</time>
      </trkpt>
      <trkpt lat="43.92406" lon="1.86319">
        <ele>317.8</ele>
        <time>2021-03-21T13:13:20Z</time>
      </trkpt>
      <trkpt lat="43.92409" lon="1.86316">
        <ele>317.8</ele>
        <time>2021-03-21T13:13:21Z</time>
      </trkpt>
      <trkpt lat="43.92411" lon="1.86313">
        <ele>317.8</ele>
        <time>2021-03-21T13:13:22Z</time>
      </trkpt>
      <trkpt lat="43.92414" lon="1.86309">
        <ele>317.8</ele>
        <time>2021-03-21T13:13:23Z</time>
      </trkpt>
      <trkpt lat="43.92418" lon="1.86305">
        <ele>317.8</ele>
        <time>2021-03-21T13:13:24Z</time>
      </trkpt>
      <trkpt lat="43.9242" lon="1.86301">
        <ele>317.8</ele>
        <time>2021-03-21T13:13:25Z</time>
      </trkpt>
      <trkpt lat="43.92423" lon="1.86298">
        <ele>317.8</ele>
        <time>2021-03-21T13:13:26Z</time>
      </trkpt>
      <trkpt lat="43.92425" lon="1.86294">
        <ele>317.8</ele>
        <time>2021-03-21T13:13:27Z</time>
      </trkpt>
      <trkpt lat="43.92428" lon="1.86289">
        <ele>317.8</ele>
        <time>2021-03-21T13:13:28Z</time>
      </trkpt>
      <trkpt lat="43.92431" lon="1.86285">
        <ele>317.4</ele>
        <time>2021-03-21T13:13:29Z</time>
      </trkpt>
      <trkpt lat="43.92434" lon="1.86281">
        <ele>317.2</ele>
        <time>2021-03-21T13:13:30Z</time>
      </trkpt>
      <trkpt lat="43.92436" lon="1.86278">
        <ele>317</ele>
        <time>2021-03-21T13:13:31Z</time>
      </trkpt>
      <trkpt lat="43.92439" lon="1.86274">
        <ele>316.6</ele>
        <time>2021-03-21T13:13:32Z</time>
      </trkpt>
      <trkpt lat="43.92441" lon="1.86272">
        <ele>316.6</ele>
        <time>2021-03-21T13:13:33Z</time>
      </trkpt>
      <trkpt lat="43.92443" lon="1.86269">
        <ele>316.6</ele>
        <time>2021-03-21T13:13:34Z</time>
      </trkpt>
      <trkpt lat="43.92445" lon="1.86266">
        <ele>316.6</ele>
        <time>2021-03-21T13:13:35Z</time>
      </trkpt>
      <trkpt lat="43.92447" lon="1.86263">
        <ele>316.4</ele>
        <time>2021-03-21T13:13:36Z</time>
      </trkpt>
      <trkpt lat="43.92451" lon="1.86256">
        <ele>316.4</ele>
        <time>2021-03-21T13:13:38Z</time>
      </trkpt>
      <trkpt lat="43.92453" lon="1.86253">
        <ele>316.4</ele>
        <time>2021-03-21T13:13:39Z</time>
      </trkpt>
      <trkpt lat="43.92455" lon="1.86249">
        <ele>316.4</ele>
        <time>2021-03-21T13:13:40Z</time>
      </trkpt>
      <trkpt lat="43.92456" lon="1.86245">
        <ele>316.2</ele>
        <time>2021-03-21T13:13:41Z</time>
      </trkpt>
      <trkpt lat="43.92457" lon="1.86242">
        <ele>316.6</ele>
        <time>2021-03-21T13:13:42Z</time>
      </trkpt>
      <trkpt lat="43.92459" lon="1.86238">
        <ele>316.6</ele>
        <time>2021-03-21T13:13:43Z</time>
      </trkpt>
      <trkpt lat="43.92461" lon="1.86235">
        <ele>316.6</ele>
        <time>2021-03-21T13:13:44Z</time>
      </trkpt>
      <trkpt lat="43.92462" lon="1.86232">
        <ele>316.8</ele>
        <time>2021-03-21T13:13:45Z</time>
      </trkpt>
      <trkpt lat="43.92464" lon="1.86229">
        <ele>316.8</ele>
        <time>2021-03-21T13:13:46Z</time>
      </trkpt>
      <trkpt lat="43.92466" lon="1.86224">
        <ele>316.8</ele>
        <time>2021-03-21T13:13:47Z</time>
      </trkpt>
      <trkpt lat="43.92468" lon="1.8622">
        <ele>316.8</ele>
        <time>2021-03-21T13:13:48Z</time>
      </trkpt>
      <trkpt lat="43.92472" lon="1.86213">
        <ele>317</ele>
        <time>2021-03-21T13:13:50Z</time>
      </trkpt>
      <trkpt lat="43.92474" lon="1.8621">
        <ele>317</ele>
        <time>2021-03-21T13:13:51Z</time>
      </trkpt>
      <trkpt lat="43.92476" lon="1.86206">
        <ele>317.2</ele>
        <time>2021-03-21T13:13:52Z</time>
      </trkpt>
      <trkpt lat="43.92478" lon="1.86203">
        <ele>317.4</ele>
        <time>2021-03-21T13:13:53Z</time>
      </trkpt>
      <trkpt lat="43.9248" lon="1.862">
        <ele>317.4</ele>
        <time>2021-03-21T13:13:54Z</time>
      </trkpt>
      <trkpt lat="43.92481" lon="1.86197">
        <ele>317.6</ele>
        <time>2021-03-21T13:13:55Z</time>
      </trkpt>
      <trkpt lat="43.92482" lon="1.86193">
        <ele>317.4</ele>
        <time>2021-03-21T13:13:56Z</time>
      </trkpt>
      <trkpt lat="43.92484" lon="1.8619">
        <ele>317.4</ele>
        <time>2021-03-21T13:13:57Z</time>
      </trkpt>
      <trkpt lat="43.92485" lon="1.86186">
        <ele>317.6</ele>
        <time>2021-03-21T13:13:58Z</time>
      </trkpt>
      <trkpt lat="43.92488" lon="1.8618">
        <ele>317.6</ele>
        <time>2021-03-21T13:14:00Z</time>
      </trkpt>
      <trkpt lat="43.9249" lon="1.86177">
        <ele>317.6</ele>
        <time>2021-03-21T13:14:01Z</time>
      </trkpt>
      <trkpt lat="43.92491" lon="1.86174">
        <ele>317.6</ele>
        <time>2021-03-21T13:14:02Z</time>
      </trkpt>
      <trkpt lat="43.92492" lon="1.86171">
        <ele>317.6</ele>
        <time>2021-03-21T13:14:03Z</time>
      </trkpt>
      <trkpt lat="43.92494" lon="1.86164">
        <ele>317.8</ele>
        <time>2021-03-21T13:14:05Z</time>
      </trkpt>
      <trkpt lat="43.92495" lon="1.86161">
        <ele>317.8</ele>
        <time>2021-03-21T13:14:06Z</time>
      </trkpt>
      <trkpt lat="43.92496" lon="1.86157">
        <ele>318</ele>
        <time>2021-03-21T13:14:07Z</time>
      </trkpt>
      <trkpt lat="43.92497" lon="1.86154">
        <ele>318</ele>
        <time>2021-03-21T13:14:08Z</time>
      </trkpt>
      <trkpt lat="43.92499" lon="1.86149">
        <ele>318</ele>
        <time>2021-03-21T13:14:09Z</time>
      </trkpt>
      <trkpt lat="43.92501" lon="1.86145">
        <ele>318.2</ele>
        <time>2021-03-21T13:14:10Z</time>
      </trkpt>
      <trkpt lat="43.92502" lon="1.86141">
        <ele>318.2</ele>
        <time>2021-03-21T13:14:11Z</time>
      </trkpt>
      <trkpt lat="43.92503" lon="1.86138">
        <ele>318.6</ele>
        <time>2021-03-21T13:14:12Z</time>
      </trkpt>
      <trkpt lat="43.92504" lon="1.86135">
        <ele>318.8</ele>
        <time>2021-03-21T13:14:13Z</time>
      </trkpt>
      <trkpt lat="43.92507" lon="1.86131">
        <ele>318.6</ele>
        <time>2021-03-21T13:14:14Z</time>
      </trkpt>
      <trkpt lat="43.92508" lon="1.86127">
        <ele>318.6</ele>
        <time>2021-03-21T13:14:15Z</time>
      </trkpt>
      <trkpt lat="43.92509" lon="1.86124">
        <ele>319</ele>
        <time>2021-03-21T13:14:16Z</time>
      </trkpt>
      <trkpt lat="43.9251" lon="1.86122">
        <ele>319.4</ele>
        <time>2021-03-21T13:14:17Z</time>
      </trkpt>
      <trkpt lat="43.92511" lon="1.86118">
        <ele>319.6</ele>
        <time>2021-03-21T13:14:18Z</time>
      </trkpt>
      <trkpt lat="43.92513" lon="1.86115">
        <ele>319.6</ele>
        <time>2021-03-21T13:14:19Z</time>
      </trkpt>
      <trkpt lat="43.92514" lon="1.8611">
        <ele>319.6</ele>
        <time>2021-03-21T13:14:20Z</time>
      </trkpt>
      <trkpt lat="43.92516" lon="1.86106">
        <ele>319.6</ele>
        <time>2021-03-21T13:14:21Z</time>
      </trkpt>
      <trkpt lat="43.92517" lon="1.86103">
        <ele>319.8</ele>
        <time>2021-03-21T13:14:22Z</time>
      </trkpt>
      <trkpt lat="43.92519" lon="1.861">
        <ele>320</ele>
        <time>2021-03-21T13:14:23Z</time>
      </trkpt>
      <trkpt lat="43.9252" lon="1.86098">
        <ele>320.2</ele>
        <time>2021-03-21T13:14:24Z</time>
      </trkpt>
      <trkpt lat="43.92521" lon="1.86095">
        <ele>320.2</ele>
        <time>2021-03-21T13:14:25Z</time>
      </trkpt>
      <trkpt lat="43.92521" lon="1.86093">
        <ele>320.2</ele>
        <time>2021-03-21T13:14:26Z</time>
      </trkpt>
      <trkpt lat="43.92524" lon="1.86088">
        <ele>320.2</ele>
        <time>2021-03-21T13:14:27Z</time>
      </trkpt>
      <trkpt lat="43.92525" lon="1.86086">
        <ele>320.6</ele>
        <time>2021-03-21T13:14:28Z</time>
      </trkpt>
      <trkpt lat="43.92526" lon="1.86083">
        <ele>320.4</ele>
        <time>2021-03-21T13:14:29Z</time>
      </trkpt>
      <trkpt lat="43.92528" lon="1.8608">
        <ele>320.8</ele>
        <time>2021-03-21T13:14:30Z</time>
      </trkpt>
      <trkpt lat="43.92529" lon="1.86077">
        <ele>321</ele>
        <time>2021-03-21T13:14:31Z</time>
      </trkpt>
      <trkpt lat="43.92531" lon="1.86073">
        <ele>321.2</ele>
        <time>2021-03-21T13:14:32Z</time>
      </trkpt>
      <trkpt lat="43.92531" lon="1.8607">
        <ele>321.6</ele>
        <time>2021-03-21T13:14:33Z</time>
      </trkpt>
      <trkpt lat="43.92532" lon="1.86068">
        <ele>321.8</ele>
        <time>2021-03-21T13:14:34Z</time>
      </trkpt>
      <trkpt lat="43.92533" lon="1.86064">
        <ele>322</ele>
        <time>2021-03-21T13:14:35Z</time>
      </trkpt>
      <trkpt lat="43.92535" lon="1.86061">
        <ele>322.2</ele>
        <time>2021-03-21T13:14:36Z</time>
      </trkpt>
      <trkpt lat="43.92537" lon="1.86057">
        <ele>322.2</ele>
        <time>2021-03-21T13:14:37Z</time>
      </trkpt>
      <trkpt lat="43.92539" lon="1.86053">
        <ele>322.4</ele>
        <time>2021-03-21T13:14:38Z</time>
      </trkpt>
      <trkpt lat="43.9254" lon="1.8605">
        <ele>322.8</ele>
        <time>2021-03-21T13:14:39Z</time>
      </trkpt>
      <trkpt lat="43.9254" lon="1.86048">
        <ele>322.8</ele>
        <time>2021-03-21T13:14:40Z</time>
      </trkpt>
      <trkpt lat="43.92541" lon="1.86046">
        <ele>323</ele>
        <time>2021-03-21T13:14:41Z</time>
      </trkpt>
      <trkpt lat="43.92541" lon="1.86044">
        <ele>322.8</ele>
        <time>2021-03-21T13:14:42Z</time>
      </trkpt>
      <trkpt lat="43.92542" lon="1.86042">
        <ele>323</ele>
        <time>2021-03-21T13:14:43Z</time>
      </trkpt>
      <trkpt lat="43.92543" lon="1.86039">
        <ele>323.2</ele>
        <time>2021-03-21T13:14:44Z</time>
      </trkpt>
      <trkpt lat="43.92544" lon="1.86036">
        <ele>323.6</ele>
        <time>2021-03-21T13:14:45Z</time>
      </trkpt>
      <trkpt lat="43.92545" lon="1.86034">
        <ele>323.6</ele>
        <time>2021-03-21T13:14:46Z</time>
      </trkpt>
      <trkpt lat="43.92545" lon="1.86032">
        <ele>323.6</ele>
        <time>2021-03-21T13:14:47Z</time>
      </trkpt>
      <trkpt lat="43.92545" lon="1.86029">
        <ele>323.8</ele>
        <time>2021-03-21T13:14:48Z</time>
      </trkpt>
      <trkpt lat="43.92546" lon="1.86026">
        <ele>324</ele>
        <time>2021-03-21T13:14:49Z</time>
      </trkpt>
      <trkpt lat="43.92547" lon="1.86023">
        <ele>324</ele>
        <time>2021-03-21T13:14:50Z</time>
      </trkpt>
      <trkpt lat="43.92548" lon="1.8602">
        <ele>324.4</ele>
        <time>2021-03-21T13:14:51Z</time>
      </trkpt>
      <trkpt lat="43.92548" lon="1.86017">
        <ele>324.6</ele>
        <time>2021-03-21T13:14:52Z</time>
      </trkpt>
      <trkpt lat="43.92549" lon="1.86015">
        <ele>324.8</ele>
        <time>2021-03-21T13:14:53Z</time>
      </trkpt>
      <trkpt lat="43.92549" lon="1.86012">
        <ele>325</ele>
        <time>2021-03-21T13:14:54Z</time>
      </trkpt>
      <trkpt lat="43.9255" lon="1.8601">
        <ele>325</ele>
        <time>2021-03-21T13:14:55Z</time>
      </trkpt>
      <trkpt lat="43.9255" lon="1.86008">
        <ele>325.2</ele>
        <time>2021-03-21T13:14:56Z</time>
      </trkpt>
      <trkpt lat="43.9255" lon="1.86006">
        <ele>325.4</ele>
        <time>2021-03-21T13:14:57Z</time>
      </trkpt>
      <trkpt lat="43.92551" lon="1.86004">
        <ele>325.4</ele>
        <time>2021-03-21T13:14:58Z</time>
      </trkpt>
      <trkpt lat="43.92552" lon="1.86002">
        <ele>325.8</ele>
        <time>2021-03-21T13:14:59Z</time>
      </trkpt>
      <trkpt lat="43.92552" lon="1.85999">
        <ele>326.2</ele>
        <time>2021-03-21T13:15:00Z</time>
      </trkpt>
      <trkpt lat="43.92553" lon="1.85996">
        <ele>326.4</ele>
        <time>2021-03-21T13:15:01Z</time>
      </trkpt>
      <trkpt lat="43.92553" lon="1.85994">
        <ele>326.6</ele>
        <time>2021-03-21T13:15:02Z</time>
      </trkpt>
      <trkpt lat="43.92554" lon="1.85992">
        <ele>326.6</ele>
        <time>2021-03-21T13:15:03Z</time>
      </trkpt>
      <trkpt lat="43.92555" lon="1.85989">
        <ele>326.8</ele>
        <time>2021-03-21T13:15:04Z</time>
      </trkpt>
      <trkpt lat="43.92556" lon="1.85986">
        <ele>327.4</ele>
        <time>2021-03-21T13:15:05Z</time>
      </trkpt>
      <trkpt lat="43.92556" lon="1.85983">
        <ele>327.8</ele>
        <time>2021-03-21T13:15:06Z</time>
      </trkpt>
      <trkpt lat="43.92557" lon="1.85979">
        <ele>327.8</ele>
        <time>2021-03-21T13:15:07Z</time>
      </trkpt>
      <trkpt lat="43.92558" lon="1.85976">
        <ele>327.8</ele>
        <time>2021-03-21T13:15:08Z</time>
      </trkpt>
      <trkpt lat="43.92558" lon="1.85973">
        <ele>328.2</ele>
        <time>2021-03-21T13:15:09Z</time>
      </trkpt>
      <trkpt lat="43.92558" lon="1.8597">
        <ele>328.6</ele>
        <time>2021-03-21T13:15:10Z</time>
      </trkpt>
      <trkpt lat="43.92558" lon="1.85967">
        <ele>328.6</ele>
        <time>2021-03-21T13:15:11Z</time>
      </trkpt>
      <trkpt lat="43.92559" lon="1.85964">
        <ele>328.8</ele>
        <time>2021-03-21T13:15:12Z</time>
      </trkpt>
      <trkpt lat="43.9256" lon="1.8596">
        <ele>329</ele>
        <time>2021-03-21T13:15:13Z</time>
      </trkpt>
      <trkpt lat="43.92561" lon="1.85957">
        <ele>329</ele>
        <time>2021-03-21T13:15:14Z</time>
      </trkpt>
      <trkpt lat="43.92561" lon="1.85954">
        <ele>329.4</ele>
        <time>2021-03-21T13:15:15Z</time>
      </trkpt>
      <trkpt lat="43.92562" lon="1.85951">
        <ele>329.8</ele>
        <time>2021-03-21T13:15:16Z</time>
      </trkpt>
      <trkpt lat="43.92563" lon="1.85947">
        <ele>329.8</ele>
        <time>2021-03-21T13:15:17Z</time>
      </trkpt>
      <trkpt lat="43.92564" lon="1.85944">
        <ele>330</ele>
        <time>2021-03-21T13:15:18Z</time>
      </trkpt>
      <trkpt lat="43.92565" lon="1.85941">
        <ele>330.2</ele>
        <time>2021-03-21T13:15:19Z</time>
      </trkpt>
      <trkpt lat="43.92567" lon="1.85938">
        <ele>330.2</ele>
        <time>2021-03-21T13:15:20Z</time>
      </trkpt>
      <trkpt lat="43.92568" lon="1.85935">
        <ele>330.2</ele>
        <time>2021-03-21T13:15:21Z</time>
      </trkpt>
      <trkpt lat="43.9257" lon="1.85933">
        <ele>330.2</ele>
        <time>2021-03-21T13:15:22Z</time>
      </trkpt>
      <trkpt lat="43.92573" lon="1.85931">
        <ele>330.2</ele>
        <time>2021-03-21T13:15:23Z</time>
      </trkpt>
      <trkpt lat="43.92576" lon="1.8593">
        <ele>330.2</ele>
        <time>2021-03-21T13:15:24Z</time>
      </trkpt>
      <trkpt lat="43.9258" lon="1.85928">
        <ele>330.2</ele>
        <time>2021-03-21T13:15:25Z</time>
      </trkpt>
      <trkpt lat="43.92583" lon="1.85927">
        <ele>330</ele>
        <time>2021-03-21T13:15:26Z</time>
      </trkpt>
      <trkpt lat="43.92588" lon="1.85925">
        <ele>330</ele>
        <time>2021-03-21T13:15:27Z</time>
      </trkpt>
      <trkpt lat="43.92591" lon="1.85924">
        <ele>330.2</ele>
        <time>2021-03-21T13:15:28Z</time>
      </trkpt>
      <trkpt lat="43.92595" lon="1.85923">
        <ele>330</ele>
        <time>2021-03-21T13:15:29Z</time>
      </trkpt>
      <trkpt lat="43.92599" lon="1.85922">
        <ele>329.4</ele>
        <time>2021-03-21T13:15:30Z</time>
      </trkpt>
      <trkpt lat="43.92603" lon="1.85921">
        <ele>329</ele>
        <time>2021-03-21T13:15:31Z</time>
      </trkpt>
      <trkpt lat="43.92607" lon="1.8592">
        <ele>328.8</ele>
        <time>2021-03-21T13:15:32Z</time>
      </trkpt>
      <trkpt lat="43.92612" lon="1.85919">
        <ele>328.4</ele>
        <time>2021-03-21T13:15:33Z</time>
      </trkpt>
      <trkpt lat="43.92615" lon="1.85918">
        <ele>327.6</ele>
        <time>2021-03-21T13:15:34Z</time>
      </trkpt>
      <trkpt lat="43.92619" lon="1.85917">
        <ele>326.8</ele>
        <time>2021-03-21T13:15:35Z</time>
      </trkpt>
      <trkpt lat="43.92623" lon="1.85917">
        <ele>326</ele>
        <time>2021-03-21T13:15:36Z</time>
      </trkpt>
      <trkpt lat="43.92627" lon="1.85916">
        <ele>325.2</ele>
        <time>2021-03-21T13:15:37Z</time>
      </trkpt>
      <trkpt lat="43.92631" lon="1.85916">
        <ele>324.8</ele>
        <time>2021-03-21T13:15:38Z</time>
      </trkpt>
      <trkpt lat="43.92636" lon="1.85916">
        <ele>323.8</ele>
        <time>2021-03-21T13:15:39Z</time>
      </trkpt>
      <trkpt lat="43.92639" lon="1.85916">
        <ele>323.2</ele>
        <time>2021-03-21T13:15:40Z</time>
      </trkpt>
      <trkpt lat="43.92642" lon="1.85916">
        <ele>322.8</ele>
        <time>2021-03-21T13:15:41Z</time>
      </trkpt>
      <trkpt lat="43.92645" lon="1.85917">
        <ele>321.6</ele>
        <time>2021-03-21T13:15:42Z</time>
      </trkpt>
      <trkpt lat="43.92647" lon="1.85919">
        <ele>320.4</ele>
        <time>2021-03-21T13:15:43Z</time>
      </trkpt>
      <trkpt lat="43.9265" lon="1.8592">
        <ele>319.4</ele>
        <time>2021-03-21T13:15:44Z</time>
      </trkpt>
      <trkpt lat="43.92652" lon="1.85921">
        <ele>318.2</ele>
        <time>2021-03-21T13:15:45Z</time>
      </trkpt>
      <trkpt lat="43.92655" lon="1.85922">
        <ele>317.4</ele>
        <time>2021-03-21T13:15:46Z</time>
      </trkpt>
      <trkpt lat="43.92657" lon="1.85923">
        <ele>317.4</ele>
        <time>2021-03-21T13:15:47Z</time>
      </trkpt>
      <trkpt lat="43.92658" lon="1.85924">
        <ele>316.8</ele>
        <time>2021-03-21T13:15:48Z</time>
      </trkpt>
      <trkpt lat="43.9266" lon="1.85925">
        <ele>316.4</ele>
        <time>2021-03-21T13:15:49Z</time>
      </trkpt>
      <trkpt lat="43.92663" lon="1.85926">
        <ele>316</ele>
        <time>2021-03-21T13:15:50Z</time>
      </trkpt>
      <trkpt lat="43.92669" lon="1.85929">
        <ele>315.2</ele>
        <time>2021-03-21T13:15:52Z</time>
      </trkpt>
      <trkpt lat="43.92672" lon="1.8593">
        <ele>315.2</ele>
        <time>2021-03-21T13:15:53Z</time>
      </trkpt>
      <trkpt lat="43.9268" lon="1.85931">
        <ele>314.6</ele>
        <time>2021-03-21T13:15:55Z</time>
      </trkpt>
      <trkpt lat="43.92684" lon="1.85932">
        <ele>313.8</ele>
        <time>2021-03-21T13:15:56Z</time>
      </trkpt>
      <trkpt lat="43.92689" lon="1.85933">
        <ele>313.4</ele>
        <time>2021-03-21T13:15:57Z</time>
      </trkpt>
      <trkpt lat="43.92694" lon="1.85934">
        <ele>313</ele>
        <time>2021-03-21T13:15:58Z</time>
      </trkpt>
      <trkpt lat="43.92699" lon="1.85935">
        <ele>312.4</ele>
        <time>2021-03-21T13:15:59Z</time>
      </trkpt>
      <trkpt lat="43.92705" lon="1.85935">
        <ele>311.8</ele>
        <time>2021-03-21T13:16:00Z</time>
      </trkpt>
      <trkpt lat="43.92711" lon="1.85935">
        <ele>311.2</ele>
        <time>2021-03-21T13:16:01Z</time>
      </trkpt>
      <trkpt lat="43.92717" lon="1.85935">
        <ele>310.8</ele>
        <time>2021-03-21T13:16:02Z</time>
      </trkpt>
      <trkpt lat="43.92723" lon="1.85935">
        <ele>310.4</ele>
        <time>2021-03-21T13:16:03Z</time>
      </trkpt>
      <trkpt lat="43.92728" lon="1.85935">
        <ele>310</ele>
        <time>2021-03-21T13:16:04Z</time>
      </trkpt>
      <trkpt lat="43.92732" lon="1.85937">
        <ele>309.8</ele>
        <time>2021-03-21T13:16:05Z</time>
      </trkpt>
      <trkpt lat="43.92736" lon="1.85939">
        <ele>309.4</ele>
        <time>2021-03-21T13:16:06Z</time>
      </trkpt>
      <trkpt lat="43.9274" lon="1.85942">
        <ele>309.4</ele>
        <time>2021-03-21T13:16:07Z</time>
      </trkpt>
      <trkpt lat="43.92742" lon="1.85945">
        <ele>308.6</ele>
        <time>2021-03-21T13:16:08Z</time>
      </trkpt>
      <trkpt lat="43.92745" lon="1.85949">
        <ele>308.6</ele>
        <time>2021-03-21T13:16:09Z</time>
      </trkpt>
      <trkpt lat="43.92747" lon="1.85952">
        <ele>308.2</ele>
        <time>2021-03-21T13:16:10Z</time>
      </trkpt>
      <trkpt lat="43.92749" lon="1.85955">
        <ele>308.2</ele>
        <time>2021-03-21T13:16:11Z</time>
      </trkpt>
      <trkpt lat="43.92751" lon="1.85957">
        <ele>308.2</ele>
        <time>2021-03-21T13:16:12Z</time>
      </trkpt>
      <trkpt lat="43.92753" lon="1.8596">
        <ele>308</ele>
        <time>2021-03-21T13:16:13Z</time>
      </trkpt>
      <trkpt lat="43.92755" lon="1.85962">
        <ele>308</ele>
        <time>2021-03-21T13:16:14Z</time>
      </trkpt>
      <trkpt lat="43.92757" lon="1.85965">
        <ele>308.2</ele>
        <time>2021-03-21T13:16:15Z</time>
      </trkpt>
      <trkpt lat="43.92758" lon="1.85967">
        <ele>308.2</ele>
        <time>2021-03-21T13:16:16Z</time>
      </trkpt>
      <trkpt lat="43.92759" lon="1.8597">
        <ele>308</ele>
        <time>2021-03-21T13:16:17Z</time>
      </trkpt>
      <trkpt lat="43.92761" lon="1.85972">
        <ele>308</ele>
        <time>2021-03-21T13:16:18Z</time>
      </trkpt>
      <trkpt lat="43.92763" lon="1.85974">
        <ele>308.4</ele>
        <time>2021-03-21T13:16:19Z</time>
      </trkpt>
      <trkpt lat="43.92764" lon="1.85976">
        <ele>308.6</ele>
        <time>2021-03-21T13:16:20Z</time>
      </trkpt>
      <trkpt lat="43.92765" lon="1.85979">
        <ele>308.8</ele>
        <time>2021-03-21T13:16:21Z</time>
      </trkpt>
      <trkpt lat="43.92766" lon="1.85981">
        <ele>309</ele>
        <time>2021-03-21T13:16:22Z</time>
      </trkpt>
      <trkpt lat="43.92767" lon="1.85982">
        <ele>309</ele>
        <time>2021-03-21T13:16:23Z</time>
      </trkpt>
      <trkpt lat="43.92768" lon="1.85984">
        <ele>309.4</ele>
        <time>2021-03-21T13:16:24Z</time>
      </trkpt>
      <trkpt lat="43.92769" lon="1.85985">
        <ele>309.6</ele>
        <time>2021-03-21T13:16:25Z</time>
      </trkpt>
      <trkpt lat="43.9277" lon="1.85987">
        <ele>309.8</ele>
        <time>2021-03-21T13:16:26Z</time>
      </trkpt>
      <trkpt lat="43.92771" lon="1.85988">
        <ele>309.8</ele>
        <time>2021-03-21T13:16:27Z</time>
      </trkpt>
      <trkpt lat="43.92772" lon="1.8599">
        <ele>309.8</ele>
        <time>2021-03-21T13:16:28Z</time>
      </trkpt>
      <trkpt lat="43.92773" lon="1.85991">
        <ele>310.4</ele>
        <time>2021-03-21T13:16:29Z</time>
      </trkpt>
      <trkpt lat="43.92774" lon="1.85993">
        <ele>310.8</ele>
        <time>2021-03-21T13:16:30Z</time>
      </trkpt>
      <trkpt lat="43.92775" lon="1.85994">
        <ele>311</ele>
        <time>2021-03-21T13:16:31Z</time>
      </trkpt>
      <trkpt lat="43.92776" lon="1.85996">
        <ele>311.6</ele>
        <time>2021-03-21T13:16:32Z</time>
      </trkpt>
      <trkpt lat="43.92776" lon="1.85998">
        <ele>312.2</ele>
        <time>2021-03-21T13:16:33Z</time>
      </trkpt>
      <trkpt lat="43.92777" lon="1.85999">
        <ele>312.6</ele>
        <time>2021-03-21T13:16:34Z</time>
      </trkpt>
      <trkpt lat="43.92778" lon="1.86001">
        <ele>312.8</ele>
        <time>2021-03-21T13:16:35Z</time>
      </trkpt>
      <trkpt lat="43.92778" lon="1.86002">
        <ele>312.8</ele>
        <time>2021-03-21T13:16:36Z</time>
      </trkpt>
      <trkpt lat="43.92779" lon="1.86003">
        <ele>313</ele>
        <time>2021-03-21T13:16:37Z</time>
      </trkpt>
      <trkpt lat="43.9278" lon="1.86004">
        <ele>313.2</ele>
        <time>2021-03-21T13:16:38Z</time>
      </trkpt>
      <trkpt lat="43.9278" lon="1.86006">
        <ele>313.2</ele>
        <time>2021-03-21T13:16:39Z</time>
      </trkpt>
      <trkpt lat="43.92781" lon="1.86007">
        <ele>313.6</ele>
        <time>2021-03-21T13:16:40Z</time>
      </trkpt>
      <trkpt lat="43.92782" lon="1.86008">
        <ele>313.8</ele>
        <time>2021-03-21T13:16:41Z</time>
      </trkpt>
      <trkpt lat="43.92782" lon="1.86009">
        <ele>314</ele>
        <time>2021-03-21T13:16:42Z</time>
      </trkpt>
      <trkpt lat="43.92783" lon="1.86009">
        <ele>314.2</ele>
        <time>2021-03-21T13:16:43Z</time>
      </trkpt>
      <trkpt lat="43.92784" lon="1.8601">
        <ele>314.6</ele>
        <time>2021-03-21T13:16:44Z</time>
      </trkpt>
      <trkpt lat="43.92785" lon="1.86012">
        <ele>314.6</ele>
        <time>2021-03-21T13:16:45Z</time>
      </trkpt>
      <trkpt lat="43.92785" lon="1.86013">
        <ele>314.6</ele>
        <time>2021-03-21T13:16:46Z</time>
      </trkpt>
      <trkpt lat="43.92786" lon="1.86014">
        <ele>314.8</ele>
        <time>2021-03-21T13:16:47Z</time>
      </trkpt>
      <trkpt lat="43.92787" lon="1.86016">
        <ele>315</ele>
        <time>2021-03-21T13:16:48Z</time>
      </trkpt>
      <trkpt lat="43.92788" lon="1.86017">
        <ele>315.4</ele>
        <time>2021-03-21T13:16:49Z</time>
      </trkpt>
      <trkpt lat="43.92788" lon="1.86018">
        <ele>315.6</ele>
        <time>2021-03-21T13:16:50Z</time>
      </trkpt>
      <trkpt lat="43.92789" lon="1.86019">
        <ele>315.8</ele>
        <time>2021-03-21T13:16:51Z</time>
      </trkpt>
      <trkpt lat="43.9279" lon="1.8602">
        <ele>316.2</ele>
        <time>2021-03-21T13:16:52Z</time>
      </trkpt>
      <trkpt lat="43.92791" lon="1.86021">
        <ele>316.2</ele>
        <time>2021-03-21T13:16:53Z</time>
      </trkpt>
      <trkpt lat="43.92792" lon="1.86021">
        <ele>316.4</ele>
        <time>2021-03-21T13:16:54Z</time>
      </trkpt>
      <trkpt lat="43.92793" lon="1.86022">
        <ele>317</ele>
        <time>2021-03-21T13:16:55Z</time>
      </trkpt>
      <trkpt lat="43.92793" lon="1.86023">
        <ele>317.4</ele>
        <time>2021-03-21T13:16:56Z</time>
      </trkpt>
      <trkpt lat="43.92794" lon="1.86023">
        <ele>317.6</ele>
        <time>2021-03-21T13:16:57Z</time>
      </trkpt>
      <trkpt lat="43.92795" lon="1.86024">
        <ele>317.8</ele>
        <time>2021-03-21T13:16:58Z</time>
      </trkpt>
      <trkpt lat="43.92796" lon="1.86024">
        <ele>318</ele>
        <time>2021-03-21T13:16:59Z</time>
      </trkpt>
      <trkpt lat="43.92797" lon="1.86025">
        <ele>318</ele>
        <time>2021-03-21T13:17:00Z</time>
      </trkpt>
      <trkpt lat="43.92798" lon="1.86025">
        <ele>318.2</ele>
        <time>2021-03-21T13:17:01Z</time>
      </trkpt>
      <trkpt lat="43.92799" lon="1.86026">
        <ele>318.6</ele>
        <time>2021-03-21T13:17:02Z</time>
      </trkpt>
      <trkpt lat="43.928" lon="1.86026">
        <ele>319</ele>
        <time>2021-03-21T13:17:03Z</time>
      </trkpt>
      <trkpt lat="43.928" lon="1.86027">
        <ele>319.4</ele>
        <time>2021-03-21T13:17:04Z</time>
      </trkpt>
      <trkpt lat="43.92801" lon="1.86027">
        <ele>319.4</ele>
        <time>2021-03-21T13:17:05Z</time>
      </trkpt>
      <trkpt lat="43.92802" lon="1.86028">
        <ele>319.4</ele>
        <time>2021-03-21T13:17:06Z</time>
      </trkpt>
      <trkpt lat="43.92803" lon="1.86029">
        <ele>319.8</ele>
        <time>2021-03-21T13:17:07Z</time>
      </trkpt>
      <trkpt lat="43.92804" lon="1.86029">
        <ele>319.8</ele>
        <time>2021-03-21T13:17:08Z</time>
      </trkpt>
      <trkpt lat="43.92804" lon="1.8603">
        <ele>320</ele>
        <time>2021-03-21T13:17:09Z</time>
      </trkpt>
      <trkpt lat="43.92805" lon="1.86031">
        <ele>320.2</ele>
        <time>2021-03-21T13:17:10Z</time>
      </trkpt>
      <trkpt lat="43.92806" lon="1.86031">
        <ele>320.4</ele>
        <time>2021-03-21T13:17:11Z</time>
      </trkpt>
      <trkpt lat="43.92807" lon="1.86031">
        <ele>320.6</ele>
        <time>2021-03-21T13:17:12Z</time>
      </trkpt>
      <trkpt lat="43.92807" lon="1.86032">
        <ele>320.4</ele>
        <time>2021-03-21T13:17:13Z</time>
      </trkpt>
      <trkpt lat="43.92808" lon="1.86032">
        <ele>320.4</ele>
        <time>2021-03-21T13:17:14Z</time>
      </trkpt>
      <trkpt lat="43.92808" lon="1.86033">
        <ele>320.6</ele>
        <time>2021-03-21T13:17:15Z</time>
      </trkpt>
      <trkpt lat="43.92808" lon="1.86033">
        <ele>320.8</ele>
        <time>2021-03-21T13:17:16Z</time>
      </trkpt>
      <trkpt lat="43.92809" lon="1.86034">
        <ele>321</ele>
        <time>2021-03-21T13:17:17Z</time>
      </trkpt>
      <trkpt lat="43.9281" lon="1.86034">
        <ele>321.4</ele>
        <time>2021-03-21T13:17:18Z</time>
      </trkpt>
      <trkpt lat="43.9281" lon="1.86035">
        <ele>321.4</ele>
        <time>2021-03-21T13:17:19Z</time>
      </trkpt>
      <trkpt lat="43.92811" lon="1.86035">
        <ele>322</ele>
        <time>2021-03-21T13:17:20Z</time>
      </trkpt>
      <trkpt lat="43.92812" lon="1.86036">
        <ele>322.6</ele>
        <time>2021-03-21T13:17:21Z</time>
      </trkpt>
      <trkpt lat="43.92813" lon="1.86036">
        <ele>322.8</ele>
        <time>2021-03-21T13:17:22Z</time>
      </trkpt>
      <trkpt lat="43.92814" lon="1.86036">
        <ele>323</ele>
        <time>2021-03-21T13:17:23Z</time>
      </trkpt>
      <trkpt lat="43.92815" lon="1.86037">
        <ele>323</ele>
        <time>2021-03-21T13:17:24Z</time>
      </trkpt>
      <trkpt lat="43.92816" lon="1.86038">
        <ele>323.2</ele>
        <time>2021-03-21T13:17:25Z</time>
      </trkpt>
      <trkpt lat="43.92817" lon="1.86038">
        <ele>323.4</ele>
        <time>2021-03-21T13:17:26Z</time>
      </trkpt>
      <trkpt lat="43.92818" lon="1.86039">
        <ele>323.4</ele>
        <time>2021-03-21T13:17:27Z</time>
      </trkpt>
      <trkpt lat="43.92819" lon="1.86039">
        <ele>323.6</ele>
        <time>2021-03-21T13:17:28Z</time>
      </trkpt>
      <trkpt lat="43.92819" lon="1.8604">
        <ele>323.8</ele>
        <time>2021-03-21T13:17:29Z</time>
      </trkpt>
      <trkpt lat="43.9282" lon="1.86041">
        <ele>324.2</ele>
        <time>2021-03-21T13:17:30Z</time>
      </trkpt>
      <trkpt lat="43.92821" lon="1.86042">
        <ele>324.4</ele>
        <time>2021-03-21T13:17:31Z</time>
      </trkpt>
      <trkpt lat="43.92822" lon="1.86042">
        <ele>324.8</ele>
        <time>2021-03-21T13:17:32Z</time>
      </trkpt>
      <trkpt lat="43.92823" lon="1.86043">
        <ele>325.2</ele>
        <time>2021-03-21T13:17:33Z</time>
      </trkpt>
      <trkpt lat="43.92824" lon="1.86043">
        <ele>325.4</ele>
        <time>2021-03-21T13:17:34Z</time>
      </trkpt>
      <trkpt lat="43.92824" lon="1.86044">
        <ele>325.8</ele>
        <time>2021-03-21T13:17:35Z</time>
      </trkpt>
      <trkpt lat="43.92825" lon="1.86045">
        <ele>325.8</ele>
        <time>2021-03-21T13:17:36Z</time>
      </trkpt>
      <trkpt lat="43.92826" lon="1.86045">
        <ele>326</ele>
        <time>2021-03-21T13:17:37Z</time>
      </trkpt>
      <trkpt lat="43.92827" lon="1.86046">
        <ele>326</ele>
        <time>2021-03-21T13:17:38Z</time>
      </trkpt>
      <trkpt lat="43.92827" lon="1.86047">
        <ele>326.2</ele>
        <time>2021-03-21T13:17:39Z</time>
      </trkpt>
      <trkpt lat="43.92828" lon="1.86048">
        <ele>326.2</ele>
        <time>2021-03-21T13:17:40Z</time>
      </trkpt>
      <trkpt lat="43.92828" lon="1.86048">
        <ele>326.4</ele>
        <time>2021-03-21T13:17:41Z</time>
      </trkpt>
      <trkpt lat="43.92829" lon="1.86049">
        <ele>326.6</ele>
        <time>2021-03-21T13:17:42Z</time>
      </trkpt>
      <trkpt lat="43.9283" lon="1.86049">
        <ele>326.6</ele>
        <time>2021-03-21T13:17:43Z</time>
      </trkpt>
      <trkpt lat="43.9283" lon="1.8605">
        <ele>326.6</ele>
        <time>2021-03-21T13:17:44Z</time>
      </trkpt>
      <trkpt lat="43.92831" lon="1.86051">
        <ele>327</ele>
        <time>2021-03-21T13:17:45Z</time>
      </trkpt>
      <trkpt lat="43.92832" lon="1.86052">
        <ele>327</ele>
        <time>2021-03-21T13:17:46Z</time>
      </trkpt>
      <trkpt lat="43.92833" lon="1.86052">
        <ele>327.2</ele>
        <time>2021-03-21T13:17:47Z</time>
      </trkpt>
      <trkpt lat="43.92833" lon="1.86053">
        <ele>327.4</ele>
        <time>2021-03-21T13:17:48Z</time>
      </trkpt>
      <trkpt lat="43.92834" lon="1.86054">
        <ele>327.4</ele>
        <time>2021-03-21T13:17:49Z</time>
      </trkpt>
      <trkpt lat="43.92835" lon="1.86054">
        <ele>327.6</ele>
        <time>2021-03-21T13:17:50Z</time>
      </trkpt>
      <trkpt lat="43.92836" lon="1.86055">
        <ele>327.8</ele>
        <time>2021-03-21T13:17:51Z</time>
      </trkpt>
      <trkpt lat="43.92837" lon="1.86056">
        <ele>327.8</ele>
        <time>2021-03-21T13:17:52Z</time>
      </trkpt>
      <trkpt lat="43.92837" lon="1.86057">
        <ele>328</ele>
        <time>2021-03-21T13:17:53Z</time>
      </trkpt>
      <trkpt lat="43.92838" lon="1.86058">
        <ele>328</ele>
        <time>2021-03-21T13:17:54Z</time>
      </trkpt>
      <trkpt lat="43.92839" lon="1.86059">
        <ele>328</ele>
        <time>2021-03-21T13:17:55Z</time>
      </trkpt>
      <trkpt lat="43.9284" lon="1.86059">
        <ele>328.2</ele>
        <time>2021-03-21T13:17:56Z</time>
      </trkpt>
      <trkpt lat="43.92841" lon="1.8606">
        <ele>328.4</ele>
        <time>2021-03-21T13:17:57Z</time>
      </trkpt>
      <trkpt lat="43.92841" lon="1.86062">
        <ele>328.2</ele>
        <time>2021-03-21T13:17:58Z</time>
      </trkpt>
      <trkpt lat="43.92842" lon="1.86063">
        <ele>328.2</ele>
        <time>2021-03-21T13:17:59Z</time>
      </trkpt>
      <trkpt lat="43.92843" lon="1.86064">
        <ele>328.2</ele>
        <time>2021-03-21T13:18:00Z</time>
      </trkpt>
      <trkpt lat="43.92843" lon="1.86065">
        <ele>328.4</ele>
        <time>2021-03-21T13:18:01Z</time>
      </trkpt>
      <trkpt lat="43.92844" lon="1.86066">
        <ele>328.6</ele>
        <time>2021-03-21T13:18:02Z</time>
      </trkpt>
      <trkpt lat="43.92844" lon="1.86067">
        <ele>328.6</ele>
        <time>2021-03-21T13:18:03Z</time>
      </trkpt>
      <trkpt lat="43.92845" lon="1.86068">
        <ele>328.8</ele>
        <time>2021-03-21T13:18:04Z</time>
      </trkpt>
      <trkpt lat="43.92845" lon="1.86069">
        <ele>329</ele>
        <time>2021-03-21T13:18:05Z</time>
      </trkpt>
      <trkpt lat="43.92846" lon="1.86071">
        <ele>329</ele>
        <time>2021-03-21T13:18:06Z</time>
      </trkpt>
      <trkpt lat="43.92846" lon="1.86073">
        <ele>329</ele>
        <time>2021-03-21T13:18:07Z</time>
      </trkpt>
      <trkpt lat="43.92846" lon="1.86075">
        <ele>329.2</ele>
        <time>2021-03-21T13:18:08Z</time>
      </trkpt>
      <trkpt lat="43.92847" lon="1.86076">
        <ele>329.2</ele>
        <time>2021-03-21T13:18:09Z</time>
      </trkpt>
      <trkpt lat="43.92847" lon="1.86078">
        <ele>329.2</ele>
        <time>2021-03-21T13:18:10Z</time>
      </trkpt>
      <trkpt lat="43.92847" lon="1.86079">
        <ele>329.4</ele>
        <time>2021-03-21T13:18:11Z</time>
      </trkpt>
      <trkpt lat="43.92848" lon="1.86081">
        <ele>329.6</ele>
        <time>2021-03-21T13:18:12Z</time>
      </trkpt>
      <trkpt lat="43.92848" lon="1.86082">
        <ele>329.8</ele>
        <time>2021-03-21T13:18:13Z</time>
      </trkpt>
      <trkpt lat="43.92848" lon="1.86083">
        <ele>330</ele>
        <time>2021-03-21T13:18:14Z</time>
      </trkpt>
      <trkpt lat="43.92848" lon="1.86085">
        <ele>330.2</ele>
        <time>2021-03-21T13:18:15Z</time>
      </trkpt>
      <trkpt lat="43.92848" lon="1.86086">
        <ele>330.4</ele>
        <time>2021-03-21T13:18:16Z</time>
      </trkpt>
      <trkpt lat="43.92848" lon="1.86087">
        <ele>330.6</ele>
        <time>2021-03-21T13:18:17Z</time>
      </trkpt>
      <trkpt lat="43.92849" lon="1.86088">
        <ele>330.8</ele>
        <time>2021-03-21T13:18:18Z</time>
      </trkpt>
      <trkpt lat="43.92849" lon="1.86089">
        <ele>331</ele>
        <time>2021-03-21T13:18:19Z</time>
      </trkpt>
      <trkpt lat="43.92849" lon="1.86091">
        <ele>331.2</ele>
        <time>2021-03-21T13:18:20Z</time>
      </trkpt>
      <trkpt lat="43.92849" lon="1.86092">
        <ele>331.6</ele>
        <time>2021-03-21T13:18:21Z</time>
      </trkpt>
      <trkpt lat="43.92849" lon="1.86093">
        <ele>332</ele>
        <time>2021-03-21T13:18:22Z</time>
      </trkpt>
      <trkpt lat="43.92849" lon="1.86095">
        <ele>332.2</ele>
        <time>2021-03-21T13:18:23Z</time>
      </trkpt>
      <trkpt lat="43.92849" lon="1.86096">
        <ele>332.6</ele>
        <time>2021-03-21T13:18:24Z</time>
      </trkpt>
      <trkpt lat="43.92849" lon="1.86098">
        <ele>332.8</ele>
        <time>2021-03-21T13:18:25Z</time>
      </trkpt>
      <trkpt lat="43.92849" lon="1.86099">
        <ele>332.8</ele>
        <time>2021-03-21T13:18:26Z</time>
      </trkpt>
      <trkpt lat="43.92849" lon="1.861">
        <ele>333.2</ele>
        <time>2021-03-21T13:18:27Z</time>
      </trkpt>
      <trkpt lat="43.92849" lon="1.86102">
        <ele>333.4</ele>
        <time>2021-03-21T13:18:28Z</time>
      </trkpt>
      <trkpt lat="43.92849" lon="1.86103">
        <ele>333.4</ele>
        <time>2021-03-21T13:18:29Z</time>
      </trkpt>
      <trkpt lat="43.92849" lon="1.86104">
        <ele>333.8</ele>
        <time>2021-03-21T13:18:30Z</time>
      </trkpt>
      <trkpt lat="43.92849" lon="1.86106">
        <ele>334</ele>
        <time>2021-03-21T13:18:31Z</time>
      </trkpt>
      <trkpt lat="43.9285" lon="1.86107">
        <ele>334</ele>
        <time>2021-03-21T13:18:32Z</time>
      </trkpt>
      <trkpt lat="43.9285" lon="1.86108">
        <ele>334</ele>
        <time>2021-03-21T13:18:33Z</time>
      </trkpt>
      <trkpt lat="43.9285" lon="1.86109">
        <ele>334.2</ele>
        <time>2021-03-21T13:18:34Z</time>
      </trkpt>
      <trkpt lat="43.9285" lon="1.86111">
        <ele>334.2</ele>
        <time>2021-03-21T13:18:35Z</time>
      </trkpt>
      <trkpt lat="43.9285" lon="1.86112">
        <ele>334.2</ele>
        <time>2021-03-21T13:18:36Z</time>
      </trkpt>
      <trkpt lat="43.92851" lon="1.86113">
        <ele>334.4</ele>
        <time>2021-03-21T13:18:37Z</time>
      </trkpt>
      <trkpt lat="43.92851" lon="1.86115">
        <ele>334.6</ele>
        <time>2021-03-21T13:18:38Z</time>
      </trkpt>
      <trkpt lat="43.92851" lon="1.86116">
        <ele>334.6</ele>
        <time>2021-03-21T13:18:39Z</time>
      </trkpt>
      <trkpt lat="43.92851" lon="1.86117">
        <ele>334.8</ele>
        <time>2021-03-21T13:18:40Z</time>
      </trkpt>
      <trkpt lat="43.92851" lon="1.86118">
        <ele>335.2</ele>
        <time>2021-03-21T13:18:41Z</time>
      </trkpt>
      <trkpt lat="43.92851" lon="1.86119">
        <ele>335.2</ele>
        <time>2021-03-21T13:18:42Z</time>
      </trkpt>
      <trkpt lat="43.92851" lon="1.8612">
        <ele>335.6</ele>
        <time>2021-03-21T13:18:43Z</time>
      </trkpt>
      <trkpt lat="43.92852" lon="1.86121">
        <ele>335.8</ele>
        <time>2021-03-21T13:18:44Z</time>
      </trkpt>
      <trkpt lat="43.92852" lon="1.86122">
        <ele>336.2</ele>
        <time>2021-03-21T13:18:45Z</time>
      </trkpt>
      <trkpt lat="43.92852" lon="1.86124">
        <ele>336.2</ele>
        <time>2021-03-21T13:18:46Z</time>
      </trkpt>
      <trkpt lat="43.92852" lon="1.86125">
        <ele>336.2</ele>
        <time>2021-03-21T13:18:47Z</time>
      </trkpt>
      <trkpt lat="43.92852" lon="1.86126">
        <ele>336.4</ele>
        <time>2021-03-21T13:18:48Z</time>
      </trkpt>
      <trkpt lat="43.92852" lon="1.86128">
        <ele>336.6</ele>
        <time>2021-03-21T13:18:49Z</time>
      </trkpt>
      <trkpt lat="43.92853" lon="1.86129">
        <ele>336.6</ele>
        <time>2021-03-21T13:18:50Z</time>
      </trkpt>
      <trkpt lat="43.92853" lon="1.8613">
        <ele>336.6</ele>
        <time>2021-03-21T13:18:51Z</time>
      </trkpt>
      <trkpt lat="43.92853" lon="1.86132">
        <ele>336.8</ele>
        <time>2021-03-21T13:18:52Z</time>
      </trkpt>
      <trkpt lat="43.92853" lon="1.86133">
        <ele>337.2</ele>
        <time>2021-03-21T13:18:53Z</time>
      </trkpt>
      <trkpt lat="43.92853" lon="1.86135">
        <ele>337.2</ele>
        <time>2021-03-21T13:18:54Z</time>
      </trkpt>
      <trkpt lat="43.92854" lon="1.86136">
        <ele>337.6</ele>
        <time>2021-03-21T13:18:55Z</time>
      </trkpt>
      <trkpt lat="43.92854" lon="1.86137">
        <ele>337.8</ele>
        <time>2021-03-21T13:18:56Z</time>
      </trkpt>
      <trkpt lat="43.92854" lon="1.86139">
        <ele>338</ele>
        <time>2021-03-21T13:18:57Z</time>
      </trkpt>
      <trkpt lat="43.92855" lon="1.8614">
        <ele>338</ele>
        <time>2021-03-21T13:18:58Z</time>
      </trkpt>
      <trkpt lat="43.92855" lon="1.86141">
        <ele>338.2</ele>
        <time>2021-03-21T13:18:59Z</time>
      </trkpt>
      <trkpt lat="43.92855" lon="1.86143">
        <ele>338.2</ele>
        <time>2021-03-21T13:19:00Z</time>
      </trkpt>
      <trkpt lat="43.92855" lon="1.86144">
        <ele>338.4</ele>
        <time>2021-03-21T13:19:01Z</time>
      </trkpt>
      <trkpt lat="43.92856" lon="1.86146">
        <ele>338.6</ele>
        <time>2021-03-21T13:19:02Z</time>
      </trkpt>
      <trkpt lat="43.92856" lon="1.86147">
        <ele>338.8</ele>
        <time>2021-03-21T13:19:03Z</time>
      </trkpt>
      <trkpt lat="43.92856" lon="1.86149">
        <ele>339</ele>
        <time>2021-03-21T13:19:04Z</time>
      </trkpt>
      <trkpt lat="43.92857" lon="1.8615">
        <ele>339.2</ele>
        <time>2021-03-21T13:19:05Z</time>
      </trkpt>
      <trkpt lat="43.92857" lon="1.86152">
        <ele>339.2</ele>
        <time>2021-03-21T13:19:06Z</time>
      </trkpt>
      <trkpt lat="43.92857" lon="1.86153">
        <ele>339.6</ele>
        <time>2021-03-21T13:19:07Z</time>
      </trkpt>
      <trkpt lat="43.92858" lon="1.86154">
        <ele>339.8</ele>
        <time>2021-03-21T13:19:08Z</time>
      </trkpt>
      <trkpt lat="43.92858" lon="1.86156">
        <ele>340</ele>
        <time>2021-03-21T13:19:09Z</time>
      </trkpt>
      <trkpt lat="43.92859" lon="1.86157">
        <ele>340</ele>
        <time>2021-03-21T13:19:10Z</time>
      </trkpt>
      <trkpt lat="43.92859" lon="1.86159">
        <ele>340.2</ele>
        <time>2021-03-21T13:19:11Z</time>
      </trkpt>
      <trkpt lat="43.9286" lon="1.8616">
        <ele>340.2</ele>
        <time>2021-03-21T13:19:12Z</time>
      </trkpt>
      <trkpt lat="43.9286" lon="1.86162">
        <ele>340.4</ele>
        <time>2021-03-21T13:19:13Z</time>
      </trkpt>
      <trkpt lat="43.92861" lon="1.86163">
        <ele>340.4</ele>
        <time>2021-03-21T13:19:14Z</time>
      </trkpt>
      <trkpt lat="43.92861" lon="1.86164">
        <ele>340.4</ele>
        <time>2021-03-21T13:19:15Z</time>
      </trkpt>
      <trkpt lat="43.92862" lon="1.86165">
        <ele>340.6</ele>
        <time>2021-03-21T13:19:16Z</time>
      </trkpt>
      <trkpt lat="43.92863" lon="1.86167">
        <ele>340.8</ele>
        <time>2021-03-21T13:19:17Z</time>
      </trkpt>
      <trkpt lat="43.92863" lon="1.86168">
        <ele>341</ele>
        <time>2021-03-21T13:19:18Z</time>
      </trkpt>
      <trkpt lat="43.92864" lon="1.8617">
        <ele>341.4</ele>
        <time>2021-03-21T13:19:19Z</time>
      </trkpt>
      <trkpt lat="43.92864" lon="1.86171">
        <ele>341.4</ele>
        <time>2021-03-21T13:19:20Z</time>
      </trkpt>
      <trkpt lat="43.92865" lon="1.86172">
        <ele>341.6</ele>
        <time>2021-03-21T13:19:21Z</time>
      </trkpt>
      <trkpt lat="43.92866" lon="1.86174">
        <ele>341.8</ele>
        <time>2021-03-21T13:19:22Z</time>
      </trkpt>
      <trkpt lat="43.92866" lon="1.86175">
        <ele>341.6</ele>
        <time>2021-03-21T13:19:23Z</time>
      </trkpt>
      <trkpt lat="43.92867" lon="1.86176">
        <ele>341.6</ele>
        <time>2021-03-21T13:19:24Z</time>
      </trkpt>
      <trkpt lat="43.92867" lon="1.86178">
        <ele>341.8</ele>
        <time>2021-03-21T13:19:25Z</time>
      </trkpt>
      <trkpt lat="43.92868" lon="1.86179">
        <ele>341.8</ele>
        <time>2021-03-21T13:19:26Z</time>
      </trkpt>
      <trkpt lat="43.92868" lon="1.8618">
        <ele>342</ele>
        <time>2021-03-21T13:19:27Z</time>
      </trkpt>
      <trkpt lat="43.92869" lon="1.86181">
        <ele>342.4</ele>
        <time>2021-03-21T13:19:28Z</time>
      </trkpt>
      <trkpt lat="43.9287" lon="1.86182">
        <ele>342.8</ele>
        <time>2021-03-21T13:19:29Z</time>
      </trkpt>
      <trkpt lat="43.9287" lon="1.86183">
        <ele>343.2</ele>
        <time>2021-03-21T13:19:30Z</time>
      </trkpt>
      <trkpt lat="43.92871" lon="1.86185">
        <ele>343.8</ele>
        <time>2021-03-21T13:19:31Z</time>
      </trkpt>
      <trkpt lat="43.92871" lon="1.86186">
        <ele>344</ele>
        <time>2021-03-21T13:19:32Z</time>
      </trkpt>
      <trkpt lat="43.92871" lon="1.86188">
        <ele>344.2</ele>
        <time>2021-03-21T13:19:33Z</time>
      </trkpt>
      <trkpt lat="43.92872" lon="1.86189">
        <ele>344.6</ele>
        <time>2021-03-21T13:19:34Z</time>
      </trkpt>
      <trkpt lat="43.92872" lon="1.86191">
        <ele>344.6</ele>
        <time>2021-03-21T13:19:35Z</time>
      </trkpt>
      <trkpt lat="43.92873" lon="1.86192">
        <ele>345</ele>
        <time>2021-03-21T13:19:36Z</time>
      </trkpt>
      <trkpt lat="43.92874" lon="1.86193">
        <ele>345.4</ele>
        <time>2021-03-21T13:19:37Z</time>
      </trkpt>
      <trkpt lat="43.92874" lon="1.86195">
        <ele>345.8</ele>
        <time>2021-03-21T13:19:38Z</time>
      </trkpt>
      <trkpt lat="43.92875" lon="1.86196">
        <ele>346</ele>
        <time>2021-03-21T13:19:39Z</time>
      </trkpt>
      <trkpt lat="43.92875" lon="1.86198">
        <ele>346</ele>
        <time>2021-03-21T13:19:40Z</time>
      </trkpt>
      <trkpt lat="43.92876" lon="1.862">
        <ele>346.2</ele>
        <time>2021-03-21T13:19:41Z</time>
      </trkpt>
      <trkpt lat="43.92876" lon="1.86202">
        <ele>346.6</ele>
        <time>2021-03-21T13:19:42Z</time>
      </trkpt>
      <trkpt lat="43.92877" lon="1.86204">
        <ele>346.8</ele>
        <time>2021-03-21T13:19:43Z</time>
      </trkpt>
      <trkpt lat="43.92878" lon="1.86205">
        <ele>347.2</ele>
        <time>2021-03-21T13:19:44Z</time>
      </trkpt>
      <trkpt lat="43.92879" lon="1.86208">
        <ele>347.2</ele>
        <time>2021-03-21T13:19:45Z</time>
      </trkpt>
      <trkpt lat="43.92879" lon="1.8621">
        <ele>347.2</ele>
        <time>2021-03-21T13:19:46Z</time>
      </trkpt>
      <trkpt lat="43.9288" lon="1.86212">
        <ele>347.4</ele>
        <time>2021-03-21T13:19:47Z</time>
      </trkpt>
      <trkpt lat="43.92881" lon="1.86215">
        <ele>347.4</ele>
        <time>2021-03-21T13:19:48Z</time>
      </trkpt>
      <trkpt lat="43.92882" lon="1.86218">
        <ele>347.4</ele>
        <time>2021-03-21T13:19:49Z</time>
      </trkpt>
      <trkpt lat="43.92883" lon="1.86221">
        <ele>347.6</ele>
        <time>2021-03-21T13:19:50Z</time>
      </trkpt>
      <trkpt lat="43.92885" lon="1.86225">
        <ele>347.4</ele>
        <time>2021-03-21T13:19:51Z</time>
      </trkpt>
      <trkpt lat="43.92886" lon="1.86228">
        <ele>347.6</ele>
        <time>2021-03-21T13:19:52Z</time>
      </trkpt>
      <trkpt lat="43.92887" lon="1.86231">
        <ele>347.4</ele>
        <time>2021-03-21T13:19:53Z</time>
      </trkpt>
      <trkpt lat="43.92888" lon="1.86235">
        <ele>347.6</ele>
        <time>2021-03-21T13:19:54Z</time>
      </trkpt>
      <trkpt lat="43.92889" lon="1.86238">
        <ele>347.6</ele>
        <time>2021-03-21T13:19:55Z</time>
      </trkpt>
      <trkpt lat="43.92891" lon="1.86241">
        <ele>347.6</ele>
        <time>2021-03-21T13:19:56Z</time>
      </trkpt>
      <trkpt lat="43.92892" lon="1.86244">
        <ele>347.6</ele>
        <time>2021-03-21T13:19:57Z</time>
      </trkpt>
      <trkpt lat="43.92893" lon="1.86247">
        <ele>347.4</ele>
        <time>2021-03-21T13:19:58Z</time>
      </trkpt>
      <trkpt lat="43.92894" lon="1.8625">
        <ele>347.4</ele>
        <time>2021-03-21T13:19:59Z</time>
      </trkpt>
      <trkpt lat="43.92895" lon="1.86253">
        <ele>347.4</ele>
        <time>2021-03-21T13:20:00Z</time>
      </trkpt>
      <trkpt lat="43.92896" lon="1.86256">
        <ele>347.6</ele>
        <time>2021-03-21T13:20:01Z</time>
      </trkpt>
      <trkpt lat="43.92897" lon="1.86259">
        <ele>347.4</ele>
        <time>2021-03-21T13:20:02Z</time>
      </trkpt>
      <trkpt lat="43.92899" lon="1.86262">
        <ele>347.4</ele>
        <time>2021-03-21T13:20:03Z</time>
      </trkpt>
      <trkpt lat="43.929" lon="1.86265">
        <ele>347.4</ele>
        <time>2021-03-21T13:20:04Z</time>
      </trkpt>
      <trkpt lat="43.92901" lon="1.86268">
        <ele>347.6</ele>
        <time>2021-03-21T13:20:05Z</time>
      </trkpt>
      <trkpt lat="43.92902" lon="1.86271">
        <ele>347.6</ele>
        <time>2021-03-21T13:20:06Z</time>
      </trkpt>
      <trkpt lat="43.92903" lon="1.86273">
        <ele>347.6</ele>
        <time>2021-03-21T13:20:07Z</time>
      </trkpt>
      <trkpt lat="43.92905" lon="1.86276">
        <ele>347.6</ele>
        <time>2021-03-21T13:20:08Z</time>
      </trkpt>
      <trkpt lat="43.92906" lon="1.8628">
        <ele>347.6</ele>
        <time>2021-03-21T13:20:09Z</time>
      </trkpt>
      <trkpt lat="43.92908" lon="1.86283">
        <ele>347.6</ele>
        <time>2021-03-21T13:20:10Z</time>
      </trkpt>
      <trkpt lat="43.92909" lon="1.86286">
        <ele>347.6</ele>
        <time>2021-03-21T13:20:11Z</time>
      </trkpt>
      <trkpt lat="43.92911" lon="1.8629">
        <ele>347.4</ele>
        <time>2021-03-21T13:20:12Z</time>
      </trkpt>
      <trkpt lat="43.92912" lon="1.86293">
        <ele>347.4</ele>
        <time>2021-03-21T13:20:13Z</time>
      </trkpt>
      <trkpt lat="43.92914" lon="1.86296">
        <ele>347.4</ele>
        <time>2021-03-21T13:20:14Z</time>
      </trkpt>
      <trkpt lat="43.92916" lon="1.86299">
        <ele>347.4</ele>
        <time>2021-03-21T13:20:15Z</time>
      </trkpt>
      <trkpt lat="43.92917" lon="1.86302">
        <ele>347.6</ele>
        <time>2021-03-21T13:20:16Z</time>
      </trkpt>
      <trkpt lat="43.92919" lon="1.86305">
        <ele>347.4</ele>
        <time>2021-03-21T13:20:17Z</time>
      </trkpt>
      <trkpt lat="43.9292" lon="1.86309">
        <ele>347.6</ele>
        <time>2021-03-21T13:20:18Z</time>
      </trkpt>
      <trkpt lat="43.92921" lon="1.86312">
        <ele>347.6</ele>
        <time>2021-03-21T13:20:19Z</time>
      </trkpt>
      <trkpt lat="43.92923" lon="1.86315">
        <ele>347.6</ele>
        <time>2021-03-21T13:20:20Z</time>
      </trkpt>
      <trkpt lat="43.92924" lon="1.86318">
        <ele>347.4</ele>
        <time>2021-03-21T13:20:21Z</time>
      </trkpt>
      <trkpt lat="43.92925" lon="1.8632">
        <ele>347.4</ele>
        <time>2021-03-21T13:20:22Z</time>
      </trkpt>
      <trkpt lat="43.92926" lon="1.86323">
        <ele>347.4</ele>
        <time>2021-03-21T13:20:23Z</time>
      </trkpt>
      <trkpt lat="43.92927" lon="1.86326">
        <ele>347.4</ele>
        <time>2021-03-21T13:20:24Z</time>
      </trkpt>
      <trkpt lat="43.92929" lon="1.86328">
        <ele>347.4</ele>
        <time>2021-03-21T13:20:25Z</time>
      </trkpt>
      <trkpt lat="43.9293" lon="1.86331">
        <ele>347.4</ele>
        <time>2021-03-21T13:20:26Z</time>
      </trkpt>
      <trkpt lat="43.92931" lon="1.86334">
        <ele>347.4</ele>
        <time>2021-03-21T13:20:27Z</time>
      </trkpt>
      <trkpt lat="43.92932" lon="1.86336">
        <ele>347.6</ele>
        <time>2021-03-21T13:20:28Z</time>
      </trkpt>
      <trkpt lat="43.92933" lon="1.86338">
        <ele>347.8</ele>
        <time>2021-03-21T13:20:29Z</time>
      </trkpt>
      <trkpt lat="43.92934" lon="1.86341">
        <ele>347.8</ele>
        <time>2021-03-21T13:20:30Z</time>
      </trkpt>
      <trkpt lat="43.92935" lon="1.86343">
        <ele>348</ele>
        <time>2021-03-21T13:20:31Z</time>
      </trkpt>
      <trkpt lat="43.92937" lon="1.86348">
        <ele>348.6</ele>
        <time>2021-03-21T13:20:33Z</time>
      </trkpt>
      <trkpt lat="43.92938" lon="1.86351">
        <ele>348.6</ele>
        <time>2021-03-21T13:20:34Z</time>
      </trkpt>
      <trkpt lat="43.92939" lon="1.86353">
        <ele>349</ele>
        <time>2021-03-21T13:20:35Z</time>
      </trkpt>
      <trkpt lat="43.9294" lon="1.86355">
        <ele>349.2</ele>
        <time>2021-03-21T13:20:36Z</time>
      </trkpt>
      <trkpt lat="43.92941" lon="1.86358">
        <ele>349.4</ele>
        <time>2021-03-21T13:20:37Z</time>
      </trkpt>
      <trkpt lat="43.92942" lon="1.8636">
        <ele>349.8</ele>
        <time>2021-03-21T13:20:38Z</time>
      </trkpt>
      <trkpt lat="43.92943" lon="1.86363">
        <ele>350.2</ele>
        <time>2021-03-21T13:20:39Z</time>
      </trkpt>
      <trkpt lat="43.92944" lon="1.86366">
        <ele>350.4</ele>
        <time>2021-03-21T13:20:40Z</time>
      </trkpt>
      <trkpt lat="43.92944" lon="1.86368">
        <ele>350.6</ele>
        <time>2021-03-21T13:20:41Z</time>
      </trkpt>
      <trkpt lat="43.92945" lon="1.86371">
        <ele>350.8</ele>
        <time>2021-03-21T13:20:42Z</time>
      </trkpt>
      <trkpt lat="43.92946" lon="1.86374">
        <ele>350.8</ele>
        <time>2021-03-21T13:20:43Z</time>
      </trkpt>
      <trkpt lat="43.92947" lon="1.86376">
        <ele>351</ele>
        <time>2021-03-21T13:20:44Z</time>
      </trkpt>
      <trkpt lat="43.92948" lon="1.86379">
        <ele>351</ele>
        <time>2021-03-21T13:20:45Z</time>
      </trkpt>
      <trkpt lat="43.92949" lon="1.86381">
        <ele>351</ele>
        <time>2021-03-21T13:20:46Z</time>
      </trkpt>
      <trkpt lat="43.9295" lon="1.86383">
        <ele>351.4</ele>
        <time>2021-03-21T13:20:47Z</time>
      </trkpt>
      <trkpt lat="43.92952" lon="1.86384">
        <ele>351.4</ele>
        <time>2021-03-21T13:20:48Z</time>
      </trkpt>
      <trkpt lat="43.92954" lon="1.86386">
        <ele>351.8</ele>
        <time>2021-03-21T13:20:49Z</time>
      </trkpt>
      <trkpt lat="43.92956" lon="1.86387">
        <ele>351.8</ele>
        <time>2021-03-21T13:20:50Z</time>
      </trkpt>
      <trkpt lat="43.92958" lon="1.86387">
        <ele>351.8</ele>
        <time>2021-03-21T13:20:51Z</time>
      </trkpt>
      <trkpt lat="43.9296" lon="1.86388">
        <ele>352</ele>
        <time>2021-03-21T13:20:52Z</time>
      </trkpt>
      <trkpt lat="43.92962" lon="1.86388">
        <ele>352.4</ele>
        <time>2021-03-21T13:20:53Z</time>
      </trkpt>
      <trkpt lat="43.92964" lon="1.86387">
        <ele>352.6</ele>
        <time>2021-03-21T13:20:54Z</time>
      </trkpt>
      <trkpt lat="43.92966" lon="1.86387">
        <ele>352.8</ele>
        <time>2021-03-21T13:20:55Z</time>
      </trkpt>
      <trkpt lat="43.92968" lon="1.86387">
        <ele>352.8</ele>
        <time>2021-03-21T13:20:56Z</time>
      </trkpt>
      <trkpt lat="43.92969" lon="1.86387">
        <ele>353</ele>
        <time>2021-03-21T13:20:57Z</time>
      </trkpt>
      <trkpt lat="43.92971" lon="1.86387">
        <ele>353.2</ele>
        <time>2021-03-21T13:20:58Z</time>
      </trkpt>
      <trkpt lat="43.92973" lon="1.86386">
        <ele>353.6</ele>
        <time>2021-03-21T13:20:59Z</time>
      </trkpt>
      <trkpt lat="43.92975" lon="1.86386">
        <ele>353.8</ele>
        <time>2021-03-21T13:21:00Z</time>
      </trkpt>
      <trkpt lat="43.92977" lon="1.86386">
        <ele>354.2</ele>
        <time>2021-03-21T13:21:01Z</time>
      </trkpt>
      <trkpt lat="43.92979" lon="1.86385">
        <ele>354.4</ele>
        <time>2021-03-21T13:21:02Z</time>
      </trkpt>
      <trkpt lat="43.92981" lon="1.86385">
        <ele>354.4</ele>
        <time>2021-03-21T13:21:03Z</time>
      </trkpt>
      <trkpt lat="43.92983" lon="1.86384">
        <ele>354.6</ele>
        <time>2021-03-21T13:21:04Z</time>
      </trkpt>
      <trkpt lat="43.92985" lon="1.86384">
        <ele>354.6</ele>
        <time>2021-03-21T13:21:05Z</time>
      </trkpt>
      <trkpt lat="43.92987" lon="1.86383">
        <ele>355</ele>
        <time>2021-03-21T13:21:06Z</time>
      </trkpt>
      <trkpt lat="43.92989" lon="1.86382">
        <ele>355.2</ele>
        <time>2021-03-21T13:21:07Z</time>
      </trkpt>
      <trkpt lat="43.92991" lon="1.86382">
        <ele>355.4</ele>
        <time>2021-03-21T13:21:08Z</time>
      </trkpt>
      <trkpt lat="43.92993" lon="1.86382">
        <ele>355.4</ele>
        <time>2021-03-21T13:21:09Z</time>
      </trkpt>
      <trkpt lat="43.92995" lon="1.86381">
        <ele>355.6</ele>
        <time>2021-03-21T13:21:10Z</time>
      </trkpt>
      <trkpt lat="43.92997" lon="1.86381">
        <ele>355.4</ele>
        <time>2021-03-21T13:21:11Z</time>
      </trkpt>
      <trkpt lat="43.92999" lon="1.8638">
        <ele>355.6</ele>
        <time>2021-03-21T13:21:12Z</time>
      </trkpt>
      <trkpt lat="43.93001" lon="1.8638">
        <ele>355.8</ele>
        <time>2021-03-21T13:21:13Z</time>
      </trkpt>
      <trkpt lat="43.93002" lon="1.86379">
        <ele>355.6</ele>
        <time>2021-03-21T13:21:14Z</time>
      </trkpt>
      <trkpt lat="43.93004" lon="1.86378">
        <ele>355.6</ele>
        <time>2021-03-21T13:21:15Z</time>
      </trkpt>
      <trkpt lat="43.93006" lon="1.86377">
        <ele>355.8</ele>
        <time>2021-03-21T13:21:16Z</time>
      </trkpt>
      <trkpt lat="43.93008" lon="1.86376">
        <ele>356</ele>
        <time>2021-03-21T13:21:17Z</time>
      </trkpt>
      <trkpt lat="43.9301" lon="1.86375">
        <ele>356</ele>
        <time>2021-03-21T13:21:18Z</time>
      </trkpt>
      <trkpt lat="43.93012" lon="1.86374">
        <ele>356.2</ele>
        <time>2021-03-21T13:21:19Z</time>
      </trkpt>
      <trkpt lat="43.93016" lon="1.86372">
        <ele>356.2</ele>
        <time>2021-03-21T13:21:21Z</time>
      </trkpt>
      <trkpt lat="43.93018" lon="1.8637">
        <ele>356.4</ele>
        <time>2021-03-21T13:21:22Z</time>
      </trkpt>
      <trkpt lat="43.9302" lon="1.86368">
        <ele>356.2</ele>
        <time>2021-03-21T13:21:23Z</time>
      </trkpt>
      <trkpt lat="43.93022" lon="1.86366">
        <ele>356.4</ele>
        <time>2021-03-21T13:21:24Z</time>
      </trkpt>
      <trkpt lat="43.93024" lon="1.86364">
        <ele>356.4</ele>
        <time>2021-03-21T13:21:25Z</time>
      </trkpt>
      <trkpt lat="43.93026" lon="1.86361">
        <ele>356.2</ele>
        <time>2021-03-21T13:21:26Z</time>
      </trkpt>
      <trkpt lat="43.93028" lon="1.86358">
        <ele>356.4</ele>
        <time>2021-03-21T13:21:27Z</time>
      </trkpt>
      <trkpt lat="43.9303" lon="1.86355">
        <ele>356.2</ele>
        <time>2021-03-21T13:21:28Z</time>
      </trkpt>
      <trkpt lat="43.93032" lon="1.86352">
        <ele>356.2</ele>
        <time>2021-03-21T13:21:29Z</time>
      </trkpt>
      <trkpt lat="43.93035" lon="1.86345">
        <ele>356.4</ele>
        <time>2021-03-21T13:21:31Z</time>
      </trkpt>
      <trkpt lat="43.93036" lon="1.86342">
        <ele>356.2</ele>
        <time>2021-03-21T13:21:32Z</time>
      </trkpt>
      <trkpt lat="43.93038" lon="1.86338">
        <ele>356.2</ele>
        <time>2021-03-21T13:21:33Z</time>
      </trkpt>
      <trkpt lat="43.9304" lon="1.86335">
        <ele>356.2</ele>
        <time>2021-03-21T13:21:34Z</time>
      </trkpt>
      <trkpt lat="43.93041" lon="1.86331">
        <ele>356</ele>
        <time>2021-03-21T13:21:35Z</time>
      </trkpt>
      <trkpt lat="43.93043" lon="1.86327">
        <ele>356</ele>
        <time>2021-03-21T13:21:36Z</time>
      </trkpt>
      <trkpt lat="43.93044" lon="1.86324">
        <ele>356.2</ele>
        <time>2021-03-21T13:21:37Z</time>
      </trkpt>
      <trkpt lat="43.93046" lon="1.8632">
        <ele>356</ele>
        <time>2021-03-21T13:21:38Z</time>
      </trkpt>
      <trkpt lat="43.93047" lon="1.86316">
        <ele>356</ele>
        <time>2021-03-21T13:21:39Z</time>
      </trkpt>
      <trkpt lat="43.93049" lon="1.86313">
        <ele>355.6</ele>
        <time>2021-03-21T13:21:40Z</time>
      </trkpt>
      <trkpt lat="43.9305" lon="1.86309">
        <ele>355.2</ele>
        <time>2021-03-21T13:21:41Z</time>
      </trkpt>
      <trkpt lat="43.93052" lon="1.86306">
        <ele>355</ele>
        <time>2021-03-21T13:21:42Z</time>
      </trkpt>
      <trkpt lat="43.93053" lon="1.86303">
        <ele>354.8</ele>
        <time>2021-03-21T13:21:43Z</time>
      </trkpt>
      <trkpt lat="43.93055" lon="1.86299">
        <ele>354.8</ele>
        <time>2021-03-21T13:21:44Z</time>
      </trkpt>
      <trkpt lat="43.93057" lon="1.86296">
        <ele>354.8</ele>
        <time>2021-03-21T13:21:45Z</time>
      </trkpt>
      <trkpt lat="43.93058" lon="1.86293">
        <ele>354.6</ele>
        <time>2021-03-21T13:21:46Z</time>
      </trkpt>
      <trkpt lat="43.9306" lon="1.86289">
        <ele>354.8</ele>
        <time>2021-03-21T13:21:47Z</time>
      </trkpt>
      <trkpt lat="43.93061" lon="1.86285">
        <ele>354.8</ele>
        <time>2021-03-21T13:21:48Z</time>
      </trkpt>
      <trkpt lat="43.93063" lon="1.86281">
        <ele>354.8</ele>
        <time>2021-03-21T13:21:49Z</time>
      </trkpt>
      <trkpt lat="43.93065" lon="1.86277">
        <ele>354.6</ele>
        <time>2021-03-21T13:21:50Z</time>
      </trkpt>
      <trkpt lat="43.93066" lon="1.86274">
        <ele>354.8</ele>
        <time>2021-03-21T13:21:51Z</time>
      </trkpt>
      <trkpt lat="43.93068" lon="1.8627">
        <ele>355</ele>
        <time>2021-03-21T13:21:52Z</time>
      </trkpt>
      <trkpt lat="43.93071" lon="1.86262">
        <ele>355.2</ele>
        <time>2021-03-21T13:21:54Z</time>
      </trkpt>
      <trkpt lat="43.93072" lon="1.86258">
        <ele>355</ele>
        <time>2021-03-21T13:21:55Z</time>
      </trkpt>
      <trkpt lat="43.93073" lon="1.86254">
        <ele>355.2</ele>
        <time>2021-03-21T13:21:56Z</time>
      </trkpt>
      <trkpt lat="43.93074" lon="1.86249">
        <ele>355.2</ele>
        <time>2021-03-21T13:21:57Z</time>
      </trkpt>
      <trkpt lat="43.93075" lon="1.86245">
        <ele>355.2</ele>
        <time>2021-03-21T13:21:58Z</time>
      </trkpt>
      <trkpt lat="43.93076" lon="1.86241">
        <ele>355.2</ele>
        <time>2021-03-21T13:21:59Z</time>
      </trkpt>
      <trkpt lat="43.93077" lon="1.86236">
        <ele>355.4</ele>
        <time>2021-03-21T13:22:00Z</time>
      </trkpt>
      <trkpt lat="43.93078" lon="1.86232">
        <ele>355.4</ele>
        <time>2021-03-21T13:22:01Z</time>
      </trkpt>
      <trkpt lat="43.93079" lon="1.86228">
        <ele>355.6</ele>
        <time>2021-03-21T13:22:02Z</time>
      </trkpt>
      <trkpt lat="43.9308" lon="1.86223">
        <ele>355.4</ele>
        <time>2021-03-21T13:22:03Z</time>
      </trkpt>
      <trkpt lat="43.93081" lon="1.86219">
        <ele>355.4</ele>
        <time>2021-03-21T13:22:04Z</time>
      </trkpt>
      <trkpt lat="43.93081" lon="1.86215">
        <ele>355.4</ele>
        <time>2021-03-21T13:22:05Z</time>
      </trkpt>
      <trkpt lat="43.93082" lon="1.8621">
        <ele>355.4</ele>
        <time>2021-03-21T13:22:06Z</time>
      </trkpt>
      <trkpt lat="43.93083" lon="1.86206">
        <ele>355.4</ele>
        <time>2021-03-21T13:22:07Z</time>
      </trkpt>
      <trkpt lat="43.93084" lon="1.86202">
        <ele>355.6</ele>
        <time>2021-03-21T13:22:08Z</time>
      </trkpt>
      <trkpt lat="43.93085" lon="1.86198">
        <ele>355.6</ele>
        <time>2021-03-21T13:22:09Z</time>
      </trkpt>
      <trkpt lat="43.93086" lon="1.86193">
        <ele>355.6</ele>
        <time>2021-03-21T13:22:10Z</time>
      </trkpt>
      <trkpt lat="43.93087" lon="1.8619">
        <ele>355.4</ele>
        <time>2021-03-21T13:22:11Z</time>
      </trkpt>
      <trkpt lat="43.93089" lon="1.86186">
        <ele>355.6</ele>
        <time>2021-03-21T13:22:12Z</time>
      </trkpt>
      <trkpt lat="43.9309" lon="1.86182">
        <ele>355.4</ele>
        <time>2021-03-21T13:22:13Z</time>
      </trkpt>
      <trkpt lat="43.93092" lon="1.86179">
        <ele>355.6</ele>
        <time>2021-03-21T13:22:14Z</time>
      </trkpt>
      <trkpt lat="43.93093" lon="1.86175">
        <ele>355.6</ele>
        <time>2021-03-21T13:22:15Z</time>
      </trkpt>
      <trkpt lat="43.93094" lon="1.86172">
        <ele>355.6</ele>
        <time>2021-03-21T13:22:16Z</time>
      </trkpt>
      <trkpt lat="43.93095" lon="1.86169">
        <ele>355.8</ele>
        <time>2021-03-21T13:22:17Z</time>
      </trkpt>
      <trkpt lat="43.93097" lon="1.86166">
        <ele>355.6</ele>
        <time>2021-03-21T13:22:18Z</time>
      </trkpt>
      <trkpt lat="43.93098" lon="1.86164">
        <ele>355.8</ele>
        <time>2021-03-21T13:22:19Z</time>
      </trkpt>
      <trkpt lat="43.93099" lon="1.86161">
        <ele>355.8</ele>
        <time>2021-03-21T13:22:20Z</time>
      </trkpt>
      <trkpt lat="43.931" lon="1.86159">
        <ele>355.8</ele>
        <time>2021-03-21T13:22:21Z</time>
      </trkpt>
      <trkpt lat="43.93102" lon="1.86158">
        <ele>356</ele>
        <time>2021-03-21T13:22:22Z</time>
      </trkpt>
      <trkpt lat="43.93103" lon="1.86156">
        <ele>356</ele>
        <time>2021-03-21T13:22:23Z</time>
      </trkpt>
      <trkpt lat="43.93105" lon="1.86155">
        <ele>356</ele>
        <time>2021-03-21T13:22:24Z</time>
      </trkpt>
      <trkpt lat="43.93107" lon="1.86155">
        <ele>356.2</ele>
        <time>2021-03-21T13:22:25Z</time>
      </trkpt>
      <trkpt lat="43.93109" lon="1.86155">
        <ele>356.4</ele>
        <time>2021-03-21T13:22:26Z</time>
      </trkpt>
      <trkpt lat="43.93111" lon="1.86153">
        <ele>356.6</ele>
        <time>2021-03-21T13:22:27Z</time>
      </trkpt>
      <trkpt lat="43.93114" lon="1.8615">
        <ele>356.8</ele>
        <time>2021-03-21T13:22:29Z</time>
      </trkpt>
      <trkpt lat="43.93116" lon="1.86148">
        <ele>356.8</ele>
        <time>2021-03-21T13:22:30Z</time>
      </trkpt>
      <trkpt lat="43.93117" lon="1.86146">
        <ele>356.8</ele>
        <time>2021-03-21T13:22:31Z</time>
      </trkpt>
      <trkpt lat="43.93119" lon="1.86144">
        <ele>357.2</ele>
        <time>2021-03-21T13:22:32Z</time>
      </trkpt>
      <trkpt lat="43.93121" lon="1.86142">
        <ele>357.2</ele>
        <time>2021-03-21T13:22:33Z</time>
      </trkpt>
      <trkpt lat="43.93122" lon="1.8614">
        <ele>357.4</ele>
        <time>2021-03-21T13:22:34Z</time>
      </trkpt>
      <trkpt lat="43.93124" lon="1.86138">
        <ele>357.4</ele>
        <time>2021-03-21T13:22:35Z</time>
      </trkpt>
      <trkpt lat="43.93125" lon="1.86136">
        <ele>357.6</ele>
        <time>2021-03-21T13:22:36Z</time>
      </trkpt>
      <trkpt lat="43.93127" lon="1.86133">
        <ele>357.6</ele>
        <time>2021-03-21T13:22:37Z</time>
      </trkpt>
      <trkpt lat="43.93128" lon="1.86131">
        <ele>357.8</ele>
        <time>2021-03-21T13:22:38Z</time>
      </trkpt>
      <trkpt lat="43.93129" lon="1.86128">
        <ele>358</ele>
        <time>2021-03-21T13:22:39Z</time>
      </trkpt>
      <trkpt lat="43.9313" lon="1.86125">
        <ele>358.2</ele>
        <time>2021-03-21T13:22:40Z</time>
      </trkpt>
      <trkpt lat="43.93132" lon="1.86122">
        <ele>358.2</ele>
        <time>2021-03-21T13:22:41Z</time>
      </trkpt>
      <trkpt lat="43.93133" lon="1.8612">
        <ele>358.4</ele>
        <time>2021-03-21T13:22:42Z</time>
      </trkpt>
      <trkpt lat="43.93135" lon="1.86117">
        <ele>358.6</ele>
        <time>2021-03-21T13:22:43Z</time>
      </trkpt>
      <trkpt lat="43.93136" lon="1.86114">
        <ele>358.6</ele>
        <time>2021-03-21T13:22:44Z</time>
      </trkpt>
      <trkpt lat="43.93138" lon="1.86112">
        <ele>358.8</ele>
        <time>2021-03-21T13:22:45Z</time>
      </trkpt>
      <trkpt lat="43.93139" lon="1.86109">
        <ele>359</ele>
        <time>2021-03-21T13:22:46Z</time>
      </trkpt>
      <trkpt lat="43.9314" lon="1.86106">
        <ele>359.2</ele>
        <time>2021-03-21T13:22:47Z</time>
      </trkpt>
      <trkpt lat="43.93142" lon="1.86103">
        <ele>359.8</ele>
        <time>2021-03-21T13:22:48Z</time>
      </trkpt>
      <trkpt lat="43.93143" lon="1.861">
        <ele>360.2</ele>
        <time>2021-03-21T13:22:49Z</time>
      </trkpt>
      <trkpt lat="43.93144" lon="1.86097">
        <ele>360.2</ele>
        <time>2021-03-21T13:22:50Z</time>
      </trkpt>
      <trkpt lat="43.93145" lon="1.86094">
        <ele>360.4</ele>
        <time>2021-03-21T13:22:51Z</time>
      </trkpt>
      <trkpt lat="43.93146" lon="1.86091">
        <ele>360.4</ele>
        <time>2021-03-21T13:22:52Z</time>
      </trkpt>
      <trkpt lat="43.93147" lon="1.86087">
        <ele>360.8</ele>
        <time>2021-03-21T13:22:53Z</time>
      </trkpt>
      <trkpt lat="43.93148" lon="1.86084">
        <ele>360.6</ele>
        <time>2021-03-21T13:22:54Z</time>
      </trkpt>
      <trkpt lat="43.93149" lon="1.86081">
        <ele>360.8</ele>
        <time>2021-03-21T13:22:55Z</time>
      </trkpt>
      <trkpt lat="43.9315" lon="1.86078">
        <ele>361</ele>
        <time>2021-03-21T13:22:56Z</time>
      </trkpt>
      <trkpt lat="43.93151" lon="1.86074">
        <ele>361</ele>
        <time>2021-03-21T13:22:57Z</time>
      </trkpt>
      <trkpt lat="43.93151" lon="1.86071">
        <ele>361.2</ele>
        <time>2021-03-21T13:22:58Z</time>
      </trkpt>
      <trkpt lat="43.93152" lon="1.86068">
        <ele>361.2</ele>
        <time>2021-03-21T13:22:59Z</time>
      </trkpt>
      <trkpt lat="43.93153" lon="1.86064">
        <ele>361.4</ele>
        <time>2021-03-21T13:23:00Z</time>
      </trkpt>
      <trkpt lat="43.93153" lon="1.86061">
        <ele>361.6</ele>
        <time>2021-03-21T13:23:01Z</time>
      </trkpt>
      <trkpt lat="43.93154" lon="1.86057">
        <ele>362</ele>
        <time>2021-03-21T13:23:02Z</time>
      </trkpt>
      <trkpt lat="43.93154" lon="1.86054">
        <ele>362</ele>
        <time>2021-03-21T13:23:03Z</time>
      </trkpt>
      <trkpt lat="43.93155" lon="1.8605">
        <ele>362</ele>
        <time>2021-03-21T13:23:04Z</time>
      </trkpt>
      <trkpt lat="43.93156" lon="1.86046">
        <ele>362.4</ele>
        <time>2021-03-21T13:23:05Z</time>
      </trkpt>
      <trkpt lat="43.93157" lon="1.86043">
        <ele>362.4</ele>
        <time>2021-03-21T13:23:06Z</time>
      </trkpt>
      <trkpt lat="43.93157" lon="1.86039">
        <ele>362.6</ele>
        <time>2021-03-21T13:23:07Z</time>
      </trkpt>
      <trkpt lat="43.93158" lon="1.86035">
        <ele>363</ele>
        <time>2021-03-21T13:23:08Z</time>
      </trkpt>
      <trkpt lat="43.93158" lon="1.86031">
        <ele>363.4</ele>
        <time>2021-03-21T13:23:09Z</time>
      </trkpt>
      <trkpt lat="43.93159" lon="1.86027">
        <ele>363.6</ele>
        <time>2021-03-21T13:23:10Z</time>
      </trkpt>
      <trkpt lat="43.93159" lon="1.86024">
        <ele>363.8</ele>
        <time>2021-03-21T13:23:11Z</time>
      </trkpt>
      <trkpt lat="43.9316" lon="1.8602">
        <ele>364</ele>
        <time>2021-03-21T13:23:12Z</time>
      </trkpt>
      <trkpt lat="43.9316" lon="1.86016">
        <ele>364</ele>
        <time>2021-03-21T13:23:13Z</time>
      </trkpt>
      <trkpt lat="43.9316" lon="1.86011">
        <ele>364</ele>
        <time>2021-03-21T13:23:14Z</time>
      </trkpt>
      <trkpt lat="43.93161" lon="1.86007">
        <ele>364</ele>
        <time>2021-03-21T13:23:15Z</time>
      </trkpt>
      <trkpt lat="43.93161" lon="1.86002">
        <ele>364</ele>
        <time>2021-03-21T13:23:16Z</time>
      </trkpt>
      <trkpt lat="43.93162" lon="1.85998">
        <ele>364.2</ele>
        <time>2021-03-21T13:23:17Z</time>
      </trkpt>
      <trkpt lat="43.93162" lon="1.85993">
        <ele>364.2</ele>
        <time>2021-03-21T13:23:18Z</time>
      </trkpt>
      <trkpt lat="43.93163" lon="1.85988">
        <ele>364.2</ele>
        <time>2021-03-21T13:23:19Z</time>
      </trkpt>
      <trkpt lat="43.93164" lon="1.85978">
        <ele>364.2</ele>
        <time>2021-03-21T13:23:21Z</time>
      </trkpt>
      <trkpt lat="43.93165" lon="1.85973">
        <ele>364.4</ele>
        <time>2021-03-21T13:23:22Z</time>
      </trkpt>
      <trkpt lat="43.93166" lon="1.85962">
        <ele>364.2</ele>
        <time>2021-03-21T13:23:24Z</time>
      </trkpt>
      <trkpt lat="43.93166" lon="1.85957">
        <ele>364.2</ele>
        <time>2021-03-21T13:23:25Z</time>
      </trkpt>
      <trkpt lat="43.93167" lon="1.85951">
        <ele>364</ele>
        <time>2021-03-21T13:23:26Z</time>
      </trkpt>
      <trkpt lat="43.93168" lon="1.85946">
        <ele>364.2</ele>
        <time>2021-03-21T13:23:27Z</time>
      </trkpt>
      <trkpt lat="43.93168" lon="1.85941">
        <ele>364</ele>
        <time>2021-03-21T13:23:28Z</time>
      </trkpt>
      <trkpt lat="43.93169" lon="1.85936">
        <ele>364.2</ele>
        <time>2021-03-21T13:23:29Z</time>
      </trkpt>
      <trkpt lat="43.93169" lon="1.85931">
        <ele>364</ele>
        <time>2021-03-21T13:23:30Z</time>
      </trkpt>
      <trkpt lat="43.9317" lon="1.85927">
        <ele>364</ele>
        <time>2021-03-21T13:23:31Z</time>
      </trkpt>
      <trkpt lat="43.9317" lon="1.85922">
        <ele>364</ele>
        <time>2021-03-21T13:23:32Z</time>
      </trkpt>
      <trkpt lat="43.93171" lon="1.85912">
        <ele>364</ele>
        <time>2021-03-21T13:23:34Z</time>
      </trkpt>
      <trkpt lat="43.93171" lon="1.85906">
        <ele>364</ele>
        <time>2021-03-21T13:23:35Z</time>
      </trkpt>
      <trkpt lat="43.93171" lon="1.85901">
        <ele>364</ele>
        <time>2021-03-21T13:23:36Z</time>
      </trkpt>
      <trkpt lat="43.93171" lon="1.85896">
        <ele>364</ele>
        <time>2021-03-21T13:23:37Z</time>
      </trkpt>
      <trkpt lat="43.9317" lon="1.85891">
        <ele>364.4</ele>
        <time>2021-03-21T13:23:38Z</time>
      </trkpt>
      <trkpt lat="43.9317" lon="1.85886">
        <ele>364.2</ele>
        <time>2021-03-21T13:23:39Z</time>
      </trkpt>
      <trkpt lat="43.93168" lon="1.85875">
        <ele>364.6</ele>
        <time>2021-03-21T13:23:41Z</time>
      </trkpt>
      <trkpt lat="43.93166" lon="1.85869">
        <ele>364.6</ele>
        <time>2021-03-21T13:23:42Z</time>
      </trkpt>
      <trkpt lat="43.93165" lon="1.85864">
        <ele>365</ele>
        <time>2021-03-21T13:23:43Z</time>
      </trkpt>
      <trkpt lat="43.93164" lon="1.85859">
        <ele>365</ele>
        <time>2021-03-21T13:23:44Z</time>
      </trkpt>
      <trkpt lat="43.93162" lon="1.85854">
        <ele>365.2</ele>
        <time>2021-03-21T13:23:45Z</time>
      </trkpt>
      <trkpt lat="43.93161" lon="1.8585">
        <ele>365.4</ele>
        <time>2021-03-21T13:23:46Z</time>
      </trkpt>
      <trkpt lat="43.93159" lon="1.85846">
        <ele>365.8</ele>
        <time>2021-03-21T13:23:47Z</time>
      </trkpt>
      <trkpt lat="43.93157" lon="1.85842">
        <ele>366</ele>
        <time>2021-03-21T13:23:48Z</time>
      </trkpt>
      <trkpt lat="43.93155" lon="1.85837">
        <ele>366.2</ele>
        <time>2021-03-21T13:23:49Z</time>
      </trkpt>
      <trkpt lat="43.93153" lon="1.85833">
        <ele>366.4</ele>
        <time>2021-03-21T13:23:50Z</time>
      </trkpt>
      <trkpt lat="43.93152" lon="1.85828">
        <ele>366.8</ele>
        <time>2021-03-21T13:23:51Z</time>
      </trkpt>
      <trkpt lat="43.9315" lon="1.85824">
        <ele>366.8</ele>
        <time>2021-03-21T13:23:52Z</time>
      </trkpt>
      <trkpt lat="43.93148" lon="1.85819">
        <ele>366.8</ele>
        <time>2021-03-21T13:23:53Z</time>
      </trkpt>
      <trkpt lat="43.93146" lon="1.85814">
        <ele>366.8</ele>
        <time>2021-03-21T13:23:54Z</time>
      </trkpt>
      <trkpt lat="43.93145" lon="1.85809">
        <ele>366.8</ele>
        <time>2021-03-21T13:23:55Z</time>
      </trkpt>
      <trkpt lat="43.93143" lon="1.85804">
        <ele>366.8</ele>
        <time>2021-03-21T13:23:56Z</time>
      </trkpt>
      <trkpt lat="43.93142" lon="1.85799">
        <ele>366.8</ele>
        <time>2021-03-21T13:23:57Z</time>
      </trkpt>
      <trkpt lat="43.93141" lon="1.85794">
        <ele>367</ele>
        <time>2021-03-21T13:23:58Z</time>
      </trkpt>
      <trkpt lat="43.9314" lon="1.85788">
        <ele>367</ele>
        <time>2021-03-21T13:23:59Z</time>
      </trkpt>
      <trkpt lat="43.9314" lon="1.85783">
        <ele>367</ele>
        <time>2021-03-21T13:24:00Z</time>
      </trkpt>
      <trkpt lat="43.93139" lon="1.85778">
        <ele>367</ele>
        <time>2021-03-21T13:24:01Z</time>
      </trkpt>
      <trkpt lat="43.93138" lon="1.85773">
        <ele>367</ele>
        <time>2021-03-21T13:24:02Z</time>
      </trkpt>
      <trkpt lat="43.93138" lon="1.85768">
        <ele>367.2</ele>
        <time>2021-03-21T13:24:03Z</time>
      </trkpt>
      <trkpt lat="43.93138" lon="1.85763">
        <ele>367.2</ele>
        <time>2021-03-21T13:24:04Z</time>
      </trkpt>
      <trkpt lat="43.93138" lon="1.85758">
        <ele>367.2</ele>
        <time>2021-03-21T13:24:05Z</time>
      </trkpt>
      <trkpt lat="43.93138" lon="1.85753">
        <ele>367.4</ele>
        <time>2021-03-21T13:24:06Z</time>
      </trkpt>
      <trkpt lat="43.93139" lon="1.85748">
        <ele>367.8</ele>
        <time>2021-03-21T13:24:07Z</time>
      </trkpt>
      <trkpt lat="43.9314" lon="1.85743">
        <ele>368</ele>
        <time>2021-03-21T13:24:08Z</time>
      </trkpt>
      <trkpt lat="43.93141" lon="1.85738">
        <ele>368.4</ele>
        <time>2021-03-21T13:24:09Z</time>
      </trkpt>
      <trkpt lat="43.93142" lon="1.85733">
        <ele>368.8</ele>
        <time>2021-03-21T13:24:10Z</time>
      </trkpt>
      <trkpt lat="43.93143" lon="1.85729">
        <ele>369</ele>
        <time>2021-03-21T13:24:11Z</time>
      </trkpt>
      <trkpt lat="43.93145" lon="1.85725">
        <ele>369.2</ele>
        <time>2021-03-21T13:24:12Z</time>
      </trkpt>
      <trkpt lat="43.93146" lon="1.85721">
        <ele>369.2</ele>
        <time>2021-03-21T13:24:13Z</time>
      </trkpt>
      <trkpt lat="43.93148" lon="1.85716">
        <ele>369.6</ele>
        <time>2021-03-21T13:24:14Z</time>
      </trkpt>
      <trkpt lat="43.9315" lon="1.85713">
        <ele>369.6</ele>
        <time>2021-03-21T13:24:15Z</time>
      </trkpt>
      <trkpt lat="43.93152" lon="1.85709">
        <ele>369.6</ele>
        <time>2021-03-21T13:24:16Z</time>
      </trkpt>
      <trkpt lat="43.93154" lon="1.85706">
        <ele>369.8</ele>
        <time>2021-03-21T13:24:17Z</time>
      </trkpt>
      <trkpt lat="43.93157" lon="1.85702">
        <ele>370</ele>
        <time>2021-03-21T13:24:18Z</time>
      </trkpt>
      <trkpt lat="43.93159" lon="1.85699">
        <ele>370.2</ele>
        <time>2021-03-21T13:24:19Z</time>
      </trkpt>
      <trkpt lat="43.93161" lon="1.85696">
        <ele>370.2</ele>
        <time>2021-03-21T13:24:20Z</time>
      </trkpt>
      <trkpt lat="43.93164" lon="1.85692">
        <ele>370.2</ele>
        <time>2021-03-21T13:24:21Z</time>
      </trkpt>
      <trkpt lat="43.93167" lon="1.85689">
        <ele>370.2</ele>
        <time>2021-03-21T13:24:22Z</time>
      </trkpt>
      <trkpt lat="43.93169" lon="1.85686">
        <ele>370.4</ele>
        <time>2021-03-21T13:24:23Z</time>
      </trkpt>
      <trkpt lat="43.93172" lon="1.85683">
        <ele>370.6</ele>
        <time>2021-03-21T13:24:24Z</time>
      </trkpt>
      <trkpt lat="43.93175" lon="1.85679">
        <ele>370.6</ele>
        <time>2021-03-21T13:24:25Z</time>
      </trkpt>
      <trkpt lat="43.93177" lon="1.85675">
        <ele>370.8</ele>
        <time>2021-03-21T13:24:26Z</time>
      </trkpt>
      <trkpt lat="43.9318" lon="1.85671">
        <ele>371</ele>
        <time>2021-03-21T13:24:27Z</time>
      </trkpt>
      <trkpt lat="43.93182" lon="1.85668">
        <ele>370.8</ele>
        <time>2021-03-21T13:24:28Z</time>
      </trkpt>
      <trkpt lat="43.93185" lon="1.85664">
        <ele>371.2</ele>
        <time>2021-03-21T13:24:29Z</time>
      </trkpt>
      <trkpt lat="43.93187" lon="1.8566">
        <ele>371.2</ele>
        <time>2021-03-21T13:24:30Z</time>
      </trkpt>
      <trkpt lat="43.9319" lon="1.85657">
        <ele>371.2</ele>
        <time>2021-03-21T13:24:31Z</time>
      </trkpt>
      <trkpt lat="43.93193" lon="1.85653">
        <ele>371.2</ele>
        <time>2021-03-21T13:24:32Z</time>
      </trkpt>
      <trkpt lat="43.93195" lon="1.8565">
        <ele>371</ele>
        <time>2021-03-21T13:24:33Z</time>
      </trkpt>
      <trkpt lat="43.93198" lon="1.85647">
        <ele>371.2</ele>
        <time>2021-03-21T13:24:34Z</time>
      </trkpt>
      <trkpt lat="43.93201" lon="1.85643">
        <ele>371.2</ele>
        <time>2021-03-21T13:24:35Z</time>
      </trkpt>
      <trkpt lat="43.93204" lon="1.85641">
        <ele>371.4</ele>
        <time>2021-03-21T13:24:36Z</time>
      </trkpt>
      <trkpt lat="43.93206" lon="1.85638">
        <ele>371.4</ele>
        <time>2021-03-21T13:24:37Z</time>
      </trkpt>
      <trkpt lat="43.93209" lon="1.85634">
        <ele>371.4</ele>
        <time>2021-03-21T13:24:38Z</time>
      </trkpt>
      <trkpt lat="43.93212" lon="1.85631">
        <ele>371.6</ele>
        <time>2021-03-21T13:24:39Z</time>
      </trkpt>
      <trkpt lat="43.93215" lon="1.85628">
        <ele>371.6</ele>
        <time>2021-03-21T13:24:40Z</time>
      </trkpt>
      <trkpt lat="43.93217" lon="1.85624">
        <ele>371.6</ele>
        <time>2021-03-21T13:24:41Z</time>
      </trkpt>
      <trkpt lat="43.9322" lon="1.8562">
        <ele>371.6</ele>
        <time>2021-03-21T13:24:42Z</time>
      </trkpt>
      <trkpt lat="43.93222" lon="1.85617">
        <ele>371.4</ele>
        <time>2021-03-21T13:24:43Z</time>
      </trkpt>
      <trkpt lat="43.93224" lon="1.85613">
        <ele>371.6</ele>
        <time>2021-03-21T13:24:44Z</time>
      </trkpt>
      <trkpt lat="43.93227" lon="1.85609">
        <ele>371.6</ele>
        <time>2021-03-21T13:24:45Z</time>
      </trkpt>
      <trkpt lat="43.93229" lon="1.85604">
        <ele>371.4</ele>
        <time>2021-03-21T13:24:46Z</time>
      </trkpt>
      <trkpt lat="43.9323" lon="1.856">
        <ele>371.4</ele>
        <time>2021-03-21T13:24:47Z</time>
      </trkpt>
      <trkpt lat="43.93232" lon="1.85595">
        <ele>371.6</ele>
        <time>2021-03-21T13:24:48Z</time>
      </trkpt>
      <trkpt lat="43.93233" lon="1.85591">
        <ele>371.8</ele>
        <time>2021-03-21T13:24:49Z</time>
      </trkpt>
      <trkpt lat="43.93235" lon="1.85588">
        <ele>372</ele>
        <time>2021-03-21T13:24:50Z</time>
      </trkpt>
      <trkpt lat="43.93237" lon="1.85584">
        <ele>372.4</ele>
        <time>2021-03-21T13:24:51Z</time>
      </trkpt>
      <trkpt lat="43.93238" lon="1.85581">
        <ele>372.4</ele>
        <time>2021-03-21T13:24:52Z</time>
      </trkpt>
      <trkpt lat="43.9324" lon="1.85578">
        <ele>372.6</ele>
        <time>2021-03-21T13:24:53Z</time>
      </trkpt>
      <trkpt lat="43.93243" lon="1.85576">
        <ele>372.6</ele>
        <time>2021-03-21T13:24:54Z</time>
      </trkpt>
      <trkpt lat="43.93246" lon="1.85574">
        <ele>372.6</ele>
        <time>2021-03-21T13:24:55Z</time>
      </trkpt>
      <trkpt lat="43.93248" lon="1.85574">
        <ele>373</ele>
        <time>2021-03-21T13:24:56Z</time>
      </trkpt>
      <trkpt lat="43.93251" lon="1.85574">
        <ele>373.2</ele>
        <time>2021-03-21T13:24:57Z</time>
      </trkpt>
      <trkpt lat="43.93254" lon="1.85575">
        <ele>373.2</ele>
        <time>2021-03-21T13:24:58Z</time>
      </trkpt>
      <trkpt lat="43.93257" lon="1.85576">
        <ele>373.2</ele>
        <time>2021-03-21T13:24:59Z</time>
      </trkpt>
      <trkpt lat="43.93259" lon="1.85579">
        <ele>373.4</ele>
        <time>2021-03-21T13:25:00Z</time>
      </trkpt>
      <trkpt lat="43.93262" lon="1.85582">
        <ele>373.4</ele>
        <time>2021-03-21T13:25:01Z</time>
      </trkpt>
      <trkpt lat="43.93264" lon="1.85585">
        <ele>373.4</ele>
        <time>2021-03-21T13:25:02Z</time>
      </trkpt>
      <trkpt lat="43.93265" lon="1.85588">
        <ele>373.4</ele>
        <time>2021-03-21T13:25:03Z</time>
      </trkpt>
      <trkpt lat="43.93267" lon="1.85592">
        <ele>373.4</ele>
        <time>2021-03-21T13:25:04Z</time>
      </trkpt>
      <trkpt lat="43.93268" lon="1.85596">
        <ele>373.4</ele>
        <time>2021-03-21T13:25:05Z</time>
      </trkpt>
      <trkpt lat="43.9327" lon="1.85599">
        <ele>373.6</ele>
        <time>2021-03-21T13:25:06Z</time>
      </trkpt>
      <trkpt lat="43.93272" lon="1.85603">
        <ele>373.6</ele>
        <time>2021-03-21T13:25:07Z</time>
      </trkpt>
      <trkpt lat="43.93274" lon="1.85606">
        <ele>373.8</ele>
        <time>2021-03-21T13:25:08Z</time>
      </trkpt>
      <trkpt lat="43.93275" lon="1.8561">
        <ele>373.6</ele>
        <time>2021-03-21T13:25:09Z</time>
      </trkpt>
      <trkpt lat="43.93276" lon="1.85613">
        <ele>373.6</ele>
        <time>2021-03-21T13:25:10Z</time>
      </trkpt>
      <trkpt lat="43.93278" lon="1.85616">
        <ele>373.6</ele>
        <time>2021-03-21T13:25:11Z</time>
      </trkpt>
      <trkpt lat="43.93279" lon="1.85619">
        <ele>373.6</ele>
        <time>2021-03-21T13:25:12Z</time>
      </trkpt>
      <trkpt lat="43.9328" lon="1.85621">
        <ele>373.8</ele>
        <time>2021-03-21T13:25:13Z</time>
      </trkpt>
      <trkpt lat="43.93281" lon="1.85624">
        <ele>374</ele>
        <time>2021-03-21T13:25:14Z</time>
      </trkpt>
      <trkpt lat="43.93282" lon="1.85627">
        <ele>373.8</ele>
        <time>2021-03-21T13:25:15Z</time>
      </trkpt>
      <trkpt lat="43.93283" lon="1.85631">
        <ele>373.8</ele>
        <time>2021-03-21T13:25:16Z</time>
      </trkpt>
      <trkpt lat="43.93284" lon="1.85636">
        <ele>373.8</ele>
        <time>2021-03-21T13:25:17Z</time>
      </trkpt>
      <trkpt lat="43.93285" lon="1.8564">
        <ele>374</ele>
        <time>2021-03-21T13:25:18Z</time>
      </trkpt>
      <trkpt lat="43.93285" lon="1.85645">
        <ele>374</ele>
        <time>2021-03-21T13:25:19Z</time>
      </trkpt>
      <trkpt lat="43.93286" lon="1.85651">
        <ele>374</ele>
        <time>2021-03-21T13:25:20Z</time>
      </trkpt>
      <trkpt lat="43.93287" lon="1.85656">
        <ele>373.8</ele>
        <time>2021-03-21T13:25:21Z</time>
      </trkpt>
      <trkpt lat="43.93288" lon="1.85662">
        <ele>373.8</ele>
        <time>2021-03-21T13:25:22Z</time>
      </trkpt>
      <trkpt lat="43.93289" lon="1.85668">
        <ele>373.8</ele>
        <time>2021-03-21T13:25:23Z</time>
      </trkpt>
      <trkpt lat="43.9329" lon="1.85674">
        <ele>374</ele>
        <time>2021-03-21T13:25:24Z</time>
      </trkpt>
      <trkpt lat="43.93291" lon="1.85681">
        <ele>373.6</ele>
        <time>2021-03-21T13:25:25Z</time>
      </trkpt>
      <trkpt lat="43.93292" lon="1.85688">
        <ele>373.6</ele>
        <time>2021-03-21T13:25:26Z</time>
      </trkpt>
      <trkpt lat="43.93293" lon="1.85695">
        <ele>373.6</ele>
        <time>2021-03-21T13:25:27Z</time>
      </trkpt>
      <trkpt lat="43.93295" lon="1.85702">
        <ele>373.2</ele>
        <time>2021-03-21T13:25:28Z</time>
      </trkpt>
      <trkpt lat="43.93296" lon="1.85708">
        <ele>373</ele>
        <time>2021-03-21T13:25:29Z</time>
      </trkpt>
      <trkpt lat="43.93298" lon="1.85715">
        <ele>372.8</ele>
        <time>2021-03-21T13:25:30Z</time>
      </trkpt>
      <trkpt lat="43.933" lon="1.85722">
        <ele>372.2</ele>
        <time>2021-03-21T13:25:31Z</time>
      </trkpt>
      <trkpt lat="43.93302" lon="1.85729">
        <ele>372</ele>
        <time>2021-03-21T13:25:32Z</time>
      </trkpt>
      <trkpt lat="43.93304" lon="1.85736">
        <ele>371.8</ele>
        <time>2021-03-21T13:25:33Z</time>
      </trkpt>
      <trkpt lat="43.93306" lon="1.85743">
        <ele>371.4</ele>
        <time>2021-03-21T13:25:34Z</time>
      </trkpt>
      <trkpt lat="43.93308" lon="1.85751">
        <ele>371</ele>
        <time>2021-03-21T13:25:35Z</time>
      </trkpt>
      <trkpt lat="43.9331" lon="1.85759">
        <ele>370.8</ele>
        <time>2021-03-21T13:25:36Z</time>
      </trkpt>
      <trkpt lat="43.93311" lon="1.85767">
        <ele>370.6</ele>
        <time>2021-03-21T13:25:37Z</time>
      </trkpt>
      <trkpt lat="43.93311" lon="1.85776">
        <ele>370.4</ele>
        <time>2021-03-21T13:25:38Z</time>
      </trkpt>
      <trkpt lat="43.93312" lon="1.85784">
        <ele>369.8</ele>
        <time>2021-03-21T13:25:39Z</time>
      </trkpt>
      <trkpt lat="43.93314" lon="1.85794">
        <ele>369.4</ele>
        <time>2021-03-21T13:25:40Z</time>
      </trkpt>
      <trkpt lat="43.93315" lon="1.85802">
        <ele>369.4</ele>
        <time>2021-03-21T13:25:41Z</time>
      </trkpt>
      <trkpt lat="43.93316" lon="1.85811">
        <ele>369.2</ele>
        <time>2021-03-21T13:25:42Z</time>
      </trkpt>
      <trkpt lat="43.93319" lon="1.85819">
        <ele>368.8</ele>
        <time>2021-03-21T13:25:43Z</time>
      </trkpt>
      <trkpt lat="43.93321" lon="1.85828">
        <ele>368.2</ele>
        <time>2021-03-21T13:25:44Z</time>
      </trkpt>
      <trkpt lat="43.93323" lon="1.85836">
        <ele>368.2</ele>
        <time>2021-03-21T13:25:45Z</time>
      </trkpt>
      <trkpt lat="43.93326" lon="1.85843">
        <ele>368</ele>
        <time>2021-03-21T13:25:46Z</time>
      </trkpt>
      <trkpt lat="43.93329" lon="1.85848">
        <ele>367.4</ele>
        <time>2021-03-21T13:25:47Z</time>
      </trkpt>
      <trkpt lat="43.93332" lon="1.85851">
        <ele>367</ele>
        <time>2021-03-21T13:25:48Z</time>
      </trkpt>
      <trkpt lat="43.93333" lon="1.85853">
        <ele>366.8</ele>
        <time>2021-03-21T13:25:49Z</time>
      </trkpt>
      <trkpt lat="43.93335" lon="1.85854">
        <ele>366.8</ele>
        <time>2021-03-21T13:25:50Z</time>
      </trkpt>
      <trkpt lat="43.93335" lon="1.85856">
        <ele>366.6</ele>
        <time>2021-03-21T13:25:51Z</time>
      </trkpt>
      <trkpt lat="43.93336" lon="1.85858">
        <ele>366.6</ele>
        <time>2021-03-21T13:25:52Z</time>
      </trkpt>
      <trkpt lat="43.93337" lon="1.85861">
        <ele>366.4</ele>
        <time>2021-03-21T13:25:53Z</time>
      </trkpt>
      <trkpt lat="43.93338" lon="1.85863">
        <ele>366.4</ele>
        <time>2021-03-21T13:25:54Z</time>
      </trkpt>
      <trkpt lat="43.93339" lon="1.85866">
        <ele>366</ele>
        <time>2021-03-21T13:25:55Z</time>
      </trkpt>
      <trkpt lat="43.93341" lon="1.85868">
        <ele>365.8</ele>
        <time>2021-03-21T13:25:56Z</time>
      </trkpt>
      <trkpt lat="43.93342" lon="1.8587">
        <ele>365.8</ele>
        <time>2021-03-21T13:25:57Z</time>
      </trkpt>
      <trkpt lat="43.93344" lon="1.85872">
        <ele>365.6</ele>
        <time>2021-03-21T13:25:58Z</time>
      </trkpt>
      <trkpt lat="43.93346" lon="1.85874">
        <ele>365.6</ele>
        <time>2021-03-21T13:25:59Z</time>
      </trkpt>
      <trkpt lat="43.93348" lon="1.85875">
        <ele>365.4</ele>
        <time>2021-03-21T13:26:00Z</time>
      </trkpt>
      <trkpt lat="43.93352" lon="1.85875">
        <ele>365.4</ele>
        <time>2021-03-21T13:26:01Z</time>
      </trkpt>
      <trkpt lat="43.93355" lon="1.85873">
        <ele>365.2</ele>
        <time>2021-03-21T13:26:02Z</time>
      </trkpt>
      <trkpt lat="43.93357" lon="1.8587">
        <ele>364.8</ele>
        <time>2021-03-21T13:26:03Z</time>
      </trkpt>
      <trkpt lat="43.93358" lon="1.85867">
        <ele>364.6</ele>
        <time>2021-03-21T13:26:04Z</time>
      </trkpt>
      <trkpt lat="43.93358" lon="1.85862">
        <ele>364.2</ele>
        <time>2021-03-21T13:26:05Z</time>
      </trkpt>
      <trkpt lat="43.93358" lon="1.85858">
        <ele>363.8</ele>
        <time>2021-03-21T13:26:06Z</time>
      </trkpt>
      <trkpt lat="43.93358" lon="1.85853">
        <ele>363.4</ele>
        <time>2021-03-21T13:26:07Z</time>
      </trkpt>
      <trkpt lat="43.93359" lon="1.85848">
        <ele>363</ele>
        <time>2021-03-21T13:26:08Z</time>
      </trkpt>
      <trkpt lat="43.93359" lon="1.85843">
        <ele>362.4</ele>
        <time>2021-03-21T13:26:09Z</time>
      </trkpt>
      <trkpt lat="43.93359" lon="1.85837">
        <ele>361.6</ele>
        <time>2021-03-21T13:26:10Z</time>
      </trkpt>
      <trkpt lat="43.93359" lon="1.85826">
        <ele>360.4</ele>
        <time>2021-03-21T13:26:12Z</time>
      </trkpt>
      <trkpt lat="43.93359" lon="1.8582">
        <ele>359.6</ele>
        <time>2021-03-21T13:26:13Z</time>
      </trkpt>
      <trkpt lat="43.9336" lon="1.85814">
        <ele>359.2</ele>
        <time>2021-03-21T13:26:14Z</time>
      </trkpt>
      <trkpt lat="43.9336" lon="1.85808">
        <ele>358.6</ele>
        <time>2021-03-21T13:26:15Z</time>
      </trkpt>
      <trkpt lat="43.9336" lon="1.85802">
        <ele>357.6</ele>
        <time>2021-03-21T13:26:16Z</time>
      </trkpt>
      <trkpt lat="43.93359" lon="1.85797">
        <ele>357.4</ele>
        <time>2021-03-21T13:26:17Z</time>
      </trkpt>
      <trkpt lat="43.93359" lon="1.85793">
        <ele>357</ele>
        <time>2021-03-21T13:26:18Z</time>
      </trkpt>
      <trkpt lat="43.93358" lon="1.85789">
        <ele>356.6</ele>
        <time>2021-03-21T13:26:19Z</time>
      </trkpt>
      <trkpt lat="43.93358" lon="1.85786">
        <ele>356.6</ele>
        <time>2021-03-21T13:26:20Z</time>
      </trkpt>
      <trkpt lat="43.93358" lon="1.85783">
        <ele>356.2</ele>
        <time>2021-03-21T13:26:21Z</time>
      </trkpt>
      <trkpt lat="43.93359" lon="1.8578">
        <ele>355.2</ele>
        <time>2021-03-21T13:26:22Z</time>
      </trkpt>
      <trkpt lat="43.93359" lon="1.85778">
        <ele>354.8</ele>
        <time>2021-03-21T13:26:23Z</time>
      </trkpt>
      <trkpt lat="43.93359" lon="1.85775">
        <ele>354.4</ele>
        <time>2021-03-21T13:26:24Z</time>
      </trkpt>
      <trkpt lat="43.93359" lon="1.85774">
        <ele>354</ele>
        <time>2021-03-21T13:26:25Z</time>
      </trkpt>
      <trkpt lat="43.93359" lon="1.85772">
        <ele>353.8</ele>
        <time>2021-03-21T13:26:26Z</time>
      </trkpt>
      <trkpt lat="43.93359" lon="1.85771">
        <ele>353.4</ele>
        <time>2021-03-21T13:26:27Z</time>
      </trkpt>
      <trkpt lat="43.9336" lon="1.85769">
        <ele>353.4</ele>
        <time>2021-03-21T13:26:28Z</time>
      </trkpt>
      <trkpt lat="43.93361" lon="1.85767">
        <ele>353.4</ele>
        <time>2021-03-21T13:26:29Z</time>
      </trkpt>
      <trkpt lat="43.93362" lon="1.85765">
        <ele>353.4</ele>
        <time>2021-03-21T13:26:30Z</time>
      </trkpt>
      <trkpt lat="43.93363" lon="1.85763">
        <ele>353.4</ele>
        <time>2021-03-21T13:26:31Z</time>
      </trkpt>
      <trkpt lat="43.93363" lon="1.85762">
        <ele>353.2</ele>
        <time>2021-03-21T13:26:32Z</time>
      </trkpt>
      <trkpt lat="43.93364" lon="1.85761">
        <ele>353.2</ele>
        <time>2021-03-21T13:26:33Z</time>
      </trkpt>
      <trkpt lat="43.93364" lon="1.8576">
        <ele>353.2</ele>
        <time>2021-03-21T13:26:34Z</time>
      </trkpt>
      <trkpt lat="43.93365" lon="1.85758">
        <ele>353.4</ele>
        <time>2021-03-21T13:26:35Z</time>
      </trkpt>
      <trkpt lat="43.93366" lon="1.85757">
        <ele>353.2</ele>
        <time>2021-03-21T13:26:36Z</time>
      </trkpt>
      <trkpt lat="43.93366" lon="1.85755">
        <ele>353.4</ele>
        <time>2021-03-21T13:26:37Z</time>
      </trkpt>
      <trkpt lat="43.93368" lon="1.85751">
        <ele>353.2</ele>
        <time>2021-03-21T13:26:39Z</time>
      </trkpt>
      <trkpt lat="43.93369" lon="1.85748">
        <ele>353.2</ele>
        <time>2021-03-21T13:26:40Z</time>
      </trkpt>
      <trkpt lat="43.9337" lon="1.85746">
        <ele>353.4</ele>
        <time>2021-03-21T13:26:41Z</time>
      </trkpt>
      <trkpt lat="43.93371" lon="1.85743">
        <ele>353.4</ele>
        <time>2021-03-21T13:26:42Z</time>
      </trkpt>
      <trkpt lat="43.93372" lon="1.85741">
        <ele>353.2</ele>
        <time>2021-03-21T13:26:43Z</time>
      </trkpt>
      <trkpt lat="43.93372" lon="1.85739">
        <ele>353.2</ele>
        <time>2021-03-21T13:26:44Z</time>
      </trkpt>
      <trkpt lat="43.93373" lon="1.85737">
        <ele>353.2</ele>
        <time>2021-03-21T13:26:45Z</time>
      </trkpt>
      <trkpt lat="43.93374" lon="1.85735">
        <ele>353.4</ele>
        <time>2021-03-21T13:26:46Z</time>
      </trkpt>
      <trkpt lat="43.93374" lon="1.85734">
        <ele>353</ele>
        <time>2021-03-21T13:26:47Z</time>
      </trkpt>
      <trkpt lat="43.93374" lon="1.85733">
        <ele>353</ele>
        <time>2021-03-21T13:26:48Z</time>
      </trkpt>
      <trkpt lat="43.93375" lon="1.85733">
        <ele>352.6</ele>
        <time>2021-03-21T13:26:49Z</time>
      </trkpt>
      <trkpt lat="43.9338" lon="1.85734">
        <ele>351.6</ele>
        <time>2021-03-21T13:26:55Z</time>
      </trkpt>
      <trkpt lat="43.93381" lon="1.85735">
        <ele>351.6</ele>
        <time>2021-03-21T13:26:56Z</time>
      </trkpt>
      <trkpt lat="43.93382" lon="1.85735">
        <ele>351.2</ele>
        <time>2021-03-21T13:26:57Z</time>
      </trkpt>
      <trkpt lat="43.93383" lon="1.85734">
        <ele>351</ele>
        <time>2021-03-21T13:26:58Z</time>
      </trkpt>
      <trkpt lat="43.93384" lon="1.85733">
        <ele>351</ele>
        <time>2021-03-21T13:26:59Z</time>
      </trkpt>
      <trkpt lat="43.93384" lon="1.85732">
        <ele>351</ele>
        <time>2021-03-21T13:27:00Z</time>
      </trkpt>
      <trkpt lat="43.93384" lon="1.85732">
        <ele>350.8</ele>
        <time>2021-03-21T13:27:01Z</time>
      </trkpt>
      <trkpt lat="43.93386" lon="1.8573">
        <ele>350.8</ele>
        <time>2021-03-21T13:27:02Z</time>
      </trkpt>
      <trkpt lat="43.93388" lon="1.85726">
        <ele>350.4</ele>
        <time>2021-03-21T13:27:04Z</time>
      </trkpt>
      <trkpt lat="43.93389" lon="1.85723">
        <ele>350.2</ele>
        <time>2021-03-21T13:27:05Z</time>
      </trkpt>
      <trkpt lat="43.93389" lon="1.8572">
        <ele>350</ele>
        <time>2021-03-21T13:27:06Z</time>
      </trkpt>
      <trkpt lat="43.9339" lon="1.85717">
        <ele>349.8</ele>
        <time>2021-03-21T13:27:07Z</time>
      </trkpt>
      <trkpt lat="43.93391" lon="1.85714">
        <ele>349.4</ele>
        <time>2021-03-21T13:27:08Z</time>
      </trkpt>
      <trkpt lat="43.93392" lon="1.8571">
        <ele>349</ele>
        <time>2021-03-21T13:27:09Z</time>
      </trkpt>
      <trkpt lat="43.93394" lon="1.85705">
        <ele>349</ele>
        <time>2021-03-21T13:27:10Z</time>
      </trkpt>
      <trkpt lat="43.93395" lon="1.857">
        <ele>349</ele>
        <time>2021-03-21T13:27:11Z</time>
      </trkpt>
      <trkpt lat="43.93396" lon="1.85696">
        <ele>348.8</ele>
        <time>2021-03-21T13:27:12Z</time>
      </trkpt>
      <trkpt lat="43.93397" lon="1.85692">
        <ele>348.8</ele>
        <time>2021-03-21T13:27:13Z</time>
      </trkpt>
      <trkpt lat="43.93398" lon="1.85688">
        <ele>348.2</ele>
        <time>2021-03-21T13:27:14Z</time>
      </trkpt>
      <trkpt lat="43.93398" lon="1.85686">
        <ele>347.8</ele>
        <time>2021-03-21T13:27:15Z</time>
      </trkpt>
      <trkpt lat="43.93399" lon="1.85683">
        <ele>347.6</ele>
        <time>2021-03-21T13:27:16Z</time>
      </trkpt>
      <trkpt lat="43.934" lon="1.8568">
        <ele>347</ele>
        <time>2021-03-21T13:27:17Z</time>
      </trkpt>
      <trkpt lat="43.934" lon="1.85675">
        <ele>345.6</ele>
        <time>2021-03-21T13:27:19Z</time>
      </trkpt>
      <trkpt lat="43.934" lon="1.85672">
        <ele>345.6</ele>
        <time>2021-03-21T13:27:20Z</time>
      </trkpt>
      <trkpt lat="43.93399" lon="1.85669">
        <ele>345.2</ele>
        <time>2021-03-21T13:27:21Z</time>
      </trkpt>
      <trkpt lat="43.93398" lon="1.85667">
        <ele>345.2</ele>
        <time>2021-03-21T13:27:22Z</time>
      </trkpt>
      <trkpt lat="43.93398" lon="1.85665">
        <ele>345</ele>
        <time>2021-03-21T13:27:23Z</time>
      </trkpt>
      <trkpt lat="43.93397" lon="1.85664">
        <ele>344.8</ele>
        <time>2021-03-21T13:27:24Z</time>
      </trkpt>
      <trkpt lat="43.93397" lon="1.85663">
        <ele>344.8</ele>
        <time>2021-03-21T13:27:25Z</time>
      </trkpt>
      <trkpt lat="43.93397" lon="1.85662">
        <ele>344.8</ele>
        <time>2021-03-21T13:27:26Z</time>
      </trkpt>
      <trkpt lat="43.93398" lon="1.85643">
        <ele>346.2</ele>
        <time>2021-03-21T13:27:52Z</time>
      </trkpt>
      <trkpt lat="43.93399" lon="1.85641">
        <ele>346.2</ele>
        <time>2021-03-21T13:27:53Z</time>
      </trkpt>
      <trkpt lat="43.934" lon="1.85638">
        <ele>346.4</ele>
        <time>2021-03-21T13:27:54Z</time>
      </trkpt>
      <trkpt lat="43.93401" lon="1.85636">
        <ele>346.2</ele>
        <time>2021-03-21T13:27:55Z</time>
      </trkpt>
      <trkpt lat="43.93403" lon="1.85633">
        <ele>346.4</ele>
        <time>2021-03-21T13:27:56Z</time>
      </trkpt>
      <trkpt lat="43.93404" lon="1.85631">
        <ele>346.2</ele>
        <time>2021-03-21T13:27:57Z</time>
      </trkpt>
      <trkpt lat="43.93406" lon="1.85628">
        <ele>346.2</ele>
        <time>2021-03-21T13:27:58Z</time>
      </trkpt>
      <trkpt lat="43.93406" lon="1.85625">
        <ele>346.2</ele>
        <time>2021-03-21T13:27:59Z</time>
      </trkpt>
      <trkpt lat="43.93407" lon="1.85623">
        <ele>346.4</ele>
        <time>2021-03-21T13:28:00Z</time>
      </trkpt>
      <trkpt lat="43.93407" lon="1.8562">
        <ele>346.2</ele>
        <time>2021-03-21T13:28:01Z</time>
      </trkpt>
      <trkpt lat="43.93407" lon="1.85618">
        <ele>346.2</ele>
        <time>2021-03-21T13:28:02Z</time>
      </trkpt>
      <trkpt lat="43.93407" lon="1.85616">
        <ele>346.2</ele>
        <time>2021-03-21T13:28:03Z</time>
      </trkpt>
      <trkpt lat="43.93408" lon="1.85613">
        <ele>346</ele>
        <time>2021-03-21T13:28:04Z</time>
      </trkpt>
      <trkpt lat="43.9341" lon="1.8561">
        <ele>345.8</ele>
        <time>2021-03-21T13:28:05Z</time>
      </trkpt>
      <trkpt lat="43.93411" lon="1.85607">
        <ele>345.4</ele>
        <time>2021-03-21T13:28:06Z</time>
      </trkpt>
      <trkpt lat="43.93414" lon="1.85604">
        <ele>345</ele>
        <time>2021-03-21T13:28:07Z</time>
      </trkpt>
      <trkpt lat="43.93418" lon="1.85597">
        <ele>344.6</ele>
        <time>2021-03-21T13:28:09Z</time>
      </trkpt>
      <trkpt lat="43.9342" lon="1.85595">
        <ele>344.4</ele>
        <time>2021-03-21T13:28:10Z</time>
      </trkpt>
      <trkpt lat="43.93423" lon="1.85594">
        <ele>344.2</ele>
        <time>2021-03-21T13:28:11Z</time>
      </trkpt>
      <trkpt lat="43.93426" lon="1.85593">
        <ele>344.2</ele>
        <time>2021-03-21T13:28:12Z</time>
      </trkpt>
      <trkpt lat="43.9343" lon="1.85594">
        <ele>344.2</ele>
        <time>2021-03-21T13:28:13Z</time>
      </trkpt>
      <trkpt lat="43.93434" lon="1.85594">
        <ele>344</ele>
        <time>2021-03-21T13:28:14Z</time>
      </trkpt>
      <trkpt lat="43.93438" lon="1.85594">
        <ele>343.8</ele>
        <time>2021-03-21T13:28:15Z</time>
      </trkpt>
      <trkpt lat="43.93442" lon="1.85593">
        <ele>343.4</ele>
        <time>2021-03-21T13:28:16Z</time>
      </trkpt>
      <trkpt lat="43.93446" lon="1.85591">
        <ele>342.8</ele>
        <time>2021-03-21T13:28:17Z</time>
      </trkpt>
      <trkpt lat="43.93449" lon="1.85589">
        <ele>342</ele>
        <time>2021-03-21T13:28:18Z</time>
      </trkpt>
      <trkpt lat="43.93452" lon="1.85585">
        <ele>341.2</ele>
        <time>2021-03-21T13:28:19Z</time>
      </trkpt>
      <trkpt lat="43.93455" lon="1.85581">
        <ele>340.4</ele>
        <time>2021-03-21T13:28:20Z</time>
      </trkpt>
      <trkpt lat="43.93458" lon="1.85577">
        <ele>339.4</ele>
        <time>2021-03-21T13:28:21Z</time>
      </trkpt>
      <trkpt lat="43.93463" lon="1.85573">
        <ele>338.2</ele>
        <time>2021-03-21T13:28:22Z</time>
      </trkpt>
      <trkpt lat="43.93467" lon="1.85569">
        <ele>337.6</ele>
        <time>2021-03-21T13:28:23Z</time>
      </trkpt>
      <trkpt lat="43.93472" lon="1.85564">
        <ele>337.2</ele>
        <time>2021-03-21T13:28:24Z</time>
      </trkpt>
      <trkpt lat="43.93475" lon="1.8556">
        <ele>336.4</ele>
        <time>2021-03-21T13:28:25Z</time>
      </trkpt>
      <trkpt lat="43.93479" lon="1.85557">
        <ele>335.8</ele>
        <time>2021-03-21T13:28:26Z</time>
      </trkpt>
      <trkpt lat="43.93482" lon="1.85554">
        <ele>335.2</ele>
        <time>2021-03-21T13:28:27Z</time>
      </trkpt>
      <trkpt lat="43.93485" lon="1.85549">
        <ele>334.4</ele>
        <time>2021-03-21T13:28:28Z</time>
      </trkpt>
      <trkpt lat="43.93487" lon="1.85544">
        <ele>333.8</ele>
        <time>2021-03-21T13:28:29Z</time>
      </trkpt>
      <trkpt lat="43.93489" lon="1.85538">
        <ele>333.2</ele>
        <time>2021-03-21T13:28:30Z</time>
      </trkpt>
      <trkpt lat="43.93491" lon="1.85534">
        <ele>332.6</ele>
        <time>2021-03-21T13:28:31Z</time>
      </trkpt>
      <trkpt lat="43.93494" lon="1.85531">
        <ele>332</ele>
        <time>2021-03-21T13:28:32Z</time>
      </trkpt>
      <trkpt lat="43.93497" lon="1.8553">
        <ele>332</ele>
        <time>2021-03-21T13:28:33Z</time>
      </trkpt>
      <trkpt lat="43.935" lon="1.85529">
        <ele>331.2</ele>
        <time>2021-03-21T13:28:34Z</time>
      </trkpt>
      <trkpt lat="43.93504" lon="1.85529">
        <ele>330.6</ele>
        <time>2021-03-21T13:28:35Z</time>
      </trkpt>
      <trkpt lat="43.93508" lon="1.85529">
        <ele>329.8</ele>
        <time>2021-03-21T13:28:36Z</time>
      </trkpt>
      <trkpt lat="43.93511" lon="1.85529">
        <ele>329.2</ele>
        <time>2021-03-21T13:28:37Z</time>
      </trkpt>
      <trkpt lat="43.93515" lon="1.85531">
        <ele>328.2</ele>
        <time>2021-03-21T13:28:38Z</time>
      </trkpt>
      <trkpt lat="43.93521" lon="1.85533">
        <ele>327.8</ele>
        <time>2021-03-21T13:28:39Z</time>
      </trkpt>
      <trkpt lat="43.93527" lon="1.85534">
        <ele>327.6</ele>
        <time>2021-03-21T13:28:40Z</time>
      </trkpt>
      <trkpt lat="43.93533" lon="1.85532">
        <ele>327</ele>
        <time>2021-03-21T13:28:41Z</time>
      </trkpt>
      <trkpt lat="43.93539" lon="1.85529">
        <ele>326.4</ele>
        <time>2021-03-21T13:28:42Z</time>
      </trkpt>
      <trkpt lat="43.93544" lon="1.85526">
        <ele>326</ele>
        <time>2021-03-21T13:28:43Z</time>
      </trkpt>
      <trkpt lat="43.93549" lon="1.85525">
        <ele>325.8</ele>
        <time>2021-03-21T13:28:44Z</time>
      </trkpt>
      <trkpt lat="43.93553" lon="1.85526">
        <ele>325</ele>
        <time>2021-03-21T13:28:45Z</time>
      </trkpt>
      <trkpt lat="43.93557" lon="1.85527">
        <ele>324.4</ele>
        <time>2021-03-21T13:28:46Z</time>
      </trkpt>
      <trkpt lat="43.9356" lon="1.85529">
        <ele>323.8</ele>
        <time>2021-03-21T13:28:47Z</time>
      </trkpt>
      <trkpt lat="43.93563" lon="1.8553">
        <ele>323</ele>
        <time>2021-03-21T13:28:48Z</time>
      </trkpt>
      <trkpt lat="43.93567" lon="1.85532">
        <ele>322.2</ele>
        <time>2021-03-21T13:28:49Z</time>
      </trkpt>
      <trkpt lat="43.93573" lon="1.85536">
        <ele>321.2</ele>
        <time>2021-03-21T13:28:51Z</time>
      </trkpt>
      <trkpt lat="43.93576" lon="1.85539">
        <ele>321.2</ele>
        <time>2021-03-21T13:28:52Z</time>
      </trkpt>
      <trkpt lat="43.93579" lon="1.85542">
        <ele>321.2</ele>
        <time>2021-03-21T13:28:53Z</time>
      </trkpt>
      <trkpt lat="43.93582" lon="1.85545">
        <ele>321.2</ele>
        <time>2021-03-21T13:28:54Z</time>
      </trkpt>
      <trkpt lat="43.93585" lon="1.85549">
        <ele>321</ele>
        <time>2021-03-21T13:28:55Z</time>
      </trkpt>
      <trkpt lat="43.93588" lon="1.85552">
        <ele>321</ele>
        <time>2021-03-21T13:28:56Z</time>
      </trkpt>
      <trkpt lat="43.93591" lon="1.85555">
        <ele>320.8</ele>
        <time>2021-03-21T13:28:57Z</time>
      </trkpt>
      <trkpt lat="43.93593" lon="1.85558">
        <ele>320.8</ele>
        <time>2021-03-21T13:28:58Z</time>
      </trkpt>
      <trkpt lat="43.93597" lon="1.85561">
        <ele>321</ele>
        <time>2021-03-21T13:28:59Z</time>
      </trkpt>
      <trkpt lat="43.936" lon="1.85564">
        <ele>321</ele>
        <time>2021-03-21T13:29:00Z</time>
      </trkpt>
      <trkpt lat="43.93604" lon="1.85567">
        <ele>320.8</ele>
        <time>2021-03-21T13:29:01Z</time>
      </trkpt>
      <trkpt lat="43.93608" lon="1.85571">
        <ele>321</ele>
        <time>2021-03-21T13:29:02Z</time>
      </trkpt>
      <trkpt lat="43.93612" lon="1.85574">
        <ele>321.2</ele>
        <time>2021-03-21T13:29:03Z</time>
      </trkpt>
      <trkpt lat="43.93616" lon="1.85578">
        <ele>321.2</ele>
        <time>2021-03-21T13:29:04Z</time>
      </trkpt>
      <trkpt lat="43.93619" lon="1.85582">
        <ele>321.2</ele>
        <time>2021-03-21T13:29:05Z</time>
      </trkpt>
      <trkpt lat="43.93623" lon="1.85586">
        <ele>321.2</ele>
        <time>2021-03-21T13:29:06Z</time>
      </trkpt>
      <trkpt lat="43.93627" lon="1.85592">
        <ele>321.4</ele>
        <time>2021-03-21T13:29:07Z</time>
      </trkpt>
      <trkpt lat="43.93632" lon="1.85597">
        <ele>321.4</ele>
        <time>2021-03-21T13:29:08Z</time>
      </trkpt>
      <trkpt lat="43.93636" lon="1.85604">
        <ele>321.4</ele>
        <time>2021-03-21T13:29:09Z</time>
      </trkpt>
      <trkpt lat="43.9364" lon="1.85609">
        <ele>321.4</ele>
        <time>2021-03-21T13:29:10Z</time>
      </trkpt>
      <trkpt lat="43.93644" lon="1.85615">
        <ele>321.4</ele>
        <time>2021-03-21T13:29:11Z</time>
      </trkpt>
      <trkpt lat="43.93647" lon="1.8562">
        <ele>321.6</ele>
        <time>2021-03-21T13:29:12Z</time>
      </trkpt>
      <trkpt lat="43.9365" lon="1.85626">
        <ele>321.6</ele>
        <time>2021-03-21T13:29:13Z</time>
      </trkpt>
      <trkpt lat="43.93653" lon="1.85631">
        <ele>321.4</ele>
        <time>2021-03-21T13:29:14Z</time>
      </trkpt>
      <trkpt lat="43.93656" lon="1.85637">
        <ele>321.4</ele>
        <time>2021-03-21T13:29:15Z</time>
      </trkpt>
      <trkpt lat="43.93659" lon="1.85644">
        <ele>321.2</ele>
        <time>2021-03-21T13:29:16Z</time>
      </trkpt>
      <trkpt lat="43.9366" lon="1.8565">
        <ele>321</ele>
        <time>2021-03-21T13:29:17Z</time>
      </trkpt>
      <trkpt lat="43.93661" lon="1.85657">
        <ele>320.6</ele>
        <time>2021-03-21T13:29:18Z</time>
      </trkpt>
      <trkpt lat="43.93662" lon="1.85663">
        <ele>320</ele>
        <time>2021-03-21T13:29:19Z</time>
      </trkpt>
      <trkpt lat="43.93663" lon="1.8567">
        <ele>319.6</ele>
        <time>2021-03-21T13:29:20Z</time>
      </trkpt>
      <trkpt lat="43.93664" lon="1.85677">
        <ele>319</ele>
        <time>2021-03-21T13:29:21Z</time>
      </trkpt>
      <trkpt lat="43.93664" lon="1.85684">
        <ele>318.2</ele>
        <time>2021-03-21T13:29:22Z</time>
      </trkpt>
      <trkpt lat="43.93665" lon="1.85691">
        <ele>317.4</ele>
        <time>2021-03-21T13:29:23Z</time>
      </trkpt>
      <trkpt lat="43.93666" lon="1.85698">
        <ele>317</ele>
        <time>2021-03-21T13:29:24Z</time>
      </trkpt>
      <trkpt lat="43.93667" lon="1.85706">
        <ele>317</ele>
        <time>2021-03-21T13:29:25Z</time>
      </trkpt>
      <trkpt lat="43.93668" lon="1.85713">
        <ele>316.8</ele>
        <time>2021-03-21T13:29:26Z</time>
      </trkpt>
      <trkpt lat="43.9367" lon="1.8572">
        <ele>316.4</ele>
        <time>2021-03-21T13:29:27Z</time>
      </trkpt>
      <trkpt lat="43.93672" lon="1.85727">
        <ele>316.4</ele>
        <time>2021-03-21T13:29:28Z</time>
      </trkpt>
      <trkpt lat="43.93675" lon="1.85734">
        <ele>316.4</ele>
        <time>2021-03-21T13:29:29Z</time>
      </trkpt>
      <trkpt lat="43.93677" lon="1.85741">
        <ele>316.4</ele>
        <time>2021-03-21T13:29:30Z</time>
      </trkpt>
      <trkpt lat="43.9368" lon="1.85747">
        <ele>316.2</ele>
        <time>2021-03-21T13:29:31Z</time>
      </trkpt>
      <trkpt lat="43.93683" lon="1.85754">
        <ele>316.2</ele>
        <time>2021-03-21T13:29:32Z</time>
      </trkpt>
      <trkpt lat="43.93686" lon="1.8576">
        <ele>316.2</ele>
        <time>2021-03-21T13:29:33Z</time>
      </trkpt>
      <trkpt lat="43.9369" lon="1.85766">
        <ele>316.2</ele>
        <time>2021-03-21T13:29:34Z</time>
      </trkpt>
      <trkpt lat="43.93693" lon="1.85771">
        <ele>316</ele>
        <time>2021-03-21T13:29:35Z</time>
      </trkpt>
      <trkpt lat="43.93696" lon="1.85778">
        <ele>315.2</ele>
        <time>2021-03-21T13:29:36Z</time>
      </trkpt>
      <trkpt lat="43.93698" lon="1.85785">
        <ele>315</ele>
        <time>2021-03-21T13:29:37Z</time>
      </trkpt>
      <trkpt lat="43.93703" lon="1.858">
        <ele>314.6</ele>
        <time>2021-03-21T13:29:39Z</time>
      </trkpt>
      <trkpt lat="43.93705" lon="1.85808">
        <ele>314</ele>
        <time>2021-03-21T13:29:40Z</time>
      </trkpt>
      <trkpt lat="43.93707" lon="1.85815">
        <ele>313.8</ele>
        <time>2021-03-21T13:29:41Z</time>
      </trkpt>
      <trkpt lat="43.93709" lon="1.85823">
        <ele>313.6</ele>
        <time>2021-03-21T13:29:42Z</time>
      </trkpt>
      <trkpt lat="43.93713" lon="1.85839">
        <ele>313.4</ele>
        <time>2021-03-21T13:29:44Z</time>
      </trkpt>
      <trkpt lat="43.93715" lon="1.85847">
        <ele>313.2</ele>
        <time>2021-03-21T13:29:45Z</time>
      </trkpt>
      <trkpt lat="43.93717" lon="1.85854">
        <ele>313</ele>
        <time>2021-03-21T13:29:46Z</time>
      </trkpt>
      <trkpt lat="43.9372" lon="1.85863">
        <ele>312.8</ele>
        <time>2021-03-21T13:29:47Z</time>
      </trkpt>
      <trkpt lat="43.93722" lon="1.85871">
        <ele>312.4</ele>
        <time>2021-03-21T13:29:48Z</time>
      </trkpt>
      <trkpt lat="43.93724" lon="1.8588">
        <ele>312.2</ele>
        <time>2021-03-21T13:29:49Z</time>
      </trkpt>
      <trkpt lat="43.93727" lon="1.85889">
        <ele>311.8</ele>
        <time>2021-03-21T13:29:50Z</time>
      </trkpt>
      <trkpt lat="43.9373" lon="1.85898">
        <ele>311.6</ele>
        <time>2021-03-21T13:29:51Z</time>
      </trkpt>
      <trkpt lat="43.93733" lon="1.85907">
        <ele>311.6</ele>
        <time>2021-03-21T13:29:52Z</time>
      </trkpt>
      <trkpt lat="43.93735" lon="1.85917">
        <ele>311.6</ele>
        <time>2021-03-21T13:29:53Z</time>
      </trkpt>
      <trkpt lat="43.93738" lon="1.85928">
        <ele>311.4</ele>
        <time>2021-03-21T13:29:54Z</time>
      </trkpt>
      <trkpt lat="43.9374" lon="1.85937">
        <ele>311.2</ele>
        <time>2021-03-21T13:29:55Z</time>
      </trkpt>
      <trkpt lat="43.93742" lon="1.85947">
        <ele>310.6</ele>
        <time>2021-03-21T13:29:56Z</time>
      </trkpt>
      <trkpt lat="43.93744" lon="1.85955">
        <ele>310.2</ele>
        <time>2021-03-21T13:29:57Z</time>
      </trkpt>
      <trkpt lat="43.93745" lon="1.85961">
        <ele>309.4</ele>
        <time>2021-03-21T13:29:58Z</time>
      </trkpt>
      <trkpt lat="43.93747" lon="1.85968">
        <ele>308.8</ele>
        <time>2021-03-21T13:29:59Z</time>
      </trkpt>
      <trkpt lat="43.93749" lon="1.85974">
        <ele>308.2</ele>
        <time>2021-03-21T13:30:00Z</time>
      </trkpt>
      <trkpt lat="43.93751" lon="1.8598">
        <ele>308</ele>
        <time>2021-03-21T13:30:01Z</time>
      </trkpt>
      <trkpt lat="43.93752" lon="1.85987">
        <ele>307.8</ele>
        <time>2021-03-21T13:30:02Z</time>
      </trkpt>
      <trkpt lat="43.93753" lon="1.85993">
        <ele>307.4</ele>
        <time>2021-03-21T13:30:03Z</time>
      </trkpt>
      <trkpt lat="43.93754" lon="1.85999">
        <ele>307.2</ele>
        <time>2021-03-21T13:30:04Z</time>
      </trkpt>
      <trkpt lat="43.93755" lon="1.86004">
        <ele>307</ele>
        <time>2021-03-21T13:30:05Z</time>
      </trkpt>
      <trkpt lat="43.93756" lon="1.86009">
        <ele>306.6</ele>
        <time>2021-03-21T13:30:06Z</time>
      </trkpt>
      <trkpt lat="43.93756" lon="1.86013">
        <ele>306.2</ele>
        <time>2021-03-21T13:30:07Z</time>
      </trkpt>
      <trkpt lat="43.93758" lon="1.86016">
        <ele>306</ele>
        <time>2021-03-21T13:30:08Z</time>
      </trkpt>
      <trkpt lat="43.9376" lon="1.86019">
        <ele>306</ele>
        <time>2021-03-21T13:30:09Z</time>
      </trkpt>
      <trkpt lat="43.93762" lon="1.86021">
        <ele>305.6</ele>
        <time>2021-03-21T13:30:10Z</time>
      </trkpt>
      <trkpt lat="43.93765" lon="1.86022">
        <ele>305.6</ele>
        <time>2021-03-21T13:30:11Z</time>
      </trkpt>
      <trkpt lat="43.93767" lon="1.86024">
        <ele>305.2</ele>
        <time>2021-03-21T13:30:12Z</time>
      </trkpt>
      <trkpt lat="43.93769" lon="1.86026">
        <ele>305.2</ele>
        <time>2021-03-21T13:30:13Z</time>
      </trkpt>
      <trkpt lat="43.93771" lon="1.86028">
        <ele>305</ele>
        <time>2021-03-21T13:30:14Z</time>
      </trkpt>
      <trkpt lat="43.93773" lon="1.86029">
        <ele>304.8</ele>
        <time>2021-03-21T13:30:15Z</time>
      </trkpt>
      <trkpt lat="43.93776" lon="1.86031">
        <ele>304.6</ele>
        <time>2021-03-21T13:30:16Z</time>
      </trkpt>
      <trkpt lat="43.93778" lon="1.86033">
        <ele>304.8</ele>
        <time>2021-03-21T13:30:17Z</time>
      </trkpt>
      <trkpt lat="43.93782" lon="1.86034">
        <ele>304.6</ele>
        <time>2021-03-21T13:30:18Z</time>
      </trkpt>
      <trkpt lat="43.93788" lon="1.86039">
        <ele>304.6</ele>
        <time>2021-03-21T13:30:20Z</time>
      </trkpt>
      <trkpt lat="43.93792" lon="1.86041">
        <ele>304.6</ele>
        <time>2021-03-21T13:30:21Z</time>
      </trkpt>
      <trkpt lat="43.93796" lon="1.86043">
        <ele>304.4</ele>
        <time>2021-03-21T13:30:22Z</time>
      </trkpt>
      <trkpt lat="43.938" lon="1.86046">
        <ele>304.6</ele>
        <time>2021-03-21T13:30:23Z</time>
      </trkpt>
      <trkpt lat="43.93803" lon="1.86048">
        <ele>304.4</ele>
        <time>2021-03-21T13:30:24Z</time>
      </trkpt>
      <trkpt lat="43.93807" lon="1.8605">
        <ele>304.6</ele>
        <time>2021-03-21T13:30:25Z</time>
      </trkpt>
      <trkpt lat="43.93811" lon="1.86052">
        <ele>304.6</ele>
        <time>2021-03-21T13:30:26Z</time>
      </trkpt>
      <trkpt lat="43.93815" lon="1.86053">
        <ele>304.4</ele>
        <time>2021-03-21T13:30:27Z</time>
      </trkpt>
      <trkpt lat="43.93818" lon="1.86052">
        <ele>304.4</ele>
        <time>2021-03-21T13:30:28Z</time>
      </trkpt>
      <trkpt lat="43.93821" lon="1.8605">
        <ele>304.4</ele>
        <time>2021-03-21T13:30:29Z</time>
      </trkpt>
      <trkpt lat="43.93823" lon="1.86047">
        <ele>304.4</ele>
        <time>2021-03-21T13:30:30Z</time>
      </trkpt>
      <trkpt lat="43.93825" lon="1.86043">
        <ele>304</ele>
        <time>2021-03-21T13:30:31Z</time>
      </trkpt>
      <trkpt lat="43.93827" lon="1.8604">
        <ele>304</ele>
        <time>2021-03-21T13:30:32Z</time>
      </trkpt>
      <trkpt lat="43.93828" lon="1.86036">
        <ele>304</ele>
        <time>2021-03-21T13:30:33Z</time>
      </trkpt>
      <trkpt lat="43.9383" lon="1.86032">
        <ele>303.8</ele>
        <time>2021-03-21T13:30:34Z</time>
      </trkpt>
      <trkpt lat="43.93833" lon="1.86025">
        <ele>303.4</ele>
        <time>2021-03-21T13:30:36Z</time>
      </trkpt>
      <trkpt lat="43.93834" lon="1.86021">
        <ele>303.6</ele>
        <time>2021-03-21T13:30:37Z</time>
      </trkpt>
      <trkpt lat="43.93835" lon="1.86018">
        <ele>303.4</ele>
        <time>2021-03-21T13:30:38Z</time>
      </trkpt>
      <trkpt lat="43.93837" lon="1.86015">
        <ele>303.6</ele>
        <time>2021-03-21T13:30:39Z</time>
      </trkpt>
      <trkpt lat="43.93838" lon="1.86011">
        <ele>303.4</ele>
        <time>2021-03-21T13:30:40Z</time>
      </trkpt>
      <trkpt lat="43.93839" lon="1.86008">
        <ele>303.4</ele>
        <time>2021-03-21T13:30:41Z</time>
      </trkpt>
      <trkpt lat="43.9384" lon="1.86005">
        <ele>303.4</ele>
        <time>2021-03-21T13:30:42Z</time>
      </trkpt>
      <trkpt lat="43.93841" lon="1.86002">
        <ele>303.4</ele>
        <time>2021-03-21T13:30:43Z</time>
      </trkpt>
      <trkpt lat="43.93842" lon="1.85999">
        <ele>303.6</ele>
        <time>2021-03-21T13:30:44Z</time>
      </trkpt>
      <trkpt lat="43.93843" lon="1.85996">
        <ele>303.4</ele>
        <time>2021-03-21T13:30:45Z</time>
      </trkpt>
      <trkpt lat="43.93844" lon="1.85994">
        <ele>303.6</ele>
        <time>2021-03-21T13:30:46Z</time>
      </trkpt>
      <trkpt lat="43.93845" lon="1.85991">
        <ele>303.4</ele>
        <time>2021-03-21T13:30:47Z</time>
      </trkpt>
      <trkpt lat="43.93846" lon="1.85989">
        <ele>304</ele>
        <time>2021-03-21T13:30:48Z</time>
      </trkpt>
      <trkpt lat="43.93846" lon="1.85986">
        <ele>304</ele>
        <time>2021-03-21T13:30:49Z</time>
      </trkpt>
      <trkpt lat="43.93847" lon="1.85984">
        <ele>304.2</ele>
        <time>2021-03-21T13:30:50Z</time>
      </trkpt>
      <trkpt lat="43.93848" lon="1.85982">
        <ele>304.2</ele>
        <time>2021-03-21T13:30:51Z</time>
      </trkpt>
      <trkpt lat="43.93849" lon="1.85979">
        <ele>304.2</ele>
        <time>2021-03-21T13:30:52Z</time>
      </trkpt>
      <trkpt lat="43.93849" lon="1.85977">
        <ele>304.2</ele>
        <time>2021-03-21T13:30:53Z</time>
      </trkpt>
      <trkpt lat="43.9385" lon="1.85975">
        <ele>304.2</ele>
        <time>2021-03-21T13:30:54Z</time>
      </trkpt>
      <trkpt lat="43.93851" lon="1.85973">
        <ele>304.4</ele>
        <time>2021-03-21T13:30:55Z</time>
      </trkpt>
      <trkpt lat="43.93852" lon="1.85971">
        <ele>304.8</ele>
        <time>2021-03-21T13:30:56Z</time>
      </trkpt>
      <trkpt lat="43.93852" lon="1.85968">
        <ele>305.4</ele>
        <time>2021-03-21T13:30:57Z</time>
      </trkpt>
      <trkpt lat="43.93853" lon="1.85966">
        <ele>305.8</ele>
        <time>2021-03-21T13:30:58Z</time>
      </trkpt>
      <trkpt lat="43.93853" lon="1.85964">
        <ele>305.8</ele>
        <time>2021-03-21T13:30:59Z</time>
      </trkpt>
      <trkpt lat="43.93854" lon="1.85962">
        <ele>305.8</ele>
        <time>2021-03-21T13:31:00Z</time>
      </trkpt>
      <trkpt lat="43.93855" lon="1.8596">
        <ele>306.2</ele>
        <time>2021-03-21T13:31:01Z</time>
      </trkpt>
      <trkpt lat="43.93856" lon="1.85958">
        <ele>306.2</ele>
        <time>2021-03-21T13:31:02Z</time>
      </trkpt>
      <trkpt lat="43.93856" lon="1.85956">
        <ele>306.2</ele>
        <time>2021-03-21T13:31:03Z</time>
      </trkpt>
      <trkpt lat="43.93857" lon="1.85953">
        <ele>306.6</ele>
        <time>2021-03-21T13:31:04Z</time>
      </trkpt>
      <trkpt lat="43.93857" lon="1.85952">
        <ele>307</ele>
        <time>2021-03-21T13:31:05Z</time>
      </trkpt>
      <trkpt lat="43.93858" lon="1.8595">
        <ele>307</ele>
        <time>2021-03-21T13:31:06Z</time>
      </trkpt>
      <trkpt lat="43.93859" lon="1.85947">
        <ele>307.2</ele>
        <time>2021-03-21T13:31:07Z</time>
      </trkpt>
      <trkpt lat="43.93859" lon="1.85945">
        <ele>307.8</ele>
        <time>2021-03-21T13:31:08Z</time>
      </trkpt>
      <trkpt lat="43.9386" lon="1.85943">
        <ele>308.2</ele>
        <time>2021-03-21T13:31:09Z</time>
      </trkpt>
      <trkpt lat="43.93861" lon="1.85941">
        <ele>308.6</ele>
        <time>2021-03-21T13:31:10Z</time>
      </trkpt>
      <trkpt lat="43.93862" lon="1.85939">
        <ele>309</ele>
        <time>2021-03-21T13:31:11Z</time>
      </trkpt>
      <trkpt lat="43.93862" lon="1.85937">
        <ele>309</ele>
        <time>2021-03-21T13:31:12Z</time>
      </trkpt>
      <trkpt lat="43.93863" lon="1.85935">
        <ele>309.2</ele>
        <time>2021-03-21T13:31:13Z</time>
      </trkpt>
      <trkpt lat="43.93864" lon="1.85933">
        <ele>309.2</ele>
        <time>2021-03-21T13:31:14Z</time>
      </trkpt>
      <trkpt lat="43.93864" lon="1.85931">
        <ele>309.2</ele>
        <time>2021-03-21T13:31:15Z</time>
      </trkpt>
      <trkpt lat="43.93865" lon="1.85929">
        <ele>309.4</ele>
        <time>2021-03-21T13:31:16Z</time>
      </trkpt>
      <trkpt lat="43.93866" lon="1.85928">
        <ele>309.6</ele>
        <time>2021-03-21T13:31:17Z</time>
      </trkpt>
      <trkpt lat="43.93867" lon="1.85926">
        <ele>309.8</ele>
        <time>2021-03-21T13:31:18Z</time>
      </trkpt>
      <trkpt lat="43.93868" lon="1.85924">
        <ele>309.8</ele>
        <time>2021-03-21T13:31:19Z</time>
      </trkpt>
      <trkpt lat="43.93869" lon="1.85922">
        <ele>309.8</ele>
        <time>2021-03-21T13:31:20Z</time>
      </trkpt>
      <trkpt lat="43.9387" lon="1.85921">
        <ele>310</ele>
        <time>2021-03-21T13:31:21Z</time>
      </trkpt>
      <trkpt lat="43.9387" lon="1.85919">
        <ele>310</ele>
        <time>2021-03-21T13:31:22Z</time>
      </trkpt>
      <trkpt lat="43.93871" lon="1.85917">
        <ele>310.4</ele>
        <time>2021-03-21T13:31:23Z</time>
      </trkpt>
      <trkpt lat="43.93872" lon="1.85915">
        <ele>310.4</ele>
        <time>2021-03-21T13:31:24Z</time>
      </trkpt>
      <trkpt lat="43.93873" lon="1.85913">
        <ele>310.8</ele>
        <time>2021-03-21T13:31:25Z</time>
      </trkpt>
      <trkpt lat="43.93873" lon="1.85912">
        <ele>310.6</ele>
        <time>2021-03-21T13:31:26Z</time>
      </trkpt>
      <trkpt lat="43.93874" lon="1.8591">
        <ele>310.6</ele>
        <time>2021-03-21T13:31:27Z</time>
      </trkpt>
      <trkpt lat="43.93875" lon="1.85908">
        <ele>311</ele>
        <time>2021-03-21T13:31:28Z</time>
      </trkpt>
      <trkpt lat="43.93875" lon="1.85906">
        <ele>311.4</ele>
        <time>2021-03-21T13:31:29Z</time>
      </trkpt>
      <trkpt lat="43.93876" lon="1.85904">
        <ele>311.6</ele>
        <time>2021-03-21T13:31:30Z</time>
      </trkpt>
      <trkpt lat="43.93877" lon="1.85902">
        <ele>311.8</ele>
        <time>2021-03-21T13:31:31Z</time>
      </trkpt>
      <trkpt lat="43.93878" lon="1.85901">
        <ele>311.8</ele>
        <time>2021-03-21T13:31:32Z</time>
      </trkpt>
      <trkpt lat="43.93878" lon="1.85899">
        <ele>312.2</ele>
        <time>2021-03-21T13:31:33Z</time>
      </trkpt>
      <trkpt lat="43.93879" lon="1.85897">
        <ele>312.4</ele>
        <time>2021-03-21T13:31:34Z</time>
      </trkpt>
      <trkpt lat="43.9388" lon="1.85895">
        <ele>312.4</ele>
        <time>2021-03-21T13:31:35Z</time>
      </trkpt>
      <trkpt lat="43.93881" lon="1.85893">
        <ele>312.6</ele>
        <time>2021-03-21T13:31:36Z</time>
      </trkpt>
      <trkpt lat="43.93881" lon="1.85891">
        <ele>312.8</ele>
        <time>2021-03-21T13:31:37Z</time>
      </trkpt>
      <trkpt lat="43.93882" lon="1.8589">
        <ele>313.2</ele>
        <time>2021-03-21T13:31:38Z</time>
      </trkpt>
      <trkpt lat="43.93883" lon="1.85888">
        <ele>313.2</ele>
        <time>2021-03-21T13:31:39Z</time>
      </trkpt>
      <trkpt lat="43.93884" lon="1.85886">
        <ele>313.4</ele>
        <time>2021-03-21T13:31:40Z</time>
      </trkpt>
      <trkpt lat="43.93884" lon="1.85884">
        <ele>313.6</ele>
        <time>2021-03-21T13:31:41Z</time>
      </trkpt>
      <trkpt lat="43.93885" lon="1.85883">
        <ele>313.6</ele>
        <time>2021-03-21T13:31:42Z</time>
      </trkpt>
      <trkpt lat="43.93886" lon="1.85881">
        <ele>313.8</ele>
        <time>2021-03-21T13:31:43Z</time>
      </trkpt>
      <trkpt lat="43.93887" lon="1.85879">
        <ele>314.2</ele>
        <time>2021-03-21T13:31:44Z</time>
      </trkpt>
      <trkpt lat="43.93887" lon="1.85877">
        <ele>314.2</ele>
        <time>2021-03-21T13:31:45Z</time>
      </trkpt>
      <trkpt lat="43.93888" lon="1.85876">
        <ele>314.4</ele>
        <time>2021-03-21T13:31:46Z</time>
      </trkpt>
      <trkpt lat="43.93888" lon="1.85874">
        <ele>314.6</ele>
        <time>2021-03-21T13:31:47Z</time>
      </trkpt>
      <trkpt lat="43.93889" lon="1.85873">
        <ele>314.6</ele>
        <time>2021-03-21T13:31:48Z</time>
      </trkpt>
      <trkpt lat="43.9389" lon="1.85871">
        <ele>314.8</ele>
        <time>2021-03-21T13:31:49Z</time>
      </trkpt>
      <trkpt lat="43.9389" lon="1.8587">
        <ele>315</ele>
        <time>2021-03-21T13:31:50Z</time>
      </trkpt>
      <trkpt lat="43.93891" lon="1.85868">
        <ele>315</ele>
        <time>2021-03-21T13:31:51Z</time>
      </trkpt>
      <trkpt lat="43.93891" lon="1.85866">
        <ele>315.2</ele>
        <time>2021-03-21T13:31:52Z</time>
      </trkpt>
      <trkpt lat="43.93892" lon="1.85865">
        <ele>315.2</ele>
        <time>2021-03-21T13:31:53Z</time>
      </trkpt>
      <trkpt lat="43.93892" lon="1.85863">
        <ele>315.4</ele>
        <time>2021-03-21T13:31:54Z</time>
      </trkpt>
      <trkpt lat="43.93893" lon="1.85862">
        <ele>315.6</ele>
        <time>2021-03-21T13:31:55Z</time>
      </trkpt>
      <trkpt lat="43.93893" lon="1.8586">
        <ele>315.8</ele>
        <time>2021-03-21T13:31:56Z</time>
      </trkpt>
      <trkpt lat="43.93894" lon="1.85858">
        <ele>315.8</ele>
        <time>2021-03-21T13:31:57Z</time>
      </trkpt>
      <trkpt lat="43.93895" lon="1.85857">
        <ele>316</ele>
        <time>2021-03-21T13:31:58Z</time>
      </trkpt>
      <trkpt lat="43.93895" lon="1.85855">
        <ele>316.2</ele>
        <time>2021-03-21T13:31:59Z</time>
      </trkpt>
      <trkpt lat="43.93896" lon="1.85854">
        <ele>316.2</ele>
        <time>2021-03-21T13:32:00Z</time>
      </trkpt>
      <trkpt lat="43.93896" lon="1.85852">
        <ele>316.2</ele>
        <time>2021-03-21T13:32:01Z</time>
      </trkpt>
      <trkpt lat="43.93897" lon="1.85851">
        <ele>316.6</ele>
        <time>2021-03-21T13:32:02Z</time>
      </trkpt>
      <trkpt lat="43.93897" lon="1.85849">
        <ele>316.8</ele>
        <time>2021-03-21T13:32:03Z</time>
      </trkpt>
      <trkpt lat="43.93898" lon="1.85848">
        <ele>316.8</ele>
        <time>2021-03-21T13:32:04Z</time>
      </trkpt>
      <trkpt lat="43.93899" lon="1.85847">
        <ele>316.8</ele>
        <time>2021-03-21T13:32:05Z</time>
      </trkpt>
      <trkpt lat="43.93899" lon="1.85845">
        <ele>317</ele>
        <time>2021-03-21T13:32:06Z</time>
      </trkpt>
      <trkpt lat="43.939" lon="1.85844">
        <ele>317</ele>
        <time>2021-03-21T13:32:07Z</time>
      </trkpt>
      <trkpt lat="43.939" lon="1.85842">
        <ele>317</ele>
        <time>2021-03-21T13:32:08Z</time>
      </trkpt>
      <trkpt lat="43.93901" lon="1.85841">
        <ele>317.2</ele>
        <time>2021-03-21T13:32:09Z</time>
      </trkpt>
      <trkpt lat="43.93902" lon="1.8584">
        <ele>317.4</ele>
        <time>2021-03-21T13:32:10Z</time>
      </trkpt>
      <trkpt lat="43.93902" lon="1.85838">
        <ele>317.4</ele>
        <time>2021-03-21T13:32:11Z</time>
      </trkpt>
      <trkpt lat="43.93903" lon="1.85837">
        <ele>317.6</ele>
        <time>2021-03-21T13:32:12Z</time>
      </trkpt>
      <trkpt lat="43.93904" lon="1.85835">
        <ele>318</ele>
        <time>2021-03-21T13:32:13Z</time>
      </trkpt>
      <trkpt lat="43.93904" lon="1.85834">
        <ele>318</ele>
        <time>2021-03-21T13:32:14Z</time>
      </trkpt>
      <trkpt lat="43.93905" lon="1.85832">
        <ele>318.4</ele>
        <time>2021-03-21T13:32:15Z</time>
      </trkpt>
      <trkpt lat="43.93906" lon="1.85831">
        <ele>318.8</ele>
        <time>2021-03-21T13:32:16Z</time>
      </trkpt>
      <trkpt lat="43.93906" lon="1.85829">
        <ele>319.2</ele>
        <time>2021-03-21T13:32:17Z</time>
      </trkpt>
      <trkpt lat="43.93907" lon="1.85828">
        <ele>319.6</ele>
        <time>2021-03-21T13:32:18Z</time>
      </trkpt>
      <trkpt lat="43.93907" lon="1.85826">
        <ele>319.6</ele>
        <time>2021-03-21T13:32:19Z</time>
      </trkpt>
      <trkpt lat="43.93908" lon="1.85825">
        <ele>319.8</ele>
        <time>2021-03-21T13:32:20Z</time>
      </trkpt>
      <trkpt lat="43.93909" lon="1.85823">
        <ele>320</ele>
        <time>2021-03-21T13:32:21Z</time>
      </trkpt>
      <trkpt lat="43.93909" lon="1.85822">
        <ele>320</ele>
        <time>2021-03-21T13:32:22Z</time>
      </trkpt>
      <trkpt lat="43.9391" lon="1.8582">
        <ele>320.2</ele>
        <time>2021-03-21T13:32:23Z</time>
      </trkpt>
      <trkpt lat="43.93911" lon="1.85819">
        <ele>320.4</ele>
        <time>2021-03-21T13:32:24Z</time>
      </trkpt>
      <trkpt lat="43.93911" lon="1.85817">
        <ele>320.6</ele>
        <time>2021-03-21T13:32:25Z</time>
      </trkpt>
      <trkpt lat="43.93912" lon="1.85816">
        <ele>320.8</ele>
        <time>2021-03-21T13:32:26Z</time>
      </trkpt>
      <trkpt lat="43.93913" lon="1.85814">
        <ele>320.8</ele>
        <time>2021-03-21T13:32:27Z</time>
      </trkpt>
      <trkpt lat="43.93913" lon="1.85813">
        <ele>321.2</ele>
        <time>2021-03-21T13:32:28Z</time>
      </trkpt>
      <trkpt lat="43.93914" lon="1.85811">
        <ele>321.2</ele>
        <time>2021-03-21T13:32:29Z</time>
      </trkpt>
      <trkpt lat="43.93915" lon="1.8581">
        <ele>321.2</ele>
        <time>2021-03-21T13:32:30Z</time>
      </trkpt>
      <trkpt lat="43.93915" lon="1.85808">
        <ele>321.2</ele>
        <time>2021-03-21T13:32:31Z</time>
      </trkpt>
      <trkpt lat="43.93916" lon="1.85807">
        <ele>321.2</ele>
        <time>2021-03-21T13:32:32Z</time>
      </trkpt>
      <trkpt lat="43.93916" lon="1.85805">
        <ele>321.4</ele>
        <time>2021-03-21T13:32:33Z</time>
      </trkpt>
      <trkpt lat="43.93917" lon="1.85804">
        <ele>321.4</ele>
        <time>2021-03-21T13:32:34Z</time>
      </trkpt>
      <trkpt lat="43.93918" lon="1.85802">
        <ele>321.4</ele>
        <time>2021-03-21T13:32:35Z</time>
      </trkpt>
      <trkpt lat="43.93918" lon="1.85801">
        <ele>321.4</ele>
        <time>2021-03-21T13:32:36Z</time>
      </trkpt>
      <trkpt lat="43.93919" lon="1.85799">
        <ele>321.6</ele>
        <time>2021-03-21T13:32:37Z</time>
      </trkpt>
      <trkpt lat="43.9392" lon="1.85798">
        <ele>322.2</ele>
        <time>2021-03-21T13:32:38Z</time>
      </trkpt>
      <trkpt lat="43.9392" lon="1.85796">
        <ele>322.6</ele>
        <time>2021-03-21T13:32:39Z</time>
      </trkpt>
      <trkpt lat="43.93921" lon="1.85795">
        <ele>322.8</ele>
        <time>2021-03-21T13:32:40Z</time>
      </trkpt>
      <trkpt lat="43.93922" lon="1.85793">
        <ele>323</ele>
        <time>2021-03-21T13:32:41Z</time>
      </trkpt>
      <trkpt lat="43.93922" lon="1.85792">
        <ele>323.2</ele>
        <time>2021-03-21T13:32:42Z</time>
      </trkpt>
      <trkpt lat="43.93923" lon="1.8579">
        <ele>323.4</ele>
        <time>2021-03-21T13:32:43Z</time>
      </trkpt>
      <trkpt lat="43.93924" lon="1.85789">
        <ele>323.4</ele>
        <time>2021-03-21T13:32:44Z</time>
      </trkpt>
      <trkpt lat="43.93924" lon="1.85787">
        <ele>323.6</ele>
        <time>2021-03-21T13:32:45Z</time>
      </trkpt>
      <trkpt lat="43.93925" lon="1.85786">
        <ele>323.8</ele>
        <time>2021-03-21T13:32:46Z</time>
      </trkpt>
      <trkpt lat="43.93926" lon="1.85784">
        <ele>324</ele>
        <time>2021-03-21T13:32:47Z</time>
      </trkpt>
      <trkpt lat="43.93926" lon="1.85783">
        <ele>324.2</ele>
        <time>2021-03-21T13:32:48Z</time>
      </trkpt>
      <trkpt lat="43.93927" lon="1.85781">
        <ele>324.2</ele>
        <time>2021-03-21T13:32:49Z</time>
      </trkpt>
      <trkpt lat="43.93928" lon="1.8578">
        <ele>324.2</ele>
        <time>2021-03-21T13:32:50Z</time>
      </trkpt>
      <trkpt lat="43.93928" lon="1.85778">
        <ele>324.2</ele>
        <time>2021-03-21T13:32:51Z</time>
      </trkpt>
      <trkpt lat="43.93929" lon="1.85776">
        <ele>324.4</ele>
        <time>2021-03-21T13:32:52Z</time>
      </trkpt>
      <trkpt lat="43.9393" lon="1.85775">
        <ele>324.4</ele>
        <time>2021-03-21T13:32:53Z</time>
      </trkpt>
      <trkpt lat="43.9393" lon="1.85773">
        <ele>324.4</ele>
        <time>2021-03-21T13:32:54Z</time>
      </trkpt>
      <trkpt lat="43.93931" lon="1.85772">
        <ele>324.6</ele>
        <time>2021-03-21T13:32:55Z</time>
      </trkpt>
      <trkpt lat="43.93931" lon="1.8577">
        <ele>325</ele>
        <time>2021-03-21T13:32:56Z</time>
      </trkpt>
      <trkpt lat="43.93932" lon="1.85768">
        <ele>325</ele>
        <time>2021-03-21T13:32:57Z</time>
      </trkpt>
      <trkpt lat="43.93933" lon="1.85767">
        <ele>325.2</ele>
        <time>2021-03-21T13:32:58Z</time>
      </trkpt>
      <trkpt lat="43.93933" lon="1.85765">
        <ele>325.4</ele>
        <time>2021-03-21T13:32:59Z</time>
      </trkpt>
      <trkpt lat="43.93934" lon="1.85764">
        <ele>325.6</ele>
        <time>2021-03-21T13:33:00Z</time>
      </trkpt>
      <trkpt lat="43.93935" lon="1.85762">
        <ele>325.4</ele>
        <time>2021-03-21T13:33:01Z</time>
      </trkpt>
      <trkpt lat="43.93935" lon="1.85761">
        <ele>325.6</ele>
        <time>2021-03-21T13:33:02Z</time>
      </trkpt>
      <trkpt lat="43.93936" lon="1.8576">
        <ele>325.8</ele>
        <time>2021-03-21T13:33:03Z</time>
      </trkpt>
      <trkpt lat="43.93937" lon="1.85758">
        <ele>325.8</ele>
        <time>2021-03-21T13:33:04Z</time>
      </trkpt>
      <trkpt lat="43.93937" lon="1.85757">
        <ele>326</ele>
        <time>2021-03-21T13:33:05Z</time>
      </trkpt>
      <trkpt lat="43.93938" lon="1.85756">
        <ele>326.4</ele>
        <time>2021-03-21T13:33:06Z</time>
      </trkpt>
      <trkpt lat="43.93938" lon="1.85754">
        <ele>326.4</ele>
        <time>2021-03-21T13:33:07Z</time>
      </trkpt>
      <trkpt lat="43.93939" lon="1.85753">
        <ele>326.8</ele>
        <time>2021-03-21T13:33:08Z</time>
      </trkpt>
      <trkpt lat="43.9394" lon="1.85751">
        <ele>326.8</ele>
        <time>2021-03-21T13:33:09Z</time>
      </trkpt>
      <trkpt lat="43.9394" lon="1.85749">
        <ele>327</ele>
        <time>2021-03-21T13:33:10Z</time>
      </trkpt>
      <trkpt lat="43.93941" lon="1.85748">
        <ele>327</ele>
        <time>2021-03-21T13:33:11Z</time>
      </trkpt>
      <trkpt lat="43.93942" lon="1.85747">
        <ele>327.2</ele>
        <time>2021-03-21T13:33:12Z</time>
      </trkpt>
      <trkpt lat="43.93942" lon="1.85745">
        <ele>327.2</ele>
        <time>2021-03-21T13:33:13Z</time>
      </trkpt>
      <trkpt lat="43.93943" lon="1.85744">
        <ele>327.6</ele>
        <time>2021-03-21T13:33:14Z</time>
      </trkpt>
      <trkpt lat="43.93944" lon="1.85742">
        <ele>327.6</ele>
        <time>2021-03-21T13:33:15Z</time>
      </trkpt>
      <trkpt lat="43.93944" lon="1.85741">
        <ele>327.6</ele>
        <time>2021-03-21T13:33:16Z</time>
      </trkpt>
      <trkpt lat="43.93945" lon="1.85739">
        <ele>328</ele>
        <time>2021-03-21T13:33:17Z</time>
      </trkpt>
      <trkpt lat="43.93945" lon="1.85738">
        <ele>328</ele>
        <time>2021-03-21T13:33:18Z</time>
      </trkpt>
      <trkpt lat="43.93946" lon="1.85736">
        <ele>328.2</ele>
        <time>2021-03-21T13:33:19Z</time>
      </trkpt>
      <trkpt lat="43.93946" lon="1.85734">
        <ele>328.6</ele>
        <time>2021-03-21T13:33:20Z</time>
      </trkpt>
      <trkpt lat="43.93946" lon="1.85733">
        <ele>329</ele>
        <time>2021-03-21T13:33:21Z</time>
      </trkpt>
      <trkpt lat="43.93947" lon="1.85731">
        <ele>329.4</ele>
        <time>2021-03-21T13:33:22Z</time>
      </trkpt>
      <trkpt lat="43.93947" lon="1.8573">
        <ele>329.8</ele>
        <time>2021-03-21T13:33:23Z</time>
      </trkpt>
      <trkpt lat="43.93947" lon="1.85728">
        <ele>330</ele>
        <time>2021-03-21T13:33:24Z</time>
      </trkpt>
      <trkpt lat="43.93948" lon="1.85727">
        <ele>330.6</ele>
        <time>2021-03-21T13:33:25Z</time>
      </trkpt>
      <trkpt lat="43.93948" lon="1.85725">
        <ele>330.8</ele>
        <time>2021-03-21T13:33:26Z</time>
      </trkpt>
      <trkpt lat="43.93948" lon="1.85723">
        <ele>330.8</ele>
        <time>2021-03-21T13:33:27Z</time>
      </trkpt>
      <trkpt lat="43.93948" lon="1.85721">
        <ele>331</ele>
        <time>2021-03-21T13:33:28Z</time>
      </trkpt>
      <trkpt lat="43.93949" lon="1.8572">
        <ele>331</ele>
        <time>2021-03-21T13:33:29Z</time>
      </trkpt>
      <trkpt lat="43.93949" lon="1.85718">
        <ele>331</ele>
        <time>2021-03-21T13:33:30Z</time>
      </trkpt>
      <trkpt lat="43.93949" lon="1.85716">
        <ele>331.2</ele>
        <time>2021-03-21T13:33:31Z</time>
      </trkpt>
      <trkpt lat="43.9395" lon="1.85714">
        <ele>331.2</ele>
        <time>2021-03-21T13:33:32Z</time>
      </trkpt>
      <trkpt lat="43.9395" lon="1.85713">
        <ele>331.4</ele>
        <time>2021-03-21T13:33:33Z</time>
      </trkpt>
      <trkpt lat="43.9395" lon="1.85711">
        <ele>331.4</ele>
        <time>2021-03-21T13:33:34Z</time>
      </trkpt>
      <trkpt lat="43.9395" lon="1.85709">
        <ele>331.4</ele>
        <time>2021-03-21T13:33:35Z</time>
      </trkpt>
      <trkpt lat="43.93951" lon="1.85707">
        <ele>331.4</ele>
        <time>2021-03-21T13:33:36Z</time>
      </trkpt>
      <trkpt lat="43.93951" lon="1.85706">
        <ele>331.6</ele>
        <time>2021-03-21T13:33:37Z</time>
      </trkpt>
      <trkpt lat="43.93951" lon="1.85704">
        <ele>331.6</ele>
        <time>2021-03-21T13:33:38Z</time>
      </trkpt>
      <trkpt lat="43.93951" lon="1.85702">
        <ele>331.6</ele>
        <time>2021-03-21T13:33:39Z</time>
      </trkpt>
      <trkpt lat="43.93951" lon="1.857">
        <ele>331.4</ele>
        <time>2021-03-21T13:33:40Z</time>
      </trkpt>
      <trkpt lat="43.93951" lon="1.85698">
        <ele>331.4</ele>
        <time>2021-03-21T13:33:41Z</time>
      </trkpt>
      <trkpt lat="43.93951" lon="1.85694">
        <ele>331.6</ele>
        <time>2021-03-21T13:33:43Z</time>
      </trkpt>
      <trkpt lat="43.93952" lon="1.85692">
        <ele>331.4</ele>
        <time>2021-03-21T13:33:44Z</time>
      </trkpt>
      <trkpt lat="43.93952" lon="1.8569">
        <ele>331.4</ele>
        <time>2021-03-21T13:33:45Z</time>
      </trkpt>
      <trkpt lat="43.93953" lon="1.85688">
        <ele>331.6</ele>
        <time>2021-03-21T13:33:46Z</time>
      </trkpt>
      <trkpt lat="43.93953" lon="1.85687">
        <ele>331.4</ele>
        <time>2021-03-21T13:33:47Z</time>
      </trkpt>
      <trkpt lat="43.93954" lon="1.85685">
        <ele>331.4</ele>
        <time>2021-03-21T13:33:48Z</time>
      </trkpt>
      <trkpt lat="43.93954" lon="1.85683">
        <ele>331.6</ele>
        <time>2021-03-21T13:33:49Z</time>
      </trkpt>
      <trkpt lat="43.93955" lon="1.85681">
        <ele>331.6</ele>
        <time>2021-03-21T13:33:50Z</time>
      </trkpt>
      <trkpt lat="43.93955" lon="1.85679">
        <ele>331.6</ele>
        <time>2021-03-21T13:33:51Z</time>
      </trkpt>
      <trkpt lat="43.93956" lon="1.85677">
        <ele>331.8</ele>
        <time>2021-03-21T13:33:52Z</time>
      </trkpt>
      <trkpt lat="43.93956" lon="1.85675">
        <ele>332</ele>
        <time>2021-03-21T13:33:53Z</time>
      </trkpt>
      <trkpt lat="43.93957" lon="1.85673">
        <ele>332.2</ele>
        <time>2021-03-21T13:33:54Z</time>
      </trkpt>
      <trkpt lat="43.93958" lon="1.85672">
        <ele>332.6</ele>
        <time>2021-03-21T13:33:55Z</time>
      </trkpt>
      <trkpt lat="43.93958" lon="1.8567">
        <ele>332.6</ele>
        <time>2021-03-21T13:33:56Z</time>
      </trkpt>
      <trkpt lat="43.93959" lon="1.85668">
        <ele>332.8</ele>
        <time>2021-03-21T13:33:57Z</time>
      </trkpt>
      <trkpt lat="43.9396" lon="1.85667">
        <ele>333</ele>
        <time>2021-03-21T13:33:58Z</time>
      </trkpt>
      <trkpt lat="43.93961" lon="1.85665">
        <ele>333.2</ele>
        <time>2021-03-21T13:33:59Z</time>
      </trkpt>
      <trkpt lat="43.93961" lon="1.85664">
        <ele>333.4</ele>
        <time>2021-03-21T13:34:00Z</time>
      </trkpt>
      <trkpt lat="43.93962" lon="1.85662">
        <ele>333.6</ele>
        <time>2021-03-21T13:34:01Z</time>
      </trkpt>
      <trkpt lat="43.93963" lon="1.8566">
        <ele>333.6</ele>
        <time>2021-03-21T13:34:02Z</time>
      </trkpt>
      <trkpt lat="43.93964" lon="1.85659">
        <ele>333.6</ele>
        <time>2021-03-21T13:34:03Z</time>
      </trkpt>
      <trkpt lat="43.93965" lon="1.85657">
        <ele>333.8</ele>
        <time>2021-03-21T13:34:04Z</time>
      </trkpt>
      <trkpt lat="43.93965" lon="1.85656">
        <ele>333.8</ele>
        <time>2021-03-21T13:34:05Z</time>
      </trkpt>
      <trkpt lat="43.93966" lon="1.85654">
        <ele>333.8</ele>
        <time>2021-03-21T13:34:06Z</time>
      </trkpt>
      <trkpt lat="43.93967" lon="1.85653">
        <ele>334</ele>
        <time>2021-03-21T13:34:07Z</time>
      </trkpt>
      <trkpt lat="43.93968" lon="1.85651">
        <ele>334</ele>
        <time>2021-03-21T13:34:08Z</time>
      </trkpt>
      <trkpt lat="43.93969" lon="1.8565">
        <ele>334</ele>
        <time>2021-03-21T13:34:09Z</time>
      </trkpt>
      <trkpt lat="43.9397" lon="1.85648">
        <ele>334.2</ele>
        <time>2021-03-21T13:34:10Z</time>
      </trkpt>
      <trkpt lat="43.93971" lon="1.85646">
        <ele>334.2</ele>
        <time>2021-03-21T13:34:11Z</time>
      </trkpt>
      <trkpt lat="43.93971" lon="1.85645">
        <ele>334.6</ele>
        <time>2021-03-21T13:34:12Z</time>
      </trkpt>
      <trkpt lat="43.93972" lon="1.85644">
        <ele>334.8</ele>
        <time>2021-03-21T13:34:13Z</time>
      </trkpt>
      <trkpt lat="43.93973" lon="1.85642">
        <ele>334.8</ele>
        <time>2021-03-21T13:34:14Z</time>
      </trkpt>
      <trkpt lat="43.93974" lon="1.85641">
        <ele>335</ele>
        <time>2021-03-21T13:34:15Z</time>
      </trkpt>
      <trkpt lat="43.93975" lon="1.8564">
        <ele>335</ele>
        <time>2021-03-21T13:34:16Z</time>
      </trkpt>
      <trkpt lat="43.93976" lon="1.85638">
        <ele>335.2</ele>
        <time>2021-03-21T13:34:17Z</time>
      </trkpt>
      <trkpt lat="43.93976" lon="1.85637">
        <ele>335.4</ele>
        <time>2021-03-21T13:34:18Z</time>
      </trkpt>
      <trkpt lat="43.93977" lon="1.85636">
        <ele>335.6</ele>
        <time>2021-03-21T13:34:19Z</time>
      </trkpt>
      <trkpt lat="43.93978" lon="1.85634">
        <ele>335.6</ele>
        <time>2021-03-21T13:34:20Z</time>
      </trkpt>
      <trkpt lat="43.93979" lon="1.85633">
        <ele>335.6</ele>
        <time>2021-03-21T13:34:21Z</time>
      </trkpt>
      <trkpt lat="43.9398" lon="1.85632">
        <ele>335.8</ele>
        <time>2021-03-21T13:34:22Z</time>
      </trkpt>
      <trkpt lat="43.93981" lon="1.85631">
        <ele>336.2</ele>
        <time>2021-03-21T13:34:23Z</time>
      </trkpt>
      <trkpt lat="43.93982" lon="1.8563">
        <ele>336.2</ele>
        <time>2021-03-21T13:34:24Z</time>
      </trkpt>
      <trkpt lat="43.93983" lon="1.85629">
        <ele>336.6</ele>
        <time>2021-03-21T13:34:25Z</time>
      </trkpt>
      <trkpt lat="43.93984" lon="1.85627">
        <ele>336.6</ele>
        <time>2021-03-21T13:34:26Z</time>
      </trkpt>
      <trkpt lat="43.93985" lon="1.85626">
        <ele>337</ele>
        <time>2021-03-21T13:34:27Z</time>
      </trkpt>
      <trkpt lat="43.93986" lon="1.85624">
        <ele>337</ele>
        <time>2021-03-21T13:34:28Z</time>
      </trkpt>
      <trkpt lat="43.93987" lon="1.85623">
        <ele>337</ele>
        <time>2021-03-21T13:34:29Z</time>
      </trkpt>
      <trkpt lat="43.93988" lon="1.85622">
        <ele>337.2</ele>
        <time>2021-03-21T13:34:30Z</time>
      </trkpt>
      <trkpt lat="43.93989" lon="1.8562">
        <ele>337.2</ele>
        <time>2021-03-21T13:34:31Z</time>
      </trkpt>
      <trkpt lat="43.93989" lon="1.85619">
        <ele>337.4</ele>
        <time>2021-03-21T13:34:32Z</time>
      </trkpt>
      <trkpt lat="43.9399" lon="1.85618">
        <ele>337.4</ele>
        <time>2021-03-21T13:34:33Z</time>
      </trkpt>
      <trkpt lat="43.93991" lon="1.85616">
        <ele>337.6</ele>
        <time>2021-03-21T13:34:34Z</time>
      </trkpt>
      <trkpt lat="43.93992" lon="1.85615">
        <ele>337.8</ele>
        <time>2021-03-21T13:34:35Z</time>
      </trkpt>
      <trkpt lat="43.93993" lon="1.85614">
        <ele>337.8</ele>
        <time>2021-03-21T13:34:36Z</time>
      </trkpt>
      <trkpt lat="43.93994" lon="1.85612">
        <ele>338.2</ele>
        <time>2021-03-21T13:34:37Z</time>
      </trkpt>
      <trkpt lat="43.93995" lon="1.85611">
        <ele>338.6</ele>
        <time>2021-03-21T13:34:38Z</time>
      </trkpt>
      <trkpt lat="43.93996" lon="1.85609">
        <ele>339</ele>
        <time>2021-03-21T13:34:39Z</time>
      </trkpt>
      <trkpt lat="43.93997" lon="1.85608">
        <ele>339.2</ele>
        <time>2021-03-21T13:34:40Z</time>
      </trkpt>
      <trkpt lat="43.93998" lon="1.85607">
        <ele>339.4</ele>
        <time>2021-03-21T13:34:41Z</time>
      </trkpt>
      <trkpt lat="43.93999" lon="1.85605">
        <ele>339.4</ele>
        <time>2021-03-21T13:34:42Z</time>
      </trkpt>
      <trkpt lat="43.94" lon="1.85604">
        <ele>339.6</ele>
        <time>2021-03-21T13:34:43Z</time>
      </trkpt>
      <trkpt lat="43.94" lon="1.85602">
        <ele>339.8</ele>
        <time>2021-03-21T13:34:44Z</time>
      </trkpt>
      <trkpt lat="43.94001" lon="1.85601">
        <ele>339.8</ele>
        <time>2021-03-21T13:34:45Z</time>
      </trkpt>
      <trkpt lat="43.94002" lon="1.85599">
        <ele>339.8</ele>
        <time>2021-03-21T13:34:46Z</time>
      </trkpt>
      <trkpt lat="43.94003" lon="1.85598">
        <ele>339.8</ele>
        <time>2021-03-21T13:34:47Z</time>
      </trkpt>
      <trkpt lat="43.94004" lon="1.85597">
        <ele>340</ele>
        <time>2021-03-21T13:34:48Z</time>
      </trkpt>
      <trkpt lat="43.94005" lon="1.85595">
        <ele>340.2</ele>
        <time>2021-03-21T13:34:49Z</time>
      </trkpt>
      <trkpt lat="43.94006" lon="1.85594">
        <ele>340.2</ele>
        <time>2021-03-21T13:34:50Z</time>
      </trkpt>
      <trkpt lat="43.94006" lon="1.85593">
        <ele>340.2</ele>
        <time>2021-03-21T13:34:51Z</time>
      </trkpt>
      <trkpt lat="43.94007" lon="1.85591">
        <ele>340.4</ele>
        <time>2021-03-21T13:34:52Z</time>
      </trkpt>
      <trkpt lat="43.94008" lon="1.85589">
        <ele>340.4</ele>
        <time>2021-03-21T13:34:53Z</time>
      </trkpt>
      <trkpt lat="43.94009" lon="1.85588">
        <ele>340.4</ele>
        <time>2021-03-21T13:34:54Z</time>
      </trkpt>
      <trkpt lat="43.94009" lon="1.85587">
        <ele>340.4</ele>
        <time>2021-03-21T13:34:55Z</time>
      </trkpt>
      <trkpt lat="43.9401" lon="1.85585">
        <ele>340.6</ele>
        <time>2021-03-21T13:34:56Z</time>
      </trkpt>
      <trkpt lat="43.94011" lon="1.85584">
        <ele>340.6</ele>
        <time>2021-03-21T13:34:57Z</time>
      </trkpt>
      <trkpt lat="43.94012" lon="1.85582">
        <ele>340.8</ele>
        <time>2021-03-21T13:34:58Z</time>
      </trkpt>
      <trkpt lat="43.94013" lon="1.85581">
        <ele>341</ele>
        <time>2021-03-21T13:34:59Z</time>
      </trkpt>
      <trkpt lat="43.94014" lon="1.85579">
        <ele>341.6</ele>
        <time>2021-03-21T13:35:00Z</time>
      </trkpt>
      <trkpt lat="43.94014" lon="1.85578">
        <ele>341.8</ele>
        <time>2021-03-21T13:35:01Z</time>
      </trkpt>
      <trkpt lat="43.94015" lon="1.85576">
        <ele>342</ele>
        <time>2021-03-21T13:35:02Z</time>
      </trkpt>
      <trkpt lat="43.94016" lon="1.85575">
        <ele>342.4</ele>
        <time>2021-03-21T13:35:03Z</time>
      </trkpt>
      <trkpt lat="43.94016" lon="1.85573">
        <ele>342.4</ele>
        <time>2021-03-21T13:35:04Z</time>
      </trkpt>
      <trkpt lat="43.94017" lon="1.85572">
        <ele>342.6</ele>
        <time>2021-03-21T13:35:05Z</time>
      </trkpt>
      <trkpt lat="43.94018" lon="1.8557">
        <ele>342.8</ele>
        <time>2021-03-21T13:35:06Z</time>
      </trkpt>
      <trkpt lat="43.94018" lon="1.85569">
        <ele>342.8</ele>
        <time>2021-03-21T13:35:07Z</time>
      </trkpt>
      <trkpt lat="43.94019" lon="1.85567">
        <ele>343</ele>
        <time>2021-03-21T13:35:08Z</time>
      </trkpt>
      <trkpt lat="43.9402" lon="1.85566">
        <ele>343.2</ele>
        <time>2021-03-21T13:35:09Z</time>
      </trkpt>
      <trkpt lat="43.9402" lon="1.85564">
        <ele>343.4</ele>
        <time>2021-03-21T13:35:10Z</time>
      </trkpt>
      <trkpt lat="43.94021" lon="1.85563">
        <ele>343.6</ele>
        <time>2021-03-21T13:35:11Z</time>
      </trkpt>
      <trkpt lat="43.94022" lon="1.85561">
        <ele>343.4</ele>
        <time>2021-03-21T13:35:12Z</time>
      </trkpt>
      <trkpt lat="43.94022" lon="1.85559">
        <ele>343.6</ele>
        <time>2021-03-21T13:35:13Z</time>
      </trkpt>
      <trkpt lat="43.94023" lon="1.85558">
        <ele>343.8</ele>
        <time>2021-03-21T13:35:14Z</time>
      </trkpt>
      <trkpt lat="43.94024" lon="1.85556">
        <ele>343.8</ele>
        <time>2021-03-21T13:35:15Z</time>
      </trkpt>
      <trkpt lat="43.94024" lon="1.85555">
        <ele>343.8</ele>
        <time>2021-03-21T13:35:16Z</time>
      </trkpt>
      <trkpt lat="43.94025" lon="1.85553">
        <ele>344</ele>
        <time>2021-03-21T13:35:17Z</time>
      </trkpt>
      <trkpt lat="43.94026" lon="1.85551">
        <ele>344</ele>
        <time>2021-03-21T13:35:18Z</time>
      </trkpt>
      <trkpt lat="43.94026" lon="1.8555">
        <ele>344</ele>
        <time>2021-03-21T13:35:19Z</time>
      </trkpt>
      <trkpt lat="43.94027" lon="1.85548">
        <ele>344.2</ele>
        <time>2021-03-21T13:35:20Z</time>
      </trkpt>
      <trkpt lat="43.94027" lon="1.85547">
        <ele>344.4</ele>
        <time>2021-03-21T13:35:21Z</time>
      </trkpt>
      <trkpt lat="43.94028" lon="1.85545">
        <ele>344.4</ele>
        <time>2021-03-21T13:35:22Z</time>
      </trkpt>
      <trkpt lat="43.94028" lon="1.85544">
        <ele>344.6</ele>
        <time>2021-03-21T13:35:23Z</time>
      </trkpt>
      <trkpt lat="43.94029" lon="1.85542">
        <ele>344.6</ele>
        <time>2021-03-21T13:35:24Z</time>
      </trkpt>
      <trkpt lat="43.9403" lon="1.8554">
        <ele>344.8</ele>
        <time>2021-03-21T13:35:25Z</time>
      </trkpt>
      <trkpt lat="43.94031" lon="1.85539">
        <ele>345</ele>
        <time>2021-03-21T13:35:26Z</time>
      </trkpt>
      <trkpt lat="43.94031" lon="1.85537">
        <ele>345</ele>
        <time>2021-03-21T13:35:27Z</time>
      </trkpt>
      <trkpt lat="43.94032" lon="1.85536">
        <ele>345.2</ele>
        <time>2021-03-21T13:35:28Z</time>
      </trkpt>
      <trkpt lat="43.94033" lon="1.85534">
        <ele>345.4</ele>
        <time>2021-03-21T13:35:29Z</time>
      </trkpt>
      <trkpt lat="43.94033" lon="1.85532">
        <ele>345.6</ele>
        <time>2021-03-21T13:35:30Z</time>
      </trkpt>
      <trkpt lat="43.94034" lon="1.85531">
        <ele>346.2</ele>
        <time>2021-03-21T13:35:31Z</time>
      </trkpt>
      <trkpt lat="43.94035" lon="1.85529">
        <ele>346.4</ele>
        <time>2021-03-21T13:35:32Z</time>
      </trkpt>
      <trkpt lat="43.94035" lon="1.85528">
        <ele>346.8</ele>
        <time>2021-03-21T13:35:33Z</time>
      </trkpt>
      <trkpt lat="43.94036" lon="1.85526">
        <ele>346.8</ele>
        <time>2021-03-21T13:35:34Z</time>
      </trkpt>
      <trkpt lat="43.94036" lon="1.85524">
        <ele>346.8</ele>
        <time>2021-03-21T13:35:35Z</time>
      </trkpt>
      <trkpt lat="43.94037" lon="1.85523">
        <ele>346.8</ele>
        <time>2021-03-21T13:35:36Z</time>
      </trkpt>
      <trkpt lat="43.94037" lon="1.85521">
        <ele>347</ele>
        <time>2021-03-21T13:35:37Z</time>
      </trkpt>
      <trkpt lat="43.94038" lon="1.8552">
        <ele>347.2</ele>
        <time>2021-03-21T13:35:38Z</time>
      </trkpt>
      <trkpt lat="43.94039" lon="1.85519">
        <ele>347.4</ele>
        <time>2021-03-21T13:35:39Z</time>
      </trkpt>
      <trkpt lat="43.9404" lon="1.85517">
        <ele>347.6</ele>
        <time>2021-03-21T13:35:40Z</time>
      </trkpt>
      <trkpt lat="43.94041" lon="1.85516">
        <ele>347.8</ele>
        <time>2021-03-21T13:35:41Z</time>
      </trkpt>
      <trkpt lat="43.94042" lon="1.85515">
        <ele>348</ele>
        <time>2021-03-21T13:35:42Z</time>
      </trkpt>
      <trkpt lat="43.94042" lon="1.85513">
        <ele>348.4</ele>
        <time>2021-03-21T13:35:43Z</time>
      </trkpt>
      <trkpt lat="43.94043" lon="1.85512">
        <ele>348.4</ele>
        <time>2021-03-21T13:35:44Z</time>
      </trkpt>
      <trkpt lat="43.94044" lon="1.8551">
        <ele>348.8</ele>
        <time>2021-03-21T13:35:45Z</time>
      </trkpt>
      <trkpt lat="43.94044" lon="1.85509">
        <ele>348.8</ele>
        <time>2021-03-21T13:35:46Z</time>
      </trkpt>
      <trkpt lat="43.94045" lon="1.85508">
        <ele>349</ele>
        <time>2021-03-21T13:35:47Z</time>
      </trkpt>
      <trkpt lat="43.94046" lon="1.85506">
        <ele>349.4</ele>
        <time>2021-03-21T13:35:48Z</time>
      </trkpt>
      <trkpt lat="43.94046" lon="1.85505">
        <ele>349.6</ele>
        <time>2021-03-21T13:35:49Z</time>
      </trkpt>
      <trkpt lat="43.94047" lon="1.85504">
        <ele>349.8</ele>
        <time>2021-03-21T13:35:50Z</time>
      </trkpt>
      <trkpt lat="43.94047" lon="1.85502">
        <ele>350</ele>
        <time>2021-03-21T13:35:51Z</time>
      </trkpt>
      <trkpt lat="43.94048" lon="1.85501">
        <ele>350.2</ele>
        <time>2021-03-21T13:35:52Z</time>
      </trkpt>
      <trkpt lat="43.94049" lon="1.85499">
        <ele>350.4</ele>
        <time>2021-03-21T13:35:53Z</time>
      </trkpt>
      <trkpt lat="43.94049" lon="1.85498">
        <ele>350.6</ele>
        <time>2021-03-21T13:35:54Z</time>
      </trkpt>
      <trkpt lat="43.9405" lon="1.85496">
        <ele>350.6</ele>
        <time>2021-03-21T13:35:55Z</time>
      </trkpt>
      <trkpt lat="43.94051" lon="1.85495">
        <ele>350.6</ele>
        <time>2021-03-21T13:35:56Z</time>
      </trkpt>
      <trkpt lat="43.94052" lon="1.85494">
        <ele>351</ele>
        <time>2021-03-21T13:35:57Z</time>
      </trkpt>
      <trkpt lat="43.94052" lon="1.85492">
        <ele>351</ele>
        <time>2021-03-21T13:35:58Z</time>
      </trkpt>
      <trkpt lat="43.94053" lon="1.85491">
        <ele>351</ele>
        <time>2021-03-21T13:35:59Z</time>
      </trkpt>
      <trkpt lat="43.94054" lon="1.8549">
        <ele>351.2</ele>
        <time>2021-03-21T13:36:00Z</time>
      </trkpt>
      <trkpt lat="43.94055" lon="1.85488">
        <ele>351.4</ele>
        <time>2021-03-21T13:36:01Z</time>
      </trkpt>
      <trkpt lat="43.94055" lon="1.85487">
        <ele>351.6</ele>
        <time>2021-03-21T13:36:02Z</time>
      </trkpt>
      <trkpt lat="43.94056" lon="1.85486">
        <ele>351.8</ele>
        <time>2021-03-21T13:36:03Z</time>
      </trkpt>
      <trkpt lat="43.94057" lon="1.85484">
        <ele>352</ele>
        <time>2021-03-21T13:36:04Z</time>
      </trkpt>
      <trkpt lat="43.94058" lon="1.85483">
        <ele>352</ele>
        <time>2021-03-21T13:36:05Z</time>
      </trkpt>
      <trkpt lat="43.94059" lon="1.85482">
        <ele>352.2</ele>
        <time>2021-03-21T13:36:06Z</time>
      </trkpt>
      <trkpt lat="43.94059" lon="1.8548">
        <ele>352.2</ele>
        <time>2021-03-21T13:36:07Z</time>
      </trkpt>
      <trkpt lat="43.9406" lon="1.85479">
        <ele>352.4</ele>
        <time>2021-03-21T13:36:08Z</time>
      </trkpt>
      <trkpt lat="43.94061" lon="1.85478">
        <ele>352.4</ele>
        <time>2021-03-21T13:36:09Z</time>
      </trkpt>
      <trkpt lat="43.94062" lon="1.85476">
        <ele>352.4</ele>
        <time>2021-03-21T13:36:10Z</time>
      </trkpt>
      <trkpt lat="43.94063" lon="1.85475">
        <ele>352.4</ele>
        <time>2021-03-21T13:36:11Z</time>
      </trkpt>
      <trkpt lat="43.94064" lon="1.85473">
        <ele>352.6</ele>
        <time>2021-03-21T13:36:12Z</time>
      </trkpt>
      <trkpt lat="43.94065" lon="1.85472">
        <ele>353</ele>
        <time>2021-03-21T13:36:13Z</time>
      </trkpt>
      <trkpt lat="43.94065" lon="1.8547">
        <ele>353</ele>
        <time>2021-03-21T13:36:14Z</time>
      </trkpt>
      <trkpt lat="43.94066" lon="1.85469">
        <ele>353</ele>
        <time>2021-03-21T13:36:15Z</time>
      </trkpt>
      <trkpt lat="43.94067" lon="1.85467">
        <ele>353.2</ele>
        <time>2021-03-21T13:36:16Z</time>
      </trkpt>
      <trkpt lat="43.94068" lon="1.85466">
        <ele>353.4</ele>
        <time>2021-03-21T13:36:17Z</time>
      </trkpt>
      <trkpt lat="43.94068" lon="1.85464">
        <ele>353.4</ele>
        <time>2021-03-21T13:36:18Z</time>
      </trkpt>
      <trkpt lat="43.94069" lon="1.85463">
        <ele>353.6</ele>
        <time>2021-03-21T13:36:19Z</time>
      </trkpt>
      <trkpt lat="43.9407" lon="1.85461">
        <ele>353.6</ele>
        <time>2021-03-21T13:36:20Z</time>
      </trkpt>
      <trkpt lat="43.94071" lon="1.8546">
        <ele>353.6</ele>
        <time>2021-03-21T13:36:21Z</time>
      </trkpt>
      <trkpt lat="43.94071" lon="1.85458">
        <ele>353.8</ele>
        <time>2021-03-21T13:36:22Z</time>
      </trkpt>
      <trkpt lat="43.94072" lon="1.85457">
        <ele>353.6</ele>
        <time>2021-03-21T13:36:23Z</time>
      </trkpt>
      <trkpt lat="43.94073" lon="1.85455">
        <ele>354</ele>
        <time>2021-03-21T13:36:24Z</time>
      </trkpt>
      <trkpt lat="43.94074" lon="1.85454">
        <ele>354</ele>
        <time>2021-03-21T13:36:25Z</time>
      </trkpt>
      <trkpt lat="43.94075" lon="1.85452">
        <ele>354.2</ele>
        <time>2021-03-21T13:36:26Z</time>
      </trkpt>
      <trkpt lat="43.94076" lon="1.85451">
        <ele>354.2</ele>
        <time>2021-03-21T13:36:27Z</time>
      </trkpt>
      <trkpt lat="43.94076" lon="1.85449">
        <ele>354.4</ele>
        <time>2021-03-21T13:36:28Z</time>
      </trkpt>
      <trkpt lat="43.94077" lon="1.85447">
        <ele>354.6</ele>
        <time>2021-03-21T13:36:29Z</time>
      </trkpt>
      <trkpt lat="43.94078" lon="1.85445">
        <ele>354.6</ele>
        <time>2021-03-21T13:36:30Z</time>
      </trkpt>
      <trkpt lat="43.94079" lon="1.85443">
        <ele>354.8</ele>
        <time>2021-03-21T13:36:31Z</time>
      </trkpt>
      <trkpt lat="43.9408" lon="1.85442">
        <ele>355</ele>
        <time>2021-03-21T13:36:32Z</time>
      </trkpt>
      <trkpt lat="43.94081" lon="1.8544">
        <ele>355.2</ele>
        <time>2021-03-21T13:36:33Z</time>
      </trkpt>
      <trkpt lat="43.94082" lon="1.85438">
        <ele>355.4</ele>
        <time>2021-03-21T13:36:34Z</time>
      </trkpt>
      <trkpt lat="43.94083" lon="1.85436">
        <ele>355.4</ele>
        <time>2021-03-21T13:36:35Z</time>
      </trkpt>
      <trkpt lat="43.94084" lon="1.85434">
        <ele>355.4</ele>
        <time>2021-03-21T13:36:36Z</time>
      </trkpt>
      <trkpt lat="43.94085" lon="1.85432">
        <ele>355.6</ele>
        <time>2021-03-21T13:36:37Z</time>
      </trkpt>
      <trkpt lat="43.94086" lon="1.8543">
        <ele>355.8</ele>
        <time>2021-03-21T13:36:38Z</time>
      </trkpt>
      <trkpt lat="43.94086" lon="1.85428">
        <ele>356</ele>
        <time>2021-03-21T13:36:39Z</time>
      </trkpt>
      <trkpt lat="43.94087" lon="1.85426">
        <ele>356</ele>
        <time>2021-03-21T13:36:40Z</time>
      </trkpt>
      <trkpt lat="43.94088" lon="1.85424">
        <ele>356.2</ele>
        <time>2021-03-21T13:36:41Z</time>
      </trkpt>
      <trkpt lat="43.9409" lon="1.85422">
        <ele>356.2</ele>
        <time>2021-03-21T13:36:42Z</time>
      </trkpt>
      <trkpt lat="43.9409" lon="1.8542">
        <ele>356.4</ele>
        <time>2021-03-21T13:36:43Z</time>
      </trkpt>
      <trkpt lat="43.94092" lon="1.85418">
        <ele>356.2</ele>
        <time>2021-03-21T13:36:44Z</time>
      </trkpt>
      <trkpt lat="43.94093" lon="1.85415">
        <ele>356.6</ele>
        <time>2021-03-21T13:36:45Z</time>
      </trkpt>
      <trkpt lat="43.94094" lon="1.85413">
        <ele>356.6</ele>
        <time>2021-03-21T13:36:46Z</time>
      </trkpt>
      <trkpt lat="43.94095" lon="1.85411">
        <ele>356.6</ele>
        <time>2021-03-21T13:36:47Z</time>
      </trkpt>
      <trkpt lat="43.94096" lon="1.85408">
        <ele>356.4</ele>
        <time>2021-03-21T13:36:48Z</time>
      </trkpt>
      <trkpt lat="43.94096" lon="1.85406">
        <ele>356.6</ele>
        <time>2021-03-21T13:36:49Z</time>
      </trkpt>
      <trkpt lat="43.94097" lon="1.85403">
        <ele>356.6</ele>
        <time>2021-03-21T13:36:50Z</time>
      </trkpt>
      <trkpt lat="43.94098" lon="1.85401">
        <ele>356.8</ele>
        <time>2021-03-21T13:36:51Z</time>
      </trkpt>
      <trkpt lat="43.94099" lon="1.85399">
        <ele>356.8</ele>
        <time>2021-03-21T13:36:52Z</time>
      </trkpt>
      <trkpt lat="43.941" lon="1.85396">
        <ele>356.6</ele>
        <time>2021-03-21T13:36:53Z</time>
      </trkpt>
      <trkpt lat="43.94101" lon="1.85394">
        <ele>356.6</ele>
        <time>2021-03-21T13:36:54Z</time>
      </trkpt>
      <trkpt lat="43.94101" lon="1.85391">
        <ele>356.6</ele>
        <time>2021-03-21T13:36:55Z</time>
      </trkpt>
      <trkpt lat="43.94102" lon="1.85389">
        <ele>356.6</ele>
        <time>2021-03-21T13:36:56Z</time>
      </trkpt>
      <trkpt lat="43.94103" lon="1.85386">
        <ele>356.8</ele>
        <time>2021-03-21T13:36:57Z</time>
      </trkpt>
      <trkpt lat="43.94103" lon="1.85383">
        <ele>356.6</ele>
        <time>2021-03-21T13:36:58Z</time>
      </trkpt>
      <trkpt lat="43.94104" lon="1.8538">
        <ele>356.6</ele>
        <time>2021-03-21T13:36:59Z</time>
      </trkpt>
      <trkpt lat="43.94104" lon="1.85378">
        <ele>356.6</ele>
        <time>2021-03-21T13:37:00Z</time>
      </trkpt>
      <trkpt lat="43.94105" lon="1.85375">
        <ele>356.6</ele>
        <time>2021-03-21T13:37:01Z</time>
      </trkpt>
      <trkpt lat="43.94105" lon="1.85372">
        <ele>356.8</ele>
        <time>2021-03-21T13:37:02Z</time>
      </trkpt>
      <trkpt lat="43.94105" lon="1.85367">
        <ele>357.2</ele>
        <time>2021-03-21T13:37:04Z</time>
      </trkpt>
      <trkpt lat="43.94105" lon="1.85365">
        <ele>357.6</ele>
        <time>2021-03-21T13:37:05Z</time>
      </trkpt>
      <trkpt lat="43.94106" lon="1.85362">
        <ele>357.8</ele>
        <time>2021-03-21T13:37:06Z</time>
      </trkpt>
      <trkpt lat="43.94106" lon="1.8536">
        <ele>358.2</ele>
        <time>2021-03-21T13:37:07Z</time>
      </trkpt>
      <trkpt lat="43.94106" lon="1.85358">
        <ele>358.2</ele>
        <time>2021-03-21T13:37:08Z</time>
      </trkpt>
      <trkpt lat="43.94106" lon="1.85355">
        <ele>358.4</ele>
        <time>2021-03-21T13:37:09Z</time>
      </trkpt>
      <trkpt lat="43.94106" lon="1.85353">
        <ele>358.6</ele>
        <time>2021-03-21T13:37:10Z</time>
      </trkpt>
      <trkpt lat="43.94106" lon="1.8535">
        <ele>358.8</ele>
        <time>2021-03-21T13:37:11Z</time>
      </trkpt>
      <trkpt lat="43.94106" lon="1.85348">
        <ele>358.8</ele>
        <time>2021-03-21T13:37:12Z</time>
      </trkpt>
      <trkpt lat="43.94106" lon="1.85346">
        <ele>359</ele>
        <time>2021-03-21T13:37:13Z</time>
      </trkpt>
      <trkpt lat="43.94107" lon="1.85343">
        <ele>359</ele>
        <time>2021-03-21T13:37:14Z</time>
      </trkpt>
      <trkpt lat="43.94107" lon="1.85341">
        <ele>359</ele>
        <time>2021-03-21T13:37:15Z</time>
      </trkpt>
      <trkpt lat="43.94107" lon="1.85339">
        <ele>359</ele>
        <time>2021-03-21T13:37:16Z</time>
      </trkpt>
      <trkpt lat="43.94107" lon="1.85337">
        <ele>359.2</ele>
        <time>2021-03-21T13:37:17Z</time>
      </trkpt>
      <trkpt lat="43.94107" lon="1.85334">
        <ele>359.2</ele>
        <time>2021-03-21T13:37:18Z</time>
      </trkpt>
      <trkpt lat="43.94107" lon="1.85332">
        <ele>359.4</ele>
        <time>2021-03-21T13:37:19Z</time>
      </trkpt>
      <trkpt lat="43.94108" lon="1.8533">
        <ele>359.6</ele>
        <time>2021-03-21T13:37:20Z</time>
      </trkpt>
      <trkpt lat="43.94108" lon="1.85327">
        <ele>359.8</ele>
        <time>2021-03-21T13:37:21Z</time>
      </trkpt>
      <trkpt lat="43.94108" lon="1.85325">
        <ele>360</ele>
        <time>2021-03-21T13:37:22Z</time>
      </trkpt>
      <trkpt lat="43.94108" lon="1.85322">
        <ele>360.2</ele>
        <time>2021-03-21T13:37:23Z</time>
      </trkpt>
      <trkpt lat="43.94108" lon="1.8532">
        <ele>360.2</ele>
        <time>2021-03-21T13:37:24Z</time>
      </trkpt>
      <trkpt lat="43.94108" lon="1.85317">
        <ele>360.6</ele>
        <time>2021-03-21T13:37:25Z</time>
      </trkpt>
      <trkpt lat="43.94108" lon="1.85314">
        <ele>360.6</ele>
        <time>2021-03-21T13:37:26Z</time>
      </trkpt>
      <trkpt lat="43.94108" lon="1.85312">
        <ele>360.8</ele>
        <time>2021-03-21T13:37:27Z</time>
      </trkpt>
      <trkpt lat="43.94109" lon="1.8531">
        <ele>361</ele>
        <time>2021-03-21T13:37:28Z</time>
      </trkpt>
      <trkpt lat="43.94109" lon="1.85307">
        <ele>361.4</ele>
        <time>2021-03-21T13:37:29Z</time>
      </trkpt>
      <trkpt lat="43.94109" lon="1.85305">
        <ele>361.6</ele>
        <time>2021-03-21T13:37:30Z</time>
      </trkpt>
      <trkpt lat="43.94109" lon="1.85302">
        <ele>361.8</ele>
        <time>2021-03-21T13:37:31Z</time>
      </trkpt>
      <trkpt lat="43.94109" lon="1.853">
        <ele>362.2</ele>
        <time>2021-03-21T13:37:32Z</time>
      </trkpt>
      <trkpt lat="43.9411" lon="1.85297">
        <ele>362.6</ele>
        <time>2021-03-21T13:37:33Z</time>
      </trkpt>
      <trkpt lat="43.9411" lon="1.85295">
        <ele>362.8</ele>
        <time>2021-03-21T13:37:34Z</time>
      </trkpt>
      <trkpt lat="43.9411" lon="1.85292">
        <ele>363</ele>
        <time>2021-03-21T13:37:35Z</time>
      </trkpt>
      <trkpt lat="43.9411" lon="1.8529">
        <ele>363</ele>
        <time>2021-03-21T13:37:36Z</time>
      </trkpt>
      <trkpt lat="43.9411" lon="1.85288">
        <ele>363.4</ele>
        <time>2021-03-21T13:37:37Z</time>
      </trkpt>
      <trkpt lat="43.9411" lon="1.85285">
        <ele>363.6</ele>
        <time>2021-03-21T13:37:38Z</time>
      </trkpt>
      <trkpt lat="43.9411" lon="1.85283">
        <ele>363.8</ele>
        <time>2021-03-21T13:37:39Z</time>
      </trkpt>
      <trkpt lat="43.94111" lon="1.8528">
        <ele>364.2</ele>
        <time>2021-03-21T13:37:40Z</time>
      </trkpt>
      <trkpt lat="43.94111" lon="1.85278">
        <ele>364.2</ele>
        <time>2021-03-21T13:37:41Z</time>
      </trkpt>
      <trkpt lat="43.94112" lon="1.85276">
        <ele>364.2</ele>
        <time>2021-03-21T13:37:42Z</time>
      </trkpt>
      <trkpt lat="43.94113" lon="1.85275">
        <ele>364.4</ele>
        <time>2021-03-21T13:37:43Z</time>
      </trkpt>
      <trkpt lat="43.94114" lon="1.85276">
        <ele>364.4</ele>
        <time>2021-03-21T13:37:44Z</time>
      </trkpt>
      <trkpt lat="43.94115" lon="1.85277">
        <ele>364.8</ele>
        <time>2021-03-21T13:37:45Z</time>
      </trkpt>
      <trkpt lat="43.94116" lon="1.85279">
        <ele>365.2</ele>
        <time>2021-03-21T13:37:46Z</time>
      </trkpt>
      <trkpt lat="43.94117" lon="1.8528">
        <ele>365.8</ele>
        <time>2021-03-21T13:37:47Z</time>
      </trkpt>
      <trkpt lat="43.94118" lon="1.85283">
        <ele>366.2</ele>
        <time>2021-03-21T13:37:48Z</time>
      </trkpt>
      <trkpt lat="43.94119" lon="1.85285">
        <ele>366.2</ele>
        <time>2021-03-21T13:37:49Z</time>
      </trkpt>
      <trkpt lat="43.94121" lon="1.85287">
        <ele>366.4</ele>
        <time>2021-03-21T13:37:50Z</time>
      </trkpt>
      <trkpt lat="43.94121" lon="1.85289">
        <ele>366.2</ele>
        <time>2021-03-21T13:37:51Z</time>
      </trkpt>
      <trkpt lat="43.94122" lon="1.8529">
        <ele>366.2</ele>
        <time>2021-03-21T13:37:52Z</time>
      </trkpt>
      <trkpt lat="43.94122" lon="1.85289">
        <ele>366.4</ele>
        <time>2021-03-21T13:37:53Z</time>
      </trkpt>
      <trkpt lat="43.94126" lon="1.85296">
        <ele>366.4</ele>
        <time>2021-03-21T13:38:29Z</time>
      </trkpt>
      <trkpt lat="43.94127" lon="1.85299">
        <ele>366.2</ele>
        <time>2021-03-21T13:38:30Z</time>
      </trkpt>
      <trkpt lat="43.94129" lon="1.85303">
        <ele>366.2</ele>
        <time>2021-03-21T13:38:31Z</time>
      </trkpt>
      <trkpt lat="43.94131" lon="1.85307">
        <ele>366.2</ele>
        <time>2021-03-21T13:38:32Z</time>
      </trkpt>
      <trkpt lat="43.94133" lon="1.85311">
        <ele>366.2</ele>
        <time>2021-03-21T13:38:33Z</time>
      </trkpt>
      <trkpt lat="43.94135" lon="1.85316">
        <ele>366.2</ele>
        <time>2021-03-21T13:38:34Z</time>
      </trkpt>
      <trkpt lat="43.94137" lon="1.8532">
        <ele>366.2</ele>
        <time>2021-03-21T13:38:35Z</time>
      </trkpt>
      <trkpt lat="43.9414" lon="1.85323">
        <ele>366</ele>
        <time>2021-03-21T13:38:36Z</time>
      </trkpt>
      <trkpt lat="43.94142" lon="1.85327">
        <ele>366</ele>
        <time>2021-03-21T13:38:37Z</time>
      </trkpt>
      <trkpt lat="43.94144" lon="1.8533">
        <ele>365.4</ele>
        <time>2021-03-21T13:38:38Z</time>
      </trkpt>
      <trkpt lat="43.94146" lon="1.85334">
        <ele>365</ele>
        <time>2021-03-21T13:38:39Z</time>
      </trkpt>
      <trkpt lat="43.94148" lon="1.85337">
        <ele>364.8</ele>
        <time>2021-03-21T13:38:40Z</time>
      </trkpt>
      <trkpt lat="43.9415" lon="1.85342">
        <ele>364.4</ele>
        <time>2021-03-21T13:38:41Z</time>
      </trkpt>
      <trkpt lat="43.94153" lon="1.85348">
        <ele>364</ele>
        <time>2021-03-21T13:38:42Z</time>
      </trkpt>
      <trkpt lat="43.94156" lon="1.85354">
        <ele>363.2</ele>
        <time>2021-03-21T13:38:43Z</time>
      </trkpt>
      <trkpt lat="43.94159" lon="1.85361">
        <ele>362.4</ele>
        <time>2021-03-21T13:38:44Z</time>
      </trkpt>
      <trkpt lat="43.94162" lon="1.85367">
        <ele>362</ele>
        <time>2021-03-21T13:38:45Z</time>
      </trkpt>
      <trkpt lat="43.94164" lon="1.85373">
        <ele>362</ele>
        <time>2021-03-21T13:38:46Z</time>
      </trkpt>
      <trkpt lat="43.94169" lon="1.85384">
        <ele>361.2</ele>
        <time>2021-03-21T13:38:48Z</time>
      </trkpt>
      <trkpt lat="43.94172" lon="1.8539">
        <ele>360.2</ele>
        <time>2021-03-21T13:38:49Z</time>
      </trkpt>
      <trkpt lat="43.94174" lon="1.85396">
        <ele>359.6</ele>
        <time>2021-03-21T13:38:50Z</time>
      </trkpt>
      <trkpt lat="43.94176" lon="1.85401">
        <ele>358.2</ele>
        <time>2021-03-21T13:38:51Z</time>
      </trkpt>
      <trkpt lat="43.94178" lon="1.85405">
        <ele>356.8</ele>
        <time>2021-03-21T13:38:52Z</time>
      </trkpt>
      <trkpt lat="43.9418" lon="1.85409">
        <ele>355.4</ele>
        <time>2021-03-21T13:38:53Z</time>
      </trkpt>
      <trkpt lat="43.94182" lon="1.85414">
        <ele>354.6</ele>
        <time>2021-03-21T13:38:54Z</time>
      </trkpt>
      <trkpt lat="43.94185" lon="1.85418">
        <ele>353.6</ele>
        <time>2021-03-21T13:38:55Z</time>
      </trkpt>
      <trkpt lat="43.94187" lon="1.85423">
        <ele>353.2</ele>
        <time>2021-03-21T13:38:56Z</time>
      </trkpt>
      <trkpt lat="43.94189" lon="1.85428">
        <ele>352.8</ele>
        <time>2021-03-21T13:38:57Z</time>
      </trkpt>
      <trkpt lat="43.94192" lon="1.85433">
        <ele>352</ele>
        <time>2021-03-21T13:38:58Z</time>
      </trkpt>
      <trkpt lat="43.94194" lon="1.85439">
        <ele>351.4</ele>
        <time>2021-03-21T13:38:59Z</time>
      </trkpt>
      <trkpt lat="43.94197" lon="1.85443">
        <ele>350.6</ele>
        <time>2021-03-21T13:39:00Z</time>
      </trkpt>
      <trkpt lat="43.94199" lon="1.85447">
        <ele>349.8</ele>
        <time>2021-03-21T13:39:01Z</time>
      </trkpt>
      <trkpt lat="43.942" lon="1.8545">
        <ele>348.8</ele>
        <time>2021-03-21T13:39:02Z</time>
      </trkpt>
      <trkpt lat="43.94202" lon="1.85454">
        <ele>347.8</ele>
        <time>2021-03-21T13:39:03Z</time>
      </trkpt>
      <trkpt lat="43.94204" lon="1.85458">
        <ele>347</ele>
        <time>2021-03-21T13:39:04Z</time>
      </trkpt>
      <trkpt lat="43.94207" lon="1.85462">
        <ele>347</ele>
        <time>2021-03-21T13:39:05Z</time>
      </trkpt>
      <trkpt lat="43.9421" lon="1.85467">
        <ele>346.4</ele>
        <time>2021-03-21T13:39:06Z</time>
      </trkpt>
      <trkpt lat="43.94213" lon="1.85472">
        <ele>345.2</ele>
        <time>2021-03-21T13:39:07Z</time>
      </trkpt>
      <trkpt lat="43.94217" lon="1.85478">
        <ele>344.6</ele>
        <time>2021-03-21T13:39:08Z</time>
      </trkpt>
      <trkpt lat="43.9422" lon="1.85485">
        <ele>344</ele>
        <time>2021-03-21T13:39:09Z</time>
      </trkpt>
      <trkpt lat="43.94223" lon="1.85491">
        <ele>343.2</ele>
        <time>2021-03-21T13:39:10Z</time>
      </trkpt>
      <trkpt lat="43.94225" lon="1.85498">
        <ele>342.4</ele>
        <time>2021-03-21T13:39:11Z</time>
      </trkpt>
      <trkpt lat="43.94228" lon="1.85505">
        <ele>341.4</ele>
        <time>2021-03-21T13:39:12Z</time>
      </trkpt>
      <trkpt lat="43.94231" lon="1.85512">
        <ele>340.8</ele>
        <time>2021-03-21T13:39:13Z</time>
      </trkpt>
      <trkpt lat="43.94234" lon="1.85519">
        <ele>340</ele>
        <time>2021-03-21T13:39:14Z</time>
      </trkpt>
      <trkpt lat="43.94236" lon="1.85526">
        <ele>338.8</ele>
        <time>2021-03-21T13:39:15Z</time>
      </trkpt>
      <trkpt lat="43.94238" lon="1.85533">
        <ele>337.4</ele>
        <time>2021-03-21T13:39:16Z</time>
      </trkpt>
      <trkpt lat="43.94241" lon="1.8554">
        <ele>335.8</ele>
        <time>2021-03-21T13:39:17Z</time>
      </trkpt>
      <trkpt lat="43.94243" lon="1.85548">
        <ele>334</ele>
        <time>2021-03-21T13:39:18Z</time>
      </trkpt>
      <trkpt lat="43.94248" lon="1.85562">
        <ele>332.4</ele>
        <time>2021-03-21T13:39:20Z</time>
      </trkpt>
      <trkpt lat="43.94249" lon="1.85571">
        <ele>331.8</ele>
        <time>2021-03-21T13:39:21Z</time>
      </trkpt>
      <trkpt lat="43.9425" lon="1.85579">
        <ele>330.6</ele>
        <time>2021-03-21T13:39:22Z</time>
      </trkpt>
      <trkpt lat="43.94251" lon="1.85586">
        <ele>330</ele>
        <time>2021-03-21T13:39:23Z</time>
      </trkpt>
      <trkpt lat="43.94251" lon="1.85592">
        <ele>329.2</ele>
        <time>2021-03-21T13:39:24Z</time>
      </trkpt>
      <trkpt lat="43.94251" lon="1.85598">
        <ele>329.2</ele>
        <time>2021-03-21T13:39:25Z</time>
      </trkpt>
      <trkpt lat="43.94251" lon="1.85602">
        <ele>328.6</ele>
        <time>2021-03-21T13:39:26Z</time>
      </trkpt>
      <trkpt lat="43.94251" lon="1.85606">
        <ele>327.2</ele>
        <time>2021-03-21T13:39:27Z</time>
      </trkpt>
      <trkpt lat="43.94252" lon="1.8561">
        <ele>326.4</ele>
        <time>2021-03-21T13:39:28Z</time>
      </trkpt>
      <trkpt lat="43.94254" lon="1.85613">
        <ele>325.8</ele>
        <time>2021-03-21T13:39:29Z</time>
      </trkpt>
      <trkpt lat="43.94255" lon="1.85616">
        <ele>324.6</ele>
        <time>2021-03-21T13:39:30Z</time>
      </trkpt>
      <trkpt lat="43.94256" lon="1.85618">
        <ele>323.6</ele>
        <time>2021-03-21T13:39:31Z</time>
      </trkpt>
      <trkpt lat="43.94257" lon="1.85619">
        <ele>323.2</ele>
        <time>2021-03-21T13:39:32Z</time>
      </trkpt>
      <trkpt lat="43.94258" lon="1.85621">
        <ele>322.6</ele>
        <time>2021-03-21T13:39:33Z</time>
      </trkpt>
      <trkpt lat="43.94259" lon="1.85622">
        <ele>322.2</ele>
        <time>2021-03-21T13:39:34Z</time>
      </trkpt>
      <trkpt lat="43.94259" lon="1.85624">
        <ele>321.6</ele>
        <time>2021-03-21T13:39:35Z</time>
      </trkpt>
      <trkpt lat="43.9426" lon="1.85627">
        <ele>321.2</ele>
        <time>2021-03-21T13:39:36Z</time>
      </trkpt>
      <trkpt lat="43.94261" lon="1.85629">
        <ele>321.2</ele>
        <time>2021-03-21T13:39:37Z</time>
      </trkpt>
      <trkpt lat="43.94261" lon="1.85632">
        <ele>321</ele>
        <time>2021-03-21T13:39:38Z</time>
      </trkpt>
      <trkpt lat="43.9426" lon="1.85635">
        <ele>320.8</ele>
        <time>2021-03-21T13:39:39Z</time>
      </trkpt>
      <trkpt lat="43.94258" lon="1.85638">
        <ele>320.6</ele>
        <time>2021-03-21T13:39:40Z</time>
      </trkpt>
      <trkpt lat="43.94256" lon="1.8564">
        <ele>320.6</ele>
        <time>2021-03-21T13:39:41Z</time>
      </trkpt>
      <trkpt lat="43.94254" lon="1.85641">
        <ele>320.6</ele>
        <time>2021-03-21T13:39:42Z</time>
      </trkpt>
      <trkpt lat="43.94253" lon="1.85642">
        <ele>320.6</ele>
        <time>2021-03-21T13:39:43Z</time>
      </trkpt>
      <trkpt lat="43.94251" lon="1.85644">
        <ele>320.4</ele>
        <time>2021-03-21T13:39:44Z</time>
      </trkpt>
      <trkpt lat="43.9425" lon="1.85645">
        <ele>320.4</ele>
        <time>2021-03-21T13:39:45Z</time>
      </trkpt>
      <trkpt lat="43.94249" lon="1.85646">
        <ele>320.2</ele>
        <time>2021-03-21T13:39:46Z</time>
      </trkpt>
      <trkpt lat="43.94249" lon="1.85647">
        <ele>320.2</ele>
        <time>2021-03-21T13:39:47Z</time>
      </trkpt>
      <trkpt lat="43.94248" lon="1.85648">
        <ele>320</ele>
        <time>2021-03-21T13:39:48Z</time>
      </trkpt>
      <trkpt lat="43.94247" lon="1.85649">
        <ele>320.2</ele>
        <time>2021-03-21T13:39:49Z</time>
      </trkpt>
      <trkpt lat="43.94246" lon="1.85652">
        <ele>320</ele>
        <time>2021-03-21T13:39:51Z</time>
      </trkpt>
      <trkpt lat="43.94245" lon="1.85653">
        <ele>320</ele>
        <time>2021-03-21T13:39:52Z</time>
      </trkpt>
      <trkpt lat="43.94244" lon="1.85655">
        <ele>320</ele>
        <time>2021-03-21T13:39:53Z</time>
      </trkpt>
      <trkpt lat="43.94243" lon="1.85657">
        <ele>319.8</ele>
        <time>2021-03-21T13:39:54Z</time>
      </trkpt>
      <trkpt lat="43.94242" lon="1.85658">
        <ele>319.8</ele>
        <time>2021-03-21T13:39:55Z</time>
      </trkpt>
      <trkpt lat="43.94241" lon="1.8566">
        <ele>319.8</ele>
        <time>2021-03-21T13:39:56Z</time>
      </trkpt>
      <trkpt lat="43.9424" lon="1.85662">
        <ele>319.8</ele>
        <time>2021-03-21T13:39:57Z</time>
      </trkpt>
      <trkpt lat="43.94239" lon="1.85663">
        <ele>319.6</ele>
        <time>2021-03-21T13:39:58Z</time>
      </trkpt>
      <trkpt lat="43.94237" lon="1.85664">
        <ele>319.6</ele>
        <time>2021-03-21T13:39:59Z</time>
      </trkpt>
      <trkpt lat="43.94236" lon="1.85666">
        <ele>319.6</ele>
        <time>2021-03-21T13:40:00Z</time>
      </trkpt>
      <trkpt lat="43.94235" lon="1.85668">
        <ele>319.4</ele>
        <time>2021-03-21T13:40:01Z</time>
      </trkpt>
      <trkpt lat="43.94234" lon="1.8567">
        <ele>319.4</ele>
        <time>2021-03-21T13:40:02Z</time>
      </trkpt>
      <trkpt lat="43.94234" lon="1.85672">
        <ele>319.4</ele>
        <time>2021-03-21T13:40:03Z</time>
      </trkpt>
      <trkpt lat="43.94232" lon="1.85674">
        <ele>319.4</ele>
        <time>2021-03-21T13:40:04Z</time>
      </trkpt>
      <trkpt lat="43.94231" lon="1.85676">
        <ele>319.4</ele>
        <time>2021-03-21T13:40:05Z</time>
      </trkpt>
      <trkpt lat="43.94229" lon="1.85677">
        <ele>319.2</ele>
        <time>2021-03-21T13:40:06Z</time>
      </trkpt>
      <trkpt lat="43.94228" lon="1.85679">
        <ele>319.4</ele>
        <time>2021-03-21T13:40:07Z</time>
      </trkpt>
      <trkpt lat="43.94227" lon="1.85681">
        <ele>319.4</ele>
        <time>2021-03-21T13:40:08Z</time>
      </trkpt>
      <trkpt lat="43.94225" lon="1.85683">
        <ele>319.2</ele>
        <time>2021-03-21T13:40:09Z</time>
      </trkpt>
      <trkpt lat="43.94223" lon="1.85686">
        <ele>319.2</ele>
        <time>2021-03-21T13:40:10Z</time>
      </trkpt>
      <trkpt lat="43.94221" lon="1.85688">
        <ele>319</ele>
        <time>2021-03-21T13:40:11Z</time>
      </trkpt>
      <trkpt lat="43.94219" lon="1.8569">
        <ele>319</ele>
        <time>2021-03-21T13:40:12Z</time>
      </trkpt>
      <trkpt lat="43.94217" lon="1.85693">
        <ele>319.2</ele>
        <time>2021-03-21T13:40:13Z</time>
      </trkpt>
      <trkpt lat="43.94215" lon="1.85695">
        <ele>319.2</ele>
        <time>2021-03-21T13:40:14Z</time>
      </trkpt>
      <trkpt lat="43.9421" lon="1.85701">
        <ele>318.8</ele>
        <time>2021-03-21T13:40:16Z</time>
      </trkpt>
      <trkpt lat="43.94207" lon="1.85704">
        <ele>318.6</ele>
        <time>2021-03-21T13:40:17Z</time>
      </trkpt>
      <trkpt lat="43.94205" lon="1.85707">
        <ele>318.6</ele>
        <time>2021-03-21T13:40:18Z</time>
      </trkpt>
      <trkpt lat="43.94202" lon="1.8571">
        <ele>318.4</ele>
        <time>2021-03-21T13:40:19Z</time>
      </trkpt>
      <trkpt lat="43.94199" lon="1.85714">
        <ele>318.2</ele>
        <time>2021-03-21T13:40:20Z</time>
      </trkpt>
      <trkpt lat="43.94196" lon="1.85717">
        <ele>318.2</ele>
        <time>2021-03-21T13:40:21Z</time>
      </trkpt>
      <trkpt lat="43.94193" lon="1.8572">
        <ele>318</ele>
        <time>2021-03-21T13:40:22Z</time>
      </trkpt>
      <trkpt lat="43.94189" lon="1.85724">
        <ele>317.8</ele>
        <time>2021-03-21T13:40:23Z</time>
      </trkpt>
      <trkpt lat="43.94186" lon="1.85727">
        <ele>317.6</ele>
        <time>2021-03-21T13:40:24Z</time>
      </trkpt>
      <trkpt lat="43.94183" lon="1.85731">
        <ele>317.6</ele>
        <time>2021-03-21T13:40:25Z</time>
      </trkpt>
      <trkpt lat="43.9418" lon="1.85734">
        <ele>317.6</ele>
        <time>2021-03-21T13:40:26Z</time>
      </trkpt>
      <trkpt lat="43.94177" lon="1.85738">
        <ele>317.4</ele>
        <time>2021-03-21T13:40:27Z</time>
      </trkpt>
      <trkpt lat="43.94174" lon="1.85741">
        <ele>317.4</ele>
        <time>2021-03-21T13:40:28Z</time>
      </trkpt>
      <trkpt lat="43.94171" lon="1.85744">
        <ele>317.4</ele>
        <time>2021-03-21T13:40:29Z</time>
      </trkpt>
      <trkpt lat="43.94168" lon="1.85747">
        <ele>317.2</ele>
        <time>2021-03-21T13:40:30Z</time>
      </trkpt>
      <trkpt lat="43.94166" lon="1.85751">
        <ele>316.8</ele>
        <time>2021-03-21T13:40:31Z</time>
      </trkpt>
      <trkpt lat="43.94163" lon="1.85754">
        <ele>316.8</ele>
        <time>2021-03-21T13:40:32Z</time>
      </trkpt>
      <trkpt lat="43.94156" lon="1.8576">
        <ele>316.6</ele>
        <time>2021-03-21T13:40:34Z</time>
      </trkpt>
      <trkpt lat="43.94153" lon="1.85763">
        <ele>316.6</ele>
        <time>2021-03-21T13:40:35Z</time>
      </trkpt>
      <trkpt lat="43.94149" lon="1.85767">
        <ele>316.6</ele>
        <time>2021-03-21T13:40:36Z</time>
      </trkpt>
      <trkpt lat="43.94146" lon="1.8577">
        <ele>316.4</ele>
        <time>2021-03-21T13:40:37Z</time>
      </trkpt>
      <trkpt lat="43.9414" lon="1.85778">
        <ele>316.4</ele>
        <time>2021-03-21T13:40:39Z</time>
      </trkpt>
      <trkpt lat="43.94137" lon="1.85783">
        <ele>316.4</ele>
        <time>2021-03-21T13:40:40Z</time>
      </trkpt>
      <trkpt lat="43.94134" lon="1.85787">
        <ele>316.2</ele>
        <time>2021-03-21T13:40:41Z</time>
      </trkpt>
      <trkpt lat="43.94131" lon="1.85791">
        <ele>316.4</ele>
        <time>2021-03-21T13:40:42Z</time>
      </trkpt>
      <trkpt lat="43.94128" lon="1.85795">
        <ele>316.2</ele>
        <time>2021-03-21T13:40:43Z</time>
      </trkpt>
      <trkpt lat="43.94125" lon="1.858">
        <ele>316.2</ele>
        <time>2021-03-21T13:40:44Z</time>
      </trkpt>
      <trkpt lat="43.94123" lon="1.85804">
        <ele>316.2</ele>
        <time>2021-03-21T13:40:45Z</time>
      </trkpt>
      <trkpt lat="43.9412" lon="1.85809">
        <ele>316.2</ele>
        <time>2021-03-21T13:40:46Z</time>
      </trkpt>
      <trkpt lat="43.94118" lon="1.85813">
        <ele>316.2</ele>
        <time>2021-03-21T13:40:47Z</time>
      </trkpt>
      <trkpt lat="43.94115" lon="1.85818">
        <ele>316</ele>
        <time>2021-03-21T13:40:48Z</time>
      </trkpt>
      <trkpt lat="43.94113" lon="1.85822">
        <ele>316</ele>
        <time>2021-03-21T13:40:49Z</time>
      </trkpt>
      <trkpt lat="43.94111" lon="1.85827">
        <ele>316</ele>
        <time>2021-03-21T13:40:50Z</time>
      </trkpt>
      <trkpt lat="43.94109" lon="1.85831">
        <ele>316</ele>
        <time>2021-03-21T13:40:51Z</time>
      </trkpt>
      <trkpt lat="43.94107" lon="1.85836">
        <ele>315.8</ele>
        <time>2021-03-21T13:40:52Z</time>
      </trkpt>
      <trkpt lat="43.94105" lon="1.8584">
        <ele>315.8</ele>
        <time>2021-03-21T13:40:53Z</time>
      </trkpt>
      <trkpt lat="43.94104" lon="1.85844">
        <ele>316</ele>
        <time>2021-03-21T13:40:54Z</time>
      </trkpt>
      <trkpt lat="43.94102" lon="1.85849">
        <ele>316</ele>
        <time>2021-03-21T13:40:55Z</time>
      </trkpt>
      <trkpt lat="43.941" lon="1.85853">
        <ele>315.8</ele>
        <time>2021-03-21T13:40:56Z</time>
      </trkpt>
      <trkpt lat="43.94099" lon="1.85858">
        <ele>316</ele>
        <time>2021-03-21T13:40:57Z</time>
      </trkpt>
      <trkpt lat="43.94097" lon="1.85862">
        <ele>315.8</ele>
        <time>2021-03-21T13:40:58Z</time>
      </trkpt>
      <trkpt lat="43.94095" lon="1.85866">
        <ele>315.8</ele>
        <time>2021-03-21T13:40:59Z</time>
      </trkpt>
      <trkpt lat="43.94093" lon="1.8587">
        <ele>315.8</ele>
        <time>2021-03-21T13:41:00Z</time>
      </trkpt>
      <trkpt lat="43.94092" lon="1.85874">
        <ele>315.8</ele>
        <time>2021-03-21T13:41:01Z</time>
      </trkpt>
      <trkpt lat="43.94091" lon="1.85878">
        <ele>315.8</ele>
        <time>2021-03-21T13:41:02Z</time>
      </trkpt>
      <trkpt lat="43.94089" lon="1.85882">
        <ele>315.8</ele>
        <time>2021-03-21T13:41:03Z</time>
      </trkpt>
      <trkpt lat="43.94088" lon="1.85886">
        <ele>315.6</ele>
        <time>2021-03-21T13:41:04Z</time>
      </trkpt>
      <trkpt lat="43.94086" lon="1.85889">
        <ele>315.6</ele>
        <time>2021-03-21T13:41:05Z</time>
      </trkpt>
      <trkpt lat="43.94085" lon="1.85893">
        <ele>315.8</ele>
        <time>2021-03-21T13:41:06Z</time>
      </trkpt>
      <trkpt lat="43.94083" lon="1.85896">
        <ele>315.6</ele>
        <time>2021-03-21T13:41:07Z</time>
      </trkpt>
      <trkpt lat="43.94082" lon="1.85899">
        <ele>315.6</ele>
        <time>2021-03-21T13:41:08Z</time>
      </trkpt>
      <trkpt lat="43.9408" lon="1.85903">
        <ele>315.6</ele>
        <time>2021-03-21T13:41:09Z</time>
      </trkpt>
      <trkpt lat="43.94079" lon="1.85907">
        <ele>315.6</ele>
        <time>2021-03-21T13:41:10Z</time>
      </trkpt>
      <trkpt lat="43.94077" lon="1.8591">
        <ele>315.6</ele>
        <time>2021-03-21T13:41:11Z</time>
      </trkpt>
      <trkpt lat="43.94076" lon="1.85913">
        <ele>315.6</ele>
        <time>2021-03-21T13:41:12Z</time>
      </trkpt>
      <trkpt lat="43.94074" lon="1.85916">
        <ele>315.6</ele>
        <time>2021-03-21T13:41:13Z</time>
      </trkpt>
      <trkpt lat="43.94072" lon="1.8592">
        <ele>315.4</ele>
        <time>2021-03-21T13:41:14Z</time>
      </trkpt>
      <trkpt lat="43.94071" lon="1.85923">
        <ele>315.4</ele>
        <time>2021-03-21T13:41:15Z</time>
      </trkpt>
      <trkpt lat="43.94069" lon="1.85926">
        <ele>315.4</ele>
        <time>2021-03-21T13:41:16Z</time>
      </trkpt>
      <trkpt lat="43.94068" lon="1.85928">
        <ele>315.4</ele>
        <time>2021-03-21T13:41:17Z</time>
      </trkpt>
      <trkpt lat="43.94066" lon="1.85931">
        <ele>315.4</ele>
        <time>2021-03-21T13:41:18Z</time>
      </trkpt>
      <trkpt lat="43.94065" lon="1.85935">
        <ele>315.4</ele>
        <time>2021-03-21T13:41:19Z</time>
      </trkpt>
      <trkpt lat="43.94065" lon="1.85938">
        <ele>315.4</ele>
        <time>2021-03-21T13:41:20Z</time>
      </trkpt>
      <trkpt lat="43.94066" lon="1.8594">
        <ele>315.2</ele>
        <time>2021-03-21T13:41:21Z</time>
      </trkpt>
      <trkpt lat="43.94068" lon="1.8594">
        <ele>315.2</ele>
        <time>2021-03-21T13:41:22Z</time>
      </trkpt>
      <trkpt lat="43.9407" lon="1.85939">
        <ele>315.2</ele>
        <time>2021-03-21T13:41:23Z</time>
      </trkpt>
      <trkpt lat="43.94072" lon="1.85938">
        <ele>315.2</ele>
        <time>2021-03-21T13:41:24Z</time>
      </trkpt>
      <trkpt lat="43.94073" lon="1.85936">
        <ele>315.2</ele>
        <time>2021-03-21T13:41:25Z</time>
      </trkpt>
      <trkpt lat="43.94075" lon="1.85934">
        <ele>315.2</ele>
        <time>2021-03-21T13:41:26Z</time>
      </trkpt>
      <trkpt lat="43.94076" lon="1.85932">
        <ele>315.2</ele>
        <time>2021-03-21T13:41:27Z</time>
      </trkpt>
      <trkpt lat="43.94077" lon="1.8593">
        <ele>315.2</ele>
        <time>2021-03-21T13:41:28Z</time>
      </trkpt>
      <trkpt lat="43.94078" lon="1.85928">
        <ele>315.2</ele>
        <time>2021-03-21T13:41:29Z</time>
      </trkpt>
      <trkpt lat="43.9408" lon="1.85927">
        <ele>315.2</ele>
        <time>2021-03-21T13:41:30Z</time>
      </trkpt>
      <trkpt lat="43.94081" lon="1.85926">
        <ele>315.2</ele>
        <time>2021-03-21T13:41:31Z</time>
      </trkpt>
      <trkpt lat="43.94082" lon="1.85925">
        <ele>315.4</ele>
        <time>2021-03-21T13:41:32Z</time>
      </trkpt>
      <trkpt lat="43.94084" lon="1.85925">
        <ele>315.6</ele>
        <time>2021-03-21T13:41:33Z</time>
      </trkpt>
      <trkpt lat="43.94084" lon="1.85924">
        <ele>316</ele>
        <time>2021-03-21T13:41:34Z</time>
      </trkpt>
      <trkpt lat="43.94086" lon="1.85925">
        <ele>316.2</ele>
        <time>2021-03-21T13:41:35Z</time>
      </trkpt>
      <trkpt lat="43.94087" lon="1.85925">
        <ele>316.8</ele>
        <time>2021-03-21T13:41:36Z</time>
      </trkpt>
      <trkpt lat="43.94088" lon="1.85925">
        <ele>317.2</ele>
        <time>2021-03-21T13:41:37Z</time>
      </trkpt>
      <trkpt lat="43.9409" lon="1.85926">
        <ele>317.6</ele>
        <time>2021-03-21T13:41:38Z</time>
      </trkpt>
      <trkpt lat="43.94091" lon="1.85927">
        <ele>317.8</ele>
        <time>2021-03-21T13:41:39Z</time>
      </trkpt>
      <trkpt lat="43.94093" lon="1.85928">
        <ele>318</ele>
        <time>2021-03-21T13:41:40Z</time>
      </trkpt>
      <trkpt lat="43.94094" lon="1.85929">
        <ele>318.4</ele>
        <time>2021-03-21T13:41:41Z</time>
      </trkpt>
      <trkpt lat="43.94095" lon="1.8593">
        <ele>318.8</ele>
        <time>2021-03-21T13:41:42Z</time>
      </trkpt>
      <trkpt lat="43.94097" lon="1.85931">
        <ele>319</ele>
        <time>2021-03-21T13:41:43Z</time>
      </trkpt>
      <trkpt lat="43.94098" lon="1.85932">
        <ele>319.4</ele>
        <time>2021-03-21T13:41:44Z</time>
      </trkpt>
      <trkpt lat="43.941" lon="1.85932">
        <ele>319.4</ele>
        <time>2021-03-21T13:41:45Z</time>
      </trkpt>
      <trkpt lat="43.94101" lon="1.85933">
        <ele>319.4</ele>
        <time>2021-03-21T13:41:46Z</time>
      </trkpt>
      <trkpt lat="43.94102" lon="1.85934">
        <ele>319.8</ele>
        <time>2021-03-21T13:41:47Z</time>
      </trkpt>
      <trkpt lat="43.94104" lon="1.85935">
        <ele>320.2</ele>
        <time>2021-03-21T13:41:48Z</time>
      </trkpt>
      <trkpt lat="43.94105" lon="1.85935">
        <ele>320.4</ele>
        <time>2021-03-21T13:41:49Z</time>
      </trkpt>
      <trkpt lat="43.94107" lon="1.85936">
        <ele>320.6</ele>
        <time>2021-03-21T13:41:50Z</time>
      </trkpt>
      <trkpt lat="43.94108" lon="1.85937">
        <ele>320.8</ele>
        <time>2021-03-21T13:41:51Z</time>
      </trkpt>
      <trkpt lat="43.94109" lon="1.85938">
        <ele>321</ele>
        <time>2021-03-21T13:41:52Z</time>
      </trkpt>
      <trkpt lat="43.9411" lon="1.85938">
        <ele>321.2</ele>
        <time>2021-03-21T13:41:53Z</time>
      </trkpt>
      <trkpt lat="43.94112" lon="1.85939">
        <ele>321.2</ele>
        <time>2021-03-21T13:41:54Z</time>
      </trkpt>
      <trkpt lat="43.94113" lon="1.85939">
        <ele>321.6</ele>
        <time>2021-03-21T13:41:55Z</time>
      </trkpt>
      <trkpt lat="43.94114" lon="1.8594">
        <ele>321.8</ele>
        <time>2021-03-21T13:41:56Z</time>
      </trkpt>
      <trkpt lat="43.94115" lon="1.85941">
        <ele>322</ele>
        <time>2021-03-21T13:41:57Z</time>
      </trkpt>
      <trkpt lat="43.94117" lon="1.85941">
        <ele>322.2</ele>
        <time>2021-03-21T13:41:58Z</time>
      </trkpt>
      <trkpt lat="43.94118" lon="1.85942">
        <ele>322.4</ele>
        <time>2021-03-21T13:41:59Z</time>
      </trkpt>
      <trkpt lat="43.94119" lon="1.85942">
        <ele>322.6</ele>
        <time>2021-03-21T13:42:00Z</time>
      </trkpt>
      <trkpt lat="43.94121" lon="1.85942">
        <ele>322.8</ele>
        <time>2021-03-21T13:42:01Z</time>
      </trkpt>
      <trkpt lat="43.94122" lon="1.85943">
        <ele>323</ele>
        <time>2021-03-21T13:42:02Z</time>
      </trkpt>
      <trkpt lat="43.94123" lon="1.85943">
        <ele>323.2</ele>
        <time>2021-03-21T13:42:03Z</time>
      </trkpt>
      <trkpt lat="43.94125" lon="1.85943">
        <ele>323.2</ele>
        <time>2021-03-21T13:42:04Z</time>
      </trkpt>
      <trkpt lat="43.94126" lon="1.85943">
        <ele>323.2</ele>
        <time>2021-03-21T13:42:05Z</time>
      </trkpt>
      <trkpt lat="43.94127" lon="1.85943">
        <ele>323.6</ele>
        <time>2021-03-21T13:42:06Z</time>
      </trkpt>
      <trkpt lat="43.94129" lon="1.85944">
        <ele>323.8</ele>
        <time>2021-03-21T13:42:07Z</time>
      </trkpt>
      <trkpt lat="43.9413" lon="1.85944">
        <ele>324</ele>
        <time>2021-03-21T13:42:08Z</time>
      </trkpt>
      <trkpt lat="43.94131" lon="1.85944">
        <ele>324.2</ele>
        <time>2021-03-21T13:42:09Z</time>
      </trkpt>
      <trkpt lat="43.94133" lon="1.85943">
        <ele>324.2</ele>
        <time>2021-03-21T13:42:10Z</time>
      </trkpt>
      <trkpt lat="43.94134" lon="1.85943">
        <ele>324.4</ele>
        <time>2021-03-21T13:42:11Z</time>
      </trkpt>
      <trkpt lat="43.94135" lon="1.85943">
        <ele>324.4</ele>
        <time>2021-03-21T13:42:12Z</time>
      </trkpt>
      <trkpt lat="43.94137" lon="1.85943">
        <ele>324.6</ele>
        <time>2021-03-21T13:42:13Z</time>
      </trkpt>
      <trkpt lat="43.94138" lon="1.85943">
        <ele>324.6</ele>
        <time>2021-03-21T13:42:14Z</time>
      </trkpt>
      <trkpt lat="43.94139" lon="1.85943">
        <ele>324.8</ele>
        <time>2021-03-21T13:42:15Z</time>
      </trkpt>
      <trkpt lat="43.94141" lon="1.85943">
        <ele>324.8</ele>
        <time>2021-03-21T13:42:16Z</time>
      </trkpt>
      <trkpt lat="43.94142" lon="1.85943">
        <ele>325.2</ele>
        <time>2021-03-21T13:42:17Z</time>
      </trkpt>
      <trkpt lat="43.94143" lon="1.85942">
        <ele>325.4</ele>
        <time>2021-03-21T13:42:18Z</time>
      </trkpt>
      <trkpt lat="43.94144" lon="1.85941">
        <ele>325.6</ele>
        <time>2021-03-21T13:42:19Z</time>
      </trkpt>
      <trkpt lat="43.94146" lon="1.8594">
        <ele>325.6</ele>
        <time>2021-03-21T13:42:20Z</time>
      </trkpt>
      <trkpt lat="43.94147" lon="1.85939">
        <ele>325.8</ele>
        <time>2021-03-21T13:42:21Z</time>
      </trkpt>
      <trkpt lat="43.94148" lon="1.85938">
        <ele>326</ele>
        <time>2021-03-21T13:42:22Z</time>
      </trkpt>
      <trkpt lat="43.94148" lon="1.85936">
        <ele>326.2</ele>
        <time>2021-03-21T13:42:23Z</time>
      </trkpt>
      <trkpt lat="43.94149" lon="1.85935">
        <ele>326.2</ele>
        <time>2021-03-21T13:42:24Z</time>
      </trkpt>
      <trkpt lat="43.94149" lon="1.85934">
        <ele>326.2</ele>
        <time>2021-03-21T13:42:25Z</time>
      </trkpt>
      <trkpt lat="43.9415" lon="1.85933">
        <ele>326.2</ele>
        <time>2021-03-21T13:42:26Z</time>
      </trkpt>
      <trkpt lat="43.94151" lon="1.85932">
        <ele>326.2</ele>
        <time>2021-03-21T13:42:27Z</time>
      </trkpt>
      <trkpt lat="43.94152" lon="1.85931">
        <ele>326.2</ele>
        <time>2021-03-21T13:42:28Z</time>
      </trkpt>
      <trkpt lat="43.94152" lon="1.85929">
        <ele>326.4</ele>
        <time>2021-03-21T13:42:29Z</time>
      </trkpt>
      <trkpt lat="43.94153" lon="1.85928">
        <ele>326.4</ele>
        <time>2021-03-21T13:42:30Z</time>
      </trkpt>
      <trkpt lat="43.94154" lon="1.85926">
        <ele>326.6</ele>
        <time>2021-03-21T13:42:31Z</time>
      </trkpt>
      <trkpt lat="43.94155" lon="1.85925">
        <ele>326.8</ele>
        <time>2021-03-21T13:42:32Z</time>
      </trkpt>
      <trkpt lat="43.94155" lon="1.85924">
        <ele>327.2</ele>
        <time>2021-03-21T13:42:33Z</time>
      </trkpt>
      <trkpt lat="43.94157" lon="1.85924">
        <ele>327.4</ele>
        <time>2021-03-21T13:42:34Z</time>
      </trkpt>
      <trkpt lat="43.94158" lon="1.85923">
        <ele>327.6</ele>
        <time>2021-03-21T13:42:35Z</time>
      </trkpt>
      <trkpt lat="43.94159" lon="1.85923">
        <ele>328</ele>
        <time>2021-03-21T13:42:36Z</time>
      </trkpt>
      <trkpt lat="43.9416" lon="1.85922">
        <ele>328.2</ele>
        <time>2021-03-21T13:42:37Z</time>
      </trkpt>
      <trkpt lat="43.94161" lon="1.85921">
        <ele>328.4</ele>
        <time>2021-03-21T13:42:38Z</time>
      </trkpt>
      <trkpt lat="43.94161" lon="1.8592">
        <ele>328.6</ele>
        <time>2021-03-21T13:42:39Z</time>
      </trkpt>
      <trkpt lat="43.94162" lon="1.85919">
        <ele>328.8</ele>
        <time>2021-03-21T13:42:40Z</time>
      </trkpt>
      <trkpt lat="43.94163" lon="1.85918">
        <ele>329</ele>
        <time>2021-03-21T13:42:41Z</time>
      </trkpt>
      <trkpt lat="43.94164" lon="1.85917">
        <ele>329.2</ele>
        <time>2021-03-21T13:42:42Z</time>
      </trkpt>
      <trkpt lat="43.94165" lon="1.85917">
        <ele>329.4</ele>
        <time>2021-03-21T13:42:43Z</time>
      </trkpt>
      <trkpt lat="43.94166" lon="1.85916">
        <ele>329.8</ele>
        <time>2021-03-21T13:42:44Z</time>
      </trkpt>
      <trkpt lat="43.94167" lon="1.85916">
        <ele>329.8</ele>
        <time>2021-03-21T13:42:45Z</time>
      </trkpt>
      <trkpt lat="43.94168" lon="1.85916">
        <ele>330.2</ele>
        <time>2021-03-21T13:42:46Z</time>
      </trkpt>
      <trkpt lat="43.94168" lon="1.85915">
        <ele>330.6</ele>
        <time>2021-03-21T13:42:47Z</time>
      </trkpt>
      <trkpt lat="43.94169" lon="1.85915">
        <ele>330.6</ele>
        <time>2021-03-21T13:42:48Z</time>
      </trkpt>
      <trkpt lat="43.94171" lon="1.85914">
        <ele>330.8</ele>
        <time>2021-03-21T13:42:49Z</time>
      </trkpt>
      <trkpt lat="43.94171" lon="1.85914">
        <ele>331.2</ele>
        <time>2021-03-21T13:42:50Z</time>
      </trkpt>
      <trkpt lat="43.94172" lon="1.85913">
        <ele>331.2</ele>
        <time>2021-03-21T13:42:51Z</time>
      </trkpt>
      <trkpt lat="43.94173" lon="1.85912">
        <ele>331.6</ele>
        <time>2021-03-21T13:42:52Z</time>
      </trkpt>
      <trkpt lat="43.94174" lon="1.85912">
        <ele>331.6</ele>
        <time>2021-03-21T13:42:53Z</time>
      </trkpt>
      <trkpt lat="43.94175" lon="1.85911">
        <ele>332</ele>
        <time>2021-03-21T13:42:54Z</time>
      </trkpt>
      <trkpt lat="43.94177" lon="1.85911">
        <ele>332.2</ele>
        <time>2021-03-21T13:42:55Z</time>
      </trkpt>
      <trkpt lat="43.94178" lon="1.85911">
        <ele>332.2</ele>
        <time>2021-03-21T13:42:56Z</time>
      </trkpt>
      <trkpt lat="43.94179" lon="1.8591">
        <ele>332.4</ele>
        <time>2021-03-21T13:42:57Z</time>
      </trkpt>
      <trkpt lat="43.9418" lon="1.8591">
        <ele>332.6</ele>
        <time>2021-03-21T13:42:58Z</time>
      </trkpt>
      <trkpt lat="43.94181" lon="1.85909">
        <ele>332.8</ele>
        <time>2021-03-21T13:42:59Z</time>
      </trkpt>
      <trkpt lat="43.94182" lon="1.85909">
        <ele>333.2</ele>
        <time>2021-03-21T13:43:00Z</time>
      </trkpt>
      <trkpt lat="43.94183" lon="1.85908">
        <ele>333.4</ele>
        <time>2021-03-21T13:43:01Z</time>
      </trkpt>
      <trkpt lat="43.94184" lon="1.85908">
        <ele>333.6</ele>
        <time>2021-03-21T13:43:02Z</time>
      </trkpt>
      <trkpt lat="43.94186" lon="1.85908">
        <ele>333.8</ele>
        <time>2021-03-21T13:43:03Z</time>
      </trkpt>
      <trkpt lat="43.94187" lon="1.85908">
        <ele>333.8</ele>
        <time>2021-03-21T13:43:04Z</time>
      </trkpt>
      <trkpt lat="43.94188" lon="1.85908">
        <ele>333.8</ele>
        <time>2021-03-21T13:43:05Z</time>
      </trkpt>
      <trkpt lat="43.94188" lon="1.85908">
        <ele>334.2</ele>
        <time>2021-03-21T13:43:06Z</time>
      </trkpt>
      <trkpt lat="43.94189" lon="1.85908">
        <ele>334.2</ele>
        <time>2021-03-21T13:43:07Z</time>
      </trkpt>
      <trkpt lat="43.9419" lon="1.85908">
        <ele>334.2</ele>
        <time>2021-03-21T13:43:08Z</time>
      </trkpt>
      <trkpt lat="43.94191" lon="1.85908">
        <ele>334.4</ele>
        <time>2021-03-21T13:43:09Z</time>
      </trkpt>
      <trkpt lat="43.94192" lon="1.85908">
        <ele>334.6</ele>
        <time>2021-03-21T13:43:10Z</time>
      </trkpt>
      <trkpt lat="43.94193" lon="1.85908">
        <ele>335</ele>
        <time>2021-03-21T13:43:11Z</time>
      </trkpt>
      <trkpt lat="43.94194" lon="1.85908">
        <ele>335.2</ele>
        <time>2021-03-21T13:43:12Z</time>
      </trkpt>
      <trkpt lat="43.94196" lon="1.85908">
        <ele>335.4</ele>
        <time>2021-03-21T13:43:13Z</time>
      </trkpt>
      <trkpt lat="43.94197" lon="1.85908">
        <ele>335.4</ele>
        <time>2021-03-21T13:43:14Z</time>
      </trkpt>
      <trkpt lat="43.94198" lon="1.85908">
        <ele>335.8</ele>
        <time>2021-03-21T13:43:15Z</time>
      </trkpt>
      <trkpt lat="43.94199" lon="1.85908">
        <ele>336</ele>
        <time>2021-03-21T13:43:16Z</time>
      </trkpt>
      <trkpt lat="43.942" lon="1.85908">
        <ele>336.2</ele>
        <time>2021-03-21T13:43:17Z</time>
      </trkpt>
      <trkpt lat="43.94201" lon="1.85908">
        <ele>336.6</ele>
        <time>2021-03-21T13:43:18Z</time>
      </trkpt>
      <trkpt lat="43.94202" lon="1.85908">
        <ele>336.8</ele>
        <time>2021-03-21T13:43:19Z</time>
      </trkpt>
      <trkpt lat="43.94204" lon="1.85908">
        <ele>337.2</ele>
        <time>2021-03-21T13:43:20Z</time>
      </trkpt>
      <trkpt lat="43.94205" lon="1.85908">
        <ele>337.4</ele>
        <time>2021-03-21T13:43:21Z</time>
      </trkpt>
      <trkpt lat="43.94206" lon="1.85908">
        <ele>337.6</ele>
        <time>2021-03-21T13:43:22Z</time>
      </trkpt>
      <trkpt lat="43.94207" lon="1.85908">
        <ele>338</ele>
        <time>2021-03-21T13:43:23Z</time>
      </trkpt>
      <trkpt lat="43.94208" lon="1.85909">
        <ele>338</ele>
        <time>2021-03-21T13:43:24Z</time>
      </trkpt>
      <trkpt lat="43.94209" lon="1.85909">
        <ele>338.2</ele>
        <time>2021-03-21T13:43:25Z</time>
      </trkpt>
      <trkpt lat="43.9421" lon="1.85908">
        <ele>338.2</ele>
        <time>2021-03-21T13:43:26Z</time>
      </trkpt>
      <trkpt lat="43.94211" lon="1.85908">
        <ele>338.4</ele>
        <time>2021-03-21T13:43:27Z</time>
      </trkpt>
      <trkpt lat="43.94212" lon="1.85907">
        <ele>338.4</ele>
        <time>2021-03-21T13:43:28Z</time>
      </trkpt>
      <trkpt lat="43.94213" lon="1.85907">
        <ele>338.6</ele>
        <time>2021-03-21T13:43:29Z</time>
      </trkpt>
      <trkpt lat="43.94214" lon="1.85907">
        <ele>338.6</ele>
        <time>2021-03-21T13:43:30Z</time>
      </trkpt>
      <trkpt lat="43.94215" lon="1.85907">
        <ele>338.6</ele>
        <time>2021-03-21T13:43:31Z</time>
      </trkpt>
      <trkpt lat="43.94216" lon="1.85906">
        <ele>338.8</ele>
        <time>2021-03-21T13:43:32Z</time>
      </trkpt>
      <trkpt lat="43.94217" lon="1.85906">
        <ele>338.8</ele>
        <time>2021-03-21T13:43:33Z</time>
      </trkpt>
      <trkpt lat="43.94218" lon="1.85906">
        <ele>338.8</ele>
        <time>2021-03-21T13:43:34Z</time>
      </trkpt>
      <trkpt lat="43.94218" lon="1.85905">
        <ele>339</ele>
        <time>2021-03-21T13:43:35Z</time>
      </trkpt>
      <trkpt lat="43.94219" lon="1.85905">
        <ele>339.2</ele>
        <time>2021-03-21T13:43:36Z</time>
      </trkpt>
      <trkpt lat="43.9422" lon="1.85904">
        <ele>339.4</ele>
        <time>2021-03-21T13:43:37Z</time>
      </trkpt>
      <trkpt lat="43.94221" lon="1.85904">
        <ele>339.8</ele>
        <time>2021-03-21T13:43:38Z</time>
      </trkpt>
      <trkpt lat="43.94222" lon="1.85903">
        <ele>339.8</ele>
        <time>2021-03-21T13:43:39Z</time>
      </trkpt>
      <trkpt lat="43.94223" lon="1.85903">
        <ele>340</ele>
        <time>2021-03-21T13:43:40Z</time>
      </trkpt>
      <trkpt lat="43.94223" lon="1.85902">
        <ele>340.2</ele>
        <time>2021-03-21T13:43:41Z</time>
      </trkpt>
      <trkpt lat="43.94224" lon="1.85902">
        <ele>340</ele>
        <time>2021-03-21T13:43:42Z</time>
      </trkpt>
      <trkpt lat="43.94225" lon="1.85902">
        <ele>340.2</ele>
        <time>2021-03-21T13:43:43Z</time>
      </trkpt>
      <trkpt lat="43.94226" lon="1.85901">
        <ele>340.6</ele>
        <time>2021-03-21T13:43:44Z</time>
      </trkpt>
      <trkpt lat="43.94227" lon="1.859">
        <ele>340.6</ele>
        <time>2021-03-21T13:43:45Z</time>
      </trkpt>
      <trkpt lat="43.94228" lon="1.859">
        <ele>340.6</ele>
        <time>2021-03-21T13:43:46Z</time>
      </trkpt>
      <trkpt lat="43.94229" lon="1.859">
        <ele>340.8</ele>
        <time>2021-03-21T13:43:47Z</time>
      </trkpt>
      <trkpt lat="43.9423" lon="1.859">
        <ele>340.6</ele>
        <time>2021-03-21T13:43:48Z</time>
      </trkpt>
      <trkpt lat="43.94231" lon="1.85901">
        <ele>340.8</ele>
        <time>2021-03-21T13:43:49Z</time>
      </trkpt>
      <trkpt lat="43.94232" lon="1.85901">
        <ele>341</ele>
        <time>2021-03-21T13:43:50Z</time>
      </trkpt>
      <trkpt lat="43.94233" lon="1.85902">
        <ele>341</ele>
        <time>2021-03-21T13:43:51Z</time>
      </trkpt>
      <trkpt lat="43.94234" lon="1.85903">
        <ele>341</ele>
        <time>2021-03-21T13:43:52Z</time>
      </trkpt>
      <trkpt lat="43.94235" lon="1.85904">
        <ele>341</ele>
        <time>2021-03-21T13:43:53Z</time>
      </trkpt>
      <trkpt lat="43.94236" lon="1.85904">
        <ele>341.2</ele>
        <time>2021-03-21T13:43:54Z</time>
      </trkpt>
      <trkpt lat="43.94237" lon="1.85905">
        <ele>341.2</ele>
        <time>2021-03-21T13:43:55Z</time>
      </trkpt>
      <trkpt lat="43.94238" lon="1.85905">
        <ele>341.4</ele>
        <time>2021-03-21T13:43:56Z</time>
      </trkpt>
      <trkpt lat="43.94239" lon="1.85906">
        <ele>341.6</ele>
        <time>2021-03-21T13:43:57Z</time>
      </trkpt>
      <trkpt lat="43.94241" lon="1.85906">
        <ele>341.8</ele>
        <time>2021-03-21T13:43:58Z</time>
      </trkpt>
      <trkpt lat="43.94242" lon="1.85906">
        <ele>341.8</ele>
        <time>2021-03-21T13:43:59Z</time>
      </trkpt>
      <trkpt lat="43.94243" lon="1.85906">
        <ele>341.8</ele>
        <time>2021-03-21T13:44:00Z</time>
      </trkpt>
      <trkpt lat="43.94246" lon="1.85907">
        <ele>342</ele>
        <time>2021-03-21T13:44:02Z</time>
      </trkpt>
      <trkpt lat="43.94247" lon="1.85907">
        <ele>342</ele>
        <time>2021-03-21T13:44:03Z</time>
      </trkpt>
      <trkpt lat="43.94249" lon="1.85907">
        <ele>342.2</ele>
        <time>2021-03-21T13:44:04Z</time>
      </trkpt>
      <trkpt lat="43.9425" lon="1.85907">
        <ele>342.2</ele>
        <time>2021-03-21T13:44:05Z</time>
      </trkpt>
      <trkpt lat="43.94251" lon="1.85908">
        <ele>342.2</ele>
        <time>2021-03-21T13:44:06Z</time>
      </trkpt>
      <trkpt lat="43.94253" lon="1.85908">
        <ele>342.2</ele>
        <time>2021-03-21T13:44:07Z</time>
      </trkpt>
      <trkpt lat="43.94254" lon="1.85908">
        <ele>342.2</ele>
        <time>2021-03-21T13:44:08Z</time>
      </trkpt>
      <trkpt lat="43.94255" lon="1.85908">
        <ele>342.6</ele>
        <time>2021-03-21T13:44:09Z</time>
      </trkpt>
      <trkpt lat="43.94256" lon="1.85908">
        <ele>342.6</ele>
        <time>2021-03-21T13:44:10Z</time>
      </trkpt>
      <trkpt lat="43.94258" lon="1.85908">
        <ele>342.8</ele>
        <time>2021-03-21T13:44:11Z</time>
      </trkpt>
      <trkpt lat="43.94259" lon="1.85908">
        <ele>342.8</ele>
        <time>2021-03-21T13:44:12Z</time>
      </trkpt>
      <trkpt lat="43.94262" lon="1.85908">
        <ele>342.8</ele>
        <time>2021-03-21T13:44:14Z</time>
      </trkpt>
      <trkpt lat="43.94263" lon="1.85908">
        <ele>343</ele>
        <time>2021-03-21T13:44:15Z</time>
      </trkpt>
      <trkpt lat="43.94264" lon="1.85908">
        <ele>343.2</ele>
        <time>2021-03-21T13:44:16Z</time>
      </trkpt>
      <trkpt lat="43.94266" lon="1.85908">
        <ele>343.2</ele>
        <time>2021-03-21T13:44:17Z</time>
      </trkpt>
      <trkpt lat="43.94267" lon="1.85908">
        <ele>343.2</ele>
        <time>2021-03-21T13:44:18Z</time>
      </trkpt>
      <trkpt lat="43.94268" lon="1.85908">
        <ele>343.6</ele>
        <time>2021-03-21T13:44:19Z</time>
      </trkpt>
      <trkpt lat="43.94269" lon="1.85908">
        <ele>343.6</ele>
        <time>2021-03-21T13:44:20Z</time>
      </trkpt>
      <trkpt lat="43.9427" lon="1.85908">
        <ele>343.8</ele>
        <time>2021-03-21T13:44:21Z</time>
      </trkpt>
      <trkpt lat="43.94271" lon="1.85908">
        <ele>343.8</ele>
        <time>2021-03-21T13:44:22Z</time>
      </trkpt>
      <trkpt lat="43.94272" lon="1.85908">
        <ele>343.8</ele>
        <time>2021-03-21T13:44:23Z</time>
      </trkpt>
      <trkpt lat="43.94273" lon="1.85908">
        <ele>344</ele>
        <time>2021-03-21T13:44:24Z</time>
      </trkpt>
      <trkpt lat="43.94275" lon="1.85908">
        <ele>344</ele>
        <time>2021-03-21T13:44:25Z</time>
      </trkpt>
      <trkpt lat="43.94276" lon="1.85908">
        <ele>344</ele>
        <time>2021-03-21T13:44:26Z</time>
      </trkpt>
      <trkpt lat="43.94277" lon="1.85908">
        <ele>344</ele>
        <time>2021-03-21T13:44:27Z</time>
      </trkpt>
      <trkpt lat="43.94278" lon="1.85908">
        <ele>344.2</ele>
        <time>2021-03-21T13:44:28Z</time>
      </trkpt>
      <trkpt lat="43.94279" lon="1.85909">
        <ele>344</ele>
        <time>2021-03-21T13:44:29Z</time>
      </trkpt>
      <trkpt lat="43.94281" lon="1.85909">
        <ele>344.2</ele>
        <time>2021-03-21T13:44:30Z</time>
      </trkpt>
      <trkpt lat="43.94282" lon="1.85909">
        <ele>344.4</ele>
        <time>2021-03-21T13:44:31Z</time>
      </trkpt>
      <trkpt lat="43.94283" lon="1.85909">
        <ele>344.4</ele>
        <time>2021-03-21T13:44:32Z</time>
      </trkpt>
      <trkpt lat="43.94284" lon="1.85909">
        <ele>344.8</ele>
        <time>2021-03-21T13:44:33Z</time>
      </trkpt>
      <trkpt lat="43.94285" lon="1.85909">
        <ele>344.8</ele>
        <time>2021-03-21T13:44:34Z</time>
      </trkpt>
      <trkpt lat="43.94287" lon="1.85909">
        <ele>345</ele>
        <time>2021-03-21T13:44:35Z</time>
      </trkpt>
      <trkpt lat="43.94288" lon="1.85909">
        <ele>345.2</ele>
        <time>2021-03-21T13:44:36Z</time>
      </trkpt>
      <trkpt lat="43.94289" lon="1.85909">
        <ele>345.4</ele>
        <time>2021-03-21T13:44:37Z</time>
      </trkpt>
      <trkpt lat="43.9429" lon="1.85909">
        <ele>345.4</ele>
        <time>2021-03-21T13:44:38Z</time>
      </trkpt>
      <trkpt lat="43.94292" lon="1.8591">
        <ele>345.8</ele>
        <time>2021-03-21T13:44:39Z</time>
      </trkpt>
      <trkpt lat="43.94293" lon="1.8591">
        <ele>346</ele>
        <time>2021-03-21T13:44:40Z</time>
      </trkpt>
      <trkpt lat="43.94294" lon="1.8591">
        <ele>346</ele>
        <time>2021-03-21T13:44:41Z</time>
      </trkpt>
      <trkpt lat="43.94295" lon="1.8591">
        <ele>346.2</ele>
        <time>2021-03-21T13:44:42Z</time>
      </trkpt>
      <trkpt lat="43.94297" lon="1.85909">
        <ele>346.4</ele>
        <time>2021-03-21T13:44:43Z</time>
      </trkpt>
      <trkpt lat="43.94298" lon="1.85909">
        <ele>346.6</ele>
        <time>2021-03-21T13:44:44Z</time>
      </trkpt>
      <trkpt lat="43.94299" lon="1.8591">
        <ele>346.6</ele>
        <time>2021-03-21T13:44:45Z</time>
      </trkpt>
      <trkpt lat="43.943" lon="1.8591">
        <ele>346.8</ele>
        <time>2021-03-21T13:44:46Z</time>
      </trkpt>
      <trkpt lat="43.94301" lon="1.8591">
        <ele>347</ele>
        <time>2021-03-21T13:44:47Z</time>
      </trkpt>
      <trkpt lat="43.94303" lon="1.8591">
        <ele>347</ele>
        <time>2021-03-21T13:44:48Z</time>
      </trkpt>
      <trkpt lat="43.94304" lon="1.8591">
        <ele>347.2</ele>
        <time>2021-03-21T13:44:49Z</time>
      </trkpt>
      <trkpt lat="43.94305" lon="1.8591">
        <ele>347.4</ele>
        <time>2021-03-21T13:44:50Z</time>
      </trkpt>
      <trkpt lat="43.94306" lon="1.8591">
        <ele>347.8</ele>
        <time>2021-03-21T13:44:51Z</time>
      </trkpt>
      <trkpt lat="43.94307" lon="1.8591">
        <ele>348</ele>
        <time>2021-03-21T13:44:52Z</time>
      </trkpt>
      <trkpt lat="43.94309" lon="1.85911">
        <ele>348.6</ele>
        <time>2021-03-21T13:44:53Z</time>
      </trkpt>
      <trkpt lat="43.9431" lon="1.85911">
        <ele>348.8</ele>
        <time>2021-03-21T13:44:54Z</time>
      </trkpt>
      <trkpt lat="43.94311" lon="1.85911">
        <ele>348.8</ele>
        <time>2021-03-21T13:44:55Z</time>
      </trkpt>
      <trkpt lat="43.94312" lon="1.85911">
        <ele>349</ele>
        <time>2021-03-21T13:44:56Z</time>
      </trkpt>
      <trkpt lat="43.94313" lon="1.85911">
        <ele>349.4</ele>
        <time>2021-03-21T13:44:57Z</time>
      </trkpt>
      <trkpt lat="43.94314" lon="1.85911">
        <ele>349.6</ele>
        <time>2021-03-21T13:44:58Z</time>
      </trkpt>
      <trkpt lat="43.94315" lon="1.85911">
        <ele>349.8</ele>
        <time>2021-03-21T13:44:59Z</time>
      </trkpt>
      <trkpt lat="43.94316" lon="1.85911">
        <ele>350</ele>
        <time>2021-03-21T13:45:00Z</time>
      </trkpt>
      <trkpt lat="43.94317" lon="1.85912">
        <ele>350.2</ele>
        <time>2021-03-21T13:45:01Z</time>
      </trkpt>
      <trkpt lat="43.94318" lon="1.85912">
        <ele>350.2</ele>
        <time>2021-03-21T13:45:02Z</time>
      </trkpt>
      <trkpt lat="43.94319" lon="1.85912">
        <ele>350.6</ele>
        <time>2021-03-21T13:45:03Z</time>
      </trkpt>
      <trkpt lat="43.9432" lon="1.85912">
        <ele>350.6</ele>
        <time>2021-03-21T13:45:04Z</time>
      </trkpt>
      <trkpt lat="43.94321" lon="1.85912">
        <ele>351</ele>
        <time>2021-03-21T13:45:05Z</time>
      </trkpt>
      <trkpt lat="43.94322" lon="1.85912">
        <ele>351.4</ele>
        <time>2021-03-21T13:45:06Z</time>
      </trkpt>
      <trkpt lat="43.94323" lon="1.85912">
        <ele>351.4</ele>
        <time>2021-03-21T13:45:07Z</time>
      </trkpt>
      <trkpt lat="43.94325" lon="1.85912">
        <ele>351.6</ele>
        <time>2021-03-21T13:45:08Z</time>
      </trkpt>
      <trkpt lat="43.94326" lon="1.85912">
        <ele>351.8</ele>
        <time>2021-03-21T13:45:09Z</time>
      </trkpt>
      <trkpt lat="43.94328" lon="1.85912">
        <ele>352</ele>
        <time>2021-03-21T13:45:10Z</time>
      </trkpt>
      <trkpt lat="43.94329" lon="1.85912">
        <ele>352.2</ele>
        <time>2021-03-21T13:45:11Z</time>
      </trkpt>
      <trkpt lat="43.9433" lon="1.85912">
        <ele>352.2</ele>
        <time>2021-03-21T13:45:12Z</time>
      </trkpt>
      <trkpt lat="43.94331" lon="1.85912">
        <ele>352.4</ele>
        <time>2021-03-21T13:45:13Z</time>
      </trkpt>
      <trkpt lat="43.94332" lon="1.85912">
        <ele>352.4</ele>
        <time>2021-03-21T13:45:14Z</time>
      </trkpt>
      <trkpt lat="43.94334" lon="1.85912">
        <ele>352.4</ele>
        <time>2021-03-21T13:45:15Z</time>
      </trkpt>
      <trkpt lat="43.94335" lon="1.85912">
        <ele>352.8</ele>
        <time>2021-03-21T13:45:16Z</time>
      </trkpt>
      <trkpt lat="43.94336" lon="1.85912">
        <ele>352.8</ele>
        <time>2021-03-21T13:45:17Z</time>
      </trkpt>
      <trkpt lat="43.94337" lon="1.85911">
        <ele>353</ele>
        <time>2021-03-21T13:45:18Z</time>
      </trkpt>
      <trkpt lat="43.94338" lon="1.85911">
        <ele>353.2</ele>
        <time>2021-03-21T13:45:19Z</time>
      </trkpt>
      <trkpt lat="43.94339" lon="1.8591">
        <ele>353.6</ele>
        <time>2021-03-21T13:45:20Z</time>
      </trkpt>
      <trkpt lat="43.94341" lon="1.8591">
        <ele>353.8</ele>
        <time>2021-03-21T13:45:21Z</time>
      </trkpt>
      <trkpt lat="43.94342" lon="1.85909">
        <ele>354</ele>
        <time>2021-03-21T13:45:22Z</time>
      </trkpt>
      <trkpt lat="43.94342" lon="1.85909">
        <ele>354.2</ele>
        <time>2021-03-21T13:45:23Z</time>
      </trkpt>
      <trkpt lat="43.94343" lon="1.85909">
        <ele>354.2</ele>
        <time>2021-03-21T13:45:24Z</time>
      </trkpt>
      <trkpt lat="43.94345" lon="1.85908">
        <ele>354.6</ele>
        <time>2021-03-21T13:45:25Z</time>
      </trkpt>
      <trkpt lat="43.94346" lon="1.85908">
        <ele>354.6</ele>
        <time>2021-03-21T13:45:26Z</time>
      </trkpt>
      <trkpt lat="43.94347" lon="1.85908">
        <ele>354.8</ele>
        <time>2021-03-21T13:45:27Z</time>
      </trkpt>
      <trkpt lat="43.94348" lon="1.85908">
        <ele>355.2</ele>
        <time>2021-03-21T13:45:28Z</time>
      </trkpt>
      <trkpt lat="43.94349" lon="1.85908">
        <ele>355.6</ele>
        <time>2021-03-21T13:45:29Z</time>
      </trkpt>
      <trkpt lat="43.9435" lon="1.85907">
        <ele>355.8</ele>
        <time>2021-03-21T13:45:30Z</time>
      </trkpt>
      <trkpt lat="43.9435" lon="1.85907">
        <ele>356</ele>
        <time>2021-03-21T13:45:31Z</time>
      </trkpt>
      <trkpt lat="43.94351" lon="1.85907">
        <ele>356</ele>
        <time>2021-03-21T13:45:32Z</time>
      </trkpt>
      <trkpt lat="43.94352" lon="1.85907">
        <ele>356</ele>
        <time>2021-03-21T13:45:33Z</time>
      </trkpt>
      <trkpt lat="43.94353" lon="1.85906">
        <ele>356.2</ele>
        <time>2021-03-21T13:45:34Z</time>
      </trkpt>
      <trkpt lat="43.94354" lon="1.85906">
        <ele>356.6</ele>
        <time>2021-03-21T13:45:35Z</time>
      </trkpt>
      <trkpt lat="43.94355" lon="1.85906">
        <ele>356.8</ele>
        <time>2021-03-21T13:45:36Z</time>
      </trkpt>
      <trkpt lat="43.94356" lon="1.85905">
        <ele>357</ele>
        <time>2021-03-21T13:45:37Z</time>
      </trkpt>
      <trkpt lat="43.94357" lon="1.85905">
        <ele>357.2</ele>
        <time>2021-03-21T13:45:38Z</time>
      </trkpt>
      <trkpt lat="43.94358" lon="1.85905">
        <ele>357.2</ele>
        <time>2021-03-21T13:45:39Z</time>
      </trkpt>
      <trkpt lat="43.94359" lon="1.85905">
        <ele>357.4</ele>
        <time>2021-03-21T13:45:40Z</time>
      </trkpt>
      <trkpt lat="43.9436" lon="1.85904">
        <ele>357.6</ele>
        <time>2021-03-21T13:45:41Z</time>
      </trkpt>
      <trkpt lat="43.94361" lon="1.85904">
        <ele>357.6</ele>
        <time>2021-03-21T13:45:42Z</time>
      </trkpt>
      <trkpt lat="43.94362" lon="1.85904">
        <ele>357.6</ele>
        <time>2021-03-21T13:45:43Z</time>
      </trkpt>
      <trkpt lat="43.94363" lon="1.85904">
        <ele>358</ele>
        <time>2021-03-21T13:45:44Z</time>
      </trkpt>
      <trkpt lat="43.94364" lon="1.85903">
        <ele>358</ele>
        <time>2021-03-21T13:45:45Z</time>
      </trkpt>
      <trkpt lat="43.94365" lon="1.85903">
        <ele>358.2</ele>
        <time>2021-03-21T13:45:46Z</time>
      </trkpt>
      <trkpt lat="43.94366" lon="1.85903">
        <ele>358.2</ele>
        <time>2021-03-21T13:45:47Z</time>
      </trkpt>
      <trkpt lat="43.94367" lon="1.85903">
        <ele>358.4</ele>
        <time>2021-03-21T13:45:48Z</time>
      </trkpt>
      <trkpt lat="43.94368" lon="1.85903">
        <ele>358.6</ele>
        <time>2021-03-21T13:45:49Z</time>
      </trkpt>
      <trkpt lat="43.94369" lon="1.85902">
        <ele>358.8</ele>
        <time>2021-03-21T13:45:50Z</time>
      </trkpt>
      <trkpt lat="43.9437" lon="1.85902">
        <ele>359</ele>
        <time>2021-03-21T13:45:51Z</time>
      </trkpt>
      <trkpt lat="43.94371" lon="1.85902">
        <ele>359.4</ele>
        <time>2021-03-21T13:45:52Z</time>
      </trkpt>
      <trkpt lat="43.94372" lon="1.85902">
        <ele>359.4</ele>
        <time>2021-03-21T13:45:53Z</time>
      </trkpt>
      <trkpt lat="43.94373" lon="1.85902">
        <ele>359.6</ele>
        <time>2021-03-21T13:45:54Z</time>
      </trkpt>
      <trkpt lat="43.94374" lon="1.85902">
        <ele>360</ele>
        <time>2021-03-21T13:45:55Z</time>
      </trkpt>
      <trkpt lat="43.94375" lon="1.85902">
        <ele>360</ele>
        <time>2021-03-21T13:45:56Z</time>
      </trkpt>
      <trkpt lat="43.94376" lon="1.85902">
        <ele>360.2</ele>
        <time>2021-03-21T13:45:57Z</time>
      </trkpt>
      <trkpt lat="43.94377" lon="1.85901">
        <ele>360.4</ele>
        <time>2021-03-21T13:45:58Z</time>
      </trkpt>
      <trkpt lat="43.94378" lon="1.85902">
        <ele>360.4</ele>
        <time>2021-03-21T13:45:59Z</time>
      </trkpt>
      <trkpt lat="43.94378" lon="1.85902">
        <ele>360.6</ele>
        <time>2021-03-21T13:46:00Z</time>
      </trkpt>
      <trkpt lat="43.94379" lon="1.85902">
        <ele>360.8</ele>
        <time>2021-03-21T13:46:01Z</time>
      </trkpt>
      <trkpt lat="43.9438" lon="1.85903">
        <ele>361</ele>
        <time>2021-03-21T13:46:02Z</time>
      </trkpt>
      <trkpt lat="43.94381" lon="1.85903">
        <ele>361</ele>
        <time>2021-03-21T13:46:03Z</time>
      </trkpt>
      <trkpt lat="43.94381" lon="1.85904">
        <ele>361.2</ele>
        <time>2021-03-21T13:46:04Z</time>
      </trkpt>
      <trkpt lat="43.94382" lon="1.85904">
        <ele>361.2</ele>
        <time>2021-03-21T13:46:05Z</time>
      </trkpt>
      <trkpt lat="43.94383" lon="1.85904">
        <ele>361.4</ele>
        <time>2021-03-21T13:46:06Z</time>
      </trkpt>
      <trkpt lat="43.94384" lon="1.85905">
        <ele>361.6</ele>
        <time>2021-03-21T13:46:07Z</time>
      </trkpt>
      <trkpt lat="43.94385" lon="1.85905">
        <ele>361.8</ele>
        <time>2021-03-21T13:46:08Z</time>
      </trkpt>
      <trkpt lat="43.94386" lon="1.85905">
        <ele>362</ele>
        <time>2021-03-21T13:46:09Z</time>
      </trkpt>
      <trkpt lat="43.94386" lon="1.85906">
        <ele>362</ele>
        <time>2021-03-21T13:46:10Z</time>
      </trkpt>
      <trkpt lat="43.94387" lon="1.85906">
        <ele>362</ele>
        <time>2021-03-21T13:46:11Z</time>
      </trkpt>
      <trkpt lat="43.94388" lon="1.85907">
        <ele>362.6</ele>
        <time>2021-03-21T13:46:12Z</time>
      </trkpt>
      <trkpt lat="43.94389" lon="1.85907">
        <ele>362.6</ele>
        <time>2021-03-21T13:46:13Z</time>
      </trkpt>
      <trkpt lat="43.9439" lon="1.85907">
        <ele>363</ele>
        <time>2021-03-21T13:46:14Z</time>
      </trkpt>
      <trkpt lat="43.94391" lon="1.85908">
        <ele>363</ele>
        <time>2021-03-21T13:46:15Z</time>
      </trkpt>
      <trkpt lat="43.94392" lon="1.85908">
        <ele>363.2</ele>
        <time>2021-03-21T13:46:16Z</time>
      </trkpt>
      <trkpt lat="43.94392" lon="1.85909">
        <ele>363.4</ele>
        <time>2021-03-21T13:46:17Z</time>
      </trkpt>
      <trkpt lat="43.94393" lon="1.85909">
        <ele>363.2</ele>
        <time>2021-03-21T13:46:18Z</time>
      </trkpt>
      <trkpt lat="43.94394" lon="1.85909">
        <ele>363.4</ele>
        <time>2021-03-21T13:46:19Z</time>
      </trkpt>
      <trkpt lat="43.94395" lon="1.8591">
        <ele>363.4</ele>
        <time>2021-03-21T13:46:20Z</time>
      </trkpt>
      <trkpt lat="43.94395" lon="1.8591">
        <ele>363.6</ele>
        <time>2021-03-21T13:46:21Z</time>
      </trkpt>
      <trkpt lat="43.94396" lon="1.8591">
        <ele>363.6</ele>
        <time>2021-03-21T13:46:22Z</time>
      </trkpt>
      <trkpt lat="43.94397" lon="1.8591">
        <ele>364</ele>
        <time>2021-03-21T13:46:23Z</time>
      </trkpt>
      <trkpt lat="43.94398" lon="1.8591">
        <ele>364.4</ele>
        <time>2021-03-21T13:46:24Z</time>
      </trkpt>
      <trkpt lat="43.94399" lon="1.85911">
        <ele>364.8</ele>
        <time>2021-03-21T13:46:25Z</time>
      </trkpt>
      <trkpt lat="43.944" lon="1.85911">
        <ele>364.8</ele>
        <time>2021-03-21T13:46:26Z</time>
      </trkpt>
      <trkpt lat="43.944" lon="1.85911">
        <ele>365</ele>
        <time>2021-03-21T13:46:27Z</time>
      </trkpt>
      <trkpt lat="43.94401" lon="1.85912">
        <ele>365</ele>
        <time>2021-03-21T13:46:28Z</time>
      </trkpt>
      <trkpt lat="43.94402" lon="1.85911">
        <ele>365</ele>
        <time>2021-03-21T13:46:29Z</time>
      </trkpt>
      <trkpt lat="43.94403" lon="1.85911">
        <ele>365</ele>
        <time>2021-03-21T13:46:30Z</time>
      </trkpt>
      <trkpt lat="43.94405" lon="1.85911">
        <ele>365.2</ele>
        <time>2021-03-21T13:46:31Z</time>
      </trkpt>
      <trkpt lat="43.94405" lon="1.85911">
        <ele>365.2</ele>
        <time>2021-03-21T13:46:32Z</time>
      </trkpt>
      <trkpt lat="43.94406" lon="1.85911">
        <ele>365.4</ele>
        <time>2021-03-21T13:46:33Z</time>
      </trkpt>
      <trkpt lat="43.94407" lon="1.85911">
        <ele>365.6</ele>
        <time>2021-03-21T13:46:34Z</time>
      </trkpt>
      <trkpt lat="43.94408" lon="1.8591">
        <ele>365.6</ele>
        <time>2021-03-21T13:46:35Z</time>
      </trkpt>
      <trkpt lat="43.94409" lon="1.8591">
        <ele>366</ele>
        <time>2021-03-21T13:46:36Z</time>
      </trkpt>
      <trkpt lat="43.9441" lon="1.8591">
        <ele>366.2</ele>
        <time>2021-03-21T13:46:37Z</time>
      </trkpt>
      <trkpt lat="43.94411" lon="1.8591">
        <ele>366.4</ele>
        <time>2021-03-21T13:46:38Z</time>
      </trkpt>
      <trkpt lat="43.94412" lon="1.85909">
        <ele>366.6</ele>
        <time>2021-03-21T13:46:39Z</time>
      </trkpt>
      <trkpt lat="43.94413" lon="1.85909">
        <ele>367</ele>
        <time>2021-03-21T13:46:40Z</time>
      </trkpt>
      <trkpt lat="43.94414" lon="1.85908">
        <ele>367.2</ele>
        <time>2021-03-21T13:46:41Z</time>
      </trkpt>
      <trkpt lat="43.94415" lon="1.85908">
        <ele>367.2</ele>
        <time>2021-03-21T13:46:42Z</time>
      </trkpt>
      <trkpt lat="43.94417" lon="1.85908">
        <ele>367.4</ele>
        <time>2021-03-21T13:46:43Z</time>
      </trkpt>
      <trkpt lat="43.94418" lon="1.85908">
        <ele>367.4</ele>
        <time>2021-03-21T13:46:44Z</time>
      </trkpt>
      <trkpt lat="43.94419" lon="1.85908">
        <ele>367.8</ele>
        <time>2021-03-21T13:46:45Z</time>
      </trkpt>
      <trkpt lat="43.9442" lon="1.85908">
        <ele>368</ele>
        <time>2021-03-21T13:46:46Z</time>
      </trkpt>
      <trkpt lat="43.94422" lon="1.85907">
        <ele>368.4</ele>
        <time>2021-03-21T13:46:47Z</time>
      </trkpt>
      <trkpt lat="43.94423" lon="1.85907">
        <ele>368.8</ele>
        <time>2021-03-21T13:46:48Z</time>
      </trkpt>
      <trkpt lat="43.94424" lon="1.85906">
        <ele>369.2</ele>
        <time>2021-03-21T13:46:49Z</time>
      </trkpt>
      <trkpt lat="43.94426" lon="1.85906">
        <ele>369.4</ele>
        <time>2021-03-21T13:46:50Z</time>
      </trkpt>
      <trkpt lat="43.94427" lon="1.85906">
        <ele>369.6</ele>
        <time>2021-03-21T13:46:51Z</time>
      </trkpt>
      <trkpt lat="43.94428" lon="1.85905">
        <ele>370.2</ele>
        <time>2021-03-21T13:46:52Z</time>
      </trkpt>
      <trkpt lat="43.94429" lon="1.85906">
        <ele>370.6</ele>
        <time>2021-03-21T13:46:53Z</time>
      </trkpt>
      <trkpt lat="43.9443" lon="1.85906">
        <ele>371</ele>
        <time>2021-03-21T13:46:54Z</time>
      </trkpt>
      <trkpt lat="43.94431" lon="1.85905">
        <ele>371.2</ele>
        <time>2021-03-21T13:46:55Z</time>
      </trkpt>
      <trkpt lat="43.94432" lon="1.85905">
        <ele>371.8</ele>
        <time>2021-03-21T13:46:56Z</time>
      </trkpt>
      <trkpt lat="43.94433" lon="1.85905">
        <ele>372.4</ele>
        <time>2021-03-21T13:46:57Z</time>
      </trkpt>
      <trkpt lat="43.94434" lon="1.85905">
        <ele>372.8</ele>
        <time>2021-03-21T13:46:58Z</time>
      </trkpt>
      <trkpt lat="43.94435" lon="1.85905">
        <ele>373.2</ele>
        <time>2021-03-21T13:46:59Z</time>
      </trkpt>
      <trkpt lat="43.94436" lon="1.85906">
        <ele>373.2</ele>
        <time>2021-03-21T13:47:00Z</time>
      </trkpt>
      <trkpt lat="43.94437" lon="1.85906">
        <ele>373.6</ele>
        <time>2021-03-21T13:47:01Z</time>
      </trkpt>
      <trkpt lat="43.94438" lon="1.85906">
        <ele>373.6</ele>
        <time>2021-03-21T13:47:02Z</time>
      </trkpt>
      <trkpt lat="43.94439" lon="1.85906">
        <ele>374</ele>
        <time>2021-03-21T13:47:03Z</time>
      </trkpt>
      <trkpt lat="43.9444" lon="1.85907">
        <ele>374.2</ele>
        <time>2021-03-21T13:47:04Z</time>
      </trkpt>
      <trkpt lat="43.94441" lon="1.85907">
        <ele>374.2</ele>
        <time>2021-03-21T13:47:05Z</time>
      </trkpt>
      <trkpt lat="43.94442" lon="1.85906">
        <ele>374.4</ele>
        <time>2021-03-21T13:47:06Z</time>
      </trkpt>
      <trkpt lat="43.94443" lon="1.85906">
        <ele>374.6</ele>
        <time>2021-03-21T13:47:07Z</time>
      </trkpt>
      <trkpt lat="43.94444" lon="1.85907">
        <ele>374.6</ele>
        <time>2021-03-21T13:47:08Z</time>
      </trkpt>
      <trkpt lat="43.94445" lon="1.85907">
        <ele>374.6</ele>
        <time>2021-03-21T13:47:09Z</time>
      </trkpt>
      <trkpt lat="43.94446" lon="1.85907">
        <ele>374.6</ele>
        <time>2021-03-21T13:47:10Z</time>
      </trkpt>
      <trkpt lat="43.94447" lon="1.85907">
        <ele>375.2</ele>
        <time>2021-03-21T13:47:11Z</time>
      </trkpt>
      <trkpt lat="43.94448" lon="1.85907">
        <ele>375.6</ele>
        <time>2021-03-21T13:47:12Z</time>
      </trkpt>
      <trkpt lat="43.94449" lon="1.85907">
        <ele>375.8</ele>
        <time>2021-03-21T13:47:13Z</time>
      </trkpt>
      <trkpt lat="43.9445" lon="1.85907">
        <ele>375.8</ele>
        <time>2021-03-21T13:47:14Z</time>
      </trkpt>
      <trkpt lat="43.94451" lon="1.85908">
        <ele>376.2</ele>
        <time>2021-03-21T13:47:15Z</time>
      </trkpt>
      <trkpt lat="43.94452" lon="1.85908">
        <ele>376.4</ele>
        <time>2021-03-21T13:47:16Z</time>
      </trkpt>
      <trkpt lat="43.94453" lon="1.85908">
        <ele>376.6</ele>
        <time>2021-03-21T13:47:17Z</time>
      </trkpt>
      <trkpt lat="43.94454" lon="1.85909">
        <ele>376.4</ele>
        <time>2021-03-21T13:47:18Z</time>
      </trkpt>
      <trkpt lat="43.94456" lon="1.85909">
        <ele>376.6</ele>
        <time>2021-03-21T13:47:19Z</time>
      </trkpt>
      <trkpt lat="43.94457" lon="1.8591">
        <ele>376.8</ele>
        <time>2021-03-21T13:47:20Z</time>
      </trkpt>
      <trkpt lat="43.94458" lon="1.85911">
        <ele>376.6</ele>
        <time>2021-03-21T13:47:21Z</time>
      </trkpt>
      <trkpt lat="43.94459" lon="1.85912">
        <ele>376.6</ele>
        <time>2021-03-21T13:47:22Z</time>
      </trkpt>
      <trkpt lat="43.94461" lon="1.85913">
        <ele>376.8</ele>
        <time>2021-03-21T13:47:23Z</time>
      </trkpt>
      <trkpt lat="43.94462" lon="1.85914">
        <ele>377</ele>
        <time>2021-03-21T13:47:24Z</time>
      </trkpt>
      <trkpt lat="43.94463" lon="1.85915">
        <ele>377</ele>
        <time>2021-03-21T13:47:25Z</time>
      </trkpt>
      <trkpt lat="43.94465" lon="1.85916">
        <ele>377</ele>
        <time>2021-03-21T13:47:26Z</time>
      </trkpt>
      <trkpt lat="43.94466" lon="1.85917">
        <ele>377</ele>
        <time>2021-03-21T13:47:27Z</time>
      </trkpt>
      <trkpt lat="43.94467" lon="1.85919">
        <ele>377.2</ele>
        <time>2021-03-21T13:47:28Z</time>
      </trkpt>
      <trkpt lat="43.94469" lon="1.85921">
        <ele>377.4</ele>
        <time>2021-03-21T13:47:29Z</time>
      </trkpt>
      <trkpt lat="43.94471" lon="1.85923">
        <ele>377.4</ele>
        <time>2021-03-21T13:47:30Z</time>
      </trkpt>
      <trkpt lat="43.94473" lon="1.85925">
        <ele>377.4</ele>
        <time>2021-03-21T13:47:31Z</time>
      </trkpt>
      <trkpt lat="43.94475" lon="1.85928">
        <ele>377.6</ele>
        <time>2021-03-21T13:47:32Z</time>
      </trkpt>
      <trkpt lat="43.94477" lon="1.85931">
        <ele>377.4</ele>
        <time>2021-03-21T13:47:33Z</time>
      </trkpt>
      <trkpt lat="43.94479" lon="1.85934">
        <ele>377.4</ele>
        <time>2021-03-21T13:47:34Z</time>
      </trkpt>
      <trkpt lat="43.94481" lon="1.85938">
        <ele>377.6</ele>
        <time>2021-03-21T13:47:35Z</time>
      </trkpt>
      <trkpt lat="43.94484" lon="1.85942">
        <ele>377.4</ele>
        <time>2021-03-21T13:47:36Z</time>
      </trkpt>
      <trkpt lat="43.94489" lon="1.85951">
        <ele>377.6</ele>
        <time>2021-03-21T13:47:38Z</time>
      </trkpt>
      <trkpt lat="43.94492" lon="1.85955">
        <ele>377.2</ele>
        <time>2021-03-21T13:47:39Z</time>
      </trkpt>
      <trkpt lat="43.94495" lon="1.85961">
        <ele>377</ele>
        <time>2021-03-21T13:47:40Z</time>
      </trkpt>
      <trkpt lat="43.94498" lon="1.85966">
        <ele>377</ele>
        <time>2021-03-21T13:47:41Z</time>
      </trkpt>
      <trkpt lat="43.94501" lon="1.85971">
        <ele>377</ele>
        <time>2021-03-21T13:47:42Z</time>
      </trkpt>
      <trkpt lat="43.94504" lon="1.85976">
        <ele>376.8</ele>
        <time>2021-03-21T13:47:43Z</time>
      </trkpt>
      <trkpt lat="43.94507" lon="1.85981">
        <ele>376.8</ele>
        <time>2021-03-21T13:47:44Z</time>
      </trkpt>
      <trkpt lat="43.94511" lon="1.85985">
        <ele>376.8</ele>
        <time>2021-03-21T13:47:45Z</time>
      </trkpt>
      <trkpt lat="43.94513" lon="1.8599">
        <ele>376.6</ele>
        <time>2021-03-21T13:47:46Z</time>
      </trkpt>
      <trkpt lat="43.94515" lon="1.85993">
        <ele>376.6</ele>
        <time>2021-03-21T13:47:47Z</time>
      </trkpt>
      <trkpt lat="43.94516" lon="1.85996">
        <ele>376.4</ele>
        <time>2021-03-21T13:47:48Z</time>
      </trkpt>
      <trkpt lat="43.94517" lon="1.85997">
        <ele>376.2</ele>
        <time>2021-03-21T13:47:49Z</time>
      </trkpt>
      <trkpt lat="43.94517" lon="1.85998">
        <ele>376</ele>
        <time>2021-03-21T13:47:50Z</time>
      </trkpt>
      <trkpt lat="43.94517" lon="1.85998">
        <ele>376</ele>
        <time>2021-03-21T13:47:51Z</time>
      </trkpt>
      <trkpt lat="43.94518" lon="1.86">
        <ele>375.8</ele>
        <time>2021-03-21T13:49:16Z</time>
      </trkpt>
      <trkpt lat="43.9452" lon="1.86001">
        <ele>376</ele>
        <time>2021-03-21T13:49:17Z</time>
      </trkpt>
      <trkpt lat="43.94522" lon="1.86003">
        <ele>375.8</ele>
        <time>2021-03-21T13:49:18Z</time>
      </trkpt>
      <trkpt lat="43.94525" lon="1.86006">
        <ele>376</ele>
        <time>2021-03-21T13:49:20Z</time>
      </trkpt>
      <trkpt lat="43.94527" lon="1.86007">
        <ele>375.8</ele>
        <time>2021-03-21T13:49:21Z</time>
      </trkpt>
      <trkpt lat="43.94529" lon="1.86008">
        <ele>376</ele>
        <time>2021-03-21T13:49:22Z</time>
      </trkpt>
      <trkpt lat="43.94531" lon="1.86009">
        <ele>376</ele>
        <time>2021-03-21T13:49:23Z</time>
      </trkpt>
      <trkpt lat="43.94533" lon="1.8601">
        <ele>376.2</ele>
        <time>2021-03-21T13:49:24Z</time>
      </trkpt>
      <trkpt lat="43.94535" lon="1.86011">
        <ele>376</ele>
        <time>2021-03-21T13:49:25Z</time>
      </trkpt>
      <trkpt lat="43.94537" lon="1.86013">
        <ele>376</ele>
        <time>2021-03-21T13:49:26Z</time>
      </trkpt>
      <trkpt lat="43.94539" lon="1.86014">
        <ele>376.2</ele>
        <time>2021-03-21T13:49:27Z</time>
      </trkpt>
      <trkpt lat="43.94541" lon="1.86016">
        <ele>376.2</ele>
        <time>2021-03-21T13:49:28Z</time>
      </trkpt>
      <trkpt lat="43.94543" lon="1.86017">
        <ele>376.2</ele>
        <time>2021-03-21T13:49:29Z</time>
      </trkpt>
      <trkpt lat="43.94548" lon="1.86019">
        <ele>376.4</ele>
        <time>2021-03-21T13:49:31Z</time>
      </trkpt>
      <trkpt lat="43.9455" lon="1.86021">
        <ele>376.4</ele>
        <time>2021-03-21T13:49:32Z</time>
      </trkpt>
      <trkpt lat="43.94552" lon="1.86022">
        <ele>376.4</ele>
        <time>2021-03-21T13:49:33Z</time>
      </trkpt>
      <trkpt lat="43.94554" lon="1.86023">
        <ele>376.6</ele>
        <time>2021-03-21T13:49:34Z</time>
      </trkpt>
      <trkpt lat="43.94558" lon="1.86026">
        <ele>376.8</ele>
        <time>2021-03-21T13:49:36Z</time>
      </trkpt>
      <trkpt lat="43.9456" lon="1.86027">
        <ele>376.8</ele>
        <time>2021-03-21T13:49:37Z</time>
      </trkpt>
      <trkpt lat="43.94562" lon="1.86028">
        <ele>377</ele>
        <time>2021-03-21T13:49:38Z</time>
      </trkpt>
      <trkpt lat="43.94564" lon="1.8603">
        <ele>377</ele>
        <time>2021-03-21T13:49:39Z</time>
      </trkpt>
      <trkpt lat="43.94566" lon="1.86031">
        <ele>377</ele>
        <time>2021-03-21T13:49:40Z</time>
      </trkpt>
      <trkpt lat="43.94569" lon="1.86032">
        <ele>377</ele>
        <time>2021-03-21T13:49:41Z</time>
      </trkpt>
      <trkpt lat="43.94571" lon="1.86033">
        <ele>377.2</ele>
        <time>2021-03-21T13:49:42Z</time>
      </trkpt>
      <trkpt lat="43.94575" lon="1.86036">
        <ele>377.2</ele>
        <time>2021-03-21T13:49:44Z</time>
      </trkpt>
      <trkpt lat="43.94578" lon="1.86037">
        <ele>377.4</ele>
        <time>2021-03-21T13:49:45Z</time>
      </trkpt>
      <trkpt lat="43.9458" lon="1.86038">
        <ele>377.6</ele>
        <time>2021-03-21T13:49:46Z</time>
      </trkpt>
      <trkpt lat="43.94582" lon="1.8604">
        <ele>377.8</ele>
        <time>2021-03-21T13:49:47Z</time>
      </trkpt>
      <trkpt lat="43.94586" lon="1.86043">
        <ele>378</ele>
        <time>2021-03-21T13:49:49Z</time>
      </trkpt>
      <trkpt lat="43.94588" lon="1.86044">
        <ele>378</ele>
        <time>2021-03-21T13:49:50Z</time>
      </trkpt>
      <trkpt lat="43.9459" lon="1.86045">
        <ele>378.4</ele>
        <time>2021-03-21T13:49:51Z</time>
      </trkpt>
      <trkpt lat="43.94592" lon="1.86046">
        <ele>378.4</ele>
        <time>2021-03-21T13:49:52Z</time>
      </trkpt>
      <trkpt lat="43.94595" lon="1.86048">
        <ele>378.4</ele>
        <time>2021-03-21T13:49:53Z</time>
      </trkpt>
      <trkpt lat="43.94597" lon="1.86049">
        <ele>378.4</ele>
        <time>2021-03-21T13:49:54Z</time>
      </trkpt>
      <trkpt lat="43.94599" lon="1.8605">
        <ele>378.4</ele>
        <time>2021-03-21T13:49:55Z</time>
      </trkpt>
      <trkpt lat="43.94601" lon="1.86051">
        <ele>378.8</ele>
        <time>2021-03-21T13:49:56Z</time>
      </trkpt>
      <trkpt lat="43.94604" lon="1.86052">
        <ele>379</ele>
        <time>2021-03-21T13:49:57Z</time>
      </trkpt>
      <trkpt lat="43.94606" lon="1.86053">
        <ele>379.2</ele>
        <time>2021-03-21T13:49:58Z</time>
      </trkpt>
      <trkpt lat="43.94609" lon="1.86054">
        <ele>379.2</ele>
        <time>2021-03-21T13:49:59Z</time>
      </trkpt>
      <trkpt lat="43.94611" lon="1.86055">
        <ele>379.4</ele>
        <time>2021-03-21T13:50:00Z</time>
      </trkpt>
      <trkpt lat="43.94614" lon="1.86056">
        <ele>379.6</ele>
        <time>2021-03-21T13:50:01Z</time>
      </trkpt>
      <trkpt lat="43.94616" lon="1.86057">
        <ele>379.8</ele>
        <time>2021-03-21T13:50:02Z</time>
      </trkpt>
      <trkpt lat="43.94619" lon="1.86058">
        <ele>380</ele>
        <time>2021-03-21T13:50:03Z</time>
      </trkpt>
      <trkpt lat="43.94621" lon="1.86058">
        <ele>380.4</ele>
        <time>2021-03-21T13:50:04Z</time>
      </trkpt>
      <trkpt lat="43.94624" lon="1.86059">
        <ele>380.6</ele>
        <time>2021-03-21T13:50:05Z</time>
      </trkpt>
      <trkpt lat="43.94627" lon="1.8606">
        <ele>380.8</ele>
        <time>2021-03-21T13:50:06Z</time>
      </trkpt>
      <trkpt lat="43.9463" lon="1.8606">
        <ele>381</ele>
        <time>2021-03-21T13:50:07Z</time>
      </trkpt>
      <trkpt lat="43.94632" lon="1.86061">
        <ele>381.4</ele>
        <time>2021-03-21T13:50:08Z</time>
      </trkpt>
      <trkpt lat="43.94635" lon="1.86061">
        <ele>381.6</ele>
        <time>2021-03-21T13:50:09Z</time>
      </trkpt>
      <trkpt lat="43.94638" lon="1.86062">
        <ele>382</ele>
        <time>2021-03-21T13:50:10Z</time>
      </trkpt>
      <trkpt lat="43.9464" lon="1.86062">
        <ele>382.2</ele>
        <time>2021-03-21T13:50:11Z</time>
      </trkpt>
      <trkpt lat="43.94643" lon="1.86063">
        <ele>382.2</ele>
        <time>2021-03-21T13:50:12Z</time>
      </trkpt>
      <trkpt lat="43.94645" lon="1.86063">
        <ele>382.4</ele>
        <time>2021-03-21T13:50:13Z</time>
      </trkpt>
      <trkpt lat="43.94648" lon="1.86064">
        <ele>382.4</ele>
        <time>2021-03-21T13:50:14Z</time>
      </trkpt>
      <trkpt lat="43.94651" lon="1.86065">
        <ele>382.4</ele>
        <time>2021-03-21T13:50:15Z</time>
      </trkpt>
      <trkpt lat="43.94654" lon="1.86065">
        <ele>382.6</ele>
        <time>2021-03-21T13:50:16Z</time>
      </trkpt>
      <trkpt lat="43.94657" lon="1.86066">
        <ele>382.4</ele>
        <time>2021-03-21T13:50:17Z</time>
      </trkpt>
      <trkpt lat="43.94659" lon="1.86067">
        <ele>382.4</ele>
        <time>2021-03-21T13:50:18Z</time>
      </trkpt>
      <trkpt lat="43.94662" lon="1.86067">
        <ele>382.6</ele>
        <time>2021-03-21T13:50:19Z</time>
      </trkpt>
      <trkpt lat="43.94665" lon="1.86067">
        <ele>382.6</ele>
        <time>2021-03-21T13:50:20Z</time>
      </trkpt>
      <trkpt lat="43.94668" lon="1.86067">
        <ele>382.6</ele>
        <time>2021-03-21T13:50:21Z</time>
      </trkpt>
      <trkpt lat="43.94671" lon="1.86068">
        <ele>382.4</ele>
        <time>2021-03-21T13:50:22Z</time>
      </trkpt>
      <trkpt lat="43.94674" lon="1.86068">
        <ele>382.4</ele>
        <time>2021-03-21T13:50:23Z</time>
      </trkpt>
      <trkpt lat="43.94677" lon="1.86068">
        <ele>382</ele>
        <time>2021-03-21T13:50:24Z</time>
      </trkpt>
      <trkpt lat="43.9468" lon="1.86068">
        <ele>382</ele>
        <time>2021-03-21T13:50:25Z</time>
      </trkpt>
      <trkpt lat="43.94684" lon="1.86069">
        <ele>381.8</ele>
        <time>2021-03-21T13:50:26Z</time>
      </trkpt>
      <trkpt lat="43.94692" lon="1.8607">
        <ele>381.8</ele>
        <time>2021-03-21T13:50:28Z</time>
      </trkpt>
      <trkpt lat="43.94696" lon="1.86071">
        <ele>381.8</ele>
        <time>2021-03-21T13:50:29Z</time>
      </trkpt>
      <trkpt lat="43.94699" lon="1.86072">
        <ele>381.6</ele>
        <time>2021-03-21T13:50:30Z</time>
      </trkpt>
      <trkpt lat="43.94703" lon="1.86073">
        <ele>381.6</ele>
        <time>2021-03-21T13:50:31Z</time>
      </trkpt>
      <trkpt lat="43.94712" lon="1.86075">
        <ele>381.6</ele>
        <time>2021-03-21T13:50:33Z</time>
      </trkpt>
      <trkpt lat="43.94716" lon="1.86076">
        <ele>381.4</ele>
        <time>2021-03-21T13:50:34Z</time>
      </trkpt>
      <trkpt lat="43.9472" lon="1.86077">
        <ele>381.4</ele>
        <time>2021-03-21T13:50:35Z</time>
      </trkpt>
      <trkpt lat="43.94724" lon="1.86078">
        <ele>381.6</ele>
        <time>2021-03-21T13:50:36Z</time>
      </trkpt>
      <trkpt lat="43.94728" lon="1.86079">
        <ele>381.4</ele>
        <time>2021-03-21T13:50:37Z</time>
      </trkpt>
      <trkpt lat="43.94731" lon="1.86081">
        <ele>381.4</ele>
        <time>2021-03-21T13:50:38Z</time>
      </trkpt>
      <trkpt lat="43.94735" lon="1.86082">
        <ele>381.4</ele>
        <time>2021-03-21T13:50:39Z</time>
      </trkpt>
      <trkpt lat="43.94743" lon="1.86086">
        <ele>381.6</ele>
        <time>2021-03-21T13:50:41Z</time>
      </trkpt>
      <trkpt lat="43.94746" lon="1.86088">
        <ele>381.6</ele>
        <time>2021-03-21T13:50:42Z</time>
      </trkpt>
      <trkpt lat="43.9475" lon="1.86091">
        <ele>381.8</ele>
        <time>2021-03-21T13:50:43Z</time>
      </trkpt>
      <trkpt lat="43.94754" lon="1.86093">
        <ele>381.6</ele>
        <time>2021-03-21T13:50:44Z</time>
      </trkpt>
      <trkpt lat="43.94758" lon="1.86096">
        <ele>381.6</ele>
        <time>2021-03-21T13:50:45Z</time>
      </trkpt>
      <trkpt lat="43.94761" lon="1.86099">
        <ele>381.4</ele>
        <time>2021-03-21T13:50:46Z</time>
      </trkpt>
      <trkpt lat="43.94765" lon="1.86102">
        <ele>381.4</ele>
        <time>2021-03-21T13:50:47Z</time>
      </trkpt>
      <trkpt lat="43.94769" lon="1.86105">
        <ele>381.6</ele>
        <time>2021-03-21T13:50:48Z</time>
      </trkpt>
      <trkpt lat="43.94773" lon="1.86109">
        <ele>381.4</ele>
        <time>2021-03-21T13:50:49Z</time>
      </trkpt>
      <trkpt lat="43.94777" lon="1.86112">
        <ele>381.4</ele>
        <time>2021-03-21T13:50:50Z</time>
      </trkpt>
      <trkpt lat="43.94781" lon="1.86115">
        <ele>381.4</ele>
        <time>2021-03-21T13:50:51Z</time>
      </trkpt>
      <trkpt lat="43.94785" lon="1.86119">
        <ele>381.4</ele>
        <time>2021-03-21T13:50:52Z</time>
      </trkpt>
      <trkpt lat="43.94793" lon="1.86126">
        <ele>381.4</ele>
        <time>2021-03-21T13:50:54Z</time>
      </trkpt>
      <trkpt lat="43.94797" lon="1.86129">
        <ele>381</ele>
        <time>2021-03-21T13:50:55Z</time>
      </trkpt>
      <trkpt lat="43.94801" lon="1.86133">
        <ele>380.8</ele>
        <time>2021-03-21T13:50:56Z</time>
      </trkpt>
      <trkpt lat="43.94805" lon="1.86137">
        <ele>380.2</ele>
        <time>2021-03-21T13:50:57Z</time>
      </trkpt>
      <trkpt lat="43.94809" lon="1.86141">
        <ele>380.2</ele>
        <time>2021-03-21T13:50:58Z</time>
      </trkpt>
      <trkpt lat="43.94813" lon="1.86144">
        <ele>380</ele>
        <time>2021-03-21T13:50:59Z</time>
      </trkpt>
      <trkpt lat="43.94816" lon="1.86148">
        <ele>380</ele>
        <time>2021-03-21T13:51:00Z</time>
      </trkpt>
      <trkpt lat="43.94824" lon="1.86156">
        <ele>379.4</ele>
        <time>2021-03-21T13:51:02Z</time>
      </trkpt>
      <trkpt lat="43.94828" lon="1.8616">
        <ele>379.4</ele>
        <time>2021-03-21T13:51:03Z</time>
      </trkpt>
      <trkpt lat="43.94832" lon="1.86164">
        <ele>379.2</ele>
        <time>2021-03-21T13:51:04Z</time>
      </trkpt>
      <trkpt lat="43.94837" lon="1.86168">
        <ele>379.2</ele>
        <time>2021-03-21T13:51:05Z</time>
      </trkpt>
      <trkpt lat="43.94842" lon="1.86173">
        <ele>379.2</ele>
        <time>2021-03-21T13:51:06Z</time>
      </trkpt>
      <trkpt lat="43.94846" lon="1.86177">
        <ele>379</ele>
        <time>2021-03-21T13:51:07Z</time>
      </trkpt>
      <trkpt lat="43.94851" lon="1.86182">
        <ele>379</ele>
        <time>2021-03-21T13:51:08Z</time>
      </trkpt>
      <trkpt lat="43.94862" lon="1.86192">
        <ele>378.8</ele>
        <time>2021-03-21T13:51:10Z</time>
      </trkpt>
      <trkpt lat="43.94867" lon="1.86197">
        <ele>378.6</ele>
        <time>2021-03-21T13:51:11Z</time>
      </trkpt>
      <trkpt lat="43.94872" lon="1.86203">
        <ele>378.6</ele>
        <time>2021-03-21T13:51:12Z</time>
      </trkpt>
      <trkpt lat="43.94877" lon="1.86208">
        <ele>378.6</ele>
        <time>2021-03-21T13:51:13Z</time>
      </trkpt>
      <trkpt lat="43.94886" lon="1.8622">
        <ele>377.8</ele>
        <time>2021-03-21T13:51:15Z</time>
      </trkpt>
      <trkpt lat="43.94891" lon="1.86227">
        <ele>377.8</ele>
        <time>2021-03-21T13:51:16Z</time>
      </trkpt>
      <trkpt lat="43.94895" lon="1.86234">
        <ele>377.4</ele>
        <time>2021-03-21T13:51:17Z</time>
      </trkpt>
      <trkpt lat="43.94898" lon="1.86242">
        <ele>377.4</ele>
        <time>2021-03-21T13:51:18Z</time>
      </trkpt>
      <trkpt lat="43.94905" lon="1.86258">
        <ele>376.8</ele>
        <time>2021-03-21T13:51:20Z</time>
      </trkpt>
      <trkpt lat="43.94908" lon="1.86266">
        <ele>376.8</ele>
        <time>2021-03-21T13:51:21Z</time>
      </trkpt>
      <trkpt lat="43.94912" lon="1.86274">
        <ele>376.8</ele>
        <time>2021-03-21T13:51:22Z</time>
      </trkpt>
      <trkpt lat="43.94915" lon="1.86282">
        <ele>376.4</ele>
        <time>2021-03-21T13:51:23Z</time>
      </trkpt>
      <trkpt lat="43.94918" lon="1.8629">
        <ele>376.2</ele>
        <time>2021-03-21T13:51:24Z</time>
      </trkpt>
      <trkpt lat="43.94921" lon="1.86299">
        <ele>376.4</ele>
        <time>2021-03-21T13:51:25Z</time>
      </trkpt>
      <trkpt lat="43.94924" lon="1.86307">
        <ele>376.2</ele>
        <time>2021-03-21T13:51:26Z</time>
      </trkpt>
      <trkpt lat="43.94928" lon="1.86315">
        <ele>376</ele>
        <time>2021-03-21T13:51:27Z</time>
      </trkpt>
      <trkpt lat="43.94931" lon="1.86323">
        <ele>375.8</ele>
        <time>2021-03-21T13:51:28Z</time>
      </trkpt>
      <trkpt lat="43.94934" lon="1.86331">
        <ele>375.8</ele>
        <time>2021-03-21T13:51:29Z</time>
      </trkpt>
      <trkpt lat="43.94937" lon="1.8634">
        <ele>375.2</ele>
        <time>2021-03-21T13:51:30Z</time>
      </trkpt>
      <trkpt lat="43.9494" lon="1.86348">
        <ele>375.2</ele>
        <time>2021-03-21T13:51:31Z</time>
      </trkpt>
      <trkpt lat="43.94947" lon="1.86365">
        <ele>374.4</ele>
        <time>2021-03-21T13:51:33Z</time>
      </trkpt>
      <trkpt lat="43.9495" lon="1.86374">
        <ele>373.4</ele>
        <time>2021-03-21T13:51:34Z</time>
      </trkpt>
      <trkpt lat="43.94954" lon="1.86383">
        <ele>373.2</ele>
        <time>2021-03-21T13:51:35Z</time>
      </trkpt>
      <trkpt lat="43.94957" lon="1.86392">
        <ele>372.8</ele>
        <time>2021-03-21T13:51:36Z</time>
      </trkpt>
      <trkpt lat="43.94964" lon="1.8641">
        <ele>372.8</ele>
        <time>2021-03-21T13:51:38Z</time>
      </trkpt>
      <trkpt lat="43.94968" lon="1.86419">
        <ele>372.6</ele>
        <time>2021-03-21T13:51:39Z</time>
      </trkpt>
      <trkpt lat="43.94972" lon="1.86428">
        <ele>372.8</ele>
        <time>2021-03-21T13:51:40Z</time>
      </trkpt>
      <trkpt lat="43.94975" lon="1.86437">
        <ele>372.6</ele>
        <time>2021-03-21T13:51:41Z</time>
      </trkpt>
      <trkpt lat="43.94982" lon="1.86454">
        <ele>372.8</ele>
        <time>2021-03-21T13:51:43Z</time>
      </trkpt>
      <trkpt lat="43.94986" lon="1.86462">
        <ele>372.6</ele>
        <time>2021-03-21T13:51:44Z</time>
      </trkpt>
      <trkpt lat="43.9499" lon="1.86469">
        <ele>372.8</ele>
        <time>2021-03-21T13:51:45Z</time>
      </trkpt>
      <trkpt lat="43.94994" lon="1.86476">
        <ele>372.6</ele>
        <time>2021-03-21T13:51:46Z</time>
      </trkpt>
      <trkpt lat="43.94999" lon="1.86482">
        <ele>372.8</ele>
        <time>2021-03-21T13:51:47Z</time>
      </trkpt>
      <trkpt lat="43.95003" lon="1.86488">
        <ele>372.8</ele>
        <time>2021-03-21T13:51:48Z</time>
      </trkpt>
      <trkpt lat="43.95008" lon="1.86493">
        <ele>373</ele>
        <time>2021-03-21T13:51:49Z</time>
      </trkpt>
      <trkpt lat="43.95013" lon="1.86497">
        <ele>373</ele>
        <time>2021-03-21T13:51:50Z</time>
      </trkpt>
      <trkpt lat="43.95017" lon="1.86502">
        <ele>373</ele>
        <time>2021-03-21T13:51:51Z</time>
      </trkpt>
      <trkpt lat="43.95021" lon="1.86506">
        <ele>373</ele>
        <time>2021-03-21T13:51:52Z</time>
      </trkpt>
      <trkpt lat="43.95026" lon="1.8651">
        <ele>373.2</ele>
        <time>2021-03-21T13:51:53Z</time>
      </trkpt>
      <trkpt lat="43.9503" lon="1.86513">
        <ele>373.2</ele>
        <time>2021-03-21T13:51:54Z</time>
      </trkpt>
      <trkpt lat="43.95035" lon="1.86517">
        <ele>373.4</ele>
        <time>2021-03-21T13:51:55Z</time>
      </trkpt>
      <trkpt lat="43.95039" lon="1.8652">
        <ele>373.4</ele>
        <time>2021-03-21T13:51:56Z</time>
      </trkpt>
      <trkpt lat="43.95043" lon="1.86524">
        <ele>373.4</ele>
        <time>2021-03-21T13:51:57Z</time>
      </trkpt>
      <trkpt lat="43.95047" lon="1.86527">
        <ele>373.6</ele>
        <time>2021-03-21T13:51:58Z</time>
      </trkpt>
      <trkpt lat="43.9505" lon="1.86531">
        <ele>373.6</ele>
        <time>2021-03-21T13:51:59Z</time>
      </trkpt>
      <trkpt lat="43.95054" lon="1.86534">
        <ele>373.6</ele>
        <time>2021-03-21T13:52:00Z</time>
      </trkpt>
      <trkpt lat="43.95057" lon="1.86537">
        <ele>373.6</ele>
        <time>2021-03-21T13:52:01Z</time>
      </trkpt>
      <trkpt lat="43.95061" lon="1.8654">
        <ele>373.8</ele>
        <time>2021-03-21T13:52:02Z</time>
      </trkpt>
      <trkpt lat="43.95064" lon="1.86543">
        <ele>373.8</ele>
        <time>2021-03-21T13:52:03Z</time>
      </trkpt>
      <trkpt lat="43.95067" lon="1.86546">
        <ele>373.8</ele>
        <time>2021-03-21T13:52:04Z</time>
      </trkpt>
      <trkpt lat="43.9507" lon="1.86549">
        <ele>374.2</ele>
        <time>2021-03-21T13:52:05Z</time>
      </trkpt>
      <trkpt lat="43.95073" lon="1.86552">
        <ele>374.8</ele>
        <time>2021-03-21T13:52:06Z</time>
      </trkpt>
      <trkpt lat="43.95076" lon="1.86554">
        <ele>375.4</ele>
        <time>2021-03-21T13:52:07Z</time>
      </trkpt>
      <trkpt lat="43.95079" lon="1.86557">
        <ele>375.6</ele>
        <time>2021-03-21T13:52:08Z</time>
      </trkpt>
      <trkpt lat="43.95082" lon="1.8656">
        <ele>375.8</ele>
        <time>2021-03-21T13:52:09Z</time>
      </trkpt>
      <trkpt lat="43.95085" lon="1.86563">
        <ele>375.8</ele>
        <time>2021-03-21T13:52:10Z</time>
      </trkpt>
      <trkpt lat="43.95088" lon="1.86566">
        <ele>376</ele>
        <time>2021-03-21T13:52:11Z</time>
      </trkpt>
      <trkpt lat="43.95091" lon="1.86568">
        <ele>376.2</ele>
        <time>2021-03-21T13:52:12Z</time>
      </trkpt>
      <trkpt lat="43.95093" lon="1.86571">
        <ele>376.2</ele>
        <time>2021-03-21T13:52:13Z</time>
      </trkpt>
      <trkpt lat="43.95096" lon="1.86573">
        <ele>376.6</ele>
        <time>2021-03-21T13:52:14Z</time>
      </trkpt>
      <trkpt lat="43.95099" lon="1.86576">
        <ele>377</ele>
        <time>2021-03-21T13:52:15Z</time>
      </trkpt>
      <trkpt lat="43.95101" lon="1.86578">
        <ele>377.4</ele>
        <time>2021-03-21T13:52:16Z</time>
      </trkpt>
      <trkpt lat="43.95103" lon="1.86579">
        <ele>377.4</ele>
        <time>2021-03-21T13:52:17Z</time>
      </trkpt>
      <trkpt lat="43.95105" lon="1.8658">
        <ele>377.4</ele>
        <time>2021-03-21T13:52:18Z</time>
      </trkpt>
      <trkpt lat="43.95106" lon="1.8658">
        <ele>377.6</ele>
        <time>2021-03-21T13:52:19Z</time>
      </trkpt>
      <trkpt lat="43.95106" lon="1.8658">
        <ele>377.6</ele>
        <time>2021-03-21T13:52:20Z</time>
      </trkpt>
      <trkpt lat="43.95106" lon="1.8658">
        <ele>378</ele>
        <time>2021-03-21T13:52:21Z</time>
      </trkpt>
      <trkpt lat="43.95177" lon="1.86564">
        <ele>389.2</ele>
        <time>2021-03-21T13:56:13Z</time>
      </trkpt>
      <trkpt lat="43.9518" lon="1.86565">
        <ele>389.2</ele>
        <time>2021-03-21T13:56:15Z</time>
      </trkpt>
      <trkpt lat="43.95181" lon="1.86566">
        <ele>389.2</ele>
        <time>2021-03-21T13:56:16Z</time>
      </trkpt>
      <trkpt lat="43.95186" lon="1.86566">
        <ele>389.2</ele>
        <time>2021-03-21T13:56:18Z</time>
      </trkpt>
      <trkpt lat="43.95188" lon="1.86565">
        <ele>389.4</ele>
        <time>2021-03-21T13:56:19Z</time>
      </trkpt>
      <trkpt lat="43.95191" lon="1.86564">
        <ele>389.2</ele>
        <time>2021-03-21T13:56:20Z</time>
      </trkpt>
      <trkpt lat="43.95194" lon="1.86562">
        <ele>389.4</ele>
        <time>2021-03-21T13:56:21Z</time>
      </trkpt>
      <trkpt lat="43.95197" lon="1.86561">
        <ele>389.4</ele>
        <time>2021-03-21T13:56:22Z</time>
      </trkpt>
      <trkpt lat="43.952" lon="1.86559">
        <ele>389.2</ele>
        <time>2021-03-21T13:56:23Z</time>
      </trkpt>
      <trkpt lat="43.95202" lon="1.86557">
        <ele>389.2</ele>
        <time>2021-03-21T13:56:24Z</time>
      </trkpt>
      <trkpt lat="43.95204" lon="1.86556">
        <ele>389.4</ele>
        <time>2021-03-21T13:56:25Z</time>
      </trkpt>
      <trkpt lat="43.95207" lon="1.86554">
        <ele>389.2</ele>
        <time>2021-03-21T13:56:26Z</time>
      </trkpt>
      <trkpt lat="43.95208" lon="1.86553">
        <ele>389.2</ele>
        <time>2021-03-21T13:56:27Z</time>
      </trkpt>
      <trkpt lat="43.9521" lon="1.86552">
        <ele>388.8</ele>
        <time>2021-03-21T13:56:28Z</time>
      </trkpt>
      <trkpt lat="43.95211" lon="1.86551">
        <ele>388.6</ele>
        <time>2021-03-21T13:56:29Z</time>
      </trkpt>
      <trkpt lat="43.95212" lon="1.8655">
        <ele>388.2</ele>
        <time>2021-03-21T13:56:30Z</time>
      </trkpt>
      <trkpt lat="43.95214" lon="1.86549">
        <ele>387.8</ele>
        <time>2021-03-21T13:56:31Z</time>
      </trkpt>
      <trkpt lat="43.95215" lon="1.86546">
        <ele>387.6</ele>
        <time>2021-03-21T13:56:32Z</time>
      </trkpt>
      <trkpt lat="43.95217" lon="1.86544">
        <ele>387.4</ele>
        <time>2021-03-21T13:56:33Z</time>
      </trkpt>
      <trkpt lat="43.95219" lon="1.86542">
        <ele>387</ele>
        <time>2021-03-21T13:56:34Z</time>
      </trkpt>
      <trkpt lat="43.95221" lon="1.8654">
        <ele>386.8</ele>
        <time>2021-03-21T13:56:35Z</time>
      </trkpt>
      <trkpt lat="43.95223" lon="1.86538">
        <ele>386.6</ele>
        <time>2021-03-21T13:56:36Z</time>
      </trkpt>
      <trkpt lat="43.95224" lon="1.86537">
        <ele>386.2</ele>
        <time>2021-03-21T13:56:37Z</time>
      </trkpt>
      <trkpt lat="43.95225" lon="1.86536">
        <ele>386.2</ele>
        <time>2021-03-21T13:56:38Z</time>
      </trkpt>
      <trkpt lat="43.95226" lon="1.86535">
        <ele>386</ele>
        <time>2021-03-21T13:56:39Z</time>
      </trkpt>
      <trkpt lat="43.95227" lon="1.86536">
        <ele>385.6</ele>
        <time>2021-03-21T13:56:40Z</time>
      </trkpt>
      <trkpt lat="43.95227" lon="1.86536">
        <ele>385.2</ele>
        <time>2021-03-21T13:56:41Z</time>
      </trkpt>
      <trkpt lat="43.95228" lon="1.86536">
        <ele>385</ele>
        <time>2021-03-21T13:56:42Z</time>
      </trkpt>
      <trkpt lat="43.95229" lon="1.86536">
        <ele>384.6</ele>
        <time>2021-03-21T13:56:43Z</time>
      </trkpt>
      <trkpt lat="43.95242" lon="1.86551">
        <ele>384</ele>
        <time>2021-03-21T13:56:56Z</time>
      </trkpt>
      <trkpt lat="43.95244" lon="1.86552">
        <ele>384.2</ele>
        <time>2021-03-21T13:56:57Z</time>
      </trkpt>
      <trkpt lat="43.95245" lon="1.86554">
        <ele>384.2</ele>
        <time>2021-03-21T13:56:58Z</time>
      </trkpt>
      <trkpt lat="43.95246" lon="1.86555">
        <ele>384.2</ele>
        <time>2021-03-21T13:56:59Z</time>
      </trkpt>
      <trkpt lat="43.95247" lon="1.86556">
        <ele>384.4</ele>
        <time>2021-03-21T13:57:00Z</time>
      </trkpt>
      <trkpt lat="43.95248" lon="1.86558">
        <ele>384.4</ele>
        <time>2021-03-21T13:57:01Z</time>
      </trkpt>
      <trkpt lat="43.95248" lon="1.86559">
        <ele>384.4</ele>
        <time>2021-03-21T13:57:02Z</time>
      </trkpt>
      <trkpt lat="43.95249" lon="1.86562">
        <ele>384.4</ele>
        <time>2021-03-21T13:57:03Z</time>
      </trkpt>
      <trkpt lat="43.9525" lon="1.86563">
        <ele>384.4</ele>
        <time>2021-03-21T13:57:04Z</time>
      </trkpt>
      <trkpt lat="43.95251" lon="1.86565">
        <ele>384.4</ele>
        <time>2021-03-21T13:57:05Z</time>
      </trkpt>
      <trkpt lat="43.95251" lon="1.86567">
        <ele>384.4</ele>
        <time>2021-03-21T13:57:06Z</time>
      </trkpt>
      <trkpt lat="43.95253" lon="1.86569">
        <ele>384.4</ele>
        <time>2021-03-21T13:57:07Z</time>
      </trkpt>
      <trkpt lat="43.95253" lon="1.8657">
        <ele>384.6</ele>
        <time>2021-03-21T13:57:08Z</time>
      </trkpt>
      <trkpt lat="43.95253" lon="1.86571">
        <ele>384.6</ele>
        <time>2021-03-21T13:57:09Z</time>
      </trkpt>
      <trkpt lat="43.95253" lon="1.86572">
        <ele>384.6</ele>
        <time>2021-03-21T13:57:10Z</time>
      </trkpt>
      <trkpt lat="43.95254" lon="1.86573">
        <ele>384.6</ele>
        <time>2021-03-21T13:57:11Z</time>
      </trkpt>
      <trkpt lat="43.95255" lon="1.86573">
        <ele>384.8</ele>
        <time>2021-03-21T13:57:12Z</time>
      </trkpt>
      <trkpt lat="43.95255" lon="1.86574">
        <ele>384.8</ele>
        <time>2021-03-21T13:57:13Z</time>
      </trkpt>
      <trkpt lat="43.95256" lon="1.86574">
        <ele>385</ele>
        <time>2021-03-21T13:57:14Z</time>
      </trkpt>
      <trkpt lat="43.95257" lon="1.86574">
        <ele>385.2</ele>
        <time>2021-03-21T13:57:15Z</time>
      </trkpt>
      <trkpt lat="43.95257" lon="1.86575">
        <ele>385.2</ele>
        <time>2021-03-21T13:57:16Z</time>
      </trkpt>
      <trkpt lat="43.95258" lon="1.86575">
        <ele>385.4</ele>
        <time>2021-03-21T13:57:17Z</time>
      </trkpt>
      <trkpt lat="43.95259" lon="1.86576">
        <ele>385.6</ele>
        <time>2021-03-21T13:57:18Z</time>
      </trkpt>
      <trkpt lat="43.9526" lon="1.86577">
        <ele>385.4</ele>
        <time>2021-03-21T13:57:19Z</time>
      </trkpt>
      <trkpt lat="43.9526" lon="1.86578">
        <ele>385.6</ele>
        <time>2021-03-21T13:57:20Z</time>
      </trkpt>
      <trkpt lat="43.95261" lon="1.86579">
        <ele>385.6</ele>
        <time>2021-03-21T13:57:21Z</time>
      </trkpt>
      <trkpt lat="43.95263" lon="1.86581">
        <ele>385.6</ele>
        <time>2021-03-21T13:57:23Z</time>
      </trkpt>
      <trkpt lat="43.95265" lon="1.86582">
        <ele>385.6</ele>
        <time>2021-03-21T13:57:24Z</time>
      </trkpt>
      <trkpt lat="43.95266" lon="1.86583">
        <ele>385.6</ele>
        <time>2021-03-21T13:57:25Z</time>
      </trkpt>
      <trkpt lat="43.95268" lon="1.86583">
        <ele>385.6</ele>
        <time>2021-03-21T13:57:26Z</time>
      </trkpt>
      <trkpt lat="43.9527" lon="1.86583">
        <ele>385.8</ele>
        <time>2021-03-21T13:57:27Z</time>
      </trkpt>
      <trkpt lat="43.95271" lon="1.86583">
        <ele>385.8</ele>
        <time>2021-03-21T13:57:28Z</time>
      </trkpt>
      <trkpt lat="43.95273" lon="1.86583">
        <ele>385.8</ele>
        <time>2021-03-21T13:57:29Z</time>
      </trkpt>
      <trkpt lat="43.95274" lon="1.86583">
        <ele>385.8</ele>
        <time>2021-03-21T13:57:30Z</time>
      </trkpt>
      <trkpt lat="43.95276" lon="1.86582">
        <ele>385.8</ele>
        <time>2021-03-21T13:57:31Z</time>
      </trkpt>
      <trkpt lat="43.95278" lon="1.86581">
        <ele>385.8</ele>
        <time>2021-03-21T13:57:32Z</time>
      </trkpt>
      <trkpt lat="43.95279" lon="1.86581">
        <ele>385.8</ele>
        <time>2021-03-21T13:57:33Z</time>
      </trkpt>
      <trkpt lat="43.9528" lon="1.86582">
        <ele>385.6</ele>
        <time>2021-03-21T13:57:34Z</time>
      </trkpt>
      <trkpt lat="43.95282" lon="1.86583">
        <ele>385.6</ele>
        <time>2021-03-21T13:57:35Z</time>
      </trkpt>
      <trkpt lat="43.95284" lon="1.86585">
        <ele>385.6</ele>
        <time>2021-03-21T13:57:36Z</time>
      </trkpt>
      <trkpt lat="43.95285" lon="1.86586">
        <ele>385.4</ele>
        <time>2021-03-21T13:57:37Z</time>
      </trkpt>
      <trkpt lat="43.95286" lon="1.86588">
        <ele>385.2</ele>
        <time>2021-03-21T13:57:38Z</time>
      </trkpt>
      <trkpt lat="43.95287" lon="1.8659">
        <ele>384.6</ele>
        <time>2021-03-21T13:57:39Z</time>
      </trkpt>
      <trkpt lat="43.95288" lon="1.86593">
        <ele>384.2</ele>
        <time>2021-03-21T13:57:40Z</time>
      </trkpt>
      <trkpt lat="43.95288" lon="1.86595">
        <ele>383.4</ele>
        <time>2021-03-21T13:57:41Z</time>
      </trkpt>
      <trkpt lat="43.95289" lon="1.86598">
        <ele>383.4</ele>
        <time>2021-03-21T13:57:42Z</time>
      </trkpt>
      <trkpt lat="43.9529" lon="1.866">
        <ele>382.8</ele>
        <time>2021-03-21T13:57:43Z</time>
      </trkpt>
      <trkpt lat="43.95291" lon="1.86603">
        <ele>382.2</ele>
        <time>2021-03-21T13:57:44Z</time>
      </trkpt>
      <trkpt lat="43.95293" lon="1.86605">
        <ele>381.8</ele>
        <time>2021-03-21T13:57:45Z</time>
      </trkpt>
      <trkpt lat="43.95295" lon="1.86607">
        <ele>381.4</ele>
        <time>2021-03-21T13:57:46Z</time>
      </trkpt>
      <trkpt lat="43.95296" lon="1.86609">
        <ele>381</ele>
        <time>2021-03-21T13:57:47Z</time>
      </trkpt>
      <trkpt lat="43.95296" lon="1.86611">
        <ele>381.2</ele>
        <time>2021-03-21T13:57:48Z</time>
      </trkpt>
      <trkpt lat="43.95296" lon="1.86614">
        <ele>381</ele>
        <time>2021-03-21T13:57:49Z</time>
      </trkpt>
      <trkpt lat="43.95296" lon="1.86616">
        <ele>381</ele>
        <time>2021-03-21T13:57:50Z</time>
      </trkpt>
      <trkpt lat="43.95296" lon="1.86618">
        <ele>381</ele>
        <time>2021-03-21T13:57:51Z</time>
      </trkpt>
      <trkpt lat="43.95296" lon="1.8662">
        <ele>381</ele>
        <time>2021-03-21T13:57:52Z</time>
      </trkpt>
      <trkpt lat="43.95297" lon="1.86622">
        <ele>381</ele>
        <time>2021-03-21T13:57:53Z</time>
      </trkpt>
      <trkpt lat="43.95298" lon="1.86624">
        <ele>381</ele>
        <time>2021-03-21T13:57:54Z</time>
      </trkpt>
      <trkpt lat="43.95298" lon="1.86626">
        <ele>381</ele>
        <time>2021-03-21T13:57:55Z</time>
      </trkpt>
      <trkpt lat="43.95299" lon="1.86628">
        <ele>381</ele>
        <time>2021-03-21T13:57:56Z</time>
      </trkpt>
      <trkpt lat="43.953" lon="1.86629">
        <ele>381.4</ele>
        <time>2021-03-21T13:57:57Z</time>
      </trkpt>
      <trkpt lat="43.953" lon="1.86631">
        <ele>381.4</ele>
        <time>2021-03-21T13:57:58Z</time>
      </trkpt>
      <trkpt lat="43.95301" lon="1.86633">
        <ele>381.6</ele>
        <time>2021-03-21T13:57:59Z</time>
      </trkpt>
      <trkpt lat="43.95302" lon="1.86635">
        <ele>381.6</ele>
        <time>2021-03-21T13:58:00Z</time>
      </trkpt>
      <trkpt lat="43.95303" lon="1.86637">
        <ele>381.6</ele>
        <time>2021-03-21T13:58:01Z</time>
      </trkpt>
      <trkpt lat="43.95304" lon="1.8664">
        <ele>381.8</ele>
        <time>2021-03-21T13:58:02Z</time>
      </trkpt>
      <trkpt lat="43.95306" lon="1.86643">
        <ele>381.8</ele>
        <time>2021-03-21T13:58:03Z</time>
      </trkpt>
      <trkpt lat="43.95309" lon="1.86646">
        <ele>381.8</ele>
        <time>2021-03-21T13:58:04Z</time>
      </trkpt>
      <trkpt lat="43.95311" lon="1.86648">
        <ele>381.8</ele>
        <time>2021-03-21T13:58:05Z</time>
      </trkpt>
      <trkpt lat="43.95313" lon="1.86651">
        <ele>382</ele>
        <time>2021-03-21T13:58:06Z</time>
      </trkpt>
      <trkpt lat="43.95314" lon="1.86654">
        <ele>381.8</ele>
        <time>2021-03-21T13:58:07Z</time>
      </trkpt>
      <trkpt lat="43.95316" lon="1.86657">
        <ele>382</ele>
        <time>2021-03-21T13:58:08Z</time>
      </trkpt>
      <trkpt lat="43.95317" lon="1.86659">
        <ele>381.8</ele>
        <time>2021-03-21T13:58:09Z</time>
      </trkpt>
      <trkpt lat="43.95319" lon="1.86661">
        <ele>382</ele>
        <time>2021-03-21T13:58:10Z</time>
      </trkpt>
      <trkpt lat="43.95321" lon="1.86664">
        <ele>382</ele>
        <time>2021-03-21T13:58:11Z</time>
      </trkpt>
      <trkpt lat="43.95323" lon="1.86666">
        <ele>382</ele>
        <time>2021-03-21T13:58:12Z</time>
      </trkpt>
      <trkpt lat="43.95325" lon="1.86667">
        <ele>382</ele>
        <time>2021-03-21T13:58:13Z</time>
      </trkpt>
      <trkpt lat="43.95326" lon="1.86668">
        <ele>382</ele>
        <time>2021-03-21T13:58:14Z</time>
      </trkpt>
      <trkpt lat="43.95327" lon="1.8667">
        <ele>381.8</ele>
        <time>2021-03-21T13:58:15Z</time>
      </trkpt>
      <trkpt lat="43.95328" lon="1.86672">
        <ele>381.8</ele>
        <time>2021-03-21T13:58:16Z</time>
      </trkpt>
      <trkpt lat="43.95329" lon="1.86674">
        <ele>382</ele>
        <time>2021-03-21T13:58:17Z</time>
      </trkpt>
      <trkpt lat="43.9533" lon="1.86677">
        <ele>382</ele>
        <time>2021-03-21T13:58:18Z</time>
      </trkpt>
      <trkpt lat="43.95332" lon="1.86679">
        <ele>382.2</ele>
        <time>2021-03-21T13:58:19Z</time>
      </trkpt>
      <trkpt lat="43.95333" lon="1.86681">
        <ele>382</ele>
        <time>2021-03-21T13:58:20Z</time>
      </trkpt>
      <trkpt lat="43.95335" lon="1.86683">
        <ele>382.2</ele>
        <time>2021-03-21T13:58:21Z</time>
      </trkpt>
      <trkpt lat="43.95336" lon="1.86685">
        <ele>382.2</ele>
        <time>2021-03-21T13:58:22Z</time>
      </trkpt>
      <trkpt lat="43.95337" lon="1.86687">
        <ele>382.2</ele>
        <time>2021-03-21T13:58:23Z</time>
      </trkpt>
      <trkpt lat="43.95338" lon="1.8669">
        <ele>382.2</ele>
        <time>2021-03-21T13:58:24Z</time>
      </trkpt>
      <trkpt lat="43.95339" lon="1.86691">
        <ele>382.4</ele>
        <time>2021-03-21T13:58:25Z</time>
      </trkpt>
      <trkpt lat="43.9534" lon="1.86693">
        <ele>382.2</ele>
        <time>2021-03-21T13:58:26Z</time>
      </trkpt>
      <trkpt lat="43.95342" lon="1.86696">
        <ele>382.2</ele>
        <time>2021-03-21T13:58:27Z</time>
      </trkpt>
      <trkpt lat="43.95343" lon="1.86698">
        <ele>382.6</ele>
        <time>2021-03-21T13:58:28Z</time>
      </trkpt>
      <trkpt lat="43.95344" lon="1.867">
        <ele>382.6</ele>
        <time>2021-03-21T13:58:29Z</time>
      </trkpt>
      <trkpt lat="43.95346" lon="1.86703">
        <ele>383</ele>
        <time>2021-03-21T13:58:31Z</time>
      </trkpt>
      <trkpt lat="43.95347" lon="1.86706">
        <ele>383.2</ele>
        <time>2021-03-21T13:58:32Z</time>
      </trkpt>
      <trkpt lat="43.95347" lon="1.86708">
        <ele>383.2</ele>
        <time>2021-03-21T13:58:33Z</time>
      </trkpt>
      <trkpt lat="43.95348" lon="1.8671">
        <ele>383.4</ele>
        <time>2021-03-21T13:58:34Z</time>
      </trkpt>
      <trkpt lat="43.95349" lon="1.86712">
        <ele>383.4</ele>
        <time>2021-03-21T13:58:35Z</time>
      </trkpt>
      <trkpt lat="43.9535" lon="1.86713">
        <ele>383.6</ele>
        <time>2021-03-21T13:58:36Z</time>
      </trkpt>
      <trkpt lat="43.9535" lon="1.86715">
        <ele>383.8</ele>
        <time>2021-03-21T13:58:37Z</time>
      </trkpt>
      <trkpt lat="43.95351" lon="1.86717">
        <ele>384</ele>
        <time>2021-03-21T13:58:38Z</time>
      </trkpt>
      <trkpt lat="43.95352" lon="1.86719">
        <ele>384.4</ele>
        <time>2021-03-21T13:58:39Z</time>
      </trkpt>
      <trkpt lat="43.95352" lon="1.86721">
        <ele>384.6</ele>
        <time>2021-03-21T13:58:40Z</time>
      </trkpt>
      <trkpt lat="43.95352" lon="1.86723">
        <ele>384.8</ele>
        <time>2021-03-21T13:58:41Z</time>
      </trkpt>
      <trkpt lat="43.95353" lon="1.86725">
        <ele>384.8</ele>
        <time>2021-03-21T13:58:42Z</time>
      </trkpt>
      <trkpt lat="43.95353" lon="1.86727">
        <ele>385</ele>
        <time>2021-03-21T13:58:43Z</time>
      </trkpt>
      <trkpt lat="43.95354" lon="1.86729">
        <ele>385.2</ele>
        <time>2021-03-21T13:58:44Z</time>
      </trkpt>
      <trkpt lat="43.95355" lon="1.86731">
        <ele>385.2</ele>
        <time>2021-03-21T13:58:45Z</time>
      </trkpt>
      <trkpt lat="43.95356" lon="1.86733">
        <ele>385.4</ele>
        <time>2021-03-21T13:58:46Z</time>
      </trkpt>
      <trkpt lat="43.95357" lon="1.86735">
        <ele>385.6</ele>
        <time>2021-03-21T13:58:47Z</time>
      </trkpt>
      <trkpt lat="43.95358" lon="1.86736">
        <ele>385.8</ele>
        <time>2021-03-21T13:58:48Z</time>
      </trkpt>
      <trkpt lat="43.9536" lon="1.86738">
        <ele>385.8</ele>
        <time>2021-03-21T13:58:49Z</time>
      </trkpt>
      <trkpt lat="43.95361" lon="1.8674">
        <ele>385.8</ele>
        <time>2021-03-21T13:58:50Z</time>
      </trkpt>
      <trkpt lat="43.95363" lon="1.86742">
        <ele>386</ele>
        <time>2021-03-21T13:58:51Z</time>
      </trkpt>
      <trkpt lat="43.95365" lon="1.86743">
        <ele>386</ele>
        <time>2021-03-21T13:58:52Z</time>
      </trkpt>
      <trkpt lat="43.95366" lon="1.86744">
        <ele>386.2</ele>
        <time>2021-03-21T13:58:53Z</time>
      </trkpt>
      <trkpt lat="43.95367" lon="1.86744">
        <ele>386.4</ele>
        <time>2021-03-21T13:58:54Z</time>
      </trkpt>
      <trkpt lat="43.95369" lon="1.86744">
        <ele>386.4</ele>
        <time>2021-03-21T13:58:55Z</time>
      </trkpt>
      <trkpt lat="43.9537" lon="1.86743">
        <ele>386.4</ele>
        <time>2021-03-21T13:58:56Z</time>
      </trkpt>
      <trkpt lat="43.95371" lon="1.86742">
        <ele>386.6</ele>
        <time>2021-03-21T13:58:57Z</time>
      </trkpt>
      <trkpt lat="43.95372" lon="1.86742">
        <ele>386.6</ele>
        <time>2021-03-21T13:58:58Z</time>
      </trkpt>
      <trkpt lat="43.95373" lon="1.86742">
        <ele>386.4</ele>
        <time>2021-03-21T13:58:59Z</time>
      </trkpt>
      <trkpt lat="43.95375" lon="1.86742">
        <ele>386.4</ele>
        <time>2021-03-21T13:59:00Z</time>
      </trkpt>
      <trkpt lat="43.95376" lon="1.8674">
        <ele>386.6</ele>
        <time>2021-03-21T13:59:01Z</time>
      </trkpt>
      <trkpt lat="43.95377" lon="1.8674">
        <ele>386.6</ele>
        <time>2021-03-21T13:59:02Z</time>
      </trkpt>
      <trkpt lat="43.95379" lon="1.86741">
        <ele>386.6</ele>
        <time>2021-03-21T13:59:03Z</time>
      </trkpt>
      <trkpt lat="43.95381" lon="1.86742">
        <ele>386.6</ele>
        <time>2021-03-21T13:59:04Z</time>
      </trkpt>
      <trkpt lat="43.95382" lon="1.86744">
        <ele>386.6</ele>
        <time>2021-03-21T13:59:05Z</time>
      </trkpt>
      <trkpt lat="43.95385" lon="1.86745">
        <ele>386.4</ele>
        <time>2021-03-21T13:59:06Z</time>
      </trkpt>
      <trkpt lat="43.95387" lon="1.86746">
        <ele>386.6</ele>
        <time>2021-03-21T13:59:07Z</time>
      </trkpt>
      <trkpt lat="43.95389" lon="1.86746">
        <ele>386.4</ele>
        <time>2021-03-21T13:59:08Z</time>
      </trkpt>
      <trkpt lat="43.95391" lon="1.86746">
        <ele>386.4</ele>
        <time>2021-03-21T13:59:09Z</time>
      </trkpt>
      <trkpt lat="43.95392" lon="1.86746">
        <ele>386.2</ele>
        <time>2021-03-21T13:59:10Z</time>
      </trkpt>
      <trkpt lat="43.95393" lon="1.86745">
        <ele>386</ele>
        <time>2021-03-21T13:59:11Z</time>
      </trkpt>
      <trkpt lat="43.95394" lon="1.86744">
        <ele>386</ele>
        <time>2021-03-21T13:59:12Z</time>
      </trkpt>
      <trkpt lat="43.95395" lon="1.86743">
        <ele>386</ele>
        <time>2021-03-21T13:59:13Z</time>
      </trkpt>
      <trkpt lat="43.95396" lon="1.86743">
        <ele>385.8</ele>
        <time>2021-03-21T13:59:14Z</time>
      </trkpt>
      <trkpt lat="43.95398" lon="1.86743">
        <ele>386</ele>
        <time>2021-03-21T13:59:15Z</time>
      </trkpt>
      <trkpt lat="43.95399" lon="1.86744">
        <ele>386</ele>
        <time>2021-03-21T13:59:16Z</time>
      </trkpt>
      <trkpt lat="43.954" lon="1.86744">
        <ele>386</ele>
        <time>2021-03-21T13:59:17Z</time>
      </trkpt>
      <trkpt lat="43.95402" lon="1.86745">
        <ele>386</ele>
        <time>2021-03-21T13:59:18Z</time>
      </trkpt>
      <trkpt lat="43.95404" lon="1.86746">
        <ele>386</ele>
        <time>2021-03-21T13:59:19Z</time>
      </trkpt>
      <trkpt lat="43.95406" lon="1.86747">
        <ele>385.8</ele>
        <time>2021-03-21T13:59:20Z</time>
      </trkpt>
      <trkpt lat="43.95408" lon="1.86748">
        <ele>386</ele>
        <time>2021-03-21T13:59:21Z</time>
      </trkpt>
      <trkpt lat="43.95409" lon="1.86748">
        <ele>386</ele>
        <time>2021-03-21T13:59:22Z</time>
      </trkpt>
      <trkpt lat="43.95411" lon="1.86749">
        <ele>386</ele>
        <time>2021-03-21T13:59:23Z</time>
      </trkpt>
      <trkpt lat="43.95412" lon="1.8675">
        <ele>386</ele>
        <time>2021-03-21T13:59:24Z</time>
      </trkpt>
      <trkpt lat="43.95414" lon="1.86752">
        <ele>386</ele>
        <time>2021-03-21T13:59:25Z</time>
      </trkpt>
      <trkpt lat="43.95415" lon="1.86754">
        <ele>385.8</ele>
        <time>2021-03-21T13:59:26Z</time>
      </trkpt>
      <trkpt lat="43.95416" lon="1.86756">
        <ele>386</ele>
        <time>2021-03-21T13:59:27Z</time>
      </trkpt>
      <trkpt lat="43.95418" lon="1.86758">
        <ele>386</ele>
        <time>2021-03-21T13:59:28Z</time>
      </trkpt>
      <trkpt lat="43.95419" lon="1.86759">
        <ele>386</ele>
        <time>2021-03-21T13:59:29Z</time>
      </trkpt>
      <trkpt lat="43.95422" lon="1.86763">
        <ele>386.2</ele>
        <time>2021-03-21T13:59:31Z</time>
      </trkpt>
      <trkpt lat="43.95423" lon="1.86765">
        <ele>386.4</ele>
        <time>2021-03-21T13:59:32Z</time>
      </trkpt>
      <trkpt lat="43.95425" lon="1.86769">
        <ele>386.4</ele>
        <time>2021-03-21T13:59:34Z</time>
      </trkpt>
      <trkpt lat="43.95427" lon="1.86771">
        <ele>386.4</ele>
        <time>2021-03-21T13:59:35Z</time>
      </trkpt>
      <trkpt lat="43.95428" lon="1.86773">
        <ele>386.6</ele>
        <time>2021-03-21T13:59:36Z</time>
      </trkpt>
      <trkpt lat="43.95429" lon="1.86775">
        <ele>387</ele>
        <time>2021-03-21T13:59:37Z</time>
      </trkpt>
      <trkpt lat="43.95431" lon="1.86777">
        <ele>387.4</ele>
        <time>2021-03-21T13:59:38Z</time>
      </trkpt>
      <trkpt lat="43.95432" lon="1.86779">
        <ele>387.4</ele>
        <time>2021-03-21T13:59:39Z</time>
      </trkpt>
      <trkpt lat="43.95434" lon="1.86781">
        <ele>387.4</ele>
        <time>2021-03-21T13:59:40Z</time>
      </trkpt>
      <trkpt lat="43.95435" lon="1.86783">
        <ele>387.6</ele>
        <time>2021-03-21T13:59:41Z</time>
      </trkpt>
      <trkpt lat="43.95437" lon="1.86785">
        <ele>387.6</ele>
        <time>2021-03-21T13:59:42Z</time>
      </trkpt>
      <trkpt lat="43.95438" lon="1.86787">
        <ele>388</ele>
        <time>2021-03-21T13:59:43Z</time>
      </trkpt>
      <trkpt lat="43.95439" lon="1.86789">
        <ele>388</ele>
        <time>2021-03-21T13:59:44Z</time>
      </trkpt>
      <trkpt lat="43.95441" lon="1.86792">
        <ele>388.4</ele>
        <time>2021-03-21T13:59:45Z</time>
      </trkpt>
      <trkpt lat="43.95442" lon="1.86794">
        <ele>388.4</ele>
        <time>2021-03-21T13:59:46Z</time>
      </trkpt>
      <trkpt lat="43.95444" lon="1.86797">
        <ele>388.4</ele>
        <time>2021-03-21T13:59:47Z</time>
      </trkpt>
      <trkpt lat="43.95446" lon="1.86799">
        <ele>388.6</ele>
        <time>2021-03-21T13:59:48Z</time>
      </trkpt>
      <trkpt lat="43.95447" lon="1.86801">
        <ele>388.6</ele>
        <time>2021-03-21T13:59:49Z</time>
      </trkpt>
      <trkpt lat="43.95449" lon="1.86804">
        <ele>388.6</ele>
        <time>2021-03-21T13:59:50Z</time>
      </trkpt>
      <trkpt lat="43.9545" lon="1.86806">
        <ele>389</ele>
        <time>2021-03-21T13:59:51Z</time>
      </trkpt>
      <trkpt lat="43.95452" lon="1.86809">
        <ele>389</ele>
        <time>2021-03-21T13:59:52Z</time>
      </trkpt>
      <trkpt lat="43.95454" lon="1.86811">
        <ele>389</ele>
        <time>2021-03-21T13:59:53Z</time>
      </trkpt>
      <trkpt lat="43.95455" lon="1.86814">
        <ele>389.4</ele>
        <time>2021-03-21T13:59:54Z</time>
      </trkpt>
      <trkpt lat="43.95457" lon="1.86816">
        <ele>389.2</ele>
        <time>2021-03-21T13:59:55Z</time>
      </trkpt>
      <trkpt lat="43.95459" lon="1.86819">
        <ele>389.4</ele>
        <time>2021-03-21T13:59:56Z</time>
      </trkpt>
      <trkpt lat="43.9546" lon="1.86822">
        <ele>389.4</ele>
        <time>2021-03-21T13:59:57Z</time>
      </trkpt>
      <trkpt lat="43.95462" lon="1.86824">
        <ele>389.6</ele>
        <time>2021-03-21T13:59:58Z</time>
      </trkpt>
      <trkpt lat="43.95464" lon="1.86827">
        <ele>389.6</ele>
        <time>2021-03-21T13:59:59Z</time>
      </trkpt>
      <trkpt lat="43.95465" lon="1.86829">
        <ele>389.4</ele>
        <time>2021-03-21T14:00:00Z</time>
      </trkpt>
      <trkpt lat="43.95467" lon="1.86832">
        <ele>389.4</ele>
        <time>2021-03-21T14:00:01Z</time>
      </trkpt>
      <trkpt lat="43.95469" lon="1.86834">
        <ele>389.6</ele>
        <time>2021-03-21T14:00:02Z</time>
      </trkpt>
      <trkpt lat="43.95471" lon="1.86837">
        <ele>389.8</ele>
        <time>2021-03-21T14:00:03Z</time>
      </trkpt>
      <trkpt lat="43.95472" lon="1.86839">
        <ele>389.8</ele>
        <time>2021-03-21T14:00:04Z</time>
      </trkpt>
      <trkpt lat="43.95474" lon="1.86842">
        <ele>390</ele>
        <time>2021-03-21T14:00:05Z</time>
      </trkpt>
      <trkpt lat="43.95476" lon="1.86844">
        <ele>390</ele>
        <time>2021-03-21T14:00:06Z</time>
      </trkpt>
      <trkpt lat="43.95478" lon="1.86847">
        <ele>390.2</ele>
        <time>2021-03-21T14:00:07Z</time>
      </trkpt>
      <trkpt lat="43.9548" lon="1.86849">
        <ele>390.2</ele>
        <time>2021-03-21T14:00:08Z</time>
      </trkpt>
      <trkpt lat="43.95481" lon="1.86852">
        <ele>390.2</ele>
        <time>2021-03-21T14:00:09Z</time>
      </trkpt>
      <trkpt lat="43.95483" lon="1.86854">
        <ele>390.6</ele>
        <time>2021-03-21T14:00:10Z</time>
      </trkpt>
      <trkpt lat="43.95485" lon="1.86856">
        <ele>390.6</ele>
        <time>2021-03-21T14:00:11Z</time>
      </trkpt>
      <trkpt lat="43.95486" lon="1.86859">
        <ele>390.8</ele>
        <time>2021-03-21T14:00:12Z</time>
      </trkpt>
      <trkpt lat="43.95488" lon="1.86861">
        <ele>391</ele>
        <time>2021-03-21T14:00:13Z</time>
      </trkpt>
      <trkpt lat="43.95489" lon="1.86864">
        <ele>391.2</ele>
        <time>2021-03-21T14:00:14Z</time>
      </trkpt>
      <trkpt lat="43.95491" lon="1.86866">
        <ele>391.2</ele>
        <time>2021-03-21T14:00:15Z</time>
      </trkpt>
      <trkpt lat="43.95492" lon="1.86869">
        <ele>391.4</ele>
        <time>2021-03-21T14:00:16Z</time>
      </trkpt>
      <trkpt lat="43.95492" lon="1.86872">
        <ele>391.6</ele>
        <time>2021-03-21T14:00:17Z</time>
      </trkpt>
      <trkpt lat="43.95493" lon="1.86875">
        <ele>391.4</ele>
        <time>2021-03-21T14:00:18Z</time>
      </trkpt>
      <trkpt lat="43.95493" lon="1.86878">
        <ele>391.4</ele>
        <time>2021-03-21T14:00:19Z</time>
      </trkpt>
      <trkpt lat="43.95492" lon="1.86881">
        <ele>391.4</ele>
        <time>2021-03-21T14:00:20Z</time>
      </trkpt>
      <trkpt lat="43.95491" lon="1.86884">
        <ele>391.8</ele>
        <time>2021-03-21T14:00:21Z</time>
      </trkpt>
      <trkpt lat="43.95491" lon="1.86887">
        <ele>391.6</ele>
        <time>2021-03-21T14:00:22Z</time>
      </trkpt>
      <trkpt lat="43.9549" lon="1.8689">
        <ele>391.6</ele>
        <time>2021-03-21T14:00:23Z</time>
      </trkpt>
      <trkpt lat="43.95489" lon="1.86893">
        <ele>391.8</ele>
        <time>2021-03-21T14:00:24Z</time>
      </trkpt>
      <trkpt lat="43.95487" lon="1.86899">
        <ele>391.8</ele>
        <time>2021-03-21T14:00:26Z</time>
      </trkpt>
      <trkpt lat="43.95486" lon="1.86903">
        <ele>391.8</ele>
        <time>2021-03-21T14:00:27Z</time>
      </trkpt>
      <trkpt lat="43.95485" lon="1.86906">
        <ele>392</ele>
        <time>2021-03-21T14:00:28Z</time>
      </trkpt>
      <trkpt lat="43.95485" lon="1.86909">
        <ele>392</ele>
        <time>2021-03-21T14:00:29Z</time>
      </trkpt>
      <trkpt lat="43.95484" lon="1.86912">
        <ele>392</ele>
        <time>2021-03-21T14:00:30Z</time>
      </trkpt>
      <trkpt lat="43.95484" lon="1.86915">
        <ele>392.2</ele>
        <time>2021-03-21T14:00:31Z</time>
      </trkpt>
      <trkpt lat="43.95483" lon="1.86918">
        <ele>392</ele>
        <time>2021-03-21T14:00:32Z</time>
      </trkpt>
      <trkpt lat="43.95482" lon="1.86922">
        <ele>392.2</ele>
        <time>2021-03-21T14:00:33Z</time>
      </trkpt>
      <trkpt lat="43.95481" lon="1.86925">
        <ele>392.2</ele>
        <time>2021-03-21T14:00:34Z</time>
      </trkpt>
      <trkpt lat="43.9548" lon="1.86928">
        <ele>392.2</ele>
        <time>2021-03-21T14:00:35Z</time>
      </trkpt>
      <trkpt lat="43.95479" lon="1.86932">
        <ele>392.4</ele>
        <time>2021-03-21T14:00:36Z</time>
      </trkpt>
      <trkpt lat="43.95478" lon="1.86935">
        <ele>392.2</ele>
        <time>2021-03-21T14:00:37Z</time>
      </trkpt>
      <trkpt lat="43.95477" lon="1.86939">
        <ele>392.2</ele>
        <time>2021-03-21T14:00:38Z</time>
      </trkpt>
      <trkpt lat="43.95477" lon="1.86942">
        <ele>392.4</ele>
        <time>2021-03-21T14:00:39Z</time>
      </trkpt>
      <trkpt lat="43.95476" lon="1.86946">
        <ele>392.4</ele>
        <time>2021-03-21T14:00:40Z</time>
      </trkpt>
      <trkpt lat="43.95475" lon="1.86949">
        <ele>392.4</ele>
        <time>2021-03-21T14:00:41Z</time>
      </trkpt>
      <trkpt lat="43.95474" lon="1.86953">
        <ele>392.6</ele>
        <time>2021-03-21T14:00:42Z</time>
      </trkpt>
      <trkpt lat="43.95472" lon="1.86959">
        <ele>392.6</ele>
        <time>2021-03-21T14:00:44Z</time>
      </trkpt>
      <trkpt lat="43.95471" lon="1.86963">
        <ele>392.6</ele>
        <time>2021-03-21T14:00:45Z</time>
      </trkpt>
      <trkpt lat="43.9547" lon="1.86966">
        <ele>393</ele>
        <time>2021-03-21T14:00:46Z</time>
      </trkpt>
      <trkpt lat="43.95469" lon="1.86969">
        <ele>393.2</ele>
        <time>2021-03-21T14:00:47Z</time>
      </trkpt>
      <trkpt lat="43.95468" lon="1.86972">
        <ele>393.2</ele>
        <time>2021-03-21T14:00:48Z</time>
      </trkpt>
      <trkpt lat="43.95467" lon="1.86975">
        <ele>393.4</ele>
        <time>2021-03-21T14:00:49Z</time>
      </trkpt>
      <trkpt lat="43.95466" lon="1.86978">
        <ele>393.2</ele>
        <time>2021-03-21T14:00:50Z</time>
      </trkpt>
      <trkpt lat="43.95465" lon="1.86981">
        <ele>393.4</ele>
        <time>2021-03-21T14:00:51Z</time>
      </trkpt>
      <trkpt lat="43.95464" lon="1.86984">
        <ele>393.4</ele>
        <time>2021-03-21T14:00:52Z</time>
      </trkpt>
      <trkpt lat="43.95462" lon="1.86986">
        <ele>393.4</ele>
        <time>2021-03-21T14:00:53Z</time>
      </trkpt>
      <trkpt lat="43.9546" lon="1.86988">
        <ele>393.6</ele>
        <time>2021-03-21T14:00:54Z</time>
      </trkpt>
      <trkpt lat="43.95459" lon="1.8699">
        <ele>393.4</ele>
        <time>2021-03-21T14:00:55Z</time>
      </trkpt>
      <trkpt lat="43.95457" lon="1.86993">
        <ele>393.6</ele>
        <time>2021-03-21T14:00:56Z</time>
      </trkpt>
      <trkpt lat="43.95455" lon="1.86995">
        <ele>393.6</ele>
        <time>2021-03-21T14:00:57Z</time>
      </trkpt>
      <trkpt lat="43.95451" lon="1.87">
        <ele>393.6</ele>
        <time>2021-03-21T14:00:59Z</time>
      </trkpt>
      <trkpt lat="43.95449" lon="1.87002">
        <ele>393.6</ele>
        <time>2021-03-21T14:01:00Z</time>
      </trkpt>
      <trkpt lat="43.95447" lon="1.87004">
        <ele>393.6</ele>
        <time>2021-03-21T14:01:01Z</time>
      </trkpt>
      <trkpt lat="43.95445" lon="1.87006">
        <ele>393.6</ele>
        <time>2021-03-21T14:01:02Z</time>
      </trkpt>
      <trkpt lat="43.95443" lon="1.87009">
        <ele>393.6</ele>
        <time>2021-03-21T14:01:03Z</time>
      </trkpt>
      <trkpt lat="43.95441" lon="1.87011">
        <ele>393.6</ele>
        <time>2021-03-21T14:01:04Z</time>
      </trkpt>
      <trkpt lat="43.95439" lon="1.87013">
        <ele>393.6</ele>
        <time>2021-03-21T14:01:05Z</time>
      </trkpt>
      <trkpt lat="43.95437" lon="1.87015">
        <ele>393.4</ele>
        <time>2021-03-21T14:01:06Z</time>
      </trkpt>
      <trkpt lat="43.95436" lon="1.87016">
        <ele>393.6</ele>
        <time>2021-03-21T14:01:07Z</time>
      </trkpt>
      <trkpt lat="43.95434" lon="1.87018">
        <ele>393.6</ele>
        <time>2021-03-21T14:01:08Z</time>
      </trkpt>
      <trkpt lat="43.95432" lon="1.8702">
        <ele>393.4</ele>
        <time>2021-03-21T14:01:09Z</time>
      </trkpt>
      <trkpt lat="43.9543" lon="1.87021">
        <ele>393.4</ele>
        <time>2021-03-21T14:01:10Z</time>
      </trkpt>
      <trkpt lat="43.95428" lon="1.87024">
        <ele>393.2</ele>
        <time>2021-03-21T14:01:11Z</time>
      </trkpt>
      <trkpt lat="43.95427" lon="1.87026">
        <ele>393.2</ele>
        <time>2021-03-21T14:01:12Z</time>
      </trkpt>
      <trkpt lat="43.95425" lon="1.87028">
        <ele>393.2</ele>
        <time>2021-03-21T14:01:13Z</time>
      </trkpt>
      <trkpt lat="43.95424" lon="1.87031">
        <ele>393.2</ele>
        <time>2021-03-21T14:01:14Z</time>
      </trkpt>
      <trkpt lat="43.95423" lon="1.87034">
        <ele>393.2</ele>
        <time>2021-03-21T14:01:15Z</time>
      </trkpt>
      <trkpt lat="43.95422" lon="1.87037">
        <ele>393</ele>
        <time>2021-03-21T14:01:16Z</time>
      </trkpt>
      <trkpt lat="43.95421" lon="1.87041">
        <ele>393.2</ele>
        <time>2021-03-21T14:01:17Z</time>
      </trkpt>
      <trkpt lat="43.95421" lon="1.87049">
        <ele>393</ele>
        <time>2021-03-21T14:01:19Z</time>
      </trkpt>
      <trkpt lat="43.9542" lon="1.87054">
        <ele>393</ele>
        <time>2021-03-21T14:01:20Z</time>
      </trkpt>
      <trkpt lat="43.9542" lon="1.87058">
        <ele>393</ele>
        <time>2021-03-21T14:01:21Z</time>
      </trkpt>
      <trkpt lat="43.95419" lon="1.87063">
        <ele>393</ele>
        <time>2021-03-21T14:01:22Z</time>
      </trkpt>
      <trkpt lat="43.95418" lon="1.87068">
        <ele>393</ele>
        <time>2021-03-21T14:01:23Z</time>
      </trkpt>
      <trkpt lat="43.95417" lon="1.87072">
        <ele>393</ele>
        <time>2021-03-21T14:01:24Z</time>
      </trkpt>
      <trkpt lat="43.95415" lon="1.87082">
        <ele>393.2</ele>
        <time>2021-03-21T14:01:26Z</time>
      </trkpt>
      <trkpt lat="43.95414" lon="1.87087">
        <ele>393.4</ele>
        <time>2021-03-21T14:01:27Z</time>
      </trkpt>
      <trkpt lat="43.95413" lon="1.87093">
        <ele>393.2</ele>
        <time>2021-03-21T14:01:28Z</time>
      </trkpt>
      <trkpt lat="43.95411" lon="1.87098">
        <ele>393.4</ele>
        <time>2021-03-21T14:01:29Z</time>
      </trkpt>
      <trkpt lat="43.9541" lon="1.87104">
        <ele>393.6</ele>
        <time>2021-03-21T14:01:30Z</time>
      </trkpt>
      <trkpt lat="43.95409" lon="1.8711">
        <ele>393.6</ele>
        <time>2021-03-21T14:01:31Z</time>
      </trkpt>
      <trkpt lat="43.95408" lon="1.87116">
        <ele>393.6</ele>
        <time>2021-03-21T14:01:32Z</time>
      </trkpt>
      <trkpt lat="43.95405" lon="1.87127">
        <ele>394.2</ele>
        <time>2021-03-21T14:01:34Z</time>
      </trkpt>
      <trkpt lat="43.95404" lon="1.87133">
        <ele>394.2</ele>
        <time>2021-03-21T14:01:35Z</time>
      </trkpt>
      <trkpt lat="43.95403" lon="1.87139">
        <ele>394.2</ele>
        <time>2021-03-21T14:01:36Z</time>
      </trkpt>
      <trkpt lat="43.95402" lon="1.87144">
        <ele>394.4</ele>
        <time>2021-03-21T14:01:37Z</time>
      </trkpt>
      <trkpt lat="43.954" lon="1.8715">
        <ele>394.6</ele>
        <time>2021-03-21T14:01:38Z</time>
      </trkpt>
      <trkpt lat="43.95399" lon="1.87156">
        <ele>394.8</ele>
        <time>2021-03-21T14:01:39Z</time>
      </trkpt>
      <trkpt lat="43.95398" lon="1.87161">
        <ele>394.8</ele>
        <time>2021-03-21T14:01:40Z</time>
      </trkpt>
      <trkpt lat="43.95397" lon="1.87166">
        <ele>394.8</ele>
        <time>2021-03-21T14:01:41Z</time>
      </trkpt>
      <trkpt lat="43.95396" lon="1.87172">
        <ele>395</ele>
        <time>2021-03-21T14:01:42Z</time>
      </trkpt>
      <trkpt lat="43.95395" lon="1.87177">
        <ele>395.4</ele>
        <time>2021-03-21T14:01:43Z</time>
      </trkpt>
      <trkpt lat="43.95393" lon="1.87182">
        <ele>395.6</ele>
        <time>2021-03-21T14:01:44Z</time>
      </trkpt>
      <trkpt lat="43.95393" lon="1.87188">
        <ele>395.8</ele>
        <time>2021-03-21T14:01:45Z</time>
      </trkpt>
      <trkpt lat="43.95392" lon="1.87193">
        <ele>396</ele>
        <time>2021-03-21T14:01:46Z</time>
      </trkpt>
      <trkpt lat="43.95391" lon="1.87199">
        <ele>396.2</ele>
        <time>2021-03-21T14:01:47Z</time>
      </trkpt>
      <trkpt lat="43.9539" lon="1.87204">
        <ele>396.4</ele>
        <time>2021-03-21T14:01:48Z</time>
      </trkpt>
      <trkpt lat="43.95388" lon="1.8721">
        <ele>396.4</ele>
        <time>2021-03-21T14:01:49Z</time>
      </trkpt>
      <trkpt lat="43.95387" lon="1.87215">
        <ele>396.4</ele>
        <time>2021-03-21T14:01:50Z</time>
      </trkpt>
      <trkpt lat="43.95386" lon="1.87221">
        <ele>396.4</ele>
        <time>2021-03-21T14:01:51Z</time>
      </trkpt>
      <trkpt lat="43.95385" lon="1.87226">
        <ele>396.6</ele>
        <time>2021-03-21T14:01:52Z</time>
      </trkpt>
      <trkpt lat="43.95384" lon="1.87232">
        <ele>396.6</ele>
        <time>2021-03-21T14:01:53Z</time>
      </trkpt>
      <trkpt lat="43.95383" lon="1.87238">
        <ele>396.8</ele>
        <time>2021-03-21T14:01:54Z</time>
      </trkpt>
      <trkpt lat="43.95382" lon="1.87243">
        <ele>397</ele>
        <time>2021-03-21T14:01:55Z</time>
      </trkpt>
      <trkpt lat="43.9538" lon="1.87249">
        <ele>397</ele>
        <time>2021-03-21T14:01:56Z</time>
      </trkpt>
      <trkpt lat="43.95379" lon="1.87255">
        <ele>397</ele>
        <time>2021-03-21T14:01:57Z</time>
      </trkpt>
      <trkpt lat="43.95378" lon="1.8726">
        <ele>397.2</ele>
        <time>2021-03-21T14:01:58Z</time>
      </trkpt>
      <trkpt lat="43.95377" lon="1.87266">
        <ele>397.4</ele>
        <time>2021-03-21T14:01:59Z</time>
      </trkpt>
      <trkpt lat="43.95376" lon="1.87272">
        <ele>397.4</ele>
        <time>2021-03-21T14:02:00Z</time>
      </trkpt>
      <trkpt lat="43.95376" lon="1.87278">
        <ele>397.4</ele>
        <time>2021-03-21T14:02:01Z</time>
      </trkpt>
      <trkpt lat="43.95376" lon="1.87284">
        <ele>397.6</ele>
        <time>2021-03-21T14:02:02Z</time>
      </trkpt>
      <trkpt lat="43.95375" lon="1.8729">
        <ele>397.8</ele>
        <time>2021-03-21T14:02:03Z</time>
      </trkpt>
      <trkpt lat="43.95376" lon="1.87295">
        <ele>398</ele>
        <time>2021-03-21T14:02:04Z</time>
      </trkpt>
      <trkpt lat="43.95377" lon="1.87301">
        <ele>398.2</ele>
        <time>2021-03-21T14:02:05Z</time>
      </trkpt>
      <trkpt lat="43.95379" lon="1.87307">
        <ele>398.2</ele>
        <time>2021-03-21T14:02:06Z</time>
      </trkpt>
      <trkpt lat="43.95381" lon="1.87312">
        <ele>398.2</ele>
        <time>2021-03-21T14:02:07Z</time>
      </trkpt>
      <trkpt lat="43.95383" lon="1.87318">
        <ele>398.4</ele>
        <time>2021-03-21T14:02:08Z</time>
      </trkpt>
      <trkpt lat="43.95386" lon="1.87323">
        <ele>398.4</ele>
        <time>2021-03-21T14:02:09Z</time>
      </trkpt>
      <trkpt lat="43.95389" lon="1.87328">
        <ele>398.4</ele>
        <time>2021-03-21T14:02:10Z</time>
      </trkpt>
      <trkpt lat="43.95392" lon="1.87332">
        <ele>398.4</ele>
        <time>2021-03-21T14:02:11Z</time>
      </trkpt>
      <trkpt lat="43.95394" lon="1.87337">
        <ele>398.6</ele>
        <time>2021-03-21T14:02:12Z</time>
      </trkpt>
      <trkpt lat="43.95397" lon="1.87341">
        <ele>398.6</ele>
        <time>2021-03-21T14:02:13Z</time>
      </trkpt>
      <trkpt lat="43.95399" lon="1.87346">
        <ele>398.8</ele>
        <time>2021-03-21T14:02:14Z</time>
      </trkpt>
      <trkpt lat="43.95402" lon="1.8735">
        <ele>399.4</ele>
        <time>2021-03-21T14:02:15Z</time>
      </trkpt>
      <trkpt lat="43.95405" lon="1.87354">
        <ele>400</ele>
        <time>2021-03-21T14:02:16Z</time>
      </trkpt>
      <trkpt lat="43.95407" lon="1.87358">
        <ele>400.2</ele>
        <time>2021-03-21T14:02:17Z</time>
      </trkpt>
      <trkpt lat="43.9541" lon="1.87362">
        <ele>400.6</ele>
        <time>2021-03-21T14:02:18Z</time>
      </trkpt>
      <trkpt lat="43.95412" lon="1.87366">
        <ele>400.6</ele>
        <time>2021-03-21T14:02:19Z</time>
      </trkpt>
      <trkpt lat="43.95415" lon="1.8737">
        <ele>400.6</ele>
        <time>2021-03-21T14:02:20Z</time>
      </trkpt>
      <trkpt lat="43.95417" lon="1.87374">
        <ele>400.6</ele>
        <time>2021-03-21T14:02:21Z</time>
      </trkpt>
      <trkpt lat="43.9542" lon="1.87377">
        <ele>400.8</ele>
        <time>2021-03-21T14:02:22Z</time>
      </trkpt>
      <trkpt lat="43.95422" lon="1.8738">
        <ele>400.8</ele>
        <time>2021-03-21T14:02:23Z</time>
      </trkpt>
      <trkpt lat="43.95424" lon="1.87383">
        <ele>401.2</ele>
        <time>2021-03-21T14:02:24Z</time>
      </trkpt>
      <trkpt lat="43.95426" lon="1.87386">
        <ele>401.6</ele>
        <time>2021-03-21T14:02:25Z</time>
      </trkpt>
      <trkpt lat="43.95426" lon="1.87389">
        <ele>401.8</ele>
        <time>2021-03-21T14:02:26Z</time>
      </trkpt>
      <trkpt lat="43.95426" lon="1.87392">
        <ele>402.2</ele>
        <time>2021-03-21T14:02:27Z</time>
      </trkpt>
      <trkpt lat="43.95425" lon="1.87395">
        <ele>402.4</ele>
        <time>2021-03-21T14:02:28Z</time>
      </trkpt>
      <trkpt lat="43.95424" lon="1.87399">
        <ele>402.6</ele>
        <time>2021-03-21T14:02:29Z</time>
      </trkpt>
      <trkpt lat="43.95423" lon="1.87402">
        <ele>403</ele>
        <time>2021-03-21T14:02:30Z</time>
      </trkpt>
      <trkpt lat="43.95421" lon="1.87405">
        <ele>403.2</ele>
        <time>2021-03-21T14:02:31Z</time>
      </trkpt>
      <trkpt lat="43.95419" lon="1.87409">
        <ele>403.4</ele>
        <time>2021-03-21T14:02:32Z</time>
      </trkpt>
      <trkpt lat="43.95417" lon="1.87412">
        <ele>403.4</ele>
        <time>2021-03-21T14:02:33Z</time>
      </trkpt>
      <trkpt lat="43.95415" lon="1.87415">
        <ele>403.6</ele>
        <time>2021-03-21T14:02:34Z</time>
      </trkpt>
      <trkpt lat="43.95412" lon="1.87418">
        <ele>403.8</ele>
        <time>2021-03-21T14:02:35Z</time>
      </trkpt>
      <trkpt lat="43.9541" lon="1.8742">
        <ele>403.8</ele>
        <time>2021-03-21T14:02:36Z</time>
      </trkpt>
      <trkpt lat="43.95409" lon="1.87423">
        <ele>403.8</ele>
        <time>2021-03-21T14:02:37Z</time>
      </trkpt>
      <trkpt lat="43.95407" lon="1.87425">
        <ele>403.8</ele>
        <time>2021-03-21T14:02:38Z</time>
      </trkpt>
      <trkpt lat="43.95405" lon="1.87427">
        <ele>403.8</ele>
        <time>2021-03-21T14:02:39Z</time>
      </trkpt>
      <trkpt lat="43.95404" lon="1.87429">
        <ele>404</ele>
        <time>2021-03-21T14:02:40Z</time>
      </trkpt>
      <trkpt lat="43.95401" lon="1.87434">
        <ele>403.8</ele>
        <time>2021-03-21T14:02:42Z</time>
      </trkpt>
      <trkpt lat="43.95399" lon="1.87436">
        <ele>403.8</ele>
        <time>2021-03-21T14:02:43Z</time>
      </trkpt>
      <trkpt lat="43.95397" lon="1.87438">
        <ele>404</ele>
        <time>2021-03-21T14:02:44Z</time>
      </trkpt>
      <trkpt lat="43.95395" lon="1.87441">
        <ele>403.8</ele>
        <time>2021-03-21T14:02:45Z</time>
      </trkpt>
      <trkpt lat="43.95394" lon="1.87444">
        <ele>403.8</ele>
        <time>2021-03-21T14:02:46Z</time>
      </trkpt>
      <trkpt lat="43.95392" lon="1.87446">
        <ele>403.8</ele>
        <time>2021-03-21T14:02:47Z</time>
      </trkpt>
      <trkpt lat="43.9539" lon="1.87449">
        <ele>403.8</ele>
        <time>2021-03-21T14:02:48Z</time>
      </trkpt>
      <trkpt lat="43.95387" lon="1.87452">
        <ele>403.8</ele>
        <time>2021-03-21T14:02:49Z</time>
      </trkpt>
      <trkpt lat="43.95385" lon="1.87455">
        <ele>403.8</ele>
        <time>2021-03-21T14:02:50Z</time>
      </trkpt>
      <trkpt lat="43.95383" lon="1.87457">
        <ele>403.8</ele>
        <time>2021-03-21T14:02:51Z</time>
      </trkpt>
      <trkpt lat="43.95381" lon="1.87461">
        <ele>403.8</ele>
        <time>2021-03-21T14:02:52Z</time>
      </trkpt>
      <trkpt lat="43.95379" lon="1.87464">
        <ele>403.6</ele>
        <time>2021-03-21T14:02:53Z</time>
      </trkpt>
      <trkpt lat="43.95374" lon="1.8747">
        <ele>403.6</ele>
        <time>2021-03-21T14:02:55Z</time>
      </trkpt>
      <trkpt lat="43.95371" lon="1.87474">
        <ele>403.6</ele>
        <time>2021-03-21T14:02:56Z</time>
      </trkpt>
      <trkpt lat="43.95368" lon="1.87478">
        <ele>403.4</ele>
        <time>2021-03-21T14:02:57Z</time>
      </trkpt>
      <trkpt lat="43.95365" lon="1.87482">
        <ele>403.4</ele>
        <time>2021-03-21T14:02:58Z</time>
      </trkpt>
      <trkpt lat="43.95363" lon="1.87486">
        <ele>403.4</ele>
        <time>2021-03-21T14:02:59Z</time>
      </trkpt>
      <trkpt lat="43.9536" lon="1.8749">
        <ele>403.2</ele>
        <time>2021-03-21T14:03:00Z</time>
      </trkpt>
      <trkpt lat="43.95357" lon="1.87494">
        <ele>403.2</ele>
        <time>2021-03-21T14:03:01Z</time>
      </trkpt>
      <trkpt lat="43.9535" lon="1.87502">
        <ele>402.8</ele>
        <time>2021-03-21T14:03:03Z</time>
      </trkpt>
      <trkpt lat="43.95347" lon="1.87507">
        <ele>402.4</ele>
        <time>2021-03-21T14:03:04Z</time>
      </trkpt>
      <trkpt lat="43.95344" lon="1.87511">
        <ele>402.2</ele>
        <time>2021-03-21T14:03:05Z</time>
      </trkpt>
      <trkpt lat="43.95341" lon="1.87516">
        <ele>401.8</ele>
        <time>2021-03-21T14:03:06Z</time>
      </trkpt>
      <trkpt lat="43.95337" lon="1.87521">
        <ele>401.8</ele>
        <time>2021-03-21T14:03:07Z</time>
      </trkpt>
      <trkpt lat="43.95334" lon="1.87526">
        <ele>401.4</ele>
        <time>2021-03-21T14:03:08Z</time>
      </trkpt>
      <trkpt lat="43.9533" lon="1.87531">
        <ele>401</ele>
        <time>2021-03-21T14:03:09Z</time>
      </trkpt>
      <trkpt lat="43.95327" lon="1.87535">
        <ele>400.8</ele>
        <time>2021-03-21T14:03:10Z</time>
      </trkpt>
      <trkpt lat="43.95323" lon="1.8754">
        <ele>400.6</ele>
        <time>2021-03-21T14:03:11Z</time>
      </trkpt>
      <trkpt lat="43.95319" lon="1.87545">
        <ele>400.4</ele>
        <time>2021-03-21T14:03:12Z</time>
      </trkpt>
      <trkpt lat="43.95316" lon="1.87549">
        <ele>400</ele>
        <time>2021-03-21T14:03:13Z</time>
      </trkpt>
      <trkpt lat="43.95312" lon="1.87554">
        <ele>399.8</ele>
        <time>2021-03-21T14:03:14Z</time>
      </trkpt>
      <trkpt lat="43.95308" lon="1.87559">
        <ele>399.6</ele>
        <time>2021-03-21T14:03:15Z</time>
      </trkpt>
      <trkpt lat="43.95305" lon="1.87563">
        <ele>399.4</ele>
        <time>2021-03-21T14:03:16Z</time>
      </trkpt>
      <trkpt lat="43.95301" lon="1.87567">
        <ele>399.2</ele>
        <time>2021-03-21T14:03:17Z</time>
      </trkpt>
      <trkpt lat="43.95299" lon="1.87571">
        <ele>399.2</ele>
        <time>2021-03-21T14:03:18Z</time>
      </trkpt>
      <trkpt lat="43.95297" lon="1.87574">
        <ele>399</ele>
        <time>2021-03-21T14:03:19Z</time>
      </trkpt>
      <trkpt lat="43.95296" lon="1.87577">
        <ele>399</ele>
        <time>2021-03-21T14:03:20Z</time>
      </trkpt>
      <trkpt lat="43.95296" lon="1.8758">
        <ele>399</ele>
        <time>2021-03-21T14:03:21Z</time>
      </trkpt>
      <trkpt lat="43.95296" lon="1.87582">
        <ele>399</ele>
        <time>2021-03-21T14:03:22Z</time>
      </trkpt>
      <trkpt lat="43.95298" lon="1.87584">
        <ele>398.8</ele>
        <time>2021-03-21T14:03:23Z</time>
      </trkpt>
      <trkpt lat="43.95299" lon="1.87585">
        <ele>398.8</ele>
        <time>2021-03-21T14:03:24Z</time>
      </trkpt>
      <trkpt lat="43.95301" lon="1.87588">
        <ele>399</ele>
        <time>2021-03-21T14:03:25Z</time>
      </trkpt>
      <trkpt lat="43.95302" lon="1.87592">
        <ele>398.8</ele>
        <time>2021-03-21T14:03:26Z</time>
      </trkpt>
      <trkpt lat="43.95301" lon="1.87596">
        <ele>398.8</ele>
        <time>2021-03-21T14:03:27Z</time>
      </trkpt>
      <trkpt lat="43.95299" lon="1.87599">
        <ele>398.8</ele>
        <time>2021-03-21T14:03:28Z</time>
      </trkpt>
      <trkpt lat="43.95296" lon="1.87602">
        <ele>398.8</ele>
        <time>2021-03-21T14:03:29Z</time>
      </trkpt>
      <trkpt lat="43.95293" lon="1.87604">
        <ele>398.4</ele>
        <time>2021-03-21T14:03:30Z</time>
      </trkpt>
      <trkpt lat="43.9529" lon="1.87607">
        <ele>398.4</ele>
        <time>2021-03-21T14:03:31Z</time>
      </trkpt>
      <trkpt lat="43.95287" lon="1.87609">
        <ele>398.2</ele>
        <time>2021-03-21T14:03:32Z</time>
      </trkpt>
      <trkpt lat="43.95282" lon="1.87616">
        <ele>398.2</ele>
        <time>2021-03-21T14:03:34Z</time>
      </trkpt>
      <trkpt lat="43.95279" lon="1.8762">
        <ele>398</ele>
        <time>2021-03-21T14:03:35Z</time>
      </trkpt>
      <trkpt lat="43.95277" lon="1.87623">
        <ele>398</ele>
        <time>2021-03-21T14:03:36Z</time>
      </trkpt>
      <trkpt lat="43.95274" lon="1.87626">
        <ele>397.8</ele>
        <time>2021-03-21T14:03:37Z</time>
      </trkpt>
      <trkpt lat="43.95272" lon="1.87629">
        <ele>397.8</ele>
        <time>2021-03-21T14:03:38Z</time>
      </trkpt>
      <trkpt lat="43.95269" lon="1.87633">
        <ele>397.8</ele>
        <time>2021-03-21T14:03:39Z</time>
      </trkpt>
      <trkpt lat="43.95266" lon="1.87636">
        <ele>397.8</ele>
        <time>2021-03-21T14:03:40Z</time>
      </trkpt>
      <trkpt lat="43.95264" lon="1.8764">
        <ele>397.8</ele>
        <time>2021-03-21T14:03:41Z</time>
      </trkpt>
      <trkpt lat="43.95262" lon="1.87643">
        <ele>397.6</ele>
        <time>2021-03-21T14:03:42Z</time>
      </trkpt>
      <trkpt lat="43.9526" lon="1.87648">
        <ele>397.6</ele>
        <time>2021-03-21T14:03:43Z</time>
      </trkpt>
      <trkpt lat="43.95259" lon="1.87651">
        <ele>397.4</ele>
        <time>2021-03-21T14:03:44Z</time>
      </trkpt>
      <trkpt lat="43.95258" lon="1.87655">
        <ele>397.4</ele>
        <time>2021-03-21T14:03:45Z</time>
      </trkpt>
      <trkpt lat="43.95258" lon="1.87659">
        <ele>397.4</ele>
        <time>2021-03-21T14:03:46Z</time>
      </trkpt>
      <trkpt lat="43.95258" lon="1.87662">
        <ele>397.4</ele>
        <time>2021-03-21T14:03:47Z</time>
      </trkpt>
      <trkpt lat="43.95258" lon="1.87665">
        <ele>397.6</ele>
        <time>2021-03-21T14:03:48Z</time>
      </trkpt>
      <trkpt lat="43.95257" lon="1.87668">
        <ele>397.4</ele>
        <time>2021-03-21T14:03:49Z</time>
      </trkpt>
      <trkpt lat="43.95255" lon="1.87671">
        <ele>397.2</ele>
        <time>2021-03-21T14:03:50Z</time>
      </trkpt>
      <trkpt lat="43.95253" lon="1.87673">
        <ele>397.2</ele>
        <time>2021-03-21T14:03:51Z</time>
      </trkpt>
      <trkpt lat="43.95251" lon="1.87675">
        <ele>397.2</ele>
        <time>2021-03-21T14:03:52Z</time>
      </trkpt>
      <trkpt lat="43.95249" lon="1.87678">
        <ele>397</ele>
        <time>2021-03-21T14:03:53Z</time>
      </trkpt>
      <trkpt lat="43.95248" lon="1.8768">
        <ele>397.2</ele>
        <time>2021-03-21T14:03:54Z</time>
      </trkpt>
      <trkpt lat="43.95248" lon="1.87683">
        <ele>397.2</ele>
        <time>2021-03-21T14:03:55Z</time>
      </trkpt>
      <trkpt lat="43.95247" lon="1.87686">
        <ele>397.2</ele>
        <time>2021-03-21T14:03:56Z</time>
      </trkpt>
      <trkpt lat="43.95247" lon="1.87689">
        <ele>397</ele>
        <time>2021-03-21T14:03:57Z</time>
      </trkpt>
      <trkpt lat="43.95245" lon="1.87692">
        <ele>397</ele>
        <time>2021-03-21T14:03:58Z</time>
      </trkpt>
      <trkpt lat="43.95243" lon="1.87695">
        <ele>397.2</ele>
        <time>2021-03-21T14:03:59Z</time>
      </trkpt>
      <trkpt lat="43.9524" lon="1.87697">
        <ele>397.4</ele>
        <time>2021-03-21T14:04:00Z</time>
      </trkpt>
      <trkpt lat="43.95237" lon="1.87699">
        <ele>397.4</ele>
        <time>2021-03-21T14:04:01Z</time>
      </trkpt>
      <trkpt lat="43.95235" lon="1.87702">
        <ele>397.2</ele>
        <time>2021-03-21T14:04:02Z</time>
      </trkpt>
      <trkpt lat="43.95232" lon="1.87704">
        <ele>397.4</ele>
        <time>2021-03-21T14:04:03Z</time>
      </trkpt>
      <trkpt lat="43.95229" lon="1.87707">
        <ele>397.4</ele>
        <time>2021-03-21T14:04:04Z</time>
      </trkpt>
      <trkpt lat="43.95227" lon="1.87709">
        <ele>397.4</ele>
        <time>2021-03-21T14:04:05Z</time>
      </trkpt>
      <trkpt lat="43.95225" lon="1.87712">
        <ele>397.6</ele>
        <time>2021-03-21T14:04:06Z</time>
      </trkpt>
      <trkpt lat="43.95223" lon="1.87715">
        <ele>397.6</ele>
        <time>2021-03-21T14:04:07Z</time>
      </trkpt>
      <trkpt lat="43.95221" lon="1.87718">
        <ele>397.6</ele>
        <time>2021-03-21T14:04:08Z</time>
      </trkpt>
      <trkpt lat="43.9522" lon="1.87721">
        <ele>397.6</ele>
        <time>2021-03-21T14:04:09Z</time>
      </trkpt>
      <trkpt lat="43.95218" lon="1.87725">
        <ele>397.6</ele>
        <time>2021-03-21T14:04:10Z</time>
      </trkpt>
      <trkpt lat="43.95216" lon="1.87728">
        <ele>397.8</ele>
        <time>2021-03-21T14:04:11Z</time>
      </trkpt>
      <trkpt lat="43.95214" lon="1.87732">
        <ele>397.8</ele>
        <time>2021-03-21T14:04:12Z</time>
      </trkpt>
      <trkpt lat="43.95211" lon="1.87735">
        <ele>397.8</ele>
        <time>2021-03-21T14:04:13Z</time>
      </trkpt>
      <trkpt lat="43.95207" lon="1.87737">
        <ele>397.8</ele>
        <time>2021-03-21T14:04:14Z</time>
      </trkpt>
      <trkpt lat="43.95204" lon="1.87739">
        <ele>397.8</ele>
        <time>2021-03-21T14:04:15Z</time>
      </trkpt>
      <trkpt lat="43.95201" lon="1.87742">
        <ele>397.8</ele>
        <time>2021-03-21T14:04:16Z</time>
      </trkpt>
      <trkpt lat="43.95198" lon="1.87746">
        <ele>398</ele>
        <time>2021-03-21T14:04:17Z</time>
      </trkpt>
      <trkpt lat="43.95191" lon="1.87753">
        <ele>398</ele>
        <time>2021-03-21T14:04:19Z</time>
      </trkpt>
      <trkpt lat="43.95189" lon="1.87756">
        <ele>398</ele>
        <time>2021-03-21T14:04:20Z</time>
      </trkpt>
      <trkpt lat="43.95186" lon="1.87759">
        <ele>398</ele>
        <time>2021-03-21T14:04:21Z</time>
      </trkpt>
      <trkpt lat="43.95183" lon="1.87762">
        <ele>398</ele>
        <time>2021-03-21T14:04:22Z</time>
      </trkpt>
      <trkpt lat="43.95179" lon="1.87765">
        <ele>398</ele>
        <time>2021-03-21T14:04:23Z</time>
      </trkpt>
      <trkpt lat="43.95177" lon="1.87768">
        <ele>398</ele>
        <time>2021-03-21T14:04:24Z</time>
      </trkpt>
      <trkpt lat="43.95175" lon="1.87771">
        <ele>397.8</ele>
        <time>2021-03-21T14:04:25Z</time>
      </trkpt>
      <trkpt lat="43.95172" lon="1.87774">
        <ele>398</ele>
        <time>2021-03-21T14:04:26Z</time>
      </trkpt>
      <trkpt lat="43.95169" lon="1.87777">
        <ele>398.2</ele>
        <time>2021-03-21T14:04:27Z</time>
      </trkpt>
      <trkpt lat="43.95166" lon="1.87781">
        <ele>398</ele>
        <time>2021-03-21T14:04:28Z</time>
      </trkpt>
      <trkpt lat="43.95162" lon="1.87783">
        <ele>398</ele>
        <time>2021-03-21T14:04:29Z</time>
      </trkpt>
      <trkpt lat="43.95158" lon="1.87785">
        <ele>398.2</ele>
        <time>2021-03-21T14:04:30Z</time>
      </trkpt>
      <trkpt lat="43.95154" lon="1.87788">
        <ele>398.2</ele>
        <time>2021-03-21T14:04:31Z</time>
      </trkpt>
      <trkpt lat="43.95151" lon="1.87791">
        <ele>398.2</ele>
        <time>2021-03-21T14:04:32Z</time>
      </trkpt>
      <trkpt lat="43.95148" lon="1.87794">
        <ele>398.4</ele>
        <time>2021-03-21T14:04:33Z</time>
      </trkpt>
      <trkpt lat="43.95141" lon="1.87801">
        <ele>398.4</ele>
        <time>2021-03-21T14:04:35Z</time>
      </trkpt>
      <trkpt lat="43.95138" lon="1.87804">
        <ele>398.4</ele>
        <time>2021-03-21T14:04:36Z</time>
      </trkpt>
      <trkpt lat="43.95134" lon="1.87806">
        <ele>398.6</ele>
        <time>2021-03-21T14:04:37Z</time>
      </trkpt>
      <trkpt lat="43.9513" lon="1.87809">
        <ele>398.6</ele>
        <time>2021-03-21T14:04:38Z</time>
      </trkpt>
      <trkpt lat="43.95127" lon="1.87813">
        <ele>398.8</ele>
        <time>2021-03-21T14:04:39Z</time>
      </trkpt>
      <trkpt lat="43.95125" lon="1.87817">
        <ele>398.8</ele>
        <time>2021-03-21T14:04:40Z</time>
      </trkpt>
      <trkpt lat="43.95123" lon="1.8782">
        <ele>398.8</ele>
        <time>2021-03-21T14:04:41Z</time>
      </trkpt>
      <trkpt lat="43.95121" lon="1.87823">
        <ele>399</ele>
        <time>2021-03-21T14:04:42Z</time>
      </trkpt>
      <trkpt lat="43.95118" lon="1.87825">
        <ele>398.8</ele>
        <time>2021-03-21T14:04:43Z</time>
      </trkpt>
      <trkpt lat="43.95116" lon="1.87828">
        <ele>398.8</ele>
        <time>2021-03-21T14:04:44Z</time>
      </trkpt>
      <trkpt lat="43.95114" lon="1.87831">
        <ele>399</ele>
        <time>2021-03-21T14:04:45Z</time>
      </trkpt>
      <trkpt lat="43.95112" lon="1.87834">
        <ele>399</ele>
        <time>2021-03-21T14:04:46Z</time>
      </trkpt>
      <trkpt lat="43.9511" lon="1.87837">
        <ele>399.2</ele>
        <time>2021-03-21T14:04:47Z</time>
      </trkpt>
      <trkpt lat="43.95108" lon="1.87841">
        <ele>399.2</ele>
        <time>2021-03-21T14:04:48Z</time>
      </trkpt>
      <trkpt lat="43.95106" lon="1.87844">
        <ele>399.4</ele>
        <time>2021-03-21T14:04:49Z</time>
      </trkpt>
      <trkpt lat="43.951" lon="1.87852">
        <ele>399.6</ele>
        <time>2021-03-21T14:04:51Z</time>
      </trkpt>
      <trkpt lat="43.95097" lon="1.87856">
        <ele>399.6</ele>
        <time>2021-03-21T14:04:52Z</time>
      </trkpt>
      <trkpt lat="43.95091" lon="1.87864">
        <ele>399.6</ele>
        <time>2021-03-21T14:04:54Z</time>
      </trkpt>
      <trkpt lat="43.95088" lon="1.87867">
        <ele>399.6</ele>
        <time>2021-03-21T14:04:55Z</time>
      </trkpt>
      <trkpt lat="43.95084" lon="1.87871">
        <ele>399.8</ele>
        <time>2021-03-21T14:04:56Z</time>
      </trkpt>
      <trkpt lat="43.9508" lon="1.87873">
        <ele>399.6</ele>
        <time>2021-03-21T14:04:57Z</time>
      </trkpt>
      <trkpt lat="43.95076" lon="1.87875">
        <ele>399.6</ele>
        <time>2021-03-21T14:04:58Z</time>
      </trkpt>
      <trkpt lat="43.95072" lon="1.87876">
        <ele>399.6</ele>
        <time>2021-03-21T14:04:59Z</time>
      </trkpt>
      <trkpt lat="43.95069" lon="1.87878">
        <ele>399.6</ele>
        <time>2021-03-21T14:05:00Z</time>
      </trkpt>
      <trkpt lat="43.95066" lon="1.8788">
        <ele>399.8</ele>
        <time>2021-03-21T14:05:01Z</time>
      </trkpt>
      <trkpt lat="43.95063" lon="1.87882">
        <ele>399.6</ele>
        <time>2021-03-21T14:05:02Z</time>
      </trkpt>
      <trkpt lat="43.95061" lon="1.87884">
        <ele>399.4</ele>
        <time>2021-03-21T14:05:03Z</time>
      </trkpt>
      <trkpt lat="43.95059" lon="1.87886">
        <ele>399.4</ele>
        <time>2021-03-21T14:05:04Z</time>
      </trkpt>
      <trkpt lat="43.95057" lon="1.87888">
        <ele>399.2</ele>
        <time>2021-03-21T14:05:05Z</time>
      </trkpt>
      <trkpt lat="43.95056" lon="1.87891">
        <ele>399.2</ele>
        <time>2021-03-21T14:05:06Z</time>
      </trkpt>
      <trkpt lat="43.95054" lon="1.87892">
        <ele>399</ele>
        <time>2021-03-21T14:05:07Z</time>
      </trkpt>
      <trkpt lat="43.95052" lon="1.87895">
        <ele>399</ele>
        <time>2021-03-21T14:05:08Z</time>
      </trkpt>
      <trkpt lat="43.9505" lon="1.87897">
        <ele>398.8</ele>
        <time>2021-03-21T14:05:09Z</time>
      </trkpt>
      <trkpt lat="43.95049" lon="1.87899">
        <ele>399</ele>
        <time>2021-03-21T14:05:10Z</time>
      </trkpt>
      <trkpt lat="43.95044" lon="1.87904">
        <ele>398.8</ele>
        <time>2021-03-21T14:05:12Z</time>
      </trkpt>
      <trkpt lat="43.95042" lon="1.87906">
        <ele>399</ele>
        <time>2021-03-21T14:05:13Z</time>
      </trkpt>
      <trkpt lat="43.9504" lon="1.87908">
        <ele>398.8</ele>
        <time>2021-03-21T14:05:14Z</time>
      </trkpt>
      <trkpt lat="43.95038" lon="1.87909">
        <ele>398.8</ele>
        <time>2021-03-21T14:05:15Z</time>
      </trkpt>
      <trkpt lat="43.95036" lon="1.87911">
        <ele>398.6</ele>
        <time>2021-03-21T14:05:16Z</time>
      </trkpt>
      <trkpt lat="43.95034" lon="1.87913">
        <ele>398.8</ele>
        <time>2021-03-21T14:05:17Z</time>
      </trkpt>
      <trkpt lat="43.95031" lon="1.87915">
        <ele>398.6</ele>
        <time>2021-03-21T14:05:18Z</time>
      </trkpt>
      <trkpt lat="43.95029" lon="1.87918">
        <ele>398.6</ele>
        <time>2021-03-21T14:05:19Z</time>
      </trkpt>
      <trkpt lat="43.95027" lon="1.8792">
        <ele>398.6</ele>
        <time>2021-03-21T14:05:20Z</time>
      </trkpt>
      <trkpt lat="43.95024" lon="1.87922">
        <ele>398.4</ele>
        <time>2021-03-21T14:05:21Z</time>
      </trkpt>
      <trkpt lat="43.95022" lon="1.87924">
        <ele>398.4</ele>
        <time>2021-03-21T14:05:22Z</time>
      </trkpt>
      <trkpt lat="43.95019" lon="1.87926">
        <ele>398.4</ele>
        <time>2021-03-21T14:05:23Z</time>
      </trkpt>
      <trkpt lat="43.95016" lon="1.87929">
        <ele>398.4</ele>
        <time>2021-03-21T14:05:24Z</time>
      </trkpt>
      <trkpt lat="43.95013" lon="1.87931">
        <ele>398.2</ele>
        <time>2021-03-21T14:05:25Z</time>
      </trkpt>
      <trkpt lat="43.9501" lon="1.87933">
        <ele>398.2</ele>
        <time>2021-03-21T14:05:26Z</time>
      </trkpt>
      <trkpt lat="43.95007" lon="1.87936">
        <ele>398.2</ele>
        <time>2021-03-21T14:05:27Z</time>
      </trkpt>
      <trkpt lat="43.95005" lon="1.87939">
        <ele>398.2</ele>
        <time>2021-03-21T14:05:28Z</time>
      </trkpt>
      <trkpt lat="43.95003" lon="1.87942">
        <ele>398.2</ele>
        <time>2021-03-21T14:05:29Z</time>
      </trkpt>
      <trkpt lat="43.95001" lon="1.87945">
        <ele>398.2</ele>
        <time>2021-03-21T14:05:30Z</time>
      </trkpt>
      <trkpt lat="43.95" lon="1.87949">
        <ele>398.2</ele>
        <time>2021-03-21T14:05:31Z</time>
      </trkpt>
      <trkpt lat="43.94998" lon="1.87953">
        <ele>398</ele>
        <time>2021-03-21T14:05:32Z</time>
      </trkpt>
      <trkpt lat="43.94996" lon="1.87957">
        <ele>398</ele>
        <time>2021-03-21T14:05:33Z</time>
      </trkpt>
      <trkpt lat="43.94994" lon="1.87961">
        <ele>398</ele>
        <time>2021-03-21T14:05:34Z</time>
      </trkpt>
      <trkpt lat="43.94992" lon="1.87965">
        <ele>398</ele>
        <time>2021-03-21T14:05:35Z</time>
      </trkpt>
      <trkpt lat="43.9499" lon="1.87969">
        <ele>397.8</ele>
        <time>2021-03-21T14:05:36Z</time>
      </trkpt>
      <trkpt lat="43.94987" lon="1.87972">
        <ele>397.6</ele>
        <time>2021-03-21T14:05:37Z</time>
      </trkpt>
      <trkpt lat="43.94985" lon="1.87976">
        <ele>397.6</ele>
        <time>2021-03-21T14:05:38Z</time>
      </trkpt>
      <trkpt lat="43.94983" lon="1.87979">
        <ele>397.6</ele>
        <time>2021-03-21T14:05:39Z</time>
      </trkpt>
      <trkpt lat="43.94981" lon="1.87981">
        <ele>397.4</ele>
        <time>2021-03-21T14:05:40Z</time>
      </trkpt>
      <trkpt lat="43.94979" lon="1.87985">
        <ele>397.4</ele>
        <time>2021-03-21T14:05:41Z</time>
      </trkpt>
      <trkpt lat="43.94977" lon="1.87988">
        <ele>397.4</ele>
        <time>2021-03-21T14:05:42Z</time>
      </trkpt>
      <trkpt lat="43.94974" lon="1.87992">
        <ele>397.2</ele>
        <time>2021-03-21T14:05:43Z</time>
      </trkpt>
      <trkpt lat="43.94971" lon="1.87996">
        <ele>397.2</ele>
        <time>2021-03-21T14:05:44Z</time>
      </trkpt>
      <trkpt lat="43.94966" lon="1.88004">
        <ele>397.4</ele>
        <time>2021-03-21T14:05:46Z</time>
      </trkpt>
      <trkpt lat="43.94964" lon="1.88007">
        <ele>397.2</ele>
        <time>2021-03-21T14:05:47Z</time>
      </trkpt>
      <trkpt lat="43.94962" lon="1.8801">
        <ele>397.2</ele>
        <time>2021-03-21T14:05:48Z</time>
      </trkpt>
      <trkpt lat="43.9496" lon="1.88014">
        <ele>397.2</ele>
        <time>2021-03-21T14:05:49Z</time>
      </trkpt>
      <trkpt lat="43.94958" lon="1.88017">
        <ele>397.2</ele>
        <time>2021-03-21T14:05:50Z</time>
      </trkpt>
      <trkpt lat="43.94957" lon="1.8802">
        <ele>397.2</ele>
        <time>2021-03-21T14:05:51Z</time>
      </trkpt>
      <trkpt lat="43.94955" lon="1.88023">
        <ele>397.2</ele>
        <time>2021-03-21T14:05:52Z</time>
      </trkpt>
      <trkpt lat="43.94953" lon="1.88026">
        <ele>397.2</ele>
        <time>2021-03-21T14:05:53Z</time>
      </trkpt>
      <trkpt lat="43.94951" lon="1.88029">
        <ele>397.4</ele>
        <time>2021-03-21T14:05:54Z</time>
      </trkpt>
      <trkpt lat="43.94949" lon="1.88032">
        <ele>397.2</ele>
        <time>2021-03-21T14:05:55Z</time>
      </trkpt>
      <trkpt lat="43.94947" lon="1.88036">
        <ele>397.2</ele>
        <time>2021-03-21T14:05:56Z</time>
      </trkpt>
      <trkpt lat="43.94946" lon="1.88039">
        <ele>397.4</ele>
        <time>2021-03-21T14:05:57Z</time>
      </trkpt>
      <trkpt lat="43.94944" lon="1.88043">
        <ele>397.4</ele>
        <time>2021-03-21T14:05:58Z</time>
      </trkpt>
      <trkpt lat="43.94942" lon="1.88047">
        <ele>397.4</ele>
        <time>2021-03-21T14:05:59Z</time>
      </trkpt>
      <trkpt lat="43.9494" lon="1.88051">
        <ele>397.4</ele>
        <time>2021-03-21T14:06:00Z</time>
      </trkpt>
      <trkpt lat="43.94937" lon="1.88055">
        <ele>397.4</ele>
        <time>2021-03-21T14:06:01Z</time>
      </trkpt>
      <trkpt lat="43.94934" lon="1.88059">
        <ele>397.4</ele>
        <time>2021-03-21T14:06:02Z</time>
      </trkpt>
      <trkpt lat="43.9493" lon="1.88064">
        <ele>397.2</ele>
        <time>2021-03-21T14:06:03Z</time>
      </trkpt>
      <trkpt lat="43.94927" lon="1.88068">
        <ele>397.4</ele>
        <time>2021-03-21T14:06:04Z</time>
      </trkpt>
      <trkpt lat="43.9492" lon="1.88076">
        <ele>397</ele>
        <time>2021-03-21T14:06:06Z</time>
      </trkpt>
      <trkpt lat="43.94916" lon="1.88081">
        <ele>396.8</ele>
        <time>2021-03-21T14:06:07Z</time>
      </trkpt>
      <trkpt lat="43.94913" lon="1.88085">
        <ele>396.4</ele>
        <time>2021-03-21T14:06:08Z</time>
      </trkpt>
      <trkpt lat="43.94909" lon="1.8809">
        <ele>396.2</ele>
        <time>2021-03-21T14:06:09Z</time>
      </trkpt>
      <trkpt lat="43.94905" lon="1.88096">
        <ele>395.8</ele>
        <time>2021-03-21T14:06:10Z</time>
      </trkpt>
      <trkpt lat="43.94901" lon="1.88102">
        <ele>395.6</ele>
        <time>2021-03-21T14:06:11Z</time>
      </trkpt>
      <trkpt lat="43.94897" lon="1.88107">
        <ele>395.4</ele>
        <time>2021-03-21T14:06:12Z</time>
      </trkpt>
      <trkpt lat="43.9489" lon="1.88117">
        <ele>395.4</ele>
        <time>2021-03-21T14:06:14Z</time>
      </trkpt>
      <trkpt lat="43.94886" lon="1.88122">
        <ele>395.2</ele>
        <time>2021-03-21T14:06:15Z</time>
      </trkpt>
      <trkpt lat="43.94883" lon="1.88127">
        <ele>395</ele>
        <time>2021-03-21T14:06:16Z</time>
      </trkpt>
      <trkpt lat="43.94879" lon="1.88132">
        <ele>394.8</ele>
        <time>2021-03-21T14:06:17Z</time>
      </trkpt>
      <trkpt lat="43.94876" lon="1.88138">
        <ele>394.4</ele>
        <time>2021-03-21T14:06:18Z</time>
      </trkpt>
      <trkpt lat="43.94873" lon="1.88143">
        <ele>394.2</ele>
        <time>2021-03-21T14:06:19Z</time>
      </trkpt>
      <trkpt lat="43.9487" lon="1.88147">
        <ele>394.2</ele>
        <time>2021-03-21T14:06:20Z</time>
      </trkpt>
      <trkpt lat="43.94868" lon="1.88151">
        <ele>394</ele>
        <time>2021-03-21T14:06:21Z</time>
      </trkpt>
      <trkpt lat="43.94865" lon="1.88156">
        <ele>393.6</ele>
        <time>2021-03-21T14:06:22Z</time>
      </trkpt>
      <trkpt lat="43.94863" lon="1.88161">
        <ele>393.4</ele>
        <time>2021-03-21T14:06:23Z</time>
      </trkpt>
      <trkpt lat="43.9486" lon="1.88166">
        <ele>393.4</ele>
        <time>2021-03-21T14:06:24Z</time>
      </trkpt>
      <trkpt lat="43.94858" lon="1.88172">
        <ele>393.2</ele>
        <time>2021-03-21T14:06:25Z</time>
      </trkpt>
      <trkpt lat="43.94855" lon="1.88178">
        <ele>393</ele>
        <time>2021-03-21T14:06:26Z</time>
      </trkpt>
      <trkpt lat="43.94854" lon="1.88184">
        <ele>392.8</ele>
        <time>2021-03-21T14:06:27Z</time>
      </trkpt>
      <trkpt lat="43.94852" lon="1.8819">
        <ele>392.8</ele>
        <time>2021-03-21T14:06:28Z</time>
      </trkpt>
      <trkpt lat="43.94849" lon="1.88196">
        <ele>392.8</ele>
        <time>2021-03-21T14:06:29Z</time>
      </trkpt>
      <trkpt lat="43.94847" lon="1.88202">
        <ele>392.6</ele>
        <time>2021-03-21T14:06:30Z</time>
      </trkpt>
      <trkpt lat="43.94844" lon="1.88208">
        <ele>392.6</ele>
        <time>2021-03-21T14:06:31Z</time>
      </trkpt>
      <trkpt lat="43.94842" lon="1.88215">
        <ele>392.8</ele>
        <time>2021-03-21T14:06:32Z</time>
      </trkpt>
      <trkpt lat="43.94839" lon="1.88222">
        <ele>392.4</ele>
        <time>2021-03-21T14:06:33Z</time>
      </trkpt>
      <trkpt lat="43.94837" lon="1.88228">
        <ele>392.2</ele>
        <time>2021-03-21T14:06:34Z</time>
      </trkpt>
      <trkpt lat="43.94834" lon="1.88234">
        <ele>391.8</ele>
        <time>2021-03-21T14:06:35Z</time>
      </trkpt>
      <trkpt lat="43.94833" lon="1.8824">
        <ele>391.8</ele>
        <time>2021-03-21T14:06:36Z</time>
      </trkpt>
      <trkpt lat="43.94831" lon="1.88246">
        <ele>391.4</ele>
        <time>2021-03-21T14:06:37Z</time>
      </trkpt>
      <trkpt lat="43.9483" lon="1.88251">
        <ele>391.2</ele>
        <time>2021-03-21T14:06:38Z</time>
      </trkpt>
      <trkpt lat="43.94828" lon="1.88256">
        <ele>391.2</ele>
        <time>2021-03-21T14:06:39Z</time>
      </trkpt>
      <trkpt lat="43.94827" lon="1.88261">
        <ele>391</ele>
        <time>2021-03-21T14:06:40Z</time>
      </trkpt>
      <trkpt lat="43.94826" lon="1.88265">
        <ele>390.6</ele>
        <time>2021-03-21T14:06:41Z</time>
      </trkpt>
      <trkpt lat="43.94824" lon="1.88277">
        <ele>389.8</ele>
        <time>2021-03-21T14:06:43Z</time>
      </trkpt>
      <trkpt lat="43.94823" lon="1.88283">
        <ele>389.4</ele>
        <time>2021-03-21T14:06:44Z</time>
      </trkpt>
      <trkpt lat="43.94822" lon="1.88291">
        <ele>389.2</ele>
        <time>2021-03-21T14:06:45Z</time>
      </trkpt>
      <trkpt lat="43.94822" lon="1.88299">
        <ele>389</ele>
        <time>2021-03-21T14:06:46Z</time>
      </trkpt>
      <trkpt lat="43.9482" lon="1.88317">
        <ele>388.2</ele>
        <time>2021-03-21T14:06:48Z</time>
      </trkpt>
      <trkpt lat="43.94819" lon="1.88326">
        <ele>388</ele>
        <time>2021-03-21T14:06:49Z</time>
      </trkpt>
      <trkpt lat="43.94818" lon="1.88336">
        <ele>387.6</ele>
        <time>2021-03-21T14:06:50Z</time>
      </trkpt>
      <trkpt lat="43.94817" lon="1.88345">
        <ele>387.4</ele>
        <time>2021-03-21T14:06:51Z</time>
      </trkpt>
      <trkpt lat="43.94812" lon="1.88365">
        <ele>386</ele>
        <time>2021-03-21T14:06:53Z</time>
      </trkpt>
      <trkpt lat="43.9481" lon="1.88375">
        <ele>385.4</ele>
        <time>2021-03-21T14:06:54Z</time>
      </trkpt>
      <trkpt lat="43.94808" lon="1.88385">
        <ele>384.4</ele>
        <time>2021-03-21T14:06:55Z</time>
      </trkpt>
      <trkpt lat="43.94806" lon="1.88395">
        <ele>383.6</ele>
        <time>2021-03-21T14:06:56Z</time>
      </trkpt>
      <trkpt lat="43.94803" lon="1.88415">
        <ele>382.4</ele>
        <time>2021-03-21T14:06:58Z</time>
      </trkpt>
      <trkpt lat="43.94802" lon="1.88425">
        <ele>382.4</ele>
        <time>2021-03-21T14:06:59Z</time>
      </trkpt>
      <trkpt lat="43.94801" lon="1.88435">
        <ele>381.6</ele>
        <time>2021-03-21T14:07:00Z</time>
      </trkpt>
      <trkpt lat="43.948" lon="1.88445">
        <ele>381.2</ele>
        <time>2021-03-21T14:07:01Z</time>
      </trkpt>
      <trkpt lat="43.94799" lon="1.88454">
        <ele>380.8</ele>
        <time>2021-03-21T14:07:02Z</time>
      </trkpt>
      <trkpt lat="43.94798" lon="1.88465">
        <ele>380.4</ele>
        <time>2021-03-21T14:07:03Z</time>
      </trkpt>
      <trkpt lat="43.94798" lon="1.88475">
        <ele>379.8</ele>
        <time>2021-03-21T14:07:04Z</time>
      </trkpt>
      <trkpt lat="43.94797" lon="1.88497">
        <ele>379.4</ele>
        <time>2021-03-21T14:07:06Z</time>
      </trkpt>
      <trkpt lat="43.94797" lon="1.88508">
        <ele>379</ele>
        <time>2021-03-21T14:07:07Z</time>
      </trkpt>
      <trkpt lat="43.94797" lon="1.88518">
        <ele>378.8</ele>
        <time>2021-03-21T14:07:08Z</time>
      </trkpt>
      <trkpt lat="43.94797" lon="1.8853">
        <ele>378.6</ele>
        <time>2021-03-21T14:07:09Z</time>
      </trkpt>
      <trkpt lat="43.94797" lon="1.88541">
        <ele>378.2</ele>
        <time>2021-03-21T14:07:10Z</time>
      </trkpt>
      <trkpt lat="43.94796" lon="1.88552">
        <ele>378</ele>
        <time>2021-03-21T14:07:11Z</time>
      </trkpt>
      <trkpt lat="43.94796" lon="1.88563">
        <ele>378</ele>
        <time>2021-03-21T14:07:12Z</time>
      </trkpt>
      <trkpt lat="43.94795" lon="1.88584">
        <ele>377.4</ele>
        <time>2021-03-21T14:07:14Z</time>
      </trkpt>
      <trkpt lat="43.94795" lon="1.88594">
        <ele>377.2</ele>
        <time>2021-03-21T14:07:15Z</time>
      </trkpt>
      <trkpt lat="43.94794" lon="1.88603">
        <ele>377</ele>
        <time>2021-03-21T14:07:16Z</time>
      </trkpt>
      <trkpt lat="43.94793" lon="1.88612">
        <ele>377</ele>
        <time>2021-03-21T14:07:17Z</time>
      </trkpt>
      <trkpt lat="43.94793" lon="1.88622">
        <ele>376.8</ele>
        <time>2021-03-21T14:07:18Z</time>
      </trkpt>
      <trkpt lat="43.94793" lon="1.88631">
        <ele>376.8</ele>
        <time>2021-03-21T14:07:19Z</time>
      </trkpt>
      <trkpt lat="43.94792" lon="1.8864">
        <ele>376.8</ele>
        <time>2021-03-21T14:07:20Z</time>
      </trkpt>
      <trkpt lat="43.94791" lon="1.88649">
        <ele>376.6</ele>
        <time>2021-03-21T14:07:21Z</time>
      </trkpt>
      <trkpt lat="43.9479" lon="1.88658">
        <ele>376.6</ele>
        <time>2021-03-21T14:07:22Z</time>
      </trkpt>
      <trkpt lat="43.94788" lon="1.88666">
        <ele>376.6</ele>
        <time>2021-03-21T14:07:23Z</time>
      </trkpt>
      <trkpt lat="43.94787" lon="1.88675">
        <ele>376.6</ele>
        <time>2021-03-21T14:07:24Z</time>
      </trkpt>
      <trkpt lat="43.94784" lon="1.88683">
        <ele>376.4</ele>
        <time>2021-03-21T14:07:25Z</time>
      </trkpt>
      <trkpt lat="43.94779" lon="1.887">
        <ele>376.6</ele>
        <time>2021-03-21T14:07:27Z</time>
      </trkpt>
      <trkpt lat="43.94776" lon="1.88708">
        <ele>376.4</ele>
        <time>2021-03-21T14:07:28Z</time>
      </trkpt>
      <trkpt lat="43.94772" lon="1.88716">
        <ele>376.4</ele>
        <time>2021-03-21T14:07:29Z</time>
      </trkpt>
      <trkpt lat="43.94769" lon="1.88724">
        <ele>376.2</ele>
        <time>2021-03-21T14:07:30Z</time>
      </trkpt>
      <trkpt lat="43.94766" lon="1.88732">
        <ele>376.2</ele>
        <time>2021-03-21T14:07:31Z</time>
      </trkpt>
      <trkpt lat="43.94762" lon="1.88739">
        <ele>376</ele>
        <time>2021-03-21T14:07:32Z</time>
      </trkpt>
      <trkpt lat="43.9476" lon="1.88745">
        <ele>376</ele>
        <time>2021-03-21T14:07:33Z</time>
      </trkpt>
      <trkpt lat="43.94757" lon="1.88751">
        <ele>375.6</ele>
        <time>2021-03-21T14:07:34Z</time>
      </trkpt>
      <trkpt lat="43.94755" lon="1.88756">
        <ele>375.4</ele>
        <time>2021-03-21T14:07:35Z</time>
      </trkpt>
      <trkpt lat="43.94753" lon="1.8876">
        <ele>375</ele>
        <time>2021-03-21T14:07:36Z</time>
      </trkpt>
      <trkpt lat="43.94751" lon="1.88764">
        <ele>374.4</ele>
        <time>2021-03-21T14:07:37Z</time>
      </trkpt>
      <trkpt lat="43.9475" lon="1.88768">
        <ele>373.8</ele>
        <time>2021-03-21T14:07:38Z</time>
      </trkpt>
      <trkpt lat="43.94748" lon="1.88771">
        <ele>373.8</ele>
        <time>2021-03-21T14:07:39Z</time>
      </trkpt>
      <trkpt lat="43.94746" lon="1.88775">
        <ele>373.4</ele>
        <time>2021-03-21T14:07:40Z</time>
      </trkpt>
      <trkpt lat="43.94745" lon="1.88779">
        <ele>373.2</ele>
        <time>2021-03-21T14:07:41Z</time>
      </trkpt>
      <trkpt lat="43.94744" lon="1.88783">
        <ele>372.8</ele>
        <time>2021-03-21T14:07:42Z</time>
      </trkpt>
      <trkpt lat="43.94742" lon="1.88788">
        <ele>372.8</ele>
        <time>2021-03-21T14:07:43Z</time>
      </trkpt>
      <trkpt lat="43.9474" lon="1.88794">
        <ele>372.6</ele>
        <time>2021-03-21T14:07:44Z</time>
      </trkpt>
      <trkpt lat="43.94738" lon="1.88799">
        <ele>372.6</ele>
        <time>2021-03-21T14:07:45Z</time>
      </trkpt>
      <trkpt lat="43.94736" lon="1.88805">
        <ele>372.4</ele>
        <time>2021-03-21T14:07:46Z</time>
      </trkpt>
      <trkpt lat="43.94734" lon="1.8881">
        <ele>372</ele>
        <time>2021-03-21T14:07:47Z</time>
      </trkpt>
      <trkpt lat="43.94731" lon="1.88816">
        <ele>372</ele>
        <time>2021-03-21T14:07:48Z</time>
      </trkpt>
      <trkpt lat="43.94729" lon="1.88823">
        <ele>371.8</ele>
        <time>2021-03-21T14:07:49Z</time>
      </trkpt>
      <trkpt lat="43.94727" lon="1.8883">
        <ele>371.8</ele>
        <time>2021-03-21T14:07:50Z</time>
      </trkpt>
      <trkpt lat="43.94724" lon="1.88836">
        <ele>371.4</ele>
        <time>2021-03-21T14:07:51Z</time>
      </trkpt>
      <trkpt lat="43.94722" lon="1.88844">
        <ele>371.2</ele>
        <time>2021-03-21T14:07:52Z</time>
      </trkpt>
      <trkpt lat="43.9472" lon="1.88851">
        <ele>370.8</ele>
        <time>2021-03-21T14:07:53Z</time>
      </trkpt>
      <trkpt lat="43.94718" lon="1.8886">
        <ele>370.6</ele>
        <time>2021-03-21T14:07:54Z</time>
      </trkpt>
      <trkpt lat="43.94715" lon="1.88878">
        <ele>369.6</ele>
        <time>2021-03-21T14:07:56Z</time>
      </trkpt>
      <trkpt lat="43.94713" lon="1.88888">
        <ele>369.2</ele>
        <time>2021-03-21T14:07:57Z</time>
      </trkpt>
      <trkpt lat="43.94711" lon="1.88899">
        <ele>369</ele>
        <time>2021-03-21T14:07:58Z</time>
      </trkpt>
      <trkpt lat="43.9471" lon="1.88909">
        <ele>369</ele>
        <time>2021-03-21T14:07:59Z</time>
      </trkpt>
      <trkpt lat="43.94708" lon="1.8892">
        <ele>368.8</ele>
        <time>2021-03-21T14:08:00Z</time>
      </trkpt>
      <trkpt lat="43.94707" lon="1.88931">
        <ele>368.4</ele>
        <time>2021-03-21T14:08:01Z</time>
      </trkpt>
      <trkpt lat="43.94705" lon="1.88942">
        <ele>368</ele>
        <time>2021-03-21T14:08:02Z</time>
      </trkpt>
      <trkpt lat="43.94701" lon="1.88964">
        <ele>367.4</ele>
        <time>2021-03-21T14:08:04Z</time>
      </trkpt>
      <trkpt lat="43.94699" lon="1.88974">
        <ele>366.8</ele>
        <time>2021-03-21T14:08:05Z</time>
      </trkpt>
      <trkpt lat="43.94697" lon="1.88985">
        <ele>366.6</ele>
        <time>2021-03-21T14:08:06Z</time>
      </trkpt>
      <trkpt lat="43.94695" lon="1.88995">
        <ele>366</ele>
        <time>2021-03-21T14:08:07Z</time>
      </trkpt>
      <trkpt lat="43.94692" lon="1.89005">
        <ele>365.4</ele>
        <time>2021-03-21T14:08:08Z</time>
      </trkpt>
      <trkpt lat="43.9469" lon="1.89016">
        <ele>365</ele>
        <time>2021-03-21T14:08:09Z</time>
      </trkpt>
      <trkpt lat="43.94688" lon="1.89026">
        <ele>364.6</ele>
        <time>2021-03-21T14:08:10Z</time>
      </trkpt>
      <trkpt lat="43.94686" lon="1.89037">
        <ele>364.2</ele>
        <time>2021-03-21T14:08:11Z</time>
      </trkpt>
      <trkpt lat="43.94684" lon="1.89047">
        <ele>363.6</ele>
        <time>2021-03-21T14:08:12Z</time>
      </trkpt>
      <trkpt lat="43.94682" lon="1.89057">
        <ele>363.2</ele>
        <time>2021-03-21T14:08:13Z</time>
      </trkpt>
      <trkpt lat="43.9468" lon="1.89068">
        <ele>363.2</ele>
        <time>2021-03-21T14:08:14Z</time>
      </trkpt>
      <trkpt lat="43.94678" lon="1.89078">
        <ele>363</ele>
        <time>2021-03-21T14:08:15Z</time>
      </trkpt>
      <trkpt lat="43.94675" lon="1.89089">
        <ele>363</ele>
        <time>2021-03-21T14:08:16Z</time>
      </trkpt>
      <trkpt lat="43.94673" lon="1.89099">
        <ele>362.8</ele>
        <time>2021-03-21T14:08:17Z</time>
      </trkpt>
      <trkpt lat="43.94671" lon="1.89109">
        <ele>362.8</ele>
        <time>2021-03-21T14:08:18Z</time>
      </trkpt>
      <trkpt lat="43.94666" lon="1.8913">
        <ele>362.6</ele>
        <time>2021-03-21T14:08:20Z</time>
      </trkpt>
      <trkpt lat="43.94663" lon="1.8914">
        <ele>362.6</ele>
        <time>2021-03-21T14:08:21Z</time>
      </trkpt>
      <trkpt lat="43.94659" lon="1.89151">
        <ele>362.6</ele>
        <time>2021-03-21T14:08:22Z</time>
      </trkpt>
      <trkpt lat="43.94655" lon="1.89162">
        <ele>362.6</ele>
        <time>2021-03-21T14:08:23Z</time>
      </trkpt>
      <trkpt lat="43.9465" lon="1.89173">
        <ele>362.2</ele>
        <time>2021-03-21T14:08:24Z</time>
      </trkpt>
      <trkpt lat="43.94646" lon="1.89184">
        <ele>362</ele>
        <time>2021-03-21T14:08:25Z</time>
      </trkpt>
      <trkpt lat="43.94641" lon="1.89195">
        <ele>361.8</ele>
        <time>2021-03-21T14:08:26Z</time>
      </trkpt>
      <trkpt lat="43.94631" lon="1.89218">
        <ele>361</ele>
        <time>2021-03-21T14:08:28Z</time>
      </trkpt>
      <trkpt lat="43.94625" lon="1.8923">
        <ele>360.8</ele>
        <time>2021-03-21T14:08:29Z</time>
      </trkpt>
      <trkpt lat="43.9462" lon="1.89242">
        <ele>360.8</ele>
        <time>2021-03-21T14:08:30Z</time>
      </trkpt>
      <trkpt lat="43.94614" lon="1.89254">
        <ele>360.4</ele>
        <time>2021-03-21T14:08:31Z</time>
      </trkpt>
      <trkpt lat="43.94609" lon="1.89266">
        <ele>360.2</ele>
        <time>2021-03-21T14:08:32Z</time>
      </trkpt>
      <trkpt lat="43.94604" lon="1.89277">
        <ele>359.8</ele>
        <time>2021-03-21T14:08:33Z</time>
      </trkpt>
      <trkpt lat="43.94599" lon="1.89289">
        <ele>359.6</ele>
        <time>2021-03-21T14:08:34Z</time>
      </trkpt>
      <trkpt lat="43.94588" lon="1.89312">
        <ele>358.6</ele>
        <time>2021-03-21T14:08:36Z</time>
      </trkpt>
      <trkpt lat="43.94584" lon="1.89323">
        <ele>358.4</ele>
        <time>2021-03-21T14:08:37Z</time>
      </trkpt>
      <trkpt lat="43.9458" lon="1.89334">
        <ele>358.4</ele>
        <time>2021-03-21T14:08:38Z</time>
      </trkpt>
      <trkpt lat="43.94576" lon="1.89346">
        <ele>357.8</ele>
        <time>2021-03-21T14:08:39Z</time>
      </trkpt>
      <trkpt lat="43.94572" lon="1.89357">
        <ele>357</ele>
        <time>2021-03-21T14:08:40Z</time>
      </trkpt>
      <trkpt lat="43.94568" lon="1.89368">
        <ele>356.8</ele>
        <time>2021-03-21T14:08:41Z</time>
      </trkpt>
      <trkpt lat="43.94564" lon="1.89379">
        <ele>356.6</ele>
        <time>2021-03-21T14:08:42Z</time>
      </trkpt>
      <trkpt lat="43.9456" lon="1.89389">
        <ele>356.8</ele>
        <time>2021-03-21T14:08:43Z</time>
      </trkpt>
      <trkpt lat="43.94557" lon="1.894">
        <ele>356.6</ele>
        <time>2021-03-21T14:08:44Z</time>
      </trkpt>
      <trkpt lat="43.94553" lon="1.8941">
        <ele>356.6</ele>
        <time>2021-03-21T14:08:45Z</time>
      </trkpt>
      <trkpt lat="43.94549" lon="1.8942">
        <ele>356.6</ele>
        <time>2021-03-21T14:08:46Z</time>
      </trkpt>
      <trkpt lat="43.94546" lon="1.8943">
        <ele>356.6</ele>
        <time>2021-03-21T14:08:47Z</time>
      </trkpt>
      <trkpt lat="43.94539" lon="1.8945">
        <ele>356.6</ele>
        <time>2021-03-21T14:08:49Z</time>
      </trkpt>
      <trkpt lat="43.94536" lon="1.8946">
        <ele>356.8</ele>
        <time>2021-03-21T14:08:50Z</time>
      </trkpt>
      <trkpt lat="43.94532" lon="1.89469">
        <ele>357.2</ele>
        <time>2021-03-21T14:08:51Z</time>
      </trkpt>
      <trkpt lat="43.9453" lon="1.89478">
        <ele>357.6</ele>
        <time>2021-03-21T14:08:52Z</time>
      </trkpt>
      <trkpt lat="43.94527" lon="1.89486">
        <ele>358</ele>
        <time>2021-03-21T14:08:53Z</time>
      </trkpt>
      <trkpt lat="43.94524" lon="1.89495">
        <ele>358.4</ele>
        <time>2021-03-21T14:08:54Z</time>
      </trkpt>
      <trkpt lat="43.94521" lon="1.89503">
        <ele>358.6</ele>
        <time>2021-03-21T14:08:55Z</time>
      </trkpt>
      <trkpt lat="43.94518" lon="1.89511">
        <ele>358.8</ele>
        <time>2021-03-21T14:08:56Z</time>
      </trkpt>
      <trkpt lat="43.94515" lon="1.89518">
        <ele>359</ele>
        <time>2021-03-21T14:08:57Z</time>
      </trkpt>
      <trkpt lat="43.94513" lon="1.89525">
        <ele>359</ele>
        <time>2021-03-21T14:08:58Z</time>
      </trkpt>
      <trkpt lat="43.9451" lon="1.89532">
        <ele>359.4</ele>
        <time>2021-03-21T14:08:59Z</time>
      </trkpt>
      <trkpt lat="43.94508" lon="1.89539">
        <ele>359.6</ele>
        <time>2021-03-21T14:09:00Z</time>
      </trkpt>
      <trkpt lat="43.94506" lon="1.89546">
        <ele>359.6</ele>
        <time>2021-03-21T14:09:01Z</time>
      </trkpt>
      <trkpt lat="43.94504" lon="1.89552">
        <ele>360</ele>
        <time>2021-03-21T14:09:02Z</time>
      </trkpt>
      <trkpt lat="43.94502" lon="1.89558">
        <ele>360.2</ele>
        <time>2021-03-21T14:09:03Z</time>
      </trkpt>
      <trkpt lat="43.945" lon="1.89565">
        <ele>360.6</ele>
        <time>2021-03-21T14:09:04Z</time>
      </trkpt>
      <trkpt lat="43.94498" lon="1.89571">
        <ele>361.6</ele>
        <time>2021-03-21T14:09:05Z</time>
      </trkpt>
      <trkpt lat="43.94497" lon="1.89577">
        <ele>362.2</ele>
        <time>2021-03-21T14:09:06Z</time>
      </trkpt>
      <trkpt lat="43.94495" lon="1.89584">
        <ele>362.8</ele>
        <time>2021-03-21T14:09:07Z</time>
      </trkpt>
      <trkpt lat="43.94493" lon="1.89591">
        <ele>363.6</ele>
        <time>2021-03-21T14:09:08Z</time>
      </trkpt>
      <trkpt lat="43.94492" lon="1.89597">
        <ele>364</ele>
        <time>2021-03-21T14:09:09Z</time>
      </trkpt>
      <trkpt lat="43.9449" lon="1.89604">
        <ele>364.2</ele>
        <time>2021-03-21T14:09:10Z</time>
      </trkpt>
      <trkpt lat="43.94489" lon="1.89611">
        <ele>364.4</ele>
        <time>2021-03-21T14:09:11Z</time>
      </trkpt>
      <trkpt lat="43.94487" lon="1.89617">
        <ele>364.8</ele>
        <time>2021-03-21T14:09:12Z</time>
      </trkpt>
      <trkpt lat="43.94486" lon="1.89625">
        <ele>364.8</ele>
        <time>2021-03-21T14:09:13Z</time>
      </trkpt>
      <trkpt lat="43.94485" lon="1.89632">
        <ele>365</ele>
        <time>2021-03-21T14:09:14Z</time>
      </trkpt>
      <trkpt lat="43.94484" lon="1.8964">
        <ele>365.4</ele>
        <time>2021-03-21T14:09:15Z</time>
      </trkpt>
      <trkpt lat="43.94482" lon="1.89648">
        <ele>365.2</ele>
        <time>2021-03-21T14:09:16Z</time>
      </trkpt>
      <trkpt lat="43.94481" lon="1.89656">
        <ele>365.6</ele>
        <time>2021-03-21T14:09:17Z</time>
      </trkpt>
      <trkpt lat="43.9448" lon="1.89665">
        <ele>365.6</ele>
        <time>2021-03-21T14:09:18Z</time>
      </trkpt>
      <trkpt lat="43.94479" lon="1.89673">
        <ele>365.4</ele>
        <time>2021-03-21T14:09:19Z</time>
      </trkpt>
      <trkpt lat="43.94478" lon="1.89683">
        <ele>365.4</ele>
        <time>2021-03-21T14:09:20Z</time>
      </trkpt>
      <trkpt lat="43.94476" lon="1.89692">
        <ele>365.4</ele>
        <time>2021-03-21T14:09:21Z</time>
      </trkpt>
      <trkpt lat="43.94474" lon="1.89702">
        <ele>365.6</ele>
        <time>2021-03-21T14:09:22Z</time>
      </trkpt>
      <trkpt lat="43.94471" lon="1.89712">
        <ele>365.6</ele>
        <time>2021-03-21T14:09:23Z</time>
      </trkpt>
      <trkpt lat="43.94469" lon="1.89721">
        <ele>365.6</ele>
        <time>2021-03-21T14:09:24Z</time>
      </trkpt>
      <trkpt lat="43.94466" lon="1.89731">
        <ele>365.6</ele>
        <time>2021-03-21T14:09:25Z</time>
      </trkpt>
      <trkpt lat="43.94463" lon="1.89741">
        <ele>365.2</ele>
        <time>2021-03-21T14:09:26Z</time>
      </trkpt>
      <trkpt lat="43.9446" lon="1.8975">
        <ele>365</ele>
        <time>2021-03-21T14:09:27Z</time>
      </trkpt>
      <trkpt lat="43.94457" lon="1.89759">
        <ele>364.8</ele>
        <time>2021-03-21T14:09:28Z</time>
      </trkpt>
      <trkpt lat="43.94454" lon="1.89768">
        <ele>364.2</ele>
        <time>2021-03-21T14:09:29Z</time>
      </trkpt>
      <trkpt lat="43.94451" lon="1.89777">
        <ele>363.6</ele>
        <time>2021-03-21T14:09:30Z</time>
      </trkpt>
      <trkpt lat="43.94448" lon="1.89786">
        <ele>362.8</ele>
        <time>2021-03-21T14:09:31Z</time>
      </trkpt>
      <trkpt lat="43.94445" lon="1.89794">
        <ele>362</ele>
        <time>2021-03-21T14:09:32Z</time>
      </trkpt>
      <trkpt lat="43.94441" lon="1.89803">
        <ele>361.4</ele>
        <time>2021-03-21T14:09:33Z</time>
      </trkpt>
      <trkpt lat="43.94433" lon="1.8982">
        <ele>360.6</ele>
        <time>2021-03-21T14:09:35Z</time>
      </trkpt>
      <trkpt lat="43.94429" lon="1.89828">
        <ele>359.8</ele>
        <time>2021-03-21T14:09:36Z</time>
      </trkpt>
      <trkpt lat="43.94426" lon="1.89836">
        <ele>359.2</ele>
        <time>2021-03-21T14:09:37Z</time>
      </trkpt>
      <trkpt lat="43.94422" lon="1.89844">
        <ele>359.2</ele>
        <time>2021-03-21T14:09:38Z</time>
      </trkpt>
      <trkpt lat="43.94418" lon="1.89852">
        <ele>358.8</ele>
        <time>2021-03-21T14:09:39Z</time>
      </trkpt>
      <trkpt lat="43.94415" lon="1.8986">
        <ele>358.6</ele>
        <time>2021-03-21T14:09:40Z</time>
      </trkpt>
      <trkpt lat="43.94411" lon="1.89867">
        <ele>357.8</ele>
        <time>2021-03-21T14:09:41Z</time>
      </trkpt>
      <trkpt lat="43.94408" lon="1.89875">
        <ele>356.8</ele>
        <time>2021-03-21T14:09:42Z</time>
      </trkpt>
      <trkpt lat="43.94404" lon="1.89882">
        <ele>355.8</ele>
        <time>2021-03-21T14:09:43Z</time>
      </trkpt>
      <trkpt lat="43.94401" lon="1.8989">
        <ele>355.2</ele>
        <time>2021-03-21T14:09:44Z</time>
      </trkpt>
      <trkpt lat="43.94398" lon="1.89897">
        <ele>355</ele>
        <time>2021-03-21T14:09:45Z</time>
      </trkpt>
      <trkpt lat="43.94394" lon="1.89904">
        <ele>354.8</ele>
        <time>2021-03-21T14:09:46Z</time>
      </trkpt>
      <trkpt lat="43.94391" lon="1.8991">
        <ele>354.4</ele>
        <time>2021-03-21T14:09:47Z</time>
      </trkpt>
      <trkpt lat="43.94386" lon="1.89917">
        <ele>354</ele>
        <time>2021-03-21T14:09:48Z</time>
      </trkpt>
      <trkpt lat="43.94378" lon="1.89931">
        <ele>353.8</ele>
        <time>2021-03-21T14:09:50Z</time>
      </trkpt>
      <trkpt lat="43.94373" lon="1.89938">
        <ele>353.2</ele>
        <time>2021-03-21T14:09:51Z</time>
      </trkpt>
      <trkpt lat="43.94369" lon="1.89945">
        <ele>352.8</ele>
        <time>2021-03-21T14:09:52Z</time>
      </trkpt>
      <trkpt lat="43.94365" lon="1.89953">
        <ele>352.4</ele>
        <time>2021-03-21T14:09:53Z</time>
      </trkpt>
      <trkpt lat="43.94362" lon="1.89962">
        <ele>352.2</ele>
        <time>2021-03-21T14:09:54Z</time>
      </trkpt>
      <trkpt lat="43.94359" lon="1.8997">
        <ele>351.8</ele>
        <time>2021-03-21T14:09:55Z</time>
      </trkpt>
      <trkpt lat="43.94354" lon="1.89979">
        <ele>351.4</ele>
        <time>2021-03-21T14:09:56Z</time>
      </trkpt>
      <trkpt lat="43.94349" lon="1.89987">
        <ele>351.2</ele>
        <time>2021-03-21T14:09:57Z</time>
      </trkpt>
      <trkpt lat="43.94345" lon="1.89995">
        <ele>351.2</ele>
        <time>2021-03-21T14:09:58Z</time>
      </trkpt>
      <trkpt lat="43.9434" lon="1.90004">
        <ele>351.2</ele>
        <time>2021-03-21T14:09:59Z</time>
      </trkpt>
      <trkpt lat="43.94335" lon="1.90012">
        <ele>351</ele>
        <time>2021-03-21T14:10:00Z</time>
      </trkpt>
      <trkpt lat="43.9433" lon="1.90019">
        <ele>351</ele>
        <time>2021-03-21T14:10:01Z</time>
      </trkpt>
      <trkpt lat="43.94326" lon="1.90026">
        <ele>350.6</ele>
        <time>2021-03-21T14:10:02Z</time>
      </trkpt>
      <trkpt lat="43.9432" lon="1.90032">
        <ele>350.6</ele>
        <time>2021-03-21T14:10:03Z</time>
      </trkpt>
      <trkpt lat="43.94315" lon="1.90038">
        <ele>350.2</ele>
        <time>2021-03-21T14:10:04Z</time>
      </trkpt>
      <trkpt lat="43.9431" lon="1.90043">
        <ele>350</ele>
        <time>2021-03-21T14:10:05Z</time>
      </trkpt>
      <trkpt lat="43.94305" lon="1.90047">
        <ele>349.8</ele>
        <time>2021-03-21T14:10:06Z</time>
      </trkpt>
      <trkpt lat="43.943" lon="1.90053">
        <ele>349.4</ele>
        <time>2021-03-21T14:10:07Z</time>
      </trkpt>
      <trkpt lat="43.94298" lon="1.90059">
        <ele>349.4</ele>
        <time>2021-03-21T14:10:08Z</time>
      </trkpt>
      <trkpt lat="43.94295" lon="1.90066">
        <ele>349.4</ele>
        <time>2021-03-21T14:10:09Z</time>
      </trkpt>
      <trkpt lat="43.94294" lon="1.90073">
        <ele>349.4</ele>
        <time>2021-03-21T14:10:10Z</time>
      </trkpt>
      <trkpt lat="43.94292" lon="1.90079">
        <ele>349.6</ele>
        <time>2021-03-21T14:10:11Z</time>
      </trkpt>
      <trkpt lat="43.9429" lon="1.90086">
        <ele>349.4</ele>
        <time>2021-03-21T14:10:12Z</time>
      </trkpt>
      <trkpt lat="43.94288" lon="1.90092">
        <ele>349.4</ele>
        <time>2021-03-21T14:10:13Z</time>
      </trkpt>
      <trkpt lat="43.94286" lon="1.90097">
        <ele>349.4</ele>
        <time>2021-03-21T14:10:14Z</time>
      </trkpt>
      <trkpt lat="43.94285" lon="1.90103">
        <ele>349.4</ele>
        <time>2021-03-21T14:10:15Z</time>
      </trkpt>
      <trkpt lat="43.94283" lon="1.90108">
        <ele>349.6</ele>
        <time>2021-03-21T14:10:16Z</time>
      </trkpt>
      <trkpt lat="43.9428" lon="1.90111">
        <ele>350.2</ele>
        <time>2021-03-21T14:10:17Z</time>
      </trkpt>
      <trkpt lat="43.94277" lon="1.90115">
        <ele>350.4</ele>
        <time>2021-03-21T14:10:18Z</time>
      </trkpt>
      <trkpt lat="43.94274" lon="1.90119">
        <ele>350.4</ele>
        <time>2021-03-21T14:10:19Z</time>
      </trkpt>
      <trkpt lat="43.94271" lon="1.90123">
        <ele>350.6</ele>
        <time>2021-03-21T14:10:20Z</time>
      </trkpt>
      <trkpt lat="43.94269" lon="1.90127">
        <ele>351</ele>
        <time>2021-03-21T14:10:21Z</time>
      </trkpt>
      <trkpt lat="43.94268" lon="1.9013">
        <ele>351</ele>
        <time>2021-03-21T14:10:22Z</time>
      </trkpt>
      <trkpt lat="43.94267" lon="1.90133">
        <ele>351.4</ele>
        <time>2021-03-21T14:10:23Z</time>
      </trkpt>
      <trkpt lat="43.94267" lon="1.90135">
        <ele>351.8</ele>
        <time>2021-03-21T14:10:24Z</time>
      </trkpt>
      <trkpt lat="43.94266" lon="1.90136">
        <ele>352</ele>
        <time>2021-03-21T14:10:25Z</time>
      </trkpt>
      <trkpt lat="43.94265" lon="1.90138">
        <ele>352.2</ele>
        <time>2021-03-21T14:10:26Z</time>
      </trkpt>
      <trkpt lat="43.94264" lon="1.90141">
        <ele>352.2</ele>
        <time>2021-03-21T14:10:27Z</time>
      </trkpt>
      <trkpt lat="43.94263" lon="1.90143">
        <ele>352.4</ele>
        <time>2021-03-21T14:10:28Z</time>
      </trkpt>
      <trkpt lat="43.94262" lon="1.90145">
        <ele>352.2</ele>
        <time>2021-03-21T14:10:29Z</time>
      </trkpt>
      <trkpt lat="43.94262" lon="1.90146">
        <ele>352.2</ele>
        <time>2021-03-21T14:10:30Z</time>
      </trkpt>
      <trkpt lat="43.94262" lon="1.90148">
        <ele>352.2</ele>
        <time>2021-03-21T14:10:31Z</time>
      </trkpt>
      <trkpt lat="43.94262" lon="1.90149">
        <ele>352.4</ele>
        <time>2021-03-21T14:10:32Z</time>
      </trkpt>
      <trkpt lat="43.94262" lon="1.90151">
        <ele>352.2</ele>
        <time>2021-03-21T14:10:33Z</time>
      </trkpt>
      <trkpt lat="43.94263" lon="1.90153">
        <ele>352.2</ele>
        <time>2021-03-21T14:10:34Z</time>
      </trkpt>
      <trkpt lat="43.94264" lon="1.90154">
        <ele>352.2</ele>
        <time>2021-03-21T14:10:35Z</time>
      </trkpt>
      <trkpt lat="43.94265" lon="1.90156">
        <ele>352.2</ele>
        <time>2021-03-21T14:10:36Z</time>
      </trkpt>
      <trkpt lat="43.94266" lon="1.90157">
        <ele>351.8</ele>
        <time>2021-03-21T14:10:37Z</time>
      </trkpt>
      <trkpt lat="43.94267" lon="1.90158">
        <ele>351.8</ele>
        <time>2021-03-21T14:10:38Z</time>
      </trkpt>
      <trkpt lat="43.94269" lon="1.9016">
        <ele>351.6</ele>
        <time>2021-03-21T14:10:39Z</time>
      </trkpt>
      <trkpt lat="43.9427" lon="1.90161">
        <ele>351.4</ele>
        <time>2021-03-21T14:10:40Z</time>
      </trkpt>
      <trkpt lat="43.94271" lon="1.90163">
        <ele>351.4</ele>
        <time>2021-03-21T14:10:41Z</time>
      </trkpt>
      <trkpt lat="43.94272" lon="1.90163">
        <ele>351.4</ele>
        <time>2021-03-21T14:10:42Z</time>
      </trkpt>
      <trkpt lat="43.94273" lon="1.90164">
        <ele>351.2</ele>
        <time>2021-03-21T14:10:43Z</time>
      </trkpt>
      <trkpt lat="43.94273" lon="1.90164">
        <ele>351</ele>
        <time>2021-03-21T14:10:44Z</time>
      </trkpt>
      <trkpt lat="43.94279" lon="1.90167">
        <ele>349.6</ele>
        <time>2021-03-21T14:13:56Z</time>
      </trkpt>
      <trkpt lat="43.94281" lon="1.90168">
        <ele>349.6</ele>
        <time>2021-03-21T14:13:57Z</time>
      </trkpt>
      <trkpt lat="43.94284" lon="1.90168">
        <ele>349.6</ele>
        <time>2021-03-21T14:13:58Z</time>
      </trkpt>
      <trkpt lat="43.94287" lon="1.90169">
        <ele>349.6</ele>
        <time>2021-03-21T14:13:59Z</time>
      </trkpt>
      <trkpt lat="43.94294" lon="1.90171">
        <ele>349.6</ele>
        <time>2021-03-21T14:14:01Z</time>
      </trkpt>
      <trkpt lat="43.94298" lon="1.90172">
        <ele>349.6</ele>
        <time>2021-03-21T14:14:02Z</time>
      </trkpt>
      <trkpt lat="43.94302" lon="1.90173">
        <ele>349.4</ele>
        <time>2021-03-21T14:14:03Z</time>
      </trkpt>
      <trkpt lat="43.94306" lon="1.90174">
        <ele>349.4</ele>
        <time>2021-03-21T14:14:04Z</time>
      </trkpt>
      <trkpt lat="43.94314" lon="1.90175">
        <ele>348.6</ele>
        <time>2021-03-21T14:14:06Z</time>
      </trkpt>
      <trkpt lat="43.94317" lon="1.90175">
        <ele>348.4</ele>
        <time>2021-03-21T14:14:07Z</time>
      </trkpt>
      <trkpt lat="43.94321" lon="1.90176">
        <ele>347.8</ele>
        <time>2021-03-21T14:14:08Z</time>
      </trkpt>
      <trkpt lat="43.94324" lon="1.90177">
        <ele>347.4</ele>
        <time>2021-03-21T14:14:09Z</time>
      </trkpt>
      <trkpt lat="43.94328" lon="1.90177">
        <ele>347.2</ele>
        <time>2021-03-21T14:14:10Z</time>
      </trkpt>
      <trkpt lat="43.94331" lon="1.90178">
        <ele>347</ele>
        <time>2021-03-21T14:14:11Z</time>
      </trkpt>
      <trkpt lat="43.94335" lon="1.90179">
        <ele>346.8</ele>
        <time>2021-03-21T14:14:12Z</time>
      </trkpt>
      <trkpt lat="43.94341" lon="1.90183">
        <ele>346.2</ele>
        <time>2021-03-21T14:14:14Z</time>
      </trkpt>
      <trkpt lat="43.94345" lon="1.90184">
        <ele>345.8</ele>
        <time>2021-03-21T14:14:15Z</time>
      </trkpt>
      <trkpt lat="43.94349" lon="1.90186">
        <ele>345.6</ele>
        <time>2021-03-21T14:14:16Z</time>
      </trkpt>
      <trkpt lat="43.94352" lon="1.90188">
        <ele>345.4</ele>
        <time>2021-03-21T14:14:17Z</time>
      </trkpt>
      <trkpt lat="43.94354" lon="1.9019">
        <ele>345.4</ele>
        <time>2021-03-21T14:14:18Z</time>
      </trkpt>
      <trkpt lat="43.94357" lon="1.90192">
        <ele>345</ele>
        <time>2021-03-21T14:14:19Z</time>
      </trkpt>
      <trkpt lat="43.94358" lon="1.90196">
        <ele>345</ele>
        <time>2021-03-21T14:14:20Z</time>
      </trkpt>
      <trkpt lat="43.94358" lon="1.90199">
        <ele>344.8</ele>
        <time>2021-03-21T14:14:21Z</time>
      </trkpt>
      <trkpt lat="43.94357" lon="1.90203">
        <ele>344.4</ele>
        <time>2021-03-21T14:14:22Z</time>
      </trkpt>
      <trkpt lat="43.94356" lon="1.90207">
        <ele>344</ele>
        <time>2021-03-21T14:14:23Z</time>
      </trkpt>
      <trkpt lat="43.94354" lon="1.90212">
        <ele>343.6</ele>
        <time>2021-03-21T14:14:24Z</time>
      </trkpt>
      <trkpt lat="43.94352" lon="1.90218">
        <ele>343</ele>
        <time>2021-03-21T14:14:25Z</time>
      </trkpt>
      <trkpt lat="43.9435" lon="1.90224">
        <ele>342.4</ele>
        <time>2021-03-21T14:14:26Z</time>
      </trkpt>
      <trkpt lat="43.94347" lon="1.90231">
        <ele>342</ele>
        <time>2021-03-21T14:14:27Z</time>
      </trkpt>
      <trkpt lat="43.94343" lon="1.90239">
        <ele>341.4</ele>
        <time>2021-03-21T14:14:28Z</time>
      </trkpt>
      <trkpt lat="43.9434" lon="1.90246">
        <ele>340.8</ele>
        <time>2021-03-21T14:14:29Z</time>
      </trkpt>
      <trkpt lat="43.94337" lon="1.90252">
        <ele>340.4</ele>
        <time>2021-03-21T14:14:30Z</time>
      </trkpt>
      <trkpt lat="43.94334" lon="1.90258">
        <ele>340</ele>
        <time>2021-03-21T14:14:31Z</time>
      </trkpt>
      <trkpt lat="43.94331" lon="1.90264">
        <ele>339.4</ele>
        <time>2021-03-21T14:14:32Z</time>
      </trkpt>
      <trkpt lat="43.94325" lon="1.90277">
        <ele>338.4</ele>
        <time>2021-03-21T14:14:34Z</time>
      </trkpt>
      <trkpt lat="43.94324" lon="1.90284">
        <ele>337.4</ele>
        <time>2021-03-21T14:14:35Z</time>
      </trkpt>
      <trkpt lat="43.94324" lon="1.90291">
        <ele>336.6</ele>
        <time>2021-03-21T14:14:36Z</time>
      </trkpt>
      <trkpt lat="43.94325" lon="1.90297">
        <ele>336.2</ele>
        <time>2021-03-21T14:14:37Z</time>
      </trkpt>
      <trkpt lat="43.94331" lon="1.90307">
        <ele>334.4</ele>
        <time>2021-03-21T14:14:39Z</time>
      </trkpt>
      <trkpt lat="43.94335" lon="1.9031">
        <ele>333.6</ele>
        <time>2021-03-21T14:14:40Z</time>
      </trkpt>
      <trkpt lat="43.94339" lon="1.90314">
        <ele>333.2</ele>
        <time>2021-03-21T14:14:41Z</time>
      </trkpt>
      <trkpt lat="43.94344" lon="1.90318">
        <ele>332.8</ele>
        <time>2021-03-21T14:14:42Z</time>
      </trkpt>
      <trkpt lat="43.94349" lon="1.90322">
        <ele>332.2</ele>
        <time>2021-03-21T14:14:43Z</time>
      </trkpt>
      <trkpt lat="43.94353" lon="1.90327">
        <ele>331.6</ele>
        <time>2021-03-21T14:14:44Z</time>
      </trkpt>
      <trkpt lat="43.94358" lon="1.90331">
        <ele>331.4</ele>
        <time>2021-03-21T14:14:45Z</time>
      </trkpt>
      <trkpt lat="43.94363" lon="1.90335">
        <ele>331.2</ele>
        <time>2021-03-21T14:14:46Z</time>
      </trkpt>
      <trkpt lat="43.94368" lon="1.9034">
        <ele>331</ele>
        <time>2021-03-21T14:14:47Z</time>
      </trkpt>
      <trkpt lat="43.94373" lon="1.90344">
        <ele>330.4</ele>
        <time>2021-03-21T14:14:48Z</time>
      </trkpt>
      <trkpt lat="43.94379" lon="1.90348">
        <ele>330</ele>
        <time>2021-03-21T14:14:49Z</time>
      </trkpt>
      <trkpt lat="43.94384" lon="1.90353">
        <ele>329.6</ele>
        <time>2021-03-21T14:14:50Z</time>
      </trkpt>
      <trkpt lat="43.94389" lon="1.90358">
        <ele>329.2</ele>
        <time>2021-03-21T14:14:51Z</time>
      </trkpt>
      <trkpt lat="43.94394" lon="1.90364">
        <ele>329.2</ele>
        <time>2021-03-21T14:14:52Z</time>
      </trkpt>
      <trkpt lat="43.94399" lon="1.90371">
        <ele>329</ele>
        <time>2021-03-21T14:14:53Z</time>
      </trkpt>
      <trkpt lat="43.94403" lon="1.90378">
        <ele>328.8</ele>
        <time>2021-03-21T14:14:54Z</time>
      </trkpt>
      <trkpt lat="43.94407" lon="1.90385">
        <ele>328.6</ele>
        <time>2021-03-21T14:14:55Z</time>
      </trkpt>
      <trkpt lat="43.94411" lon="1.90393">
        <ele>328.2</ele>
        <time>2021-03-21T14:14:56Z</time>
      </trkpt>
      <trkpt lat="43.94416" lon="1.904">
        <ele>327.8</ele>
        <time>2021-03-21T14:14:57Z</time>
      </trkpt>
      <trkpt lat="43.9442" lon="1.90408">
        <ele>327.4</ele>
        <time>2021-03-21T14:14:58Z</time>
      </trkpt>
      <trkpt lat="43.94428" lon="1.90422">
        <ele>326.8</ele>
        <time>2021-03-21T14:15:00Z</time>
      </trkpt>
      <trkpt lat="43.94433" lon="1.9043">
        <ele>326.2</ele>
        <time>2021-03-21T14:15:01Z</time>
      </trkpt>
      <trkpt lat="43.94437" lon="1.90437">
        <ele>325.8</ele>
        <time>2021-03-21T14:15:02Z</time>
      </trkpt>
      <trkpt lat="43.94442" lon="1.90443">
        <ele>325.2</ele>
        <time>2021-03-21T14:15:03Z</time>
      </trkpt>
      <trkpt lat="43.94447" lon="1.90448">
        <ele>325.2</ele>
        <time>2021-03-21T14:15:04Z</time>
      </trkpt>
      <trkpt lat="43.94453" lon="1.90451">
        <ele>324.4</ele>
        <time>2021-03-21T14:15:05Z</time>
      </trkpt>
      <trkpt lat="43.94458" lon="1.90453">
        <ele>324</ele>
        <time>2021-03-21T14:15:06Z</time>
      </trkpt>
      <trkpt lat="43.94462" lon="1.90456">
        <ele>323.6</ele>
        <time>2021-03-21T14:15:07Z</time>
      </trkpt>
      <trkpt lat="43.94464" lon="1.9046">
        <ele>323.4</ele>
        <time>2021-03-21T14:15:08Z</time>
      </trkpt>
      <trkpt lat="43.94465" lon="1.90464">
        <ele>323.2</ele>
        <time>2021-03-21T14:15:09Z</time>
      </trkpt>
      <trkpt lat="43.94464" lon="1.9047">
        <ele>323.2</ele>
        <time>2021-03-21T14:15:10Z</time>
      </trkpt>
      <trkpt lat="43.94462" lon="1.90476">
        <ele>323</ele>
        <time>2021-03-21T14:15:11Z</time>
      </trkpt>
      <trkpt lat="43.9446" lon="1.90483">
        <ele>323</ele>
        <time>2021-03-21T14:15:12Z</time>
      </trkpt>
      <trkpt lat="43.94457" lon="1.90489">
        <ele>322.8</ele>
        <time>2021-03-21T14:15:13Z</time>
      </trkpt>
      <trkpt lat="43.94454" lon="1.90496">
        <ele>322.8</ele>
        <time>2021-03-21T14:15:14Z</time>
      </trkpt>
      <trkpt lat="43.94451" lon="1.90502">
        <ele>322.8</ele>
        <time>2021-03-21T14:15:15Z</time>
      </trkpt>
      <trkpt lat="43.94448" lon="1.90508">
        <ele>322.6</ele>
        <time>2021-03-21T14:15:16Z</time>
      </trkpt>
      <trkpt lat="43.94445" lon="1.90515">
        <ele>322.6</ele>
        <time>2021-03-21T14:15:17Z</time>
      </trkpt>
      <trkpt lat="43.94443" lon="1.90521">
        <ele>322.4</ele>
        <time>2021-03-21T14:15:18Z</time>
      </trkpt>
      <trkpt lat="43.9444" lon="1.90527">
        <ele>322.4</ele>
        <time>2021-03-21T14:15:19Z</time>
      </trkpt>
      <trkpt lat="43.94437" lon="1.90533">
        <ele>321.8</ele>
        <time>2021-03-21T14:15:20Z</time>
      </trkpt>
      <trkpt lat="43.94435" lon="1.90539">
        <ele>321</ele>
        <time>2021-03-21T14:15:21Z</time>
      </trkpt>
      <trkpt lat="43.94432" lon="1.90545">
        <ele>320.4</ele>
        <time>2021-03-21T14:15:22Z</time>
      </trkpt>
      <trkpt lat="43.9443" lon="1.90551">
        <ele>319.6</ele>
        <time>2021-03-21T14:15:23Z</time>
      </trkpt>
      <trkpt lat="43.94427" lon="1.90557">
        <ele>319.2</ele>
        <time>2021-03-21T14:15:24Z</time>
      </trkpt>
      <trkpt lat="43.94425" lon="1.90563">
        <ele>318.6</ele>
        <time>2021-03-21T14:15:25Z</time>
      </trkpt>
      <trkpt lat="43.94422" lon="1.9057">
        <ele>317.4</ele>
        <time>2021-03-21T14:15:26Z</time>
      </trkpt>
      <trkpt lat="43.9442" lon="1.90576">
        <ele>317</ele>
        <time>2021-03-21T14:15:27Z</time>
      </trkpt>
      <trkpt lat="43.94419" lon="1.90582">
        <ele>316.2</ele>
        <time>2021-03-21T14:15:28Z</time>
      </trkpt>
      <trkpt lat="43.94418" lon="1.90589">
        <ele>315.6</ele>
        <time>2021-03-21T14:15:29Z</time>
      </trkpt>
      <trkpt lat="43.94417" lon="1.90596">
        <ele>315</ele>
        <time>2021-03-21T14:15:30Z</time>
      </trkpt>
      <trkpt lat="43.94416" lon="1.90604">
        <ele>314.4</ele>
        <time>2021-03-21T14:15:31Z</time>
      </trkpt>
      <trkpt lat="43.94415" lon="1.90612">
        <ele>314</ele>
        <time>2021-03-21T14:15:32Z</time>
      </trkpt>
      <trkpt lat="43.94415" lon="1.90619">
        <ele>313.4</ele>
        <time>2021-03-21T14:15:33Z</time>
      </trkpt>
      <trkpt lat="43.94416" lon="1.90627">
        <ele>313.4</ele>
        <time>2021-03-21T14:15:34Z</time>
      </trkpt>
      <trkpt lat="43.94417" lon="1.90634">
        <ele>312.6</ele>
        <time>2021-03-21T14:15:35Z</time>
      </trkpt>
      <trkpt lat="43.94417" lon="1.90642">
        <ele>311.6</ele>
        <time>2021-03-21T14:15:36Z</time>
      </trkpt>
      <trkpt lat="43.94418" lon="1.90649">
        <ele>311.4</ele>
        <time>2021-03-21T14:15:37Z</time>
      </trkpt>
      <trkpt lat="43.94419" lon="1.90657">
        <ele>311</ele>
        <time>2021-03-21T14:15:38Z</time>
      </trkpt>
      <trkpt lat="43.9442" lon="1.90673">
        <ele>309.2</ele>
        <time>2021-03-21T14:15:40Z</time>
      </trkpt>
      <trkpt lat="43.9442" lon="1.90682">
        <ele>308.2</ele>
        <time>2021-03-21T14:15:41Z</time>
      </trkpt>
      <trkpt lat="43.94419" lon="1.9069">
        <ele>307.6</ele>
        <time>2021-03-21T14:15:42Z</time>
      </trkpt>
      <trkpt lat="43.94417" lon="1.90698">
        <ele>307.2</ele>
        <time>2021-03-21T14:15:43Z</time>
      </trkpt>
      <trkpt lat="43.94413" lon="1.90713">
        <ele>306.4</ele>
        <time>2021-03-21T14:15:45Z</time>
      </trkpt>
      <trkpt lat="43.94412" lon="1.90721">
        <ele>305.8</ele>
        <time>2021-03-21T14:15:46Z</time>
      </trkpt>
      <trkpt lat="43.94411" lon="1.90728">
        <ele>305</ele>
        <time>2021-03-21T14:15:47Z</time>
      </trkpt>
      <trkpt lat="43.94411" lon="1.90735">
        <ele>304.6</ele>
        <time>2021-03-21T14:15:48Z</time>
      </trkpt>
      <trkpt lat="43.94413" lon="1.90741">
        <ele>304.2</ele>
        <time>2021-03-21T14:15:49Z</time>
      </trkpt>
      <trkpt lat="43.94415" lon="1.90748">
        <ele>303.8</ele>
        <time>2021-03-21T14:15:50Z</time>
      </trkpt>
      <trkpt lat="43.94417" lon="1.90754">
        <ele>303.4</ele>
        <time>2021-03-21T14:15:51Z</time>
      </trkpt>
      <trkpt lat="43.9442" lon="1.90759">
        <ele>303</ele>
        <time>2021-03-21T14:15:52Z</time>
      </trkpt>
      <trkpt lat="43.94423" lon="1.90765">
        <ele>303</ele>
        <time>2021-03-21T14:15:53Z</time>
      </trkpt>
      <trkpt lat="43.94427" lon="1.9077">
        <ele>302.6</ele>
        <time>2021-03-21T14:15:54Z</time>
      </trkpt>
      <trkpt lat="43.9443" lon="1.90776">
        <ele>302.2</ele>
        <time>2021-03-21T14:15:55Z</time>
      </trkpt>
      <trkpt lat="43.94433" lon="1.90783">
        <ele>302</ele>
        <time>2021-03-21T14:15:56Z</time>
      </trkpt>
      <trkpt lat="43.94436" lon="1.90789">
        <ele>302</ele>
        <time>2021-03-21T14:15:57Z</time>
      </trkpt>
      <trkpt lat="43.94439" lon="1.90795">
        <ele>301.8</ele>
        <time>2021-03-21T14:15:58Z</time>
      </trkpt>
      <trkpt lat="43.94442" lon="1.90802">
        <ele>301.2</ele>
        <time>2021-03-21T14:15:59Z</time>
      </trkpt>
      <trkpt lat="43.94445" lon="1.90809">
        <ele>300.8</ele>
        <time>2021-03-21T14:16:00Z</time>
      </trkpt>
      <trkpt lat="43.94448" lon="1.90817">
        <ele>300.6</ele>
        <time>2021-03-21T14:16:01Z</time>
      </trkpt>
      <trkpt lat="43.94451" lon="1.90824">
        <ele>300</ele>
        <time>2021-03-21T14:16:02Z</time>
      </trkpt>
      <trkpt lat="43.94454" lon="1.90831">
        <ele>299.2</ele>
        <time>2021-03-21T14:16:03Z</time>
      </trkpt>
      <trkpt lat="43.94456" lon="1.90838">
        <ele>298.6</ele>
        <time>2021-03-21T14:16:04Z</time>
      </trkpt>
      <trkpt lat="43.94459" lon="1.90845">
        <ele>298.2</ele>
        <time>2021-03-21T14:16:05Z</time>
      </trkpt>
      <trkpt lat="43.94461" lon="1.90853">
        <ele>297.4</ele>
        <time>2021-03-21T14:16:06Z</time>
      </trkpt>
      <trkpt lat="43.94464" lon="1.9086">
        <ele>297</ele>
        <time>2021-03-21T14:16:07Z</time>
      </trkpt>
      <trkpt lat="43.94466" lon="1.90867">
        <ele>296.4</ele>
        <time>2021-03-21T14:16:08Z</time>
      </trkpt>
      <trkpt lat="43.94468" lon="1.90874">
        <ele>295.4</ele>
        <time>2021-03-21T14:16:09Z</time>
      </trkpt>
      <trkpt lat="43.94473" lon="1.90888">
        <ele>293.2</ele>
        <time>2021-03-21T14:16:11Z</time>
      </trkpt>
      <trkpt lat="43.94475" lon="1.90896">
        <ele>292</ele>
        <time>2021-03-21T14:16:12Z</time>
      </trkpt>
      <trkpt lat="43.94477" lon="1.90902">
        <ele>292</ele>
        <time>2021-03-21T14:16:13Z</time>
      </trkpt>
      <trkpt lat="43.9448" lon="1.90908">
        <ele>291.4</ele>
        <time>2021-03-21T14:16:14Z</time>
      </trkpt>
      <trkpt lat="43.94485" lon="1.90912">
        <ele>290.6</ele>
        <time>2021-03-21T14:16:15Z</time>
      </trkpt>
      <trkpt lat="43.94489" lon="1.90916">
        <ele>290</ele>
        <time>2021-03-21T14:16:16Z</time>
      </trkpt>
      <trkpt lat="43.94494" lon="1.90919">
        <ele>289.8</ele>
        <time>2021-03-21T14:16:17Z</time>
      </trkpt>
      <trkpt lat="43.94499" lon="1.90922">
        <ele>289.4</ele>
        <time>2021-03-21T14:16:18Z</time>
      </trkpt>
      <trkpt lat="43.94504" lon="1.90925">
        <ele>289.2</ele>
        <time>2021-03-21T14:16:19Z</time>
      </trkpt>
      <trkpt lat="43.94509" lon="1.90928">
        <ele>289.2</ele>
        <time>2021-03-21T14:16:20Z</time>
      </trkpt>
      <trkpt lat="43.94514" lon="1.90932">
        <ele>288.8</ele>
        <time>2021-03-21T14:16:21Z</time>
      </trkpt>
      <trkpt lat="43.94519" lon="1.90935">
        <ele>288.2</ele>
        <time>2021-03-21T14:16:22Z</time>
      </trkpt>
      <trkpt lat="43.9453" lon="1.90942">
        <ele>287.6</ele>
        <time>2021-03-21T14:16:24Z</time>
      </trkpt>
      <trkpt lat="43.94535" lon="1.90946">
        <ele>287.2</ele>
        <time>2021-03-21T14:16:25Z</time>
      </trkpt>
      <trkpt lat="43.9454" lon="1.90949">
        <ele>287.2</ele>
        <time>2021-03-21T14:16:26Z</time>
      </trkpt>
      <trkpt lat="43.94545" lon="1.90953">
        <ele>287</ele>
        <time>2021-03-21T14:16:27Z</time>
      </trkpt>
      <trkpt lat="43.9455" lon="1.90956">
        <ele>286.8</ele>
        <time>2021-03-21T14:16:28Z</time>
      </trkpt>
      <trkpt lat="43.94555" lon="1.90959">
        <ele>286.6</ele>
        <time>2021-03-21T14:16:29Z</time>
      </trkpt>
      <trkpt lat="43.9456" lon="1.90962">
        <ele>286.4</ele>
        <time>2021-03-21T14:16:30Z</time>
      </trkpt>
      <trkpt lat="43.94565" lon="1.90965">
        <ele>286.6</ele>
        <time>2021-03-21T14:16:31Z</time>
      </trkpt>
      <trkpt lat="43.9457" lon="1.90967">
        <ele>286.4</ele>
        <time>2021-03-21T14:16:32Z</time>
      </trkpt>
      <trkpt lat="43.94575" lon="1.90969">
        <ele>286.4</ele>
        <time>2021-03-21T14:16:33Z</time>
      </trkpt>
      <trkpt lat="43.9458" lon="1.9097">
        <ele>286.4</ele>
        <time>2021-03-21T14:16:34Z</time>
      </trkpt>
      <trkpt lat="43.94585" lon="1.90971">
        <ele>286.4</ele>
        <time>2021-03-21T14:16:35Z</time>
      </trkpt>
      <trkpt lat="43.9459" lon="1.90973">
        <ele>286.6</ele>
        <time>2021-03-21T14:16:36Z</time>
      </trkpt>
      <trkpt lat="43.94595" lon="1.90975">
        <ele>286.4</ele>
        <time>2021-03-21T14:16:37Z</time>
      </trkpt>
      <trkpt lat="43.94599" lon="1.90977">
        <ele>286.6</ele>
        <time>2021-03-21T14:16:38Z</time>
      </trkpt>
      <trkpt lat="43.94604" lon="1.9098">
        <ele>286.4</ele>
        <time>2021-03-21T14:16:39Z</time>
      </trkpt>
      <trkpt lat="43.94608" lon="1.90984">
        <ele>286.4</ele>
        <time>2021-03-21T14:16:40Z</time>
      </trkpt>
      <trkpt lat="43.94611" lon="1.90988">
        <ele>286.4</ele>
        <time>2021-03-21T14:16:41Z</time>
      </trkpt>
      <trkpt lat="43.94613" lon="1.90992">
        <ele>286.6</ele>
        <time>2021-03-21T14:16:42Z</time>
      </trkpt>
      <trkpt lat="43.94615" lon="1.90997">
        <ele>286.4</ele>
        <time>2021-03-21T14:16:43Z</time>
      </trkpt>
      <trkpt lat="43.94617" lon="1.91001">
        <ele>286.4</ele>
        <time>2021-03-21T14:16:44Z</time>
      </trkpt>
      <trkpt lat="43.94618" lon="1.91005">
        <ele>286.4</ele>
        <time>2021-03-21T14:16:45Z</time>
      </trkpt>
      <trkpt lat="43.94619" lon="1.91009">
        <ele>286.6</ele>
        <time>2021-03-21T14:16:46Z</time>
      </trkpt>
      <trkpt lat="43.94621" lon="1.91014">
        <ele>286.6</ele>
        <time>2021-03-21T14:16:47Z</time>
      </trkpt>
      <trkpt lat="43.94622" lon="1.91018">
        <ele>286.8</ele>
        <time>2021-03-21T14:16:48Z</time>
      </trkpt>
      <trkpt lat="43.94625" lon="1.91027">
        <ele>287</ele>
        <time>2021-03-21T14:16:50Z</time>
      </trkpt>
      <trkpt lat="43.94627" lon="1.91031">
        <ele>287.2</ele>
        <time>2021-03-21T14:16:51Z</time>
      </trkpt>
      <trkpt lat="43.94628" lon="1.91036">
        <ele>287.6</ele>
        <time>2021-03-21T14:16:52Z</time>
      </trkpt>
      <trkpt lat="43.9463" lon="1.9104">
        <ele>287.8</ele>
        <time>2021-03-21T14:16:53Z</time>
      </trkpt>
      <trkpt lat="43.94631" lon="1.91044">
        <ele>287.8</ele>
        <time>2021-03-21T14:16:54Z</time>
      </trkpt>
      <trkpt lat="43.94632" lon="1.91048">
        <ele>288</ele>
        <time>2021-03-21T14:16:55Z</time>
      </trkpt>
      <trkpt lat="43.94634" lon="1.91052">
        <ele>288.2</ele>
        <time>2021-03-21T14:16:56Z</time>
      </trkpt>
      <trkpt lat="43.94635" lon="1.91056">
        <ele>288.2</ele>
        <time>2021-03-21T14:16:57Z</time>
      </trkpt>
      <trkpt lat="43.94636" lon="1.9106">
        <ele>288.4</ele>
        <time>2021-03-21T14:16:58Z</time>
      </trkpt>
      <trkpt lat="43.94636" lon="1.91064">
        <ele>288.4</ele>
        <time>2021-03-21T14:16:59Z</time>
      </trkpt>
      <trkpt lat="43.94637" lon="1.91068">
        <ele>288.6</ele>
        <time>2021-03-21T14:17:00Z</time>
      </trkpt>
      <trkpt lat="43.94637" lon="1.91071">
        <ele>288.6</ele>
        <time>2021-03-21T14:17:01Z</time>
      </trkpt>
      <trkpt lat="43.94638" lon="1.91075">
        <ele>288.8</ele>
        <time>2021-03-21T14:17:02Z</time>
      </trkpt>
      <trkpt lat="43.94638" lon="1.91078">
        <ele>289.2</ele>
        <time>2021-03-21T14:17:03Z</time>
      </trkpt>
      <trkpt lat="43.94639" lon="1.91081">
        <ele>289.2</ele>
        <time>2021-03-21T14:17:04Z</time>
      </trkpt>
      <trkpt lat="43.94639" lon="1.91084">
        <ele>289.4</ele>
        <time>2021-03-21T14:17:05Z</time>
      </trkpt>
      <trkpt lat="43.9464" lon="1.91087">
        <ele>289.4</ele>
        <time>2021-03-21T14:17:06Z</time>
      </trkpt>
      <trkpt lat="43.94641" lon="1.9109">
        <ele>289.8</ele>
        <time>2021-03-21T14:17:07Z</time>
      </trkpt>
      <trkpt lat="43.94641" lon="1.91093">
        <ele>290</ele>
        <time>2021-03-21T14:17:08Z</time>
      </trkpt>
      <trkpt lat="43.94642" lon="1.91096">
        <ele>290.4</ele>
        <time>2021-03-21T14:17:09Z</time>
      </trkpt>
      <trkpt lat="43.94643" lon="1.91098">
        <ele>290.8</ele>
        <time>2021-03-21T14:17:10Z</time>
      </trkpt>
      <trkpt lat="43.94643" lon="1.91101">
        <ele>291</ele>
        <time>2021-03-21T14:17:11Z</time>
      </trkpt>
      <trkpt lat="43.94644" lon="1.91103">
        <ele>291.4</ele>
        <time>2021-03-21T14:17:12Z</time>
      </trkpt>
      <trkpt lat="43.94645" lon="1.91106">
        <ele>291.4</ele>
        <time>2021-03-21T14:17:13Z</time>
      </trkpt>
      <trkpt lat="43.94646" lon="1.91108">
        <ele>291.8</ele>
        <time>2021-03-21T14:17:14Z</time>
      </trkpt>
      <trkpt lat="43.94647" lon="1.9111">
        <ele>292.2</ele>
        <time>2021-03-21T14:17:15Z</time>
      </trkpt>
      <trkpt lat="43.94648" lon="1.91113">
        <ele>292.2</ele>
        <time>2021-03-21T14:17:16Z</time>
      </trkpt>
      <trkpt lat="43.94649" lon="1.91115">
        <ele>292.4</ele>
        <time>2021-03-21T14:17:17Z</time>
      </trkpt>
      <trkpt lat="43.9465" lon="1.91118">
        <ele>292.2</ele>
        <time>2021-03-21T14:17:18Z</time>
      </trkpt>
      <trkpt lat="43.94651" lon="1.9112">
        <ele>292.4</ele>
        <time>2021-03-21T14:17:19Z</time>
      </trkpt>
      <trkpt lat="43.94652" lon="1.91122">
        <ele>292.8</ele>
        <time>2021-03-21T14:17:20Z</time>
      </trkpt>
      <trkpt lat="43.94653" lon="1.91125">
        <ele>293</ele>
        <time>2021-03-21T14:17:21Z</time>
      </trkpt>
      <trkpt lat="43.94654" lon="1.91127">
        <ele>293</ele>
        <time>2021-03-21T14:17:22Z</time>
      </trkpt>
      <trkpt lat="43.94655" lon="1.9113">
        <ele>293</ele>
        <time>2021-03-21T14:17:23Z</time>
      </trkpt>
      <trkpt lat="43.94655" lon="1.91132">
        <ele>293.2</ele>
        <time>2021-03-21T14:17:24Z</time>
      </trkpt>
      <trkpt lat="43.94656" lon="1.91135">
        <ele>293.6</ele>
        <time>2021-03-21T14:17:25Z</time>
      </trkpt>
      <trkpt lat="43.94657" lon="1.91137">
        <ele>293.6</ele>
        <time>2021-03-21T14:17:26Z</time>
      </trkpt>
      <trkpt lat="43.94658" lon="1.91139">
        <ele>293.8</ele>
        <time>2021-03-21T14:17:27Z</time>
      </trkpt>
      <trkpt lat="43.94659" lon="1.91142">
        <ele>294</ele>
        <time>2021-03-21T14:17:28Z</time>
      </trkpt>
      <trkpt lat="43.9466" lon="1.91144">
        <ele>294.2</ele>
        <time>2021-03-21T14:17:29Z</time>
      </trkpt>
      <trkpt lat="43.94661" lon="1.91146">
        <ele>294.4</ele>
        <time>2021-03-21T14:17:30Z</time>
      </trkpt>
      <trkpt lat="43.94662" lon="1.91148">
        <ele>294.6</ele>
        <time>2021-03-21T14:17:31Z</time>
      </trkpt>
      <trkpt lat="43.94662" lon="1.9115">
        <ele>294.6</ele>
        <time>2021-03-21T14:17:32Z</time>
      </trkpt>
      <trkpt lat="43.94663" lon="1.91152">
        <ele>294.6</ele>
        <time>2021-03-21T14:17:33Z</time>
      </trkpt>
      <trkpt lat="43.94664" lon="1.91155">
        <ele>294.8</ele>
        <time>2021-03-21T14:17:34Z</time>
      </trkpt>
      <trkpt lat="43.94665" lon="1.91157">
        <ele>294.8</ele>
        <time>2021-03-21T14:17:35Z</time>
      </trkpt>
      <trkpt lat="43.94666" lon="1.91159">
        <ele>294.8</ele>
        <time>2021-03-21T14:17:36Z</time>
      </trkpt>
      <trkpt lat="43.94667" lon="1.91162">
        <ele>295.2</ele>
        <time>2021-03-21T14:17:37Z</time>
      </trkpt>
      <trkpt lat="43.94667" lon="1.91164">
        <ele>295.4</ele>
        <time>2021-03-21T14:17:38Z</time>
      </trkpt>
      <trkpt lat="43.94668" lon="1.91166">
        <ele>295.6</ele>
        <time>2021-03-21T14:17:39Z</time>
      </trkpt>
      <trkpt lat="43.94669" lon="1.91168">
        <ele>295.8</ele>
        <time>2021-03-21T14:17:40Z</time>
      </trkpt>
      <trkpt lat="43.9467" lon="1.91171">
        <ele>295.8</ele>
        <time>2021-03-21T14:17:41Z</time>
      </trkpt>
      <trkpt lat="43.94671" lon="1.91173">
        <ele>296</ele>
        <time>2021-03-21T14:17:42Z</time>
      </trkpt>
      <trkpt lat="43.94672" lon="1.91175">
        <ele>296.2</ele>
        <time>2021-03-21T14:17:43Z</time>
      </trkpt>
      <trkpt lat="43.94673" lon="1.91177">
        <ele>296.2</ele>
        <time>2021-03-21T14:17:44Z</time>
      </trkpt>
      <trkpt lat="43.94674" lon="1.91179">
        <ele>296.6</ele>
        <time>2021-03-21T14:17:45Z</time>
      </trkpt>
      <trkpt lat="43.94675" lon="1.91181">
        <ele>296.6</ele>
        <time>2021-03-21T14:17:46Z</time>
      </trkpt>
      <trkpt lat="43.94676" lon="1.91183">
        <ele>296.8</ele>
        <time>2021-03-21T14:17:47Z</time>
      </trkpt>
      <trkpt lat="43.94677" lon="1.91185">
        <ele>297</ele>
        <time>2021-03-21T14:17:48Z</time>
      </trkpt>
      <trkpt lat="43.94678" lon="1.91187">
        <ele>297.2</ele>
        <time>2021-03-21T14:17:49Z</time>
      </trkpt>
      <trkpt lat="43.94679" lon="1.91189">
        <ele>297.4</ele>
        <time>2021-03-21T14:17:50Z</time>
      </trkpt>
      <trkpt lat="43.9468" lon="1.91192">
        <ele>297.6</ele>
        <time>2021-03-21T14:17:51Z</time>
      </trkpt>
      <trkpt lat="43.94681" lon="1.91193">
        <ele>297.8</ele>
        <time>2021-03-21T14:17:52Z</time>
      </trkpt>
      <trkpt lat="43.94682" lon="1.91195">
        <ele>297.8</ele>
        <time>2021-03-21T14:17:53Z</time>
      </trkpt>
      <trkpt lat="43.94683" lon="1.91197">
        <ele>298</ele>
        <time>2021-03-21T14:17:54Z</time>
      </trkpt>
      <trkpt lat="43.94684" lon="1.91199">
        <ele>298.2</ele>
        <time>2021-03-21T14:17:55Z</time>
      </trkpt>
      <trkpt lat="43.94685" lon="1.91201">
        <ele>298.4</ele>
        <time>2021-03-21T14:17:56Z</time>
      </trkpt>
      <trkpt lat="43.94686" lon="1.91203">
        <ele>298.6</ele>
        <time>2021-03-21T14:17:57Z</time>
      </trkpt>
      <trkpt lat="43.94687" lon="1.91205">
        <ele>298.8</ele>
        <time>2021-03-21T14:17:58Z</time>
      </trkpt>
      <trkpt lat="43.94688" lon="1.91206">
        <ele>299</ele>
        <time>2021-03-21T14:17:59Z</time>
      </trkpt>
      <trkpt lat="43.94689" lon="1.91208">
        <ele>299.2</ele>
        <time>2021-03-21T14:18:00Z</time>
      </trkpt>
      <trkpt lat="43.94691" lon="1.9121">
        <ele>299.4</ele>
        <time>2021-03-21T14:18:01Z</time>
      </trkpt>
      <trkpt lat="43.94692" lon="1.91212">
        <ele>299.6</ele>
        <time>2021-03-21T14:18:02Z</time>
      </trkpt>
      <trkpt lat="43.94693" lon="1.91214">
        <ele>299.6</ele>
        <time>2021-03-21T14:18:03Z</time>
      </trkpt>
      <trkpt lat="43.94694" lon="1.91216">
        <ele>300</ele>
        <time>2021-03-21T14:18:04Z</time>
      </trkpt>
      <trkpt lat="43.94696" lon="1.91217">
        <ele>300</ele>
        <time>2021-03-21T14:18:05Z</time>
      </trkpt>
      <trkpt lat="43.94697" lon="1.91219">
        <ele>300.2</ele>
        <time>2021-03-21T14:18:06Z</time>
      </trkpt>
      <trkpt lat="43.94698" lon="1.91221">
        <ele>300.4</ele>
        <time>2021-03-21T14:18:07Z</time>
      </trkpt>
      <trkpt lat="43.947" lon="1.91223">
        <ele>300.6</ele>
        <time>2021-03-21T14:18:08Z</time>
      </trkpt>
      <trkpt lat="43.94701" lon="1.91225">
        <ele>300.8</ele>
        <time>2021-03-21T14:18:09Z</time>
      </trkpt>
      <trkpt lat="43.94702" lon="1.91227">
        <ele>301</ele>
        <time>2021-03-21T14:18:10Z</time>
      </trkpt>
      <trkpt lat="43.94704" lon="1.91228">
        <ele>301.2</ele>
        <time>2021-03-21T14:18:11Z</time>
      </trkpt>
      <trkpt lat="43.94705" lon="1.9123">
        <ele>301.2</ele>
        <time>2021-03-21T14:18:12Z</time>
      </trkpt>
      <trkpt lat="43.94707" lon="1.91232">
        <ele>301.4</ele>
        <time>2021-03-21T14:18:13Z</time>
      </trkpt>
      <trkpt lat="43.94708" lon="1.91233">
        <ele>301.4</ele>
        <time>2021-03-21T14:18:14Z</time>
      </trkpt>
      <trkpt lat="43.94709" lon="1.91234">
        <ele>301.6</ele>
        <time>2021-03-21T14:18:15Z</time>
      </trkpt>
      <trkpt lat="43.9471" lon="1.91236">
        <ele>301.8</ele>
        <time>2021-03-21T14:18:16Z</time>
      </trkpt>
      <trkpt lat="43.94712" lon="1.91237">
        <ele>301.8</ele>
        <time>2021-03-21T14:18:17Z</time>
      </trkpt>
      <trkpt lat="43.94713" lon="1.91239">
        <ele>302</ele>
        <time>2021-03-21T14:18:18Z</time>
      </trkpt>
      <trkpt lat="43.94714" lon="1.9124">
        <ele>302.2</ele>
        <time>2021-03-21T14:18:19Z</time>
      </trkpt>
      <trkpt lat="43.94715" lon="1.91241">
        <ele>302.6</ele>
        <time>2021-03-21T14:18:20Z</time>
      </trkpt>
      <trkpt lat="43.94716" lon="1.91242">
        <ele>302.8</ele>
        <time>2021-03-21T14:18:21Z</time>
      </trkpt>
      <trkpt lat="43.94718" lon="1.91243">
        <ele>302.8</ele>
        <time>2021-03-21T14:18:22Z</time>
      </trkpt>
      <trkpt lat="43.94719" lon="1.91244">
        <ele>303</ele>
        <time>2021-03-21T14:18:23Z</time>
      </trkpt>
      <trkpt lat="43.9472" lon="1.91245">
        <ele>303</ele>
        <time>2021-03-21T14:18:24Z</time>
      </trkpt>
      <trkpt lat="43.94721" lon="1.91246">
        <ele>303.4</ele>
        <time>2021-03-21T14:18:25Z</time>
      </trkpt>
      <trkpt lat="43.94723" lon="1.91247">
        <ele>303.4</ele>
        <time>2021-03-21T14:18:26Z</time>
      </trkpt>
      <trkpt lat="43.94724" lon="1.91248">
        <ele>303.6</ele>
        <time>2021-03-21T14:18:27Z</time>
      </trkpt>
      <trkpt lat="43.94725" lon="1.91248">
        <ele>303.8</ele>
        <time>2021-03-21T14:18:28Z</time>
      </trkpt>
      <trkpt lat="43.94726" lon="1.91249">
        <ele>304</ele>
        <time>2021-03-21T14:18:29Z</time>
      </trkpt>
      <trkpt lat="43.94728" lon="1.9125">
        <ele>304</ele>
        <time>2021-03-21T14:18:30Z</time>
      </trkpt>
      <trkpt lat="43.94729" lon="1.91251">
        <ele>304.2</ele>
        <time>2021-03-21T14:18:31Z</time>
      </trkpt>
      <trkpt lat="43.9473" lon="1.91251">
        <ele>304.2</ele>
        <time>2021-03-21T14:18:32Z</time>
      </trkpt>
      <trkpt lat="43.94732" lon="1.91252">
        <ele>304.4</ele>
        <time>2021-03-21T14:18:33Z</time>
      </trkpt>
      <trkpt lat="43.94733" lon="1.91252">
        <ele>304.6</ele>
        <time>2021-03-21T14:18:34Z</time>
      </trkpt>
      <trkpt lat="43.94734" lon="1.91253">
        <ele>304.4</ele>
        <time>2021-03-21T14:18:35Z</time>
      </trkpt>
      <trkpt lat="43.94735" lon="1.91253">
        <ele>304.8</ele>
        <time>2021-03-21T14:18:36Z</time>
      </trkpt>
      <trkpt lat="43.94736" lon="1.91254">
        <ele>304.8</ele>
        <time>2021-03-21T14:18:37Z</time>
      </trkpt>
      <trkpt lat="43.94737" lon="1.91254">
        <ele>305</ele>
        <time>2021-03-21T14:18:38Z</time>
      </trkpt>
      <trkpt lat="43.94739" lon="1.91254">
        <ele>305</ele>
        <time>2021-03-21T14:18:39Z</time>
      </trkpt>
      <trkpt lat="43.9474" lon="1.91254">
        <ele>305.2</ele>
        <time>2021-03-21T14:18:40Z</time>
      </trkpt>
      <trkpt lat="43.94741" lon="1.91255">
        <ele>305.4</ele>
        <time>2021-03-21T14:18:41Z</time>
      </trkpt>
      <trkpt lat="43.94742" lon="1.91256">
        <ele>305.6</ele>
        <time>2021-03-21T14:18:42Z</time>
      </trkpt>
      <trkpt lat="43.94744" lon="1.91256">
        <ele>305.8</ele>
        <time>2021-03-21T14:18:43Z</time>
      </trkpt>
      <trkpt lat="43.94745" lon="1.91257">
        <ele>305.8</ele>
        <time>2021-03-21T14:18:44Z</time>
      </trkpt>
      <trkpt lat="43.94747" lon="1.91258">
        <ele>305.8</ele>
        <time>2021-03-21T14:18:45Z</time>
      </trkpt>
      <trkpt lat="43.94748" lon="1.91259">
        <ele>306.2</ele>
        <time>2021-03-21T14:18:46Z</time>
      </trkpt>
      <trkpt lat="43.94749" lon="1.9126">
        <ele>306.4</ele>
        <time>2021-03-21T14:18:47Z</time>
      </trkpt>
      <trkpt lat="43.9475" lon="1.91261">
        <ele>306.4</ele>
        <time>2021-03-21T14:18:48Z</time>
      </trkpt>
      <trkpt lat="43.94751" lon="1.91263">
        <ele>306.8</ele>
        <time>2021-03-21T14:18:49Z</time>
      </trkpt>
      <trkpt lat="43.94751" lon="1.91264">
        <ele>307</ele>
        <time>2021-03-21T14:18:50Z</time>
      </trkpt>
      <trkpt lat="43.94752" lon="1.91265">
        <ele>307</ele>
        <time>2021-03-21T14:18:51Z</time>
      </trkpt>
      <trkpt lat="43.94753" lon="1.91267">
        <ele>307</ele>
        <time>2021-03-21T14:18:52Z</time>
      </trkpt>
      <trkpt lat="43.94754" lon="1.91268">
        <ele>307.4</ele>
        <time>2021-03-21T14:18:53Z</time>
      </trkpt>
      <trkpt lat="43.94754" lon="1.9127">
        <ele>307.8</ele>
        <time>2021-03-21T14:18:54Z</time>
      </trkpt>
      <trkpt lat="43.94754" lon="1.91271">
        <ele>308</ele>
        <time>2021-03-21T14:18:55Z</time>
      </trkpt>
      <trkpt lat="43.94755" lon="1.91273">
        <ele>308.2</ele>
        <time>2021-03-21T14:18:56Z</time>
      </trkpt>
      <trkpt lat="43.94756" lon="1.91274">
        <ele>308.6</ele>
        <time>2021-03-21T14:18:57Z</time>
      </trkpt>
      <trkpt lat="43.94758" lon="1.91275">
        <ele>308.8</ele>
        <time>2021-03-21T14:18:58Z</time>
      </trkpt>
      <trkpt lat="43.94759" lon="1.91276">
        <ele>309.2</ele>
        <time>2021-03-21T14:18:59Z</time>
      </trkpt>
      <trkpt lat="43.9476" lon="1.91277">
        <ele>309.2</ele>
        <time>2021-03-21T14:19:00Z</time>
      </trkpt>
      <trkpt lat="43.94761" lon="1.91278">
        <ele>309.4</ele>
        <time>2021-03-21T14:19:01Z</time>
      </trkpt>
      <trkpt lat="43.94762" lon="1.91279">
        <ele>309.4</ele>
        <time>2021-03-21T14:19:02Z</time>
      </trkpt>
      <trkpt lat="43.94763" lon="1.9128">
        <ele>309.6</ele>
        <time>2021-03-21T14:19:03Z</time>
      </trkpt>
      <trkpt lat="43.94764" lon="1.9128">
        <ele>309.6</ele>
        <time>2021-03-21T14:19:04Z</time>
      </trkpt>
      <trkpt lat="43.94765" lon="1.91281">
        <ele>309.8</ele>
        <time>2021-03-21T14:19:05Z</time>
      </trkpt>
      <trkpt lat="43.94767" lon="1.91282">
        <ele>309.8</ele>
        <time>2021-03-21T14:19:06Z</time>
      </trkpt>
      <trkpt lat="43.94768" lon="1.91283">
        <ele>309.8</ele>
        <time>2021-03-21T14:19:07Z</time>
      </trkpt>
      <trkpt lat="43.94769" lon="1.91284">
        <ele>309.8</ele>
        <time>2021-03-21T14:19:08Z</time>
      </trkpt>
      <trkpt lat="43.9477" lon="1.91285">
        <ele>310</ele>
        <time>2021-03-21T14:19:09Z</time>
      </trkpt>
      <trkpt lat="43.94771" lon="1.91286">
        <ele>310</ele>
        <time>2021-03-21T14:19:10Z</time>
      </trkpt>
      <trkpt lat="43.94772" lon="1.91287">
        <ele>310.2</ele>
        <time>2021-03-21T14:19:11Z</time>
      </trkpt>
      <trkpt lat="43.94773" lon="1.91289">
        <ele>310.2</ele>
        <time>2021-03-21T14:19:12Z</time>
      </trkpt>
      <trkpt lat="43.94775" lon="1.9129">
        <ele>310.2</ele>
        <time>2021-03-21T14:19:13Z</time>
      </trkpt>
      <trkpt lat="43.94776" lon="1.91291">
        <ele>310.4</ele>
        <time>2021-03-21T14:19:14Z</time>
      </trkpt>
      <trkpt lat="43.94777" lon="1.91292">
        <ele>310.4</ele>
        <time>2021-03-21T14:19:15Z</time>
      </trkpt>
      <trkpt lat="43.94778" lon="1.91293">
        <ele>310.4</ele>
        <time>2021-03-21T14:19:16Z</time>
      </trkpt>
      <trkpt lat="43.94779" lon="1.91294">
        <ele>310.4</ele>
        <time>2021-03-21T14:19:17Z</time>
      </trkpt>
      <trkpt lat="43.9478" lon="1.91296">
        <ele>310.4</ele>
        <time>2021-03-21T14:19:18Z</time>
      </trkpt>
      <trkpt lat="43.94781" lon="1.91297">
        <ele>310.6</ele>
        <time>2021-03-21T14:19:19Z</time>
      </trkpt>
      <trkpt lat="43.94783" lon="1.91299">
        <ele>310.6</ele>
        <time>2021-03-21T14:19:20Z</time>
      </trkpt>
      <trkpt lat="43.94784" lon="1.913">
        <ele>310.8</ele>
        <time>2021-03-21T14:19:21Z</time>
      </trkpt>
      <trkpt lat="43.94785" lon="1.91301">
        <ele>310.8</ele>
        <time>2021-03-21T14:19:22Z</time>
      </trkpt>
      <trkpt lat="43.94786" lon="1.91302">
        <ele>310.8</ele>
        <time>2021-03-21T14:19:23Z</time>
      </trkpt>
      <trkpt lat="43.94787" lon="1.91303">
        <ele>311</ele>
        <time>2021-03-21T14:19:24Z</time>
      </trkpt>
      <trkpt lat="43.94788" lon="1.91304">
        <ele>311.2</ele>
        <time>2021-03-21T14:19:25Z</time>
      </trkpt>
      <trkpt lat="43.94789" lon="1.91306">
        <ele>311.4</ele>
        <time>2021-03-21T14:19:26Z</time>
      </trkpt>
      <trkpt lat="43.9479" lon="1.91307">
        <ele>311.4</ele>
        <time>2021-03-21T14:19:27Z</time>
      </trkpt>
      <trkpt lat="43.94791" lon="1.91309">
        <ele>311.6</ele>
        <time>2021-03-21T14:19:28Z</time>
      </trkpt>
      <trkpt lat="43.94792" lon="1.9131">
        <ele>311.6</ele>
        <time>2021-03-21T14:19:29Z</time>
      </trkpt>
      <trkpt lat="43.94793" lon="1.91311">
        <ele>311.8</ele>
        <time>2021-03-21T14:19:30Z</time>
      </trkpt>
      <trkpt lat="43.94794" lon="1.91312">
        <ele>311.8</ele>
        <time>2021-03-21T14:19:31Z</time>
      </trkpt>
      <trkpt lat="43.94796" lon="1.91313">
        <ele>311.8</ele>
        <time>2021-03-21T14:19:32Z</time>
      </trkpt>
      <trkpt lat="43.94797" lon="1.91315">
        <ele>312</ele>
        <time>2021-03-21T14:19:33Z</time>
      </trkpt>
      <trkpt lat="43.94798" lon="1.91316">
        <ele>312.2</ele>
        <time>2021-03-21T14:19:34Z</time>
      </trkpt>
      <trkpt lat="43.94799" lon="1.91317">
        <ele>312.4</ele>
        <time>2021-03-21T14:19:35Z</time>
      </trkpt>
      <trkpt lat="43.948" lon="1.91318">
        <ele>312.6</ele>
        <time>2021-03-21T14:19:36Z</time>
      </trkpt>
      <trkpt lat="43.94801" lon="1.91319">
        <ele>313</ele>
        <time>2021-03-21T14:19:37Z</time>
      </trkpt>
      <trkpt lat="43.94802" lon="1.9132">
        <ele>313</ele>
        <time>2021-03-21T14:19:38Z</time>
      </trkpt>
      <trkpt lat="43.94804" lon="1.91321">
        <ele>313.2</ele>
        <time>2021-03-21T14:19:39Z</time>
      </trkpt>
      <trkpt lat="43.94805" lon="1.91322">
        <ele>313.4</ele>
        <time>2021-03-21T14:19:40Z</time>
      </trkpt>
      <trkpt lat="43.94806" lon="1.91323">
        <ele>313.6</ele>
        <time>2021-03-21T14:19:41Z</time>
      </trkpt>
      <trkpt lat="43.94807" lon="1.91324">
        <ele>313.8</ele>
        <time>2021-03-21T14:19:42Z</time>
      </trkpt>
      <trkpt lat="43.94808" lon="1.91325">
        <ele>313.8</ele>
        <time>2021-03-21T14:19:43Z</time>
      </trkpt>
      <trkpt lat="43.94809" lon="1.91326">
        <ele>314.2</ele>
        <time>2021-03-21T14:19:44Z</time>
      </trkpt>
      <trkpt lat="43.9481" lon="1.91327">
        <ele>314.2</ele>
        <time>2021-03-21T14:19:45Z</time>
      </trkpt>
      <trkpt lat="43.94811" lon="1.91328">
        <ele>314.4</ele>
        <time>2021-03-21T14:19:46Z</time>
      </trkpt>
      <trkpt lat="43.94812" lon="1.91329">
        <ele>314.6</ele>
        <time>2021-03-21T14:19:47Z</time>
      </trkpt>
      <trkpt lat="43.94813" lon="1.9133">
        <ele>314.4</ele>
        <time>2021-03-21T14:19:48Z</time>
      </trkpt>
      <trkpt lat="43.94814" lon="1.91331">
        <ele>314.8</ele>
        <time>2021-03-21T14:19:49Z</time>
      </trkpt>
      <trkpt lat="43.94815" lon="1.91332">
        <ele>314.8</ele>
        <time>2021-03-21T14:19:50Z</time>
      </trkpt>
      <trkpt lat="43.94816" lon="1.91333">
        <ele>314.8</ele>
        <time>2021-03-21T14:19:51Z</time>
      </trkpt>
      <trkpt lat="43.94817" lon="1.91335">
        <ele>315</ele>
        <time>2021-03-21T14:19:52Z</time>
      </trkpt>
      <trkpt lat="43.94818" lon="1.91336">
        <ele>315.2</ele>
        <time>2021-03-21T14:19:53Z</time>
      </trkpt>
      <trkpt lat="43.94819" lon="1.91337">
        <ele>315.4</ele>
        <time>2021-03-21T14:19:54Z</time>
      </trkpt>
      <trkpt lat="43.9482" lon="1.91338">
        <ele>315.6</ele>
        <time>2021-03-21T14:19:55Z</time>
      </trkpt>
      <trkpt lat="43.94821" lon="1.91339">
        <ele>315.6</ele>
        <time>2021-03-21T14:19:56Z</time>
      </trkpt>
      <trkpt lat="43.94822" lon="1.9134">
        <ele>315.8</ele>
        <time>2021-03-21T14:19:57Z</time>
      </trkpt>
      <trkpt lat="43.94823" lon="1.91342">
        <ele>316.2</ele>
        <time>2021-03-21T14:19:58Z</time>
      </trkpt>
      <trkpt lat="43.94824" lon="1.91342">
        <ele>316.4</ele>
        <time>2021-03-21T14:19:59Z</time>
      </trkpt>
      <trkpt lat="43.94825" lon="1.91343">
        <ele>316.6</ele>
        <time>2021-03-21T14:20:00Z</time>
      </trkpt>
      <trkpt lat="43.94826" lon="1.91344">
        <ele>316.8</ele>
        <time>2021-03-21T14:20:01Z</time>
      </trkpt>
      <trkpt lat="43.94827" lon="1.91345">
        <ele>317</ele>
        <time>2021-03-21T14:20:02Z</time>
      </trkpt>
      <trkpt lat="43.94828" lon="1.91347">
        <ele>317.4</ele>
        <time>2021-03-21T14:20:03Z</time>
      </trkpt>
      <trkpt lat="43.94829" lon="1.91348">
        <ele>317.8</ele>
        <time>2021-03-21T14:20:04Z</time>
      </trkpt>
      <trkpt lat="43.9483" lon="1.91349">
        <ele>318</ele>
        <time>2021-03-21T14:20:05Z</time>
      </trkpt>
      <trkpt lat="43.94831" lon="1.9135">
        <ele>318.4</ele>
        <time>2021-03-21T14:20:06Z</time>
      </trkpt>
      <trkpt lat="43.94832" lon="1.91351">
        <ele>318.6</ele>
        <time>2021-03-21T14:20:07Z</time>
      </trkpt>
      <trkpt lat="43.94833" lon="1.91352">
        <ele>318.6</ele>
        <time>2021-03-21T14:20:08Z</time>
      </trkpt>
      <trkpt lat="43.94834" lon="1.91353">
        <ele>319</ele>
        <time>2021-03-21T14:20:09Z</time>
      </trkpt>
      <trkpt lat="43.94835" lon="1.91354">
        <ele>319.2</ele>
        <time>2021-03-21T14:20:10Z</time>
      </trkpt>
      <trkpt lat="43.94836" lon="1.91355">
        <ele>319.2</ele>
        <time>2021-03-21T14:20:11Z</time>
      </trkpt>
      <trkpt lat="43.94837" lon="1.91356">
        <ele>319.2</ele>
        <time>2021-03-21T14:20:12Z</time>
      </trkpt>
      <trkpt lat="43.94838" lon="1.91357">
        <ele>319.4</ele>
        <time>2021-03-21T14:20:13Z</time>
      </trkpt>
      <trkpt lat="43.94839" lon="1.91358">
        <ele>319.6</ele>
        <time>2021-03-21T14:20:14Z</time>
      </trkpt>
      <trkpt lat="43.9484" lon="1.9136">
        <ele>319.6</ele>
        <time>2021-03-21T14:20:15Z</time>
      </trkpt>
      <trkpt lat="43.94841" lon="1.91361">
        <ele>320</ele>
        <time>2021-03-21T14:20:16Z</time>
      </trkpt>
      <trkpt lat="43.94842" lon="1.91362">
        <ele>320.4</ele>
        <time>2021-03-21T14:20:17Z</time>
      </trkpt>
      <trkpt lat="43.94843" lon="1.91363">
        <ele>320.4</ele>
        <time>2021-03-21T14:20:18Z</time>
      </trkpt>
      <trkpt lat="43.94844" lon="1.91364">
        <ele>320.6</ele>
        <time>2021-03-21T14:20:19Z</time>
      </trkpt>
      <trkpt lat="43.94845" lon="1.91365">
        <ele>320.8</ele>
        <time>2021-03-21T14:20:20Z</time>
      </trkpt>
      <trkpt lat="43.94846" lon="1.91366">
        <ele>321</ele>
        <time>2021-03-21T14:20:21Z</time>
      </trkpt>
      <trkpt lat="43.94847" lon="1.91368">
        <ele>321</ele>
        <time>2021-03-21T14:20:22Z</time>
      </trkpt>
      <trkpt lat="43.94848" lon="1.91369">
        <ele>321.2</ele>
        <time>2021-03-21T14:20:23Z</time>
      </trkpt>
      <trkpt lat="43.94849" lon="1.9137">
        <ele>321.4</ele>
        <time>2021-03-21T14:20:24Z</time>
      </trkpt>
      <trkpt lat="43.9485" lon="1.91371">
        <ele>321.4</ele>
        <time>2021-03-21T14:20:25Z</time>
      </trkpt>
      <trkpt lat="43.9485" lon="1.91372">
        <ele>321.8</ele>
        <time>2021-03-21T14:20:26Z</time>
      </trkpt>
      <trkpt lat="43.94851" lon="1.91373">
        <ele>321.8</ele>
        <time>2021-03-21T14:20:27Z</time>
      </trkpt>
      <trkpt lat="43.94852" lon="1.91374">
        <ele>321.8</ele>
        <time>2021-03-21T14:20:28Z</time>
      </trkpt>
      <trkpt lat="43.94853" lon="1.91375">
        <ele>322</ele>
        <time>2021-03-21T14:20:29Z</time>
      </trkpt>
      <trkpt lat="43.94854" lon="1.91376">
        <ele>322.2</ele>
        <time>2021-03-21T14:20:30Z</time>
      </trkpt>
      <trkpt lat="43.94855" lon="1.91377">
        <ele>322.2</ele>
        <time>2021-03-21T14:20:31Z</time>
      </trkpt>
      <trkpt lat="43.94856" lon="1.91378">
        <ele>322.4</ele>
        <time>2021-03-21T14:20:32Z</time>
      </trkpt>
      <trkpt lat="43.94856" lon="1.91379">
        <ele>322.6</ele>
        <time>2021-03-21T14:20:33Z</time>
      </trkpt>
      <trkpt lat="43.94857" lon="1.91381">
        <ele>322.8</ele>
        <time>2021-03-21T14:20:34Z</time>
      </trkpt>
      <trkpt lat="43.94858" lon="1.91382">
        <ele>322.8</ele>
        <time>2021-03-21T14:20:35Z</time>
      </trkpt>
      <trkpt lat="43.94858" lon="1.91382">
        <ele>323</ele>
        <time>2021-03-21T14:20:36Z</time>
      </trkpt>
      <trkpt lat="43.94859" lon="1.91384">
        <ele>323.2</ele>
        <time>2021-03-21T14:20:37Z</time>
      </trkpt>
      <trkpt lat="43.9486" lon="1.91384">
        <ele>323.4</ele>
        <time>2021-03-21T14:20:38Z</time>
      </trkpt>
      <trkpt lat="43.9486" lon="1.91385">
        <ele>323.4</ele>
        <time>2021-03-21T14:20:39Z</time>
      </trkpt>
      <trkpt lat="43.94861" lon="1.91387">
        <ele>323.6</ele>
        <time>2021-03-21T14:20:40Z</time>
      </trkpt>
      <trkpt lat="43.94862" lon="1.91388">
        <ele>323.8</ele>
        <time>2021-03-21T14:20:41Z</time>
      </trkpt>
      <trkpt lat="43.94862" lon="1.91389">
        <ele>324</ele>
        <time>2021-03-21T14:20:42Z</time>
      </trkpt>
      <trkpt lat="43.94863" lon="1.9139">
        <ele>324.2</ele>
        <time>2021-03-21T14:20:43Z</time>
      </trkpt>
      <trkpt lat="43.94864" lon="1.91391">
        <ele>324.4</ele>
        <time>2021-03-21T14:20:44Z</time>
      </trkpt>
      <trkpt lat="43.94865" lon="1.91393">
        <ele>324.4</ele>
        <time>2021-03-21T14:20:45Z</time>
      </trkpt>
      <trkpt lat="43.94866" lon="1.91394">
        <ele>324.6</ele>
        <time>2021-03-21T14:20:46Z</time>
      </trkpt>
      <trkpt lat="43.94866" lon="1.91395">
        <ele>324.8</ele>
        <time>2021-03-21T14:20:47Z</time>
      </trkpt>
      <trkpt lat="43.94867" lon="1.91396">
        <ele>324.8</ele>
        <time>2021-03-21T14:20:48Z</time>
      </trkpt>
      <trkpt lat="43.94868" lon="1.91397">
        <ele>325.2</ele>
        <time>2021-03-21T14:20:49Z</time>
      </trkpt>
      <trkpt lat="43.94869" lon="1.91398">
        <ele>325.6</ele>
        <time>2021-03-21T14:20:50Z</time>
      </trkpt>
      <trkpt lat="43.9487" lon="1.91399">
        <ele>325.8</ele>
        <time>2021-03-21T14:20:51Z</time>
      </trkpt>
      <trkpt lat="43.94871" lon="1.91399">
        <ele>325.8</ele>
        <time>2021-03-21T14:20:52Z</time>
      </trkpt>
      <trkpt lat="43.94872" lon="1.914">
        <ele>326</ele>
        <time>2021-03-21T14:20:53Z</time>
      </trkpt>
      <trkpt lat="43.94873" lon="1.91401">
        <ele>326.4</ele>
        <time>2021-03-21T14:20:54Z</time>
      </trkpt>
      <trkpt lat="43.94873" lon="1.91402">
        <ele>326.6</ele>
        <time>2021-03-21T14:20:55Z</time>
      </trkpt>
      <trkpt lat="43.94874" lon="1.91403">
        <ele>326.8</ele>
        <time>2021-03-21T14:20:56Z</time>
      </trkpt>
      <trkpt lat="43.94875" lon="1.91404">
        <ele>327</ele>
        <time>2021-03-21T14:20:57Z</time>
      </trkpt>
      <trkpt lat="43.94876" lon="1.91405">
        <ele>327</ele>
        <time>2021-03-21T14:20:58Z</time>
      </trkpt>
      <trkpt lat="43.94877" lon="1.91406">
        <ele>327.4</ele>
        <time>2021-03-21T14:20:59Z</time>
      </trkpt>
      <trkpt lat="43.94877" lon="1.91407">
        <ele>327.8</ele>
        <time>2021-03-21T14:21:00Z</time>
      </trkpt>
      <trkpt lat="43.94878" lon="1.91408">
        <ele>327.8</ele>
        <time>2021-03-21T14:21:01Z</time>
      </trkpt>
      <trkpt lat="43.94879" lon="1.91409">
        <ele>328</ele>
        <time>2021-03-21T14:21:02Z</time>
      </trkpt>
      <trkpt lat="43.9488" lon="1.9141">
        <ele>328</ele>
        <time>2021-03-21T14:21:03Z</time>
      </trkpt>
      <trkpt lat="43.9488" lon="1.91412">
        <ele>328.2</ele>
        <time>2021-03-21T14:21:04Z</time>
      </trkpt>
      <trkpt lat="43.94881" lon="1.91413">
        <ele>328.6</ele>
        <time>2021-03-21T14:21:05Z</time>
      </trkpt>
      <trkpt lat="43.94881" lon="1.91414">
        <ele>328.8</ele>
        <time>2021-03-21T14:21:06Z</time>
      </trkpt>
      <trkpt lat="43.94882" lon="1.91415">
        <ele>329.2</ele>
        <time>2021-03-21T14:21:07Z</time>
      </trkpt>
      <trkpt lat="43.94883" lon="1.91416">
        <ele>329.4</ele>
        <time>2021-03-21T14:21:08Z</time>
      </trkpt>
      <trkpt lat="43.94884" lon="1.91416">
        <ele>329.6</ele>
        <time>2021-03-21T14:21:09Z</time>
      </trkpt>
      <trkpt lat="43.94884" lon="1.91417">
        <ele>329.8</ele>
        <time>2021-03-21T14:21:10Z</time>
      </trkpt>
      <trkpt lat="43.94885" lon="1.91418">
        <ele>329.8</ele>
        <time>2021-03-21T14:21:11Z</time>
      </trkpt>
      <trkpt lat="43.94886" lon="1.91419">
        <ele>330</ele>
        <time>2021-03-21T14:21:12Z</time>
      </trkpt>
      <trkpt lat="43.94887" lon="1.91419">
        <ele>329.8</ele>
        <time>2021-03-21T14:21:13Z</time>
      </trkpt>
      <trkpt lat="43.94887" lon="1.9142">
        <ele>330</ele>
        <time>2021-03-21T14:21:14Z</time>
      </trkpt>
      <trkpt lat="43.94888" lon="1.91421">
        <ele>330</ele>
        <time>2021-03-21T14:21:15Z</time>
      </trkpt>
      <trkpt lat="43.94889" lon="1.91422">
        <ele>330.2</ele>
        <time>2021-03-21T14:21:16Z</time>
      </trkpt>
      <trkpt lat="43.94889" lon="1.91423">
        <ele>330.6</ele>
        <time>2021-03-21T14:21:17Z</time>
      </trkpt>
      <trkpt lat="43.9489" lon="1.91424">
        <ele>330.8</ele>
        <time>2021-03-21T14:21:18Z</time>
      </trkpt>
      <trkpt lat="43.94891" lon="1.91424">
        <ele>331</ele>
        <time>2021-03-21T14:21:19Z</time>
      </trkpt>
      <trkpt lat="43.94891" lon="1.91425">
        <ele>331.2</ele>
        <time>2021-03-21T14:21:20Z</time>
      </trkpt>
      <trkpt lat="43.94892" lon="1.91426">
        <ele>331.4</ele>
        <time>2021-03-21T14:21:21Z</time>
      </trkpt>
      <trkpt lat="43.94893" lon="1.91426">
        <ele>331.4</ele>
        <time>2021-03-21T14:21:22Z</time>
      </trkpt>
      <trkpt lat="43.94893" lon="1.91427">
        <ele>331.6</ele>
        <time>2021-03-21T14:21:23Z</time>
      </trkpt>
      <trkpt lat="43.94894" lon="1.91428">
        <ele>331.8</ele>
        <time>2021-03-21T14:21:24Z</time>
      </trkpt>
      <trkpt lat="43.94895" lon="1.91429">
        <ele>332</ele>
        <time>2021-03-21T14:21:25Z</time>
      </trkpt>
      <trkpt lat="43.94895" lon="1.9143">
        <ele>332.2</ele>
        <time>2021-03-21T14:21:26Z</time>
      </trkpt>
      <trkpt lat="43.94896" lon="1.91431">
        <ele>332.4</ele>
        <time>2021-03-21T14:21:27Z</time>
      </trkpt>
      <trkpt lat="43.94897" lon="1.91432">
        <ele>332.6</ele>
        <time>2021-03-21T14:21:28Z</time>
      </trkpt>
      <trkpt lat="43.94897" lon="1.91433">
        <ele>332.6</ele>
        <time>2021-03-21T14:21:29Z</time>
      </trkpt>
      <trkpt lat="43.94898" lon="1.91433">
        <ele>332.6</ele>
        <time>2021-03-21T14:21:30Z</time>
      </trkpt>
      <trkpt lat="43.94899" lon="1.91434">
        <ele>332.8</ele>
        <time>2021-03-21T14:21:31Z</time>
      </trkpt>
      <trkpt lat="43.94899" lon="1.91435">
        <ele>333</ele>
        <time>2021-03-21T14:21:32Z</time>
      </trkpt>
      <trkpt lat="43.949" lon="1.91435">
        <ele>333.2</ele>
        <time>2021-03-21T14:21:33Z</time>
      </trkpt>
      <trkpt lat="43.949" lon="1.91436">
        <ele>333.2</ele>
        <time>2021-03-21T14:21:34Z</time>
      </trkpt>
      <trkpt lat="43.94901" lon="1.91436">
        <ele>333.4</ele>
        <time>2021-03-21T14:21:35Z</time>
      </trkpt>
      <trkpt lat="43.94902" lon="1.91437">
        <ele>333.6</ele>
        <time>2021-03-21T14:21:36Z</time>
      </trkpt>
      <trkpt lat="43.94902" lon="1.91438">
        <ele>333.6</ele>
        <time>2021-03-21T14:21:37Z</time>
      </trkpt>
      <trkpt lat="43.94903" lon="1.91439">
        <ele>334</ele>
        <time>2021-03-21T14:21:38Z</time>
      </trkpt>
      <trkpt lat="43.94904" lon="1.9144">
        <ele>334.2</ele>
        <time>2021-03-21T14:21:39Z</time>
      </trkpt>
      <trkpt lat="43.94905" lon="1.91441">
        <ele>334.2</ele>
        <time>2021-03-21T14:21:40Z</time>
      </trkpt>
      <trkpt lat="43.94905" lon="1.91442">
        <ele>334.2</ele>
        <time>2021-03-21T14:21:41Z</time>
      </trkpt>
      <trkpt lat="43.94906" lon="1.91444">
        <ele>334.6</ele>
        <time>2021-03-21T14:21:42Z</time>
      </trkpt>
      <trkpt lat="43.94906" lon="1.91445">
        <ele>334.6</ele>
        <time>2021-03-21T14:21:43Z</time>
      </trkpt>
      <trkpt lat="43.94907" lon="1.91446">
        <ele>334.8</ele>
        <time>2021-03-21T14:21:44Z</time>
      </trkpt>
      <trkpt lat="43.94907" lon="1.91447">
        <ele>334.8</ele>
        <time>2021-03-21T14:21:45Z</time>
      </trkpt>
      <trkpt lat="43.94908" lon="1.91448">
        <ele>335.2</ele>
        <time>2021-03-21T14:21:46Z</time>
      </trkpt>
      <trkpt lat="43.94909" lon="1.91449">
        <ele>335.4</ele>
        <time>2021-03-21T14:21:47Z</time>
      </trkpt>
      <trkpt lat="43.94909" lon="1.9145">
        <ele>335.6</ele>
        <time>2021-03-21T14:21:48Z</time>
      </trkpt>
      <trkpt lat="43.9491" lon="1.91451">
        <ele>335.6</ele>
        <time>2021-03-21T14:21:49Z</time>
      </trkpt>
      <trkpt lat="43.94911" lon="1.91452">
        <ele>335.6</ele>
        <time>2021-03-21T14:21:50Z</time>
      </trkpt>
      <trkpt lat="43.94912" lon="1.91453">
        <ele>336</ele>
        <time>2021-03-21T14:21:51Z</time>
      </trkpt>
      <trkpt lat="43.94912" lon="1.91454">
        <ele>336.4</ele>
        <time>2021-03-21T14:21:52Z</time>
      </trkpt>
      <trkpt lat="43.94913" lon="1.91455">
        <ele>336.8</ele>
        <time>2021-03-21T14:21:53Z</time>
      </trkpt>
      <trkpt lat="43.94914" lon="1.91456">
        <ele>337</ele>
        <time>2021-03-21T14:21:54Z</time>
      </trkpt>
      <trkpt lat="43.94915" lon="1.91458">
        <ele>337.6</ele>
        <time>2021-03-21T14:21:55Z</time>
      </trkpt>
      <trkpt lat="43.94916" lon="1.91459">
        <ele>337.8</ele>
        <time>2021-03-21T14:21:56Z</time>
      </trkpt>
      <trkpt lat="43.94916" lon="1.9146">
        <ele>338.2</ele>
        <time>2021-03-21T14:21:57Z</time>
      </trkpt>
      <trkpt lat="43.94917" lon="1.91461">
        <ele>338.4</ele>
        <time>2021-03-21T14:21:58Z</time>
      </trkpt>
      <trkpt lat="43.94918" lon="1.91462">
        <ele>338.4</ele>
        <time>2021-03-21T14:21:59Z</time>
      </trkpt>
      <trkpt lat="43.94919" lon="1.91463">
        <ele>339</ele>
        <time>2021-03-21T14:22:00Z</time>
      </trkpt>
      <trkpt lat="43.94919" lon="1.91465">
        <ele>339.2</ele>
        <time>2021-03-21T14:22:01Z</time>
      </trkpt>
      <trkpt lat="43.9492" lon="1.91466">
        <ele>339.6</ele>
        <time>2021-03-21T14:22:02Z</time>
      </trkpt>
      <trkpt lat="43.94921" lon="1.91467">
        <ele>339.8</ele>
        <time>2021-03-21T14:22:03Z</time>
      </trkpt>
      <trkpt lat="43.94922" lon="1.91468">
        <ele>339.8</ele>
        <time>2021-03-21T14:22:04Z</time>
      </trkpt>
      <trkpt lat="43.94923" lon="1.91469">
        <ele>340</ele>
        <time>2021-03-21T14:22:05Z</time>
      </trkpt>
      <trkpt lat="43.94924" lon="1.91471">
        <ele>340.2</ele>
        <time>2021-03-21T14:22:06Z</time>
      </trkpt>
      <trkpt lat="43.94925" lon="1.91472">
        <ele>340.2</ele>
        <time>2021-03-21T14:22:07Z</time>
      </trkpt>
      <trkpt lat="43.94926" lon="1.91474">
        <ele>340.2</ele>
        <time>2021-03-21T14:22:08Z</time>
      </trkpt>
      <trkpt lat="43.94926" lon="1.91475">
        <ele>340.6</ele>
        <time>2021-03-21T14:22:09Z</time>
      </trkpt>
      <trkpt lat="43.94928" lon="1.91477">
        <ele>340.6</ele>
        <time>2021-03-21T14:22:10Z</time>
      </trkpt>
      <trkpt lat="43.94928" lon="1.91479">
        <ele>340.6</ele>
        <time>2021-03-21T14:22:11Z</time>
      </trkpt>
      <trkpt lat="43.94929" lon="1.9148">
        <ele>340.6</ele>
        <time>2021-03-21T14:22:12Z</time>
      </trkpt>
      <trkpt lat="43.9493" lon="1.91482">
        <ele>341</ele>
        <time>2021-03-21T14:22:13Z</time>
      </trkpt>
      <trkpt lat="43.94931" lon="1.91483">
        <ele>341.2</ele>
        <time>2021-03-21T14:22:14Z</time>
      </trkpt>
      <trkpt lat="43.94932" lon="1.91485">
        <ele>341.2</ele>
        <time>2021-03-21T14:22:15Z</time>
      </trkpt>
      <trkpt lat="43.94933" lon="1.91487">
        <ele>341.4</ele>
        <time>2021-03-21T14:22:16Z</time>
      </trkpt>
      <trkpt lat="43.94935" lon="1.91489">
        <ele>341.4</ele>
        <time>2021-03-21T14:22:17Z</time>
      </trkpt>
      <trkpt lat="43.94936" lon="1.91491">
        <ele>341.6</ele>
        <time>2021-03-21T14:22:18Z</time>
      </trkpt>
      <trkpt lat="43.94937" lon="1.91493">
        <ele>341.6</ele>
        <time>2021-03-21T14:22:19Z</time>
      </trkpt>
      <trkpt lat="43.94937" lon="1.91495">
        <ele>341.6</ele>
        <time>2021-03-21T14:22:20Z</time>
      </trkpt>
      <trkpt lat="43.94938" lon="1.91497">
        <ele>341.8</ele>
        <time>2021-03-21T14:22:21Z</time>
      </trkpt>
      <trkpt lat="43.94939" lon="1.91499">
        <ele>341.8</ele>
        <time>2021-03-21T14:22:22Z</time>
      </trkpt>
      <trkpt lat="43.94939" lon="1.91501">
        <ele>341.8</ele>
        <time>2021-03-21T14:22:23Z</time>
      </trkpt>
      <trkpt lat="43.9494" lon="1.91503">
        <ele>342</ele>
        <time>2021-03-21T14:22:24Z</time>
      </trkpt>
      <trkpt lat="43.9494" lon="1.91505">
        <ele>342</ele>
        <time>2021-03-21T14:22:25Z</time>
      </trkpt>
      <trkpt lat="43.94941" lon="1.91507">
        <ele>342.2</ele>
        <time>2021-03-21T14:22:26Z</time>
      </trkpt>
      <trkpt lat="43.94942" lon="1.91509">
        <ele>342.4</ele>
        <time>2021-03-21T14:22:27Z</time>
      </trkpt>
      <trkpt lat="43.94942" lon="1.9151">
        <ele>342.4</ele>
        <time>2021-03-21T14:22:28Z</time>
      </trkpt>
      <trkpt lat="43.94943" lon="1.91513">
        <ele>342.4</ele>
        <time>2021-03-21T14:22:29Z</time>
      </trkpt>
      <trkpt lat="43.94943" lon="1.91515">
        <ele>342.4</ele>
        <time>2021-03-21T14:22:30Z</time>
      </trkpt>
      <trkpt lat="43.94943" lon="1.91518">
        <ele>342.6</ele>
        <time>2021-03-21T14:22:31Z</time>
      </trkpt>
      <trkpt lat="43.94944" lon="1.9152">
        <ele>343</ele>
        <time>2021-03-21T14:22:32Z</time>
      </trkpt>
      <trkpt lat="43.94944" lon="1.91523">
        <ele>343</ele>
        <time>2021-03-21T14:22:33Z</time>
      </trkpt>
      <trkpt lat="43.94944" lon="1.91528">
        <ele>343.2</ele>
        <time>2021-03-21T14:22:35Z</time>
      </trkpt>
      <trkpt lat="43.94944" lon="1.91531">
        <ele>343.4</ele>
        <time>2021-03-21T14:22:36Z</time>
      </trkpt>
      <trkpt lat="43.94945" lon="1.91534">
        <ele>343.4</ele>
        <time>2021-03-21T14:22:37Z</time>
      </trkpt>
      <trkpt lat="43.94945" lon="1.91536">
        <ele>343.6</ele>
        <time>2021-03-21T14:22:38Z</time>
      </trkpt>
      <trkpt lat="43.94946" lon="1.91539">
        <ele>343.6</ele>
        <time>2021-03-21T14:22:39Z</time>
      </trkpt>
      <trkpt lat="43.94947" lon="1.91542">
        <ele>343.4</ele>
        <time>2021-03-21T14:22:40Z</time>
      </trkpt>
      <trkpt lat="43.94948" lon="1.91544">
        <ele>343.6</ele>
        <time>2021-03-21T14:22:41Z</time>
      </trkpt>
      <trkpt lat="43.94949" lon="1.91546">
        <ele>343.6</ele>
        <time>2021-03-21T14:22:42Z</time>
      </trkpt>
      <trkpt lat="43.9495" lon="1.91548">
        <ele>343.8</ele>
        <time>2021-03-21T14:22:43Z</time>
      </trkpt>
      <trkpt lat="43.94952" lon="1.91552">
        <ele>343.8</ele>
        <time>2021-03-21T14:22:45Z</time>
      </trkpt>
      <trkpt lat="43.94954" lon="1.91554">
        <ele>344</ele>
        <time>2021-03-21T14:22:46Z</time>
      </trkpt>
      <trkpt lat="43.94955" lon="1.91556">
        <ele>344.2</ele>
        <time>2021-03-21T14:22:47Z</time>
      </trkpt>
      <trkpt lat="43.94957" lon="1.91557">
        <ele>344.4</ele>
        <time>2021-03-21T14:22:48Z</time>
      </trkpt>
      <trkpt lat="43.94958" lon="1.91559">
        <ele>344.4</ele>
        <time>2021-03-21T14:22:49Z</time>
      </trkpt>
      <trkpt lat="43.94959" lon="1.9156">
        <ele>344.6</ele>
        <time>2021-03-21T14:22:50Z</time>
      </trkpt>
      <trkpt lat="43.9496" lon="1.91562">
        <ele>345</ele>
        <time>2021-03-21T14:22:51Z</time>
      </trkpt>
      <trkpt lat="43.94962" lon="1.91563">
        <ele>345</ele>
        <time>2021-03-21T14:22:52Z</time>
      </trkpt>
      <trkpt lat="43.94963" lon="1.91564">
        <ele>345</ele>
        <time>2021-03-21T14:22:53Z</time>
      </trkpt>
      <trkpt lat="43.94964" lon="1.91566">
        <ele>345.4</ele>
        <time>2021-03-21T14:22:54Z</time>
      </trkpt>
      <trkpt lat="43.94965" lon="1.91567">
        <ele>345.4</ele>
        <time>2021-03-21T14:22:55Z</time>
      </trkpt>
      <trkpt lat="43.94967" lon="1.91568">
        <ele>345.4</ele>
        <time>2021-03-21T14:22:56Z</time>
      </trkpt>
      <trkpt lat="43.94968" lon="1.91569">
        <ele>345.8</ele>
        <time>2021-03-21T14:22:57Z</time>
      </trkpt>
      <trkpt lat="43.94969" lon="1.91569">
        <ele>346</ele>
        <time>2021-03-21T14:22:58Z</time>
      </trkpt>
      <trkpt lat="43.94971" lon="1.9157">
        <ele>346</ele>
        <time>2021-03-21T14:22:59Z</time>
      </trkpt>
      <trkpt lat="43.94972" lon="1.91571">
        <ele>346.2</ele>
        <time>2021-03-21T14:23:00Z</time>
      </trkpt>
      <trkpt lat="43.94974" lon="1.91572">
        <ele>346.4</ele>
        <time>2021-03-21T14:23:01Z</time>
      </trkpt>
      <trkpt lat="43.94975" lon="1.91573">
        <ele>346.6</ele>
        <time>2021-03-21T14:23:02Z</time>
      </trkpt>
      <trkpt lat="43.94977" lon="1.91574">
        <ele>346.8</ele>
        <time>2021-03-21T14:23:03Z</time>
      </trkpt>
      <trkpt lat="43.94978" lon="1.91574">
        <ele>347</ele>
        <time>2021-03-21T14:23:04Z</time>
      </trkpt>
      <trkpt lat="43.94979" lon="1.91575">
        <ele>347.2</ele>
        <time>2021-03-21T14:23:05Z</time>
      </trkpt>
      <trkpt lat="43.94981" lon="1.91576">
        <ele>347.4</ele>
        <time>2021-03-21T14:23:06Z</time>
      </trkpt>
      <trkpt lat="43.94982" lon="1.91577">
        <ele>347.6</ele>
        <time>2021-03-21T14:23:07Z</time>
      </trkpt>
      <trkpt lat="43.94983" lon="1.91578">
        <ele>347.8</ele>
        <time>2021-03-21T14:23:08Z</time>
      </trkpt>
      <trkpt lat="43.94985" lon="1.91579">
        <ele>347.8</ele>
        <time>2021-03-21T14:23:09Z</time>
      </trkpt>
      <trkpt lat="43.94987" lon="1.9158">
        <ele>348</ele>
        <time>2021-03-21T14:23:10Z</time>
      </trkpt>
      <trkpt lat="43.94988" lon="1.91581">
        <ele>348</ele>
        <time>2021-03-21T14:23:11Z</time>
      </trkpt>
      <trkpt lat="43.94989" lon="1.91582">
        <ele>348.2</ele>
        <time>2021-03-21T14:23:12Z</time>
      </trkpt>
      <trkpt lat="43.94991" lon="1.91583">
        <ele>348.2</ele>
        <time>2021-03-21T14:23:13Z</time>
      </trkpt>
      <trkpt lat="43.94993" lon="1.91583">
        <ele>348.4</ele>
        <time>2021-03-21T14:23:14Z</time>
      </trkpt>
      <trkpt lat="43.94994" lon="1.91584">
        <ele>348.6</ele>
        <time>2021-03-21T14:23:15Z</time>
      </trkpt>
      <trkpt lat="43.94996" lon="1.91585">
        <ele>348.6</ele>
        <time>2021-03-21T14:23:16Z</time>
      </trkpt>
      <trkpt lat="43.94997" lon="1.91586">
        <ele>348.8</ele>
        <time>2021-03-21T14:23:17Z</time>
      </trkpt>
      <trkpt lat="43.94999" lon="1.91588">
        <ele>349.2</ele>
        <time>2021-03-21T14:23:18Z</time>
      </trkpt>
      <trkpt lat="43.95" lon="1.91589">
        <ele>349.2</ele>
        <time>2021-03-21T14:23:19Z</time>
      </trkpt>
      <trkpt lat="43.95002" lon="1.91589">
        <ele>349.6</ele>
        <time>2021-03-21T14:23:20Z</time>
      </trkpt>
      <trkpt lat="43.95003" lon="1.9159">
        <ele>349.8</ele>
        <time>2021-03-21T14:23:21Z</time>
      </trkpt>
      <trkpt lat="43.95005" lon="1.91592">
        <ele>349.6</ele>
        <time>2021-03-21T14:23:22Z</time>
      </trkpt>
      <trkpt lat="43.95007" lon="1.91593">
        <ele>349.8</ele>
        <time>2021-03-21T14:23:23Z</time>
      </trkpt>
      <trkpt lat="43.95009" lon="1.91594">
        <ele>349.8</ele>
        <time>2021-03-21T14:23:24Z</time>
      </trkpt>
      <trkpt lat="43.9501" lon="1.91595">
        <ele>350</ele>
        <time>2021-03-21T14:23:25Z</time>
      </trkpt>
      <trkpt lat="43.95012" lon="1.91596">
        <ele>350.2</ele>
        <time>2021-03-21T14:23:26Z</time>
      </trkpt>
      <trkpt lat="43.95014" lon="1.91597">
        <ele>350.2</ele>
        <time>2021-03-21T14:23:27Z</time>
      </trkpt>
      <trkpt lat="43.95015" lon="1.91598">
        <ele>350.2</ele>
        <time>2021-03-21T14:23:28Z</time>
      </trkpt>
      <trkpt lat="43.95017" lon="1.91599">
        <ele>350.2</ele>
        <time>2021-03-21T14:23:29Z</time>
      </trkpt>
      <trkpt lat="43.95019" lon="1.916">
        <ele>350.4</ele>
        <time>2021-03-21T14:23:30Z</time>
      </trkpt>
      <trkpt lat="43.95021" lon="1.91601">
        <ele>350.6</ele>
        <time>2021-03-21T14:23:31Z</time>
      </trkpt>
      <trkpt lat="43.95023" lon="1.91603">
        <ele>350.6</ele>
        <time>2021-03-21T14:23:32Z</time>
      </trkpt>
      <trkpt lat="43.95025" lon="1.91604">
        <ele>350.8</ele>
        <time>2021-03-21T14:23:33Z</time>
      </trkpt>
      <trkpt lat="43.95027" lon="1.91605">
        <ele>350.8</ele>
        <time>2021-03-21T14:23:34Z</time>
      </trkpt>
      <trkpt lat="43.95029" lon="1.91606">
        <ele>351</ele>
        <time>2021-03-21T14:23:35Z</time>
      </trkpt>
      <trkpt lat="43.95031" lon="1.91607">
        <ele>351.2</ele>
        <time>2021-03-21T14:23:36Z</time>
      </trkpt>
      <trkpt lat="43.95033" lon="1.91608">
        <ele>351.2</ele>
        <time>2021-03-21T14:23:37Z</time>
      </trkpt>
      <trkpt lat="43.95035" lon="1.9161">
        <ele>351.2</ele>
        <time>2021-03-21T14:23:38Z</time>
      </trkpt>
      <trkpt lat="43.95037" lon="1.91612">
        <ele>351.2</ele>
        <time>2021-03-21T14:23:39Z</time>
      </trkpt>
      <trkpt lat="43.95039" lon="1.91614">
        <ele>351.2</ele>
        <time>2021-03-21T14:23:40Z</time>
      </trkpt>
      <trkpt lat="43.95041" lon="1.91616">
        <ele>351.2</ele>
        <time>2021-03-21T14:23:41Z</time>
      </trkpt>
      <trkpt lat="43.95043" lon="1.91618">
        <ele>351.2</ele>
        <time>2021-03-21T14:23:42Z</time>
      </trkpt>
      <trkpt lat="43.95046" lon="1.9162">
        <ele>351.4</ele>
        <time>2021-03-21T14:23:43Z</time>
      </trkpt>
      <trkpt lat="43.95048" lon="1.91622">
        <ele>351.2</ele>
        <time>2021-03-21T14:23:44Z</time>
      </trkpt>
      <trkpt lat="43.95051" lon="1.91624">
        <ele>351.2</ele>
        <time>2021-03-21T14:23:45Z</time>
      </trkpt>
      <trkpt lat="43.95053" lon="1.91626">
        <ele>351.2</ele>
        <time>2021-03-21T14:23:46Z</time>
      </trkpt>
      <trkpt lat="43.95055" lon="1.91629">
        <ele>351.2</ele>
        <time>2021-03-21T14:23:47Z</time>
      </trkpt>
      <trkpt lat="43.95058" lon="1.91631">
        <ele>351.2</ele>
        <time>2021-03-21T14:23:48Z</time>
      </trkpt>
      <trkpt lat="43.9506" lon="1.91634">
        <ele>351.2</ele>
        <time>2021-03-21T14:23:49Z</time>
      </trkpt>
      <trkpt lat="43.95062" lon="1.91636">
        <ele>351.2</ele>
        <time>2021-03-21T14:23:50Z</time>
      </trkpt>
      <trkpt lat="43.95064" lon="1.91638">
        <ele>351</ele>
        <time>2021-03-21T14:23:51Z</time>
      </trkpt>
      <trkpt lat="43.95066" lon="1.91641">
        <ele>351</ele>
        <time>2021-03-21T14:23:52Z</time>
      </trkpt>
      <trkpt lat="43.95068" lon="1.91643">
        <ele>351.2</ele>
        <time>2021-03-21T14:23:53Z</time>
      </trkpt>
      <trkpt lat="43.9507" lon="1.91645">
        <ele>351.2</ele>
        <time>2021-03-21T14:23:54Z</time>
      </trkpt>
      <trkpt lat="43.95072" lon="1.91647">
        <ele>351.2</ele>
        <time>2021-03-21T14:23:55Z</time>
      </trkpt>
      <trkpt lat="43.95074" lon="1.91649">
        <ele>351.2</ele>
        <time>2021-03-21T14:23:56Z</time>
      </trkpt>
      <trkpt lat="43.95077" lon="1.9165">
        <ele>351.2</ele>
        <time>2021-03-21T14:23:57Z</time>
      </trkpt>
      <trkpt lat="43.95079" lon="1.91652">
        <ele>351.2</ele>
        <time>2021-03-21T14:23:58Z</time>
      </trkpt>
      <trkpt lat="43.95081" lon="1.91654">
        <ele>351.4</ele>
        <time>2021-03-21T14:23:59Z</time>
      </trkpt>
      <trkpt lat="43.95083" lon="1.91655">
        <ele>351.4</ele>
        <time>2021-03-21T14:24:00Z</time>
      </trkpt>
      <trkpt lat="43.95085" lon="1.91657">
        <ele>351.6</ele>
        <time>2021-03-21T14:24:01Z</time>
      </trkpt>
      <trkpt lat="43.95087" lon="1.91659">
        <ele>351.6</ele>
        <time>2021-03-21T14:24:02Z</time>
      </trkpt>
      <trkpt lat="43.95089" lon="1.9166">
        <ele>351.6</ele>
        <time>2021-03-21T14:24:03Z</time>
      </trkpt>
      <trkpt lat="43.95091" lon="1.91661">
        <ele>351.6</ele>
        <time>2021-03-21T14:24:04Z</time>
      </trkpt>
      <trkpt lat="43.95093" lon="1.91663">
        <ele>352</ele>
        <time>2021-03-21T14:24:05Z</time>
      </trkpt>
      <trkpt lat="43.95095" lon="1.91664">
        <ele>351.8</ele>
        <time>2021-03-21T14:24:06Z</time>
      </trkpt>
      <trkpt lat="43.95097" lon="1.91665">
        <ele>352</ele>
        <time>2021-03-21T14:24:07Z</time>
      </trkpt>
      <trkpt lat="43.95099" lon="1.91666">
        <ele>351.8</ele>
        <time>2021-03-21T14:24:08Z</time>
      </trkpt>
      <trkpt lat="43.951" lon="1.91667">
        <ele>352</ele>
        <time>2021-03-21T14:24:09Z</time>
      </trkpt>
      <trkpt lat="43.95102" lon="1.91668">
        <ele>352</ele>
        <time>2021-03-21T14:24:10Z</time>
      </trkpt>
      <trkpt lat="43.95104" lon="1.91669">
        <ele>352.2</ele>
        <time>2021-03-21T14:24:11Z</time>
      </trkpt>
      <trkpt lat="43.95105" lon="1.9167">
        <ele>352.4</ele>
        <time>2021-03-21T14:24:12Z</time>
      </trkpt>
      <trkpt lat="43.95107" lon="1.91671">
        <ele>352.4</ele>
        <time>2021-03-21T14:24:13Z</time>
      </trkpt>
      <trkpt lat="43.95108" lon="1.91672">
        <ele>352.8</ele>
        <time>2021-03-21T14:24:14Z</time>
      </trkpt>
      <trkpt lat="43.9511" lon="1.91673">
        <ele>353</ele>
        <time>2021-03-21T14:24:15Z</time>
      </trkpt>
      <trkpt lat="43.95112" lon="1.91674">
        <ele>353.2</ele>
        <time>2021-03-21T14:24:16Z</time>
      </trkpt>
      <trkpt lat="43.95113" lon="1.91675">
        <ele>353.4</ele>
        <time>2021-03-21T14:24:17Z</time>
      </trkpt>
      <trkpt lat="43.95115" lon="1.91676">
        <ele>353.8</ele>
        <time>2021-03-21T14:24:18Z</time>
      </trkpt>
      <trkpt lat="43.95116" lon="1.91677">
        <ele>354.2</ele>
        <time>2021-03-21T14:24:19Z</time>
      </trkpt>
      <trkpt lat="43.95118" lon="1.91678">
        <ele>354.4</ele>
        <time>2021-03-21T14:24:20Z</time>
      </trkpt>
      <trkpt lat="43.95119" lon="1.91678">
        <ele>354.6</ele>
        <time>2021-03-21T14:24:21Z</time>
      </trkpt>
      <trkpt lat="43.95121" lon="1.91679">
        <ele>354.6</ele>
        <time>2021-03-21T14:24:22Z</time>
      </trkpt>
      <trkpt lat="43.95122" lon="1.9168">
        <ele>354.8</ele>
        <time>2021-03-21T14:24:23Z</time>
      </trkpt>
      <trkpt lat="43.95124" lon="1.91681">
        <ele>355</ele>
        <time>2021-03-21T14:24:24Z</time>
      </trkpt>
      <trkpt lat="43.95125" lon="1.91682">
        <ele>355.2</ele>
        <time>2021-03-21T14:24:25Z</time>
      </trkpt>
      <trkpt lat="43.95127" lon="1.91683">
        <ele>355.4</ele>
        <time>2021-03-21T14:24:26Z</time>
      </trkpt>
      <trkpt lat="43.95128" lon="1.91684">
        <ele>355.6</ele>
        <time>2021-03-21T14:24:27Z</time>
      </trkpt>
      <trkpt lat="43.9513" lon="1.91685">
        <ele>356</ele>
        <time>2021-03-21T14:24:28Z</time>
      </trkpt>
      <trkpt lat="43.95131" lon="1.91685">
        <ele>356</ele>
        <time>2021-03-21T14:24:29Z</time>
      </trkpt>
      <trkpt lat="43.95133" lon="1.91686">
        <ele>356.2</ele>
        <time>2021-03-21T14:24:30Z</time>
      </trkpt>
      <trkpt lat="43.95134" lon="1.91688">
        <ele>356.2</ele>
        <time>2021-03-21T14:24:31Z</time>
      </trkpt>
      <trkpt lat="43.95135" lon="1.91689">
        <ele>356.6</ele>
        <time>2021-03-21T14:24:32Z</time>
      </trkpt>
      <trkpt lat="43.95137" lon="1.9169">
        <ele>356.6</ele>
        <time>2021-03-21T14:24:33Z</time>
      </trkpt>
      <trkpt lat="43.95138" lon="1.9169">
        <ele>356.6</ele>
        <time>2021-03-21T14:24:34Z</time>
      </trkpt>
      <trkpt lat="43.95139" lon="1.91691">
        <ele>357.2</ele>
        <time>2021-03-21T14:24:35Z</time>
      </trkpt>
      <trkpt lat="43.95141" lon="1.91692">
        <ele>357.2</ele>
        <time>2021-03-21T14:24:36Z</time>
      </trkpt>
      <trkpt lat="43.95142" lon="1.91693">
        <ele>357.6</ele>
        <time>2021-03-21T14:24:37Z</time>
      </trkpt>
      <trkpt lat="43.95143" lon="1.91694">
        <ele>357.8</ele>
        <time>2021-03-21T14:24:38Z</time>
      </trkpt>
      <trkpt lat="43.95145" lon="1.91695">
        <ele>357.8</ele>
        <time>2021-03-21T14:24:39Z</time>
      </trkpt>
      <trkpt lat="43.95146" lon="1.91696">
        <ele>358</ele>
        <time>2021-03-21T14:24:40Z</time>
      </trkpt>
      <trkpt lat="43.95148" lon="1.91697">
        <ele>358.2</ele>
        <time>2021-03-21T14:24:41Z</time>
      </trkpt>
      <trkpt lat="43.95149" lon="1.91698">
        <ele>358.6</ele>
        <time>2021-03-21T14:24:42Z</time>
      </trkpt>
      <trkpt lat="43.9515" lon="1.91699">
        <ele>358.8</ele>
        <time>2021-03-21T14:24:43Z</time>
      </trkpt>
      <trkpt lat="43.95151" lon="1.91699">
        <ele>359.2</ele>
        <time>2021-03-21T14:24:44Z</time>
      </trkpt>
      <trkpt lat="43.95152" lon="1.917">
        <ele>359.4</ele>
        <time>2021-03-21T14:24:45Z</time>
      </trkpt>
      <trkpt lat="43.95154" lon="1.91701">
        <ele>359.8</ele>
        <time>2021-03-21T14:24:46Z</time>
      </trkpt>
      <trkpt lat="43.95155" lon="1.91702">
        <ele>360</ele>
        <time>2021-03-21T14:24:47Z</time>
      </trkpt>
      <trkpt lat="43.95156" lon="1.91703">
        <ele>360.4</ele>
        <time>2021-03-21T14:24:48Z</time>
      </trkpt>
      <trkpt lat="43.95158" lon="1.91704">
        <ele>360.4</ele>
        <time>2021-03-21T14:24:49Z</time>
      </trkpt>
      <trkpt lat="43.95159" lon="1.91705">
        <ele>360.6</ele>
        <time>2021-03-21T14:24:50Z</time>
      </trkpt>
      <trkpt lat="43.9516" lon="1.91705">
        <ele>361</ele>
        <time>2021-03-21T14:24:51Z</time>
      </trkpt>
      <trkpt lat="43.95161" lon="1.91706">
        <ele>361</ele>
        <time>2021-03-21T14:24:52Z</time>
      </trkpt>
      <trkpt lat="43.95162" lon="1.91707">
        <ele>361.2</ele>
        <time>2021-03-21T14:24:53Z</time>
      </trkpt>
      <trkpt lat="43.95163" lon="1.91708">
        <ele>361.2</ele>
        <time>2021-03-21T14:24:54Z</time>
      </trkpt>
      <trkpt lat="43.95165" lon="1.91709">
        <ele>361.4</ele>
        <time>2021-03-21T14:24:55Z</time>
      </trkpt>
      <trkpt lat="43.95166" lon="1.9171">
        <ele>361.8</ele>
        <time>2021-03-21T14:24:56Z</time>
      </trkpt>
      <trkpt lat="43.95167" lon="1.9171">
        <ele>362.2</ele>
        <time>2021-03-21T14:24:57Z</time>
      </trkpt>
      <trkpt lat="43.95168" lon="1.91711">
        <ele>362.4</ele>
        <time>2021-03-21T14:24:58Z</time>
      </trkpt>
      <trkpt lat="43.9517" lon="1.91712">
        <ele>362.8</ele>
        <time>2021-03-21T14:24:59Z</time>
      </trkpt>
      <trkpt lat="43.95171" lon="1.91713">
        <ele>362.8</ele>
        <time>2021-03-21T14:25:00Z</time>
      </trkpt>
      <trkpt lat="43.95172" lon="1.91714">
        <ele>363.2</ele>
        <time>2021-03-21T14:25:01Z</time>
      </trkpt>
      <trkpt lat="43.95173" lon="1.91715">
        <ele>363.4</ele>
        <time>2021-03-21T14:25:02Z</time>
      </trkpt>
      <trkpt lat="43.95174" lon="1.91715">
        <ele>363.6</ele>
        <time>2021-03-21T14:25:03Z</time>
      </trkpt>
      <trkpt lat="43.95176" lon="1.91716">
        <ele>363.8</ele>
        <time>2021-03-21T14:25:04Z</time>
      </trkpt>
      <trkpt lat="43.95177" lon="1.91717">
        <ele>363.8</ele>
        <time>2021-03-21T14:25:05Z</time>
      </trkpt>
      <trkpt lat="43.95178" lon="1.91718">
        <ele>364.2</ele>
        <time>2021-03-21T14:25:06Z</time>
      </trkpt>
      <trkpt lat="43.95179" lon="1.91719">
        <ele>364.4</ele>
        <time>2021-03-21T14:25:07Z</time>
      </trkpt>
      <trkpt lat="43.9518" lon="1.9172">
        <ele>364.6</ele>
        <time>2021-03-21T14:25:08Z</time>
      </trkpt>
      <trkpt lat="43.95182" lon="1.91721">
        <ele>364.6</ele>
        <time>2021-03-21T14:25:09Z</time>
      </trkpt>
      <trkpt lat="43.95183" lon="1.91722">
        <ele>364.6</ele>
        <time>2021-03-21T14:25:10Z</time>
      </trkpt>
      <trkpt lat="43.95184" lon="1.91723">
        <ele>365</ele>
        <time>2021-03-21T14:25:11Z</time>
      </trkpt>
      <trkpt lat="43.95185" lon="1.91724">
        <ele>365</ele>
        <time>2021-03-21T14:25:12Z</time>
      </trkpt>
      <trkpt lat="43.95186" lon="1.91725">
        <ele>365</ele>
        <time>2021-03-21T14:25:13Z</time>
      </trkpt>
      <trkpt lat="43.95187" lon="1.91725">
        <ele>365.2</ele>
        <time>2021-03-21T14:25:14Z</time>
      </trkpt>
      <trkpt lat="43.95189" lon="1.91726">
        <ele>365.4</ele>
        <time>2021-03-21T14:25:15Z</time>
      </trkpt>
      <trkpt lat="43.9519" lon="1.91727">
        <ele>365.6</ele>
        <time>2021-03-21T14:25:16Z</time>
      </trkpt>
      <trkpt lat="43.95191" lon="1.91728">
        <ele>366</ele>
        <time>2021-03-21T14:25:17Z</time>
      </trkpt>
      <trkpt lat="43.95192" lon="1.91729">
        <ele>366</ele>
        <time>2021-03-21T14:25:18Z</time>
      </trkpt>
      <trkpt lat="43.95193" lon="1.9173">
        <ele>366</ele>
        <time>2021-03-21T14:25:19Z</time>
      </trkpt>
      <trkpt lat="43.95194" lon="1.91732">
        <ele>366.2</ele>
        <time>2021-03-21T14:25:20Z</time>
      </trkpt>
      <trkpt lat="43.95194" lon="1.91734">
        <ele>366.4</ele>
        <time>2021-03-21T14:25:21Z</time>
      </trkpt>
      <trkpt lat="43.95194" lon="1.91736">
        <ele>366.6</ele>
        <time>2021-03-21T14:25:22Z</time>
      </trkpt>
      <trkpt lat="43.95194" lon="1.91738">
        <ele>366.8</ele>
        <time>2021-03-21T14:25:23Z</time>
      </trkpt>
      <trkpt lat="43.95194" lon="1.9174">
        <ele>367</ele>
        <time>2021-03-21T14:25:24Z</time>
      </trkpt>
      <trkpt lat="43.95194" lon="1.91742">
        <ele>367</ele>
        <time>2021-03-21T14:25:25Z</time>
      </trkpt>
      <trkpt lat="43.95193" lon="1.91744">
        <ele>367</ele>
        <time>2021-03-21T14:25:26Z</time>
      </trkpt>
      <trkpt lat="43.95193" lon="1.91746">
        <ele>367</ele>
        <time>2021-03-21T14:25:27Z</time>
      </trkpt>
      <trkpt lat="43.95191" lon="1.91748">
        <ele>367.2</ele>
        <time>2021-03-21T14:25:28Z</time>
      </trkpt>
      <trkpt lat="43.9519" lon="1.91749">
        <ele>367.2</ele>
        <time>2021-03-21T14:25:29Z</time>
      </trkpt>
      <trkpt lat="43.95188" lon="1.91751">
        <ele>367.2</ele>
        <time>2021-03-21T14:25:30Z</time>
      </trkpt>
      <trkpt lat="43.95187" lon="1.91753">
        <ele>367.2</ele>
        <time>2021-03-21T14:25:31Z</time>
      </trkpt>
      <trkpt lat="43.95185" lon="1.91755">
        <ele>367.4</ele>
        <time>2021-03-21T14:25:32Z</time>
      </trkpt>
      <trkpt lat="43.95182" lon="1.91757">
        <ele>367.4</ele>
        <time>2021-03-21T14:25:33Z</time>
      </trkpt>
      <trkpt lat="43.95178" lon="1.91762">
        <ele>367.4</ele>
        <time>2021-03-21T14:25:35Z</time>
      </trkpt>
      <trkpt lat="43.95175" lon="1.91765">
        <ele>367.6</ele>
        <time>2021-03-21T14:25:36Z</time>
      </trkpt>
      <trkpt lat="43.95172" lon="1.91768">
        <ele>367.4</ele>
        <time>2021-03-21T14:25:37Z</time>
      </trkpt>
      <trkpt lat="43.9517" lon="1.9177">
        <ele>367.4</ele>
        <time>2021-03-21T14:25:38Z</time>
      </trkpt>
      <trkpt lat="43.95167" lon="1.91773">
        <ele>367.4</ele>
        <time>2021-03-21T14:25:39Z</time>
      </trkpt>
      <trkpt lat="43.95164" lon="1.91775">
        <ele>367.4</ele>
        <time>2021-03-21T14:25:40Z</time>
      </trkpt>
      <trkpt lat="43.95162" lon="1.91778">
        <ele>367.6</ele>
        <time>2021-03-21T14:25:41Z</time>
      </trkpt>
      <trkpt lat="43.95159" lon="1.9178">
        <ele>367.4</ele>
        <time>2021-03-21T14:25:42Z</time>
      </trkpt>
      <trkpt lat="43.95157" lon="1.91783">
        <ele>367.6</ele>
        <time>2021-03-21T14:25:43Z</time>
      </trkpt>
      <trkpt lat="43.95154" lon="1.91786">
        <ele>367.4</ele>
        <time>2021-03-21T14:25:44Z</time>
      </trkpt>
      <trkpt lat="43.95152" lon="1.91789">
        <ele>367.4</ele>
        <time>2021-03-21T14:25:45Z</time>
      </trkpt>
      <trkpt lat="43.95149" lon="1.91791">
        <ele>367.4</ele>
        <time>2021-03-21T14:25:46Z</time>
      </trkpt>
      <trkpt lat="43.95146" lon="1.91794">
        <ele>367.4</ele>
        <time>2021-03-21T14:25:47Z</time>
      </trkpt>
      <trkpt lat="43.95144" lon="1.91796">
        <ele>367.4</ele>
        <time>2021-03-21T14:25:48Z</time>
      </trkpt>
      <trkpt lat="43.95142" lon="1.91799">
        <ele>367.4</ele>
        <time>2021-03-21T14:25:49Z</time>
      </trkpt>
      <trkpt lat="43.9514" lon="1.91801">
        <ele>367.4</ele>
        <time>2021-03-21T14:25:50Z</time>
      </trkpt>
      <trkpt lat="43.95137" lon="1.91803">
        <ele>367.2</ele>
        <time>2021-03-21T14:25:51Z</time>
      </trkpt>
      <trkpt lat="43.95133" lon="1.91808">
        <ele>367</ele>
        <time>2021-03-21T14:25:53Z</time>
      </trkpt>
      <trkpt lat="43.95131" lon="1.9181">
        <ele>367</ele>
        <time>2021-03-21T14:25:54Z</time>
      </trkpt>
      <trkpt lat="43.95128" lon="1.91812">
        <ele>367</ele>
        <time>2021-03-21T14:25:55Z</time>
      </trkpt>
      <trkpt lat="43.95125" lon="1.91815">
        <ele>366.8</ele>
        <time>2021-03-21T14:25:56Z</time>
      </trkpt>
      <trkpt lat="43.95123" lon="1.91817">
        <ele>367</ele>
        <time>2021-03-21T14:25:57Z</time>
      </trkpt>
      <trkpt lat="43.9512" lon="1.9182">
        <ele>367</ele>
        <time>2021-03-21T14:25:58Z</time>
      </trkpt>
      <trkpt lat="43.95118" lon="1.91822">
        <ele>367</ele>
        <time>2021-03-21T14:25:59Z</time>
      </trkpt>
      <trkpt lat="43.95116" lon="1.91824">
        <ele>366.8</ele>
        <time>2021-03-21T14:26:00Z</time>
      </trkpt>
      <trkpt lat="43.95114" lon="1.91827">
        <ele>366.8</ele>
        <time>2021-03-21T14:26:01Z</time>
      </trkpt>
      <trkpt lat="43.95111" lon="1.91829">
        <ele>366.8</ele>
        <time>2021-03-21T14:26:02Z</time>
      </trkpt>
      <trkpt lat="43.95109" lon="1.91831">
        <ele>366.8</ele>
        <time>2021-03-21T14:26:03Z</time>
      </trkpt>
      <trkpt lat="43.95107" lon="1.91833">
        <ele>366.8</ele>
        <time>2021-03-21T14:26:04Z</time>
      </trkpt>
      <trkpt lat="43.95105" lon="1.91835">
        <ele>366.8</ele>
        <time>2021-03-21T14:26:05Z</time>
      </trkpt>
      <trkpt lat="43.95103" lon="1.91837">
        <ele>366.8</ele>
        <time>2021-03-21T14:26:06Z</time>
      </trkpt>
      <trkpt lat="43.95101" lon="1.9184">
        <ele>366.8</ele>
        <time>2021-03-21T14:26:07Z</time>
      </trkpt>
      <trkpt lat="43.95096" lon="1.91844">
        <ele>366.8</ele>
        <time>2021-03-21T14:26:09Z</time>
      </trkpt>
      <trkpt lat="43.95094" lon="1.91846">
        <ele>366.8</ele>
        <time>2021-03-21T14:26:10Z</time>
      </trkpt>
      <trkpt lat="43.95092" lon="1.91849">
        <ele>366.8</ele>
        <time>2021-03-21T14:26:11Z</time>
      </trkpt>
      <trkpt lat="43.95089" lon="1.91851">
        <ele>366.6</ele>
        <time>2021-03-21T14:26:12Z</time>
      </trkpt>
      <trkpt lat="43.95085" lon="1.91856">
        <ele>366.4</ele>
        <time>2021-03-21T14:26:14Z</time>
      </trkpt>
      <trkpt lat="43.95082" lon="1.91858">
        <ele>366.4</ele>
        <time>2021-03-21T14:26:15Z</time>
      </trkpt>
      <trkpt lat="43.9508" lon="1.91861">
        <ele>366.4</ele>
        <time>2021-03-21T14:26:16Z</time>
      </trkpt>
      <trkpt lat="43.95077" lon="1.91863">
        <ele>366.4</ele>
        <time>2021-03-21T14:26:17Z</time>
      </trkpt>
      <trkpt lat="43.95075" lon="1.91866">
        <ele>366.4</ele>
        <time>2021-03-21T14:26:18Z</time>
      </trkpt>
      <trkpt lat="43.95073" lon="1.91868">
        <ele>366.2</ele>
        <time>2021-03-21T14:26:19Z</time>
      </trkpt>
      <trkpt lat="43.9507" lon="1.9187">
        <ele>366.2</ele>
        <time>2021-03-21T14:26:20Z</time>
      </trkpt>
      <trkpt lat="43.95065" lon="1.91876">
        <ele>366.2</ele>
        <time>2021-03-21T14:26:22Z</time>
      </trkpt>
      <trkpt lat="43.95062" lon="1.91878">
        <ele>366</ele>
        <time>2021-03-21T14:26:23Z</time>
      </trkpt>
      <trkpt lat="43.95059" lon="1.91881">
        <ele>366</ele>
        <time>2021-03-21T14:26:24Z</time>
      </trkpt>
      <trkpt lat="43.95056" lon="1.91885">
        <ele>365.8</ele>
        <time>2021-03-21T14:26:25Z</time>
      </trkpt>
      <trkpt lat="43.95052" lon="1.91888">
        <ele>365.4</ele>
        <time>2021-03-21T14:26:26Z</time>
      </trkpt>
      <trkpt lat="43.95049" lon="1.91891">
        <ele>365.4</ele>
        <time>2021-03-21T14:26:27Z</time>
      </trkpt>
      <trkpt lat="43.95042" lon="1.91898">
        <ele>365.2</ele>
        <time>2021-03-21T14:26:29Z</time>
      </trkpt>
      <trkpt lat="43.95039" lon="1.91902">
        <ele>365.2</ele>
        <time>2021-03-21T14:26:30Z</time>
      </trkpt>
      <trkpt lat="43.95033" lon="1.9191">
        <ele>364.6</ele>
        <time>2021-03-21T14:26:32Z</time>
      </trkpt>
      <trkpt lat="43.9503" lon="1.91914">
        <ele>364.2</ele>
        <time>2021-03-21T14:26:33Z</time>
      </trkpt>
      <trkpt lat="43.95027" lon="1.91918">
        <ele>364</ele>
        <time>2021-03-21T14:26:34Z</time>
      </trkpt>
      <trkpt lat="43.95024" lon="1.91922">
        <ele>363.8</ele>
        <time>2021-03-21T14:26:35Z</time>
      </trkpt>
      <trkpt lat="43.95021" lon="1.91926">
        <ele>363.8</ele>
        <time>2021-03-21T14:26:36Z</time>
      </trkpt>
      <trkpt lat="43.95018" lon="1.91929">
        <ele>363.8</ele>
        <time>2021-03-21T14:26:37Z</time>
      </trkpt>
      <trkpt lat="43.95014" lon="1.91931">
        <ele>363.6</ele>
        <time>2021-03-21T14:26:38Z</time>
      </trkpt>
      <trkpt lat="43.95011" lon="1.91933">
        <ele>363.6</ele>
        <time>2021-03-21T14:26:39Z</time>
      </trkpt>
      <trkpt lat="43.95007" lon="1.91935">
        <ele>363.8</ele>
        <time>2021-03-21T14:26:40Z</time>
      </trkpt>
      <trkpt lat="43.95004" lon="1.91936">
        <ele>363.6</ele>
        <time>2021-03-21T14:26:41Z</time>
      </trkpt>
      <trkpt lat="43.95" lon="1.91937">
        <ele>363.6</ele>
        <time>2021-03-21T14:26:42Z</time>
      </trkpt>
      <trkpt lat="43.94997" lon="1.91938">
        <ele>363.6</ele>
        <time>2021-03-21T14:26:43Z</time>
      </trkpt>
      <trkpt lat="43.94993" lon="1.91938">
        <ele>363.4</ele>
        <time>2021-03-21T14:26:44Z</time>
      </trkpt>
      <trkpt lat="43.9499" lon="1.91939">
        <ele>363.6</ele>
        <time>2021-03-21T14:26:45Z</time>
      </trkpt>
      <trkpt lat="43.94987" lon="1.91939">
        <ele>363.6</ele>
        <time>2021-03-21T14:26:46Z</time>
      </trkpt>
      <trkpt lat="43.94984" lon="1.91939">
        <ele>363.8</ele>
        <time>2021-03-21T14:26:47Z</time>
      </trkpt>
      <trkpt lat="43.94981" lon="1.91939">
        <ele>363.6</ele>
        <time>2021-03-21T14:26:48Z</time>
      </trkpt>
      <trkpt lat="43.94978" lon="1.91939">
        <ele>363.8</ele>
        <time>2021-03-21T14:26:49Z</time>
      </trkpt>
      <trkpt lat="43.94975" lon="1.91939">
        <ele>363.8</ele>
        <time>2021-03-21T14:26:50Z</time>
      </trkpt>
      <trkpt lat="43.94971" lon="1.9194">
        <ele>363.8</ele>
        <time>2021-03-21T14:26:51Z</time>
      </trkpt>
      <trkpt lat="43.94968" lon="1.9194">
        <ele>364.2</ele>
        <time>2021-03-21T14:26:52Z</time>
      </trkpt>
      <trkpt lat="43.94965" lon="1.91941">
        <ele>364.2</ele>
        <time>2021-03-21T14:26:53Z</time>
      </trkpt>
      <trkpt lat="43.94962" lon="1.91942">
        <ele>364.8</ele>
        <time>2021-03-21T14:26:54Z</time>
      </trkpt>
      <trkpt lat="43.94959" lon="1.91943">
        <ele>365</ele>
        <time>2021-03-21T14:26:55Z</time>
      </trkpt>
      <trkpt lat="43.94956" lon="1.91945">
        <ele>365.6</ele>
        <time>2021-03-21T14:26:56Z</time>
      </trkpt>
      <trkpt lat="43.94954" lon="1.91949">
        <ele>365.8</ele>
        <time>2021-03-21T14:26:57Z</time>
      </trkpt>
      <trkpt lat="43.94952" lon="1.91953">
        <ele>366.2</ele>
        <time>2021-03-21T14:26:58Z</time>
      </trkpt>
      <trkpt lat="43.9495" lon="1.91956">
        <ele>366.2</ele>
        <time>2021-03-21T14:26:59Z</time>
      </trkpt>
      <trkpt lat="43.94948" lon="1.9196">
        <ele>366.6</ele>
        <time>2021-03-21T14:27:00Z</time>
      </trkpt>
      <trkpt lat="43.94946" lon="1.91964">
        <ele>367</ele>
        <time>2021-03-21T14:27:01Z</time>
      </trkpt>
      <trkpt lat="43.94944" lon="1.91968">
        <ele>367.2</ele>
        <time>2021-03-21T14:27:02Z</time>
      </trkpt>
      <trkpt lat="43.94942" lon="1.91973">
        <ele>367.4</ele>
        <time>2021-03-21T14:27:03Z</time>
      </trkpt>
      <trkpt lat="43.9494" lon="1.91977">
        <ele>367.6</ele>
        <time>2021-03-21T14:27:04Z</time>
      </trkpt>
      <trkpt lat="43.94938" lon="1.91981">
        <ele>367.8</ele>
        <time>2021-03-21T14:27:05Z</time>
      </trkpt>
      <trkpt lat="43.94936" lon="1.91985">
        <ele>367.8</ele>
        <time>2021-03-21T14:27:06Z</time>
      </trkpt>
      <trkpt lat="43.94934" lon="1.91989">
        <ele>367.8</ele>
        <time>2021-03-21T14:27:07Z</time>
      </trkpt>
      <trkpt lat="43.94933" lon="1.91993">
        <ele>368</ele>
        <time>2021-03-21T14:27:08Z</time>
      </trkpt>
      <trkpt lat="43.94931" lon="1.91996">
        <ele>368</ele>
        <time>2021-03-21T14:27:09Z</time>
      </trkpt>
      <trkpt lat="43.94929" lon="1.92">
        <ele>368</ele>
        <time>2021-03-21T14:27:10Z</time>
      </trkpt>
      <trkpt lat="43.94927" lon="1.92003">
        <ele>368</ele>
        <time>2021-03-21T14:27:11Z</time>
      </trkpt>
      <trkpt lat="43.94926" lon="1.92006">
        <ele>368</ele>
        <time>2021-03-21T14:27:12Z</time>
      </trkpt>
      <trkpt lat="43.94924" lon="1.92009">
        <ele>368.2</ele>
        <time>2021-03-21T14:27:13Z</time>
      </trkpt>
      <trkpt lat="43.94923" lon="1.92012">
        <ele>368.2</ele>
        <time>2021-03-21T14:27:14Z</time>
      </trkpt>
      <trkpt lat="43.94921" lon="1.92015">
        <ele>368.2</ele>
        <time>2021-03-21T14:27:15Z</time>
      </trkpt>
      <trkpt lat="43.9492" lon="1.92018">
        <ele>368.4</ele>
        <time>2021-03-21T14:27:16Z</time>
      </trkpt>
      <trkpt lat="43.94918" lon="1.92021">
        <ele>368.4</ele>
        <time>2021-03-21T14:27:17Z</time>
      </trkpt>
      <trkpt lat="43.94917" lon="1.92024">
        <ele>368.6</ele>
        <time>2021-03-21T14:27:18Z</time>
      </trkpt>
      <trkpt lat="43.94916" lon="1.92026">
        <ele>368.8</ele>
        <time>2021-03-21T14:27:19Z</time>
      </trkpt>
      <trkpt lat="43.94915" lon="1.92028">
        <ele>369.2</ele>
        <time>2021-03-21T14:27:20Z</time>
      </trkpt>
      <trkpt lat="43.94915" lon="1.92029">
        <ele>369.2</ele>
        <time>2021-03-21T14:27:21Z</time>
      </trkpt>
      <trkpt lat="43.94914" lon="1.92029">
        <ele>369.4</ele>
        <time>2021-03-21T14:27:22Z</time>
      </trkpt>
      <trkpt lat="43.94914" lon="1.92029">
        <ele>369.6</ele>
        <time>2021-03-21T14:27:23Z</time>
      </trkpt>
      <trkpt lat="43.94912" lon="1.92034">
        <ele>371.6</ele>
        <time>2021-03-21T14:31:09Z</time>
      </trkpt>
      <trkpt lat="43.94911" lon="1.92036">
        <ele>371.4</ele>
        <time>2021-03-21T14:31:10Z</time>
      </trkpt>
      <trkpt lat="43.9491" lon="1.92039">
        <ele>371.4</ele>
        <time>2021-03-21T14:31:11Z</time>
      </trkpt>
      <trkpt lat="43.94907" lon="1.92044">
        <ele>371.4</ele>
        <time>2021-03-21T14:31:13Z</time>
      </trkpt>
      <trkpt lat="43.94905" lon="1.92047">
        <ele>371.6</ele>
        <time>2021-03-21T14:31:14Z</time>
      </trkpt>
      <trkpt lat="43.94904" lon="1.9205">
        <ele>371.4</ele>
        <time>2021-03-21T14:31:15Z</time>
      </trkpt>
      <trkpt lat="43.94902" lon="1.92052">
        <ele>371.4</ele>
        <time>2021-03-21T14:31:16Z</time>
      </trkpt>
      <trkpt lat="43.94901" lon="1.92055">
        <ele>371.6</ele>
        <time>2021-03-21T14:31:17Z</time>
      </trkpt>
      <trkpt lat="43.94899" lon="1.92058">
        <ele>371.4</ele>
        <time>2021-03-21T14:31:18Z</time>
      </trkpt>
      <trkpt lat="43.94898" lon="1.9206">
        <ele>371.4</ele>
        <time>2021-03-21T14:31:19Z</time>
      </trkpt>
      <trkpt lat="43.94896" lon="1.92063">
        <ele>371.6</ele>
        <time>2021-03-21T14:31:20Z</time>
      </trkpt>
      <trkpt lat="43.94895" lon="1.92066">
        <ele>371.4</ele>
        <time>2021-03-21T14:31:21Z</time>
      </trkpt>
      <trkpt lat="43.94894" lon="1.92068">
        <ele>371.4</ele>
        <time>2021-03-21T14:31:22Z</time>
      </trkpt>
      <trkpt lat="43.94892" lon="1.92071">
        <ele>371.4</ele>
        <time>2021-03-21T14:31:23Z</time>
      </trkpt>
      <trkpt lat="43.94891" lon="1.92074">
        <ele>371.6</ele>
        <time>2021-03-21T14:31:24Z</time>
      </trkpt>
      <trkpt lat="43.9489" lon="1.92077">
        <ele>371.6</ele>
        <time>2021-03-21T14:31:25Z</time>
      </trkpt>
      <trkpt lat="43.94889" lon="1.92079">
        <ele>371.6</ele>
        <time>2021-03-21T14:31:26Z</time>
      </trkpt>
      <trkpt lat="43.94888" lon="1.92081">
        <ele>371.8</ele>
        <time>2021-03-21T14:31:27Z</time>
      </trkpt>
      <trkpt lat="43.94887" lon="1.92084">
        <ele>371.8</ele>
        <time>2021-03-21T14:31:28Z</time>
      </trkpt>
      <trkpt lat="43.94885" lon="1.92087">
        <ele>371.8</ele>
        <time>2021-03-21T14:31:29Z</time>
      </trkpt>
      <trkpt lat="43.94884" lon="1.92089">
        <ele>372</ele>
        <time>2021-03-21T14:31:30Z</time>
      </trkpt>
      <trkpt lat="43.94883" lon="1.92092">
        <ele>372.2</ele>
        <time>2021-03-21T14:31:31Z</time>
      </trkpt>
      <trkpt lat="43.94882" lon="1.92095">
        <ele>372.2</ele>
        <time>2021-03-21T14:31:32Z</time>
      </trkpt>
      <trkpt lat="43.94882" lon="1.92098">
        <ele>372.2</ele>
        <time>2021-03-21T14:31:33Z</time>
      </trkpt>
      <trkpt lat="43.94882" lon="1.921">
        <ele>372.6</ele>
        <time>2021-03-21T14:31:34Z</time>
      </trkpt>
      <trkpt lat="43.94883" lon="1.92103">
        <ele>372.6</ele>
        <time>2021-03-21T14:31:35Z</time>
      </trkpt>
      <trkpt lat="43.94884" lon="1.92105">
        <ele>372.6</ele>
        <time>2021-03-21T14:31:36Z</time>
      </trkpt>
      <trkpt lat="43.94885" lon="1.92107">
        <ele>372.8</ele>
        <time>2021-03-21T14:31:37Z</time>
      </trkpt>
      <trkpt lat="43.94887" lon="1.92109">
        <ele>372.8</ele>
        <time>2021-03-21T14:31:38Z</time>
      </trkpt>
      <trkpt lat="43.94889" lon="1.92111">
        <ele>372.6</ele>
        <time>2021-03-21T14:31:39Z</time>
      </trkpt>
      <trkpt lat="43.9489" lon="1.92114">
        <ele>372.8</ele>
        <time>2021-03-21T14:31:40Z</time>
      </trkpt>
      <trkpt lat="43.94892" lon="1.92116">
        <ele>373</ele>
        <time>2021-03-21T14:31:41Z</time>
      </trkpt>
      <trkpt lat="43.94893" lon="1.92118">
        <ele>372.8</ele>
        <time>2021-03-21T14:31:42Z</time>
      </trkpt>
      <trkpt lat="43.94895" lon="1.92121">
        <ele>372.8</ele>
        <time>2021-03-21T14:31:43Z</time>
      </trkpt>
      <trkpt lat="43.94899" lon="1.92125">
        <ele>372.8</ele>
        <time>2021-03-21T14:31:45Z</time>
      </trkpt>
      <trkpt lat="43.94901" lon="1.92127">
        <ele>372.8</ele>
        <time>2021-03-21T14:31:46Z</time>
      </trkpt>
      <trkpt lat="43.94903" lon="1.92128">
        <ele>372.8</ele>
        <time>2021-03-21T14:31:47Z</time>
      </trkpt>
      <trkpt lat="43.94906" lon="1.92127">
        <ele>372.6</ele>
        <time>2021-03-21T14:31:48Z</time>
      </trkpt>
      <trkpt lat="43.94907" lon="1.92126">
        <ele>372.4</ele>
        <time>2021-03-21T14:31:49Z</time>
      </trkpt>
      <trkpt lat="43.94909" lon="1.92125">
        <ele>371.8</ele>
        <time>2021-03-21T14:31:50Z</time>
      </trkpt>
      <trkpt lat="43.94911" lon="1.92123">
        <ele>371.4</ele>
        <time>2021-03-21T14:31:51Z</time>
      </trkpt>
      <trkpt lat="43.94912" lon="1.92121">
        <ele>371</ele>
        <time>2021-03-21T14:31:52Z</time>
      </trkpt>
      <trkpt lat="43.94914" lon="1.92119">
        <ele>370.6</ele>
        <time>2021-03-21T14:31:53Z</time>
      </trkpt>
      <trkpt lat="43.94917" lon="1.92115">
        <ele>369.6</ele>
        <time>2021-03-21T14:31:55Z</time>
      </trkpt>
      <trkpt lat="43.94919" lon="1.92114">
        <ele>369.2</ele>
        <time>2021-03-21T14:31:56Z</time>
      </trkpt>
      <trkpt lat="43.9492" lon="1.92114">
        <ele>369</ele>
        <time>2021-03-21T14:31:57Z</time>
      </trkpt>
      <trkpt lat="43.94922" lon="1.92114">
        <ele>369</ele>
        <time>2021-03-21T14:31:58Z</time>
      </trkpt>
      <trkpt lat="43.94924" lon="1.92115">
        <ele>368.8</ele>
        <time>2021-03-21T14:31:59Z</time>
      </trkpt>
      <trkpt lat="43.94927" lon="1.92116">
        <ele>368.6</ele>
        <time>2021-03-21T14:32:00Z</time>
      </trkpt>
      <trkpt lat="43.94929" lon="1.92116">
        <ele>368.6</ele>
        <time>2021-03-21T14:32:01Z</time>
      </trkpt>
      <trkpt lat="43.94935" lon="1.92118">
        <ele>368.2</ele>
        <time>2021-03-21T14:32:03Z</time>
      </trkpt>
      <trkpt lat="43.94937" lon="1.92119">
        <ele>368.2</ele>
        <time>2021-03-21T14:32:04Z</time>
      </trkpt>
      <trkpt lat="43.94939" lon="1.9212">
        <ele>368.2</ele>
        <time>2021-03-21T14:32:05Z</time>
      </trkpt>
      <trkpt lat="43.94941" lon="1.9212">
        <ele>368.2</ele>
        <time>2021-03-21T14:32:06Z</time>
      </trkpt>
      <trkpt lat="43.94943" lon="1.92121">
        <ele>368.2</ele>
        <time>2021-03-21T14:32:07Z</time>
      </trkpt>
      <trkpt lat="43.94946" lon="1.92122">
        <ele>368</ele>
        <time>2021-03-21T14:32:08Z</time>
      </trkpt>
      <trkpt lat="43.94948" lon="1.92122">
        <ele>367.8</ele>
        <time>2021-03-21T14:32:09Z</time>
      </trkpt>
      <trkpt lat="43.94951" lon="1.92123">
        <ele>367.8</ele>
        <time>2021-03-21T14:32:10Z</time>
      </trkpt>
      <trkpt lat="43.94954" lon="1.92124">
        <ele>367.8</ele>
        <time>2021-03-21T14:32:11Z</time>
      </trkpt>
      <trkpt lat="43.9496" lon="1.92126">
        <ele>367.2</ele>
        <time>2021-03-21T14:32:13Z</time>
      </trkpt>
      <trkpt lat="43.94964" lon="1.92127">
        <ele>367</ele>
        <time>2021-03-21T14:32:14Z</time>
      </trkpt>
      <trkpt lat="43.94967" lon="1.92128">
        <ele>366.8</ele>
        <time>2021-03-21T14:32:15Z</time>
      </trkpt>
      <trkpt lat="43.94971" lon="1.92129">
        <ele>366.4</ele>
        <time>2021-03-21T14:32:16Z</time>
      </trkpt>
      <trkpt lat="43.94975" lon="1.9213">
        <ele>366.2</ele>
        <time>2021-03-21T14:32:17Z</time>
      </trkpt>
      <trkpt lat="43.94979" lon="1.92132">
        <ele>366.2</ele>
        <time>2021-03-21T14:32:18Z</time>
      </trkpt>
      <trkpt lat="43.94983" lon="1.92133">
        <ele>365.8</ele>
        <time>2021-03-21T14:32:19Z</time>
      </trkpt>
      <trkpt lat="43.94993" lon="1.92136">
        <ele>364.8</ele>
        <time>2021-03-21T14:32:21Z</time>
      </trkpt>
      <trkpt lat="43.94998" lon="1.92137">
        <ele>364.8</ele>
        <time>2021-03-21T14:32:22Z</time>
      </trkpt>
      <trkpt lat="43.95003" lon="1.92139">
        <ele>364.6</ele>
        <time>2021-03-21T14:32:23Z</time>
      </trkpt>
      <trkpt lat="43.95008" lon="1.9214">
        <ele>364.2</ele>
        <time>2021-03-21T14:32:24Z</time>
      </trkpt>
      <trkpt lat="43.95018" lon="1.92143">
        <ele>363</ele>
        <time>2021-03-21T14:32:26Z</time>
      </trkpt>
      <trkpt lat="43.95023" lon="1.92145">
        <ele>362.4</ele>
        <time>2021-03-21T14:32:27Z</time>
      </trkpt>
      <trkpt lat="43.95029" lon="1.92146">
        <ele>362</ele>
        <time>2021-03-21T14:32:28Z</time>
      </trkpt>
      <trkpt lat="43.95035" lon="1.92148">
        <ele>361.6</ele>
        <time>2021-03-21T14:32:29Z</time>
      </trkpt>
      <trkpt lat="43.9504" lon="1.92149">
        <ele>361.4</ele>
        <time>2021-03-21T14:32:30Z</time>
      </trkpt>
      <trkpt lat="43.95046" lon="1.92151">
        <ele>360.8</ele>
        <time>2021-03-21T14:32:31Z</time>
      </trkpt>
      <trkpt lat="43.95052" lon="1.92153">
        <ele>360</ele>
        <time>2021-03-21T14:32:32Z</time>
      </trkpt>
      <trkpt lat="43.95057" lon="1.92154">
        <ele>359.6</ele>
        <time>2021-03-21T14:32:33Z</time>
      </trkpt>
      <trkpt lat="43.95062" lon="1.92156">
        <ele>359.4</ele>
        <time>2021-03-21T14:32:34Z</time>
      </trkpt>
      <trkpt lat="43.95067" lon="1.92156">
        <ele>358.6</ele>
        <time>2021-03-21T14:32:35Z</time>
      </trkpt>
      <trkpt lat="43.95071" lon="1.92157">
        <ele>357.4</ele>
        <time>2021-03-21T14:32:36Z</time>
      </trkpt>
      <trkpt lat="43.95075" lon="1.92156">
        <ele>357.4</ele>
        <time>2021-03-21T14:32:37Z</time>
      </trkpt>
      <trkpt lat="43.95079" lon="1.92154">
        <ele>356</ele>
        <time>2021-03-21T14:32:38Z</time>
      </trkpt>
      <trkpt lat="43.95082" lon="1.92151">
        <ele>354.6</ele>
        <time>2021-03-21T14:32:39Z</time>
      </trkpt>
      <trkpt lat="43.95084" lon="1.92148">
        <ele>353.8</ele>
        <time>2021-03-21T14:32:40Z</time>
      </trkpt>
      <trkpt lat="43.95087" lon="1.92147">
        <ele>352.8</ele>
        <time>2021-03-21T14:32:41Z</time>
      </trkpt>
      <trkpt lat="43.95089" lon="1.92148">
        <ele>351.8</ele>
        <time>2021-03-21T14:32:42Z</time>
      </trkpt>
      <trkpt lat="43.95092" lon="1.92151">
        <ele>351.4</ele>
        <time>2021-03-21T14:32:43Z</time>
      </trkpt>
      <trkpt lat="43.95095" lon="1.92155">
        <ele>350.8</ele>
        <time>2021-03-21T14:32:44Z</time>
      </trkpt>
      <trkpt lat="43.95098" lon="1.9216">
        <ele>349.8</ele>
        <time>2021-03-21T14:32:45Z</time>
      </trkpt>
      <trkpt lat="43.951" lon="1.92165">
        <ele>349</ele>
        <time>2021-03-21T14:32:46Z</time>
      </trkpt>
      <trkpt lat="43.95103" lon="1.92171">
        <ele>348.2</ele>
        <time>2021-03-21T14:32:47Z</time>
      </trkpt>
      <trkpt lat="43.95106" lon="1.92177">
        <ele>347.4</ele>
        <time>2021-03-21T14:32:48Z</time>
      </trkpt>
      <trkpt lat="43.95109" lon="1.92183">
        <ele>347.2</ele>
        <time>2021-03-21T14:32:49Z</time>
      </trkpt>
      <trkpt lat="43.95116" lon="1.92196">
        <ele>346.4</ele>
        <time>2021-03-21T14:32:51Z</time>
      </trkpt>
      <trkpt lat="43.95119" lon="1.92203">
        <ele>346.2</ele>
        <time>2021-03-21T14:32:52Z</time>
      </trkpt>
      <trkpt lat="43.95123" lon="1.9221">
        <ele>345.6</ele>
        <time>2021-03-21T14:32:53Z</time>
      </trkpt>
      <trkpt lat="43.95127" lon="1.92217">
        <ele>345</ele>
        <time>2021-03-21T14:32:54Z</time>
      </trkpt>
      <trkpt lat="43.95131" lon="1.92224">
        <ele>345</ele>
        <time>2021-03-21T14:32:55Z</time>
      </trkpt>
      <trkpt lat="43.95136" lon="1.92231">
        <ele>344.6</ele>
        <time>2021-03-21T14:32:56Z</time>
      </trkpt>
      <trkpt lat="43.95141" lon="1.92239">
        <ele>344.6</ele>
        <time>2021-03-21T14:32:57Z</time>
      </trkpt>
      <trkpt lat="43.95146" lon="1.92246">
        <ele>344.2</ele>
        <time>2021-03-21T14:32:58Z</time>
      </trkpt>
      <trkpt lat="43.95151" lon="1.92254">
        <ele>343.6</ele>
        <time>2021-03-21T14:32:59Z</time>
      </trkpt>
      <trkpt lat="43.95157" lon="1.92261">
        <ele>343.2</ele>
        <time>2021-03-21T14:33:00Z</time>
      </trkpt>
      <trkpt lat="43.95162" lon="1.92269">
        <ele>342.4</ele>
        <time>2021-03-21T14:33:01Z</time>
      </trkpt>
      <trkpt lat="43.95167" lon="1.92276">
        <ele>341.8</ele>
        <time>2021-03-21T14:33:02Z</time>
      </trkpt>
      <trkpt lat="43.95173" lon="1.92283">
        <ele>341.2</ele>
        <time>2021-03-21T14:33:03Z</time>
      </trkpt>
      <trkpt lat="43.95178" lon="1.9229">
        <ele>340.8</ele>
        <time>2021-03-21T14:33:04Z</time>
      </trkpt>
      <trkpt lat="43.95184" lon="1.92297">
        <ele>340</ele>
        <time>2021-03-21T14:33:05Z</time>
      </trkpt>
      <trkpt lat="43.95189" lon="1.92303">
        <ele>338.8</ele>
        <time>2021-03-21T14:33:06Z</time>
      </trkpt>
      <trkpt lat="43.95194" lon="1.92308">
        <ele>338</ele>
        <time>2021-03-21T14:33:07Z</time>
      </trkpt>
      <trkpt lat="43.95199" lon="1.92313">
        <ele>337</ele>
        <time>2021-03-21T14:33:08Z</time>
      </trkpt>
      <trkpt lat="43.95203" lon="1.92317">
        <ele>336</ele>
        <time>2021-03-21T14:33:09Z</time>
      </trkpt>
      <trkpt lat="43.95207" lon="1.92322">
        <ele>335</ele>
        <time>2021-03-21T14:33:10Z</time>
      </trkpt>
      <trkpt lat="43.95211" lon="1.92327">
        <ele>333.6</ele>
        <time>2021-03-21T14:33:11Z</time>
      </trkpt>
      <trkpt lat="43.95216" lon="1.92331">
        <ele>332.2</ele>
        <time>2021-03-21T14:33:12Z</time>
      </trkpt>
      <trkpt lat="43.95219" lon="1.92335">
        <ele>331.4</ele>
        <time>2021-03-21T14:33:13Z</time>
      </trkpt>
      <trkpt lat="43.95222" lon="1.9234">
        <ele>330.8</ele>
        <time>2021-03-21T14:33:14Z</time>
      </trkpt>
      <trkpt lat="43.95224" lon="1.92345">
        <ele>330.4</ele>
        <time>2021-03-21T14:33:15Z</time>
      </trkpt>
      <trkpt lat="43.95226" lon="1.9235">
        <ele>330.4</ele>
        <time>2021-03-21T14:33:16Z</time>
      </trkpt>
      <trkpt lat="43.95227" lon="1.92356">
        <ele>330.2</ele>
        <time>2021-03-21T14:33:17Z</time>
      </trkpt>
      <trkpt lat="43.95229" lon="1.92362">
        <ele>329.8</ele>
        <time>2021-03-21T14:33:18Z</time>
      </trkpt>
      <trkpt lat="43.95232" lon="1.92368">
        <ele>329</ele>
        <time>2021-03-21T14:33:19Z</time>
      </trkpt>
      <trkpt lat="43.95235" lon="1.92373">
        <ele>328.4</ele>
        <time>2021-03-21T14:33:20Z</time>
      </trkpt>
      <trkpt lat="43.95238" lon="1.92378">
        <ele>328.2</ele>
        <time>2021-03-21T14:33:21Z</time>
      </trkpt>
      <trkpt lat="43.95242" lon="1.92384">
        <ele>327.8</ele>
        <time>2021-03-21T14:33:22Z</time>
      </trkpt>
      <trkpt lat="43.95245" lon="1.92389">
        <ele>327.2</ele>
        <time>2021-03-21T14:33:23Z</time>
      </trkpt>
      <trkpt lat="43.95249" lon="1.92395">
        <ele>326.4</ele>
        <time>2021-03-21T14:33:24Z</time>
      </trkpt>
      <trkpt lat="43.95254" lon="1.92402">
        <ele>326</ele>
        <time>2021-03-21T14:33:25Z</time>
      </trkpt>
      <trkpt lat="43.95258" lon="1.92409">
        <ele>325.8</ele>
        <time>2021-03-21T14:33:26Z</time>
      </trkpt>
      <trkpt lat="43.95263" lon="1.92416">
        <ele>325.8</ele>
        <time>2021-03-21T14:33:27Z</time>
      </trkpt>
      <trkpt lat="43.95268" lon="1.92423">
        <ele>325.4</ele>
        <time>2021-03-21T14:33:28Z</time>
      </trkpt>
      <trkpt lat="43.95273" lon="1.92429">
        <ele>325.2</ele>
        <time>2021-03-21T14:33:29Z</time>
      </trkpt>
      <trkpt lat="43.95278" lon="1.92436">
        <ele>324.8</ele>
        <time>2021-03-21T14:33:30Z</time>
      </trkpt>
      <trkpt lat="43.95284" lon="1.92443">
        <ele>324.6</ele>
        <time>2021-03-21T14:33:31Z</time>
      </trkpt>
      <trkpt lat="43.95289" lon="1.92451">
        <ele>324</ele>
        <time>2021-03-21T14:33:32Z</time>
      </trkpt>
      <trkpt lat="43.95296" lon="1.92459">
        <ele>323.4</ele>
        <time>2021-03-21T14:33:33Z</time>
      </trkpt>
      <trkpt lat="43.95302" lon="1.92466">
        <ele>322.8</ele>
        <time>2021-03-21T14:33:34Z</time>
      </trkpt>
      <trkpt lat="43.95308" lon="1.92473">
        <ele>322.4</ele>
        <time>2021-03-21T14:33:35Z</time>
      </trkpt>
      <trkpt lat="43.95314" lon="1.9248">
        <ele>322.4</ele>
        <time>2021-03-21T14:33:36Z</time>
      </trkpt>
      <trkpt lat="43.95319" lon="1.92487">
        <ele>322</ele>
        <time>2021-03-21T14:33:37Z</time>
      </trkpt>
      <trkpt lat="43.95324" lon="1.92495">
        <ele>321.4</ele>
        <time>2021-03-21T14:33:38Z</time>
      </trkpt>
      <trkpt lat="43.95329" lon="1.92502">
        <ele>320.4</ele>
        <time>2021-03-21T14:33:39Z</time>
      </trkpt>
      <trkpt lat="43.95333" lon="1.9251">
        <ele>319.6</ele>
        <time>2021-03-21T14:33:40Z</time>
      </trkpt>
      <trkpt lat="43.95337" lon="1.92517">
        <ele>318.6</ele>
        <time>2021-03-21T14:33:41Z</time>
      </trkpt>
      <trkpt lat="43.95341" lon="1.92526">
        <ele>317.2</ele>
        <time>2021-03-21T14:33:42Z</time>
      </trkpt>
      <trkpt lat="43.95346" lon="1.92534">
        <ele>315.6</ele>
        <time>2021-03-21T14:33:43Z</time>
      </trkpt>
      <trkpt lat="43.9535" lon="1.92542">
        <ele>314.4</ele>
        <time>2021-03-21T14:33:44Z</time>
      </trkpt>
      <trkpt lat="43.95355" lon="1.92549">
        <ele>313.6</ele>
        <time>2021-03-21T14:33:45Z</time>
      </trkpt>
      <trkpt lat="43.95359" lon="1.92556">
        <ele>312.8</ele>
        <time>2021-03-21T14:33:46Z</time>
      </trkpt>
      <trkpt lat="43.95364" lon="1.92563">
        <ele>312</ele>
        <time>2021-03-21T14:33:47Z</time>
      </trkpt>
      <trkpt lat="43.95368" lon="1.92571">
        <ele>311.4</ele>
        <time>2021-03-21T14:33:48Z</time>
      </trkpt>
      <trkpt lat="43.95372" lon="1.92578">
        <ele>311.2</ele>
        <time>2021-03-21T14:33:49Z</time>
      </trkpt>
      <trkpt lat="43.95376" lon="1.92586">
        <ele>310.6</ele>
        <time>2021-03-21T14:33:50Z</time>
      </trkpt>
      <trkpt lat="43.95379" lon="1.92594">
        <ele>309.6</ele>
        <time>2021-03-21T14:33:51Z</time>
      </trkpt>
      <trkpt lat="43.95383" lon="1.92602">
        <ele>309</ele>
        <time>2021-03-21T14:33:52Z</time>
      </trkpt>
      <trkpt lat="43.95386" lon="1.92609">
        <ele>308.8</ele>
        <time>2021-03-21T14:33:53Z</time>
      </trkpt>
      <trkpt lat="43.9539" lon="1.92617">
        <ele>308.4</ele>
        <time>2021-03-21T14:33:54Z</time>
      </trkpt>
      <trkpt lat="43.95394" lon="1.92625">
        <ele>308.2</ele>
        <time>2021-03-21T14:33:55Z</time>
      </trkpt>
      <trkpt lat="43.95398" lon="1.92633">
        <ele>308.2</ele>
        <time>2021-03-21T14:33:56Z</time>
      </trkpt>
      <trkpt lat="43.95402" lon="1.9264">
        <ele>307.8</ele>
        <time>2021-03-21T14:33:57Z</time>
      </trkpt>
      <trkpt lat="43.95406" lon="1.92648">
        <ele>307.4</ele>
        <time>2021-03-21T14:33:58Z</time>
      </trkpt>
      <trkpt lat="43.95411" lon="1.92655">
        <ele>307</ele>
        <time>2021-03-21T14:33:59Z</time>
      </trkpt>
      <trkpt lat="43.95415" lon="1.92662">
        <ele>306.6</ele>
        <time>2021-03-21T14:34:00Z</time>
      </trkpt>
      <trkpt lat="43.9542" lon="1.92669">
        <ele>306</ele>
        <time>2021-03-21T14:34:01Z</time>
      </trkpt>
      <trkpt lat="43.95425" lon="1.92676">
        <ele>305.6</ele>
        <time>2021-03-21T14:34:02Z</time>
      </trkpt>
      <trkpt lat="43.9543" lon="1.92683">
        <ele>305.2</ele>
        <time>2021-03-21T14:34:03Z</time>
      </trkpt>
      <trkpt lat="43.95435" lon="1.9269">
        <ele>304.8</ele>
        <time>2021-03-21T14:34:04Z</time>
      </trkpt>
      <trkpt lat="43.95441" lon="1.92697">
        <ele>304.6</ele>
        <time>2021-03-21T14:34:05Z</time>
      </trkpt>
      <trkpt lat="43.95446" lon="1.92703">
        <ele>304.4</ele>
        <time>2021-03-21T14:34:06Z</time>
      </trkpt>
      <trkpt lat="43.95451" lon="1.92709">
        <ele>304</ele>
        <time>2021-03-21T14:34:07Z</time>
      </trkpt>
      <trkpt lat="43.95456" lon="1.92716">
        <ele>303.4</ele>
        <time>2021-03-21T14:34:08Z</time>
      </trkpt>
      <trkpt lat="43.95461" lon="1.92722">
        <ele>303.2</ele>
        <time>2021-03-21T14:34:09Z</time>
      </trkpt>
      <trkpt lat="43.95465" lon="1.92728">
        <ele>302.6</ele>
        <time>2021-03-21T14:34:10Z</time>
      </trkpt>
      <trkpt lat="43.9547" lon="1.92736">
        <ele>302.2</ele>
        <time>2021-03-21T14:34:11Z</time>
      </trkpt>
      <trkpt lat="43.95475" lon="1.92743">
        <ele>301.8</ele>
        <time>2021-03-21T14:34:12Z</time>
      </trkpt>
      <trkpt lat="43.95479" lon="1.9275">
        <ele>301.8</ele>
        <time>2021-03-21T14:34:13Z</time>
      </trkpt>
      <trkpt lat="43.95484" lon="1.92757">
        <ele>301.6</ele>
        <time>2021-03-21T14:34:14Z</time>
      </trkpt>
      <trkpt lat="43.95488" lon="1.92764">
        <ele>301.4</ele>
        <time>2021-03-21T14:34:15Z</time>
      </trkpt>
      <trkpt lat="43.95493" lon="1.92771">
        <ele>301.2</ele>
        <time>2021-03-21T14:34:16Z</time>
      </trkpt>
      <trkpt lat="43.95497" lon="1.92778">
        <ele>301.2</ele>
        <time>2021-03-21T14:34:17Z</time>
      </trkpt>
      <trkpt lat="43.95502" lon="1.92785">
        <ele>301</ele>
        <time>2021-03-21T14:34:18Z</time>
      </trkpt>
      <trkpt lat="43.95507" lon="1.92792">
        <ele>300.4</ele>
        <time>2021-03-21T14:34:19Z</time>
      </trkpt>
      <trkpt lat="43.95511" lon="1.92798">
        <ele>299.4</ele>
        <time>2021-03-21T14:34:20Z</time>
      </trkpt>
      <trkpt lat="43.95516" lon="1.92805">
        <ele>299</ele>
        <time>2021-03-21T14:34:21Z</time>
      </trkpt>
      <trkpt lat="43.95521" lon="1.92811">
        <ele>298.8</ele>
        <time>2021-03-21T14:34:22Z</time>
      </trkpt>
      <trkpt lat="43.95526" lon="1.92818">
        <ele>298.4</ele>
        <time>2021-03-21T14:34:23Z</time>
      </trkpt>
      <trkpt lat="43.9553" lon="1.92825">
        <ele>298</ele>
        <time>2021-03-21T14:34:24Z</time>
      </trkpt>
      <trkpt lat="43.95535" lon="1.92832">
        <ele>297.6</ele>
        <time>2021-03-21T14:34:25Z</time>
      </trkpt>
      <trkpt lat="43.9554" lon="1.92839">
        <ele>297</ele>
        <time>2021-03-21T14:34:26Z</time>
      </trkpt>
      <trkpt lat="43.95544" lon="1.92845">
        <ele>296.6</ele>
        <time>2021-03-21T14:34:27Z</time>
      </trkpt>
      <trkpt lat="43.95549" lon="1.92852">
        <ele>296</ele>
        <time>2021-03-21T14:34:28Z</time>
      </trkpt>
      <trkpt lat="43.95553" lon="1.92858">
        <ele>295.8</ele>
        <time>2021-03-21T14:34:29Z</time>
      </trkpt>
      <trkpt lat="43.95556" lon="1.92865">
        <ele>295.6</ele>
        <time>2021-03-21T14:34:30Z</time>
      </trkpt>
      <trkpt lat="43.95557" lon="1.92871">
        <ele>295</ele>
        <time>2021-03-21T14:34:31Z</time>
      </trkpt>
      <trkpt lat="43.95558" lon="1.92877">
        <ele>294.8</ele>
        <time>2021-03-21T14:34:32Z</time>
      </trkpt>
      <trkpt lat="43.9556" lon="1.92883">
        <ele>294.6</ele>
        <time>2021-03-21T14:34:33Z</time>
      </trkpt>
      <trkpt lat="43.95562" lon="1.92887">
        <ele>294.4</ele>
        <time>2021-03-21T14:34:34Z</time>
      </trkpt>
      <trkpt lat="43.95564" lon="1.92892">
        <ele>294.4</ele>
        <time>2021-03-21T14:34:35Z</time>
      </trkpt>
      <trkpt lat="43.95566" lon="1.92895">
        <ele>294.4</ele>
        <time>2021-03-21T14:34:36Z</time>
      </trkpt>
      <trkpt lat="43.95568" lon="1.929">
        <ele>294</ele>
        <time>2021-03-21T14:34:37Z</time>
      </trkpt>
      <trkpt lat="43.95569" lon="1.92904">
        <ele>294</ele>
        <time>2021-03-21T14:34:38Z</time>
      </trkpt>
      <trkpt lat="43.9557" lon="1.92906">
        <ele>293.8</ele>
        <time>2021-03-21T14:34:39Z</time>
      </trkpt>
      <trkpt lat="43.95572" lon="1.92908">
        <ele>293.6</ele>
        <time>2021-03-21T14:34:40Z</time>
      </trkpt>
      <trkpt lat="43.95573" lon="1.92908">
        <ele>293.6</ele>
        <time>2021-03-21T14:34:41Z</time>
      </trkpt>
      <trkpt lat="43.95574" lon="1.92906">
        <ele>293.6</ele>
        <time>2021-03-21T14:34:42Z</time>
      </trkpt>
      <trkpt lat="43.95575" lon="1.92905">
        <ele>293.6</ele>
        <time>2021-03-21T14:34:43Z</time>
      </trkpt>
      <trkpt lat="43.95575" lon="1.92905">
        <ele>293.6</ele>
        <time>2021-03-21T14:34:44Z</time>
      </trkpt>
      <trkpt lat="43.95575" lon="1.92905">
        <ele>293.4</ele>
        <time>2021-03-21T14:34:45Z</time>
      </trkpt>
      <trkpt lat="43.95579" lon="1.92901">
        <ele>294</ele>
        <time>2021-03-21T14:35:06Z</time>
      </trkpt>
      <trkpt lat="43.95581" lon="1.92899">
        <ele>293.8</ele>
        <time>2021-03-21T14:35:07Z</time>
      </trkpt>
      <trkpt lat="43.95582" lon="1.92898">
        <ele>294</ele>
        <time>2021-03-21T14:35:08Z</time>
      </trkpt>
      <trkpt lat="43.95583" lon="1.92896">
        <ele>293.8</ele>
        <time>2021-03-21T14:35:09Z</time>
      </trkpt>
      <trkpt lat="43.95585" lon="1.92893">
        <ele>293.8</ele>
        <time>2021-03-21T14:35:10Z</time>
      </trkpt>
      <trkpt lat="43.95587" lon="1.92891">
        <ele>293.8</ele>
        <time>2021-03-21T14:35:11Z</time>
      </trkpt>
      <trkpt lat="43.95591" lon="1.92887">
        <ele>293.6</ele>
        <time>2021-03-21T14:35:13Z</time>
      </trkpt>
      <trkpt lat="43.95592" lon="1.92884">
        <ele>293.6</ele>
        <time>2021-03-21T14:35:14Z</time>
      </trkpt>
      <trkpt lat="43.95594" lon="1.92882">
        <ele>293.8</ele>
        <time>2021-03-21T14:35:15Z</time>
      </trkpt>
      <trkpt lat="43.95596" lon="1.9288">
        <ele>293.8</ele>
        <time>2021-03-21T14:35:16Z</time>
      </trkpt>
      <trkpt lat="43.95598" lon="1.92878">
        <ele>293.6</ele>
        <time>2021-03-21T14:35:17Z</time>
      </trkpt>
      <trkpt lat="43.956" lon="1.92876">
        <ele>293.6</ele>
        <time>2021-03-21T14:35:18Z</time>
      </trkpt>
      <trkpt lat="43.95602" lon="1.92873">
        <ele>293.8</ele>
        <time>2021-03-21T14:35:19Z</time>
      </trkpt>
      <trkpt lat="43.95605" lon="1.92869">
        <ele>293.8</ele>
        <time>2021-03-21T14:35:21Z</time>
      </trkpt>
      <trkpt lat="43.95607" lon="1.92867">
        <ele>293.8</ele>
        <time>2021-03-21T14:35:22Z</time>
      </trkpt>
      <trkpt lat="43.95609" lon="1.92865">
        <ele>293.8</ele>
        <time>2021-03-21T14:35:23Z</time>
      </trkpt>
      <trkpt lat="43.95611" lon="1.92862">
        <ele>293.8</ele>
        <time>2021-03-21T14:35:24Z</time>
      </trkpt>
      <trkpt lat="43.95615" lon="1.92858">
        <ele>293.8</ele>
        <time>2021-03-21T14:35:26Z</time>
      </trkpt>
      <trkpt lat="43.95617" lon="1.92856">
        <ele>293.8</ele>
        <time>2021-03-21T14:35:27Z</time>
      </trkpt>
      <trkpt lat="43.95619" lon="1.92853">
        <ele>293.8</ele>
        <time>2021-03-21T14:35:28Z</time>
      </trkpt>
      <trkpt lat="43.95621" lon="1.92851">
        <ele>293.8</ele>
        <time>2021-03-21T14:35:29Z</time>
      </trkpt>
      <trkpt lat="43.95624" lon="1.92848">
        <ele>293.8</ele>
        <time>2021-03-21T14:35:30Z</time>
      </trkpt>
      <trkpt lat="43.95626" lon="1.92845">
        <ele>293.8</ele>
        <time>2021-03-21T14:35:31Z</time>
      </trkpt>
      <trkpt lat="43.95628" lon="1.92843">
        <ele>293.8</ele>
        <time>2021-03-21T14:35:32Z</time>
      </trkpt>
      <trkpt lat="43.95633" lon="1.92837">
        <ele>294</ele>
        <time>2021-03-21T14:35:34Z</time>
      </trkpt>
      <trkpt lat="43.95636" lon="1.92834">
        <ele>294</ele>
        <time>2021-03-21T14:35:35Z</time>
      </trkpt>
      <trkpt lat="43.95639" lon="1.92832">
        <ele>294.2</ele>
        <time>2021-03-21T14:35:36Z</time>
      </trkpt>
      <trkpt lat="43.95641" lon="1.92829">
        <ele>294.2</ele>
        <time>2021-03-21T14:35:37Z</time>
      </trkpt>
      <trkpt lat="43.95644" lon="1.92826">
        <ele>294</ele>
        <time>2021-03-21T14:35:38Z</time>
      </trkpt>
      <trkpt lat="43.95646" lon="1.92823">
        <ele>294.2</ele>
        <time>2021-03-21T14:35:39Z</time>
      </trkpt>
      <trkpt lat="43.95649" lon="1.9282">
        <ele>294.2</ele>
        <time>2021-03-21T14:35:40Z</time>
      </trkpt>
      <trkpt lat="43.95651" lon="1.92816">
        <ele>294.2</ele>
        <time>2021-03-21T14:35:41Z</time>
      </trkpt>
      <trkpt lat="43.95653" lon="1.92813">
        <ele>294.2</ele>
        <time>2021-03-21T14:35:42Z</time>
      </trkpt>
      <trkpt lat="43.95655" lon="1.92809">
        <ele>294.2</ele>
        <time>2021-03-21T14:35:43Z</time>
      </trkpt>
      <trkpt lat="43.9566" lon="1.92802">
        <ele>294</ele>
        <time>2021-03-21T14:35:45Z</time>
      </trkpt>
      <trkpt lat="43.95662" lon="1.92799">
        <ele>294.2</ele>
        <time>2021-03-21T14:35:46Z</time>
      </trkpt>
      <trkpt lat="43.95665" lon="1.92795">
        <ele>294</ele>
        <time>2021-03-21T14:35:47Z</time>
      </trkpt>
      <trkpt lat="43.95667" lon="1.92792">
        <ele>294</ele>
        <time>2021-03-21T14:35:48Z</time>
      </trkpt>
      <trkpt lat="43.95669" lon="1.92789">
        <ele>294.2</ele>
        <time>2021-03-21T14:35:49Z</time>
      </trkpt>
      <trkpt lat="43.95671" lon="1.92785">
        <ele>294.2</ele>
        <time>2021-03-21T14:35:50Z</time>
      </trkpt>
      <trkpt lat="43.95674" lon="1.92781">
        <ele>294.2</ele>
        <time>2021-03-21T14:35:51Z</time>
      </trkpt>
      <trkpt lat="43.95676" lon="1.92778">
        <ele>294.2</ele>
        <time>2021-03-21T14:35:52Z</time>
      </trkpt>
      <trkpt lat="43.95679" lon="1.92774">
        <ele>294.2</ele>
        <time>2021-03-21T14:35:53Z</time>
      </trkpt>
      <trkpt lat="43.95681" lon="1.9277">
        <ele>294.4</ele>
        <time>2021-03-21T14:35:54Z</time>
      </trkpt>
      <trkpt lat="43.95684" lon="1.92766">
        <ele>294.6</ele>
        <time>2021-03-21T14:35:55Z</time>
      </trkpt>
      <trkpt lat="43.95687" lon="1.92763">
        <ele>294.6</ele>
        <time>2021-03-21T14:35:56Z</time>
      </trkpt>
      <trkpt lat="43.95692" lon="1.92757">
        <ele>294.8</ele>
        <time>2021-03-21T14:35:58Z</time>
      </trkpt>
      <trkpt lat="43.95695" lon="1.92754">
        <ele>294.8</ele>
        <time>2021-03-21T14:35:59Z</time>
      </trkpt>
      <trkpt lat="43.95698" lon="1.92752">
        <ele>294.6</ele>
        <time>2021-03-21T14:36:00Z</time>
      </trkpt>
      <trkpt lat="43.95701" lon="1.92749">
        <ele>294.8</ele>
        <time>2021-03-21T14:36:01Z</time>
      </trkpt>
      <trkpt lat="43.95704" lon="1.92746">
        <ele>294.8</ele>
        <time>2021-03-21T14:36:02Z</time>
      </trkpt>
      <trkpt lat="43.95707" lon="1.92744">
        <ele>294.8</ele>
        <time>2021-03-21T14:36:03Z</time>
      </trkpt>
      <trkpt lat="43.9571" lon="1.92741">
        <ele>294.6</ele>
        <time>2021-03-21T14:36:04Z</time>
      </trkpt>
      <trkpt lat="43.95713" lon="1.92739">
        <ele>294.6</ele>
        <time>2021-03-21T14:36:05Z</time>
      </trkpt>
      <trkpt lat="43.95715" lon="1.92736">
        <ele>294.8</ele>
        <time>2021-03-21T14:36:06Z</time>
      </trkpt>
      <trkpt lat="43.95718" lon="1.92734">
        <ele>294.8</ele>
        <time>2021-03-21T14:36:07Z</time>
      </trkpt>
      <trkpt lat="43.95721" lon="1.92731">
        <ele>294.8</ele>
        <time>2021-03-21T14:36:08Z</time>
      </trkpt>
      <trkpt lat="43.95724" lon="1.92729">
        <ele>294.8</ele>
        <time>2021-03-21T14:36:09Z</time>
      </trkpt>
      <trkpt lat="43.95726" lon="1.92726">
        <ele>294.8</ele>
        <time>2021-03-21T14:36:10Z</time>
      </trkpt>
      <trkpt lat="43.95729" lon="1.92724">
        <ele>294.8</ele>
        <time>2021-03-21T14:36:11Z</time>
      </trkpt>
      <trkpt lat="43.95732" lon="1.92722">
        <ele>294.8</ele>
        <time>2021-03-21T14:36:12Z</time>
      </trkpt>
      <trkpt lat="43.95734" lon="1.9272">
        <ele>294.8</ele>
        <time>2021-03-21T14:36:13Z</time>
      </trkpt>
      <trkpt lat="43.95737" lon="1.92717">
        <ele>294.8</ele>
        <time>2021-03-21T14:36:14Z</time>
      </trkpt>
      <trkpt lat="43.9574" lon="1.92715">
        <ele>294.8</ele>
        <time>2021-03-21T14:36:15Z</time>
      </trkpt>
      <trkpt lat="43.95742" lon="1.92713">
        <ele>295</ele>
        <time>2021-03-21T14:36:16Z</time>
      </trkpt>
      <trkpt lat="43.95745" lon="1.9271">
        <ele>294.8</ele>
        <time>2021-03-21T14:36:17Z</time>
      </trkpt>
      <trkpt lat="43.95748" lon="1.92708">
        <ele>294.8</ele>
        <time>2021-03-21T14:36:18Z</time>
      </trkpt>
      <trkpt lat="43.95751" lon="1.92705">
        <ele>295</ele>
        <time>2021-03-21T14:36:19Z</time>
      </trkpt>
      <trkpt lat="43.95754" lon="1.92702">
        <ele>295</ele>
        <time>2021-03-21T14:36:20Z</time>
      </trkpt>
      <trkpt lat="43.9576" lon="1.92697">
        <ele>294.8</ele>
        <time>2021-03-21T14:36:22Z</time>
      </trkpt>
      <trkpt lat="43.95763" lon="1.92694">
        <ele>294.8</ele>
        <time>2021-03-21T14:36:23Z</time>
      </trkpt>
      <trkpt lat="43.95766" lon="1.92692">
        <ele>294.8</ele>
        <time>2021-03-21T14:36:24Z</time>
      </trkpt>
      <trkpt lat="43.95769" lon="1.92689">
        <ele>295</ele>
        <time>2021-03-21T14:36:25Z</time>
      </trkpt>
      <trkpt lat="43.95775" lon="1.92684">
        <ele>295</ele>
        <time>2021-03-21T14:36:27Z</time>
      </trkpt>
      <trkpt lat="43.95778" lon="1.92681">
        <ele>294.6</ele>
        <time>2021-03-21T14:36:28Z</time>
      </trkpt>
      <trkpt lat="43.9578" lon="1.92679">
        <ele>294.8</ele>
        <time>2021-03-21T14:36:29Z</time>
      </trkpt>
      <trkpt lat="43.95783" lon="1.92676">
        <ele>294.6</ele>
        <time>2021-03-21T14:36:30Z</time>
      </trkpt>
      <trkpt lat="43.95786" lon="1.92673">
        <ele>294.8</ele>
        <time>2021-03-21T14:36:31Z</time>
      </trkpt>
      <trkpt lat="43.95788" lon="1.9267">
        <ele>295</ele>
        <time>2021-03-21T14:36:32Z</time>
      </trkpt>
      <trkpt lat="43.95791" lon="1.92667">
        <ele>295</ele>
        <time>2021-03-21T14:36:33Z</time>
      </trkpt>
      <trkpt lat="43.95794" lon="1.92664">
        <ele>295</ele>
        <time>2021-03-21T14:36:34Z</time>
      </trkpt>
      <trkpt lat="43.95796" lon="1.92661">
        <ele>295</ele>
        <time>2021-03-21T14:36:35Z</time>
      </trkpt>
      <trkpt lat="43.95798" lon="1.92658">
        <ele>295</ele>
        <time>2021-03-21T14:36:36Z</time>
      </trkpt>
      <trkpt lat="43.95801" lon="1.92655">
        <ele>295</ele>
        <time>2021-03-21T14:36:37Z</time>
      </trkpt>
      <trkpt lat="43.95803" lon="1.92652">
        <ele>295</ele>
        <time>2021-03-21T14:36:38Z</time>
      </trkpt>
      <trkpt lat="43.95805" lon="1.92649">
        <ele>295</ele>
        <time>2021-03-21T14:36:39Z</time>
      </trkpt>
      <trkpt lat="43.95808" lon="1.92646">
        <ele>295.2</ele>
        <time>2021-03-21T14:36:40Z</time>
      </trkpt>
      <trkpt lat="43.9581" lon="1.92643">
        <ele>295</ele>
        <time>2021-03-21T14:36:41Z</time>
      </trkpt>
      <trkpt lat="43.95812" lon="1.9264">
        <ele>295</ele>
        <time>2021-03-21T14:36:42Z</time>
      </trkpt>
      <trkpt lat="43.95814" lon="1.92638">
        <ele>295</ele>
        <time>2021-03-21T14:36:43Z</time>
      </trkpt>
      <trkpt lat="43.95817" lon="1.92635">
        <ele>295.2</ele>
        <time>2021-03-21T14:36:44Z</time>
      </trkpt>
      <trkpt lat="43.95819" lon="1.92632">
        <ele>295.2</ele>
        <time>2021-03-21T14:36:45Z</time>
      </trkpt>
      <trkpt lat="43.95821" lon="1.92629">
        <ele>295.2</ele>
        <time>2021-03-21T14:36:46Z</time>
      </trkpt>
      <trkpt lat="43.95825" lon="1.92623">
        <ele>295.4</ele>
        <time>2021-03-21T14:36:48Z</time>
      </trkpt>
      <trkpt lat="43.95827" lon="1.9262">
        <ele>295.6</ele>
        <time>2021-03-21T14:36:49Z</time>
      </trkpt>
      <trkpt lat="43.9583" lon="1.92618">
        <ele>295.8</ele>
        <time>2021-03-21T14:36:50Z</time>
      </trkpt>
      <trkpt lat="43.95831" lon="1.92615">
        <ele>295.6</ele>
        <time>2021-03-21T14:36:51Z</time>
      </trkpt>
      <trkpt lat="43.95833" lon="1.92611">
        <ele>295.8</ele>
        <time>2021-03-21T14:36:52Z</time>
      </trkpt>
      <trkpt lat="43.95836" lon="1.92608">
        <ele>296</ele>
        <time>2021-03-21T14:36:53Z</time>
      </trkpt>
      <trkpt lat="43.95838" lon="1.92605">
        <ele>296.2</ele>
        <time>2021-03-21T14:36:54Z</time>
      </trkpt>
      <trkpt lat="43.9584" lon="1.92602">
        <ele>296.2</ele>
        <time>2021-03-21T14:36:55Z</time>
      </trkpt>
      <trkpt lat="43.95842" lon="1.92599">
        <ele>296.4</ele>
        <time>2021-03-21T14:36:56Z</time>
      </trkpt>
      <trkpt lat="43.95844" lon="1.92595">
        <ele>296.4</ele>
        <time>2021-03-21T14:36:57Z</time>
      </trkpt>
      <trkpt lat="43.95846" lon="1.92592">
        <ele>296.4</ele>
        <time>2021-03-21T14:36:58Z</time>
      </trkpt>
      <trkpt lat="43.95848" lon="1.92589">
        <ele>296.4</ele>
        <time>2021-03-21T14:36:59Z</time>
      </trkpt>
      <trkpt lat="43.9585" lon="1.92586">
        <ele>296.4</ele>
        <time>2021-03-21T14:37:00Z</time>
      </trkpt>
      <trkpt lat="43.95852" lon="1.92583">
        <ele>296.6</ele>
        <time>2021-03-21T14:37:01Z</time>
      </trkpt>
      <trkpt lat="43.95854" lon="1.9258">
        <ele>296.6</ele>
        <time>2021-03-21T14:37:02Z</time>
      </trkpt>
      <trkpt lat="43.95856" lon="1.92577">
        <ele>296.6</ele>
        <time>2021-03-21T14:37:03Z</time>
      </trkpt>
      <trkpt lat="43.95857" lon="1.92574">
        <ele>296.6</ele>
        <time>2021-03-21T14:37:04Z</time>
      </trkpt>
      <trkpt lat="43.95859" lon="1.9257">
        <ele>296.6</ele>
        <time>2021-03-21T14:37:05Z</time>
      </trkpt>
      <trkpt lat="43.95861" lon="1.92567">
        <ele>296.6</ele>
        <time>2021-03-21T14:37:06Z</time>
      </trkpt>
      <trkpt lat="43.95862" lon="1.92563">
        <ele>296.8</ele>
        <time>2021-03-21T14:37:07Z</time>
      </trkpt>
      <trkpt lat="43.95864" lon="1.92559">
        <ele>296.8</ele>
        <time>2021-03-21T14:37:08Z</time>
      </trkpt>
      <trkpt lat="43.95865" lon="1.92556">
        <ele>296.6</ele>
        <time>2021-03-21T14:37:09Z</time>
      </trkpt>
      <trkpt lat="43.95867" lon="1.92552">
        <ele>296.6</ele>
        <time>2021-03-21T14:37:10Z</time>
      </trkpt>
      <trkpt lat="43.95869" lon="1.92549">
        <ele>296.8</ele>
        <time>2021-03-21T14:37:11Z</time>
      </trkpt>
      <trkpt lat="43.9587" lon="1.92545">
        <ele>296.8</ele>
        <time>2021-03-21T14:37:12Z</time>
      </trkpt>
      <trkpt lat="43.95872" lon="1.9254">
        <ele>296.6</ele>
        <time>2021-03-21T14:37:13Z</time>
      </trkpt>
      <trkpt lat="43.95873" lon="1.92536">
        <ele>296.8</ele>
        <time>2021-03-21T14:37:14Z</time>
      </trkpt>
      <trkpt lat="43.95875" lon="1.92532">
        <ele>297</ele>
        <time>2021-03-21T14:37:15Z</time>
      </trkpt>
      <trkpt lat="43.95877" lon="1.92527">
        <ele>297</ele>
        <time>2021-03-21T14:37:16Z</time>
      </trkpt>
      <trkpt lat="43.95878" lon="1.92523">
        <ele>297.2</ele>
        <time>2021-03-21T14:37:17Z</time>
      </trkpt>
      <trkpt lat="43.95882" lon="1.92514">
        <ele>297.6</ele>
        <time>2021-03-21T14:37:19Z</time>
      </trkpt>
      <trkpt lat="43.95884" lon="1.9251">
        <ele>297.8</ele>
        <time>2021-03-21T14:37:20Z</time>
      </trkpt>
      <trkpt lat="43.95886" lon="1.92505">
        <ele>297.8</ele>
        <time>2021-03-21T14:37:21Z</time>
      </trkpt>
      <trkpt lat="43.95888" lon="1.92501">
        <ele>297.8</ele>
        <time>2021-03-21T14:37:22Z</time>
      </trkpt>
      <trkpt lat="43.95893" lon="1.92493">
        <ele>298</ele>
        <time>2021-03-21T14:37:24Z</time>
      </trkpt>
      <trkpt lat="43.95895" lon="1.92489">
        <ele>298</ele>
        <time>2021-03-21T14:37:25Z</time>
      </trkpt>
      <trkpt lat="43.95897" lon="1.92485">
        <ele>298</ele>
        <time>2021-03-21T14:37:26Z</time>
      </trkpt>
      <trkpt lat="43.959" lon="1.92482">
        <ele>298.2</ele>
        <time>2021-03-21T14:37:27Z</time>
      </trkpt>
      <trkpt lat="43.95902" lon="1.92478">
        <ele>298.4</ele>
        <time>2021-03-21T14:37:28Z</time>
      </trkpt>
      <trkpt lat="43.95904" lon="1.92474">
        <ele>298.4</ele>
        <time>2021-03-21T14:37:29Z</time>
      </trkpt>
      <trkpt lat="43.95907" lon="1.9247">
        <ele>298.4</ele>
        <time>2021-03-21T14:37:30Z</time>
      </trkpt>
      <trkpt lat="43.95912" lon="1.92463">
        <ele>298.4</ele>
        <time>2021-03-21T14:37:32Z</time>
      </trkpt>
      <trkpt lat="43.95914" lon="1.92459">
        <ele>298.4</ele>
        <time>2021-03-21T14:37:33Z</time>
      </trkpt>
      <trkpt lat="43.95916" lon="1.92456">
        <ele>298.4</ele>
        <time>2021-03-21T14:37:34Z</time>
      </trkpt>
      <trkpt lat="43.95919" lon="1.92452">
        <ele>298.4</ele>
        <time>2021-03-21T14:37:35Z</time>
      </trkpt>
      <trkpt lat="43.95921" lon="1.92449">
        <ele>298.2</ele>
        <time>2021-03-21T14:37:36Z</time>
      </trkpt>
      <trkpt lat="43.95923" lon="1.92446">
        <ele>298</ele>
        <time>2021-03-21T14:37:37Z</time>
      </trkpt>
      <trkpt lat="43.95926" lon="1.92443">
        <ele>298.2</ele>
        <time>2021-03-21T14:37:38Z</time>
      </trkpt>
      <trkpt lat="43.95928" lon="1.9244">
        <ele>298.4</ele>
        <time>2021-03-21T14:37:39Z</time>
      </trkpt>
      <trkpt lat="43.9593" lon="1.92436">
        <ele>298.4</ele>
        <time>2021-03-21T14:37:40Z</time>
      </trkpt>
      <trkpt lat="43.95932" lon="1.92433">
        <ele>298.4</ele>
        <time>2021-03-21T14:37:41Z</time>
      </trkpt>
      <trkpt lat="43.95934" lon="1.92429">
        <ele>298.4</ele>
        <time>2021-03-21T14:37:42Z</time>
      </trkpt>
      <trkpt lat="43.95936" lon="1.92426">
        <ele>298.4</ele>
        <time>2021-03-21T14:37:43Z</time>
      </trkpt>
      <trkpt lat="43.95938" lon="1.92423">
        <ele>298.4</ele>
        <time>2021-03-21T14:37:44Z</time>
      </trkpt>
      <trkpt lat="43.9594" lon="1.9242">
        <ele>298.4</ele>
        <time>2021-03-21T14:37:45Z</time>
      </trkpt>
      <trkpt lat="43.95942" lon="1.92417">
        <ele>298.6</ele>
        <time>2021-03-21T14:37:46Z</time>
      </trkpt>
      <trkpt lat="43.95944" lon="1.92415">
        <ele>298.8</ele>
        <time>2021-03-21T14:37:47Z</time>
      </trkpt>
      <trkpt lat="43.95946" lon="1.92412">
        <ele>298.8</ele>
        <time>2021-03-21T14:37:48Z</time>
      </trkpt>
      <trkpt lat="43.95948" lon="1.92409">
        <ele>299</ele>
        <time>2021-03-21T14:37:49Z</time>
      </trkpt>
      <trkpt lat="43.9595" lon="1.92406">
        <ele>299.2</ele>
        <time>2021-03-21T14:37:50Z</time>
      </trkpt>
      <trkpt lat="43.95952" lon="1.92404">
        <ele>299.6</ele>
        <time>2021-03-21T14:37:51Z</time>
      </trkpt>
      <trkpt lat="43.95953" lon="1.92401">
        <ele>299.8</ele>
        <time>2021-03-21T14:37:52Z</time>
      </trkpt>
      <trkpt lat="43.95955" lon="1.92398">
        <ele>299.8</ele>
        <time>2021-03-21T14:37:53Z</time>
      </trkpt>
      <trkpt lat="43.95957" lon="1.92396">
        <ele>299.8</ele>
        <time>2021-03-21T14:37:54Z</time>
      </trkpt>
      <trkpt lat="43.95958" lon="1.92393">
        <ele>300</ele>
        <time>2021-03-21T14:37:55Z</time>
      </trkpt>
      <trkpt lat="43.9596" lon="1.92391">
        <ele>300</ele>
        <time>2021-03-21T14:37:56Z</time>
      </trkpt>
      <trkpt lat="43.95962" lon="1.9239">
        <ele>300.2</ele>
        <time>2021-03-21T14:37:57Z</time>
      </trkpt>
      <trkpt lat="43.95964" lon="1.92391">
        <ele>300.2</ele>
        <time>2021-03-21T14:37:58Z</time>
      </trkpt>
      <trkpt lat="43.95965" lon="1.92393">
        <ele>300</ele>
        <time>2021-03-21T14:37:59Z</time>
      </trkpt>
      <trkpt lat="43.95966" lon="1.92395">
        <ele>300</ele>
        <time>2021-03-21T14:38:00Z</time>
      </trkpt>
      <trkpt lat="43.95966" lon="1.92399">
        <ele>300.2</ele>
        <time>2021-03-21T14:38:01Z</time>
      </trkpt>
      <trkpt lat="43.95967" lon="1.92402">
        <ele>300.4</ele>
        <time>2021-03-21T14:38:02Z</time>
      </trkpt>
      <trkpt lat="43.95967" lon="1.92404">
        <ele>300.4</ele>
        <time>2021-03-21T14:38:03Z</time>
      </trkpt>
      <trkpt lat="43.95966" lon="1.92407">
        <ele>300.4</ele>
        <time>2021-03-21T14:38:04Z</time>
      </trkpt>
      <trkpt lat="43.95966" lon="1.92411">
        <ele>300.8</ele>
        <time>2021-03-21T14:38:05Z</time>
      </trkpt>
      <trkpt lat="43.95966" lon="1.92415">
        <ele>301.6</ele>
        <time>2021-03-21T14:38:06Z</time>
      </trkpt>
      <trkpt lat="43.95965" lon="1.92419">
        <ele>302.2</ele>
        <time>2021-03-21T14:38:07Z</time>
      </trkpt>
      <trkpt lat="43.95965" lon="1.92423">
        <ele>302.6</ele>
        <time>2021-03-21T14:38:08Z</time>
      </trkpt>
      <trkpt lat="43.95965" lon="1.92427">
        <ele>303</ele>
        <time>2021-03-21T14:38:09Z</time>
      </trkpt>
      <trkpt lat="43.95965" lon="1.92431">
        <ele>303</ele>
        <time>2021-03-21T14:38:10Z</time>
      </trkpt>
      <trkpt lat="43.95965" lon="1.92435">
        <ele>303.2</ele>
        <time>2021-03-21T14:38:11Z</time>
      </trkpt>
      <trkpt lat="43.95965" lon="1.92439">
        <ele>303.2</ele>
        <time>2021-03-21T14:38:12Z</time>
      </trkpt>
      <trkpt lat="43.95965" lon="1.92443">
        <ele>303.4</ele>
        <time>2021-03-21T14:38:13Z</time>
      </trkpt>
      <trkpt lat="43.95965" lon="1.92448">
        <ele>303.4</ele>
        <time>2021-03-21T14:38:14Z</time>
      </trkpt>
      <trkpt lat="43.95964" lon="1.92452">
        <ele>303.6</ele>
        <time>2021-03-21T14:38:15Z</time>
      </trkpt>
      <trkpt lat="43.95964" lon="1.92457">
        <ele>303.6</ele>
        <time>2021-03-21T14:38:16Z</time>
      </trkpt>
      <trkpt lat="43.95964" lon="1.92462">
        <ele>303.8</ele>
        <time>2021-03-21T14:38:17Z</time>
      </trkpt>
      <trkpt lat="43.95963" lon="1.92468">
        <ele>303.8</ele>
        <time>2021-03-21T14:38:18Z</time>
      </trkpt>
      <trkpt lat="43.95963" lon="1.92473">
        <ele>303.8</ele>
        <time>2021-03-21T14:38:19Z</time>
      </trkpt>
      <trkpt lat="43.95962" lon="1.92478">
        <ele>304</ele>
        <time>2021-03-21T14:38:20Z</time>
      </trkpt>
      <trkpt lat="43.95962" lon="1.92484">
        <ele>304</ele>
        <time>2021-03-21T14:38:21Z</time>
      </trkpt>
      <trkpt lat="43.95961" lon="1.92489">
        <ele>304</ele>
        <time>2021-03-21T14:38:22Z</time>
      </trkpt>
      <trkpt lat="43.9596" lon="1.92494">
        <ele>304</ele>
        <time>2021-03-21T14:38:23Z</time>
      </trkpt>
      <trkpt lat="43.9596" lon="1.92499">
        <ele>304.2</ele>
        <time>2021-03-21T14:38:24Z</time>
      </trkpt>
      <trkpt lat="43.95959" lon="1.92504">
        <ele>304.2</ele>
        <time>2021-03-21T14:38:25Z</time>
      </trkpt>
      <trkpt lat="43.95959" lon="1.9251">
        <ele>304.2</ele>
        <time>2021-03-21T14:38:26Z</time>
      </trkpt>
      <trkpt lat="43.95958" lon="1.92515">
        <ele>304.2</ele>
        <time>2021-03-21T14:38:27Z</time>
      </trkpt>
      <trkpt lat="43.95957" lon="1.92519">
        <ele>304.2</ele>
        <time>2021-03-21T14:38:28Z</time>
      </trkpt>
      <trkpt lat="43.95957" lon="1.92524">
        <ele>304.4</ele>
        <time>2021-03-21T14:38:29Z</time>
      </trkpt>
      <trkpt lat="43.95956" lon="1.92529">
        <ele>304.4</ele>
        <time>2021-03-21T14:38:30Z</time>
      </trkpt>
      <trkpt lat="43.95956" lon="1.92533">
        <ele>304.4</ele>
        <time>2021-03-21T14:38:31Z</time>
      </trkpt>
      <trkpt lat="43.95955" lon="1.92538">
        <ele>304.4</ele>
        <time>2021-03-21T14:38:32Z</time>
      </trkpt>
      <trkpt lat="43.95955" lon="1.92543">
        <ele>304.4</ele>
        <time>2021-03-21T14:38:33Z</time>
      </trkpt>
      <trkpt lat="43.95954" lon="1.92547">
        <ele>304.4</ele>
        <time>2021-03-21T14:38:34Z</time>
      </trkpt>
      <trkpt lat="43.95953" lon="1.92552">
        <ele>304.6</ele>
        <time>2021-03-21T14:38:35Z</time>
      </trkpt>
      <trkpt lat="43.95953" lon="1.92556">
        <ele>304.6</ele>
        <time>2021-03-21T14:38:36Z</time>
      </trkpt>
      <trkpt lat="43.95952" lon="1.92561">
        <ele>304.8</ele>
        <time>2021-03-21T14:38:37Z</time>
      </trkpt>
      <trkpt lat="43.95952" lon="1.92566">
        <ele>304.8</ele>
        <time>2021-03-21T14:38:38Z</time>
      </trkpt>
      <trkpt lat="43.95952" lon="1.92571">
        <ele>305</ele>
        <time>2021-03-21T14:38:39Z</time>
      </trkpt>
      <trkpt lat="43.95951" lon="1.92581">
        <ele>305</ele>
        <time>2021-03-21T14:38:41Z</time>
      </trkpt>
      <trkpt lat="43.9595" lon="1.92586">
        <ele>305</ele>
        <time>2021-03-21T14:38:42Z</time>
      </trkpt>
      <trkpt lat="43.9595" lon="1.92591">
        <ele>305</ele>
        <time>2021-03-21T14:38:43Z</time>
      </trkpt>
      <trkpt lat="43.95949" lon="1.92595">
        <ele>305</ele>
        <time>2021-03-21T14:38:44Z</time>
      </trkpt>
      <trkpt lat="43.95949" lon="1.92599">
        <ele>305.4</ele>
        <time>2021-03-21T14:38:45Z</time>
      </trkpt>
      <trkpt lat="43.95948" lon="1.92604">
        <ele>305.4</ele>
        <time>2021-03-21T14:38:46Z</time>
      </trkpt>
      <trkpt lat="43.95948" lon="1.92609">
        <ele>305.6</ele>
        <time>2021-03-21T14:38:47Z</time>
      </trkpt>
      <trkpt lat="43.95947" lon="1.92613">
        <ele>305.8</ele>
        <time>2021-03-21T14:38:48Z</time>
      </trkpt>
      <trkpt lat="43.95947" lon="1.92618">
        <ele>305.8</ele>
        <time>2021-03-21T14:38:49Z</time>
      </trkpt>
      <trkpt lat="43.95947" lon="1.92622">
        <ele>305.8</ele>
        <time>2021-03-21T14:38:50Z</time>
      </trkpt>
      <trkpt lat="43.95947" lon="1.92626">
        <ele>305.8</ele>
        <time>2021-03-21T14:38:51Z</time>
      </trkpt>
      <trkpt lat="43.95947" lon="1.92631">
        <ele>305.8</ele>
        <time>2021-03-21T14:38:52Z</time>
      </trkpt>
      <trkpt lat="43.95948" lon="1.92635">
        <ele>305.8</ele>
        <time>2021-03-21T14:38:53Z</time>
      </trkpt>
      <trkpt lat="43.95948" lon="1.9264">
        <ele>306</ele>
        <time>2021-03-21T14:38:54Z</time>
      </trkpt>
      <trkpt lat="43.95948" lon="1.92644">
        <ele>306</ele>
        <time>2021-03-21T14:38:55Z</time>
      </trkpt>
      <trkpt lat="43.95948" lon="1.92648">
        <ele>306.2</ele>
        <time>2021-03-21T14:38:56Z</time>
      </trkpt>
      <trkpt lat="43.95948" lon="1.92652">
        <ele>306.6</ele>
        <time>2021-03-21T14:38:57Z</time>
      </trkpt>
      <trkpt lat="43.95948" lon="1.92656">
        <ele>306.6</ele>
        <time>2021-03-21T14:38:58Z</time>
      </trkpt>
      <trkpt lat="43.95949" lon="1.9266">
        <ele>306.8</ele>
        <time>2021-03-21T14:38:59Z</time>
      </trkpt>
      <trkpt lat="43.95949" lon="1.92664">
        <ele>307</ele>
        <time>2021-03-21T14:39:00Z</time>
      </trkpt>
      <trkpt lat="43.95949" lon="1.92667">
        <ele>307</ele>
        <time>2021-03-21T14:39:01Z</time>
      </trkpt>
      <trkpt lat="43.95949" lon="1.9267">
        <ele>307</ele>
        <time>2021-03-21T14:39:02Z</time>
      </trkpt>
      <trkpt lat="43.95948" lon="1.92673">
        <ele>307</ele>
        <time>2021-03-21T14:39:03Z</time>
      </trkpt>
      <trkpt lat="43.95946" lon="1.92676">
        <ele>307.2</ele>
        <time>2021-03-21T14:39:04Z</time>
      </trkpt>
      <trkpt lat="43.95945" lon="1.92679">
        <ele>307.4</ele>
        <time>2021-03-21T14:39:05Z</time>
      </trkpt>
      <trkpt lat="43.95943" lon="1.92683">
        <ele>307.8</ele>
        <time>2021-03-21T14:39:06Z</time>
      </trkpt>
      <trkpt lat="43.95942" lon="1.92687">
        <ele>308</ele>
        <time>2021-03-21T14:39:07Z</time>
      </trkpt>
      <trkpt lat="43.9594" lon="1.92692">
        <ele>308.2</ele>
        <time>2021-03-21T14:39:08Z</time>
      </trkpt>
      <trkpt lat="43.95939" lon="1.92697">
        <ele>308.2</ele>
        <time>2021-03-21T14:39:09Z</time>
      </trkpt>
      <trkpt lat="43.95937" lon="1.92702">
        <ele>308.6</ele>
        <time>2021-03-21T14:39:10Z</time>
      </trkpt>
      <trkpt lat="43.95936" lon="1.92707">
        <ele>309</ele>
        <time>2021-03-21T14:39:11Z</time>
      </trkpt>
      <trkpt lat="43.95935" lon="1.92712">
        <ele>309</ele>
        <time>2021-03-21T14:39:12Z</time>
      </trkpt>
      <trkpt lat="43.95933" lon="1.92717">
        <ele>309.2</ele>
        <time>2021-03-21T14:39:13Z</time>
      </trkpt>
      <trkpt lat="43.95932" lon="1.92721">
        <ele>309.2</ele>
        <time>2021-03-21T14:39:14Z</time>
      </trkpt>
      <trkpt lat="43.9593" lon="1.92726">
        <ele>309.2</ele>
        <time>2021-03-21T14:39:15Z</time>
      </trkpt>
      <trkpt lat="43.95929" lon="1.9273">
        <ele>309.2</ele>
        <time>2021-03-21T14:39:16Z</time>
      </trkpt>
      <trkpt lat="43.95928" lon="1.92735">
        <ele>309.4</ele>
        <time>2021-03-21T14:39:17Z</time>
      </trkpt>
      <trkpt lat="43.95926" lon="1.92739">
        <ele>309.4</ele>
        <time>2021-03-21T14:39:18Z</time>
      </trkpt>
      <trkpt lat="43.95925" lon="1.92743">
        <ele>309.4</ele>
        <time>2021-03-21T14:39:19Z</time>
      </trkpt>
      <trkpt lat="43.95924" lon="1.92747">
        <ele>309.2</ele>
        <time>2021-03-21T14:39:20Z</time>
      </trkpt>
      <trkpt lat="43.95923" lon="1.92751">
        <ele>309.4</ele>
        <time>2021-03-21T14:39:21Z</time>
      </trkpt>
      <trkpt lat="43.95922" lon="1.92755">
        <ele>309.4</ele>
        <time>2021-03-21T14:39:22Z</time>
      </trkpt>
      <trkpt lat="43.95921" lon="1.92758">
        <ele>309.4</ele>
        <time>2021-03-21T14:39:23Z</time>
      </trkpt>
      <trkpt lat="43.95919" lon="1.92761">
        <ele>309.4</ele>
        <time>2021-03-21T14:39:24Z</time>
      </trkpt>
      <trkpt lat="43.95918" lon="1.92765">
        <ele>309.6</ele>
        <time>2021-03-21T14:39:25Z</time>
      </trkpt>
      <trkpt lat="43.95917" lon="1.92768">
        <ele>309.4</ele>
        <time>2021-03-21T14:39:26Z</time>
      </trkpt>
      <trkpt lat="43.95916" lon="1.92772">
        <ele>309.6</ele>
        <time>2021-03-21T14:39:27Z</time>
      </trkpt>
      <trkpt lat="43.95915" lon="1.92775">
        <ele>310</ele>
        <time>2021-03-21T14:39:28Z</time>
      </trkpt>
      <trkpt lat="43.95914" lon="1.92778">
        <ele>310.2</ele>
        <time>2021-03-21T14:39:29Z</time>
      </trkpt>
      <trkpt lat="43.95912" lon="1.92781">
        <ele>310.4</ele>
        <time>2021-03-21T14:39:30Z</time>
      </trkpt>
      <trkpt lat="43.95911" lon="1.92784">
        <ele>310.6</ele>
        <time>2021-03-21T14:39:31Z</time>
      </trkpt>
      <trkpt lat="43.95909" lon="1.92787">
        <ele>310.8</ele>
        <time>2021-03-21T14:39:32Z</time>
      </trkpt>
      <trkpt lat="43.95908" lon="1.9279">
        <ele>311.2</ele>
        <time>2021-03-21T14:39:33Z</time>
      </trkpt>
      <trkpt lat="43.95906" lon="1.92793">
        <ele>311.8</ele>
        <time>2021-03-21T14:39:34Z</time>
      </trkpt>
      <trkpt lat="43.95905" lon="1.92796">
        <ele>311.8</ele>
        <time>2021-03-21T14:39:35Z</time>
      </trkpt>
      <trkpt lat="43.95904" lon="1.92799">
        <ele>312</ele>
        <time>2021-03-21T14:39:36Z</time>
      </trkpt>
      <trkpt lat="43.95902" lon="1.92803">
        <ele>312.2</ele>
        <time>2021-03-21T14:39:37Z</time>
      </trkpt>
      <trkpt lat="43.95901" lon="1.92806">
        <ele>312.4</ele>
        <time>2021-03-21T14:39:38Z</time>
      </trkpt>
      <trkpt lat="43.959" lon="1.92808">
        <ele>312.8</ele>
        <time>2021-03-21T14:39:39Z</time>
      </trkpt>
      <trkpt lat="43.95899" lon="1.92811">
        <ele>313</ele>
        <time>2021-03-21T14:39:40Z</time>
      </trkpt>
      <trkpt lat="43.95897" lon="1.92814">
        <ele>313</ele>
        <time>2021-03-21T14:39:41Z</time>
      </trkpt>
      <trkpt lat="43.95896" lon="1.92817">
        <ele>313.2</ele>
        <time>2021-03-21T14:39:42Z</time>
      </trkpt>
      <trkpt lat="43.95895" lon="1.9282">
        <ele>313.4</ele>
        <time>2021-03-21T14:39:43Z</time>
      </trkpt>
      <trkpt lat="43.95894" lon="1.92823">
        <ele>313.6</ele>
        <time>2021-03-21T14:39:44Z</time>
      </trkpt>
      <trkpt lat="43.95892" lon="1.92826">
        <ele>313.6</ele>
        <time>2021-03-21T14:39:45Z</time>
      </trkpt>
      <trkpt lat="43.95891" lon="1.92829">
        <ele>313.8</ele>
        <time>2021-03-21T14:39:46Z</time>
      </trkpt>
      <trkpt lat="43.9589" lon="1.92831">
        <ele>314.2</ele>
        <time>2021-03-21T14:39:47Z</time>
      </trkpt>
      <trkpt lat="43.95889" lon="1.92834">
        <ele>314.4</ele>
        <time>2021-03-21T14:39:48Z</time>
      </trkpt>
      <trkpt lat="43.95888" lon="1.92837">
        <ele>314.6</ele>
        <time>2021-03-21T14:39:49Z</time>
      </trkpt>
      <trkpt lat="43.95887" lon="1.92839">
        <ele>314.8</ele>
        <time>2021-03-21T14:39:50Z</time>
      </trkpt>
      <trkpt lat="43.95886" lon="1.92842">
        <ele>314.8</ele>
        <time>2021-03-21T14:39:51Z</time>
      </trkpt>
      <trkpt lat="43.95885" lon="1.92844">
        <ele>314.8</ele>
        <time>2021-03-21T14:39:52Z</time>
      </trkpt>
      <trkpt lat="43.95884" lon="1.92847">
        <ele>315</ele>
        <time>2021-03-21T14:39:53Z</time>
      </trkpt>
      <trkpt lat="43.95883" lon="1.92849">
        <ele>315</ele>
        <time>2021-03-21T14:39:54Z</time>
      </trkpt>
      <trkpt lat="43.95882" lon="1.92852">
        <ele>315.2</ele>
        <time>2021-03-21T14:39:55Z</time>
      </trkpt>
      <trkpt lat="43.95881" lon="1.92855">
        <ele>315.2</ele>
        <time>2021-03-21T14:39:56Z</time>
      </trkpt>
      <trkpt lat="43.9588" lon="1.92857">
        <ele>315.4</ele>
        <time>2021-03-21T14:39:57Z</time>
      </trkpt>
      <trkpt lat="43.95879" lon="1.9286">
        <ele>316</ele>
        <time>2021-03-21T14:39:58Z</time>
      </trkpt>
      <trkpt lat="43.95878" lon="1.92863">
        <ele>316.4</ele>
        <time>2021-03-21T14:39:59Z</time>
      </trkpt>
      <trkpt lat="43.95877" lon="1.92865">
        <ele>316.4</ele>
        <time>2021-03-21T14:40:00Z</time>
      </trkpt>
      <trkpt lat="43.95876" lon="1.92868">
        <ele>316.6</ele>
        <time>2021-03-21T14:40:01Z</time>
      </trkpt>
      <trkpt lat="43.95875" lon="1.92871">
        <ele>316.6</ele>
        <time>2021-03-21T14:40:02Z</time>
      </trkpt>
      <trkpt lat="43.95875" lon="1.92873">
        <ele>316.8</ele>
        <time>2021-03-21T14:40:03Z</time>
      </trkpt>
      <trkpt lat="43.95874" lon="1.92876">
        <ele>316.8</ele>
        <time>2021-03-21T14:40:04Z</time>
      </trkpt>
      <trkpt lat="43.95874" lon="1.92879">
        <ele>316.8</ele>
        <time>2021-03-21T14:40:05Z</time>
      </trkpt>
      <trkpt lat="43.95873" lon="1.92881">
        <ele>316.8</ele>
        <time>2021-03-21T14:40:06Z</time>
      </trkpt>
      <trkpt lat="43.95872" lon="1.92884">
        <ele>317</ele>
        <time>2021-03-21T14:40:07Z</time>
      </trkpt>
      <trkpt lat="43.95872" lon="1.92886">
        <ele>317</ele>
        <time>2021-03-21T14:40:08Z</time>
      </trkpt>
      <trkpt lat="43.95871" lon="1.92889">
        <ele>317.2</ele>
        <time>2021-03-21T14:40:09Z</time>
      </trkpt>
      <trkpt lat="43.9587" lon="1.92892">
        <ele>317.6</ele>
        <time>2021-03-21T14:40:10Z</time>
      </trkpt>
      <trkpt lat="43.95869" lon="1.92894">
        <ele>317.6</ele>
        <time>2021-03-21T14:40:11Z</time>
      </trkpt>
      <trkpt lat="43.95868" lon="1.92897">
        <ele>318</ele>
        <time>2021-03-21T14:40:12Z</time>
      </trkpt>
      <trkpt lat="43.95867" lon="1.929">
        <ele>318.2</ele>
        <time>2021-03-21T14:40:13Z</time>
      </trkpt>
      <trkpt lat="43.95866" lon="1.92903">
        <ele>318.6</ele>
        <time>2021-03-21T14:40:14Z</time>
      </trkpt>
      <trkpt lat="43.95865" lon="1.92906">
        <ele>319</ele>
        <time>2021-03-21T14:40:15Z</time>
      </trkpt>
      <trkpt lat="43.95864" lon="1.92909">
        <ele>319</ele>
        <time>2021-03-21T14:40:16Z</time>
      </trkpt>
      <trkpt lat="43.95863" lon="1.92912">
        <ele>319.2</ele>
        <time>2021-03-21T14:40:17Z</time>
      </trkpt>
      <trkpt lat="43.95863" lon="1.92915">
        <ele>319</ele>
        <time>2021-03-21T14:40:18Z</time>
      </trkpt>
      <trkpt lat="43.95862" lon="1.92918">
        <ele>319</ele>
        <time>2021-03-21T14:40:19Z</time>
      </trkpt>
      <trkpt lat="43.95861" lon="1.92921">
        <ele>319.2</ele>
        <time>2021-03-21T14:40:20Z</time>
      </trkpt>
      <trkpt lat="43.9586" lon="1.92924">
        <ele>319.4</ele>
        <time>2021-03-21T14:40:21Z</time>
      </trkpt>
      <trkpt lat="43.95859" lon="1.92926">
        <ele>319.4</ele>
        <time>2021-03-21T14:40:22Z</time>
      </trkpt>
      <trkpt lat="43.95858" lon="1.92929">
        <ele>319.4</ele>
        <time>2021-03-21T14:40:23Z</time>
      </trkpt>
      <trkpt lat="43.95857" lon="1.92932">
        <ele>319.6</ele>
        <time>2021-03-21T14:40:24Z</time>
      </trkpt>
      <trkpt lat="43.95856" lon="1.92935">
        <ele>319.6</ele>
        <time>2021-03-21T14:40:25Z</time>
      </trkpt>
      <trkpt lat="43.95855" lon="1.92937">
        <ele>319.6</ele>
        <time>2021-03-21T14:40:26Z</time>
      </trkpt>
      <trkpt lat="43.95853" lon="1.9294">
        <ele>319.8</ele>
        <time>2021-03-21T14:40:27Z</time>
      </trkpt>
      <trkpt lat="43.95852" lon="1.92942">
        <ele>320.2</ele>
        <time>2021-03-21T14:40:28Z</time>
      </trkpt>
      <trkpt lat="43.95851" lon="1.92945">
        <ele>320.4</ele>
        <time>2021-03-21T14:40:29Z</time>
      </trkpt>
      <trkpt lat="43.9585" lon="1.92948">
        <ele>320.6</ele>
        <time>2021-03-21T14:40:30Z</time>
      </trkpt>
      <trkpt lat="43.95849" lon="1.92951">
        <ele>320.8</ele>
        <time>2021-03-21T14:40:31Z</time>
      </trkpt>
      <trkpt lat="43.95848" lon="1.92954">
        <ele>321</ele>
        <time>2021-03-21T14:40:32Z</time>
      </trkpt>
      <trkpt lat="43.95846" lon="1.92956">
        <ele>321</ele>
        <time>2021-03-21T14:40:33Z</time>
      </trkpt>
      <trkpt lat="43.95845" lon="1.92959">
        <ele>321</ele>
        <time>2021-03-21T14:40:34Z</time>
      </trkpt>
      <trkpt lat="43.95844" lon="1.92962">
        <ele>321.4</ele>
        <time>2021-03-21T14:40:35Z</time>
      </trkpt>
      <trkpt lat="43.95842" lon="1.92965">
        <ele>321.6</ele>
        <time>2021-03-21T14:40:36Z</time>
      </trkpt>
      <trkpt lat="43.95841" lon="1.92967">
        <ele>321.6</ele>
        <time>2021-03-21T14:40:37Z</time>
      </trkpt>
      <trkpt lat="43.9584" lon="1.9297">
        <ele>321.8</ele>
        <time>2021-03-21T14:40:38Z</time>
      </trkpt>
      <trkpt lat="43.95838" lon="1.92972">
        <ele>321.8</ele>
        <time>2021-03-21T14:40:39Z</time>
      </trkpt>
      <trkpt lat="43.95837" lon="1.92975">
        <ele>321.8</ele>
        <time>2021-03-21T14:40:40Z</time>
      </trkpt>
      <trkpt lat="43.95836" lon="1.92977">
        <ele>321.8</ele>
        <time>2021-03-21T14:40:41Z</time>
      </trkpt>
      <trkpt lat="43.95835" lon="1.9298">
        <ele>321.8</ele>
        <time>2021-03-21T14:40:42Z</time>
      </trkpt>
      <trkpt lat="43.95834" lon="1.92983">
        <ele>322</ele>
        <time>2021-03-21T14:40:43Z</time>
      </trkpt>
      <trkpt lat="43.95833" lon="1.92985">
        <ele>322.2</ele>
        <time>2021-03-21T14:40:44Z</time>
      </trkpt>
      <trkpt lat="43.95831" lon="1.92988">
        <ele>322.4</ele>
        <time>2021-03-21T14:40:45Z</time>
      </trkpt>
      <trkpt lat="43.9583" lon="1.9299">
        <ele>322.4</ele>
        <time>2021-03-21T14:40:46Z</time>
      </trkpt>
      <trkpt lat="43.95829" lon="1.92992">
        <ele>322.6</ele>
        <time>2021-03-21T14:40:47Z</time>
      </trkpt>
      <trkpt lat="43.95827" lon="1.92995">
        <ele>322.8</ele>
        <time>2021-03-21T14:40:48Z</time>
      </trkpt>
      <trkpt lat="43.95826" lon="1.92997">
        <ele>323.2</ele>
        <time>2021-03-21T14:40:49Z</time>
      </trkpt>
      <trkpt lat="43.95826" lon="1.92999">
        <ele>323.2</ele>
        <time>2021-03-21T14:40:50Z</time>
      </trkpt>
      <trkpt lat="43.95825" lon="1.93001">
        <ele>323.2</ele>
        <time>2021-03-21T14:40:51Z</time>
      </trkpt>
      <trkpt lat="43.95824" lon="1.93003">
        <ele>323.6</ele>
        <time>2021-03-21T14:40:52Z</time>
      </trkpt>
      <trkpt lat="43.95823" lon="1.93005">
        <ele>324</ele>
        <time>2021-03-21T14:40:53Z</time>
      </trkpt>
      <trkpt lat="43.95823" lon="1.93006">
        <ele>324</ele>
        <time>2021-03-21T14:40:54Z</time>
      </trkpt>
      <trkpt lat="43.95822" lon="1.93008">
        <ele>324</ele>
        <time>2021-03-21T14:40:55Z</time>
      </trkpt>
      <trkpt lat="43.95821" lon="1.9301">
        <ele>324.4</ele>
        <time>2021-03-21T14:40:56Z</time>
      </trkpt>
      <trkpt lat="43.95821" lon="1.93012">
        <ele>324.2</ele>
        <time>2021-03-21T14:40:57Z</time>
      </trkpt>
      <trkpt lat="43.9582" lon="1.93013">
        <ele>324.6</ele>
        <time>2021-03-21T14:40:58Z</time>
      </trkpt>
      <trkpt lat="43.95819" lon="1.93015">
        <ele>325</ele>
        <time>2021-03-21T14:40:59Z</time>
      </trkpt>
      <trkpt lat="43.95819" lon="1.93017">
        <ele>325.2</ele>
        <time>2021-03-21T14:41:00Z</time>
      </trkpt>
      <trkpt lat="43.95818" lon="1.93018">
        <ele>325.4</ele>
        <time>2021-03-21T14:41:01Z</time>
      </trkpt>
      <trkpt lat="43.95817" lon="1.9302">
        <ele>325.4</ele>
        <time>2021-03-21T14:41:02Z</time>
      </trkpt>
      <trkpt lat="43.95817" lon="1.93022">
        <ele>325.6</ele>
        <time>2021-03-21T14:41:03Z</time>
      </trkpt>
      <trkpt lat="43.95816" lon="1.93024">
        <ele>325.8</ele>
        <time>2021-03-21T14:41:04Z</time>
      </trkpt>
      <trkpt lat="43.95815" lon="1.93026">
        <ele>326</ele>
        <time>2021-03-21T14:41:05Z</time>
      </trkpt>
      <trkpt lat="43.95815" lon="1.93027">
        <ele>326.4</ele>
        <time>2021-03-21T14:41:06Z</time>
      </trkpt>
      <trkpt lat="43.95814" lon="1.93029">
        <ele>326.8</ele>
        <time>2021-03-21T14:41:07Z</time>
      </trkpt>
      <trkpt lat="43.95814" lon="1.9303">
        <ele>326.8</ele>
        <time>2021-03-21T14:41:08Z</time>
      </trkpt>
      <trkpt lat="43.95813" lon="1.93032">
        <ele>327</ele>
        <time>2021-03-21T14:41:09Z</time>
      </trkpt>
      <trkpt lat="43.95813" lon="1.93033">
        <ele>327.4</ele>
        <time>2021-03-21T14:41:10Z</time>
      </trkpt>
      <trkpt lat="43.95812" lon="1.93034">
        <ele>327.6</ele>
        <time>2021-03-21T14:41:11Z</time>
      </trkpt>
      <trkpt lat="43.95811" lon="1.93036">
        <ele>327.8</ele>
        <time>2021-03-21T14:41:12Z</time>
      </trkpt>
      <trkpt lat="43.95811" lon="1.93037">
        <ele>328</ele>
        <time>2021-03-21T14:41:13Z</time>
      </trkpt>
      <trkpt lat="43.9581" lon="1.93038">
        <ele>328.2</ele>
        <time>2021-03-21T14:41:14Z</time>
      </trkpt>
      <trkpt lat="43.9581" lon="1.93039">
        <ele>328.4</ele>
        <time>2021-03-21T14:41:15Z</time>
      </trkpt>
      <trkpt lat="43.95809" lon="1.9304">
        <ele>328.4</ele>
        <time>2021-03-21T14:41:16Z</time>
      </trkpt>
      <trkpt lat="43.95809" lon="1.93042">
        <ele>328.6</ele>
        <time>2021-03-21T14:41:17Z</time>
      </trkpt>
      <trkpt lat="43.95808" lon="1.93043">
        <ele>329.2</ele>
        <time>2021-03-21T14:41:18Z</time>
      </trkpt>
      <trkpt lat="43.95808" lon="1.93044">
        <ele>329.4</ele>
        <time>2021-03-21T14:41:19Z</time>
      </trkpt>
      <trkpt lat="43.95808" lon="1.93046">
        <ele>329.6</ele>
        <time>2021-03-21T14:41:20Z</time>
      </trkpt>
      <trkpt lat="43.95807" lon="1.93047">
        <ele>330</ele>
        <time>2021-03-21T14:41:21Z</time>
      </trkpt>
      <trkpt lat="43.95807" lon="1.93049">
        <ele>330</ele>
        <time>2021-03-21T14:41:22Z</time>
      </trkpt>
      <trkpt lat="43.95806" lon="1.9305">
        <ele>330.2</ele>
        <time>2021-03-21T14:41:23Z</time>
      </trkpt>
      <trkpt lat="43.95806" lon="1.93051">
        <ele>330.6</ele>
        <time>2021-03-21T14:41:24Z</time>
      </trkpt>
      <trkpt lat="43.95806" lon="1.93052">
        <ele>330.8</ele>
        <time>2021-03-21T14:41:25Z</time>
      </trkpt>
      <trkpt lat="43.95805" lon="1.93053">
        <ele>331</ele>
        <time>2021-03-21T14:41:26Z</time>
      </trkpt>
      <trkpt lat="43.95804" lon="1.93054">
        <ele>331.4</ele>
        <time>2021-03-21T14:41:27Z</time>
      </trkpt>
      <trkpt lat="43.95804" lon="1.93055">
        <ele>331.6</ele>
        <time>2021-03-21T14:41:28Z</time>
      </trkpt>
      <trkpt lat="43.95803" lon="1.93057">
        <ele>331.6</ele>
        <time>2021-03-21T14:41:29Z</time>
      </trkpt>
      <trkpt lat="43.95803" lon="1.93058">
        <ele>331.8</ele>
        <time>2021-03-21T14:41:30Z</time>
      </trkpt>
      <trkpt lat="43.95802" lon="1.93059">
        <ele>332</ele>
        <time>2021-03-21T14:41:31Z</time>
      </trkpt>
      <trkpt lat="43.95802" lon="1.9306">
        <ele>332.2</ele>
        <time>2021-03-21T14:41:32Z</time>
      </trkpt>
      <trkpt lat="43.95802" lon="1.93061">
        <ele>332.2</ele>
        <time>2021-03-21T14:41:33Z</time>
      </trkpt>
      <trkpt lat="43.95801" lon="1.93062">
        <ele>332.4</ele>
        <time>2021-03-21T14:41:34Z</time>
      </trkpt>
      <trkpt lat="43.95801" lon="1.93064">
        <ele>332.4</ele>
        <time>2021-03-21T14:41:35Z</time>
      </trkpt>
      <trkpt lat="43.958" lon="1.93065">
        <ele>332.6</ele>
        <time>2021-03-21T14:41:36Z</time>
      </trkpt>
      <trkpt lat="43.95799" lon="1.93066">
        <ele>332.6</ele>
        <time>2021-03-21T14:41:37Z</time>
      </trkpt>
      <trkpt lat="43.95797" lon="1.93067">
        <ele>332.6</ele>
        <time>2021-03-21T14:41:38Z</time>
      </trkpt>
      <trkpt lat="43.95796" lon="1.93068">
        <ele>332.8</ele>
        <time>2021-03-21T14:41:39Z</time>
      </trkpt>
      <trkpt lat="43.95795" lon="1.93069">
        <ele>332.8</ele>
        <time>2021-03-21T14:41:40Z</time>
      </trkpt>
      <trkpt lat="43.95793" lon="1.9307">
        <ele>332.8</ele>
        <time>2021-03-21T14:41:41Z</time>
      </trkpt>
      <trkpt lat="43.95792" lon="1.9307">
        <ele>333</ele>
        <time>2021-03-21T14:41:42Z</time>
      </trkpt>
      <trkpt lat="43.95791" lon="1.9307">
        <ele>333</ele>
        <time>2021-03-21T14:41:43Z</time>
      </trkpt>
      <trkpt lat="43.9579" lon="1.9307">
        <ele>333.2</ele>
        <time>2021-03-21T14:41:44Z</time>
      </trkpt>
      <trkpt lat="43.95788" lon="1.9307">
        <ele>333.4</ele>
        <time>2021-03-21T14:41:45Z</time>
      </trkpt>
      <trkpt lat="43.95787" lon="1.9307">
        <ele>333.8</ele>
        <time>2021-03-21T14:41:46Z</time>
      </trkpt>
      <trkpt lat="43.95786" lon="1.9307">
        <ele>334.2</ele>
        <time>2021-03-21T14:41:47Z</time>
      </trkpt>
      <trkpt lat="43.95785" lon="1.9307">
        <ele>334.2</ele>
        <time>2021-03-21T14:41:48Z</time>
      </trkpt>
      <trkpt lat="43.95783" lon="1.93071">
        <ele>334.2</ele>
        <time>2021-03-21T14:41:49Z</time>
      </trkpt>
      <trkpt lat="43.95782" lon="1.93071">
        <ele>334.8</ele>
        <time>2021-03-21T14:41:50Z</time>
      </trkpt>
      <trkpt lat="43.95781" lon="1.93071">
        <ele>334.8</ele>
        <time>2021-03-21T14:41:51Z</time>
      </trkpt>
      <trkpt lat="43.9578" lon="1.9307">
        <ele>335.4</ele>
        <time>2021-03-21T14:41:52Z</time>
      </trkpt>
      <trkpt lat="43.95779" lon="1.9307">
        <ele>335.4</ele>
        <time>2021-03-21T14:41:53Z</time>
      </trkpt>
      <trkpt lat="43.95778" lon="1.93071">
        <ele>335.8</ele>
        <time>2021-03-21T14:41:54Z</time>
      </trkpt>
      <trkpt lat="43.95776" lon="1.93071">
        <ele>336</ele>
        <time>2021-03-21T14:41:55Z</time>
      </trkpt>
      <trkpt lat="43.95775" lon="1.93071">
        <ele>336.4</ele>
        <time>2021-03-21T14:41:56Z</time>
      </trkpt>
      <trkpt lat="43.95775" lon="1.93072">
        <ele>336.8</ele>
        <time>2021-03-21T14:41:57Z</time>
      </trkpt>
      <trkpt lat="43.95774" lon="1.93073">
        <ele>337</ele>
        <time>2021-03-21T14:41:58Z</time>
      </trkpt>
      <trkpt lat="43.95773" lon="1.93073">
        <ele>337.2</ele>
        <time>2021-03-21T14:41:59Z</time>
      </trkpt>
      <trkpt lat="43.95773" lon="1.93074">
        <ele>337.4</ele>
        <time>2021-03-21T14:42:00Z</time>
      </trkpt>
      <trkpt lat="43.95772" lon="1.93075">
        <ele>337.6</ele>
        <time>2021-03-21T14:42:01Z</time>
      </trkpt>
      <trkpt lat="43.95771" lon="1.93076">
        <ele>337.8</ele>
        <time>2021-03-21T14:42:02Z</time>
      </trkpt>
      <trkpt lat="43.9577" lon="1.93077">
        <ele>337.8</ele>
        <time>2021-03-21T14:42:03Z</time>
      </trkpt>
      <trkpt lat="43.95769" lon="1.93077">
        <ele>338.2</ele>
        <time>2021-03-21T14:42:04Z</time>
      </trkpt>
      <trkpt lat="43.95769" lon="1.93078">
        <ele>338.4</ele>
        <time>2021-03-21T14:42:05Z</time>
      </trkpt>
      <trkpt lat="43.95768" lon="1.93079">
        <ele>338.8</ele>
        <time>2021-03-21T14:42:06Z</time>
      </trkpt>
      <trkpt lat="43.95767" lon="1.9308">
        <ele>339.4</ele>
        <time>2021-03-21T14:42:07Z</time>
      </trkpt>
      <trkpt lat="43.95766" lon="1.9308">
        <ele>339.8</ele>
        <time>2021-03-21T14:42:08Z</time>
      </trkpt>
      <trkpt lat="43.95765" lon="1.93081">
        <ele>340</ele>
        <time>2021-03-21T14:42:09Z</time>
      </trkpt>
      <trkpt lat="43.95764" lon="1.93082">
        <ele>340.4</ele>
        <time>2021-03-21T14:42:10Z</time>
      </trkpt>
      <trkpt lat="43.95763" lon="1.93083">
        <ele>340.4</ele>
        <time>2021-03-21T14:42:11Z</time>
      </trkpt>
      <trkpt lat="43.95762" lon="1.93083">
        <ele>340.8</ele>
        <time>2021-03-21T14:42:12Z</time>
      </trkpt>
      <trkpt lat="43.95762" lon="1.93084">
        <ele>340.8</ele>
        <time>2021-03-21T14:42:13Z</time>
      </trkpt>
      <trkpt lat="43.95761" lon="1.93086">
        <ele>341</ele>
        <time>2021-03-21T14:42:14Z</time>
      </trkpt>
      <trkpt lat="43.9576" lon="1.93087">
        <ele>341.4</ele>
        <time>2021-03-21T14:42:15Z</time>
      </trkpt>
      <trkpt lat="43.9576" lon="1.93089">
        <ele>341.6</ele>
        <time>2021-03-21T14:42:16Z</time>
      </trkpt>
      <trkpt lat="43.95759" lon="1.9309">
        <ele>341.8</ele>
        <time>2021-03-21T14:42:17Z</time>
      </trkpt>
      <trkpt lat="43.95758" lon="1.93091">
        <ele>342</ele>
        <time>2021-03-21T14:42:18Z</time>
      </trkpt>
      <trkpt lat="43.95758" lon="1.93093">
        <ele>342</ele>
        <time>2021-03-21T14:42:19Z</time>
      </trkpt>
      <trkpt lat="43.95757" lon="1.93094">
        <ele>342.2</ele>
        <time>2021-03-21T14:42:20Z</time>
      </trkpt>
      <trkpt lat="43.95756" lon="1.93095">
        <ele>342.2</ele>
        <time>2021-03-21T14:42:21Z</time>
      </trkpt>
      <trkpt lat="43.95756" lon="1.93097">
        <ele>342.2</ele>
        <time>2021-03-21T14:42:22Z</time>
      </trkpt>
      <trkpt lat="43.95755" lon="1.93098">
        <ele>342.4</ele>
        <time>2021-03-21T14:42:23Z</time>
      </trkpt>
      <trkpt lat="43.95755" lon="1.931">
        <ele>342.6</ele>
        <time>2021-03-21T14:42:24Z</time>
      </trkpt>
      <trkpt lat="43.95754" lon="1.93101">
        <ele>342.6</ele>
        <time>2021-03-21T14:42:25Z</time>
      </trkpt>
      <trkpt lat="43.95753" lon="1.93102">
        <ele>342.8</ele>
        <time>2021-03-21T14:42:26Z</time>
      </trkpt>
      <trkpt lat="43.95752" lon="1.93103">
        <ele>343</ele>
        <time>2021-03-21T14:42:27Z</time>
      </trkpt>
      <trkpt lat="43.95751" lon="1.93105">
        <ele>342.8</ele>
        <time>2021-03-21T14:42:28Z</time>
      </trkpt>
      <trkpt lat="43.9575" lon="1.93106">
        <ele>343</ele>
        <time>2021-03-21T14:42:29Z</time>
      </trkpt>
      <trkpt lat="43.95749" lon="1.93107">
        <ele>343.2</ele>
        <time>2021-03-21T14:42:30Z</time>
      </trkpt>
      <trkpt lat="43.95749" lon="1.93109">
        <ele>343</ele>
        <time>2021-03-21T14:42:31Z</time>
      </trkpt>
      <trkpt lat="43.95748" lon="1.93111">
        <ele>343.2</ele>
        <time>2021-03-21T14:42:32Z</time>
      </trkpt>
      <trkpt lat="43.95747" lon="1.93113">
        <ele>343</ele>
        <time>2021-03-21T14:42:33Z</time>
      </trkpt>
      <trkpt lat="43.95747" lon="1.93114">
        <ele>343.2</ele>
        <time>2021-03-21T14:42:34Z</time>
      </trkpt>
      <trkpt lat="43.95746" lon="1.93116">
        <ele>343.2</ele>
        <time>2021-03-21T14:42:35Z</time>
      </trkpt>
      <trkpt lat="43.95745" lon="1.93118">
        <ele>343.4</ele>
        <time>2021-03-21T14:42:36Z</time>
      </trkpt>
      <trkpt lat="43.95743" lon="1.93121">
        <ele>343.4</ele>
        <time>2021-03-21T14:42:38Z</time>
      </trkpt>
      <trkpt lat="43.95742" lon="1.93123">
        <ele>343.6</ele>
        <time>2021-03-21T14:42:39Z</time>
      </trkpt>
      <trkpt lat="43.95741" lon="1.93124">
        <ele>343.6</ele>
        <time>2021-03-21T14:42:40Z</time>
      </trkpt>
      <trkpt lat="43.9574" lon="1.93126">
        <ele>343.8</ele>
        <time>2021-03-21T14:42:41Z</time>
      </trkpt>
      <trkpt lat="43.95739" lon="1.93129">
        <ele>343.8</ele>
        <time>2021-03-21T14:42:42Z</time>
      </trkpt>
      <trkpt lat="43.95738" lon="1.93131">
        <ele>344</ele>
        <time>2021-03-21T14:42:43Z</time>
      </trkpt>
      <trkpt lat="43.95737" lon="1.93133">
        <ele>344</ele>
        <time>2021-03-21T14:42:44Z</time>
      </trkpt>
      <trkpt lat="43.95736" lon="1.93135">
        <ele>344</ele>
        <time>2021-03-21T14:42:45Z</time>
      </trkpt>
      <trkpt lat="43.95735" lon="1.93137">
        <ele>344.2</ele>
        <time>2021-03-21T14:42:46Z</time>
      </trkpt>
      <trkpt lat="43.95733" lon="1.93142">
        <ele>344.2</ele>
        <time>2021-03-21T14:42:48Z</time>
      </trkpt>
      <trkpt lat="43.95731" lon="1.93144">
        <ele>344.4</ele>
        <time>2021-03-21T14:42:49Z</time>
      </trkpt>
      <trkpt lat="43.9573" lon="1.93146">
        <ele>344.6</ele>
        <time>2021-03-21T14:42:50Z</time>
      </trkpt>
      <trkpt lat="43.95729" lon="1.93149">
        <ele>344.8</ele>
        <time>2021-03-21T14:42:51Z</time>
      </trkpt>
      <trkpt lat="43.95728" lon="1.93151">
        <ele>345</ele>
        <time>2021-03-21T14:42:52Z</time>
      </trkpt>
      <trkpt lat="43.95727" lon="1.93154">
        <ele>344.8</ele>
        <time>2021-03-21T14:42:53Z</time>
      </trkpt>
      <trkpt lat="43.95726" lon="1.93157">
        <ele>345</ele>
        <time>2021-03-21T14:42:54Z</time>
      </trkpt>
      <trkpt lat="43.95725" lon="1.93159">
        <ele>345.2</ele>
        <time>2021-03-21T14:42:55Z</time>
      </trkpt>
      <trkpt lat="43.95724" lon="1.93162">
        <ele>345.4</ele>
        <time>2021-03-21T14:42:56Z</time>
      </trkpt>
      <trkpt lat="43.95723" lon="1.93165">
        <ele>345.6</ele>
        <time>2021-03-21T14:42:57Z</time>
      </trkpt>
      <trkpt lat="43.95722" lon="1.93167">
        <ele>345.8</ele>
        <time>2021-03-21T14:42:58Z</time>
      </trkpt>
      <trkpt lat="43.95722" lon="1.9317">
        <ele>346</ele>
        <time>2021-03-21T14:42:59Z</time>
      </trkpt>
      <trkpt lat="43.95721" lon="1.93174">
        <ele>346</ele>
        <time>2021-03-21T14:43:00Z</time>
      </trkpt>
      <trkpt lat="43.9572" lon="1.93177">
        <ele>345.8</ele>
        <time>2021-03-21T14:43:01Z</time>
      </trkpt>
      <trkpt lat="43.9572" lon="1.9318">
        <ele>345.8</ele>
        <time>2021-03-21T14:43:02Z</time>
      </trkpt>
      <trkpt lat="43.95719" lon="1.93183">
        <ele>346</ele>
        <time>2021-03-21T14:43:03Z</time>
      </trkpt>
      <trkpt lat="43.95719" lon="1.93186">
        <ele>346.2</ele>
        <time>2021-03-21T14:43:04Z</time>
      </trkpt>
      <trkpt lat="43.95719" lon="1.93189">
        <ele>346.2</ele>
        <time>2021-03-21T14:43:05Z</time>
      </trkpt>
      <trkpt lat="43.95718" lon="1.93193">
        <ele>346.2</ele>
        <time>2021-03-21T14:43:06Z</time>
      </trkpt>
      <trkpt lat="43.95717" lon="1.93196">
        <ele>346.2</ele>
        <time>2021-03-21T14:43:07Z</time>
      </trkpt>
      <trkpt lat="43.95715" lon="1.93204">
        <ele>346.4</ele>
        <time>2021-03-21T14:43:09Z</time>
      </trkpt>
      <trkpt lat="43.95715" lon="1.93207">
        <ele>346.4</ele>
        <time>2021-03-21T14:43:10Z</time>
      </trkpt>
      <trkpt lat="43.95713" lon="1.93215">
        <ele>346.4</ele>
        <time>2021-03-21T14:43:12Z</time>
      </trkpt>
      <trkpt lat="43.95713" lon="1.93218">
        <ele>346.4</ele>
        <time>2021-03-21T14:43:13Z</time>
      </trkpt>
      <trkpt lat="43.95712" lon="1.93222">
        <ele>346.4</ele>
        <time>2021-03-21T14:43:14Z</time>
      </trkpt>
      <trkpt lat="43.95711" lon="1.93226">
        <ele>346.4</ele>
        <time>2021-03-21T14:43:15Z</time>
      </trkpt>
      <trkpt lat="43.9571" lon="1.93233">
        <ele>346.4</ele>
        <time>2021-03-21T14:43:17Z</time>
      </trkpt>
      <trkpt lat="43.95709" lon="1.93237">
        <ele>346.4</ele>
        <time>2021-03-21T14:43:18Z</time>
      </trkpt>
      <trkpt lat="43.95708" lon="1.9324">
        <ele>346.4</ele>
        <time>2021-03-21T14:43:19Z</time>
      </trkpt>
      <trkpt lat="43.95707" lon="1.93243">
        <ele>346.4</ele>
        <time>2021-03-21T14:43:20Z</time>
      </trkpt>
      <trkpt lat="43.95705" lon="1.93245">
        <ele>346.4</ele>
        <time>2021-03-21T14:43:21Z</time>
      </trkpt>
      <trkpt lat="43.95703" lon="1.93247">
        <ele>346.2</ele>
        <time>2021-03-21T14:43:22Z</time>
      </trkpt>
      <trkpt lat="43.95701" lon="1.93249">
        <ele>346.4</ele>
        <time>2021-03-21T14:43:23Z</time>
      </trkpt>
      <trkpt lat="43.95698" lon="1.93249">
        <ele>346.2</ele>
        <time>2021-03-21T14:43:24Z</time>
      </trkpt>
      <trkpt lat="43.95695" lon="1.9325">
        <ele>346</ele>
        <time>2021-03-21T14:43:25Z</time>
      </trkpt>
      <trkpt lat="43.95692" lon="1.9325">
        <ele>345.8</ele>
        <time>2021-03-21T14:43:26Z</time>
      </trkpt>
      <trkpt lat="43.95687" lon="1.93253">
        <ele>345.6</ele>
        <time>2021-03-21T14:43:28Z</time>
      </trkpt>
      <trkpt lat="43.95686" lon="1.93257">
        <ele>345.4</ele>
        <time>2021-03-21T14:43:29Z</time>
      </trkpt>
      <trkpt lat="43.95685" lon="1.9326">
        <ele>345.4</ele>
        <time>2021-03-21T14:43:30Z</time>
      </trkpt>
      <trkpt lat="43.95685" lon="1.93264">
        <ele>345.2</ele>
        <time>2021-03-21T14:43:31Z</time>
      </trkpt>
      <trkpt lat="43.95685" lon="1.93267">
        <ele>345.2</ele>
        <time>2021-03-21T14:43:32Z</time>
      </trkpt>
      <trkpt lat="43.95685" lon="1.9327">
        <ele>345</ele>
        <time>2021-03-21T14:43:33Z</time>
      </trkpt>
      <trkpt lat="43.95685" lon="1.93273">
        <ele>345</ele>
        <time>2021-03-21T14:43:34Z</time>
      </trkpt>
      <trkpt lat="43.95685" lon="1.93276">
        <ele>345</ele>
        <time>2021-03-21T14:43:35Z</time>
      </trkpt>
      <trkpt lat="43.95685" lon="1.93278">
        <ele>344.6</ele>
        <time>2021-03-21T14:43:36Z</time>
      </trkpt>
      <trkpt lat="43.95683" lon="1.93281">
        <ele>344.6</ele>
        <time>2021-03-21T14:43:37Z</time>
      </trkpt>
      <trkpt lat="43.95682" lon="1.93283">
        <ele>344.6</ele>
        <time>2021-03-21T14:43:38Z</time>
      </trkpt>
      <trkpt lat="43.95681" lon="1.93285">
        <ele>344.4</ele>
        <time>2021-03-21T14:43:39Z</time>
      </trkpt>
      <trkpt lat="43.9568" lon="1.93286">
        <ele>344.4</ele>
        <time>2021-03-21T14:43:40Z</time>
      </trkpt>
      <trkpt lat="43.95679" lon="1.93287">
        <ele>344.4</ele>
        <time>2021-03-21T14:43:41Z</time>
      </trkpt>
      <trkpt lat="43.95678" lon="1.93288">
        <ele>344.4</ele>
        <time>2021-03-21T14:43:42Z</time>
      </trkpt>
      <trkpt lat="43.95678" lon="1.93288">
        <ele>344.4</ele>
        <time>2021-03-21T14:43:43Z</time>
      </trkpt>
      <trkpt lat="43.95703" lon="1.93284">
        <ele>343.2</ele>
        <time>2021-03-21T14:52:32Z</time>
      </trkpt>
      <trkpt lat="43.95704" lon="1.93287">
        <ele>343.2</ele>
        <time>2021-03-21T14:52:33Z</time>
      </trkpt>
      <trkpt lat="43.95707" lon="1.93296">
        <ele>342.8</ele>
        <time>2021-03-21T14:52:35Z</time>
      </trkpt>
      <trkpt lat="43.95709" lon="1.93301">
        <ele>342.8</ele>
        <time>2021-03-21T14:52:36Z</time>
      </trkpt>
      <trkpt lat="43.95711" lon="1.93307">
        <ele>342.8</ele>
        <time>2021-03-21T14:52:37Z</time>
      </trkpt>
      <trkpt lat="43.95712" lon="1.93313">
        <ele>342.4</ele>
        <time>2021-03-21T14:52:38Z</time>
      </trkpt>
      <trkpt lat="43.95713" lon="1.9332">
        <ele>342.6</ele>
        <time>2021-03-21T14:52:39Z</time>
      </trkpt>
      <trkpt lat="43.95714" lon="1.93334">
        <ele>342.4</ele>
        <time>2021-03-21T14:52:41Z</time>
      </trkpt>
      <trkpt lat="43.95715" lon="1.93342">
        <ele>342.2</ele>
        <time>2021-03-21T14:52:42Z</time>
      </trkpt>
      <trkpt lat="43.95715" lon="1.9335">
        <ele>342.2</ele>
        <time>2021-03-21T14:52:43Z</time>
      </trkpt>
      <trkpt lat="43.95715" lon="1.93357">
        <ele>342.2</ele>
        <time>2021-03-21T14:52:44Z</time>
      </trkpt>
      <trkpt lat="43.95714" lon="1.93371">
        <ele>342</ele>
        <time>2021-03-21T14:52:46Z</time>
      </trkpt>
      <trkpt lat="43.95713" lon="1.93378">
        <ele>341.6</ele>
        <time>2021-03-21T14:52:47Z</time>
      </trkpt>
      <trkpt lat="43.95711" lon="1.93385">
        <ele>341.4</ele>
        <time>2021-03-21T14:52:48Z</time>
      </trkpt>
      <trkpt lat="43.95709" lon="1.93393">
        <ele>341.2</ele>
        <time>2021-03-21T14:52:49Z</time>
      </trkpt>
      <trkpt lat="43.95706" lon="1.934">
        <ele>340.8</ele>
        <time>2021-03-21T14:52:50Z</time>
      </trkpt>
      <trkpt lat="43.95703" lon="1.93408">
        <ele>340.4</ele>
        <time>2021-03-21T14:52:51Z</time>
      </trkpt>
      <trkpt lat="43.957" lon="1.93415">
        <ele>340.4</ele>
        <time>2021-03-21T14:52:52Z</time>
      </trkpt>
      <trkpt lat="43.95696" lon="1.93424">
        <ele>340.2</ele>
        <time>2021-03-21T14:52:53Z</time>
      </trkpt>
      <trkpt lat="43.95692" lon="1.93433">
        <ele>339.8</ele>
        <time>2021-03-21T14:52:54Z</time>
      </trkpt>
      <trkpt lat="43.95689" lon="1.93443">
        <ele>339.6</ele>
        <time>2021-03-21T14:52:55Z</time>
      </trkpt>
      <trkpt lat="43.95686" lon="1.93452">
        <ele>339.6</ele>
        <time>2021-03-21T14:52:56Z</time>
      </trkpt>
      <trkpt lat="43.95684" lon="1.93462">
        <ele>339.4</ele>
        <time>2021-03-21T14:52:57Z</time>
      </trkpt>
      <trkpt lat="43.95683" lon="1.93472">
        <ele>338.6</ele>
        <time>2021-03-21T14:52:58Z</time>
      </trkpt>
      <trkpt lat="43.95683" lon="1.93483">
        <ele>338.2</ele>
        <time>2021-03-21T14:52:59Z</time>
      </trkpt>
      <trkpt lat="43.95685" lon="1.93493">
        <ele>337.6</ele>
        <time>2021-03-21T14:53:00Z</time>
      </trkpt>
      <trkpt lat="43.95687" lon="1.93503">
        <ele>336.8</ele>
        <time>2021-03-21T14:53:01Z</time>
      </trkpt>
      <trkpt lat="43.9569" lon="1.93512">
        <ele>336.2</ele>
        <time>2021-03-21T14:53:02Z</time>
      </trkpt>
      <trkpt lat="43.95694" lon="1.93521">
        <ele>335.4</ele>
        <time>2021-03-21T14:53:03Z</time>
      </trkpt>
      <trkpt lat="43.95699" lon="1.9353">
        <ele>334.8</ele>
        <time>2021-03-21T14:53:04Z</time>
      </trkpt>
      <trkpt lat="43.95705" lon="1.93539">
        <ele>334.2</ele>
        <time>2021-03-21T14:53:05Z</time>
      </trkpt>
      <trkpt lat="43.95711" lon="1.93547">
        <ele>333.8</ele>
        <time>2021-03-21T14:53:06Z</time>
      </trkpt>
      <trkpt lat="43.95717" lon="1.93555">
        <ele>333.2</ele>
        <time>2021-03-21T14:53:07Z</time>
      </trkpt>
      <trkpt lat="43.95724" lon="1.93563">
        <ele>332.8</ele>
        <time>2021-03-21T14:53:08Z</time>
      </trkpt>
      <trkpt lat="43.9573" lon="1.93572">
        <ele>332.2</ele>
        <time>2021-03-21T14:53:09Z</time>
      </trkpt>
      <trkpt lat="43.95736" lon="1.93581">
        <ele>331.6</ele>
        <time>2021-03-21T14:53:10Z</time>
      </trkpt>
      <trkpt lat="43.95741" lon="1.9359">
        <ele>330.8</ele>
        <time>2021-03-21T14:53:11Z</time>
      </trkpt>
      <trkpt lat="43.95746" lon="1.936">
        <ele>330.8</ele>
        <time>2021-03-21T14:53:12Z</time>
      </trkpt>
      <trkpt lat="43.95749" lon="1.93612">
        <ele>329.6</ele>
        <time>2021-03-21T14:53:13Z</time>
      </trkpt>
      <trkpt lat="43.95752" lon="1.93624">
        <ele>328.6</ele>
        <time>2021-03-21T14:53:14Z</time>
      </trkpt>
      <trkpt lat="43.95754" lon="1.93636">
        <ele>327.8</ele>
        <time>2021-03-21T14:53:15Z</time>
      </trkpt>
      <trkpt lat="43.95756" lon="1.93649">
        <ele>326.6</ele>
        <time>2021-03-21T14:53:16Z</time>
      </trkpt>
      <trkpt lat="43.95757" lon="1.93661">
        <ele>326</ele>
        <time>2021-03-21T14:53:17Z</time>
      </trkpt>
      <trkpt lat="43.95757" lon="1.93674">
        <ele>325.4</ele>
        <time>2021-03-21T14:53:18Z</time>
      </trkpt>
      <trkpt lat="43.95758" lon="1.93687">
        <ele>325.4</ele>
        <time>2021-03-21T14:53:19Z</time>
      </trkpt>
      <trkpt lat="43.95759" lon="1.93699">
        <ele>324.6</ele>
        <time>2021-03-21T14:53:20Z</time>
      </trkpt>
      <trkpt lat="43.9576" lon="1.93724">
        <ele>323.4</ele>
        <time>2021-03-21T14:53:22Z</time>
      </trkpt>
      <trkpt lat="43.9576" lon="1.93737">
        <ele>323</ele>
        <time>2021-03-21T14:53:23Z</time>
      </trkpt>
      <trkpt lat="43.95761" lon="1.93762">
        <ele>321.6</ele>
        <time>2021-03-21T14:53:25Z</time>
      </trkpt>
      <trkpt lat="43.95761" lon="1.93774">
        <ele>320.8</ele>
        <time>2021-03-21T14:53:26Z</time>
      </trkpt>
      <trkpt lat="43.95762" lon="1.93785">
        <ele>319.8</ele>
        <time>2021-03-21T14:53:27Z</time>
      </trkpt>
      <trkpt lat="43.95762" lon="1.93796">
        <ele>319.4</ele>
        <time>2021-03-21T14:53:28Z</time>
      </trkpt>
      <trkpt lat="43.95763" lon="1.93807">
        <ele>318.4</ele>
        <time>2021-03-21T14:53:29Z</time>
      </trkpt>
      <trkpt lat="43.95764" lon="1.93817">
        <ele>317.6</ele>
        <time>2021-03-21T14:53:30Z</time>
      </trkpt>
      <trkpt lat="43.95766" lon="1.93827">
        <ele>317.4</ele>
        <time>2021-03-21T14:53:31Z</time>
      </trkpt>
      <trkpt lat="43.9577" lon="1.93836">
        <ele>317.4</ele>
        <time>2021-03-21T14:53:32Z</time>
      </trkpt>
      <trkpt lat="43.95774" lon="1.93843">
        <ele>316.4</ele>
        <time>2021-03-21T14:53:33Z</time>
      </trkpt>
      <trkpt lat="43.95777" lon="1.9385">
        <ele>315.8</ele>
        <time>2021-03-21T14:53:34Z</time>
      </trkpt>
      <trkpt lat="43.9578" lon="1.93857">
        <ele>315</ele>
        <time>2021-03-21T14:53:35Z</time>
      </trkpt>
      <trkpt lat="43.95782" lon="1.93863">
        <ele>314</ele>
        <time>2021-03-21T14:53:36Z</time>
      </trkpt>
      <trkpt lat="43.95783" lon="1.9387">
        <ele>313.4</ele>
        <time>2021-03-21T14:53:37Z</time>
      </trkpt>
      <trkpt lat="43.95782" lon="1.93876">
        <ele>313</ele>
        <time>2021-03-21T14:53:38Z</time>
      </trkpt>
      <trkpt lat="43.9578" lon="1.93882">
        <ele>311.8</ele>
        <time>2021-03-21T14:53:39Z</time>
      </trkpt>
      <trkpt lat="43.95777" lon="1.93889">
        <ele>311.2</ele>
        <time>2021-03-21T14:53:40Z</time>
      </trkpt>
      <trkpt lat="43.95775" lon="1.93894">
        <ele>310.4</ele>
        <time>2021-03-21T14:53:41Z</time>
      </trkpt>
      <trkpt lat="43.95772" lon="1.93899">
        <ele>309.8</ele>
        <time>2021-03-21T14:53:42Z</time>
      </trkpt>
      <trkpt lat="43.9577" lon="1.93903">
        <ele>309.4</ele>
        <time>2021-03-21T14:53:43Z</time>
      </trkpt>
      <trkpt lat="43.95767" lon="1.93904">
        <ele>309</ele>
        <time>2021-03-21T14:53:44Z</time>
      </trkpt>
      <trkpt lat="43.95765" lon="1.93903">
        <ele>308.8</ele>
        <time>2021-03-21T14:53:45Z</time>
      </trkpt>
      <trkpt lat="43.95762" lon="1.93901">
        <ele>308.6</ele>
        <time>2021-03-21T14:53:46Z</time>
      </trkpt>
      <trkpt lat="43.95759" lon="1.93898">
        <ele>308.4</ele>
        <time>2021-03-21T14:53:47Z</time>
      </trkpt>
      <trkpt lat="43.95755" lon="1.93895">
        <ele>308.4</ele>
        <time>2021-03-21T14:53:48Z</time>
      </trkpt>
      <trkpt lat="43.95752" lon="1.93891">
        <ele>308.2</ele>
        <time>2021-03-21T14:53:49Z</time>
      </trkpt>
      <trkpt lat="43.95749" lon="1.93887">
        <ele>308.2</ele>
        <time>2021-03-21T14:53:50Z</time>
      </trkpt>
      <trkpt lat="43.95746" lon="1.93884">
        <ele>308.2</ele>
        <time>2021-03-21T14:53:51Z</time>
      </trkpt>
      <trkpt lat="43.95743" lon="1.9388">
        <ele>307.8</ele>
        <time>2021-03-21T14:53:52Z</time>
      </trkpt>
      <trkpt lat="43.9574" lon="1.93877">
        <ele>307.8</ele>
        <time>2021-03-21T14:53:53Z</time>
      </trkpt>
      <trkpt lat="43.95737" lon="1.93873">
        <ele>307.8</ele>
        <time>2021-03-21T14:53:54Z</time>
      </trkpt>
      <trkpt lat="43.95734" lon="1.93869">
        <ele>307.6</ele>
        <time>2021-03-21T14:53:55Z</time>
      </trkpt>
      <trkpt lat="43.9573" lon="1.93865">
        <ele>307.6</ele>
        <time>2021-03-21T14:53:56Z</time>
      </trkpt>
      <trkpt lat="43.95727" lon="1.93861">
        <ele>307.6</ele>
        <time>2021-03-21T14:53:57Z</time>
      </trkpt>
      <trkpt lat="43.9572" lon="1.93853">
        <ele>307.6</ele>
        <time>2021-03-21T14:53:59Z</time>
      </trkpt>
      <trkpt lat="43.95717" lon="1.9385">
        <ele>307.6</ele>
        <time>2021-03-21T14:54:00Z</time>
      </trkpt>
      <trkpt lat="43.95714" lon="1.93846">
        <ele>307.4</ele>
        <time>2021-03-21T14:54:01Z</time>
      </trkpt>
      <trkpt lat="43.95711" lon="1.93843">
        <ele>307.4</ele>
        <time>2021-03-21T14:54:02Z</time>
      </trkpt>
      <trkpt lat="43.95708" lon="1.93841">
        <ele>307.6</ele>
        <time>2021-03-21T14:54:03Z</time>
      </trkpt>
      <trkpt lat="43.95706" lon="1.93837">
        <ele>307.6</ele>
        <time>2021-03-21T14:54:04Z</time>
      </trkpt>
      <trkpt lat="43.95703" lon="1.93834">
        <ele>307.6</ele>
        <time>2021-03-21T14:54:05Z</time>
      </trkpt>
      <trkpt lat="43.95698" lon="1.93828">
        <ele>307.8</ele>
        <time>2021-03-21T14:54:07Z</time>
      </trkpt>
      <trkpt lat="43.95695" lon="1.93824">
        <ele>308</ele>
        <time>2021-03-21T14:54:08Z</time>
      </trkpt>
      <trkpt lat="43.95689" lon="1.93818">
        <ele>308</ele>
        <time>2021-03-21T14:54:10Z</time>
      </trkpt>
      <trkpt lat="43.95686" lon="1.93814">
        <ele>308</ele>
        <time>2021-03-21T14:54:11Z</time>
      </trkpt>
      <trkpt lat="43.95684" lon="1.93811">
        <ele>308</ele>
        <time>2021-03-21T14:54:12Z</time>
      </trkpt>
      <trkpt lat="43.95682" lon="1.93808">
        <ele>308</ele>
        <time>2021-03-21T14:54:13Z</time>
      </trkpt>
      <trkpt lat="43.95678" lon="1.93801">
        <ele>308</ele>
        <time>2021-03-21T14:54:15Z</time>
      </trkpt>
      <trkpt lat="43.95676" lon="1.93797">
        <ele>308.2</ele>
        <time>2021-03-21T14:54:16Z</time>
      </trkpt>
      <trkpt lat="43.95673" lon="1.93794">
        <ele>308.2</ele>
        <time>2021-03-21T14:54:17Z</time>
      </trkpt>
      <trkpt lat="43.9567" lon="1.9379">
        <ele>308.4</ele>
        <time>2021-03-21T14:54:18Z</time>
      </trkpt>
      <trkpt lat="43.95668" lon="1.93787">
        <ele>308.4</ele>
        <time>2021-03-21T14:54:19Z</time>
      </trkpt>
      <trkpt lat="43.95665" lon="1.93784">
        <ele>308.2</ele>
        <time>2021-03-21T14:54:20Z</time>
      </trkpt>
      <trkpt lat="43.95663" lon="1.93781">
        <ele>308.2</ele>
        <time>2021-03-21T14:54:21Z</time>
      </trkpt>
      <trkpt lat="43.95661" lon="1.93778">
        <ele>308.4</ele>
        <time>2021-03-21T14:54:22Z</time>
      </trkpt>
      <trkpt lat="43.95659" lon="1.93776">
        <ele>308.2</ele>
        <time>2021-03-21T14:54:23Z</time>
      </trkpt>
      <trkpt lat="43.95658" lon="1.93774">
        <ele>308</ele>
        <time>2021-03-21T14:54:24Z</time>
      </trkpt>
      <trkpt lat="43.95657" lon="1.93772">
        <ele>308.2</ele>
        <time>2021-03-21T14:54:25Z</time>
      </trkpt>
      <trkpt lat="43.95655" lon="1.93769">
        <ele>308.2</ele>
        <time>2021-03-21T14:54:26Z</time>
      </trkpt>
      <trkpt lat="43.95654" lon="1.93766">
        <ele>307.8</ele>
        <time>2021-03-21T14:54:27Z</time>
      </trkpt>
      <trkpt lat="43.95652" lon="1.93763">
        <ele>308</ele>
        <time>2021-03-21T14:54:28Z</time>
      </trkpt>
      <trkpt lat="43.9565" lon="1.9376">
        <ele>308</ele>
        <time>2021-03-21T14:54:29Z</time>
      </trkpt>
      <trkpt lat="43.95645" lon="1.93755">
        <ele>307.8</ele>
        <time>2021-03-21T14:54:31Z</time>
      </trkpt>
      <trkpt lat="43.95643" lon="1.93752">
        <ele>307.6</ele>
        <time>2021-03-21T14:54:32Z</time>
      </trkpt>
      <trkpt lat="43.95641" lon="1.93749">
        <ele>307.6</ele>
        <time>2021-03-21T14:54:33Z</time>
      </trkpt>
      <trkpt lat="43.95639" lon="1.93746">
        <ele>307.6</ele>
        <time>2021-03-21T14:54:34Z</time>
      </trkpt>
      <trkpt lat="43.95637" lon="1.93743">
        <ele>307.6</ele>
        <time>2021-03-21T14:54:35Z</time>
      </trkpt>
      <trkpt lat="43.95636" lon="1.9374">
        <ele>307.6</ele>
        <time>2021-03-21T14:54:36Z</time>
      </trkpt>
      <trkpt lat="43.95634" lon="1.93737">
        <ele>307.6</ele>
        <time>2021-03-21T14:54:37Z</time>
      </trkpt>
      <trkpt lat="43.95631" lon="1.93732">
        <ele>307.4</ele>
        <time>2021-03-21T14:54:39Z</time>
      </trkpt>
      <trkpt lat="43.95629" lon="1.93729">
        <ele>307.6</ele>
        <time>2021-03-21T14:54:40Z</time>
      </trkpt>
      <trkpt lat="43.95627" lon="1.93727">
        <ele>307.8</ele>
        <time>2021-03-21T14:54:41Z</time>
      </trkpt>
      <trkpt lat="43.95626" lon="1.93724">
        <ele>307.8</ele>
        <time>2021-03-21T14:54:42Z</time>
      </trkpt>
      <trkpt lat="43.95624" lon="1.93721">
        <ele>308</ele>
        <time>2021-03-21T14:54:43Z</time>
      </trkpt>
      <trkpt lat="43.95622" lon="1.93719">
        <ele>308</ele>
        <time>2021-03-21T14:54:44Z</time>
      </trkpt>
      <trkpt lat="43.9562" lon="1.93716">
        <ele>308.2</ele>
        <time>2021-03-21T14:54:45Z</time>
      </trkpt>
      <trkpt lat="43.95615" lon="1.93709">
        <ele>308.2</ele>
        <time>2021-03-21T14:54:47Z</time>
      </trkpt>
      <trkpt lat="43.95613" lon="1.93706">
        <ele>308.2</ele>
        <time>2021-03-21T14:54:48Z</time>
      </trkpt>
      <trkpt lat="43.9561" lon="1.93703">
        <ele>308.4</ele>
        <time>2021-03-21T14:54:49Z</time>
      </trkpt>
      <trkpt lat="43.95608" lon="1.937">
        <ele>308.4</ele>
        <time>2021-03-21T14:54:50Z</time>
      </trkpt>
      <trkpt lat="43.95607" lon="1.93698">
        <ele>308.6</ele>
        <time>2021-03-21T14:54:51Z</time>
      </trkpt>
      <trkpt lat="43.95605" lon="1.93696">
        <ele>308.6</ele>
        <time>2021-03-21T14:54:52Z</time>
      </trkpt>
      <trkpt lat="43.95604" lon="1.93694">
        <ele>308.6</ele>
        <time>2021-03-21T14:54:53Z</time>
      </trkpt>
      <trkpt lat="43.95602" lon="1.93691">
        <ele>308.6</ele>
        <time>2021-03-21T14:54:54Z</time>
      </trkpt>
      <trkpt lat="43.95601" lon="1.93689">
        <ele>308.6</ele>
        <time>2021-03-21T14:54:55Z</time>
      </trkpt>
      <trkpt lat="43.95599" lon="1.93686">
        <ele>308.6</ele>
        <time>2021-03-21T14:54:56Z</time>
      </trkpt>
      <trkpt lat="43.95597" lon="1.93682">
        <ele>308.6</ele>
        <time>2021-03-21T14:54:57Z</time>
      </trkpt>
      <trkpt lat="43.95595" lon="1.93679">
        <ele>308.6</ele>
        <time>2021-03-21T14:54:58Z</time>
      </trkpt>
      <trkpt lat="43.95593" lon="1.93675">
        <ele>308.8</ele>
        <time>2021-03-21T14:54:59Z</time>
      </trkpt>
      <trkpt lat="43.95591" lon="1.93672">
        <ele>308.6</ele>
        <time>2021-03-21T14:55:00Z</time>
      </trkpt>
      <trkpt lat="43.95588" lon="1.93668">
        <ele>308.6</ele>
        <time>2021-03-21T14:55:01Z</time>
      </trkpt>
      <trkpt lat="43.95587" lon="1.93666">
        <ele>308.6</ele>
        <time>2021-03-21T14:55:02Z</time>
      </trkpt>
      <trkpt lat="43.95584" lon="1.93663">
        <ele>308.6</ele>
        <time>2021-03-21T14:55:03Z</time>
      </trkpt>
      <trkpt lat="43.95582" lon="1.9366">
        <ele>308.6</ele>
        <time>2021-03-21T14:55:04Z</time>
      </trkpt>
      <trkpt lat="43.95579" lon="1.93657">
        <ele>308.6</ele>
        <time>2021-03-21T14:55:05Z</time>
      </trkpt>
      <trkpt lat="43.95577" lon="1.93653">
        <ele>308.8</ele>
        <time>2021-03-21T14:55:06Z</time>
      </trkpt>
      <trkpt lat="43.95574" lon="1.93649">
        <ele>308.6</ele>
        <time>2021-03-21T14:55:07Z</time>
      </trkpt>
      <trkpt lat="43.95571" lon="1.93646">
        <ele>308.6</ele>
        <time>2021-03-21T14:55:08Z</time>
      </trkpt>
      <trkpt lat="43.95569" lon="1.93642">
        <ele>308.6</ele>
        <time>2021-03-21T14:55:09Z</time>
      </trkpt>
      <trkpt lat="43.95566" lon="1.93638">
        <ele>308.6</ele>
        <time>2021-03-21T14:55:10Z</time>
      </trkpt>
      <trkpt lat="43.95563" lon="1.93635">
        <ele>308.6</ele>
        <time>2021-03-21T14:55:11Z</time>
      </trkpt>
      <trkpt lat="43.95561" lon="1.93631">
        <ele>308.4</ele>
        <time>2021-03-21T14:55:12Z</time>
      </trkpt>
      <trkpt lat="43.95558" lon="1.93628">
        <ele>308.4</ele>
        <time>2021-03-21T14:55:13Z</time>
      </trkpt>
      <trkpt lat="43.95556" lon="1.93625">
        <ele>308.6</ele>
        <time>2021-03-21T14:55:14Z</time>
      </trkpt>
      <trkpt lat="43.95554" lon="1.93621">
        <ele>308.4</ele>
        <time>2021-03-21T14:55:15Z</time>
      </trkpt>
      <trkpt lat="43.95551" lon="1.93618">
        <ele>308.4</ele>
        <time>2021-03-21T14:55:16Z</time>
      </trkpt>
      <trkpt lat="43.95549" lon="1.93615">
        <ele>308.4</ele>
        <time>2021-03-21T14:55:17Z</time>
      </trkpt>
      <trkpt lat="43.95546" lon="1.93611">
        <ele>308.6</ele>
        <time>2021-03-21T14:55:18Z</time>
      </trkpt>
      <trkpt lat="43.95544" lon="1.93608">
        <ele>308.6</ele>
        <time>2021-03-21T14:55:19Z</time>
      </trkpt>
      <trkpt lat="43.95542" lon="1.93605">
        <ele>308.4</ele>
        <time>2021-03-21T14:55:20Z</time>
      </trkpt>
      <trkpt lat="43.9554" lon="1.93602">
        <ele>308.6</ele>
        <time>2021-03-21T14:55:21Z</time>
      </trkpt>
      <trkpt lat="43.95538" lon="1.93599">
        <ele>308.4</ele>
        <time>2021-03-21T14:55:22Z</time>
      </trkpt>
      <trkpt lat="43.95536" lon="1.93596">
        <ele>308.6</ele>
        <time>2021-03-21T14:55:23Z</time>
      </trkpt>
      <trkpt lat="43.95533" lon="1.93593">
        <ele>308.4</ele>
        <time>2021-03-21T14:55:24Z</time>
      </trkpt>
      <trkpt lat="43.95531" lon="1.9359">
        <ele>308.4</ele>
        <time>2021-03-21T14:55:25Z</time>
      </trkpt>
      <trkpt lat="43.95528" lon="1.93587">
        <ele>308.6</ele>
        <time>2021-03-21T14:55:26Z</time>
      </trkpt>
      <trkpt lat="43.95526" lon="1.93584">
        <ele>308.8</ele>
        <time>2021-03-21T14:55:27Z</time>
      </trkpt>
      <trkpt lat="43.95523" lon="1.9358">
        <ele>309</ele>
        <time>2021-03-21T14:55:28Z</time>
      </trkpt>
      <trkpt lat="43.95521" lon="1.93577">
        <ele>309</ele>
        <time>2021-03-21T14:55:29Z</time>
      </trkpt>
      <trkpt lat="43.95519" lon="1.93574">
        <ele>309</ele>
        <time>2021-03-21T14:55:30Z</time>
      </trkpt>
      <trkpt lat="43.95516" lon="1.93571">
        <ele>309</ele>
        <time>2021-03-21T14:55:31Z</time>
      </trkpt>
      <trkpt lat="43.95514" lon="1.93568">
        <ele>309</ele>
        <time>2021-03-21T14:55:32Z</time>
      </trkpt>
      <trkpt lat="43.9551" lon="1.93561">
        <ele>309.4</ele>
        <time>2021-03-21T14:55:34Z</time>
      </trkpt>
      <trkpt lat="43.95507" lon="1.93558">
        <ele>309.4</ele>
        <time>2021-03-21T14:55:35Z</time>
      </trkpt>
      <trkpt lat="43.95505" lon="1.93555">
        <ele>309.6</ele>
        <time>2021-03-21T14:55:36Z</time>
      </trkpt>
      <trkpt lat="43.95502" lon="1.93552">
        <ele>309.4</ele>
        <time>2021-03-21T14:55:37Z</time>
      </trkpt>
      <trkpt lat="43.955" lon="1.93549">
        <ele>309.6</ele>
        <time>2021-03-21T14:55:38Z</time>
      </trkpt>
      <trkpt lat="43.95498" lon="1.93546">
        <ele>309.6</ele>
        <time>2021-03-21T14:55:39Z</time>
      </trkpt>
      <trkpt lat="43.95496" lon="1.93543">
        <ele>309.6</ele>
        <time>2021-03-21T14:55:40Z</time>
      </trkpt>
      <trkpt lat="43.95494" lon="1.9354">
        <ele>309.8</ele>
        <time>2021-03-21T14:55:41Z</time>
      </trkpt>
      <trkpt lat="43.95491" lon="1.93537">
        <ele>309.6</ele>
        <time>2021-03-21T14:55:42Z</time>
      </trkpt>
      <trkpt lat="43.95489" lon="1.93535">
        <ele>309.8</ele>
        <time>2021-03-21T14:55:43Z</time>
      </trkpt>
      <trkpt lat="43.95486" lon="1.93532">
        <ele>309.6</ele>
        <time>2021-03-21T14:55:44Z</time>
      </trkpt>
      <trkpt lat="43.95483" lon="1.9353">
        <ele>309.6</ele>
        <time>2021-03-21T14:55:45Z</time>
      </trkpt>
      <trkpt lat="43.95479" lon="1.93529">
        <ele>309.6</ele>
        <time>2021-03-21T14:55:46Z</time>
      </trkpt>
      <trkpt lat="43.95476" lon="1.9353">
        <ele>309.6</ele>
        <time>2021-03-21T14:55:47Z</time>
      </trkpt>
      <trkpt lat="43.95473" lon="1.93532">
        <ele>309.6</ele>
        <time>2021-03-21T14:55:48Z</time>
      </trkpt>
      <trkpt lat="43.9547" lon="1.93534">
        <ele>309.6</ele>
        <time>2021-03-21T14:55:49Z</time>
      </trkpt>
      <trkpt lat="43.95467" lon="1.93536">
        <ele>309.6</ele>
        <time>2021-03-21T14:55:50Z</time>
      </trkpt>
      <trkpt lat="43.95465" lon="1.93538">
        <ele>309.6</ele>
        <time>2021-03-21T14:55:51Z</time>
      </trkpt>
      <trkpt lat="43.95462" lon="1.9354">
        <ele>309.6</ele>
        <time>2021-03-21T14:55:52Z</time>
      </trkpt>
      <trkpt lat="43.95459" lon="1.93542">
        <ele>309.4</ele>
        <time>2021-03-21T14:55:53Z</time>
      </trkpt>
      <trkpt lat="43.95457" lon="1.93544">
        <ele>309.2</ele>
        <time>2021-03-21T14:55:54Z</time>
      </trkpt>
      <trkpt lat="43.95454" lon="1.93546">
        <ele>308.8</ele>
        <time>2021-03-21T14:55:55Z</time>
      </trkpt>
      <trkpt lat="43.95452" lon="1.93547">
        <ele>308.8</ele>
        <time>2021-03-21T14:55:56Z</time>
      </trkpt>
      <trkpt lat="43.95449" lon="1.93549">
        <ele>308.6</ele>
        <time>2021-03-21T14:55:57Z</time>
      </trkpt>
      <trkpt lat="43.95447" lon="1.93551">
        <ele>308.4</ele>
        <time>2021-03-21T14:55:58Z</time>
      </trkpt>
      <trkpt lat="43.95444" lon="1.93552">
        <ele>308.4</ele>
        <time>2021-03-21T14:55:59Z</time>
      </trkpt>
      <trkpt lat="43.95441" lon="1.93552">
        <ele>308.2</ele>
        <time>2021-03-21T14:56:00Z</time>
      </trkpt>
      <trkpt lat="43.95438" lon="1.93553">
        <ele>308</ele>
        <time>2021-03-21T14:56:01Z</time>
      </trkpt>
      <trkpt lat="43.95436" lon="1.93553">
        <ele>307.6</ele>
        <time>2021-03-21T14:56:02Z</time>
      </trkpt>
      <trkpt lat="43.95433" lon="1.93553">
        <ele>307.4</ele>
        <time>2021-03-21T14:56:03Z</time>
      </trkpt>
      <trkpt lat="43.95427" lon="1.9355">
        <ele>307.2</ele>
        <time>2021-03-21T14:56:05Z</time>
      </trkpt>
      <trkpt lat="43.95423" lon="1.93548">
        <ele>307</ele>
        <time>2021-03-21T14:56:06Z</time>
      </trkpt>
      <trkpt lat="43.9542" lon="1.93546">
        <ele>307</ele>
        <time>2021-03-21T14:56:07Z</time>
      </trkpt>
      <trkpt lat="43.95416" lon="1.93544">
        <ele>306.8</ele>
        <time>2021-03-21T14:56:08Z</time>
      </trkpt>
      <trkpt lat="43.95412" lon="1.93543">
        <ele>306.4</ele>
        <time>2021-03-21T14:56:09Z</time>
      </trkpt>
      <trkpt lat="43.95408" lon="1.93541">
        <ele>306.4</ele>
        <time>2021-03-21T14:56:10Z</time>
      </trkpt>
      <trkpt lat="43.95405" lon="1.9354">
        <ele>306.2</ele>
        <time>2021-03-21T14:56:11Z</time>
      </trkpt>
      <trkpt lat="43.95401" lon="1.93538">
        <ele>306</ele>
        <time>2021-03-21T14:56:12Z</time>
      </trkpt>
      <trkpt lat="43.95397" lon="1.93536">
        <ele>305.8</ele>
        <time>2021-03-21T14:56:13Z</time>
      </trkpt>
      <trkpt lat="43.95393" lon="1.93534">
        <ele>305.6</ele>
        <time>2021-03-21T14:56:14Z</time>
      </trkpt>
      <trkpt lat="43.95389" lon="1.93533">
        <ele>305.4</ele>
        <time>2021-03-21T14:56:15Z</time>
      </trkpt>
      <trkpt lat="43.95385" lon="1.93532">
        <ele>305.2</ele>
        <time>2021-03-21T14:56:16Z</time>
      </trkpt>
      <trkpt lat="43.95382" lon="1.93531">
        <ele>305</ele>
        <time>2021-03-21T14:56:17Z</time>
      </trkpt>
      <trkpt lat="43.95378" lon="1.93531">
        <ele>305</ele>
        <time>2021-03-21T14:56:18Z</time>
      </trkpt>
      <trkpt lat="43.95374" lon="1.93531">
        <ele>304.8</ele>
        <time>2021-03-21T14:56:19Z</time>
      </trkpt>
      <trkpt lat="43.95371" lon="1.93532">
        <ele>304.8</ele>
        <time>2021-03-21T14:56:20Z</time>
      </trkpt>
      <trkpt lat="43.95367" lon="1.93532">
        <ele>304.6</ele>
        <time>2021-03-21T14:56:21Z</time>
      </trkpt>
      <trkpt lat="43.9536" lon="1.93537">
        <ele>304.6</ele>
        <time>2021-03-21T14:56:23Z</time>
      </trkpt>
      <trkpt lat="43.95356" lon="1.93542">
        <ele>304.2</ele>
        <time>2021-03-21T14:56:24Z</time>
      </trkpt>
      <trkpt lat="43.95351" lon="1.93548">
        <ele>304.2</ele>
        <time>2021-03-21T14:56:25Z</time>
      </trkpt>
      <trkpt lat="43.95348" lon="1.93554">
        <ele>304.2</ele>
        <time>2021-03-21T14:56:26Z</time>
      </trkpt>
      <trkpt lat="43.95344" lon="1.9356">
        <ele>304.2</ele>
        <time>2021-03-21T14:56:27Z</time>
      </trkpt>
      <trkpt lat="43.95341" lon="1.93565">
        <ele>303.8</ele>
        <time>2021-03-21T14:56:28Z</time>
      </trkpt>
      <trkpt lat="43.95337" lon="1.93571">
        <ele>303.6</ele>
        <time>2021-03-21T14:56:29Z</time>
      </trkpt>
      <trkpt lat="43.95329" lon="1.93583">
        <ele>302.6</ele>
        <time>2021-03-21T14:56:31Z</time>
      </trkpt>
      <trkpt lat="43.95325" lon="1.93589">
        <ele>301.8</ele>
        <time>2021-03-21T14:56:32Z</time>
      </trkpt>
      <trkpt lat="43.95321" lon="1.93595">
        <ele>301.2</ele>
        <time>2021-03-21T14:56:33Z</time>
      </trkpt>
      <trkpt lat="43.95317" lon="1.936">
        <ele>300.2</ele>
        <time>2021-03-21T14:56:34Z</time>
      </trkpt>
      <trkpt lat="43.95314" lon="1.93605">
        <ele>299.4</ele>
        <time>2021-03-21T14:56:35Z</time>
      </trkpt>
      <trkpt lat="43.95311" lon="1.9361">
        <ele>298.8</ele>
        <time>2021-03-21T14:56:36Z</time>
      </trkpt>
      <trkpt lat="43.95307" lon="1.93615">
        <ele>298.2</ele>
        <time>2021-03-21T14:56:37Z</time>
      </trkpt>
      <trkpt lat="43.95305" lon="1.9362">
        <ele>297.2</ele>
        <time>2021-03-21T14:56:38Z</time>
      </trkpt>
      <trkpt lat="43.95301" lon="1.93625">
        <ele>296.4</ele>
        <time>2021-03-21T14:56:39Z</time>
      </trkpt>
      <trkpt lat="43.95298" lon="1.9363">
        <ele>296</ele>
        <time>2021-03-21T14:56:40Z</time>
      </trkpt>
      <trkpt lat="43.95295" lon="1.93634">
        <ele>295.2</ele>
        <time>2021-03-21T14:56:41Z</time>
      </trkpt>
      <trkpt lat="43.95292" lon="1.93639">
        <ele>294.8</ele>
        <time>2021-03-21T14:56:42Z</time>
      </trkpt>
      <trkpt lat="43.9529" lon="1.93644">
        <ele>294.6</ele>
        <time>2021-03-21T14:56:43Z</time>
      </trkpt>
      <trkpt lat="43.95287" lon="1.93648">
        <ele>294.2</ele>
        <time>2021-03-21T14:56:44Z</time>
      </trkpt>
      <trkpt lat="43.95285" lon="1.93652">
        <ele>294</ele>
        <time>2021-03-21T14:56:45Z</time>
      </trkpt>
      <trkpt lat="43.95284" lon="1.93655">
        <ele>293.8</ele>
        <time>2021-03-21T14:56:46Z</time>
      </trkpt>
      <trkpt lat="43.95282" lon="1.93659">
        <ele>293.8</ele>
        <time>2021-03-21T14:56:47Z</time>
      </trkpt>
      <trkpt lat="43.9528" lon="1.93662">
        <ele>294</ele>
        <time>2021-03-21T14:56:48Z</time>
      </trkpt>
      <trkpt lat="43.95279" lon="1.93666">
        <ele>294</ele>
        <time>2021-03-21T14:56:49Z</time>
      </trkpt>
      <trkpt lat="43.95278" lon="1.93669">
        <ele>294</ele>
        <time>2021-03-21T14:56:50Z</time>
      </trkpt>
      <trkpt lat="43.95277" lon="1.93672">
        <ele>294</ele>
        <time>2021-03-21T14:56:51Z</time>
      </trkpt>
      <trkpt lat="43.95276" lon="1.93675">
        <ele>294</ele>
        <time>2021-03-21T14:56:52Z</time>
      </trkpt>
      <trkpt lat="43.95275" lon="1.93678">
        <ele>294</ele>
        <time>2021-03-21T14:56:53Z</time>
      </trkpt>
      <trkpt lat="43.95274" lon="1.93681">
        <ele>294</ele>
        <time>2021-03-21T14:56:54Z</time>
      </trkpt>
      <trkpt lat="43.95273" lon="1.93683">
        <ele>294</ele>
        <time>2021-03-21T14:56:55Z</time>
      </trkpt>
      <trkpt lat="43.95273" lon="1.93685">
        <ele>294</ele>
        <time>2021-03-21T14:56:56Z</time>
      </trkpt>
      <trkpt lat="43.95272" lon="1.93687">
        <ele>294.2</ele>
        <time>2021-03-21T14:56:57Z</time>
      </trkpt>
      <trkpt lat="43.95271" lon="1.93688">
        <ele>294.2</ele>
        <time>2021-03-21T14:56:58Z</time>
      </trkpt>
      <trkpt lat="43.9527" lon="1.9369">
        <ele>294.6</ele>
        <time>2021-03-21T14:56:59Z</time>
      </trkpt>
      <trkpt lat="43.95269" lon="1.93691">
        <ele>295</ele>
        <time>2021-03-21T14:57:00Z</time>
      </trkpt>
      <trkpt lat="43.95268" lon="1.93693">
        <ele>295.2</ele>
        <time>2021-03-21T14:57:01Z</time>
      </trkpt>
      <trkpt lat="43.95267" lon="1.93695">
        <ele>296</ele>
        <time>2021-03-21T14:57:02Z</time>
      </trkpt>
      <trkpt lat="43.95267" lon="1.93697">
        <ele>296.4</ele>
        <time>2021-03-21T14:57:03Z</time>
      </trkpt>
      <trkpt lat="43.95266" lon="1.93698">
        <ele>296.6</ele>
        <time>2021-03-21T14:57:04Z</time>
      </trkpt>
      <trkpt lat="43.95266" lon="1.937">
        <ele>297.2</ele>
        <time>2021-03-21T14:57:05Z</time>
      </trkpt>
      <trkpt lat="43.95265" lon="1.93702">
        <ele>297.2</ele>
        <time>2021-03-21T14:57:06Z</time>
      </trkpt>
      <trkpt lat="43.95264" lon="1.93704">
        <ele>297.6</ele>
        <time>2021-03-21T14:57:07Z</time>
      </trkpt>
      <trkpt lat="43.95263" lon="1.93705">
        <ele>297.6</ele>
        <time>2021-03-21T14:57:08Z</time>
      </trkpt>
      <trkpt lat="43.95262" lon="1.93707">
        <ele>297.8</ele>
        <time>2021-03-21T14:57:09Z</time>
      </trkpt>
      <trkpt lat="43.95261" lon="1.93708">
        <ele>297.8</ele>
        <time>2021-03-21T14:57:10Z</time>
      </trkpt>
      <trkpt lat="43.95261" lon="1.9371">
        <ele>297.8</ele>
        <time>2021-03-21T14:57:11Z</time>
      </trkpt>
      <trkpt lat="43.9526" lon="1.93712">
        <ele>298.2</ele>
        <time>2021-03-21T14:57:12Z</time>
      </trkpt>
      <trkpt lat="43.95259" lon="1.93713">
        <ele>298.4</ele>
        <time>2021-03-21T14:57:13Z</time>
      </trkpt>
      <trkpt lat="43.95258" lon="1.93714">
        <ele>298.8</ele>
        <time>2021-03-21T14:57:14Z</time>
      </trkpt>
      <trkpt lat="43.95258" lon="1.93714">
        <ele>299</ele>
        <time>2021-03-21T14:57:15Z</time>
      </trkpt>
      <trkpt lat="43.95257" lon="1.93715">
        <ele>299.2</ele>
        <time>2021-03-21T14:57:16Z</time>
      </trkpt>
      <trkpt lat="43.95256" lon="1.93716">
        <ele>299.4</ele>
        <time>2021-03-21T14:57:17Z</time>
      </trkpt>
      <trkpt lat="43.95255" lon="1.93717">
        <ele>299.6</ele>
        <time>2021-03-21T14:57:18Z</time>
      </trkpt>
      <trkpt lat="43.95255" lon="1.93718">
        <ele>299.8</ele>
        <time>2021-03-21T14:57:19Z</time>
      </trkpt>
      <trkpt lat="43.95254" lon="1.9372">
        <ele>300</ele>
        <time>2021-03-21T14:57:20Z</time>
      </trkpt>
      <trkpt lat="43.95254" lon="1.93722">
        <ele>300.2</ele>
        <time>2021-03-21T14:57:21Z</time>
      </trkpt>
      <trkpt lat="43.95253" lon="1.93723">
        <ele>300.2</ele>
        <time>2021-03-21T14:57:22Z</time>
      </trkpt>
      <trkpt lat="43.95253" lon="1.93724">
        <ele>300.2</ele>
        <time>2021-03-21T14:57:23Z</time>
      </trkpt>
      <trkpt lat="43.95252" lon="1.93725">
        <ele>300.4</ele>
        <time>2021-03-21T14:57:24Z</time>
      </trkpt>
      <trkpt lat="43.95251" lon="1.93727">
        <ele>300.4</ele>
        <time>2021-03-21T14:57:25Z</time>
      </trkpt>
      <trkpt lat="43.95251" lon="1.93728">
        <ele>300.6</ele>
        <time>2021-03-21T14:57:26Z</time>
      </trkpt>
      <trkpt lat="43.9525" lon="1.93729">
        <ele>300.6</ele>
        <time>2021-03-21T14:57:27Z</time>
      </trkpt>
      <trkpt lat="43.95249" lon="1.9373">
        <ele>300.6</ele>
        <time>2021-03-21T14:57:28Z</time>
      </trkpt>
      <trkpt lat="43.95249" lon="1.93732">
        <ele>300.8</ele>
        <time>2021-03-21T14:57:29Z</time>
      </trkpt>
      <trkpt lat="43.95248" lon="1.93733">
        <ele>300.8</ele>
        <time>2021-03-21T14:57:30Z</time>
      </trkpt>
      <trkpt lat="43.95248" lon="1.93734">
        <ele>301</ele>
        <time>2021-03-21T14:57:31Z</time>
      </trkpt>
      <trkpt lat="43.95247" lon="1.93735">
        <ele>301.2</ele>
        <time>2021-03-21T14:57:32Z</time>
      </trkpt>
      <trkpt lat="43.95247" lon="1.93735">
        <ele>301.4</ele>
        <time>2021-03-21T14:57:33Z</time>
      </trkpt>
      <trkpt lat="43.95247" lon="1.93736">
        <ele>301.4</ele>
        <time>2021-03-21T14:57:34Z</time>
      </trkpt>
      <trkpt lat="43.95248" lon="1.93736">
        <ele>301.6</ele>
        <time>2021-03-21T14:57:35Z</time>
      </trkpt>
      <trkpt lat="43.95189" lon="1.93903">
        <ele>323</ele>
        <time>2021-03-21T15:00:00Z</time>
      </trkpt>
      <trkpt lat="43.95188" lon="1.93904">
        <ele>323.2</ele>
        <time>2021-03-21T15:00:01Z</time>
      </trkpt>
      <trkpt lat="43.95187" lon="1.93906">
        <ele>323.4</ele>
        <time>2021-03-21T15:00:02Z</time>
      </trkpt>
      <trkpt lat="43.95187" lon="1.93908">
        <ele>323.8</ele>
        <time>2021-03-21T15:00:03Z</time>
      </trkpt>
      <trkpt lat="43.95186" lon="1.93909">
        <ele>323.8</ele>
        <time>2021-03-21T15:00:04Z</time>
      </trkpt>
      <trkpt lat="43.95185" lon="1.9391">
        <ele>324.2</ele>
        <time>2021-03-21T15:00:05Z</time>
      </trkpt>
      <trkpt lat="43.95184" lon="1.93912">
        <ele>324.2</ele>
        <time>2021-03-21T15:00:06Z</time>
      </trkpt>
      <trkpt lat="43.95183" lon="1.93913">
        <ele>324.2</ele>
        <time>2021-03-21T15:00:07Z</time>
      </trkpt>
      <trkpt lat="43.95182" lon="1.93915">
        <ele>324.2</ele>
        <time>2021-03-21T15:00:08Z</time>
      </trkpt>
      <trkpt lat="43.95181" lon="1.93916">
        <ele>324.2</ele>
        <time>2021-03-21T15:00:09Z</time>
      </trkpt>
      <trkpt lat="43.9518" lon="1.93918">
        <ele>324.2</ele>
        <time>2021-03-21T15:00:10Z</time>
      </trkpt>
      <trkpt lat="43.95178" lon="1.9392">
        <ele>324.4</ele>
        <time>2021-03-21T15:00:11Z</time>
      </trkpt>
      <trkpt lat="43.95178" lon="1.93921">
        <ele>324.4</ele>
        <time>2021-03-21T15:00:12Z</time>
      </trkpt>
      <trkpt lat="43.95177" lon="1.93923">
        <ele>324.8</ele>
        <time>2021-03-21T15:00:13Z</time>
      </trkpt>
      <trkpt lat="43.95175" lon="1.93924">
        <ele>325</ele>
        <time>2021-03-21T15:00:14Z</time>
      </trkpt>
      <trkpt lat="43.95174" lon="1.93926">
        <ele>325.2</ele>
        <time>2021-03-21T15:00:15Z</time>
      </trkpt>
      <trkpt lat="43.95173" lon="1.93927">
        <ele>325.2</ele>
        <time>2021-03-21T15:00:16Z</time>
      </trkpt>
      <trkpt lat="43.95172" lon="1.93929">
        <ele>325.4</ele>
        <time>2021-03-21T15:00:17Z</time>
      </trkpt>
      <trkpt lat="43.95171" lon="1.9393">
        <ele>325.4</ele>
        <time>2021-03-21T15:00:18Z</time>
      </trkpt>
      <trkpt lat="43.95171" lon="1.93932">
        <ele>325.8</ele>
        <time>2021-03-21T15:00:19Z</time>
      </trkpt>
      <trkpt lat="43.9517" lon="1.93934">
        <ele>325.8</ele>
        <time>2021-03-21T15:00:20Z</time>
      </trkpt>
      <trkpt lat="43.9517" lon="1.93935">
        <ele>326.2</ele>
        <time>2021-03-21T15:00:21Z</time>
      </trkpt>
      <trkpt lat="43.95169" lon="1.93937">
        <ele>326.4</ele>
        <time>2021-03-21T15:00:22Z</time>
      </trkpt>
      <trkpt lat="43.95168" lon="1.93939">
        <ele>326.6</ele>
        <time>2021-03-21T15:00:23Z</time>
      </trkpt>
      <trkpt lat="43.95167" lon="1.9394">
        <ele>326.8</ele>
        <time>2021-03-21T15:00:24Z</time>
      </trkpt>
      <trkpt lat="43.95167" lon="1.93942">
        <ele>327</ele>
        <time>2021-03-21T15:00:25Z</time>
      </trkpt>
      <trkpt lat="43.95166" lon="1.93943">
        <ele>327</ele>
        <time>2021-03-21T15:00:26Z</time>
      </trkpt>
      <trkpt lat="43.95165" lon="1.93945">
        <ele>327</ele>
        <time>2021-03-21T15:00:27Z</time>
      </trkpt>
      <trkpt lat="43.95165" lon="1.93947">
        <ele>327</ele>
        <time>2021-03-21T15:00:28Z</time>
      </trkpt>
      <trkpt lat="43.95164" lon="1.93949">
        <ele>327</ele>
        <time>2021-03-21T15:00:29Z</time>
      </trkpt>
      <trkpt lat="43.95163" lon="1.9395">
        <ele>327.2</ele>
        <time>2021-03-21T15:00:30Z</time>
      </trkpt>
      <trkpt lat="43.95162" lon="1.93952">
        <ele>327.4</ele>
        <time>2021-03-21T15:00:31Z</time>
      </trkpt>
      <trkpt lat="43.95161" lon="1.93953">
        <ele>327.6</ele>
        <time>2021-03-21T15:00:32Z</time>
      </trkpt>
      <trkpt lat="43.95161" lon="1.93955">
        <ele>328</ele>
        <time>2021-03-21T15:00:33Z</time>
      </trkpt>
      <trkpt lat="43.9516" lon="1.93956">
        <ele>328</ele>
        <time>2021-03-21T15:00:34Z</time>
      </trkpt>
      <trkpt lat="43.95159" lon="1.93958">
        <ele>328.2</ele>
        <time>2021-03-21T15:00:35Z</time>
      </trkpt>
      <trkpt lat="43.95158" lon="1.9396">
        <ele>328.4</ele>
        <time>2021-03-21T15:00:36Z</time>
      </trkpt>
      <trkpt lat="43.95158" lon="1.93961">
        <ele>328.4</ele>
        <time>2021-03-21T15:00:37Z</time>
      </trkpt>
      <trkpt lat="43.95157" lon="1.93963">
        <ele>328.6</ele>
        <time>2021-03-21T15:00:38Z</time>
      </trkpt>
      <trkpt lat="43.95156" lon="1.93965">
        <ele>328.6</ele>
        <time>2021-03-21T15:00:39Z</time>
      </trkpt>
      <trkpt lat="43.95155" lon="1.93967">
        <ele>328.6</ele>
        <time>2021-03-21T15:00:40Z</time>
      </trkpt>
      <trkpt lat="43.95155" lon="1.93969">
        <ele>328.8</ele>
        <time>2021-03-21T15:00:41Z</time>
      </trkpt>
      <trkpt lat="43.95154" lon="1.93971">
        <ele>329.2</ele>
        <time>2021-03-21T15:00:42Z</time>
      </trkpt>
      <trkpt lat="43.95154" lon="1.93973">
        <ele>329.4</ele>
        <time>2021-03-21T15:00:43Z</time>
      </trkpt>
      <trkpt lat="43.95154" lon="1.93975">
        <ele>329.8</ele>
        <time>2021-03-21T15:00:44Z</time>
      </trkpt>
      <trkpt lat="43.95153" lon="1.93976">
        <ele>329.8</ele>
        <time>2021-03-21T15:00:45Z</time>
      </trkpt>
      <trkpt lat="43.95153" lon="1.93978">
        <ele>330.2</ele>
        <time>2021-03-21T15:00:46Z</time>
      </trkpt>
      <trkpt lat="43.95152" lon="1.9398">
        <ele>330.4</ele>
        <time>2021-03-21T15:00:47Z</time>
      </trkpt>
      <trkpt lat="43.95152" lon="1.93982">
        <ele>330.4</ele>
        <time>2021-03-21T15:00:48Z</time>
      </trkpt>
      <trkpt lat="43.95152" lon="1.93984">
        <ele>330.4</ele>
        <time>2021-03-21T15:00:49Z</time>
      </trkpt>
      <trkpt lat="43.95151" lon="1.93986">
        <ele>330.6</ele>
        <time>2021-03-21T15:00:50Z</time>
      </trkpt>
      <trkpt lat="43.95151" lon="1.93988">
        <ele>330.6</ele>
        <time>2021-03-21T15:00:51Z</time>
      </trkpt>
      <trkpt lat="43.9515" lon="1.9399">
        <ele>331</ele>
        <time>2021-03-21T15:00:52Z</time>
      </trkpt>
      <trkpt lat="43.9515" lon="1.93992">
        <ele>331</ele>
        <time>2021-03-21T15:00:53Z</time>
      </trkpt>
      <trkpt lat="43.95149" lon="1.93994">
        <ele>331.2</ele>
        <time>2021-03-21T15:00:54Z</time>
      </trkpt>
      <trkpt lat="43.95149" lon="1.93997">
        <ele>331.4</ele>
        <time>2021-03-21T15:00:55Z</time>
      </trkpt>
      <trkpt lat="43.95148" lon="1.93999">
        <ele>331.8</ele>
        <time>2021-03-21T15:00:56Z</time>
      </trkpt>
      <trkpt lat="43.95148" lon="1.94002">
        <ele>331.8</ele>
        <time>2021-03-21T15:00:57Z</time>
      </trkpt>
      <trkpt lat="43.95148" lon="1.94004">
        <ele>332</ele>
        <time>2021-03-21T15:00:58Z</time>
      </trkpt>
      <trkpt lat="43.95147" lon="1.94006">
        <ele>332.2</ele>
        <time>2021-03-21T15:00:59Z</time>
      </trkpt>
      <trkpt lat="43.95147" lon="1.94008">
        <ele>332.6</ele>
        <time>2021-03-21T15:01:00Z</time>
      </trkpt>
      <trkpt lat="43.95147" lon="1.94011">
        <ele>332.6</ele>
        <time>2021-03-21T15:01:01Z</time>
      </trkpt>
      <trkpt lat="43.95146" lon="1.94013">
        <ele>332.8</ele>
        <time>2021-03-21T15:01:02Z</time>
      </trkpt>
      <trkpt lat="43.95146" lon="1.94015">
        <ele>333</ele>
        <time>2021-03-21T15:01:03Z</time>
      </trkpt>
      <trkpt lat="43.95146" lon="1.94018">
        <ele>333</ele>
        <time>2021-03-21T15:01:04Z</time>
      </trkpt>
      <trkpt lat="43.95146" lon="1.9402">
        <ele>333</ele>
        <time>2021-03-21T15:01:05Z</time>
      </trkpt>
      <trkpt lat="43.95146" lon="1.94022">
        <ele>333.4</ele>
        <time>2021-03-21T15:01:06Z</time>
      </trkpt>
      <trkpt lat="43.95146" lon="1.94025">
        <ele>333.4</ele>
        <time>2021-03-21T15:01:07Z</time>
      </trkpt>
      <trkpt lat="43.95146" lon="1.94027">
        <ele>333.4</ele>
        <time>2021-03-21T15:01:08Z</time>
      </trkpt>
      <trkpt lat="43.95146" lon="1.94029">
        <ele>333.8</ele>
        <time>2021-03-21T15:01:09Z</time>
      </trkpt>
      <trkpt lat="43.95145" lon="1.94032">
        <ele>333.8</ele>
        <time>2021-03-21T15:01:10Z</time>
      </trkpt>
      <trkpt lat="43.95145" lon="1.94034">
        <ele>334</ele>
        <time>2021-03-21T15:01:11Z</time>
      </trkpt>
      <trkpt lat="43.95145" lon="1.94036">
        <ele>334.2</ele>
        <time>2021-03-21T15:01:12Z</time>
      </trkpt>
      <trkpt lat="43.95145" lon="1.94038">
        <ele>334.2</ele>
        <time>2021-03-21T15:01:13Z</time>
      </trkpt>
      <trkpt lat="43.95145" lon="1.9404">
        <ele>334.4</ele>
        <time>2021-03-21T15:01:14Z</time>
      </trkpt>
      <trkpt lat="43.95145" lon="1.94043">
        <ele>334.4</ele>
        <time>2021-03-21T15:01:15Z</time>
      </trkpt>
      <trkpt lat="43.95144" lon="1.94045">
        <ele>334.6</ele>
        <time>2021-03-21T15:01:16Z</time>
      </trkpt>
      <trkpt lat="43.95144" lon="1.94048">
        <ele>334.8</ele>
        <time>2021-03-21T15:01:17Z</time>
      </trkpt>
      <trkpt lat="43.95144" lon="1.9405">
        <ele>334.8</ele>
        <time>2021-03-21T15:01:18Z</time>
      </trkpt>
      <trkpt lat="43.95144" lon="1.94053">
        <ele>335</ele>
        <time>2021-03-21T15:01:19Z</time>
      </trkpt>
      <trkpt lat="43.95144" lon="1.94055">
        <ele>335</ele>
        <time>2021-03-21T15:01:20Z</time>
      </trkpt>
      <trkpt lat="43.95143" lon="1.94058">
        <ele>335</ele>
        <time>2021-03-21T15:01:21Z</time>
      </trkpt>
      <trkpt lat="43.95143" lon="1.94061">
        <ele>335.2</ele>
        <time>2021-03-21T15:01:22Z</time>
      </trkpt>
      <trkpt lat="43.95143" lon="1.94064">
        <ele>335.2</ele>
        <time>2021-03-21T15:01:23Z</time>
      </trkpt>
      <trkpt lat="43.95143" lon="1.94067">
        <ele>335.4</ele>
        <time>2021-03-21T15:01:24Z</time>
      </trkpt>
      <trkpt lat="43.95143" lon="1.9407">
        <ele>335.6</ele>
        <time>2021-03-21T15:01:25Z</time>
      </trkpt>
      <trkpt lat="43.95143" lon="1.94073">
        <ele>336</ele>
        <time>2021-03-21T15:01:26Z</time>
      </trkpt>
      <trkpt lat="43.95143" lon="1.94075">
        <ele>336.2</ele>
        <time>2021-03-21T15:01:27Z</time>
      </trkpt>
      <trkpt lat="43.95142" lon="1.94078">
        <ele>336.2</ele>
        <time>2021-03-21T15:01:28Z</time>
      </trkpt>
      <trkpt lat="43.95142" lon="1.94081">
        <ele>336.4</ele>
        <time>2021-03-21T15:01:29Z</time>
      </trkpt>
      <trkpt lat="43.95142" lon="1.94083">
        <ele>336.4</ele>
        <time>2021-03-21T15:01:30Z</time>
      </trkpt>
      <trkpt lat="43.95141" lon="1.94085">
        <ele>336.6</ele>
        <time>2021-03-21T15:01:31Z</time>
      </trkpt>
      <trkpt lat="43.95141" lon="1.94087">
        <ele>336.6</ele>
        <time>2021-03-21T15:01:32Z</time>
      </trkpt>
      <trkpt lat="43.95141" lon="1.9409">
        <ele>336.8</ele>
        <time>2021-03-21T15:01:33Z</time>
      </trkpt>
      <trkpt lat="43.9514" lon="1.94092">
        <ele>336.6</ele>
        <time>2021-03-21T15:01:34Z</time>
      </trkpt>
      <trkpt lat="43.9514" lon="1.94095">
        <ele>336.8</ele>
        <time>2021-03-21T15:01:35Z</time>
      </trkpt>
      <trkpt lat="43.9514" lon="1.94098">
        <ele>337</ele>
        <time>2021-03-21T15:01:36Z</time>
      </trkpt>
      <trkpt lat="43.95139" lon="1.94101">
        <ele>337</ele>
        <time>2021-03-21T15:01:37Z</time>
      </trkpt>
      <trkpt lat="43.95139" lon="1.94103">
        <ele>337.2</ele>
        <time>2021-03-21T15:01:38Z</time>
      </trkpt>
      <trkpt lat="43.95139" lon="1.94106">
        <ele>337.2</ele>
        <time>2021-03-21T15:01:39Z</time>
      </trkpt>
      <trkpt lat="43.95138" lon="1.94108">
        <ele>337.4</ele>
        <time>2021-03-21T15:01:40Z</time>
      </trkpt>
      <trkpt lat="43.95138" lon="1.94111">
        <ele>337.4</ele>
        <time>2021-03-21T15:01:41Z</time>
      </trkpt>
      <trkpt lat="43.95138" lon="1.94113">
        <ele>337.6</ele>
        <time>2021-03-21T15:01:42Z</time>
      </trkpt>
      <trkpt lat="43.95138" lon="1.94115">
        <ele>337.8</ele>
        <time>2021-03-21T15:01:43Z</time>
      </trkpt>
      <trkpt lat="43.95138" lon="1.94117">
        <ele>337.6</ele>
        <time>2021-03-21T15:01:44Z</time>
      </trkpt>
      <trkpt lat="43.95137" lon="1.9412">
        <ele>337.8</ele>
        <time>2021-03-21T15:01:45Z</time>
      </trkpt>
      <trkpt lat="43.95137" lon="1.94122">
        <ele>337.8</ele>
        <time>2021-03-21T15:01:46Z</time>
      </trkpt>
      <trkpt lat="43.95137" lon="1.94125">
        <ele>338.2</ele>
        <time>2021-03-21T15:01:47Z</time>
      </trkpt>
      <trkpt lat="43.95136" lon="1.94127">
        <ele>338.2</ele>
        <time>2021-03-21T15:01:48Z</time>
      </trkpt>
      <trkpt lat="43.95136" lon="1.94132">
        <ele>338.2</ele>
        <time>2021-03-21T15:01:50Z</time>
      </trkpt>
      <trkpt lat="43.95136" lon="1.94135">
        <ele>338.4</ele>
        <time>2021-03-21T15:01:51Z</time>
      </trkpt>
      <trkpt lat="43.95136" lon="1.94138">
        <ele>338.6</ele>
        <time>2021-03-21T15:01:52Z</time>
      </trkpt>
      <trkpt lat="43.95135" lon="1.9414">
        <ele>338.6</ele>
        <time>2021-03-21T15:01:53Z</time>
      </trkpt>
      <trkpt lat="43.95135" lon="1.94143">
        <ele>338.6</ele>
        <time>2021-03-21T15:01:54Z</time>
      </trkpt>
      <trkpt lat="43.95135" lon="1.94146">
        <ele>338.8</ele>
        <time>2021-03-21T15:01:55Z</time>
      </trkpt>
      <trkpt lat="43.95134" lon="1.94148">
        <ele>338.8</ele>
        <time>2021-03-21T15:01:56Z</time>
      </trkpt>
      <trkpt lat="43.95134" lon="1.94151">
        <ele>338.8</ele>
        <time>2021-03-21T15:01:57Z</time>
      </trkpt>
      <trkpt lat="43.95134" lon="1.94154">
        <ele>338.8</ele>
        <time>2021-03-21T15:01:58Z</time>
      </trkpt>
      <trkpt lat="43.95133" lon="1.9416">
        <ele>339</ele>
        <time>2021-03-21T15:02:00Z</time>
      </trkpt>
      <trkpt lat="43.95133" lon="1.94163">
        <ele>339</ele>
        <time>2021-03-21T15:02:01Z</time>
      </trkpt>
      <trkpt lat="43.95132" lon="1.94166">
        <ele>339</ele>
        <time>2021-03-21T15:02:02Z</time>
      </trkpt>
      <trkpt lat="43.95132" lon="1.94169">
        <ele>339</ele>
        <time>2021-03-21T15:02:03Z</time>
      </trkpt>
      <trkpt lat="43.95131" lon="1.94175">
        <ele>339.2</ele>
        <time>2021-03-21T15:02:05Z</time>
      </trkpt>
      <trkpt lat="43.9513" lon="1.94178">
        <ele>339.4</ele>
        <time>2021-03-21T15:02:06Z</time>
      </trkpt>
      <trkpt lat="43.9513" lon="1.94181">
        <ele>339.6</ele>
        <time>2021-03-21T15:02:07Z</time>
      </trkpt>
      <trkpt lat="43.95129" lon="1.94184">
        <ele>339.6</ele>
        <time>2021-03-21T15:02:08Z</time>
      </trkpt>
      <trkpt lat="43.95129" lon="1.94187">
        <ele>339.6</ele>
        <time>2021-03-21T15:02:09Z</time>
      </trkpt>
      <trkpt lat="43.95128" lon="1.94189">
        <ele>339.6</ele>
        <time>2021-03-21T15:02:10Z</time>
      </trkpt>
      <trkpt lat="43.95127" lon="1.94192">
        <ele>339.8</ele>
        <time>2021-03-21T15:02:11Z</time>
      </trkpt>
      <trkpt lat="43.95127" lon="1.94195">
        <ele>340.2</ele>
        <time>2021-03-21T15:02:12Z</time>
      </trkpt>
      <trkpt lat="43.95126" lon="1.94198">
        <ele>340.4</ele>
        <time>2021-03-21T15:02:13Z</time>
      </trkpt>
      <trkpt lat="43.95125" lon="1.94201">
        <ele>340.4</ele>
        <time>2021-03-21T15:02:14Z</time>
      </trkpt>
      <trkpt lat="43.95125" lon="1.94204">
        <ele>340.6</ele>
        <time>2021-03-21T15:02:15Z</time>
      </trkpt>
      <trkpt lat="43.95124" lon="1.94207">
        <ele>340.8</ele>
        <time>2021-03-21T15:02:16Z</time>
      </trkpt>
      <trkpt lat="43.95124" lon="1.94209">
        <ele>341</ele>
        <time>2021-03-21T15:02:17Z</time>
      </trkpt>
      <trkpt lat="43.95123" lon="1.94211">
        <ele>341.2</ele>
        <time>2021-03-21T15:02:18Z</time>
      </trkpt>
      <trkpt lat="43.95123" lon="1.94214">
        <ele>341.4</ele>
        <time>2021-03-21T15:02:19Z</time>
      </trkpt>
      <trkpt lat="43.95122" lon="1.94216">
        <ele>341.4</ele>
        <time>2021-03-21T15:02:20Z</time>
      </trkpt>
      <trkpt lat="43.95122" lon="1.94219">
        <ele>341.4</ele>
        <time>2021-03-21T15:02:21Z</time>
      </trkpt>
      <trkpt lat="43.95122" lon="1.94221">
        <ele>341.4</ele>
        <time>2021-03-21T15:02:22Z</time>
      </trkpt>
      <trkpt lat="43.95123" lon="1.94224">
        <ele>341.6</ele>
        <time>2021-03-21T15:02:23Z</time>
      </trkpt>
      <trkpt lat="43.95124" lon="1.94226">
        <ele>341.6</ele>
        <time>2021-03-21T15:02:24Z</time>
      </trkpt>
      <trkpt lat="43.95126" lon="1.94227">
        <ele>341.6</ele>
        <time>2021-03-21T15:02:25Z</time>
      </trkpt>
      <trkpt lat="43.95127" lon="1.94229">
        <ele>341.8</ele>
        <time>2021-03-21T15:02:26Z</time>
      </trkpt>
      <trkpt lat="43.95129" lon="1.9423">
        <ele>341.8</ele>
        <time>2021-03-21T15:02:27Z</time>
      </trkpt>
      <trkpt lat="43.9513" lon="1.94231">
        <ele>341.8</ele>
        <time>2021-03-21T15:02:28Z</time>
      </trkpt>
      <trkpt lat="43.95132" lon="1.94233">
        <ele>341.6</ele>
        <time>2021-03-21T15:02:29Z</time>
      </trkpt>
      <trkpt lat="43.95134" lon="1.94234">
        <ele>341.8</ele>
        <time>2021-03-21T15:02:30Z</time>
      </trkpt>
      <trkpt lat="43.95137" lon="1.94236">
        <ele>341.8</ele>
        <time>2021-03-21T15:02:31Z</time>
      </trkpt>
      <trkpt lat="43.95139" lon="1.94237">
        <ele>342</ele>
        <time>2021-03-21T15:02:32Z</time>
      </trkpt>
      <trkpt lat="43.95142" lon="1.9424">
        <ele>341.8</ele>
        <time>2021-03-21T15:02:33Z</time>
      </trkpt>
      <trkpt lat="43.95145" lon="1.94243">
        <ele>342</ele>
        <time>2021-03-21T15:02:34Z</time>
      </trkpt>
      <trkpt lat="43.95148" lon="1.94246">
        <ele>342</ele>
        <time>2021-03-21T15:02:35Z</time>
      </trkpt>
      <trkpt lat="43.95152" lon="1.94251">
        <ele>341.8</ele>
        <time>2021-03-21T15:02:36Z</time>
      </trkpt>
      <trkpt lat="43.95156" lon="1.94255">
        <ele>341.8</ele>
        <time>2021-03-21T15:02:37Z</time>
      </trkpt>
      <trkpt lat="43.9516" lon="1.9426">
        <ele>341.8</ele>
        <time>2021-03-21T15:02:38Z</time>
      </trkpt>
      <trkpt lat="43.95164" lon="1.94266">
        <ele>341.8</ele>
        <time>2021-03-21T15:02:39Z</time>
      </trkpt>
      <trkpt lat="43.95169" lon="1.94273">
        <ele>341.8</ele>
        <time>2021-03-21T15:02:40Z</time>
      </trkpt>
      <trkpt lat="43.95174" lon="1.9428">
        <ele>341.4</ele>
        <time>2021-03-21T15:02:41Z</time>
      </trkpt>
      <trkpt lat="43.95178" lon="1.94288">
        <ele>341</ele>
        <time>2021-03-21T15:02:42Z</time>
      </trkpt>
      <trkpt lat="43.95183" lon="1.94295">
        <ele>340.6</ele>
        <time>2021-03-21T15:02:43Z</time>
      </trkpt>
      <trkpt lat="43.95187" lon="1.94301">
        <ele>340.2</ele>
        <time>2021-03-21T15:02:44Z</time>
      </trkpt>
      <trkpt lat="43.95192" lon="1.94307">
        <ele>339.6</ele>
        <time>2021-03-21T15:02:45Z</time>
      </trkpt>
      <trkpt lat="43.95196" lon="1.94313">
        <ele>338.8</ele>
        <time>2021-03-21T15:02:46Z</time>
      </trkpt>
      <trkpt lat="43.95199" lon="1.94317">
        <ele>338.8</ele>
        <time>2021-03-21T15:02:47Z</time>
      </trkpt>
      <trkpt lat="43.95202" lon="1.94321">
        <ele>338.2</ele>
        <time>2021-03-21T15:02:48Z</time>
      </trkpt>
      <trkpt lat="43.95205" lon="1.94324">
        <ele>337.2</ele>
        <time>2021-03-21T15:02:49Z</time>
      </trkpt>
      <trkpt lat="43.95209" lon="1.94326">
        <ele>337</ele>
        <time>2021-03-21T15:02:50Z</time>
      </trkpt>
      <trkpt lat="43.95212" lon="1.94328">
        <ele>336.8</ele>
        <time>2021-03-21T15:02:51Z</time>
      </trkpt>
      <trkpt lat="43.95214" lon="1.9433">
        <ele>336.6</ele>
        <time>2021-03-21T15:02:52Z</time>
      </trkpt>
      <trkpt lat="43.95217" lon="1.94332">
        <ele>336.6</ele>
        <time>2021-03-21T15:02:53Z</time>
      </trkpt>
      <trkpt lat="43.95219" lon="1.94333">
        <ele>336.6</ele>
        <time>2021-03-21T15:02:54Z</time>
      </trkpt>
      <trkpt lat="43.95222" lon="1.94334">
        <ele>336.6</ele>
        <time>2021-03-21T15:02:55Z</time>
      </trkpt>
      <trkpt lat="43.95224" lon="1.94336">
        <ele>336.6</ele>
        <time>2021-03-21T15:02:56Z</time>
      </trkpt>
      <trkpt lat="43.95226" lon="1.94337">
        <ele>336.8</ele>
        <time>2021-03-21T15:02:57Z</time>
      </trkpt>
      <trkpt lat="43.95228" lon="1.94338">
        <ele>336.8</ele>
        <time>2021-03-21T15:02:58Z</time>
      </trkpt>
      <trkpt lat="43.9523" lon="1.94339">
        <ele>337</ele>
        <time>2021-03-21T15:02:59Z</time>
      </trkpt>
      <trkpt lat="43.95232" lon="1.94341">
        <ele>337.2</ele>
        <time>2021-03-21T15:03:00Z</time>
      </trkpt>
      <trkpt lat="43.95233" lon="1.94341">
        <ele>337.2</ele>
        <time>2021-03-21T15:03:01Z</time>
      </trkpt>
      <trkpt lat="43.95235" lon="1.94342">
        <ele>337.4</ele>
        <time>2021-03-21T15:03:02Z</time>
      </trkpt>
      <trkpt lat="43.95239" lon="1.94344">
        <ele>338</ele>
        <time>2021-03-21T15:03:04Z</time>
      </trkpt>
      <trkpt lat="43.9524" lon="1.94345">
        <ele>338.4</ele>
        <time>2021-03-21T15:03:05Z</time>
      </trkpt>
      <trkpt lat="43.95242" lon="1.94346">
        <ele>338.8</ele>
        <time>2021-03-21T15:03:06Z</time>
      </trkpt>
      <trkpt lat="43.95244" lon="1.94347">
        <ele>339.4</ele>
        <time>2021-03-21T15:03:07Z</time>
      </trkpt>
      <trkpt lat="43.95246" lon="1.94349">
        <ele>339.8</ele>
        <time>2021-03-21T15:03:08Z</time>
      </trkpt>
      <trkpt lat="43.95248" lon="1.94349">
        <ele>339.8</ele>
        <time>2021-03-21T15:03:09Z</time>
      </trkpt>
      <trkpt lat="43.9525" lon="1.94351">
        <ele>340.4</ele>
        <time>2021-03-21T15:03:10Z</time>
      </trkpt>
      <trkpt lat="43.95251" lon="1.94352">
        <ele>340.6</ele>
        <time>2021-03-21T15:03:11Z</time>
      </trkpt>
      <trkpt lat="43.95253" lon="1.94354">
        <ele>340.8</ele>
        <time>2021-03-21T15:03:12Z</time>
      </trkpt>
      <trkpt lat="43.95255" lon="1.94356">
        <ele>341</ele>
        <time>2021-03-21T15:03:13Z</time>
      </trkpt>
      <trkpt lat="43.95257" lon="1.94357">
        <ele>341.4</ele>
        <time>2021-03-21T15:03:14Z</time>
      </trkpt>
      <trkpt lat="43.95258" lon="1.94359">
        <ele>341.8</ele>
        <time>2021-03-21T15:03:15Z</time>
      </trkpt>
      <trkpt lat="43.9526" lon="1.94361">
        <ele>341.8</ele>
        <time>2021-03-21T15:03:16Z</time>
      </trkpt>
      <trkpt lat="43.95262" lon="1.94363">
        <ele>342.2</ele>
        <time>2021-03-21T15:03:17Z</time>
      </trkpt>
      <trkpt lat="43.95264" lon="1.94366">
        <ele>342.2</ele>
        <time>2021-03-21T15:03:18Z</time>
      </trkpt>
      <trkpt lat="43.95266" lon="1.94368">
        <ele>342.6</ele>
        <time>2021-03-21T15:03:19Z</time>
      </trkpt>
      <trkpt lat="43.95268" lon="1.9437">
        <ele>343</ele>
        <time>2021-03-21T15:03:20Z</time>
      </trkpt>
      <trkpt lat="43.9527" lon="1.94373">
        <ele>343</ele>
        <time>2021-03-21T15:03:21Z</time>
      </trkpt>
      <trkpt lat="43.95271" lon="1.94375">
        <ele>343</ele>
        <time>2021-03-21T15:03:22Z</time>
      </trkpt>
      <trkpt lat="43.95273" lon="1.94377">
        <ele>343.2</ele>
        <time>2021-03-21T15:03:23Z</time>
      </trkpt>
      <trkpt lat="43.95275" lon="1.94379">
        <ele>343.2</ele>
        <time>2021-03-21T15:03:24Z</time>
      </trkpt>
      <trkpt lat="43.95277" lon="1.94382">
        <ele>343</ele>
        <time>2021-03-21T15:03:25Z</time>
      </trkpt>
      <trkpt lat="43.95279" lon="1.94384">
        <ele>343.2</ele>
        <time>2021-03-21T15:03:26Z</time>
      </trkpt>
      <trkpt lat="43.95281" lon="1.94386">
        <ele>343.2</ele>
        <time>2021-03-21T15:03:27Z</time>
      </trkpt>
      <trkpt lat="43.95283" lon="1.94388">
        <ele>343.2</ele>
        <time>2021-03-21T15:03:28Z</time>
      </trkpt>
      <trkpt lat="43.95285" lon="1.94391">
        <ele>343.2</ele>
        <time>2021-03-21T15:03:29Z</time>
      </trkpt>
      <trkpt lat="43.95287" lon="1.94394">
        <ele>343.4</ele>
        <time>2021-03-21T15:03:30Z</time>
      </trkpt>
      <trkpt lat="43.95289" lon="1.94396">
        <ele>343.2</ele>
        <time>2021-03-21T15:03:31Z</time>
      </trkpt>
      <trkpt lat="43.9529" lon="1.94399">
        <ele>343.4</ele>
        <time>2021-03-21T15:03:32Z</time>
      </trkpt>
      <trkpt lat="43.95293" lon="1.94404">
        <ele>343.4</ele>
        <time>2021-03-21T15:03:34Z</time>
      </trkpt>
      <trkpt lat="43.95295" lon="1.94407">
        <ele>343.4</ele>
        <time>2021-03-21T15:03:35Z</time>
      </trkpt>
      <trkpt lat="43.95296" lon="1.9441">
        <ele>343.6</ele>
        <time>2021-03-21T15:03:36Z</time>
      </trkpt>
      <trkpt lat="43.95297" lon="1.94413">
        <ele>343.6</ele>
        <time>2021-03-21T15:03:37Z</time>
      </trkpt>
      <trkpt lat="43.95299" lon="1.94416">
        <ele>343.8</ele>
        <time>2021-03-21T15:03:38Z</time>
      </trkpt>
      <trkpt lat="43.953" lon="1.94418">
        <ele>343.6</ele>
        <time>2021-03-21T15:03:39Z</time>
      </trkpt>
      <trkpt lat="43.95301" lon="1.94421">
        <ele>343.6</ele>
        <time>2021-03-21T15:03:40Z</time>
      </trkpt>
      <trkpt lat="43.95302" lon="1.94424">
        <ele>343.8</ele>
        <time>2021-03-21T15:03:41Z</time>
      </trkpt>
      <trkpt lat="43.95303" lon="1.94427">
        <ele>343.6</ele>
        <time>2021-03-21T15:03:42Z</time>
      </trkpt>
      <trkpt lat="43.95304" lon="1.9443">
        <ele>343.6</ele>
        <time>2021-03-21T15:03:43Z</time>
      </trkpt>
      <trkpt lat="43.95306" lon="1.94432">
        <ele>343.8</ele>
        <time>2021-03-21T15:03:44Z</time>
      </trkpt>
      <trkpt lat="43.95307" lon="1.94435">
        <ele>343.8</ele>
        <time>2021-03-21T15:03:45Z</time>
      </trkpt>
      <trkpt lat="43.95308" lon="1.94438">
        <ele>344</ele>
        <time>2021-03-21T15:03:46Z</time>
      </trkpt>
      <trkpt lat="43.9531" lon="1.94441">
        <ele>343.8</ele>
        <time>2021-03-21T15:03:47Z</time>
      </trkpt>
      <trkpt lat="43.95311" lon="1.94443">
        <ele>344.2</ele>
        <time>2021-03-21T15:03:48Z</time>
      </trkpt>
      <trkpt lat="43.95312" lon="1.94445">
        <ele>344.2</ele>
        <time>2021-03-21T15:03:49Z</time>
      </trkpt>
      <trkpt lat="43.95314" lon="1.94448">
        <ele>344.2</ele>
        <time>2021-03-21T15:03:50Z</time>
      </trkpt>
      <trkpt lat="43.95315" lon="1.9445">
        <ele>344.4</ele>
        <time>2021-03-21T15:03:51Z</time>
      </trkpt>
      <trkpt lat="43.95316" lon="1.94453">
        <ele>344.6</ele>
        <time>2021-03-21T15:03:52Z</time>
      </trkpt>
      <trkpt lat="43.95316" lon="1.94456">
        <ele>344.6</ele>
        <time>2021-03-21T15:03:53Z</time>
      </trkpt>
      <trkpt lat="43.95316" lon="1.94458">
        <ele>344.8</ele>
        <time>2021-03-21T15:03:54Z</time>
      </trkpt>
      <trkpt lat="43.95316" lon="1.94461">
        <ele>344.8</ele>
        <time>2021-03-21T15:03:55Z</time>
      </trkpt>
      <trkpt lat="43.95315" lon="1.94464">
        <ele>345</ele>
        <time>2021-03-21T15:03:56Z</time>
      </trkpt>
      <trkpt lat="43.95314" lon="1.94466">
        <ele>345</ele>
        <time>2021-03-21T15:03:57Z</time>
      </trkpt>
      <trkpt lat="43.95312" lon="1.94468">
        <ele>345</ele>
        <time>2021-03-21T15:03:58Z</time>
      </trkpt>
      <trkpt lat="43.95311" lon="1.9447">
        <ele>345</ele>
        <time>2021-03-21T15:03:59Z</time>
      </trkpt>
      <trkpt lat="43.95309" lon="1.94472">
        <ele>345</ele>
        <time>2021-03-21T15:04:00Z</time>
      </trkpt>
      <trkpt lat="43.95308" lon="1.94475">
        <ele>345</ele>
        <time>2021-03-21T15:04:01Z</time>
      </trkpt>
      <trkpt lat="43.95306" lon="1.94477">
        <ele>345.2</ele>
        <time>2021-03-21T15:04:02Z</time>
      </trkpt>
      <trkpt lat="43.95305" lon="1.94479">
        <ele>345</ele>
        <time>2021-03-21T15:04:03Z</time>
      </trkpt>
      <trkpt lat="43.95304" lon="1.94482">
        <ele>345.2</ele>
        <time>2021-03-21T15:04:04Z</time>
      </trkpt>
      <trkpt lat="43.95304" lon="1.94484">
        <ele>345.2</ele>
        <time>2021-03-21T15:04:05Z</time>
      </trkpt>
      <trkpt lat="43.95303" lon="1.94487">
        <ele>345.2</ele>
        <time>2021-03-21T15:04:06Z</time>
      </trkpt>
      <trkpt lat="43.95302" lon="1.9449">
        <ele>345.2</ele>
        <time>2021-03-21T15:04:07Z</time>
      </trkpt>
      <trkpt lat="43.95301" lon="1.94493">
        <ele>345.2</ele>
        <time>2021-03-21T15:04:08Z</time>
      </trkpt>
      <trkpt lat="43.953" lon="1.94496">
        <ele>345.4</ele>
        <time>2021-03-21T15:04:09Z</time>
      </trkpt>
      <trkpt lat="43.95299" lon="1.94499">
        <ele>345.2</ele>
        <time>2021-03-21T15:04:10Z</time>
      </trkpt>
      <trkpt lat="43.95298" lon="1.94502">
        <ele>345.2</ele>
        <time>2021-03-21T15:04:11Z</time>
      </trkpt>
      <trkpt lat="43.95297" lon="1.94505">
        <ele>345.4</ele>
        <time>2021-03-21T15:04:12Z</time>
      </trkpt>
      <trkpt lat="43.95295" lon="1.94507">
        <ele>345.4</ele>
        <time>2021-03-21T15:04:13Z</time>
      </trkpt>
      <trkpt lat="43.95292" lon="1.94513">
        <ele>345.4</ele>
        <time>2021-03-21T15:04:15Z</time>
      </trkpt>
      <trkpt lat="43.95291" lon="1.94516">
        <ele>345.4</ele>
        <time>2021-03-21T15:04:16Z</time>
      </trkpt>
      <trkpt lat="43.9529" lon="1.94518">
        <ele>345.6</ele>
        <time>2021-03-21T15:04:17Z</time>
      </trkpt>
      <trkpt lat="43.95289" lon="1.94521">
        <ele>345.4</ele>
        <time>2021-03-21T15:04:18Z</time>
      </trkpt>
      <trkpt lat="43.95287" lon="1.94523">
        <ele>345.6</ele>
        <time>2021-03-21T15:04:19Z</time>
      </trkpt>
      <trkpt lat="43.95287" lon="1.94526">
        <ele>345.6</ele>
        <time>2021-03-21T15:04:20Z</time>
      </trkpt>
      <trkpt lat="43.95284" lon="1.94531">
        <ele>345.4</ele>
        <time>2021-03-21T15:04:22Z</time>
      </trkpt>
      <trkpt lat="43.95283" lon="1.94534">
        <ele>345.4</ele>
        <time>2021-03-21T15:04:23Z</time>
      </trkpt>
      <trkpt lat="43.95282" lon="1.94536">
        <ele>345.4</ele>
        <time>2021-03-21T15:04:24Z</time>
      </trkpt>
      <trkpt lat="43.9528" lon="1.94539">
        <ele>345.4</ele>
        <time>2021-03-21T15:04:25Z</time>
      </trkpt>
      <trkpt lat="43.95279" lon="1.94541">
        <ele>345.4</ele>
        <time>2021-03-21T15:04:26Z</time>
      </trkpt>
      <trkpt lat="43.95278" lon="1.94544">
        <ele>345.4</ele>
        <time>2021-03-21T15:04:27Z</time>
      </trkpt>
      <trkpt lat="43.95278" lon="1.94546">
        <ele>345.4</ele>
        <time>2021-03-21T15:04:28Z</time>
      </trkpt>
      <trkpt lat="43.95277" lon="1.94549">
        <ele>345.4</ele>
        <time>2021-03-21T15:04:29Z</time>
      </trkpt>
      <trkpt lat="43.95276" lon="1.94551">
        <ele>345.4</ele>
        <time>2021-03-21T15:04:30Z</time>
      </trkpt>
      <trkpt lat="43.95274" lon="1.94554">
        <ele>345.4</ele>
        <time>2021-03-21T15:04:31Z</time>
      </trkpt>
      <trkpt lat="43.95273" lon="1.94556">
        <ele>345.2</ele>
        <time>2021-03-21T15:04:32Z</time>
      </trkpt>
      <trkpt lat="43.95272" lon="1.94559">
        <ele>345.2</ele>
        <time>2021-03-21T15:04:33Z</time>
      </trkpt>
      <trkpt lat="43.9527" lon="1.94566">
        <ele>345.2</ele>
        <time>2021-03-21T15:04:35Z</time>
      </trkpt>
      <trkpt lat="43.95269" lon="1.94569">
        <ele>345.2</ele>
        <time>2021-03-21T15:04:36Z</time>
      </trkpt>
      <trkpt lat="43.95268" lon="1.94572">
        <ele>345.2</ele>
        <time>2021-03-21T15:04:37Z</time>
      </trkpt>
      <trkpt lat="43.95267" lon="1.94574">
        <ele>345.2</ele>
        <time>2021-03-21T15:04:38Z</time>
      </trkpt>
      <trkpt lat="43.95266" lon="1.94577">
        <ele>345.2</ele>
        <time>2021-03-21T15:04:39Z</time>
      </trkpt>
      <trkpt lat="43.95265" lon="1.9458">
        <ele>345.2</ele>
        <time>2021-03-21T15:04:40Z</time>
      </trkpt>
      <trkpt lat="43.95263" lon="1.94583">
        <ele>345.4</ele>
        <time>2021-03-21T15:04:41Z</time>
      </trkpt>
      <trkpt lat="43.95263" lon="1.94586">
        <ele>345.2</ele>
        <time>2021-03-21T15:04:42Z</time>
      </trkpt>
      <trkpt lat="43.95261" lon="1.94589">
        <ele>345.2</ele>
        <time>2021-03-21T15:04:43Z</time>
      </trkpt>
      <trkpt lat="43.95259" lon="1.94596">
        <ele>345.2</ele>
        <time>2021-03-21T15:04:45Z</time>
      </trkpt>
      <trkpt lat="43.95258" lon="1.94599">
        <ele>345.2</ele>
        <time>2021-03-21T15:04:46Z</time>
      </trkpt>
      <trkpt lat="43.95257" lon="1.94602">
        <ele>345.2</ele>
        <time>2021-03-21T15:04:47Z</time>
      </trkpt>
      <trkpt lat="43.95255" lon="1.94606">
        <ele>345</ele>
        <time>2021-03-21T15:04:48Z</time>
      </trkpt>
      <trkpt lat="43.95254" lon="1.94609">
        <ele>345</ele>
        <time>2021-03-21T15:04:49Z</time>
      </trkpt>
      <trkpt lat="43.95253" lon="1.94612">
        <ele>345.2</ele>
        <time>2021-03-21T15:04:50Z</time>
      </trkpt>
      <trkpt lat="43.95252" lon="1.94615">
        <ele>345.2</ele>
        <time>2021-03-21T15:04:51Z</time>
      </trkpt>
      <trkpt lat="43.95251" lon="1.94618">
        <ele>345.2</ele>
        <time>2021-03-21T15:04:52Z</time>
      </trkpt>
      <trkpt lat="43.9525" lon="1.94621">
        <ele>345</ele>
        <time>2021-03-21T15:04:53Z</time>
      </trkpt>
      <trkpt lat="43.95249" lon="1.94625">
        <ele>345.2</ele>
        <time>2021-03-21T15:04:54Z</time>
      </trkpt>
      <trkpt lat="43.95247" lon="1.94628">
        <ele>345.2</ele>
        <time>2021-03-21T15:04:55Z</time>
      </trkpt>
      <trkpt lat="43.95246" lon="1.94631">
        <ele>345</ele>
        <time>2021-03-21T15:04:56Z</time>
      </trkpt>
      <trkpt lat="43.95244" lon="1.94638">
        <ele>345.2</ele>
        <time>2021-03-21T15:04:58Z</time>
      </trkpt>
      <trkpt lat="43.95243" lon="1.94641">
        <ele>345</ele>
        <time>2021-03-21T15:04:59Z</time>
      </trkpt>
      <trkpt lat="43.95241" lon="1.94644">
        <ele>345</ele>
        <time>2021-03-21T15:05:00Z</time>
      </trkpt>
      <trkpt lat="43.9524" lon="1.94647">
        <ele>345</ele>
        <time>2021-03-21T15:05:01Z</time>
      </trkpt>
      <trkpt lat="43.95239" lon="1.9465">
        <ele>344.8</ele>
        <time>2021-03-21T15:05:02Z</time>
      </trkpt>
      <trkpt lat="43.95238" lon="1.94653">
        <ele>344.8</ele>
        <time>2021-03-21T15:05:03Z</time>
      </trkpt>
      <trkpt lat="43.95237" lon="1.94656">
        <ele>345</ele>
        <time>2021-03-21T15:05:04Z</time>
      </trkpt>
      <trkpt lat="43.95235" lon="1.94659">
        <ele>344.8</ele>
        <time>2021-03-21T15:05:05Z</time>
      </trkpt>
      <trkpt lat="43.95234" lon="1.94662">
        <ele>344.8</ele>
        <time>2021-03-21T15:05:06Z</time>
      </trkpt>
      <trkpt lat="43.95233" lon="1.94665">
        <ele>344.8</ele>
        <time>2021-03-21T15:05:07Z</time>
      </trkpt>
      <trkpt lat="43.95232" lon="1.94668">
        <ele>344.8</ele>
        <time>2021-03-21T15:05:08Z</time>
      </trkpt>
      <trkpt lat="43.95231" lon="1.94671">
        <ele>344.8</ele>
        <time>2021-03-21T15:05:09Z</time>
      </trkpt>
      <trkpt lat="43.9523" lon="1.94674">
        <ele>344.8</ele>
        <time>2021-03-21T15:05:10Z</time>
      </trkpt>
      <trkpt lat="43.95229" lon="1.94677">
        <ele>344.8</ele>
        <time>2021-03-21T15:05:11Z</time>
      </trkpt>
      <trkpt lat="43.95227" lon="1.9468">
        <ele>344.8</ele>
        <time>2021-03-21T15:05:12Z</time>
      </trkpt>
      <trkpt lat="43.95227" lon="1.94683">
        <ele>344.6</ele>
        <time>2021-03-21T15:05:13Z</time>
      </trkpt>
      <trkpt lat="43.95226" lon="1.94687">
        <ele>344.6</ele>
        <time>2021-03-21T15:05:14Z</time>
      </trkpt>
      <trkpt lat="43.95224" lon="1.9469">
        <ele>344.6</ele>
        <time>2021-03-21T15:05:15Z</time>
      </trkpt>
      <trkpt lat="43.95223" lon="1.94693">
        <ele>344.6</ele>
        <time>2021-03-21T15:05:16Z</time>
      </trkpt>
      <trkpt lat="43.95222" lon="1.94696">
        <ele>344.6</ele>
        <time>2021-03-21T15:05:17Z</time>
      </trkpt>
      <trkpt lat="43.95221" lon="1.94698">
        <ele>344.6</ele>
        <time>2021-03-21T15:05:18Z</time>
      </trkpt>
      <trkpt lat="43.95219" lon="1.94701">
        <ele>344.8</ele>
        <time>2021-03-21T15:05:19Z</time>
      </trkpt>
      <trkpt lat="43.95217" lon="1.94703">
        <ele>344.6</ele>
        <time>2021-03-21T15:05:20Z</time>
      </trkpt>
      <trkpt lat="43.95214" lon="1.94705">
        <ele>344.6</ele>
        <time>2021-03-21T15:05:21Z</time>
      </trkpt>
      <trkpt lat="43.95211" lon="1.94706">
        <ele>344.6</ele>
        <time>2021-03-21T15:05:22Z</time>
      </trkpt>
      <trkpt lat="43.95209" lon="1.94707">
        <ele>344.6</ele>
        <time>2021-03-21T15:05:23Z</time>
      </trkpt>
      <trkpt lat="43.95207" lon="1.94706">
        <ele>344.6</ele>
        <time>2021-03-21T15:05:24Z</time>
      </trkpt>
      <trkpt lat="43.95205" lon="1.94706">
        <ele>344.8</ele>
        <time>2021-03-21T15:05:25Z</time>
      </trkpt>
      <trkpt lat="43.95203" lon="1.94706">
        <ele>344.6</ele>
        <time>2021-03-21T15:05:26Z</time>
      </trkpt>
      <trkpt lat="43.95201" lon="1.94707">
        <ele>344.6</ele>
        <time>2021-03-21T15:05:27Z</time>
      </trkpt>
      <trkpt lat="43.952" lon="1.94708">
        <ele>344.6</ele>
        <time>2021-03-21T15:05:28Z</time>
      </trkpt>
      <trkpt lat="43.952" lon="1.94711">
        <ele>344.6</ele>
        <time>2021-03-21T15:05:29Z</time>
      </trkpt>
      <trkpt lat="43.95199" lon="1.94713">
        <ele>344.6</ele>
        <time>2021-03-21T15:05:30Z</time>
      </trkpt>
      <trkpt lat="43.95199" lon="1.94716">
        <ele>344.6</ele>
        <time>2021-03-21T15:05:31Z</time>
      </trkpt>
      <trkpt lat="43.95199" lon="1.9472">
        <ele>344.4</ele>
        <time>2021-03-21T15:05:32Z</time>
      </trkpt>
      <trkpt lat="43.95198" lon="1.94723">
        <ele>344.4</ele>
        <time>2021-03-21T15:05:33Z</time>
      </trkpt>
      <trkpt lat="43.95198" lon="1.94726">
        <ele>344.4</ele>
        <time>2021-03-21T15:05:34Z</time>
      </trkpt>
      <trkpt lat="43.95198" lon="1.9473">
        <ele>344.4</ele>
        <time>2021-03-21T15:05:35Z</time>
      </trkpt>
      <trkpt lat="43.95197" lon="1.94732">
        <ele>344.2</ele>
        <time>2021-03-21T15:05:36Z</time>
      </trkpt>
      <trkpt lat="43.95197" lon="1.94735">
        <ele>344.2</ele>
        <time>2021-03-21T15:05:37Z</time>
      </trkpt>
      <trkpt lat="43.95195" lon="1.94741">
        <ele>343.8</ele>
        <time>2021-03-21T15:05:39Z</time>
      </trkpt>
      <trkpt lat="43.95195" lon="1.94744">
        <ele>343.8</ele>
        <time>2021-03-21T15:05:40Z</time>
      </trkpt>
      <trkpt lat="43.95194" lon="1.94748">
        <ele>343.6</ele>
        <time>2021-03-21T15:05:41Z</time>
      </trkpt>
      <trkpt lat="43.95193" lon="1.9475">
        <ele>343.4</ele>
        <time>2021-03-21T15:05:42Z</time>
      </trkpt>
      <trkpt lat="43.95192" lon="1.94752">
        <ele>343.4</ele>
        <time>2021-03-21T15:05:43Z</time>
      </trkpt>
      <trkpt lat="43.95192" lon="1.94755">
        <ele>343.2</ele>
        <time>2021-03-21T15:05:44Z</time>
      </trkpt>
      <trkpt lat="43.95191" lon="1.94758">
        <ele>343.4</ele>
        <time>2021-03-21T15:05:45Z</time>
      </trkpt>
      <trkpt lat="43.9519" lon="1.94762">
        <ele>343</ele>
        <time>2021-03-21T15:05:46Z</time>
      </trkpt>
      <trkpt lat="43.9519" lon="1.94765">
        <ele>343</ele>
        <time>2021-03-21T15:05:47Z</time>
      </trkpt>
      <trkpt lat="43.95188" lon="1.94771">
        <ele>342.6</ele>
        <time>2021-03-21T15:05:49Z</time>
      </trkpt>
      <trkpt lat="43.95188" lon="1.94774">
        <ele>342.6</ele>
        <time>2021-03-21T15:05:50Z</time>
      </trkpt>
      <trkpt lat="43.95187" lon="1.94777">
        <ele>342.6</ele>
        <time>2021-03-21T15:05:51Z</time>
      </trkpt>
      <trkpt lat="43.95187" lon="1.9478">
        <ele>342.4</ele>
        <time>2021-03-21T15:05:52Z</time>
      </trkpt>
      <trkpt lat="43.95186" lon="1.94783">
        <ele>342.4</ele>
        <time>2021-03-21T15:05:53Z</time>
      </trkpt>
      <trkpt lat="43.95186" lon="1.94785">
        <ele>342</ele>
        <time>2021-03-21T15:05:54Z</time>
      </trkpt>
      <trkpt lat="43.95186" lon="1.94788">
        <ele>341.8</ele>
        <time>2021-03-21T15:05:55Z</time>
      </trkpt>
      <trkpt lat="43.95186" lon="1.9479">
        <ele>341.8</ele>
        <time>2021-03-21T15:05:56Z</time>
      </trkpt>
      <trkpt lat="43.95186" lon="1.94792">
        <ele>341.8</ele>
        <time>2021-03-21T15:05:57Z</time>
      </trkpt>
      <trkpt lat="43.95185" lon="1.94794">
        <ele>341.6</ele>
        <time>2021-03-21T15:05:58Z</time>
      </trkpt>
      <trkpt lat="43.95184" lon="1.94796">
        <ele>341.4</ele>
        <time>2021-03-21T15:05:59Z</time>
      </trkpt>
      <trkpt lat="43.95183" lon="1.94798">
        <ele>341.6</ele>
        <time>2021-03-21T15:06:00Z</time>
      </trkpt>
      <trkpt lat="43.95181" lon="1.948">
        <ele>341.4</ele>
        <time>2021-03-21T15:06:01Z</time>
      </trkpt>
      <trkpt lat="43.95179" lon="1.94802">
        <ele>341</ele>
        <time>2021-03-21T15:06:02Z</time>
      </trkpt>
      <trkpt lat="43.95177" lon="1.94804">
        <ele>341</ele>
        <time>2021-03-21T15:06:03Z</time>
      </trkpt>
      <trkpt lat="43.95176" lon="1.94805">
        <ele>341</ele>
        <time>2021-03-21T15:06:04Z</time>
      </trkpt>
      <trkpt lat="43.95175" lon="1.94808">
        <ele>340.8</ele>
        <time>2021-03-21T15:06:05Z</time>
      </trkpt>
      <trkpt lat="43.95174" lon="1.9481">
        <ele>340.6</ele>
        <time>2021-03-21T15:06:06Z</time>
      </trkpt>
      <trkpt lat="43.95173" lon="1.94812">
        <ele>340.6</ele>
        <time>2021-03-21T15:06:07Z</time>
      </trkpt>
      <trkpt lat="43.95173" lon="1.94815">
        <ele>340.6</ele>
        <time>2021-03-21T15:06:08Z</time>
      </trkpt>
      <trkpt lat="43.95172" lon="1.94817">
        <ele>340.6</ele>
        <time>2021-03-21T15:06:09Z</time>
      </trkpt>
      <trkpt lat="43.95171" lon="1.94819">
        <ele>340.6</ele>
        <time>2021-03-21T15:06:10Z</time>
      </trkpt>
      <trkpt lat="43.95171" lon="1.94821">
        <ele>340.4</ele>
        <time>2021-03-21T15:06:11Z</time>
      </trkpt>
      <trkpt lat="43.95171" lon="1.94823">
        <ele>340.4</ele>
        <time>2021-03-21T15:06:12Z</time>
      </trkpt>
      <trkpt lat="43.95171" lon="1.94823">
        <ele>340.4</ele>
        <time>2021-03-21T15:06:13Z</time>
      </trkpt>
      <trkpt lat="43.95171" lon="1.94823">
        <ele>340.4</ele>
        <time>2021-03-21T15:06:14Z</time>
      </trkpt>
      <trkpt lat="43.95173" lon="1.94828">
        <ele>340</ele>
        <time>2021-03-21T15:06:21Z</time>
      </trkpt>
      <trkpt lat="43.95174" lon="1.9483">
        <ele>340</ele>
        <time>2021-03-21T15:06:22Z</time>
      </trkpt>
      <trkpt lat="43.95177" lon="1.94832">
        <ele>339.8</ele>
        <time>2021-03-21T15:06:23Z</time>
      </trkpt>
      <trkpt lat="43.95182" lon="1.94835">
        <ele>340</ele>
        <time>2021-03-21T15:06:25Z</time>
      </trkpt>
      <trkpt lat="43.95185" lon="1.94837">
        <ele>340</ele>
        <time>2021-03-21T15:06:26Z</time>
      </trkpt>
      <trkpt lat="43.95191" lon="1.94839">
        <ele>340</ele>
        <time>2021-03-21T15:06:28Z</time>
      </trkpt>
      <trkpt lat="43.95195" lon="1.9484">
        <ele>340</ele>
        <time>2021-03-21T15:06:29Z</time>
      </trkpt>
      <trkpt lat="43.95199" lon="1.94842">
        <ele>340</ele>
        <time>2021-03-21T15:06:30Z</time>
      </trkpt>
      <trkpt lat="43.95203" lon="1.94843">
        <ele>340</ele>
        <time>2021-03-21T15:06:31Z</time>
      </trkpt>
      <trkpt lat="43.95212" lon="1.94847">
        <ele>340</ele>
        <time>2021-03-21T15:06:33Z</time>
      </trkpt>
      <trkpt lat="43.95217" lon="1.94849">
        <ele>340</ele>
        <time>2021-03-21T15:06:34Z</time>
      </trkpt>
      <trkpt lat="43.95222" lon="1.94851">
        <ele>340</ele>
        <time>2021-03-21T15:06:35Z</time>
      </trkpt>
      <trkpt lat="43.95227" lon="1.94853">
        <ele>340</ele>
        <time>2021-03-21T15:06:36Z</time>
      </trkpt>
      <trkpt lat="43.95232" lon="1.94855">
        <ele>340</ele>
        <time>2021-03-21T15:06:37Z</time>
      </trkpt>
      <trkpt lat="43.95238" lon="1.94857">
        <ele>339.8</ele>
        <time>2021-03-21T15:06:38Z</time>
      </trkpt>
      <trkpt lat="43.95243" lon="1.94859">
        <ele>340</ele>
        <time>2021-03-21T15:06:39Z</time>
      </trkpt>
      <trkpt lat="43.95255" lon="1.94863">
        <ele>340</ele>
        <time>2021-03-21T15:06:41Z</time>
      </trkpt>
      <trkpt lat="43.9526" lon="1.94865">
        <ele>340</ele>
        <time>2021-03-21T15:06:42Z</time>
      </trkpt>
      <trkpt lat="43.95266" lon="1.94867">
        <ele>340</ele>
        <time>2021-03-21T15:06:43Z</time>
      </trkpt>
      <trkpt lat="43.95271" lon="1.94869">
        <ele>340</ele>
        <time>2021-03-21T15:06:44Z</time>
      </trkpt>
      <trkpt lat="43.95277" lon="1.94871">
        <ele>339.6</ele>
        <time>2021-03-21T15:06:45Z</time>
      </trkpt>
      <trkpt lat="43.95282" lon="1.94873">
        <ele>339.8</ele>
        <time>2021-03-21T15:06:46Z</time>
      </trkpt>
      <trkpt lat="43.95287" lon="1.94875">
        <ele>339.8</ele>
        <time>2021-03-21T15:06:47Z</time>
      </trkpt>
      <trkpt lat="43.95293" lon="1.94877">
        <ele>339.4</ele>
        <time>2021-03-21T15:06:48Z</time>
      </trkpt>
      <trkpt lat="43.95298" lon="1.94879">
        <ele>339</ele>
        <time>2021-03-21T15:06:49Z</time>
      </trkpt>
      <trkpt lat="43.95309" lon="1.94883">
        <ele>338.4</ele>
        <time>2021-03-21T15:06:51Z</time>
      </trkpt>
      <trkpt lat="43.95314" lon="1.94885">
        <ele>338.2</ele>
        <time>2021-03-21T15:06:52Z</time>
      </trkpt>
      <trkpt lat="43.9532" lon="1.94887">
        <ele>338.2</ele>
        <time>2021-03-21T15:06:53Z</time>
      </trkpt>
      <trkpt lat="43.95326" lon="1.94889">
        <ele>338.2</ele>
        <time>2021-03-21T15:06:54Z</time>
      </trkpt>
      <trkpt lat="43.95331" lon="1.94891">
        <ele>338.2</ele>
        <time>2021-03-21T15:06:55Z</time>
      </trkpt>
      <trkpt lat="43.95337" lon="1.94893">
        <ele>338</ele>
        <time>2021-03-21T15:06:56Z</time>
      </trkpt>
      <trkpt lat="43.95343" lon="1.94895">
        <ele>338</ele>
        <time>2021-03-21T15:06:57Z</time>
      </trkpt>
      <trkpt lat="43.95354" lon="1.94899">
        <ele>338</ele>
        <time>2021-03-21T15:06:59Z</time>
      </trkpt>
      <trkpt lat="43.9536" lon="1.94901">
        <ele>338</ele>
        <time>2021-03-21T15:07:00Z</time>
      </trkpt>
      <trkpt lat="43.95366" lon="1.94904">
        <ele>338</ele>
        <time>2021-03-21T15:07:01Z</time>
      </trkpt>
      <trkpt lat="43.95371" lon="1.94906">
        <ele>338</ele>
        <time>2021-03-21T15:07:02Z</time>
      </trkpt>
      <trkpt lat="43.95377" lon="1.94908">
        <ele>338</ele>
        <time>2021-03-21T15:07:03Z</time>
      </trkpt>
      <trkpt lat="43.95382" lon="1.9491">
        <ele>338</ele>
        <time>2021-03-21T15:07:04Z</time>
      </trkpt>
      <trkpt lat="43.95388" lon="1.94912">
        <ele>337.8</ele>
        <time>2021-03-21T15:07:05Z</time>
      </trkpt>
      <trkpt lat="43.95393" lon="1.94914">
        <ele>337.8</ele>
        <time>2021-03-21T15:07:06Z</time>
      </trkpt>
      <trkpt lat="43.95398" lon="1.94916">
        <ele>337.8</ele>
        <time>2021-03-21T15:07:07Z</time>
      </trkpt>
      <trkpt lat="43.95403" lon="1.94918">
        <ele>337.8</ele>
        <time>2021-03-21T15:07:08Z</time>
      </trkpt>
      <trkpt lat="43.95408" lon="1.94919">
        <ele>337.8</ele>
        <time>2021-03-21T15:07:09Z</time>
      </trkpt>
      <trkpt lat="43.95413" lon="1.94921">
        <ele>337.8</ele>
        <time>2021-03-21T15:07:10Z</time>
      </trkpt>
      <trkpt lat="43.95418" lon="1.94923">
        <ele>337.8</ele>
        <time>2021-03-21T15:07:11Z</time>
      </trkpt>
      <trkpt lat="43.95422" lon="1.94924">
        <ele>337.8</ele>
        <time>2021-03-21T15:07:12Z</time>
      </trkpt>
      <trkpt lat="43.95427" lon="1.94926">
        <ele>337.8</ele>
        <time>2021-03-21T15:07:13Z</time>
      </trkpt>
      <trkpt lat="43.95431" lon="1.94927">
        <ele>337.8</ele>
        <time>2021-03-21T15:07:14Z</time>
      </trkpt>
      <trkpt lat="43.95435" lon="1.94929">
        <ele>337.8</ele>
        <time>2021-03-21T15:07:15Z</time>
      </trkpt>
      <trkpt lat="43.95438" lon="1.9493">
        <ele>337.8</ele>
        <time>2021-03-21T15:07:16Z</time>
      </trkpt>
      <trkpt lat="43.95442" lon="1.94931">
        <ele>337.8</ele>
        <time>2021-03-21T15:07:17Z</time>
      </trkpt>
      <trkpt lat="43.95445" lon="1.94933">
        <ele>337.8</ele>
        <time>2021-03-21T15:07:18Z</time>
      </trkpt>
      <trkpt lat="43.95448" lon="1.94935">
        <ele>337.8</ele>
        <time>2021-03-21T15:07:19Z</time>
      </trkpt>
      <trkpt lat="43.95449" lon="1.94938">
        <ele>337.8</ele>
        <time>2021-03-21T15:07:20Z</time>
      </trkpt>
      <trkpt lat="43.95449" lon="1.94942">
        <ele>337.8</ele>
        <time>2021-03-21T15:07:21Z</time>
      </trkpt>
      <trkpt lat="43.95448" lon="1.94944">
        <ele>337.8</ele>
        <time>2021-03-21T15:07:22Z</time>
      </trkpt>
      <trkpt lat="43.95446" lon="1.94951">
        <ele>337.8</ele>
        <time>2021-03-21T15:07:24Z</time>
      </trkpt>
      <trkpt lat="43.95445" lon="1.94954">
        <ele>337.8</ele>
        <time>2021-03-21T15:07:25Z</time>
      </trkpt>
      <trkpt lat="43.95443" lon="1.94958">
        <ele>337.6</ele>
        <time>2021-03-21T15:07:26Z</time>
      </trkpt>
      <trkpt lat="43.95442" lon="1.94961">
        <ele>337.8</ele>
        <time>2021-03-21T15:07:27Z</time>
      </trkpt>
      <trkpt lat="43.9544" lon="1.94965">
        <ele>337.8</ele>
        <time>2021-03-21T15:07:28Z</time>
      </trkpt>
      <trkpt lat="43.95439" lon="1.94968">
        <ele>337.8</ele>
        <time>2021-03-21T15:07:29Z</time>
      </trkpt>
      <trkpt lat="43.95438" lon="1.94971">
        <ele>337.8</ele>
        <time>2021-03-21T15:07:30Z</time>
      </trkpt>
      <trkpt lat="43.95437" lon="1.94974">
        <ele>338</ele>
        <time>2021-03-21T15:07:31Z</time>
      </trkpt>
      <trkpt lat="43.95436" lon="1.94976">
        <ele>338</ele>
        <time>2021-03-21T15:07:32Z</time>
      </trkpt>
      <trkpt lat="43.95436" lon="1.94977">
        <ele>338</ele>
        <time>2021-03-21T15:07:33Z</time>
      </trkpt>
      <trkpt lat="43.95436" lon="1.94977">
        <ele>338</ele>
        <time>2021-03-21T15:07:34Z</time>
      </trkpt>
      <trkpt lat="43.95436" lon="1.94977">
        <ele>338</ele>
        <time>2021-03-21T15:07:35Z</time>
      </trkpt>
      <trkpt lat="43.95432" lon="1.94983">
        <ele>339.2</ele>
        <time>2021-03-21T15:08:18Z</time>
      </trkpt>
      <trkpt lat="43.95432" lon="1.94986">
        <ele>339.2</ele>
        <time>2021-03-21T15:08:19Z</time>
      </trkpt>
      <trkpt lat="43.95431" lon="1.94989">
        <ele>339.2</ele>
        <time>2021-03-21T15:08:20Z</time>
      </trkpt>
      <trkpt lat="43.95429" lon="1.94996">
        <ele>339.2</ele>
        <time>2021-03-21T15:08:22Z</time>
      </trkpt>
      <trkpt lat="43.95427" lon="1.95">
        <ele>339.4</ele>
        <time>2021-03-21T15:08:23Z</time>
      </trkpt>
      <trkpt lat="43.95425" lon="1.95008">
        <ele>339.2</ele>
        <time>2021-03-21T15:08:25Z</time>
      </trkpt>
      <trkpt lat="43.95424" lon="1.95012">
        <ele>339.4</ele>
        <time>2021-03-21T15:08:26Z</time>
      </trkpt>
      <trkpt lat="43.95423" lon="1.95016">
        <ele>339.4</ele>
        <time>2021-03-21T15:08:27Z</time>
      </trkpt>
      <trkpt lat="43.95421" lon="1.9502">
        <ele>339.4</ele>
        <time>2021-03-21T15:08:28Z</time>
      </trkpt>
      <trkpt lat="43.95419" lon="1.95028">
        <ele>339.4</ele>
        <time>2021-03-21T15:08:30Z</time>
      </trkpt>
      <trkpt lat="43.95418" lon="1.95033">
        <ele>339.4</ele>
        <time>2021-03-21T15:08:31Z</time>
      </trkpt>
      <trkpt lat="43.95417" lon="1.95037">
        <ele>339.4</ele>
        <time>2021-03-21T15:08:32Z</time>
      </trkpt>
      <trkpt lat="43.95415" lon="1.95041">
        <ele>339.4</ele>
        <time>2021-03-21T15:08:33Z</time>
      </trkpt>
      <trkpt lat="43.95414" lon="1.95045">
        <ele>339.2</ele>
        <time>2021-03-21T15:08:34Z</time>
      </trkpt>
      <trkpt lat="43.95413" lon="1.95049">
        <ele>339.4</ele>
        <time>2021-03-21T15:08:35Z</time>
      </trkpt>
      <trkpt lat="43.95413" lon="1.95054">
        <ele>339.4</ele>
        <time>2021-03-21T15:08:36Z</time>
      </trkpt>
      <trkpt lat="43.95412" lon="1.95063">
        <ele>339.2</ele>
        <time>2021-03-21T15:08:38Z</time>
      </trkpt>
      <trkpt lat="43.95413" lon="1.95068">
        <ele>339.4</ele>
        <time>2021-03-21T15:08:39Z</time>
      </trkpt>
      <trkpt lat="43.95414" lon="1.95072">
        <ele>339.4</ele>
        <time>2021-03-21T15:08:40Z</time>
      </trkpt>
      <trkpt lat="43.95414" lon="1.95077">
        <ele>339.4</ele>
        <time>2021-03-21T15:08:41Z</time>
      </trkpt>
      <trkpt lat="43.95415" lon="1.95081">
        <ele>339.4</ele>
        <time>2021-03-21T15:08:42Z</time>
      </trkpt>
      <trkpt lat="43.95416" lon="1.95086">
        <ele>339.2</ele>
        <time>2021-03-21T15:08:43Z</time>
      </trkpt>
      <trkpt lat="43.95417" lon="1.9509">
        <ele>339.2</ele>
        <time>2021-03-21T15:08:44Z</time>
      </trkpt>
      <trkpt lat="43.95418" lon="1.95094">
        <ele>339</ele>
        <time>2021-03-21T15:08:45Z</time>
      </trkpt>
      <trkpt lat="43.95418" lon="1.95098">
        <ele>339</ele>
        <time>2021-03-21T15:08:46Z</time>
      </trkpt>
      <trkpt lat="43.95419" lon="1.95102">
        <ele>339</ele>
        <time>2021-03-21T15:08:47Z</time>
      </trkpt>
      <trkpt lat="43.95419" lon="1.95106">
        <ele>339</ele>
        <time>2021-03-21T15:08:48Z</time>
      </trkpt>
      <trkpt lat="43.9542" lon="1.95109">
        <ele>338.8</ele>
        <time>2021-03-21T15:08:49Z</time>
      </trkpt>
      <trkpt lat="43.9542" lon="1.95112">
        <ele>338.6</ele>
        <time>2021-03-21T15:08:50Z</time>
      </trkpt>
      <trkpt lat="43.95421" lon="1.95114">
        <ele>338.6</ele>
        <time>2021-03-21T15:08:51Z</time>
      </trkpt>
      <trkpt lat="43.95421" lon="1.95116">
        <ele>338.6</ele>
        <time>2021-03-21T15:08:52Z</time>
      </trkpt>
      <trkpt lat="43.95421" lon="1.95117">
        <ele>338.4</ele>
        <time>2021-03-21T15:08:53Z</time>
      </trkpt>
      <trkpt lat="43.95421" lon="1.95119">
        <ele>338.2</ele>
        <time>2021-03-21T15:08:54Z</time>
      </trkpt>
      <trkpt lat="43.95421" lon="1.9512">
        <ele>338.2</ele>
        <time>2021-03-21T15:08:55Z</time>
      </trkpt>
      <trkpt lat="43.95421" lon="1.95121">
        <ele>338</ele>
        <time>2021-03-21T15:08:56Z</time>
      </trkpt>
      <trkpt lat="43.9542" lon="1.95123">
        <ele>338</ele>
        <time>2021-03-21T15:08:57Z</time>
      </trkpt>
      <trkpt lat="43.9542" lon="1.95124">
        <ele>337.8</ele>
        <time>2021-03-21T15:08:58Z</time>
      </trkpt>
      <trkpt lat="43.9542" lon="1.95126">
        <ele>337.8</ele>
        <time>2021-03-21T15:08:59Z</time>
      </trkpt>
      <trkpt lat="43.95419" lon="1.9513">
        <ele>337.4</ele>
        <time>2021-03-21T15:09:01Z</time>
      </trkpt>
      <trkpt lat="43.95419" lon="1.95132">
        <ele>337.2</ele>
        <time>2021-03-21T15:09:02Z</time>
      </trkpt>
      <trkpt lat="43.95419" lon="1.95134">
        <ele>337</ele>
        <time>2021-03-21T15:09:03Z</time>
      </trkpt>
      <trkpt lat="43.95419" lon="1.95136">
        <ele>336.8</ele>
        <time>2021-03-21T15:09:04Z</time>
      </trkpt>
      <trkpt lat="43.95419" lon="1.95138">
        <ele>336.6</ele>
        <time>2021-03-21T15:09:05Z</time>
      </trkpt>
      <trkpt lat="43.95419" lon="1.95141">
        <ele>336.6</ele>
        <time>2021-03-21T15:09:06Z</time>
      </trkpt>
      <trkpt lat="43.95419" lon="1.95144">
        <ele>336.4</ele>
        <time>2021-03-21T15:09:07Z</time>
      </trkpt>
      <trkpt lat="43.95418" lon="1.95147">
        <ele>336.2</ele>
        <time>2021-03-21T15:09:08Z</time>
      </trkpt>
      <trkpt lat="43.95418" lon="1.9515">
        <ele>336.2</ele>
        <time>2021-03-21T15:09:09Z</time>
      </trkpt>
      <trkpt lat="43.95417" lon="1.95154">
        <ele>336</ele>
        <time>2021-03-21T15:09:10Z</time>
      </trkpt>
      <trkpt lat="43.95417" lon="1.95158">
        <ele>335.6</ele>
        <time>2021-03-21T15:09:11Z</time>
      </trkpt>
      <trkpt lat="43.95416" lon="1.95161">
        <ele>335.6</ele>
        <time>2021-03-21T15:09:12Z</time>
      </trkpt>
      <trkpt lat="43.95416" lon="1.95164">
        <ele>335.2</ele>
        <time>2021-03-21T15:09:13Z</time>
      </trkpt>
      <trkpt lat="43.95416" lon="1.95166">
        <ele>334.8</ele>
        <time>2021-03-21T15:09:14Z</time>
      </trkpt>
      <trkpt lat="43.95416" lon="1.95168">
        <ele>334.4</ele>
        <time>2021-03-21T15:09:15Z</time>
      </trkpt>
      <trkpt lat="43.95416" lon="1.95169">
        <ele>333.8</ele>
        <time>2021-03-21T15:09:16Z</time>
      </trkpt>
      <trkpt lat="43.95415" lon="1.9517">
        <ele>331.8</ele>
        <time>2021-03-21T15:09:18Z</time>
      </trkpt>
      <trkpt lat="43.95417" lon="1.95187">
        <ele>328.2</ele>
        <time>2021-03-21T15:09:31Z</time>
      </trkpt>
      <trkpt lat="43.95417" lon="1.95189">
        <ele>328.2</ele>
        <time>2021-03-21T15:09:32Z</time>
      </trkpt>
      <trkpt lat="43.95418" lon="1.95192">
        <ele>328.2</ele>
        <time>2021-03-21T15:09:33Z</time>
      </trkpt>
      <trkpt lat="43.95418" lon="1.95194">
        <ele>328.2</ele>
        <time>2021-03-21T15:09:34Z</time>
      </trkpt>
      <trkpt lat="43.95418" lon="1.95195">
        <ele>328.2</ele>
        <time>2021-03-21T15:09:35Z</time>
      </trkpt>
      <trkpt lat="43.95417" lon="1.95197">
        <ele>328.2</ele>
        <time>2021-03-21T15:09:37Z</time>
      </trkpt>
      <trkpt lat="43.95413" lon="1.95208">
        <ele>326.4</ele>
        <time>2021-03-21T15:11:28Z</time>
      </trkpt>
      <trkpt lat="43.95413" lon="1.95211">
        <ele>326.2</ele>
        <time>2021-03-21T15:11:29Z</time>
      </trkpt>
      <trkpt lat="43.95412" lon="1.95214">
        <ele>326.2</ele>
        <time>2021-03-21T15:11:30Z</time>
      </trkpt>
      <trkpt lat="43.95412" lon="1.95218">
        <ele>326</ele>
        <time>2021-03-21T15:11:31Z</time>
      </trkpt>
      <trkpt lat="43.95411" lon="1.95222">
        <ele>326.2</ele>
        <time>2021-03-21T15:11:32Z</time>
      </trkpt>
      <trkpt lat="43.95411" lon="1.95226">
        <ele>326</ele>
        <time>2021-03-21T15:11:33Z</time>
      </trkpt>
      <trkpt lat="43.9541" lon="1.9523">
        <ele>326</ele>
        <time>2021-03-21T15:11:34Z</time>
      </trkpt>
      <trkpt lat="43.95409" lon="1.95235">
        <ele>326</ele>
        <time>2021-03-21T15:11:35Z</time>
      </trkpt>
      <trkpt lat="43.95408" lon="1.95245">
        <ele>325.6</ele>
        <time>2021-03-21T15:11:37Z</time>
      </trkpt>
      <trkpt lat="43.95408" lon="1.9525">
        <ele>325.2</ele>
        <time>2021-03-21T15:11:38Z</time>
      </trkpt>
      <trkpt lat="43.95407" lon="1.95255">
        <ele>325.2</ele>
        <time>2021-03-21T15:11:39Z</time>
      </trkpt>
      <trkpt lat="43.95407" lon="1.9526">
        <ele>325</ele>
        <time>2021-03-21T15:11:40Z</time>
      </trkpt>
      <trkpt lat="43.95406" lon="1.95266">
        <ele>324.8</ele>
        <time>2021-03-21T15:11:41Z</time>
      </trkpt>
      <trkpt lat="43.95406" lon="1.95272">
        <ele>324.6</ele>
        <time>2021-03-21T15:11:42Z</time>
      </trkpt>
      <trkpt lat="43.95405" lon="1.95278">
        <ele>324.2</ele>
        <time>2021-03-21T15:11:43Z</time>
      </trkpt>
      <trkpt lat="43.95404" lon="1.95284">
        <ele>323.6</ele>
        <time>2021-03-21T15:11:44Z</time>
      </trkpt>
      <trkpt lat="43.95404" lon="1.9529">
        <ele>323</ele>
        <time>2021-03-21T15:11:45Z</time>
      </trkpt>
      <trkpt lat="43.95403" lon="1.95295">
        <ele>322.6</ele>
        <time>2021-03-21T15:11:46Z</time>
      </trkpt>
      <trkpt lat="43.95403" lon="1.953">
        <ele>322</ele>
        <time>2021-03-21T15:11:47Z</time>
      </trkpt>
      <trkpt lat="43.95402" lon="1.95306">
        <ele>321.4</ele>
        <time>2021-03-21T15:11:48Z</time>
      </trkpt>
      <trkpt lat="43.95402" lon="1.95311">
        <ele>321</ele>
        <time>2021-03-21T15:11:49Z</time>
      </trkpt>
      <trkpt lat="43.95401" lon="1.95315">
        <ele>320</ele>
        <time>2021-03-21T15:11:50Z</time>
      </trkpt>
      <trkpt lat="43.95401" lon="1.9532">
        <ele>319</ele>
        <time>2021-03-21T15:11:51Z</time>
      </trkpt>
      <trkpt lat="43.954" lon="1.95324">
        <ele>318.4</ele>
        <time>2021-03-21T15:11:52Z</time>
      </trkpt>
      <trkpt lat="43.954" lon="1.95329">
        <ele>317.4</ele>
        <time>2021-03-21T15:11:53Z</time>
      </trkpt>
      <trkpt lat="43.95399" lon="1.95332">
        <ele>316.8</ele>
        <time>2021-03-21T15:11:54Z</time>
      </trkpt>
      <trkpt lat="43.95398" lon="1.95334">
        <ele>316.2</ele>
        <time>2021-03-21T15:11:55Z</time>
      </trkpt>
      <trkpt lat="43.95396" lon="1.95336">
        <ele>315.8</ele>
        <time>2021-03-21T15:11:56Z</time>
      </trkpt>
      <trkpt lat="43.95394" lon="1.95337">
        <ele>315</ele>
        <time>2021-03-21T15:11:57Z</time>
      </trkpt>
      <trkpt lat="43.95389" lon="1.95337">
        <ele>314.4</ele>
        <time>2021-03-21T15:11:59Z</time>
      </trkpt>
      <trkpt lat="43.95386" lon="1.95337">
        <ele>313.8</ele>
        <time>2021-03-21T15:12:00Z</time>
      </trkpt>
      <trkpt lat="43.95384" lon="1.95336">
        <ele>313.6</ele>
        <time>2021-03-21T15:12:01Z</time>
      </trkpt>
      <trkpt lat="43.95382" lon="1.95336">
        <ele>313.4</ele>
        <time>2021-03-21T15:12:02Z</time>
      </trkpt>
      <trkpt lat="43.9538" lon="1.95336">
        <ele>313.2</ele>
        <time>2021-03-21T15:12:03Z</time>
      </trkpt>
      <trkpt lat="43.9538" lon="1.95336">
        <ele>313.4</ele>
        <time>2021-03-21T15:12:04Z</time>
      </trkpt>
      <trkpt lat="43.95379" lon="1.95335">
        <ele>313.2</ele>
        <time>2021-03-21T15:12:05Z</time>
      </trkpt>
      <trkpt lat="43.95379" lon="1.95336">
        <ele>313.2</ele>
        <time>2021-03-21T15:12:06Z</time>
      </trkpt>
      <trkpt lat="43.95367" lon="1.95335">
        <ele>312.4</ele>
        <time>2021-03-21T15:13:26Z</time>
      </trkpt>
      <trkpt lat="43.95365" lon="1.95334">
        <ele>312.6</ele>
        <time>2021-03-21T15:13:27Z</time>
      </trkpt>
      <trkpt lat="43.95362" lon="1.95334">
        <ele>312.4</ele>
        <time>2021-03-21T15:13:28Z</time>
      </trkpt>
      <trkpt lat="43.95359" lon="1.95333">
        <ele>312.4</ele>
        <time>2021-03-21T15:13:29Z</time>
      </trkpt>
      <trkpt lat="43.95356" lon="1.95333">
        <ele>312.4</ele>
        <time>2021-03-21T15:13:30Z</time>
      </trkpt>
      <trkpt lat="43.95349" lon="1.95332">
        <ele>312.2</ele>
        <time>2021-03-21T15:13:32Z</time>
      </trkpt>
      <trkpt lat="43.95345" lon="1.9533">
        <ele>312.2</ele>
        <time>2021-03-21T15:13:33Z</time>
      </trkpt>
      <trkpt lat="43.95342" lon="1.9533">
        <ele>312.2</ele>
        <time>2021-03-21T15:13:34Z</time>
      </trkpt>
      <trkpt lat="43.95338" lon="1.95329">
        <ele>312</ele>
        <time>2021-03-21T15:13:35Z</time>
      </trkpt>
      <trkpt lat="43.95335" lon="1.95328">
        <ele>311.8</ele>
        <time>2021-03-21T15:13:36Z</time>
      </trkpt>
      <trkpt lat="43.95331" lon="1.95327">
        <ele>311.6</ele>
        <time>2021-03-21T15:13:37Z</time>
      </trkpt>
      <trkpt lat="43.95328" lon="1.95326">
        <ele>311.8</ele>
        <time>2021-03-21T15:13:38Z</time>
      </trkpt>
      <trkpt lat="43.95324" lon="1.95326">
        <ele>311.6</ele>
        <time>2021-03-21T15:13:39Z</time>
      </trkpt>
      <trkpt lat="43.95321" lon="1.95325">
        <ele>311.4</ele>
        <time>2021-03-21T15:13:40Z</time>
      </trkpt>
      <trkpt lat="43.95317" lon="1.95324">
        <ele>311.6</ele>
        <time>2021-03-21T15:13:41Z</time>
      </trkpt>
      <trkpt lat="43.9531" lon="1.95323">
        <ele>311.4</ele>
        <time>2021-03-21T15:13:43Z</time>
      </trkpt>
      <trkpt lat="43.95307" lon="1.95322">
        <ele>311.4</ele>
        <time>2021-03-21T15:13:44Z</time>
      </trkpt>
      <trkpt lat="43.95303" lon="1.95322">
        <ele>311.4</ele>
        <time>2021-03-21T15:13:45Z</time>
      </trkpt>
      <trkpt lat="43.95299" lon="1.95321">
        <ele>311.4</ele>
        <time>2021-03-21T15:13:46Z</time>
      </trkpt>
      <trkpt lat="43.95291" lon="1.95319">
        <ele>311.2</ele>
        <time>2021-03-21T15:13:48Z</time>
      </trkpt>
      <trkpt lat="43.95287" lon="1.95319">
        <ele>311.2</ele>
        <time>2021-03-21T15:13:49Z</time>
      </trkpt>
      <trkpt lat="43.95283" lon="1.95318">
        <ele>311.2</ele>
        <time>2021-03-21T15:13:50Z</time>
      </trkpt>
      <trkpt lat="43.95279" lon="1.95317">
        <ele>311.4</ele>
        <time>2021-03-21T15:13:51Z</time>
      </trkpt>
      <trkpt lat="43.95275" lon="1.95317">
        <ele>311.2</ele>
        <time>2021-03-21T15:13:52Z</time>
      </trkpt>
      <trkpt lat="43.95271" lon="1.95316">
        <ele>311.2</ele>
        <time>2021-03-21T15:13:53Z</time>
      </trkpt>
      <trkpt lat="43.95266" lon="1.95315">
        <ele>311</ele>
        <time>2021-03-21T15:13:54Z</time>
      </trkpt>
      <trkpt lat="43.95258" lon="1.95313">
        <ele>311.2</ele>
        <time>2021-03-21T15:13:56Z</time>
      </trkpt>
      <trkpt lat="43.95254" lon="1.95313">
        <ele>311</ele>
        <time>2021-03-21T15:13:57Z</time>
      </trkpt>
      <trkpt lat="43.9525" lon="1.95312">
        <ele>311</ele>
        <time>2021-03-21T15:13:58Z</time>
      </trkpt>
      <trkpt lat="43.95246" lon="1.95311">
        <ele>310.6</ele>
        <time>2021-03-21T15:13:59Z</time>
      </trkpt>
      <trkpt lat="43.95242" lon="1.9531">
        <ele>310.4</ele>
        <time>2021-03-21T15:14:00Z</time>
      </trkpt>
      <trkpt lat="43.95238" lon="1.95309">
        <ele>310.4</ele>
        <time>2021-03-21T15:14:01Z</time>
      </trkpt>
      <trkpt lat="43.95234" lon="1.95308">
        <ele>310.2</ele>
        <time>2021-03-21T15:14:02Z</time>
      </trkpt>
      <trkpt lat="43.9523" lon="1.95307">
        <ele>310.2</ele>
        <time>2021-03-21T15:14:03Z</time>
      </trkpt>
      <trkpt lat="43.95226" lon="1.95307">
        <ele>310.2</ele>
        <time>2021-03-21T15:14:04Z</time>
      </trkpt>
      <trkpt lat="43.95222" lon="1.95306">
        <ele>309.8</ele>
        <time>2021-03-21T15:14:05Z</time>
      </trkpt>
      <trkpt lat="43.95217" lon="1.95305">
        <ele>309.4</ele>
        <time>2021-03-21T15:14:06Z</time>
      </trkpt>
      <trkpt lat="43.95213" lon="1.95304">
        <ele>309.2</ele>
        <time>2021-03-21T15:14:07Z</time>
      </trkpt>
      <trkpt lat="43.95208" lon="1.95303">
        <ele>309</ele>
        <time>2021-03-21T15:14:08Z</time>
      </trkpt>
      <trkpt lat="43.95203" lon="1.95302">
        <ele>308.8</ele>
        <time>2021-03-21T15:14:09Z</time>
      </trkpt>
      <trkpt lat="43.95199" lon="1.95301">
        <ele>308.8</ele>
        <time>2021-03-21T15:14:10Z</time>
      </trkpt>
      <trkpt lat="43.95195" lon="1.953">
        <ele>308.6</ele>
        <time>2021-03-21T15:14:11Z</time>
      </trkpt>
      <trkpt lat="43.95191" lon="1.95298">
        <ele>308.6</ele>
        <time>2021-03-21T15:14:12Z</time>
      </trkpt>
      <trkpt lat="43.95188" lon="1.95296">
        <ele>308.4</ele>
        <time>2021-03-21T15:14:13Z</time>
      </trkpt>
      <trkpt lat="43.95185" lon="1.95294">
        <ele>308.2</ele>
        <time>2021-03-21T15:14:14Z</time>
      </trkpt>
      <trkpt lat="43.95182" lon="1.95292">
        <ele>308</ele>
        <time>2021-03-21T15:14:15Z</time>
      </trkpt>
      <trkpt lat="43.95179" lon="1.95291">
        <ele>308</ele>
        <time>2021-03-21T15:14:16Z</time>
      </trkpt>
      <trkpt lat="43.95177" lon="1.9529">
        <ele>308</ele>
        <time>2021-03-21T15:14:17Z</time>
      </trkpt>
      <trkpt lat="43.95174" lon="1.95289">
        <ele>307.8</ele>
        <time>2021-03-21T15:14:18Z</time>
      </trkpt>
      <trkpt lat="43.95171" lon="1.95286">
        <ele>307.6</ele>
        <time>2021-03-21T15:14:19Z</time>
      </trkpt>
      <trkpt lat="43.95165" lon="1.95281">
        <ele>307.2</ele>
        <time>2021-03-21T15:14:21Z</time>
      </trkpt>
      <trkpt lat="43.95162" lon="1.95278">
        <ele>307.2</ele>
        <time>2021-03-21T15:14:22Z</time>
      </trkpt>
      <trkpt lat="43.9516" lon="1.95274">
        <ele>307.2</ele>
        <time>2021-03-21T15:14:23Z</time>
      </trkpt>
      <trkpt lat="43.95158" lon="1.95271">
        <ele>307.2</ele>
        <time>2021-03-21T15:14:24Z</time>
      </trkpt>
      <trkpt lat="43.95155" lon="1.95268">
        <ele>307.2</ele>
        <time>2021-03-21T15:14:25Z</time>
      </trkpt>
      <trkpt lat="43.95153" lon="1.95265">
        <ele>307.4</ele>
        <time>2021-03-21T15:14:26Z</time>
      </trkpt>
      <trkpt lat="43.95151" lon="1.95262">
        <ele>307.4</ele>
        <time>2021-03-21T15:14:27Z</time>
      </trkpt>
      <trkpt lat="43.95149" lon="1.9526">
        <ele>307.6</ele>
        <time>2021-03-21T15:14:28Z</time>
      </trkpt>
      <trkpt lat="43.95147" lon="1.95258">
        <ele>307.8</ele>
        <time>2021-03-21T15:14:29Z</time>
      </trkpt>
      <trkpt lat="43.95142" lon="1.95253">
        <ele>308.2</ele>
        <time>2021-03-21T15:14:31Z</time>
      </trkpt>
      <trkpt lat="43.9514" lon="1.95251">
        <ele>308.2</ele>
        <time>2021-03-21T15:14:32Z</time>
      </trkpt>
      <trkpt lat="43.95138" lon="1.95249">
        <ele>308.2</ele>
        <time>2021-03-21T15:14:33Z</time>
      </trkpt>
      <trkpt lat="43.95136" lon="1.95246">
        <ele>308.4</ele>
        <time>2021-03-21T15:14:34Z</time>
      </trkpt>
      <trkpt lat="43.95134" lon="1.95244">
        <ele>308.4</ele>
        <time>2021-03-21T15:14:35Z</time>
      </trkpt>
      <trkpt lat="43.95132" lon="1.95242">
        <ele>308.6</ele>
        <time>2021-03-21T15:14:36Z</time>
      </trkpt>
      <trkpt lat="43.9513" lon="1.9524">
        <ele>308.8</ele>
        <time>2021-03-21T15:14:37Z</time>
      </trkpt>
      <trkpt lat="43.95128" lon="1.95238">
        <ele>309.2</ele>
        <time>2021-03-21T15:14:38Z</time>
      </trkpt>
      <trkpt lat="43.95127" lon="1.95236">
        <ele>309.4</ele>
        <time>2021-03-21T15:14:39Z</time>
      </trkpt>
      <trkpt lat="43.95125" lon="1.95234">
        <ele>309.4</ele>
        <time>2021-03-21T15:14:40Z</time>
      </trkpt>
      <trkpt lat="43.95123" lon="1.95232">
        <ele>309.6</ele>
        <time>2021-03-21T15:14:41Z</time>
      </trkpt>
      <trkpt lat="43.95122" lon="1.9523">
        <ele>309.8</ele>
        <time>2021-03-21T15:14:42Z</time>
      </trkpt>
      <trkpt lat="43.9512" lon="1.95229">
        <ele>309.8</ele>
        <time>2021-03-21T15:14:43Z</time>
      </trkpt>
      <trkpt lat="43.95118" lon="1.95228">
        <ele>310</ele>
        <time>2021-03-21T15:14:44Z</time>
      </trkpt>
      <trkpt lat="43.95116" lon="1.95226">
        <ele>310.4</ele>
        <time>2021-03-21T15:14:45Z</time>
      </trkpt>
      <trkpt lat="43.95114" lon="1.95224">
        <ele>310.8</ele>
        <time>2021-03-21T15:14:46Z</time>
      </trkpt>
      <trkpt lat="43.95113" lon="1.95222">
        <ele>311</ele>
        <time>2021-03-21T15:14:47Z</time>
      </trkpt>
      <trkpt lat="43.95111" lon="1.9522">
        <ele>311.2</ele>
        <time>2021-03-21T15:14:48Z</time>
      </trkpt>
      <trkpt lat="43.95109" lon="1.95218">
        <ele>311.4</ele>
        <time>2021-03-21T15:14:49Z</time>
      </trkpt>
      <trkpt lat="43.95108" lon="1.95217">
        <ele>311.6</ele>
        <time>2021-03-21T15:14:50Z</time>
      </trkpt>
      <trkpt lat="43.95106" lon="1.95215">
        <ele>311.8</ele>
        <time>2021-03-21T15:14:51Z</time>
      </trkpt>
      <trkpt lat="43.95105" lon="1.95213">
        <ele>311.8</ele>
        <time>2021-03-21T15:14:52Z</time>
      </trkpt>
      <trkpt lat="43.95103" lon="1.95212">
        <ele>312.2</ele>
        <time>2021-03-21T15:14:53Z</time>
      </trkpt>
      <trkpt lat="43.95101" lon="1.9521">
        <ele>312.4</ele>
        <time>2021-03-21T15:14:54Z</time>
      </trkpt>
      <trkpt lat="43.95099" lon="1.95209">
        <ele>312.4</ele>
        <time>2021-03-21T15:14:55Z</time>
      </trkpt>
      <trkpt lat="43.95097" lon="1.95207">
        <ele>312.6</ele>
        <time>2021-03-21T15:14:56Z</time>
      </trkpt>
      <trkpt lat="43.95095" lon="1.95205">
        <ele>312.8</ele>
        <time>2021-03-21T15:14:57Z</time>
      </trkpt>
      <trkpt lat="43.95093" lon="1.95204">
        <ele>313.2</ele>
        <time>2021-03-21T15:14:58Z</time>
      </trkpt>
      <trkpt lat="43.9509" lon="1.95202">
        <ele>313.2</ele>
        <time>2021-03-21T15:14:59Z</time>
      </trkpt>
      <trkpt lat="43.95088" lon="1.952">
        <ele>313.2</ele>
        <time>2021-03-21T15:15:00Z</time>
      </trkpt>
      <trkpt lat="43.95085" lon="1.95198">
        <ele>313.4</ele>
        <time>2021-03-21T15:15:01Z</time>
      </trkpt>
      <trkpt lat="43.95082" lon="1.95195">
        <ele>313.4</ele>
        <time>2021-03-21T15:15:02Z</time>
      </trkpt>
      <trkpt lat="43.95079" lon="1.95193">
        <ele>313.4</ele>
        <time>2021-03-21T15:15:03Z</time>
      </trkpt>
      <trkpt lat="43.95075" lon="1.9519">
        <ele>313.4</ele>
        <time>2021-03-21T15:15:04Z</time>
      </trkpt>
      <trkpt lat="43.95072" lon="1.95187">
        <ele>313.2</ele>
        <time>2021-03-21T15:15:05Z</time>
      </trkpt>
      <trkpt lat="43.95069" lon="1.95184">
        <ele>313.4</ele>
        <time>2021-03-21T15:15:06Z</time>
      </trkpt>
      <trkpt lat="43.95065" lon="1.95181">
        <ele>313.4</ele>
        <time>2021-03-21T15:15:07Z</time>
      </trkpt>
      <trkpt lat="43.95062" lon="1.95178">
        <ele>313.2</ele>
        <time>2021-03-21T15:15:08Z</time>
      </trkpt>
      <trkpt lat="43.95058" lon="1.95176">
        <ele>313</ele>
        <time>2021-03-21T15:15:09Z</time>
      </trkpt>
      <trkpt lat="43.95055" lon="1.95173">
        <ele>313</ele>
        <time>2021-03-21T15:15:10Z</time>
      </trkpt>
      <trkpt lat="43.95051" lon="1.9517">
        <ele>312.8</ele>
        <time>2021-03-21T15:15:11Z</time>
      </trkpt>
      <trkpt lat="43.95048" lon="1.95167">
        <ele>312.4</ele>
        <time>2021-03-21T15:15:12Z</time>
      </trkpt>
      <trkpt lat="43.95045" lon="1.95164">
        <ele>312</ele>
        <time>2021-03-21T15:15:13Z</time>
      </trkpt>
      <trkpt lat="43.95041" lon="1.95162">
        <ele>311.6</ele>
        <time>2021-03-21T15:15:14Z</time>
      </trkpt>
      <trkpt lat="43.95035" lon="1.95157">
        <ele>311.4</ele>
        <time>2021-03-21T15:15:16Z</time>
      </trkpt>
      <trkpt lat="43.95031" lon="1.95154">
        <ele>311</ele>
        <time>2021-03-21T15:15:17Z</time>
      </trkpt>
      <trkpt lat="43.95028" lon="1.95151">
        <ele>310.8</ele>
        <time>2021-03-21T15:15:18Z</time>
      </trkpt>
      <trkpt lat="43.95025" lon="1.95149">
        <ele>310.6</ele>
        <time>2021-03-21T15:15:19Z</time>
      </trkpt>
      <trkpt lat="43.95022" lon="1.95146">
        <ele>310.4</ele>
        <time>2021-03-21T15:15:20Z</time>
      </trkpt>
      <trkpt lat="43.95019" lon="1.95144">
        <ele>310.4</ele>
        <time>2021-03-21T15:15:21Z</time>
      </trkpt>
      <trkpt lat="43.95016" lon="1.95142">
        <ele>310.4</ele>
        <time>2021-03-21T15:15:22Z</time>
      </trkpt>
      <trkpt lat="43.95014" lon="1.9514">
        <ele>310.2</ele>
        <time>2021-03-21T15:15:23Z</time>
      </trkpt>
      <trkpt lat="43.95011" lon="1.95138">
        <ele>310.2</ele>
        <time>2021-03-21T15:15:24Z</time>
      </trkpt>
      <trkpt lat="43.95009" lon="1.95136">
        <ele>310</ele>
        <time>2021-03-21T15:15:25Z</time>
      </trkpt>
      <trkpt lat="43.95007" lon="1.95134">
        <ele>310</ele>
        <time>2021-03-21T15:15:26Z</time>
      </trkpt>
      <trkpt lat="43.95005" lon="1.95133">
        <ele>310</ele>
        <time>2021-03-21T15:15:27Z</time>
      </trkpt>
      <trkpt lat="43.95004" lon="1.95134">
        <ele>309.8</ele>
        <time>2021-03-21T15:15:28Z</time>
      </trkpt>
      <trkpt lat="43.95003" lon="1.95136">
        <ele>309.8</ele>
        <time>2021-03-21T15:15:29Z</time>
      </trkpt>
      <trkpt lat="43.95003" lon="1.95137">
        <ele>310</ele>
        <time>2021-03-21T15:15:30Z</time>
      </trkpt>
      <trkpt lat="43.95003" lon="1.95138">
        <ele>310</ele>
        <time>2021-03-21T15:15:31Z</time>
      </trkpt>
      <trkpt lat="43.95003" lon="1.95138">
        <ele>310.2</ele>
        <time>2021-03-21T15:15:32Z</time>
      </trkpt>
      <trkpt lat="43.95003" lon="1.95142">
        <ele>310.8</ele>
        <time>2021-03-21T15:16:31Z</time>
      </trkpt>
      <trkpt lat="43.95003" lon="1.95145">
        <ele>310.8</ele>
        <time>2021-03-21T15:16:32Z</time>
      </trkpt>
      <trkpt lat="43.95003" lon="1.95148">
        <ele>310.8</ele>
        <time>2021-03-21T15:16:33Z</time>
      </trkpt>
      <trkpt lat="43.95003" lon="1.95152">
        <ele>310.6</ele>
        <time>2021-03-21T15:16:34Z</time>
      </trkpt>
      <trkpt lat="43.95003" lon="1.95157">
        <ele>310.6</ele>
        <time>2021-03-21T15:16:35Z</time>
      </trkpt>
      <trkpt lat="43.95003" lon="1.95162">
        <ele>310.8</ele>
        <time>2021-03-21T15:16:36Z</time>
      </trkpt>
      <trkpt lat="43.95003" lon="1.95168">
        <ele>310.8</ele>
        <time>2021-03-21T15:16:37Z</time>
      </trkpt>
      <trkpt lat="43.95003" lon="1.95174">
        <ele>310.6</ele>
        <time>2021-03-21T15:16:38Z</time>
      </trkpt>
      <trkpt lat="43.95004" lon="1.95181">
        <ele>310.6</ele>
        <time>2021-03-21T15:16:39Z</time>
      </trkpt>
      <trkpt lat="43.95004" lon="1.95187">
        <ele>310.6</ele>
        <time>2021-03-21T15:16:40Z</time>
      </trkpt>
      <trkpt lat="43.95005" lon="1.95201">
        <ele>310.2</ele>
        <time>2021-03-21T15:16:42Z</time>
      </trkpt>
      <trkpt lat="43.95006" lon="1.95208">
        <ele>310</ele>
        <time>2021-03-21T15:16:43Z</time>
      </trkpt>
      <trkpt lat="43.95007" lon="1.95216">
        <ele>309.8</ele>
        <time>2021-03-21T15:16:44Z</time>
      </trkpt>
      <trkpt lat="43.95008" lon="1.95224">
        <ele>309.4</ele>
        <time>2021-03-21T15:16:45Z</time>
      </trkpt>
      <trkpt lat="43.95011" lon="1.9524">
        <ele>308.8</ele>
        <time>2021-03-21T15:16:47Z</time>
      </trkpt>
      <trkpt lat="43.95012" lon="1.95248">
        <ele>308.4</ele>
        <time>2021-03-21T15:16:48Z</time>
      </trkpt>
      <trkpt lat="43.95014" lon="1.95256">
        <ele>308</ele>
        <time>2021-03-21T15:16:49Z</time>
      </trkpt>
      <trkpt lat="43.95015" lon="1.95265">
        <ele>307.6</ele>
        <time>2021-03-21T15:16:50Z</time>
      </trkpt>
      <trkpt lat="43.95017" lon="1.95274">
        <ele>307.2</ele>
        <time>2021-03-21T15:16:51Z</time>
      </trkpt>
      <trkpt lat="43.95019" lon="1.95283">
        <ele>307.2</ele>
        <time>2021-03-21T15:16:52Z</time>
      </trkpt>
      <trkpt lat="43.9502" lon="1.95291">
        <ele>306.8</ele>
        <time>2021-03-21T15:16:53Z</time>
      </trkpt>
      <trkpt lat="43.95022" lon="1.953">
        <ele>306.2</ele>
        <time>2021-03-21T15:16:54Z</time>
      </trkpt>
      <trkpt lat="43.95023" lon="1.95308">
        <ele>306</ele>
        <time>2021-03-21T15:16:55Z</time>
      </trkpt>
      <trkpt lat="43.95025" lon="1.95316">
        <ele>305.8</ele>
        <time>2021-03-21T15:16:56Z</time>
      </trkpt>
      <trkpt lat="43.95026" lon="1.95324">
        <ele>305.4</ele>
        <time>2021-03-21T15:16:57Z</time>
      </trkpt>
      <trkpt lat="43.95027" lon="1.95331">
        <ele>305</ele>
        <time>2021-03-21T15:16:58Z</time>
      </trkpt>
      <trkpt lat="43.95028" lon="1.95338">
        <ele>304.2</ele>
        <time>2021-03-21T15:16:59Z</time>
      </trkpt>
      <trkpt lat="43.9503" lon="1.95344">
        <ele>303.4</ele>
        <time>2021-03-21T15:17:00Z</time>
      </trkpt>
      <trkpt lat="43.95032" lon="1.95351">
        <ele>303</ele>
        <time>2021-03-21T15:17:01Z</time>
      </trkpt>
      <trkpt lat="43.95034" lon="1.95358">
        <ele>302.6</ele>
        <time>2021-03-21T15:17:02Z</time>
      </trkpt>
      <trkpt lat="43.95036" lon="1.95365">
        <ele>302.2</ele>
        <time>2021-03-21T15:17:03Z</time>
      </trkpt>
      <trkpt lat="43.95037" lon="1.95372">
        <ele>301.8</ele>
        <time>2021-03-21T15:17:04Z</time>
      </trkpt>
      <trkpt lat="43.95038" lon="1.9538">
        <ele>301.4</ele>
        <time>2021-03-21T15:17:05Z</time>
      </trkpt>
      <trkpt lat="43.95039" lon="1.95388">
        <ele>301.4</ele>
        <time>2021-03-21T15:17:06Z</time>
      </trkpt>
      <trkpt lat="43.95039" lon="1.95396">
        <ele>301</ele>
        <time>2021-03-21T15:17:07Z</time>
      </trkpt>
      <trkpt lat="43.95039" lon="1.95405">
        <ele>300.8</ele>
        <time>2021-03-21T15:17:08Z</time>
      </trkpt>
      <trkpt lat="43.95039" lon="1.95413">
        <ele>300.6</ele>
        <time>2021-03-21T15:17:09Z</time>
      </trkpt>
      <trkpt lat="43.95038" lon="1.95421">
        <ele>300.2</ele>
        <time>2021-03-21T15:17:10Z</time>
      </trkpt>
      <trkpt lat="43.95038" lon="1.95429">
        <ele>299.2</ele>
        <time>2021-03-21T15:17:11Z</time>
      </trkpt>
      <trkpt lat="43.95037" lon="1.95435">
        <ele>299.2</ele>
        <time>2021-03-21T15:17:12Z</time>
      </trkpt>
      <trkpt lat="43.95037" lon="1.9544">
        <ele>298.8</ele>
        <time>2021-03-21T15:17:13Z</time>
      </trkpt>
      <trkpt lat="43.95036" lon="1.95445">
        <ele>298.2</ele>
        <time>2021-03-21T15:17:14Z</time>
      </trkpt>
      <trkpt lat="43.95037" lon="1.9545">
        <ele>298.2</ele>
        <time>2021-03-21T15:17:15Z</time>
      </trkpt>
      <trkpt lat="43.95037" lon="1.95456">
        <ele>298</ele>
        <time>2021-03-21T15:17:16Z</time>
      </trkpt>
      <trkpt lat="43.95038" lon="1.95461">
        <ele>298</ele>
        <time>2021-03-21T15:17:17Z</time>
      </trkpt>
      <trkpt lat="43.95039" lon="1.95467">
        <ele>297.8</ele>
        <time>2021-03-21T15:17:18Z</time>
      </trkpt>
      <trkpt lat="43.95041" lon="1.95472">
        <ele>297.8</ele>
        <time>2021-03-21T15:17:19Z</time>
      </trkpt>
      <trkpt lat="43.95043" lon="1.95476">
        <ele>297.8</ele>
        <time>2021-03-21T15:17:20Z</time>
      </trkpt>
      <trkpt lat="43.95044" lon="1.9548">
        <ele>297.8</ele>
        <time>2021-03-21T15:17:21Z</time>
      </trkpt>
      <trkpt lat="43.95046" lon="1.95484">
        <ele>297.6</ele>
        <time>2021-03-21T15:17:22Z</time>
      </trkpt>
      <trkpt lat="43.95047" lon="1.95487">
        <ele>297.8</ele>
        <time>2021-03-21T15:17:23Z</time>
      </trkpt>
      <trkpt lat="43.95048" lon="1.95489">
        <ele>297.6</ele>
        <time>2021-03-21T15:17:24Z</time>
      </trkpt>
      <trkpt lat="43.95049" lon="1.95492">
        <ele>297.8</ele>
        <time>2021-03-21T15:17:25Z</time>
      </trkpt>
      <trkpt lat="43.95051" lon="1.95494">
        <ele>297.8</ele>
        <time>2021-03-21T15:17:26Z</time>
      </trkpt>
      <trkpt lat="43.95052" lon="1.95497">
        <ele>297.8</ele>
        <time>2021-03-21T15:17:27Z</time>
      </trkpt>
      <trkpt lat="43.95053" lon="1.95499">
        <ele>298</ele>
        <time>2021-03-21T15:17:28Z</time>
      </trkpt>
      <trkpt lat="43.95055" lon="1.95502">
        <ele>298.2</ele>
        <time>2021-03-21T15:17:29Z</time>
      </trkpt>
      <trkpt lat="43.95056" lon="1.95505">
        <ele>298.4</ele>
        <time>2021-03-21T15:17:30Z</time>
      </trkpt>
      <trkpt lat="43.95057" lon="1.95507">
        <ele>298.6</ele>
        <time>2021-03-21T15:17:31Z</time>
      </trkpt>
      <trkpt lat="43.95058" lon="1.95509">
        <ele>298.6</ele>
        <time>2021-03-21T15:17:32Z</time>
      </trkpt>
      <trkpt lat="43.95059" lon="1.95511">
        <ele>299</ele>
        <time>2021-03-21T15:17:33Z</time>
      </trkpt>
      <trkpt lat="43.9506" lon="1.95512">
        <ele>299.2</ele>
        <time>2021-03-21T15:17:34Z</time>
      </trkpt>
      <trkpt lat="43.95061" lon="1.95514">
        <ele>299.6</ele>
        <time>2021-03-21T15:17:35Z</time>
      </trkpt>
      <trkpt lat="43.95062" lon="1.95516">
        <ele>299.8</ele>
        <time>2021-03-21T15:17:36Z</time>
      </trkpt>
      <trkpt lat="43.95063" lon="1.95517">
        <ele>300.2</ele>
        <time>2021-03-21T15:17:37Z</time>
      </trkpt>
      <trkpt lat="43.95063" lon="1.95519">
        <ele>300.4</ele>
        <time>2021-03-21T15:17:38Z</time>
      </trkpt>
      <trkpt lat="43.95064" lon="1.95521">
        <ele>300.4</ele>
        <time>2021-03-21T15:17:39Z</time>
      </trkpt>
      <trkpt lat="43.95065" lon="1.95522">
        <ele>300.8</ele>
        <time>2021-03-21T15:17:40Z</time>
      </trkpt>
      <trkpt lat="43.95066" lon="1.95524">
        <ele>300.8</ele>
        <time>2021-03-21T15:17:41Z</time>
      </trkpt>
      <trkpt lat="43.95067" lon="1.95526">
        <ele>301.2</ele>
        <time>2021-03-21T15:17:42Z</time>
      </trkpt>
      <trkpt lat="43.95068" lon="1.95528">
        <ele>301.4</ele>
        <time>2021-03-21T15:17:43Z</time>
      </trkpt>
      <trkpt lat="43.95069" lon="1.95529">
        <ele>301.6</ele>
        <time>2021-03-21T15:17:44Z</time>
      </trkpt>
      <trkpt lat="43.9507" lon="1.95531">
        <ele>302</ele>
        <time>2021-03-21T15:17:45Z</time>
      </trkpt>
      <trkpt lat="43.9507" lon="1.95532">
        <ele>302.2</ele>
        <time>2021-03-21T15:17:46Z</time>
      </trkpt>
      <trkpt lat="43.9507" lon="1.95532">
        <ele>302.4</ele>
        <time>2021-03-21T15:17:47Z</time>
      </trkpt>
      <trkpt lat="43.9507" lon="1.95532">
        <ele>302.8</ele>
        <time>2021-03-21T15:17:48Z</time>
      </trkpt>
      <trkpt lat="43.95071" lon="1.95533">
        <ele>303.2</ele>
        <time>2021-03-21T15:17:49Z</time>
      </trkpt>
      <trkpt lat="43.95095" lon="1.95612">
        <ele>315.2</ele>
        <time>2021-03-21T15:19:01Z</time>
      </trkpt>
      <trkpt lat="43.95095" lon="1.95614">
        <ele>315</ele>
        <time>2021-03-21T15:19:02Z</time>
      </trkpt>
      <trkpt lat="43.95094" lon="1.95616">
        <ele>315.2</ele>
        <time>2021-03-21T15:19:03Z</time>
      </trkpt>
      <trkpt lat="43.95094" lon="1.95618">
        <ele>315.2</ele>
        <time>2021-03-21T15:19:04Z</time>
      </trkpt>
      <trkpt lat="43.95094" lon="1.9562">
        <ele>315.2</ele>
        <time>2021-03-21T15:19:05Z</time>
      </trkpt>
      <trkpt lat="43.95094" lon="1.95622">
        <ele>315.4</ele>
        <time>2021-03-21T15:19:06Z</time>
      </trkpt>
      <trkpt lat="43.95093" lon="1.95625">
        <ele>315.4</ele>
        <time>2021-03-21T15:19:07Z</time>
      </trkpt>
      <trkpt lat="43.95093" lon="1.95628">
        <ele>315.6</ele>
        <time>2021-03-21T15:19:08Z</time>
      </trkpt>
      <trkpt lat="43.95092" lon="1.9563">
        <ele>315.8</ele>
        <time>2021-03-21T15:19:09Z</time>
      </trkpt>
      <trkpt lat="43.95092" lon="1.95633">
        <ele>315.6</ele>
        <time>2021-03-21T15:19:10Z</time>
      </trkpt>
      <trkpt lat="43.95091" lon="1.95636">
        <ele>315.6</ele>
        <time>2021-03-21T15:19:11Z</time>
      </trkpt>
      <trkpt lat="43.95091" lon="1.95638">
        <ele>315.6</ele>
        <time>2021-03-21T15:19:12Z</time>
      </trkpt>
      <trkpt lat="43.95091" lon="1.95641">
        <ele>315.8</ele>
        <time>2021-03-21T15:19:13Z</time>
      </trkpt>
      <trkpt lat="43.9509" lon="1.95643">
        <ele>315.8</ele>
        <time>2021-03-21T15:19:14Z</time>
      </trkpt>
      <trkpt lat="43.9509" lon="1.95646">
        <ele>315.8</ele>
        <time>2021-03-21T15:19:15Z</time>
      </trkpt>
      <trkpt lat="43.9509" lon="1.95648">
        <ele>315.8</ele>
        <time>2021-03-21T15:19:16Z</time>
      </trkpt>
      <trkpt lat="43.9509" lon="1.95651">
        <ele>315.8</ele>
        <time>2021-03-21T15:19:17Z</time>
      </trkpt>
      <trkpt lat="43.9509" lon="1.95653">
        <ele>315.8</ele>
        <time>2021-03-21T15:19:18Z</time>
      </trkpt>
      <trkpt lat="43.9509" lon="1.95656">
        <ele>315.8</ele>
        <time>2021-03-21T15:19:19Z</time>
      </trkpt>
      <trkpt lat="43.9509" lon="1.95658">
        <ele>316</ele>
        <time>2021-03-21T15:19:20Z</time>
      </trkpt>
      <trkpt lat="43.9509" lon="1.9566">
        <ele>316</ele>
        <time>2021-03-21T15:19:21Z</time>
      </trkpt>
      <trkpt lat="43.9509" lon="1.95663">
        <ele>315.8</ele>
        <time>2021-03-21T15:19:22Z</time>
      </trkpt>
      <trkpt lat="43.95091" lon="1.95666">
        <ele>316.2</ele>
        <time>2021-03-21T15:19:23Z</time>
      </trkpt>
      <trkpt lat="43.95091" lon="1.95668">
        <ele>316.2</ele>
        <time>2021-03-21T15:19:24Z</time>
      </trkpt>
      <trkpt lat="43.95091" lon="1.95673">
        <ele>316.2</ele>
        <time>2021-03-21T15:19:26Z</time>
      </trkpt>
      <trkpt lat="43.95091" lon="1.95676">
        <ele>316.4</ele>
        <time>2021-03-21T15:19:27Z</time>
      </trkpt>
      <trkpt lat="43.95091" lon="1.95679">
        <ele>316.6</ele>
        <time>2021-03-21T15:19:28Z</time>
      </trkpt>
      <trkpt lat="43.9509" lon="1.95682">
        <ele>316.6</ele>
        <time>2021-03-21T15:19:29Z</time>
      </trkpt>
      <trkpt lat="43.9509" lon="1.95685">
        <ele>317</ele>
        <time>2021-03-21T15:19:30Z</time>
      </trkpt>
      <trkpt lat="43.9509" lon="1.95688">
        <ele>317</ele>
        <time>2021-03-21T15:19:31Z</time>
      </trkpt>
      <trkpt lat="43.9509" lon="1.9569">
        <ele>317</ele>
        <time>2021-03-21T15:19:32Z</time>
      </trkpt>
      <trkpt lat="43.95089" lon="1.95696">
        <ele>317.2</ele>
        <time>2021-03-21T15:19:34Z</time>
      </trkpt>
      <trkpt lat="43.95089" lon="1.95699">
        <ele>317.2</ele>
        <time>2021-03-21T15:19:35Z</time>
      </trkpt>
      <trkpt lat="43.95089" lon="1.95702">
        <ele>317.2</ele>
        <time>2021-03-21T15:19:36Z</time>
      </trkpt>
      <trkpt lat="43.95089" lon="1.95705">
        <ele>317.4</ele>
        <time>2021-03-21T15:19:37Z</time>
      </trkpt>
      <trkpt lat="43.95089" lon="1.95708">
        <ele>317.4</ele>
        <time>2021-03-21T15:19:38Z</time>
      </trkpt>
      <trkpt lat="43.95089" lon="1.95711">
        <ele>317.4</ele>
        <time>2021-03-21T15:19:39Z</time>
      </trkpt>
      <trkpt lat="43.95088" lon="1.95715">
        <ele>317.4</ele>
        <time>2021-03-21T15:19:40Z</time>
      </trkpt>
      <trkpt lat="43.95088" lon="1.95718">
        <ele>317.4</ele>
        <time>2021-03-21T15:19:41Z</time>
      </trkpt>
      <trkpt lat="43.95088" lon="1.95721">
        <ele>317.4</ele>
        <time>2021-03-21T15:19:42Z</time>
      </trkpt>
      <trkpt lat="43.95087" lon="1.95727">
        <ele>317.6</ele>
        <time>2021-03-21T15:19:44Z</time>
      </trkpt>
      <trkpt lat="43.95087" lon="1.9573">
        <ele>317.4</ele>
        <time>2021-03-21T15:19:45Z</time>
      </trkpt>
      <trkpt lat="43.95086" lon="1.95733">
        <ele>317.6</ele>
        <time>2021-03-21T15:19:46Z</time>
      </trkpt>
      <trkpt lat="43.95085" lon="1.95736">
        <ele>317.6</ele>
        <time>2021-03-21T15:19:47Z</time>
      </trkpt>
      <trkpt lat="43.95084" lon="1.95738">
        <ele>317.8</ele>
        <time>2021-03-21T15:19:48Z</time>
      </trkpt>
      <trkpt lat="43.95083" lon="1.95741">
        <ele>317.8</ele>
        <time>2021-03-21T15:19:49Z</time>
      </trkpt>
      <trkpt lat="43.95081" lon="1.95744">
        <ele>317.8</ele>
        <time>2021-03-21T15:19:50Z</time>
      </trkpt>
      <trkpt lat="43.9508" lon="1.95746">
        <ele>317.8</ele>
        <time>2021-03-21T15:19:51Z</time>
      </trkpt>
      <trkpt lat="43.95078" lon="1.95749">
        <ele>318</ele>
        <time>2021-03-21T15:19:52Z</time>
      </trkpt>
      <trkpt lat="43.95077" lon="1.95752">
        <ele>318.2</ele>
        <time>2021-03-21T15:19:53Z</time>
      </trkpt>
      <trkpt lat="43.95077" lon="1.95754">
        <ele>318.2</ele>
        <time>2021-03-21T15:19:54Z</time>
      </trkpt>
      <trkpt lat="43.95076" lon="1.95757">
        <ele>318.2</ele>
        <time>2021-03-21T15:19:55Z</time>
      </trkpt>
      <trkpt lat="43.95075" lon="1.95759">
        <ele>318.4</ele>
        <time>2021-03-21T15:19:56Z</time>
      </trkpt>
      <trkpt lat="43.95074" lon="1.95762">
        <ele>318.4</ele>
        <time>2021-03-21T15:19:57Z</time>
      </trkpt>
      <trkpt lat="43.95073" lon="1.95765">
        <ele>318.4</ele>
        <time>2021-03-21T15:19:58Z</time>
      </trkpt>
      <trkpt lat="43.95073" lon="1.95767">
        <ele>318.6</ele>
        <time>2021-03-21T15:19:59Z</time>
      </trkpt>
      <trkpt lat="43.95072" lon="1.9577">
        <ele>318.6</ele>
        <time>2021-03-21T15:20:00Z</time>
      </trkpt>
      <trkpt lat="43.95071" lon="1.95772">
        <ele>319</ele>
        <time>2021-03-21T15:20:01Z</time>
      </trkpt>
      <trkpt lat="43.9507" lon="1.95774">
        <ele>319.4</ele>
        <time>2021-03-21T15:20:02Z</time>
      </trkpt>
      <trkpt lat="43.95069" lon="1.95777">
        <ele>319.4</ele>
        <time>2021-03-21T15:20:03Z</time>
      </trkpt>
      <trkpt lat="43.95069" lon="1.95779">
        <ele>319.6</ele>
        <time>2021-03-21T15:20:04Z</time>
      </trkpt>
      <trkpt lat="43.95068" lon="1.95782">
        <ele>319.8</ele>
        <time>2021-03-21T15:20:05Z</time>
      </trkpt>
      <trkpt lat="43.95067" lon="1.95784">
        <ele>320</ele>
        <time>2021-03-21T15:20:06Z</time>
      </trkpt>
      <trkpt lat="43.95066" lon="1.95787">
        <ele>320</ele>
        <time>2021-03-21T15:20:07Z</time>
      </trkpt>
      <trkpt lat="43.95066" lon="1.95789">
        <ele>320.2</ele>
        <time>2021-03-21T15:20:08Z</time>
      </trkpt>
      <trkpt lat="43.95065" lon="1.95791">
        <ele>320.4</ele>
        <time>2021-03-21T15:20:09Z</time>
      </trkpt>
      <trkpt lat="43.95064" lon="1.95794">
        <ele>320.6</ele>
        <time>2021-03-21T15:20:10Z</time>
      </trkpt>
      <trkpt lat="43.95063" lon="1.95796">
        <ele>320.8</ele>
        <time>2021-03-21T15:20:11Z</time>
      </trkpt>
      <trkpt lat="43.95062" lon="1.95799">
        <ele>321</ele>
        <time>2021-03-21T15:20:12Z</time>
      </trkpt>
      <trkpt lat="43.95061" lon="1.95801">
        <ele>321</ele>
        <time>2021-03-21T15:20:13Z</time>
      </trkpt>
      <trkpt lat="43.9506" lon="1.95804">
        <ele>321.2</ele>
        <time>2021-03-21T15:20:14Z</time>
      </trkpt>
      <trkpt lat="43.95059" lon="1.95806">
        <ele>321.6</ele>
        <time>2021-03-21T15:20:15Z</time>
      </trkpt>
      <trkpt lat="43.95058" lon="1.95809">
        <ele>321.6</ele>
        <time>2021-03-21T15:20:16Z</time>
      </trkpt>
      <trkpt lat="43.95057" lon="1.95811">
        <ele>321.6</ele>
        <time>2021-03-21T15:20:17Z</time>
      </trkpt>
      <trkpt lat="43.95057" lon="1.95813">
        <ele>321.8</ele>
        <time>2021-03-21T15:20:18Z</time>
      </trkpt>
      <trkpt lat="43.95056" lon="1.95815">
        <ele>322.2</ele>
        <time>2021-03-21T15:20:19Z</time>
      </trkpt>
      <trkpt lat="43.95055" lon="1.95818">
        <ele>322.6</ele>
        <time>2021-03-21T15:20:20Z</time>
      </trkpt>
      <trkpt lat="43.95054" lon="1.9582">
        <ele>323</ele>
        <time>2021-03-21T15:20:21Z</time>
      </trkpt>
      <trkpt lat="43.95053" lon="1.95822">
        <ele>323.2</ele>
        <time>2021-03-21T15:20:22Z</time>
      </trkpt>
      <trkpt lat="43.95053" lon="1.95824">
        <ele>323.6</ele>
        <time>2021-03-21T15:20:23Z</time>
      </trkpt>
      <trkpt lat="43.95051" lon="1.95826">
        <ele>323.8</ele>
        <time>2021-03-21T15:20:24Z</time>
      </trkpt>
      <trkpt lat="43.9505" lon="1.95828">
        <ele>324</ele>
        <time>2021-03-21T15:20:25Z</time>
      </trkpt>
      <trkpt lat="43.95049" lon="1.9583">
        <ele>324</ele>
        <time>2021-03-21T15:20:26Z</time>
      </trkpt>
      <trkpt lat="43.95048" lon="1.95832">
        <ele>324.2</ele>
        <time>2021-03-21T15:20:27Z</time>
      </trkpt>
      <trkpt lat="43.95047" lon="1.95834">
        <ele>324.4</ele>
        <time>2021-03-21T15:20:28Z</time>
      </trkpt>
      <trkpt lat="43.95046" lon="1.95836">
        <ele>324.8</ele>
        <time>2021-03-21T15:20:29Z</time>
      </trkpt>
      <trkpt lat="43.95046" lon="1.95837">
        <ele>324.8</ele>
        <time>2021-03-21T15:20:30Z</time>
      </trkpt>
      <trkpt lat="43.95045" lon="1.9584">
        <ele>325</ele>
        <time>2021-03-21T15:20:31Z</time>
      </trkpt>
      <trkpt lat="43.95044" lon="1.95842">
        <ele>325</ele>
        <time>2021-03-21T15:20:32Z</time>
      </trkpt>
      <trkpt lat="43.95043" lon="1.95843">
        <ele>325.4</ele>
        <time>2021-03-21T15:20:33Z</time>
      </trkpt>
      <trkpt lat="43.95042" lon="1.95845">
        <ele>325.8</ele>
        <time>2021-03-21T15:20:34Z</time>
      </trkpt>
      <trkpt lat="43.95042" lon="1.95847">
        <ele>326</ele>
        <time>2021-03-21T15:20:35Z</time>
      </trkpt>
      <trkpt lat="43.95041" lon="1.95848">
        <ele>326.2</ele>
        <time>2021-03-21T15:20:36Z</time>
      </trkpt>
      <trkpt lat="43.9504" lon="1.9585">
        <ele>326.4</ele>
        <time>2021-03-21T15:20:37Z</time>
      </trkpt>
      <trkpt lat="43.95039" lon="1.95851">
        <ele>326.6</ele>
        <time>2021-03-21T15:20:38Z</time>
      </trkpt>
      <trkpt lat="43.95038" lon="1.95853">
        <ele>326.6</ele>
        <time>2021-03-21T15:20:39Z</time>
      </trkpt>
      <trkpt lat="43.95037" lon="1.95854">
        <ele>326.8</ele>
        <time>2021-03-21T15:20:40Z</time>
      </trkpt>
      <trkpt lat="43.95036" lon="1.95856">
        <ele>327.2</ele>
        <time>2021-03-21T15:20:41Z</time>
      </trkpt>
      <trkpt lat="43.95036" lon="1.95858">
        <ele>327.4</ele>
        <time>2021-03-21T15:20:42Z</time>
      </trkpt>
      <trkpt lat="43.95035" lon="1.95859">
        <ele>327.4</ele>
        <time>2021-03-21T15:20:43Z</time>
      </trkpt>
      <trkpt lat="43.95034" lon="1.95861">
        <ele>327.6</ele>
        <time>2021-03-21T15:20:44Z</time>
      </trkpt>
      <trkpt lat="43.95034" lon="1.95863">
        <ele>327.8</ele>
        <time>2021-03-21T15:20:45Z</time>
      </trkpt>
      <trkpt lat="43.95033" lon="1.95864">
        <ele>328</ele>
        <time>2021-03-21T15:20:46Z</time>
      </trkpt>
      <trkpt lat="43.95032" lon="1.95865">
        <ele>328.2</ele>
        <time>2021-03-21T15:20:47Z</time>
      </trkpt>
      <trkpt lat="43.95032" lon="1.95867">
        <ele>328.4</ele>
        <time>2021-03-21T15:20:48Z</time>
      </trkpt>
      <trkpt lat="43.95031" lon="1.95869">
        <ele>328.6</ele>
        <time>2021-03-21T15:20:49Z</time>
      </trkpt>
      <trkpt lat="43.95031" lon="1.9587">
        <ele>328.6</ele>
        <time>2021-03-21T15:20:50Z</time>
      </trkpt>
      <trkpt lat="43.9503" lon="1.95872">
        <ele>328.8</ele>
        <time>2021-03-21T15:20:51Z</time>
      </trkpt>
      <trkpt lat="43.9503" lon="1.95873">
        <ele>329</ele>
        <time>2021-03-21T15:20:52Z</time>
      </trkpt>
      <trkpt lat="43.95029" lon="1.95874">
        <ele>329.2</ele>
        <time>2021-03-21T15:20:53Z</time>
      </trkpt>
      <trkpt lat="43.95029" lon="1.95875">
        <ele>329.4</ele>
        <time>2021-03-21T15:20:54Z</time>
      </trkpt>
      <trkpt lat="43.95028" lon="1.95877">
        <ele>329.6</ele>
        <time>2021-03-21T15:20:55Z</time>
      </trkpt>
      <trkpt lat="43.95028" lon="1.95878">
        <ele>329.8</ele>
        <time>2021-03-21T15:20:56Z</time>
      </trkpt>
      <trkpt lat="43.95027" lon="1.9588">
        <ele>330</ele>
        <time>2021-03-21T15:20:57Z</time>
      </trkpt>
      <trkpt lat="43.95027" lon="1.95881">
        <ele>330.2</ele>
        <time>2021-03-21T15:20:58Z</time>
      </trkpt>
      <trkpt lat="43.95025" lon="1.95883">
        <ele>330.2</ele>
        <time>2021-03-21T15:20:59Z</time>
      </trkpt>
      <trkpt lat="43.95025" lon="1.95884">
        <ele>330.4</ele>
        <time>2021-03-21T15:21:00Z</time>
      </trkpt>
      <trkpt lat="43.95024" lon="1.95886">
        <ele>330.6</ele>
        <time>2021-03-21T15:21:01Z</time>
      </trkpt>
      <trkpt lat="43.95024" lon="1.95888">
        <ele>330.8</ele>
        <time>2021-03-21T15:21:02Z</time>
      </trkpt>
      <trkpt lat="43.95023" lon="1.95889">
        <ele>331</ele>
        <time>2021-03-21T15:21:03Z</time>
      </trkpt>
      <trkpt lat="43.95022" lon="1.95891">
        <ele>331.4</ele>
        <time>2021-03-21T15:21:04Z</time>
      </trkpt>
      <trkpt lat="43.95021" lon="1.95892">
        <ele>331.8</ele>
        <time>2021-03-21T15:21:05Z</time>
      </trkpt>
      <trkpt lat="43.9502" lon="1.95894">
        <ele>332</ele>
        <time>2021-03-21T15:21:06Z</time>
      </trkpt>
      <trkpt lat="43.9502" lon="1.95895">
        <ele>332.6</ele>
        <time>2021-03-21T15:21:07Z</time>
      </trkpt>
      <trkpt lat="43.95019" lon="1.95897">
        <ele>332.8</ele>
        <time>2021-03-21T15:21:08Z</time>
      </trkpt>
      <trkpt lat="43.95019" lon="1.95898">
        <ele>332.8</ele>
        <time>2021-03-21T15:21:09Z</time>
      </trkpt>
      <trkpt lat="43.95018" lon="1.95899">
        <ele>333</ele>
        <time>2021-03-21T15:21:10Z</time>
      </trkpt>
      <trkpt lat="43.95017" lon="1.959">
        <ele>333.2</ele>
        <time>2021-03-21T15:21:11Z</time>
      </trkpt>
      <trkpt lat="43.95017" lon="1.95902">
        <ele>333.2</ele>
        <time>2021-03-21T15:21:12Z</time>
      </trkpt>
      <trkpt lat="43.95016" lon="1.95903">
        <ele>333.2</ele>
        <time>2021-03-21T15:21:13Z</time>
      </trkpt>
      <trkpt lat="43.95016" lon="1.95904">
        <ele>333.6</ele>
        <time>2021-03-21T15:21:14Z</time>
      </trkpt>
      <trkpt lat="43.95015" lon="1.95906">
        <ele>333.6</ele>
        <time>2021-03-21T15:21:15Z</time>
      </trkpt>
      <trkpt lat="43.95014" lon="1.95908">
        <ele>333.8</ele>
        <time>2021-03-21T15:21:16Z</time>
      </trkpt>
      <trkpt lat="43.95013" lon="1.9591">
        <ele>334</ele>
        <time>2021-03-21T15:21:17Z</time>
      </trkpt>
      <trkpt lat="43.95013" lon="1.95911">
        <ele>334</ele>
        <time>2021-03-21T15:21:18Z</time>
      </trkpt>
      <trkpt lat="43.95012" lon="1.95912">
        <ele>334</ele>
        <time>2021-03-21T15:21:19Z</time>
      </trkpt>
      <trkpt lat="43.95012" lon="1.95914">
        <ele>334</ele>
        <time>2021-03-21T15:21:20Z</time>
      </trkpt>
      <trkpt lat="43.95011" lon="1.95915">
        <ele>334</ele>
        <time>2021-03-21T15:21:21Z</time>
      </trkpt>
      <trkpt lat="43.95011" lon="1.95916">
        <ele>334.2</ele>
        <time>2021-03-21T15:21:22Z</time>
      </trkpt>
      <trkpt lat="43.9501" lon="1.95918">
        <ele>334.4</ele>
        <time>2021-03-21T15:21:23Z</time>
      </trkpt>
      <trkpt lat="43.95009" lon="1.95919">
        <ele>334.6</ele>
        <time>2021-03-21T15:21:24Z</time>
      </trkpt>
      <trkpt lat="43.95009" lon="1.95921">
        <ele>335</ele>
        <time>2021-03-21T15:21:25Z</time>
      </trkpt>
      <trkpt lat="43.95008" lon="1.95922">
        <ele>335</ele>
        <time>2021-03-21T15:21:26Z</time>
      </trkpt>
      <trkpt lat="43.95007" lon="1.95924">
        <ele>335</ele>
        <time>2021-03-21T15:21:27Z</time>
      </trkpt>
      <trkpt lat="43.95007" lon="1.95926">
        <ele>335.2</ele>
        <time>2021-03-21T15:21:28Z</time>
      </trkpt>
      <trkpt lat="43.95006" lon="1.95928">
        <ele>335.4</ele>
        <time>2021-03-21T15:21:29Z</time>
      </trkpt>
      <trkpt lat="43.95005" lon="1.95929">
        <ele>335.4</ele>
        <time>2021-03-21T15:21:30Z</time>
      </trkpt>
      <trkpt lat="43.95005" lon="1.95931">
        <ele>335.4</ele>
        <time>2021-03-21T15:21:31Z</time>
      </trkpt>
      <trkpt lat="43.95004" lon="1.95933">
        <ele>335.6</ele>
        <time>2021-03-21T15:21:32Z</time>
      </trkpt>
      <trkpt lat="43.95003" lon="1.95934">
        <ele>335.6</ele>
        <time>2021-03-21T15:21:33Z</time>
      </trkpt>
      <trkpt lat="43.95002" lon="1.95936">
        <ele>335.8</ele>
        <time>2021-03-21T15:21:34Z</time>
      </trkpt>
      <trkpt lat="43.95002" lon="1.95938">
        <ele>336</ele>
        <time>2021-03-21T15:21:35Z</time>
      </trkpt>
      <trkpt lat="43.95001" lon="1.9594">
        <ele>336</ele>
        <time>2021-03-21T15:21:36Z</time>
      </trkpt>
      <trkpt lat="43.95001" lon="1.95942">
        <ele>336</ele>
        <time>2021-03-21T15:21:37Z</time>
      </trkpt>
      <trkpt lat="43.95" lon="1.95944">
        <ele>336</ele>
        <time>2021-03-21T15:21:38Z</time>
      </trkpt>
      <trkpt lat="43.94999" lon="1.95946">
        <ele>336.2</ele>
        <time>2021-03-21T15:21:39Z</time>
      </trkpt>
      <trkpt lat="43.94999" lon="1.95948">
        <ele>336.4</ele>
        <time>2021-03-21T15:21:40Z</time>
      </trkpt>
      <trkpt lat="43.94998" lon="1.95949">
        <ele>336.6</ele>
        <time>2021-03-21T15:21:41Z</time>
      </trkpt>
      <trkpt lat="43.94997" lon="1.95951">
        <ele>336.8</ele>
        <time>2021-03-21T15:21:42Z</time>
      </trkpt>
      <trkpt lat="43.94997" lon="1.95953">
        <ele>337</ele>
        <time>2021-03-21T15:21:43Z</time>
      </trkpt>
      <trkpt lat="43.94996" lon="1.95955">
        <ele>337</ele>
        <time>2021-03-21T15:21:44Z</time>
      </trkpt>
      <trkpt lat="43.94995" lon="1.95957">
        <ele>337.2</ele>
        <time>2021-03-21T15:21:45Z</time>
      </trkpt>
      <trkpt lat="43.94993" lon="1.95959">
        <ele>337.6</ele>
        <time>2021-03-21T15:21:46Z</time>
      </trkpt>
      <trkpt lat="43.94991" lon="1.95961">
        <ele>337.6</ele>
        <time>2021-03-21T15:21:47Z</time>
      </trkpt>
      <trkpt lat="43.9499" lon="1.95961">
        <ele>337.8</ele>
        <time>2021-03-21T15:21:48Z</time>
      </trkpt>
      <trkpt lat="43.94988" lon="1.95961">
        <ele>338</ele>
        <time>2021-03-21T15:21:49Z</time>
      </trkpt>
      <trkpt lat="43.94987" lon="1.9596">
        <ele>338</ele>
        <time>2021-03-21T15:21:50Z</time>
      </trkpt>
      <trkpt lat="43.94985" lon="1.95959">
        <ele>338.2</ele>
        <time>2021-03-21T15:21:51Z</time>
      </trkpt>
      <trkpt lat="43.94984" lon="1.95958">
        <ele>338</ele>
        <time>2021-03-21T15:21:52Z</time>
      </trkpt>
      <trkpt lat="43.94983" lon="1.95956">
        <ele>338.2</ele>
        <time>2021-03-21T15:21:53Z</time>
      </trkpt>
      <trkpt lat="43.94981" lon="1.95955">
        <ele>338.4</ele>
        <time>2021-03-21T15:21:54Z</time>
      </trkpt>
      <trkpt lat="43.9498" lon="1.95954">
        <ele>338.2</ele>
        <time>2021-03-21T15:21:55Z</time>
      </trkpt>
      <trkpt lat="43.94978" lon="1.95952">
        <ele>338.2</ele>
        <time>2021-03-21T15:21:56Z</time>
      </trkpt>
      <trkpt lat="43.94977" lon="1.9595">
        <ele>338.2</ele>
        <time>2021-03-21T15:21:57Z</time>
      </trkpt>
      <trkpt lat="43.94976" lon="1.95949">
        <ele>338.4</ele>
        <time>2021-03-21T15:21:58Z</time>
      </trkpt>
      <trkpt lat="43.94974" lon="1.95948">
        <ele>338.6</ele>
        <time>2021-03-21T15:21:59Z</time>
      </trkpt>
      <trkpt lat="43.94972" lon="1.95946">
        <ele>338.6</ele>
        <time>2021-03-21T15:22:00Z</time>
      </trkpt>
      <trkpt lat="43.9497" lon="1.95944">
        <ele>338.6</ele>
        <time>2021-03-21T15:22:01Z</time>
      </trkpt>
      <trkpt lat="43.94966" lon="1.9594">
        <ele>338.6</ele>
        <time>2021-03-21T15:22:03Z</time>
      </trkpt>
      <trkpt lat="43.94964" lon="1.95938">
        <ele>338.6</ele>
        <time>2021-03-21T15:22:04Z</time>
      </trkpt>
      <trkpt lat="43.94962" lon="1.95935">
        <ele>338.4</ele>
        <time>2021-03-21T15:22:05Z</time>
      </trkpt>
      <trkpt lat="43.9496" lon="1.95933">
        <ele>338.6</ele>
        <time>2021-03-21T15:22:06Z</time>
      </trkpt>
      <trkpt lat="43.94958" lon="1.95931">
        <ele>338.6</ele>
        <time>2021-03-21T15:22:07Z</time>
      </trkpt>
      <trkpt lat="43.94956" lon="1.95929">
        <ele>338.6</ele>
        <time>2021-03-21T15:22:08Z</time>
      </trkpt>
      <trkpt lat="43.94955" lon="1.95926">
        <ele>338.6</ele>
        <time>2021-03-21T15:22:09Z</time>
      </trkpt>
      <trkpt lat="43.94953" lon="1.95925">
        <ele>338.6</ele>
        <time>2021-03-21T15:22:10Z</time>
      </trkpt>
      <trkpt lat="43.94951" lon="1.95923">
        <ele>338.6</ele>
        <time>2021-03-21T15:22:11Z</time>
      </trkpt>
      <trkpt lat="43.9495" lon="1.9592">
        <ele>338.8</ele>
        <time>2021-03-21T15:22:12Z</time>
      </trkpt>
      <trkpt lat="43.94948" lon="1.95918">
        <ele>338.6</ele>
        <time>2021-03-21T15:22:13Z</time>
      </trkpt>
      <trkpt lat="43.94947" lon="1.95916">
        <ele>338.6</ele>
        <time>2021-03-21T15:22:14Z</time>
      </trkpt>
      <trkpt lat="43.94945" lon="1.95914">
        <ele>338.6</ele>
        <time>2021-03-21T15:22:15Z</time>
      </trkpt>
      <trkpt lat="43.94944" lon="1.95912">
        <ele>338.6</ele>
        <time>2021-03-21T15:22:16Z</time>
      </trkpt>
      <trkpt lat="43.94942" lon="1.95909">
        <ele>338.6</ele>
        <time>2021-03-21T15:22:17Z</time>
      </trkpt>
      <trkpt lat="43.9494" lon="1.95907">
        <ele>338.6</ele>
        <time>2021-03-21T15:22:18Z</time>
      </trkpt>
      <trkpt lat="43.94938" lon="1.95905">
        <ele>338.6</ele>
        <time>2021-03-21T15:22:19Z</time>
      </trkpt>
      <trkpt lat="43.94936" lon="1.95902">
        <ele>338.6</ele>
        <time>2021-03-21T15:22:20Z</time>
      </trkpt>
      <trkpt lat="43.94934" lon="1.95899">
        <ele>338.6</ele>
        <time>2021-03-21T15:22:21Z</time>
      </trkpt>
      <trkpt lat="43.94932" lon="1.95897">
        <ele>338.4</ele>
        <time>2021-03-21T15:22:22Z</time>
      </trkpt>
      <trkpt lat="43.9493" lon="1.95895">
        <ele>338.4</ele>
        <time>2021-03-21T15:22:23Z</time>
      </trkpt>
      <trkpt lat="43.94929" lon="1.95892">
        <ele>338.4</ele>
        <time>2021-03-21T15:22:24Z</time>
      </trkpt>
      <trkpt lat="43.94928" lon="1.9589">
        <ele>338.4</ele>
        <time>2021-03-21T15:22:25Z</time>
      </trkpt>
      <trkpt lat="43.94927" lon="1.95888">
        <ele>338.4</ele>
        <time>2021-03-21T15:22:26Z</time>
      </trkpt>
      <trkpt lat="43.94927" lon="1.95888">
        <ele>338.4</ele>
        <time>2021-03-21T15:22:27Z</time>
      </trkpt>
      <trkpt lat="43.94927" lon="1.95888">
        <ele>338.4</ele>
        <time>2021-03-21T15:22:28Z</time>
      </trkpt>
      <trkpt lat="43.94923" lon="1.95886">
        <ele>337.6</ele>
        <time>2021-03-21T15:26:32Z</time>
      </trkpt>
      <trkpt lat="43.94924" lon="1.95887">
        <ele>337.6</ele>
        <time>2021-03-21T15:26:33Z</time>
      </trkpt>
      <trkpt lat="43.94927" lon="1.95889">
        <ele>337.8</ele>
        <time>2021-03-21T15:26:35Z</time>
      </trkpt>
      <trkpt lat="43.94929" lon="1.9589">
        <ele>337.6</ele>
        <time>2021-03-21T15:26:36Z</time>
      </trkpt>
      <trkpt lat="43.94931" lon="1.95892">
        <ele>337.6</ele>
        <time>2021-03-21T15:26:37Z</time>
      </trkpt>
      <trkpt lat="43.94933" lon="1.95894">
        <ele>337.6</ele>
        <time>2021-03-21T15:26:38Z</time>
      </trkpt>
      <trkpt lat="43.94936" lon="1.95898">
        <ele>337.6</ele>
        <time>2021-03-21T15:26:40Z</time>
      </trkpt>
      <trkpt lat="43.94938" lon="1.959">
        <ele>337.6</ele>
        <time>2021-03-21T15:26:41Z</time>
      </trkpt>
      <trkpt lat="43.9494" lon="1.95903">
        <ele>337.8</ele>
        <time>2021-03-21T15:26:42Z</time>
      </trkpt>
      <trkpt lat="43.94941" lon="1.95906">
        <ele>337.8</ele>
        <time>2021-03-21T15:26:43Z</time>
      </trkpt>
      <trkpt lat="43.94943" lon="1.95908">
        <ele>337.8</ele>
        <time>2021-03-21T15:26:44Z</time>
      </trkpt>
      <trkpt lat="43.94945" lon="1.9591">
        <ele>338</ele>
        <time>2021-03-21T15:26:45Z</time>
      </trkpt>
      <trkpt lat="43.94947" lon="1.95912">
        <ele>338</ele>
        <time>2021-03-21T15:26:46Z</time>
      </trkpt>
      <trkpt lat="43.94948" lon="1.95914">
        <ele>338</ele>
        <time>2021-03-21T15:26:47Z</time>
      </trkpt>
      <trkpt lat="43.9495" lon="1.95917">
        <ele>338.2</ele>
        <time>2021-03-21T15:26:48Z</time>
      </trkpt>
      <trkpt lat="43.94952" lon="1.9592">
        <ele>338.4</ele>
        <time>2021-03-21T15:26:49Z</time>
      </trkpt>
      <trkpt lat="43.94954" lon="1.95922">
        <ele>338.6</ele>
        <time>2021-03-21T15:26:50Z</time>
      </trkpt>
      <trkpt lat="43.94956" lon="1.95924">
        <ele>338.8</ele>
        <time>2021-03-21T15:26:51Z</time>
      </trkpt>
      <trkpt lat="43.94958" lon="1.95927">
        <ele>338.8</ele>
        <time>2021-03-21T15:26:52Z</time>
      </trkpt>
      <trkpt lat="43.9496" lon="1.9593">
        <ele>339</ele>
        <time>2021-03-21T15:26:53Z</time>
      </trkpt>
      <trkpt lat="43.94962" lon="1.95933">
        <ele>339.2</ele>
        <time>2021-03-21T15:26:54Z</time>
      </trkpt>
      <trkpt lat="43.94964" lon="1.95936">
        <ele>339.2</ele>
        <time>2021-03-21T15:26:55Z</time>
      </trkpt>
      <trkpt lat="43.94966" lon="1.95939">
        <ele>339.2</ele>
        <time>2021-03-21T15:26:56Z</time>
      </trkpt>
      <trkpt lat="43.94968" lon="1.95941">
        <ele>339.4</ele>
        <time>2021-03-21T15:26:57Z</time>
      </trkpt>
      <trkpt lat="43.9497" lon="1.95944">
        <ele>339.4</ele>
        <time>2021-03-21T15:26:58Z</time>
      </trkpt>
      <trkpt lat="43.94973" lon="1.95946">
        <ele>339.6</ele>
        <time>2021-03-21T15:26:59Z</time>
      </trkpt>
      <trkpt lat="43.94975" lon="1.95949">
        <ele>339.6</ele>
        <time>2021-03-21T15:27:00Z</time>
      </trkpt>
      <trkpt lat="43.94978" lon="1.95952">
        <ele>339.8</ele>
        <time>2021-03-21T15:27:01Z</time>
      </trkpt>
      <trkpt lat="43.9498" lon="1.95955">
        <ele>339.8</ele>
        <time>2021-03-21T15:27:02Z</time>
      </trkpt>
      <trkpt lat="43.94985" lon="1.95961">
        <ele>339.8</ele>
        <time>2021-03-21T15:27:04Z</time>
      </trkpt>
      <trkpt lat="43.94987" lon="1.95965">
        <ele>339.8</ele>
        <time>2021-03-21T15:27:05Z</time>
      </trkpt>
      <trkpt lat="43.94989" lon="1.95968">
        <ele>339.8</ele>
        <time>2021-03-21T15:27:06Z</time>
      </trkpt>
      <trkpt lat="43.94991" lon="1.95973">
        <ele>339.6</ele>
        <time>2021-03-21T15:27:07Z</time>
      </trkpt>
      <trkpt lat="43.94991" lon="1.95977">
        <ele>339.8</ele>
        <time>2021-03-21T15:27:08Z</time>
      </trkpt>
      <trkpt lat="43.94991" lon="1.95982">
        <ele>339.8</ele>
        <time>2021-03-21T15:27:09Z</time>
      </trkpt>
      <trkpt lat="43.9499" lon="1.95988">
        <ele>339.8</ele>
        <time>2021-03-21T15:27:10Z</time>
      </trkpt>
      <trkpt lat="43.94989" lon="1.95992">
        <ele>339.8</ele>
        <time>2021-03-21T15:27:11Z</time>
      </trkpt>
      <trkpt lat="43.94988" lon="1.95997">
        <ele>339.6</ele>
        <time>2021-03-21T15:27:12Z</time>
      </trkpt>
      <trkpt lat="43.94987" lon="1.96003">
        <ele>339.6</ele>
        <time>2021-03-21T15:27:13Z</time>
      </trkpt>
      <trkpt lat="43.94986" lon="1.96008">
        <ele>339.8</ele>
        <time>2021-03-21T15:27:14Z</time>
      </trkpt>
      <trkpt lat="43.94984" lon="1.96013">
        <ele>339.8</ele>
        <time>2021-03-21T15:27:15Z</time>
      </trkpt>
      <trkpt lat="43.94983" lon="1.96018">
        <ele>339.6</ele>
        <time>2021-03-21T15:27:16Z</time>
      </trkpt>
      <trkpt lat="43.94982" lon="1.96023">
        <ele>339.8</ele>
        <time>2021-03-21T15:27:17Z</time>
      </trkpt>
      <trkpt lat="43.94981" lon="1.96028">
        <ele>339.6</ele>
        <time>2021-03-21T15:27:18Z</time>
      </trkpt>
      <trkpt lat="43.94979" lon="1.96033">
        <ele>339.6</ele>
        <time>2021-03-21T15:27:19Z</time>
      </trkpt>
      <trkpt lat="43.94978" lon="1.96037">
        <ele>339.6</ele>
        <time>2021-03-21T15:27:20Z</time>
      </trkpt>
      <trkpt lat="43.94976" lon="1.96042">
        <ele>339.6</ele>
        <time>2021-03-21T15:27:21Z</time>
      </trkpt>
      <trkpt lat="43.94974" lon="1.96046">
        <ele>339.6</ele>
        <time>2021-03-21T15:27:22Z</time>
      </trkpt>
      <trkpt lat="43.94972" lon="1.9605">
        <ele>339.6</ele>
        <time>2021-03-21T15:27:23Z</time>
      </trkpt>
      <trkpt lat="43.9497" lon="1.96053">
        <ele>339.8</ele>
        <time>2021-03-21T15:27:24Z</time>
      </trkpt>
      <trkpt lat="43.94968" lon="1.96056">
        <ele>339.8</ele>
        <time>2021-03-21T15:27:25Z</time>
      </trkpt>
      <trkpt lat="43.94965" lon="1.9606">
        <ele>340</ele>
        <time>2021-03-21T15:27:26Z</time>
      </trkpt>
      <trkpt lat="43.94963" lon="1.96063">
        <ele>340</ele>
        <time>2021-03-21T15:27:27Z</time>
      </trkpt>
      <trkpt lat="43.94961" lon="1.96067">
        <ele>340</ele>
        <time>2021-03-21T15:27:28Z</time>
      </trkpt>
      <trkpt lat="43.94958" lon="1.9607">
        <ele>340.2</ele>
        <time>2021-03-21T15:27:29Z</time>
      </trkpt>
      <trkpt lat="43.94956" lon="1.96074">
        <ele>340.4</ele>
        <time>2021-03-21T15:27:30Z</time>
      </trkpt>
      <trkpt lat="43.94954" lon="1.96077">
        <ele>340.8</ele>
        <time>2021-03-21T15:27:31Z</time>
      </trkpt>
      <trkpt lat="43.94952" lon="1.9608">
        <ele>340.8</ele>
        <time>2021-03-21T15:27:32Z</time>
      </trkpt>
      <trkpt lat="43.9495" lon="1.96083">
        <ele>341</ele>
        <time>2021-03-21T15:27:33Z</time>
      </trkpt>
      <trkpt lat="43.94948" lon="1.96086">
        <ele>341</ele>
        <time>2021-03-21T15:27:34Z</time>
      </trkpt>
      <trkpt lat="43.94947" lon="1.96088">
        <ele>341.2</ele>
        <time>2021-03-21T15:27:35Z</time>
      </trkpt>
      <trkpt lat="43.94946" lon="1.9609">
        <ele>341.2</ele>
        <time>2021-03-21T15:27:36Z</time>
      </trkpt>
      <trkpt lat="43.94945" lon="1.96092">
        <ele>341.4</ele>
        <time>2021-03-21T15:27:37Z</time>
      </trkpt>
      <trkpt lat="43.94945" lon="1.96092">
        <ele>341.4</ele>
        <time>2021-03-21T15:27:38Z</time>
      </trkpt>
      <trkpt lat="43.94945" lon="1.96093">
        <ele>341.4</ele>
        <time>2021-03-21T15:27:39Z</time>
      </trkpt>
      <trkpt lat="43.9494" lon="1.9609">
        <ele>342.8</ele>
        <time>2021-03-21T15:27:52Z</time>
      </trkpt>
      <trkpt lat="43.94939" lon="1.96088">
        <ele>343</ele>
        <time>2021-03-21T15:27:53Z</time>
      </trkpt>
      <trkpt lat="43.94938" lon="1.96085">
        <ele>342.8</ele>
        <time>2021-03-21T15:27:54Z</time>
      </trkpt>
      <trkpt lat="43.94937" lon="1.96083">
        <ele>342.8</ele>
        <time>2021-03-21T15:27:55Z</time>
      </trkpt>
      <trkpt lat="43.94935" lon="1.9608">
        <ele>343</ele>
        <time>2021-03-21T15:27:56Z</time>
      </trkpt>
      <trkpt lat="43.94934" lon="1.96077">
        <ele>342.8</ele>
        <time>2021-03-21T15:27:57Z</time>
      </trkpt>
      <trkpt lat="43.9493" lon="1.96071">
        <ele>342.8</ele>
        <time>2021-03-21T15:27:59Z</time>
      </trkpt>
      <trkpt lat="43.94929" lon="1.96068">
        <ele>342.4</ele>
        <time>2021-03-21T15:28:00Z</time>
      </trkpt>
      <trkpt lat="43.94925" lon="1.96062">
        <ele>342</ele>
        <time>2021-03-21T15:28:02Z</time>
      </trkpt>
      <trkpt lat="43.94923" lon="1.96059">
        <ele>342</ele>
        <time>2021-03-21T15:28:03Z</time>
      </trkpt>
      <trkpt lat="43.94921" lon="1.96056">
        <ele>341.8</ele>
        <time>2021-03-21T15:28:04Z</time>
      </trkpt>
      <trkpt lat="43.9492" lon="1.96053">
        <ele>341.8</ele>
        <time>2021-03-21T15:28:05Z</time>
      </trkpt>
      <trkpt lat="43.94916" lon="1.96048">
        <ele>341.8</ele>
        <time>2021-03-21T15:28:07Z</time>
      </trkpt>
      <trkpt lat="43.94914" lon="1.96047">
        <ele>341.6</ele>
        <time>2021-03-21T15:28:08Z</time>
      </trkpt>
      <trkpt lat="43.94911" lon="1.96047">
        <ele>341.6</ele>
        <time>2021-03-21T15:28:09Z</time>
      </trkpt>
      <trkpt lat="43.94909" lon="1.96048">
        <ele>341.6</ele>
        <time>2021-03-21T15:28:10Z</time>
      </trkpt>
      <trkpt lat="43.94906" lon="1.9605">
        <ele>341.6</ele>
        <time>2021-03-21T15:28:11Z</time>
      </trkpt>
      <trkpt lat="43.94904" lon="1.96053">
        <ele>341.6</ele>
        <time>2021-03-21T15:28:12Z</time>
      </trkpt>
      <trkpt lat="43.94902" lon="1.96055">
        <ele>341.6</ele>
        <time>2021-03-21T15:28:13Z</time>
      </trkpt>
      <trkpt lat="43.949" lon="1.96058">
        <ele>341.8</ele>
        <time>2021-03-21T15:28:14Z</time>
      </trkpt>
      <trkpt lat="43.94897" lon="1.96061">
        <ele>341.8</ele>
        <time>2021-03-21T15:28:15Z</time>
      </trkpt>
      <trkpt lat="43.94892" lon="1.96065">
        <ele>342.2</ele>
        <time>2021-03-21T15:28:17Z</time>
      </trkpt>
      <trkpt lat="43.9489" lon="1.96068">
        <ele>342.4</ele>
        <time>2021-03-21T15:28:18Z</time>
      </trkpt>
      <trkpt lat="43.94887" lon="1.96071">
        <ele>342.6</ele>
        <time>2021-03-21T15:28:19Z</time>
      </trkpt>
      <trkpt lat="43.94884" lon="1.96074">
        <ele>342.8</ele>
        <time>2021-03-21T15:28:20Z</time>
      </trkpt>
      <trkpt lat="43.94882" lon="1.96077">
        <ele>342.8</ele>
        <time>2021-03-21T15:28:21Z</time>
      </trkpt>
      <trkpt lat="43.94879" lon="1.96079">
        <ele>342.8</ele>
        <time>2021-03-21T15:28:22Z</time>
      </trkpt>
      <trkpt lat="43.94876" lon="1.96082">
        <ele>342.8</ele>
        <time>2021-03-21T15:28:23Z</time>
      </trkpt>
      <trkpt lat="43.94874" lon="1.96084">
        <ele>342.8</ele>
        <time>2021-03-21T15:28:24Z</time>
      </trkpt>
      <trkpt lat="43.94872" lon="1.96087">
        <ele>343</ele>
        <time>2021-03-21T15:28:25Z</time>
      </trkpt>
      <trkpt lat="43.9487" lon="1.96089">
        <ele>342.8</ele>
        <time>2021-03-21T15:28:26Z</time>
      </trkpt>
      <trkpt lat="43.94869" lon="1.9609">
        <ele>343</ele>
        <time>2021-03-21T15:28:27Z</time>
      </trkpt>
      <trkpt lat="43.94867" lon="1.96091">
        <ele>342.8</ele>
        <time>2021-03-21T15:28:28Z</time>
      </trkpt>
      <trkpt lat="43.94866" lon="1.96092">
        <ele>342.8</ele>
        <time>2021-03-21T15:28:29Z</time>
      </trkpt>
      <trkpt lat="43.94865" lon="1.96092">
        <ele>342.6</ele>
        <time>2021-03-21T15:28:30Z</time>
      </trkpt>
      <trkpt lat="43.94864" lon="1.96093">
        <ele>342.6</ele>
        <time>2021-03-21T15:28:31Z</time>
      </trkpt>
      <trkpt lat="43.94864" lon="1.96094">
        <ele>342.6</ele>
        <time>2021-03-21T15:28:33Z</time>
      </trkpt>
      <trkpt lat="43.94868" lon="1.96104">
        <ele>342.4</ele>
        <time>2021-03-21T15:28:46Z</time>
      </trkpt>
      <trkpt lat="43.94867" lon="1.96105">
        <ele>342.6</ele>
        <time>2021-03-21T15:28:47Z</time>
      </trkpt>
      <trkpt lat="43.94862" lon="1.96103">
        <ele>342.4</ele>
        <time>2021-03-21T15:28:49Z</time>
      </trkpt>
      <trkpt lat="43.9486" lon="1.961">
        <ele>342.4</ele>
        <time>2021-03-21T15:28:50Z</time>
      </trkpt>
      <trkpt lat="43.94857" lon="1.96097">
        <ele>342.4</ele>
        <time>2021-03-21T15:28:51Z</time>
      </trkpt>
      <trkpt lat="43.94855" lon="1.96093">
        <ele>342.4</ele>
        <time>2021-03-21T15:28:52Z</time>
      </trkpt>
      <trkpt lat="43.94851" lon="1.96089">
        <ele>342.6</ele>
        <time>2021-03-21T15:28:53Z</time>
      </trkpt>
      <trkpt lat="43.94848" lon="1.96084">
        <ele>342.4</ele>
        <time>2021-03-21T15:28:54Z</time>
      </trkpt>
      <trkpt lat="43.94844" lon="1.9608">
        <ele>342</ele>
        <time>2021-03-21T15:28:55Z</time>
      </trkpt>
      <trkpt lat="43.94841" lon="1.96077">
        <ele>341.6</ele>
        <time>2021-03-21T15:28:56Z</time>
      </trkpt>
      <trkpt lat="43.94838" lon="1.96076">
        <ele>341.2</ele>
        <time>2021-03-21T15:28:57Z</time>
      </trkpt>
      <trkpt lat="43.94834" lon="1.96077">
        <ele>341</ele>
        <time>2021-03-21T15:28:58Z</time>
      </trkpt>
      <trkpt lat="43.9483" lon="1.96079">
        <ele>340.2</ele>
        <time>2021-03-21T15:28:59Z</time>
      </trkpt>
      <trkpt lat="43.94825" lon="1.96081">
        <ele>339.8</ele>
        <time>2021-03-21T15:29:00Z</time>
      </trkpt>
      <trkpt lat="43.94821" lon="1.96084">
        <ele>339.4</ele>
        <time>2021-03-21T15:29:01Z</time>
      </trkpt>
      <trkpt lat="43.94817" lon="1.96088">
        <ele>338.6</ele>
        <time>2021-03-21T15:29:02Z</time>
      </trkpt>
      <trkpt lat="43.94813" lon="1.96091">
        <ele>338</ele>
        <time>2021-03-21T15:29:03Z</time>
      </trkpt>
      <trkpt lat="43.94809" lon="1.96094">
        <ele>337.2</ele>
        <time>2021-03-21T15:29:04Z</time>
      </trkpt>
      <trkpt lat="43.94807" lon="1.96097">
        <ele>336.6</ele>
        <time>2021-03-21T15:29:05Z</time>
      </trkpt>
      <trkpt lat="43.94806" lon="1.96101">
        <ele>336.2</ele>
        <time>2021-03-21T15:29:06Z</time>
      </trkpt>
      <trkpt lat="43.94806" lon="1.96105">
        <ele>335.6</ele>
        <time>2021-03-21T15:29:07Z</time>
      </trkpt>
      <trkpt lat="43.94806" lon="1.96108">
        <ele>335</ele>
        <time>2021-03-21T15:29:08Z</time>
      </trkpt>
      <trkpt lat="43.94807" lon="1.96112">
        <ele>334.2</ele>
        <time>2021-03-21T15:29:09Z</time>
      </trkpt>
      <trkpt lat="43.94809" lon="1.96115">
        <ele>334.2</ele>
        <time>2021-03-21T15:29:10Z</time>
      </trkpt>
      <trkpt lat="43.94811" lon="1.96119">
        <ele>333.6</ele>
        <time>2021-03-21T15:29:11Z</time>
      </trkpt>
      <trkpt lat="43.94813" lon="1.96122">
        <ele>333.2</ele>
        <time>2021-03-21T15:29:12Z</time>
      </trkpt>
      <trkpt lat="43.94814" lon="1.96126">
        <ele>333</ele>
        <time>2021-03-21T15:29:13Z</time>
      </trkpt>
      <trkpt lat="43.94816" lon="1.96129">
        <ele>332.8</ele>
        <time>2021-03-21T15:29:14Z</time>
      </trkpt>
      <trkpt lat="43.94817" lon="1.96133">
        <ele>332.8</ele>
        <time>2021-03-21T15:29:15Z</time>
      </trkpt>
      <trkpt lat="43.94818" lon="1.96137">
        <ele>332.8</ele>
        <time>2021-03-21T15:29:16Z</time>
      </trkpt>
      <trkpt lat="43.94818" lon="1.9614">
        <ele>332.8</ele>
        <time>2021-03-21T15:29:17Z</time>
      </trkpt>
      <trkpt lat="43.94817" lon="1.96143">
        <ele>332.6</ele>
        <time>2021-03-21T15:29:18Z</time>
      </trkpt>
      <trkpt lat="43.94816" lon="1.96146">
        <ele>332.8</ele>
        <time>2021-03-21T15:29:19Z</time>
      </trkpt>
      <trkpt lat="43.94815" lon="1.9615">
        <ele>332.8</ele>
        <time>2021-03-21T15:29:20Z</time>
      </trkpt>
      <trkpt lat="43.94814" lon="1.96153">
        <ele>332.8</ele>
        <time>2021-03-21T15:29:21Z</time>
      </trkpt>
      <trkpt lat="43.94813" lon="1.96156">
        <ele>333</ele>
        <time>2021-03-21T15:29:22Z</time>
      </trkpt>
      <trkpt lat="43.94812" lon="1.96159">
        <ele>333.4</ele>
        <time>2021-03-21T15:29:23Z</time>
      </trkpt>
      <trkpt lat="43.94812" lon="1.96163">
        <ele>333.8</ele>
        <time>2021-03-21T15:29:24Z</time>
      </trkpt>
      <trkpt lat="43.94813" lon="1.96166">
        <ele>334</ele>
        <time>2021-03-21T15:29:25Z</time>
      </trkpt>
      <trkpt lat="43.94813" lon="1.96168">
        <ele>334</ele>
        <time>2021-03-21T15:29:26Z</time>
      </trkpt>
      <trkpt lat="43.94814" lon="1.96171">
        <ele>334.6</ele>
        <time>2021-03-21T15:29:27Z</time>
      </trkpt>
      <trkpt lat="43.94813" lon="1.96174">
        <ele>334.4</ele>
        <time>2021-03-21T15:29:28Z</time>
      </trkpt>
      <trkpt lat="43.94812" lon="1.96176">
        <ele>334.6</ele>
        <time>2021-03-21T15:29:29Z</time>
      </trkpt>
      <trkpt lat="43.9481" lon="1.96177">
        <ele>334.6</ele>
        <time>2021-03-21T15:29:30Z</time>
      </trkpt>
      <trkpt lat="43.94807" lon="1.96176">
        <ele>334.6</ele>
        <time>2021-03-21T15:29:31Z</time>
      </trkpt>
      <trkpt lat="43.94804" lon="1.96173">
        <ele>334.6</ele>
        <time>2021-03-21T15:29:32Z</time>
      </trkpt>
      <trkpt lat="43.94801" lon="1.96169">
        <ele>334.6</ele>
        <time>2021-03-21T15:29:33Z</time>
      </trkpt>
      <trkpt lat="43.94798" lon="1.96164">
        <ele>334.8</ele>
        <time>2021-03-21T15:29:34Z</time>
      </trkpt>
      <trkpt lat="43.94795" lon="1.96159">
        <ele>334.6</ele>
        <time>2021-03-21T15:29:35Z</time>
      </trkpt>
      <trkpt lat="43.94792" lon="1.96155">
        <ele>334.8</ele>
        <time>2021-03-21T15:29:36Z</time>
      </trkpt>
      <trkpt lat="43.94788" lon="1.96151">
        <ele>334.6</ele>
        <time>2021-03-21T15:29:37Z</time>
      </trkpt>
      <trkpt lat="43.94784" lon="1.96149">
        <ele>334.6</ele>
        <time>2021-03-21T15:29:38Z</time>
      </trkpt>
      <trkpt lat="43.94781" lon="1.9615">
        <ele>334.6</ele>
        <time>2021-03-21T15:29:39Z</time>
      </trkpt>
      <trkpt lat="43.94777" lon="1.96152">
        <ele>333.8</ele>
        <time>2021-03-21T15:29:40Z</time>
      </trkpt>
      <trkpt lat="43.94774" lon="1.96155">
        <ele>333.2</ele>
        <time>2021-03-21T15:29:41Z</time>
      </trkpt>
      <trkpt lat="43.94772" lon="1.96159">
        <ele>331.8</ele>
        <time>2021-03-21T15:29:42Z</time>
      </trkpt>
      <trkpt lat="43.94769" lon="1.96163">
        <ele>330.8</ele>
        <time>2021-03-21T15:29:43Z</time>
      </trkpt>
      <trkpt lat="43.94767" lon="1.96167">
        <ele>330.4</ele>
        <time>2021-03-21T15:29:44Z</time>
      </trkpt>
      <trkpt lat="43.94764" lon="1.96171">
        <ele>330</ele>
        <time>2021-03-21T15:29:45Z</time>
      </trkpt>
      <trkpt lat="43.94762" lon="1.96174">
        <ele>329.8</ele>
        <time>2021-03-21T15:29:46Z</time>
      </trkpt>
      <trkpt lat="43.94759" lon="1.96178">
        <ele>329.6</ele>
        <time>2021-03-21T15:29:47Z</time>
      </trkpt>
      <trkpt lat="43.94756" lon="1.96181">
        <ele>329.6</ele>
        <time>2021-03-21T15:29:48Z</time>
      </trkpt>
      <trkpt lat="43.94754" lon="1.96185">
        <ele>329.6</ele>
        <time>2021-03-21T15:29:49Z</time>
      </trkpt>
      <trkpt lat="43.94752" lon="1.96188">
        <ele>329.6</ele>
        <time>2021-03-21T15:29:50Z</time>
      </trkpt>
      <trkpt lat="43.94749" lon="1.96192">
        <ele>329.6</ele>
        <time>2021-03-21T15:29:51Z</time>
      </trkpt>
      <trkpt lat="43.94747" lon="1.96196">
        <ele>329.4</ele>
        <time>2021-03-21T15:29:52Z</time>
      </trkpt>
      <trkpt lat="43.94745" lon="1.96199">
        <ele>329.6</ele>
        <time>2021-03-21T15:29:53Z</time>
      </trkpt>
      <trkpt lat="43.94744" lon="1.96203">
        <ele>329.4</ele>
        <time>2021-03-21T15:29:54Z</time>
      </trkpt>
      <trkpt lat="43.94742" lon="1.96205">
        <ele>329.6</ele>
        <time>2021-03-21T15:29:55Z</time>
      </trkpt>
      <trkpt lat="43.9474" lon="1.96207">
        <ele>329.4</ele>
        <time>2021-03-21T15:29:56Z</time>
      </trkpt>
      <trkpt lat="43.94738" lon="1.96208">
        <ele>329.6</ele>
        <time>2021-03-21T15:29:57Z</time>
      </trkpt>
      <trkpt lat="43.94737" lon="1.96209">
        <ele>329.8</ele>
        <time>2021-03-21T15:29:58Z</time>
      </trkpt>
      <trkpt lat="43.94736" lon="1.96211">
        <ele>329.8</ele>
        <time>2021-03-21T15:29:59Z</time>
      </trkpt>
      <trkpt lat="43.94735" lon="1.96214">
        <ele>329.8</ele>
        <time>2021-03-21T15:30:00Z</time>
      </trkpt>
      <trkpt lat="43.94733" lon="1.96218">
        <ele>329.8</ele>
        <time>2021-03-21T15:30:01Z</time>
      </trkpt>
      <trkpt lat="43.94731" lon="1.96221">
        <ele>329.8</ele>
        <time>2021-03-21T15:30:02Z</time>
      </trkpt>
      <trkpt lat="43.94728" lon="1.96225">
        <ele>329.8</ele>
        <time>2021-03-21T15:30:03Z</time>
      </trkpt>
      <trkpt lat="43.94726" lon="1.96228">
        <ele>329.8</ele>
        <time>2021-03-21T15:30:04Z</time>
      </trkpt>
      <trkpt lat="43.94723" lon="1.96231">
        <ele>329.8</ele>
        <time>2021-03-21T15:30:05Z</time>
      </trkpt>
      <trkpt lat="43.9472" lon="1.96234">
        <ele>329.8</ele>
        <time>2021-03-21T15:30:06Z</time>
      </trkpt>
      <trkpt lat="43.94715" lon="1.96241">
        <ele>329.8</ele>
        <time>2021-03-21T15:30:08Z</time>
      </trkpt>
      <trkpt lat="43.94712" lon="1.96244">
        <ele>330</ele>
        <time>2021-03-21T15:30:09Z</time>
      </trkpt>
      <trkpt lat="43.94709" lon="1.96248">
        <ele>330</ele>
        <time>2021-03-21T15:30:10Z</time>
      </trkpt>
      <trkpt lat="43.94706" lon="1.96251">
        <ele>329.8</ele>
        <time>2021-03-21T15:30:11Z</time>
      </trkpt>
      <trkpt lat="43.94699" lon="1.96258">
        <ele>329.8</ele>
        <time>2021-03-21T15:30:13Z</time>
      </trkpt>
      <trkpt lat="43.94696" lon="1.96262">
        <ele>329.6</ele>
        <time>2021-03-21T15:30:14Z</time>
      </trkpt>
      <trkpt lat="43.94693" lon="1.96265">
        <ele>329.6</ele>
        <time>2021-03-21T15:30:15Z</time>
      </trkpt>
      <trkpt lat="43.9469" lon="1.96268">
        <ele>329.6</ele>
        <time>2021-03-21T15:30:16Z</time>
      </trkpt>
      <trkpt lat="43.94687" lon="1.96271">
        <ele>329.6</ele>
        <time>2021-03-21T15:30:17Z</time>
      </trkpt>
      <trkpt lat="43.94684" lon="1.96274">
        <ele>329.4</ele>
        <time>2021-03-21T15:30:18Z</time>
      </trkpt>
      <trkpt lat="43.94681" lon="1.96277">
        <ele>329.6</ele>
        <time>2021-03-21T15:30:19Z</time>
      </trkpt>
      <trkpt lat="43.94678" lon="1.96279">
        <ele>329.6</ele>
        <time>2021-03-21T15:30:20Z</time>
      </trkpt>
      <trkpt lat="43.94677" lon="1.9628">
        <ele>329.4</ele>
        <time>2021-03-21T15:30:21Z</time>
      </trkpt>
      <trkpt lat="43.94675" lon="1.96281">
        <ele>329.2</ele>
        <time>2021-03-21T15:30:22Z</time>
      </trkpt>
      <trkpt lat="43.94674" lon="1.9628">
        <ele>329.2</ele>
        <time>2021-03-21T15:30:23Z</time>
      </trkpt>
      <trkpt lat="43.94673" lon="1.9628">
        <ele>329.2</ele>
        <time>2021-03-21T15:30:24Z</time>
      </trkpt>
      <trkpt lat="43.94673" lon="1.9628">
        <ele>329.2</ele>
        <time>2021-03-21T15:30:25Z</time>
      </trkpt>
      <trkpt lat="43.94673" lon="1.9628">
        <ele>329</ele>
        <time>2021-03-21T15:30:26Z</time>
      </trkpt>
      <trkpt lat="43.94671" lon="1.96274">
        <ele>328.4</ele>
        <time>2021-03-21T15:31:08Z</time>
      </trkpt>
      <trkpt lat="43.94669" lon="1.96271">
        <ele>328.2</ele>
        <time>2021-03-21T15:31:09Z</time>
      </trkpt>
      <trkpt lat="43.94668" lon="1.96268">
        <ele>328.2</ele>
        <time>2021-03-21T15:31:10Z</time>
      </trkpt>
      <trkpt lat="43.94664" lon="1.96263">
        <ele>328.2</ele>
        <time>2021-03-21T15:31:12Z</time>
      </trkpt>
      <trkpt lat="43.94662" lon="1.9626">
        <ele>328.2</ele>
        <time>2021-03-21T15:31:13Z</time>
      </trkpt>
      <trkpt lat="43.94657" lon="1.96254">
        <ele>328</ele>
        <time>2021-03-21T15:31:15Z</time>
      </trkpt>
      <trkpt lat="43.94653" lon="1.9625">
        <ele>328.2</ele>
        <time>2021-03-21T15:31:16Z</time>
      </trkpt>
      <trkpt lat="43.94649" lon="1.96245">
        <ele>328.2</ele>
        <time>2021-03-21T15:31:17Z</time>
      </trkpt>
      <trkpt lat="43.94645" lon="1.9624">
        <ele>327.6</ele>
        <time>2021-03-21T15:31:18Z</time>
      </trkpt>
      <trkpt lat="43.94641" lon="1.96235">
        <ele>327.2</ele>
        <time>2021-03-21T15:31:19Z</time>
      </trkpt>
      <trkpt lat="43.94636" lon="1.96229">
        <ele>326.8</ele>
        <time>2021-03-21T15:31:20Z</time>
      </trkpt>
      <trkpt lat="43.94632" lon="1.96223">
        <ele>326.4</ele>
        <time>2021-03-21T15:31:21Z</time>
      </trkpt>
      <trkpt lat="43.94627" lon="1.96217">
        <ele>326.4</ele>
        <time>2021-03-21T15:31:22Z</time>
      </trkpt>
      <trkpt lat="43.94622" lon="1.9621">
        <ele>326</ele>
        <time>2021-03-21T15:31:23Z</time>
      </trkpt>
      <trkpt lat="43.94618" lon="1.96204">
        <ele>325.8</ele>
        <time>2021-03-21T15:31:24Z</time>
      </trkpt>
      <trkpt lat="43.94613" lon="1.96198">
        <ele>325</ele>
        <time>2021-03-21T15:31:25Z</time>
      </trkpt>
      <trkpt lat="43.94609" lon="1.96191">
        <ele>324.4</ele>
        <time>2021-03-21T15:31:26Z</time>
      </trkpt>
      <trkpt lat="43.94604" lon="1.96185">
        <ele>323.4</ele>
        <time>2021-03-21T15:31:27Z</time>
      </trkpt>
      <trkpt lat="43.946" lon="1.96179">
        <ele>322.6</ele>
        <time>2021-03-21T15:31:28Z</time>
      </trkpt>
      <trkpt lat="43.94595" lon="1.96173">
        <ele>321.6</ele>
        <time>2021-03-21T15:31:29Z</time>
      </trkpt>
      <trkpt lat="43.9459" lon="1.96168">
        <ele>320.4</ele>
        <time>2021-03-21T15:31:30Z</time>
      </trkpt>
      <trkpt lat="43.94586" lon="1.96163">
        <ele>318.6</ele>
        <time>2021-03-21T15:31:31Z</time>
      </trkpt>
      <trkpt lat="43.94581" lon="1.96157">
        <ele>317.8</ele>
        <time>2021-03-21T15:31:32Z</time>
      </trkpt>
      <trkpt lat="43.94576" lon="1.96152">
        <ele>317</ele>
        <time>2021-03-21T15:31:33Z</time>
      </trkpt>
      <trkpt lat="43.94572" lon="1.96146">
        <ele>316</ele>
        <time>2021-03-21T15:31:34Z</time>
      </trkpt>
      <trkpt lat="43.94567" lon="1.96141">
        <ele>315.2</ele>
        <time>2021-03-21T15:31:35Z</time>
      </trkpt>
      <trkpt lat="43.94563" lon="1.96134">
        <ele>314.4</ele>
        <time>2021-03-21T15:31:36Z</time>
      </trkpt>
      <trkpt lat="43.94561" lon="1.96128">
        <ele>313.6</ele>
        <time>2021-03-21T15:31:37Z</time>
      </trkpt>
      <trkpt lat="43.94559" lon="1.96121">
        <ele>312.8</ele>
        <time>2021-03-21T15:31:38Z</time>
      </trkpt>
      <trkpt lat="43.94559" lon="1.96115">
        <ele>312.2</ele>
        <time>2021-03-21T15:31:39Z</time>
      </trkpt>
      <trkpt lat="43.94559" lon="1.96108">
        <ele>310.6</ele>
        <time>2021-03-21T15:31:40Z</time>
      </trkpt>
      <trkpt lat="43.94559" lon="1.96101">
        <ele>310.6</ele>
        <time>2021-03-21T15:31:41Z</time>
      </trkpt>
      <trkpt lat="43.9456" lon="1.96095">
        <ele>309.4</ele>
        <time>2021-03-21T15:31:42Z</time>
      </trkpt>
      <trkpt lat="43.9456" lon="1.96089">
        <ele>308.4</ele>
        <time>2021-03-21T15:31:43Z</time>
      </trkpt>
      <trkpt lat="43.94559" lon="1.96084">
        <ele>307</ele>
        <time>2021-03-21T15:31:44Z</time>
      </trkpt>
      <trkpt lat="43.94558" lon="1.96079">
        <ele>306</ele>
        <time>2021-03-21T15:31:45Z</time>
      </trkpt>
      <trkpt lat="43.94556" lon="1.96075">
        <ele>305.2</ele>
        <time>2021-03-21T15:31:46Z</time>
      </trkpt>
      <trkpt lat="43.94554" lon="1.96072">
        <ele>304.4</ele>
        <time>2021-03-21T15:31:47Z</time>
      </trkpt>
      <trkpt lat="43.94551" lon="1.96068">
        <ele>303.4</ele>
        <time>2021-03-21T15:31:48Z</time>
      </trkpt>
      <trkpt lat="43.94548" lon="1.96064">
        <ele>302.2</ele>
        <time>2021-03-21T15:31:49Z</time>
      </trkpt>
      <trkpt lat="43.94544" lon="1.9606">
        <ele>300.8</ele>
        <time>2021-03-21T15:31:50Z</time>
      </trkpt>
      <trkpt lat="43.9454" lon="1.96056">
        <ele>300</ele>
        <time>2021-03-21T15:31:51Z</time>
      </trkpt>
      <trkpt lat="43.94536" lon="1.96051">
        <ele>299.4</ele>
        <time>2021-03-21T15:31:52Z</time>
      </trkpt>
      <trkpt lat="43.94531" lon="1.96047">
        <ele>299.2</ele>
        <time>2021-03-21T15:31:53Z</time>
      </trkpt>
      <trkpt lat="43.94527" lon="1.96043">
        <ele>299.2</ele>
        <time>2021-03-21T15:31:54Z</time>
      </trkpt>
      <trkpt lat="43.94522" lon="1.96038">
        <ele>298.8</ele>
        <time>2021-03-21T15:31:55Z</time>
      </trkpt>
      <trkpt lat="43.94517" lon="1.96033">
        <ele>298.6</ele>
        <time>2021-03-21T15:31:56Z</time>
      </trkpt>
      <trkpt lat="43.94512" lon="1.96028">
        <ele>298.6</ele>
        <time>2021-03-21T15:31:57Z</time>
      </trkpt>
      <trkpt lat="43.945" lon="1.96017">
        <ele>297.4</ele>
        <time>2021-03-21T15:31:59Z</time>
      </trkpt>
      <trkpt lat="43.94494" lon="1.9601">
        <ele>296.6</ele>
        <time>2021-03-21T15:32:00Z</time>
      </trkpt>
      <trkpt lat="43.94488" lon="1.96003">
        <ele>296.6</ele>
        <time>2021-03-21T15:32:01Z</time>
      </trkpt>
      <trkpt lat="43.94482" lon="1.95996">
        <ele>296.4</ele>
        <time>2021-03-21T15:32:02Z</time>
      </trkpt>
      <trkpt lat="43.94476" lon="1.95988">
        <ele>295.6</ele>
        <time>2021-03-21T15:32:03Z</time>
      </trkpt>
      <trkpt lat="43.94471" lon="1.9598">
        <ele>295</ele>
        <time>2021-03-21T15:32:04Z</time>
      </trkpt>
      <trkpt lat="43.94466" lon="1.95974">
        <ele>294.4</ele>
        <time>2021-03-21T15:32:05Z</time>
      </trkpt>
      <trkpt lat="43.9446" lon="1.95968">
        <ele>293.8</ele>
        <time>2021-03-21T15:32:06Z</time>
      </trkpt>
      <trkpt lat="43.94455" lon="1.95964">
        <ele>292.4</ele>
        <time>2021-03-21T15:32:07Z</time>
      </trkpt>
      <trkpt lat="43.9445" lon="1.95962">
        <ele>291.2</ele>
        <time>2021-03-21T15:32:08Z</time>
      </trkpt>
      <trkpt lat="43.94445" lon="1.95963">
        <ele>290</ele>
        <time>2021-03-21T15:32:09Z</time>
      </trkpt>
      <trkpt lat="43.94442" lon="1.95966">
        <ele>289.4</ele>
        <time>2021-03-21T15:32:10Z</time>
      </trkpt>
      <trkpt lat="43.9444" lon="1.95971">
        <ele>289</ele>
        <time>2021-03-21T15:32:11Z</time>
      </trkpt>
      <trkpt lat="43.94439" lon="1.95976">
        <ele>288.8</ele>
        <time>2021-03-21T15:32:12Z</time>
      </trkpt>
      <trkpt lat="43.94438" lon="1.95981">
        <ele>288.6</ele>
        <time>2021-03-21T15:32:13Z</time>
      </trkpt>
      <trkpt lat="43.94437" lon="1.95987">
        <ele>288.6</ele>
        <time>2021-03-21T15:32:14Z</time>
      </trkpt>
      <trkpt lat="43.94435" lon="1.95992">
        <ele>288.6</ele>
        <time>2021-03-21T15:32:15Z</time>
      </trkpt>
      <trkpt lat="43.94434" lon="1.95997">
        <ele>288.6</ele>
        <time>2021-03-21T15:32:16Z</time>
      </trkpt>
      <trkpt lat="43.94432" lon="1.96002">
        <ele>288.6</ele>
        <time>2021-03-21T15:32:17Z</time>
      </trkpt>
      <trkpt lat="43.94429" lon="1.96006">
        <ele>288.6</ele>
        <time>2021-03-21T15:32:18Z</time>
      </trkpt>
      <trkpt lat="43.94426" lon="1.9601">
        <ele>288.4</ele>
        <time>2021-03-21T15:32:19Z</time>
      </trkpt>
      <trkpt lat="43.94424" lon="1.96012">
        <ele>288.2</ele>
        <time>2021-03-21T15:32:20Z</time>
      </trkpt>
      <trkpt lat="43.94421" lon="1.96012">
        <ele>288.2</ele>
        <time>2021-03-21T15:32:21Z</time>
      </trkpt>
      <trkpt lat="43.94418" lon="1.96012">
        <ele>288</ele>
        <time>2021-03-21T15:32:22Z</time>
      </trkpt>
      <trkpt lat="43.94415" lon="1.9601">
        <ele>288</ele>
        <time>2021-03-21T15:32:23Z</time>
      </trkpt>
      <trkpt lat="43.94409" lon="1.96006">
        <ele>288.2</ele>
        <time>2021-03-21T15:32:25Z</time>
      </trkpt>
      <trkpt lat="43.94407" lon="1.96004">
        <ele>288</ele>
        <time>2021-03-21T15:32:26Z</time>
      </trkpt>
      <trkpt lat="43.94404" lon="1.96002">
        <ele>288.4</ele>
        <time>2021-03-21T15:32:27Z</time>
      </trkpt>
      <trkpt lat="43.94401" lon="1.96">
        <ele>288.4</ele>
        <time>2021-03-21T15:32:28Z</time>
      </trkpt>
      <trkpt lat="43.94399" lon="1.95998">
        <ele>288.6</ele>
        <time>2021-03-21T15:32:29Z</time>
      </trkpt>
      <trkpt lat="43.94396" lon="1.95996">
        <ele>288.4</ele>
        <time>2021-03-21T15:32:30Z</time>
      </trkpt>
      <trkpt lat="43.94394" lon="1.95994">
        <ele>288.4</ele>
        <time>2021-03-21T15:32:31Z</time>
      </trkpt>
      <trkpt lat="43.94392" lon="1.95992">
        <ele>288.6</ele>
        <time>2021-03-21T15:32:32Z</time>
      </trkpt>
      <trkpt lat="43.94389" lon="1.9599">
        <ele>288.6</ele>
        <time>2021-03-21T15:32:33Z</time>
      </trkpt>
      <trkpt lat="43.94387" lon="1.95989">
        <ele>288.6</ele>
        <time>2021-03-21T15:32:34Z</time>
      </trkpt>
      <trkpt lat="43.94385" lon="1.95988">
        <ele>288.6</ele>
        <time>2021-03-21T15:32:35Z</time>
      </trkpt>
      <trkpt lat="43.94384" lon="1.95986">
        <ele>288.6</ele>
        <time>2021-03-21T15:32:36Z</time>
      </trkpt>
      <trkpt lat="43.94382" lon="1.95985">
        <ele>288.8</ele>
        <time>2021-03-21T15:32:37Z</time>
      </trkpt>
      <trkpt lat="43.9438" lon="1.95984">
        <ele>288.8</ele>
        <time>2021-03-21T15:32:38Z</time>
      </trkpt>
      <trkpt lat="43.94378" lon="1.95983">
        <ele>288.8</ele>
        <time>2021-03-21T15:32:39Z</time>
      </trkpt>
      <trkpt lat="43.94376" lon="1.95982">
        <ele>288.8</ele>
        <time>2021-03-21T15:32:40Z</time>
      </trkpt>
      <trkpt lat="43.94374" lon="1.95981">
        <ele>289.2</ele>
        <time>2021-03-21T15:32:41Z</time>
      </trkpt>
      <trkpt lat="43.94372" lon="1.9598">
        <ele>289.2</ele>
        <time>2021-03-21T15:32:42Z</time>
      </trkpt>
      <trkpt lat="43.9437" lon="1.95979">
        <ele>290.2</ele>
        <time>2021-03-21T15:32:43Z</time>
      </trkpt>
      <trkpt lat="43.94368" lon="1.95978">
        <ele>291</ele>
        <time>2021-03-21T15:32:44Z</time>
      </trkpt>
      <trkpt lat="43.94367" lon="1.95977">
        <ele>291.6</ele>
        <time>2021-03-21T15:32:45Z</time>
      </trkpt>
      <trkpt lat="43.94365" lon="1.95976">
        <ele>292</ele>
        <time>2021-03-21T15:32:46Z</time>
      </trkpt>
      <trkpt lat="43.94364" lon="1.95975">
        <ele>292.4</ele>
        <time>2021-03-21T15:32:47Z</time>
      </trkpt>
      <trkpt lat="43.94362" lon="1.95974">
        <ele>292.6</ele>
        <time>2021-03-21T15:32:48Z</time>
      </trkpt>
      <trkpt lat="43.94361" lon="1.95973">
        <ele>292.8</ele>
        <time>2021-03-21T15:32:49Z</time>
      </trkpt>
      <trkpt lat="43.94359" lon="1.95973">
        <ele>293.2</ele>
        <time>2021-03-21T15:32:50Z</time>
      </trkpt>
      <trkpt lat="43.94358" lon="1.95972">
        <ele>293.4</ele>
        <time>2021-03-21T15:32:51Z</time>
      </trkpt>
      <trkpt lat="43.94356" lon="1.95971">
        <ele>293.8</ele>
        <time>2021-03-21T15:32:52Z</time>
      </trkpt>
      <trkpt lat="43.94355" lon="1.9597">
        <ele>294.2</ele>
        <time>2021-03-21T15:32:53Z</time>
      </trkpt>
      <trkpt lat="43.94354" lon="1.95969">
        <ele>294.4</ele>
        <time>2021-03-21T15:32:54Z</time>
      </trkpt>
      <trkpt lat="43.94353" lon="1.95968">
        <ele>294.6</ele>
        <time>2021-03-21T15:32:55Z</time>
      </trkpt>
      <trkpt lat="43.94352" lon="1.95966">
        <ele>294.8</ele>
        <time>2021-03-21T15:32:56Z</time>
      </trkpt>
      <trkpt lat="43.94351" lon="1.95965">
        <ele>294.8</ele>
        <time>2021-03-21T15:32:57Z</time>
      </trkpt>
      <trkpt lat="43.94349" lon="1.95964">
        <ele>295</ele>
        <time>2021-03-21T15:32:58Z</time>
      </trkpt>
      <trkpt lat="43.94348" lon="1.95964">
        <ele>295.2</ele>
        <time>2021-03-21T15:32:59Z</time>
      </trkpt>
      <trkpt lat="43.94347" lon="1.95963">
        <ele>295.8</ele>
        <time>2021-03-21T15:33:00Z</time>
      </trkpt>
      <trkpt lat="43.94346" lon="1.95962">
        <ele>295.8</ele>
        <time>2021-03-21T15:33:01Z</time>
      </trkpt>
      <trkpt lat="43.94345" lon="1.9596">
        <ele>296</ele>
        <time>2021-03-21T15:33:02Z</time>
      </trkpt>
      <trkpt lat="43.94343" lon="1.95959">
        <ele>296.2</ele>
        <time>2021-03-21T15:33:03Z</time>
      </trkpt>
      <trkpt lat="43.94342" lon="1.95958">
        <ele>296.4</ele>
        <time>2021-03-21T15:33:04Z</time>
      </trkpt>
      <trkpt lat="43.94341" lon="1.95957">
        <ele>296.4</ele>
        <time>2021-03-21T15:33:05Z</time>
      </trkpt>
      <trkpt lat="43.9434" lon="1.95956">
        <ele>296.4</ele>
        <time>2021-03-21T15:33:06Z</time>
      </trkpt>
      <trkpt lat="43.94338" lon="1.95955">
        <ele>296.4</ele>
        <time>2021-03-21T15:33:07Z</time>
      </trkpt>
      <trkpt lat="43.94337" lon="1.95954">
        <ele>296.6</ele>
        <time>2021-03-21T15:33:08Z</time>
      </trkpt>
      <trkpt lat="43.94335" lon="1.95953">
        <ele>296.8</ele>
        <time>2021-03-21T15:33:09Z</time>
      </trkpt>
      <trkpt lat="43.94334" lon="1.95951">
        <ele>297</ele>
        <time>2021-03-21T15:33:10Z</time>
      </trkpt>
      <trkpt lat="43.94333" lon="1.9595">
        <ele>297</ele>
        <time>2021-03-21T15:33:11Z</time>
      </trkpt>
      <trkpt lat="43.94332" lon="1.9595">
        <ele>297.2</ele>
        <time>2021-03-21T15:33:12Z</time>
      </trkpt>
      <trkpt lat="43.9433" lon="1.95949">
        <ele>297.2</ele>
        <time>2021-03-21T15:33:13Z</time>
      </trkpt>
      <trkpt lat="43.94329" lon="1.95948">
        <ele>297</ele>
        <time>2021-03-21T15:33:14Z</time>
      </trkpt>
      <trkpt lat="43.94328" lon="1.95947">
        <ele>297.4</ele>
        <time>2021-03-21T15:33:15Z</time>
      </trkpt>
      <trkpt lat="43.94328" lon="1.95947">
        <ele>297.6</ele>
        <time>2021-03-21T15:33:16Z</time>
      </trkpt>
      <trkpt lat="43.94327" lon="1.95946">
        <ele>297.8</ele>
        <time>2021-03-21T15:33:17Z</time>
      </trkpt>
      <trkpt lat="43.94326" lon="1.95946">
        <ele>298</ele>
        <time>2021-03-21T15:33:18Z</time>
      </trkpt>
      <trkpt lat="43.94325" lon="1.95945">
        <ele>298</ele>
        <time>2021-03-21T15:33:19Z</time>
      </trkpt>
      <trkpt lat="43.94324" lon="1.95944">
        <ele>298.2</ele>
        <time>2021-03-21T15:33:20Z</time>
      </trkpt>
      <trkpt lat="43.94323" lon="1.95943">
        <ele>298.2</ele>
        <time>2021-03-21T15:33:21Z</time>
      </trkpt>
      <trkpt lat="43.94322" lon="1.95942">
        <ele>298.6</ele>
        <time>2021-03-21T15:33:22Z</time>
      </trkpt>
      <trkpt lat="43.94321" lon="1.95941">
        <ele>298.8</ele>
        <time>2021-03-21T15:33:23Z</time>
      </trkpt>
      <trkpt lat="43.94319" lon="1.9594">
        <ele>299.2</ele>
        <time>2021-03-21T15:33:24Z</time>
      </trkpt>
      <trkpt lat="43.94318" lon="1.95939">
        <ele>299.4</ele>
        <time>2021-03-21T15:33:25Z</time>
      </trkpt>
      <trkpt lat="43.94317" lon="1.95938">
        <ele>299.4</ele>
        <time>2021-03-21T15:33:26Z</time>
      </trkpt>
      <trkpt lat="43.94316" lon="1.95938">
        <ele>299.8</ele>
        <time>2021-03-21T15:33:27Z</time>
      </trkpt>
      <trkpt lat="43.94315" lon="1.95937">
        <ele>299.8</ele>
        <time>2021-03-21T15:33:28Z</time>
      </trkpt>
      <trkpt lat="43.94314" lon="1.95936">
        <ele>299.8</ele>
        <time>2021-03-21T15:33:29Z</time>
      </trkpt>
      <trkpt lat="43.94313" lon="1.95935">
        <ele>300.2</ele>
        <time>2021-03-21T15:33:30Z</time>
      </trkpt>
      <trkpt lat="43.94311" lon="1.95933">
        <ele>300.2</ele>
        <time>2021-03-21T15:33:31Z</time>
      </trkpt>
      <trkpt lat="43.9431" lon="1.95932">
        <ele>300.8</ele>
        <time>2021-03-21T15:33:32Z</time>
      </trkpt>
      <trkpt lat="43.94308" lon="1.95932">
        <ele>301</ele>
        <time>2021-03-21T15:33:33Z</time>
      </trkpt>
      <trkpt lat="43.94307" lon="1.95931">
        <ele>301</ele>
        <time>2021-03-21T15:33:34Z</time>
      </trkpt>
      <trkpt lat="43.94305" lon="1.9593">
        <ele>301.4</ele>
        <time>2021-03-21T15:33:35Z</time>
      </trkpt>
      <trkpt lat="43.94303" lon="1.95929">
        <ele>301.4</ele>
        <time>2021-03-21T15:33:36Z</time>
      </trkpt>
      <trkpt lat="43.94302" lon="1.95928">
        <ele>301.4</ele>
        <time>2021-03-21T15:33:37Z</time>
      </trkpt>
      <trkpt lat="43.943" lon="1.95926">
        <ele>301.6</ele>
        <time>2021-03-21T15:33:38Z</time>
      </trkpt>
      <trkpt lat="43.94299" lon="1.95925">
        <ele>301.4</ele>
        <time>2021-03-21T15:33:39Z</time>
      </trkpt>
      <trkpt lat="43.94298" lon="1.95923">
        <ele>301.6</ele>
        <time>2021-03-21T15:33:40Z</time>
      </trkpt>
      <trkpt lat="43.94297" lon="1.95922">
        <ele>301.6</ele>
        <time>2021-03-21T15:33:41Z</time>
      </trkpt>
      <trkpt lat="43.94296" lon="1.95921">
        <ele>301.6</ele>
        <time>2021-03-21T15:33:42Z</time>
      </trkpt>
      <trkpt lat="43.94294" lon="1.9592">
        <ele>301.8</ele>
        <time>2021-03-21T15:33:43Z</time>
      </trkpt>
      <trkpt lat="43.94293" lon="1.95918">
        <ele>301.8</ele>
        <time>2021-03-21T15:33:44Z</time>
      </trkpt>
      <trkpt lat="43.94293" lon="1.95916">
        <ele>302</ele>
        <time>2021-03-21T15:33:45Z</time>
      </trkpt>
      <trkpt lat="43.94293" lon="1.95914">
        <ele>302</ele>
        <time>2021-03-21T15:33:46Z</time>
      </trkpt>
      <trkpt lat="43.94293" lon="1.95913">
        <ele>302.2</ele>
        <time>2021-03-21T15:33:47Z</time>
      </trkpt>
      <trkpt lat="43.94293" lon="1.95911">
        <ele>302.4</ele>
        <time>2021-03-21T15:33:48Z</time>
      </trkpt>
      <trkpt lat="43.94293" lon="1.95909">
        <ele>302.4</ele>
        <time>2021-03-21T15:33:49Z</time>
      </trkpt>
      <trkpt lat="43.94293" lon="1.95906">
        <ele>302.6</ele>
        <time>2021-03-21T15:33:50Z</time>
      </trkpt>
      <trkpt lat="43.94293" lon="1.95904">
        <ele>303</ele>
        <time>2021-03-21T15:33:51Z</time>
      </trkpt>
      <trkpt lat="43.94293" lon="1.95902">
        <ele>303.2</ele>
        <time>2021-03-21T15:33:52Z</time>
      </trkpt>
      <trkpt lat="43.94293" lon="1.959">
        <ele>303.2</ele>
        <time>2021-03-21T15:33:53Z</time>
      </trkpt>
      <trkpt lat="43.94293" lon="1.95898">
        <ele>303.2</ele>
        <time>2021-03-21T15:33:54Z</time>
      </trkpt>
      <trkpt lat="43.94294" lon="1.95895">
        <ele>303.2</ele>
        <time>2021-03-21T15:33:55Z</time>
      </trkpt>
      <trkpt lat="43.94294" lon="1.95893">
        <ele>303</ele>
        <time>2021-03-21T15:33:56Z</time>
      </trkpt>
      <trkpt lat="43.94294" lon="1.95891">
        <ele>303.2</ele>
        <time>2021-03-21T15:33:57Z</time>
      </trkpt>
      <trkpt lat="43.94294" lon="1.95886">
        <ele>303.2</ele>
        <time>2021-03-21T15:33:59Z</time>
      </trkpt>
      <trkpt lat="43.94295" lon="1.95884">
        <ele>303.2</ele>
        <time>2021-03-21T15:34:00Z</time>
      </trkpt>
      <trkpt lat="43.94296" lon="1.95881">
        <ele>303.2</ele>
        <time>2021-03-21T15:34:01Z</time>
      </trkpt>
      <trkpt lat="43.94296" lon="1.95879">
        <ele>303.2</ele>
        <time>2021-03-21T15:34:02Z</time>
      </trkpt>
      <trkpt lat="43.94296" lon="1.95874">
        <ele>302.8</ele>
        <time>2021-03-21T15:34:04Z</time>
      </trkpt>
      <trkpt lat="43.94296" lon="1.95872">
        <ele>302.8</ele>
        <time>2021-03-21T15:34:05Z</time>
      </trkpt>
      <trkpt lat="43.94296" lon="1.95867">
        <ele>302.8</ele>
        <time>2021-03-21T15:34:07Z</time>
      </trkpt>
      <trkpt lat="43.94297" lon="1.95864">
        <ele>302.6</ele>
        <time>2021-03-21T15:34:08Z</time>
      </trkpt>
      <trkpt lat="43.94297" lon="1.95862">
        <ele>302.6</ele>
        <time>2021-03-21T15:34:09Z</time>
      </trkpt>
      <trkpt lat="43.94298" lon="1.95859">
        <ele>302.8</ele>
        <time>2021-03-21T15:34:10Z</time>
      </trkpt>
      <trkpt lat="43.94299" lon="1.95854">
        <ele>302.6</ele>
        <time>2021-03-21T15:34:12Z</time>
      </trkpt>
      <trkpt lat="43.943" lon="1.95851">
        <ele>302.6</ele>
        <time>2021-03-21T15:34:13Z</time>
      </trkpt>
      <trkpt lat="43.94301" lon="1.95848">
        <ele>302.6</ele>
        <time>2021-03-21T15:34:14Z</time>
      </trkpt>
      <trkpt lat="43.94302" lon="1.95845">
        <ele>302.6</ele>
        <time>2021-03-21T15:34:15Z</time>
      </trkpt>
      <trkpt lat="43.94304" lon="1.95838">
        <ele>302.6</ele>
        <time>2021-03-21T15:34:17Z</time>
      </trkpt>
      <trkpt lat="43.94305" lon="1.95834">
        <ele>302.6</ele>
        <time>2021-03-21T15:34:18Z</time>
      </trkpt>
      <trkpt lat="43.94306" lon="1.95831">
        <ele>302.6</ele>
        <time>2021-03-21T15:34:19Z</time>
      </trkpt>
      <trkpt lat="43.94307" lon="1.95827">
        <ele>302.8</ele>
        <time>2021-03-21T15:34:20Z</time>
      </trkpt>
      <trkpt lat="43.94308" lon="1.95823">
        <ele>302.6</ele>
        <time>2021-03-21T15:34:21Z</time>
      </trkpt>
      <trkpt lat="43.94309" lon="1.95819">
        <ele>302.6</ele>
        <time>2021-03-21T15:34:22Z</time>
      </trkpt>
      <trkpt lat="43.9431" lon="1.95814">
        <ele>302.6</ele>
        <time>2021-03-21T15:34:23Z</time>
      </trkpt>
      <trkpt lat="43.94311" lon="1.9581">
        <ele>302.6</ele>
        <time>2021-03-21T15:34:24Z</time>
      </trkpt>
      <trkpt lat="43.94312" lon="1.95806">
        <ele>302.6</ele>
        <time>2021-03-21T15:34:25Z</time>
      </trkpt>
      <trkpt lat="43.94312" lon="1.95802">
        <ele>302.6</ele>
        <time>2021-03-21T15:34:26Z</time>
      </trkpt>
      <trkpt lat="43.94313" lon="1.95798">
        <ele>302.4</ele>
        <time>2021-03-21T15:34:27Z</time>
      </trkpt>
      <trkpt lat="43.94313" lon="1.95794">
        <ele>302.6</ele>
        <time>2021-03-21T15:34:28Z</time>
      </trkpt>
      <trkpt lat="43.94314" lon="1.9579">
        <ele>302.6</ele>
        <time>2021-03-21T15:34:29Z</time>
      </trkpt>
      <trkpt lat="43.94315" lon="1.95786">
        <ele>302.4</ele>
        <time>2021-03-21T15:34:30Z</time>
      </trkpt>
      <trkpt lat="43.94316" lon="1.95782">
        <ele>302.4</ele>
        <time>2021-03-21T15:34:31Z</time>
      </trkpt>
      <trkpt lat="43.94317" lon="1.95775">
        <ele>302.6</ele>
        <time>2021-03-21T15:34:33Z</time>
      </trkpt>
      <trkpt lat="43.94318" lon="1.9577">
        <ele>302.4</ele>
        <time>2021-03-21T15:34:34Z</time>
      </trkpt>
      <trkpt lat="43.94318" lon="1.95767">
        <ele>302.2</ele>
        <time>2021-03-21T15:34:35Z</time>
      </trkpt>
      <trkpt lat="43.94319" lon="1.95763">
        <ele>302.4</ele>
        <time>2021-03-21T15:34:36Z</time>
      </trkpt>
      <trkpt lat="43.9432" lon="1.95759">
        <ele>302.2</ele>
        <time>2021-03-21T15:34:37Z</time>
      </trkpt>
      <trkpt lat="43.94321" lon="1.95755">
        <ele>302</ele>
        <time>2021-03-21T15:34:38Z</time>
      </trkpt>
      <trkpt lat="43.94321" lon="1.95751">
        <ele>302.2</ele>
        <time>2021-03-21T15:34:39Z</time>
      </trkpt>
      <trkpt lat="43.94322" lon="1.95747">
        <ele>302</ele>
        <time>2021-03-21T15:34:40Z</time>
      </trkpt>
      <trkpt lat="43.94323" lon="1.95744">
        <ele>302</ele>
        <time>2021-03-21T15:34:41Z</time>
      </trkpt>
      <trkpt lat="43.94324" lon="1.9574">
        <ele>302</ele>
        <time>2021-03-21T15:34:42Z</time>
      </trkpt>
      <trkpt lat="43.94325" lon="1.95736">
        <ele>302.2</ele>
        <time>2021-03-21T15:34:43Z</time>
      </trkpt>
      <trkpt lat="43.94326" lon="1.95733">
        <ele>302.2</ele>
        <time>2021-03-21T15:34:44Z</time>
      </trkpt>
      <trkpt lat="43.94328" lon="1.95725">
        <ele>302.2</ele>
        <time>2021-03-21T15:34:46Z</time>
      </trkpt>
      <trkpt lat="43.94328" lon="1.95721">
        <ele>302.2</ele>
        <time>2021-03-21T15:34:47Z</time>
      </trkpt>
      <trkpt lat="43.94329" lon="1.95718">
        <ele>302.2</ele>
        <time>2021-03-21T15:34:48Z</time>
      </trkpt>
      <trkpt lat="43.9433" lon="1.95714">
        <ele>302.2</ele>
        <time>2021-03-21T15:34:49Z</time>
      </trkpt>
      <trkpt lat="43.94331" lon="1.95711">
        <ele>302.2</ele>
        <time>2021-03-21T15:34:50Z</time>
      </trkpt>
      <trkpt lat="43.94332" lon="1.95707">
        <ele>302.2</ele>
        <time>2021-03-21T15:34:51Z</time>
      </trkpt>
      <trkpt lat="43.94333" lon="1.95704">
        <ele>302.2</ele>
        <time>2021-03-21T15:34:52Z</time>
      </trkpt>
      <trkpt lat="43.94333" lon="1.95701">
        <ele>302.4</ele>
        <time>2021-03-21T15:34:53Z</time>
      </trkpt>
      <trkpt lat="43.94334" lon="1.95698">
        <ele>302.2</ele>
        <time>2021-03-21T15:34:54Z</time>
      </trkpt>
      <trkpt lat="43.94335" lon="1.95694">
        <ele>302.4</ele>
        <time>2021-03-21T15:34:55Z</time>
      </trkpt>
      <trkpt lat="43.94335" lon="1.95691">
        <ele>302.4</ele>
        <time>2021-03-21T15:34:56Z</time>
      </trkpt>
      <trkpt lat="43.94336" lon="1.95688">
        <ele>302.4</ele>
        <time>2021-03-21T15:34:57Z</time>
      </trkpt>
      <trkpt lat="43.94337" lon="1.95685">
        <ele>302.6</ele>
        <time>2021-03-21T15:34:58Z</time>
      </trkpt>
      <trkpt lat="43.94337" lon="1.95682">
        <ele>302.8</ele>
        <time>2021-03-21T15:34:59Z</time>
      </trkpt>
      <trkpt lat="43.94338" lon="1.95679">
        <ele>303</ele>
        <time>2021-03-21T15:35:00Z</time>
      </trkpt>
      <trkpt lat="43.94339" lon="1.95676">
        <ele>303</ele>
        <time>2021-03-21T15:35:01Z</time>
      </trkpt>
      <trkpt lat="43.94339" lon="1.95673">
        <ele>303.2</ele>
        <time>2021-03-21T15:35:02Z</time>
      </trkpt>
      <trkpt lat="43.9434" lon="1.9567">
        <ele>303.2</ele>
        <time>2021-03-21T15:35:03Z</time>
      </trkpt>
      <trkpt lat="43.94341" lon="1.95667">
        <ele>303.6</ele>
        <time>2021-03-21T15:35:04Z</time>
      </trkpt>
      <trkpt lat="43.94341" lon="1.95664">
        <ele>303.6</ele>
        <time>2021-03-21T15:35:05Z</time>
      </trkpt>
      <trkpt lat="43.94342" lon="1.95661">
        <ele>303.6</ele>
        <time>2021-03-21T15:35:06Z</time>
      </trkpt>
      <trkpt lat="43.94343" lon="1.95658">
        <ele>303.8</ele>
        <time>2021-03-21T15:35:07Z</time>
      </trkpt>
      <trkpt lat="43.94344" lon="1.95655">
        <ele>303.8</ele>
        <time>2021-03-21T15:35:08Z</time>
      </trkpt>
      <trkpt lat="43.94345" lon="1.95652">
        <ele>303.8</ele>
        <time>2021-03-21T15:35:09Z</time>
      </trkpt>
      <trkpt lat="43.94346" lon="1.95649">
        <ele>304</ele>
        <time>2021-03-21T15:35:10Z</time>
      </trkpt>
      <trkpt lat="43.94347" lon="1.95646">
        <ele>304</ele>
        <time>2021-03-21T15:35:11Z</time>
      </trkpt>
      <trkpt lat="43.94348" lon="1.95643">
        <ele>304</ele>
        <time>2021-03-21T15:35:12Z</time>
      </trkpt>
      <trkpt lat="43.94349" lon="1.95641">
        <ele>304.2</ele>
        <time>2021-03-21T15:35:13Z</time>
      </trkpt>
      <trkpt lat="43.9435" lon="1.95638">
        <ele>304.4</ele>
        <time>2021-03-21T15:35:14Z</time>
      </trkpt>
      <trkpt lat="43.94351" lon="1.95635">
        <ele>305</ele>
        <time>2021-03-21T15:35:15Z</time>
      </trkpt>
      <trkpt lat="43.94351" lon="1.95633">
        <ele>305.8</ele>
        <time>2021-03-21T15:35:16Z</time>
      </trkpt>
      <trkpt lat="43.94351" lon="1.95631">
        <ele>306.2</ele>
        <time>2021-03-21T15:35:17Z</time>
      </trkpt>
      <trkpt lat="43.9435" lon="1.95629">
        <ele>306.4</ele>
        <time>2021-03-21T15:35:18Z</time>
      </trkpt>
      <trkpt lat="43.94349" lon="1.95627">
        <ele>306.6</ele>
        <time>2021-03-21T15:35:19Z</time>
      </trkpt>
      <trkpt lat="43.94348" lon="1.95625">
        <ele>306.6</ele>
        <time>2021-03-21T15:35:20Z</time>
      </trkpt>
      <trkpt lat="43.94347" lon="1.95624">
        <ele>306.6</ele>
        <time>2021-03-21T15:35:21Z</time>
      </trkpt>
      <trkpt lat="43.94345" lon="1.95624">
        <ele>306.6</ele>
        <time>2021-03-21T15:35:22Z</time>
      </trkpt>
      <trkpt lat="43.94343" lon="1.95622">
        <ele>306.8</ele>
        <time>2021-03-21T15:35:23Z</time>
      </trkpt>
      <trkpt lat="43.94342" lon="1.95621">
        <ele>306.8</ele>
        <time>2021-03-21T15:35:24Z</time>
      </trkpt>
      <trkpt lat="43.94341" lon="1.9562">
        <ele>307</ele>
        <time>2021-03-21T15:35:25Z</time>
      </trkpt>
      <trkpt lat="43.9434" lon="1.95619">
        <ele>307</ele>
        <time>2021-03-21T15:35:26Z</time>
      </trkpt>
      <trkpt lat="43.94338" lon="1.95619">
        <ele>307</ele>
        <time>2021-03-21T15:35:27Z</time>
      </trkpt>
      <trkpt lat="43.94337" lon="1.95618">
        <ele>307.2</ele>
        <time>2021-03-21T15:35:28Z</time>
      </trkpt>
      <trkpt lat="43.94335" lon="1.95617">
        <ele>307.6</ele>
        <time>2021-03-21T15:35:29Z</time>
      </trkpt>
      <trkpt lat="43.94334" lon="1.95615">
        <ele>308</ele>
        <time>2021-03-21T15:35:30Z</time>
      </trkpt>
      <trkpt lat="43.94332" lon="1.95614">
        <ele>308.4</ele>
        <time>2021-03-21T15:35:31Z</time>
      </trkpt>
      <trkpt lat="43.94331" lon="1.95613">
        <ele>308.8</ele>
        <time>2021-03-21T15:35:32Z</time>
      </trkpt>
      <trkpt lat="43.9433" lon="1.95611">
        <ele>309</ele>
        <time>2021-03-21T15:35:33Z</time>
      </trkpt>
      <trkpt lat="43.94329" lon="1.9561">
        <ele>309.2</ele>
        <time>2021-03-21T15:35:34Z</time>
      </trkpt>
      <trkpt lat="43.94328" lon="1.95609">
        <ele>309.4</ele>
        <time>2021-03-21T15:35:35Z</time>
      </trkpt>
      <trkpt lat="43.94327" lon="1.95607">
        <ele>309.6</ele>
        <time>2021-03-21T15:35:36Z</time>
      </trkpt>
      <trkpt lat="43.94325" lon="1.95606">
        <ele>309.6</ele>
        <time>2021-03-21T15:35:37Z</time>
      </trkpt>
      <trkpt lat="43.94324" lon="1.95605">
        <ele>309.6</ele>
        <time>2021-03-21T15:35:38Z</time>
      </trkpt>
      <trkpt lat="43.94323" lon="1.95604">
        <ele>309.8</ele>
        <time>2021-03-21T15:35:39Z</time>
      </trkpt>
      <trkpt lat="43.94321" lon="1.95603">
        <ele>310.2</ele>
        <time>2021-03-21T15:35:40Z</time>
      </trkpt>
      <trkpt lat="43.9432" lon="1.95603">
        <ele>310.2</ele>
        <time>2021-03-21T15:35:41Z</time>
      </trkpt>
      <trkpt lat="43.94319" lon="1.95603">
        <ele>310.2</ele>
        <time>2021-03-21T15:35:42Z</time>
      </trkpt>
      <trkpt lat="43.94318" lon="1.95602">
        <ele>310.6</ele>
        <time>2021-03-21T15:35:43Z</time>
      </trkpt>
      <trkpt lat="43.94317" lon="1.95602">
        <ele>310.6</ele>
        <time>2021-03-21T15:35:44Z</time>
      </trkpt>
      <trkpt lat="43.94315" lon="1.95601">
        <ele>310.8</ele>
        <time>2021-03-21T15:35:45Z</time>
      </trkpt>
      <trkpt lat="43.94314" lon="1.956">
        <ele>311</ele>
        <time>2021-03-21T15:35:46Z</time>
      </trkpt>
      <trkpt lat="43.94313" lon="1.95599">
        <ele>311.2</ele>
        <time>2021-03-21T15:35:47Z</time>
      </trkpt>
      <trkpt lat="43.94313" lon="1.95598">
        <ele>311.4</ele>
        <time>2021-03-21T15:35:48Z</time>
      </trkpt>
      <trkpt lat="43.94312" lon="1.95596">
        <ele>311.6</ele>
        <time>2021-03-21T15:35:49Z</time>
      </trkpt>
      <trkpt lat="43.94311" lon="1.95595">
        <ele>311.8</ele>
        <time>2021-03-21T15:35:50Z</time>
      </trkpt>
      <trkpt lat="43.9431" lon="1.95593">
        <ele>312</ele>
        <time>2021-03-21T15:35:51Z</time>
      </trkpt>
      <trkpt lat="43.9431" lon="1.95592">
        <ele>312.2</ele>
        <time>2021-03-21T15:35:52Z</time>
      </trkpt>
      <trkpt lat="43.94309" lon="1.95591">
        <ele>312.4</ele>
        <time>2021-03-21T15:35:53Z</time>
      </trkpt>
      <trkpt lat="43.94308" lon="1.9559">
        <ele>312.4</ele>
        <time>2021-03-21T15:35:54Z</time>
      </trkpt>
      <trkpt lat="43.94307" lon="1.95589">
        <ele>312.6</ele>
        <time>2021-03-21T15:35:55Z</time>
      </trkpt>
      <trkpt lat="43.94306" lon="1.95587">
        <ele>312.6</ele>
        <time>2021-03-21T15:35:56Z</time>
      </trkpt>
      <trkpt lat="43.94305" lon="1.95586">
        <ele>312.6</ele>
        <time>2021-03-21T15:35:57Z</time>
      </trkpt>
      <trkpt lat="43.94304" lon="1.95585">
        <ele>312.6</ele>
        <time>2021-03-21T15:35:58Z</time>
      </trkpt>
      <trkpt lat="43.94304" lon="1.95584">
        <ele>312.6</ele>
        <time>2021-03-21T15:35:59Z</time>
      </trkpt>
      <trkpt lat="43.94303" lon="1.95583">
        <ele>312.8</ele>
        <time>2021-03-21T15:36:00Z</time>
      </trkpt>
      <trkpt lat="43.94302" lon="1.95581">
        <ele>312.8</ele>
        <time>2021-03-21T15:36:01Z</time>
      </trkpt>
      <trkpt lat="43.94301" lon="1.9558">
        <ele>313</ele>
        <time>2021-03-21T15:36:02Z</time>
      </trkpt>
      <trkpt lat="43.943" lon="1.95579">
        <ele>313.2</ele>
        <time>2021-03-21T15:36:03Z</time>
      </trkpt>
      <trkpt lat="43.94299" lon="1.95578">
        <ele>313.2</ele>
        <time>2021-03-21T15:36:04Z</time>
      </trkpt>
      <trkpt lat="43.94298" lon="1.95576">
        <ele>313.2</ele>
        <time>2021-03-21T15:36:05Z</time>
      </trkpt>
      <trkpt lat="43.94297" lon="1.95575">
        <ele>313.4</ele>
        <time>2021-03-21T15:36:06Z</time>
      </trkpt>
      <trkpt lat="43.94296" lon="1.95574">
        <ele>313.4</ele>
        <time>2021-03-21T15:36:07Z</time>
      </trkpt>
      <trkpt lat="43.94295" lon="1.95572">
        <ele>313.6</ele>
        <time>2021-03-21T15:36:08Z</time>
      </trkpt>
      <trkpt lat="43.94294" lon="1.95571">
        <ele>313.4</ele>
        <time>2021-03-21T15:36:09Z</time>
      </trkpt>
      <trkpt lat="43.94294" lon="1.9557">
        <ele>313.4</ele>
        <time>2021-03-21T15:36:10Z</time>
      </trkpt>
      <trkpt lat="43.94293" lon="1.95568">
        <ele>313.6</ele>
        <time>2021-03-21T15:36:11Z</time>
      </trkpt>
      <trkpt lat="43.94291" lon="1.95566">
        <ele>313.6</ele>
        <time>2021-03-21T15:36:13Z</time>
      </trkpt>
      <trkpt lat="43.9429" lon="1.95564">
        <ele>313.6</ele>
        <time>2021-03-21T15:36:14Z</time>
      </trkpt>
      <trkpt lat="43.94289" lon="1.95563">
        <ele>313.8</ele>
        <time>2021-03-21T15:36:15Z</time>
      </trkpt>
      <trkpt lat="43.94288" lon="1.95562">
        <ele>313.8</ele>
        <time>2021-03-21T15:36:16Z</time>
      </trkpt>
      <trkpt lat="43.94287" lon="1.9556">
        <ele>313.8</ele>
        <time>2021-03-21T15:36:17Z</time>
      </trkpt>
      <trkpt lat="43.94286" lon="1.95559">
        <ele>314</ele>
        <time>2021-03-21T15:36:18Z</time>
      </trkpt>
      <trkpt lat="43.94285" lon="1.95558">
        <ele>314</ele>
        <time>2021-03-21T15:36:19Z</time>
      </trkpt>
      <trkpt lat="43.94284" lon="1.95555">
        <ele>314.2</ele>
        <time>2021-03-21T15:36:21Z</time>
      </trkpt>
      <trkpt lat="43.94283" lon="1.95554">
        <ele>314.4</ele>
        <time>2021-03-21T15:36:22Z</time>
      </trkpt>
      <trkpt lat="43.94282" lon="1.95553">
        <ele>314.2</ele>
        <time>2021-03-21T15:36:23Z</time>
      </trkpt>
      <trkpt lat="43.94281" lon="1.95551">
        <ele>314.4</ele>
        <time>2021-03-21T15:36:24Z</time>
      </trkpt>
      <trkpt lat="43.9428" lon="1.9555">
        <ele>314.6</ele>
        <time>2021-03-21T15:36:25Z</time>
      </trkpt>
      <trkpt lat="43.94279" lon="1.95548">
        <ele>315</ele>
        <time>2021-03-21T15:36:26Z</time>
      </trkpt>
      <trkpt lat="43.94278" lon="1.95547">
        <ele>314.8</ele>
        <time>2021-03-21T15:36:27Z</time>
      </trkpt>
      <trkpt lat="43.94278" lon="1.95546">
        <ele>315.2</ele>
        <time>2021-03-21T15:36:28Z</time>
      </trkpt>
      <trkpt lat="43.94277" lon="1.95544">
        <ele>315.2</ele>
        <time>2021-03-21T15:36:29Z</time>
      </trkpt>
      <trkpt lat="43.94275" lon="1.95541">
        <ele>315.4</ele>
        <time>2021-03-21T15:36:31Z</time>
      </trkpt>
      <trkpt lat="43.94274" lon="1.9554">
        <ele>315.6</ele>
        <time>2021-03-21T15:36:32Z</time>
      </trkpt>
      <trkpt lat="43.94273" lon="1.95539">
        <ele>315.6</ele>
        <time>2021-03-21T15:36:33Z</time>
      </trkpt>
      <trkpt lat="43.94272" lon="1.95538">
        <ele>315.8</ele>
        <time>2021-03-21T15:36:34Z</time>
      </trkpt>
      <trkpt lat="43.94271" lon="1.95537">
        <ele>316</ele>
        <time>2021-03-21T15:36:35Z</time>
      </trkpt>
      <trkpt lat="43.9427" lon="1.95535">
        <ele>316</ele>
        <time>2021-03-21T15:36:36Z</time>
      </trkpt>
      <trkpt lat="43.94269" lon="1.95534">
        <ele>316.2</ele>
        <time>2021-03-21T15:36:37Z</time>
      </trkpt>
      <trkpt lat="43.94269" lon="1.95533">
        <ele>316.4</ele>
        <time>2021-03-21T15:36:38Z</time>
      </trkpt>
      <trkpt lat="43.94268" lon="1.95531">
        <ele>316.4</ele>
        <time>2021-03-21T15:36:39Z</time>
      </trkpt>
      <trkpt lat="43.94268" lon="1.95529">
        <ele>316.4</ele>
        <time>2021-03-21T15:36:40Z</time>
      </trkpt>
      <trkpt lat="43.94268" lon="1.95528">
        <ele>316.6</ele>
        <time>2021-03-21T15:36:41Z</time>
      </trkpt>
      <trkpt lat="43.94267" lon="1.95526">
        <ele>316.8</ele>
        <time>2021-03-21T15:36:42Z</time>
      </trkpt>
      <trkpt lat="43.94266" lon="1.95525">
        <ele>317.2</ele>
        <time>2021-03-21T15:36:43Z</time>
      </trkpt>
      <trkpt lat="43.94266" lon="1.95523">
        <ele>317.2</ele>
        <time>2021-03-21T15:36:44Z</time>
      </trkpt>
      <trkpt lat="43.94265" lon="1.95522">
        <ele>317.4</ele>
        <time>2021-03-21T15:36:45Z</time>
      </trkpt>
      <trkpt lat="43.94264" lon="1.9552">
        <ele>317.4</ele>
        <time>2021-03-21T15:36:46Z</time>
      </trkpt>
      <trkpt lat="43.94264" lon="1.95518">
        <ele>317.4</ele>
        <time>2021-03-21T15:36:47Z</time>
      </trkpt>
      <trkpt lat="43.94263" lon="1.95517">
        <ele>317.6</ele>
        <time>2021-03-21T15:36:48Z</time>
      </trkpt>
      <trkpt lat="43.94263" lon="1.95515">
        <ele>317.4</ele>
        <time>2021-03-21T15:36:49Z</time>
      </trkpt>
      <trkpt lat="43.94262" lon="1.95513">
        <ele>317.6</ele>
        <time>2021-03-21T15:36:50Z</time>
      </trkpt>
      <trkpt lat="43.94262" lon="1.95512">
        <ele>317.8</ele>
        <time>2021-03-21T15:36:51Z</time>
      </trkpt>
      <trkpt lat="43.94261" lon="1.9551">
        <ele>317.8</ele>
        <time>2021-03-21T15:36:52Z</time>
      </trkpt>
      <trkpt lat="43.94261" lon="1.95508">
        <ele>317.8</ele>
        <time>2021-03-21T15:36:53Z</time>
      </trkpt>
      <trkpt lat="43.9426" lon="1.95507">
        <ele>317.6</ele>
        <time>2021-03-21T15:36:54Z</time>
      </trkpt>
      <trkpt lat="43.9426" lon="1.95505">
        <ele>317.8</ele>
        <time>2021-03-21T15:36:55Z</time>
      </trkpt>
      <trkpt lat="43.94259" lon="1.95503">
        <ele>318</ele>
        <time>2021-03-21T15:36:56Z</time>
      </trkpt>
      <trkpt lat="43.94259" lon="1.95502">
        <ele>318.2</ele>
        <time>2021-03-21T15:36:57Z</time>
      </trkpt>
      <trkpt lat="43.94258" lon="1.955">
        <ele>318.4</ele>
        <time>2021-03-21T15:36:58Z</time>
      </trkpt>
      <trkpt lat="43.94258" lon="1.95498">
        <ele>318.4</ele>
        <time>2021-03-21T15:36:59Z</time>
      </trkpt>
      <trkpt lat="43.94257" lon="1.95497">
        <ele>318.6</ele>
        <time>2021-03-21T15:37:00Z</time>
      </trkpt>
      <trkpt lat="43.94257" lon="1.95495">
        <ele>318.6</ele>
        <time>2021-03-21T15:37:01Z</time>
      </trkpt>
      <trkpt lat="43.94256" lon="1.95494">
        <ele>319</ele>
        <time>2021-03-21T15:37:02Z</time>
      </trkpt>
      <trkpt lat="43.94256" lon="1.95492">
        <ele>319</ele>
        <time>2021-03-21T15:37:03Z</time>
      </trkpt>
      <trkpt lat="43.94256" lon="1.95491">
        <ele>319.4</ele>
        <time>2021-03-21T15:37:04Z</time>
      </trkpt>
      <trkpt lat="43.94255" lon="1.95489">
        <ele>319.4</ele>
        <time>2021-03-21T15:37:05Z</time>
      </trkpt>
      <trkpt lat="43.94255" lon="1.95488">
        <ele>319.4</ele>
        <time>2021-03-21T15:37:06Z</time>
      </trkpt>
      <trkpt lat="43.94254" lon="1.95486">
        <ele>319.6</ele>
        <time>2021-03-21T15:37:07Z</time>
      </trkpt>
      <trkpt lat="43.94254" lon="1.95485">
        <ele>319.6</ele>
        <time>2021-03-21T15:37:08Z</time>
      </trkpt>
      <trkpt lat="43.94253" lon="1.95484">
        <ele>319.8</ele>
        <time>2021-03-21T15:37:09Z</time>
      </trkpt>
      <trkpt lat="43.94253" lon="1.95483">
        <ele>319.8</ele>
        <time>2021-03-21T15:37:10Z</time>
      </trkpt>
      <trkpt lat="43.94253" lon="1.95481">
        <ele>320</ele>
        <time>2021-03-21T15:37:11Z</time>
      </trkpt>
      <trkpt lat="43.94252" lon="1.9548">
        <ele>320</ele>
        <time>2021-03-21T15:37:12Z</time>
      </trkpt>
      <trkpt lat="43.94252" lon="1.95479">
        <ele>320</ele>
        <time>2021-03-21T15:37:13Z</time>
      </trkpt>
      <trkpt lat="43.94251" lon="1.95478">
        <ele>320</ele>
        <time>2021-03-21T15:37:14Z</time>
      </trkpt>
      <trkpt lat="43.94251" lon="1.95476">
        <ele>320.2</ele>
        <time>2021-03-21T15:37:15Z</time>
      </trkpt>
      <trkpt lat="43.94251" lon="1.95475">
        <ele>320.6</ele>
        <time>2021-03-21T15:37:16Z</time>
      </trkpt>
      <trkpt lat="43.94251" lon="1.95474">
        <ele>320.8</ele>
        <time>2021-03-21T15:37:17Z</time>
      </trkpt>
      <trkpt lat="43.9425" lon="1.95472">
        <ele>320.8</ele>
        <time>2021-03-21T15:37:18Z</time>
      </trkpt>
      <trkpt lat="43.9425" lon="1.95471">
        <ele>321</ele>
        <time>2021-03-21T15:37:19Z</time>
      </trkpt>
      <trkpt lat="43.94249" lon="1.95469">
        <ele>321</ele>
        <time>2021-03-21T15:37:20Z</time>
      </trkpt>
      <trkpt lat="43.94249" lon="1.95468">
        <ele>321</ele>
        <time>2021-03-21T15:37:21Z</time>
      </trkpt>
      <trkpt lat="43.94248" lon="1.95467">
        <ele>321.2</ele>
        <time>2021-03-21T15:37:22Z</time>
      </trkpt>
      <trkpt lat="43.94248" lon="1.95465">
        <ele>321.6</ele>
        <time>2021-03-21T15:37:23Z</time>
      </trkpt>
      <trkpt lat="43.94247" lon="1.95464">
        <ele>322</ele>
        <time>2021-03-21T15:37:24Z</time>
      </trkpt>
      <trkpt lat="43.94247" lon="1.95463">
        <ele>322</ele>
        <time>2021-03-21T15:37:25Z</time>
      </trkpt>
      <trkpt lat="43.94246" lon="1.95461">
        <ele>322</ele>
        <time>2021-03-21T15:37:26Z</time>
      </trkpt>
      <trkpt lat="43.94245" lon="1.9546">
        <ele>322.4</ele>
        <time>2021-03-21T15:37:27Z</time>
      </trkpt>
      <trkpt lat="43.94244" lon="1.95459">
        <ele>322.4</ele>
        <time>2021-03-21T15:37:28Z</time>
      </trkpt>
      <trkpt lat="43.94244" lon="1.95457">
        <ele>322.4</ele>
        <time>2021-03-21T15:37:29Z</time>
      </trkpt>
      <trkpt lat="43.94243" lon="1.95456">
        <ele>322.6</ele>
        <time>2021-03-21T15:37:30Z</time>
      </trkpt>
      <trkpt lat="43.94242" lon="1.95455">
        <ele>322.6</ele>
        <time>2021-03-21T15:37:31Z</time>
      </trkpt>
      <trkpt lat="43.94241" lon="1.95453">
        <ele>323</ele>
        <time>2021-03-21T15:37:32Z</time>
      </trkpt>
      <trkpt lat="43.9424" lon="1.95452">
        <ele>323</ele>
        <time>2021-03-21T15:37:33Z</time>
      </trkpt>
      <trkpt lat="43.9424" lon="1.95451">
        <ele>323</ele>
        <time>2021-03-21T15:37:34Z</time>
      </trkpt>
      <trkpt lat="43.94239" lon="1.95449">
        <ele>323.2</ele>
        <time>2021-03-21T15:37:35Z</time>
      </trkpt>
      <trkpt lat="43.94238" lon="1.95448">
        <ele>323.4</ele>
        <time>2021-03-21T15:37:36Z</time>
      </trkpt>
      <trkpt lat="43.94237" lon="1.95447">
        <ele>323.6</ele>
        <time>2021-03-21T15:37:37Z</time>
      </trkpt>
      <trkpt lat="43.94236" lon="1.95446">
        <ele>323.4</ele>
        <time>2021-03-21T15:37:38Z</time>
      </trkpt>
      <trkpt lat="43.94235" lon="1.95445">
        <ele>323.4</ele>
        <time>2021-03-21T15:37:39Z</time>
      </trkpt>
      <trkpt lat="43.94234" lon="1.95444">
        <ele>323.6</ele>
        <time>2021-03-21T15:37:40Z</time>
      </trkpt>
      <trkpt lat="43.94233" lon="1.95443">
        <ele>323.6</ele>
        <time>2021-03-21T15:37:41Z</time>
      </trkpt>
      <trkpt lat="43.94232" lon="1.95442">
        <ele>323.8</ele>
        <time>2021-03-21T15:37:42Z</time>
      </trkpt>
      <trkpt lat="43.94231" lon="1.9544">
        <ele>323.8</ele>
        <time>2021-03-21T15:37:43Z</time>
      </trkpt>
      <trkpt lat="43.9423" lon="1.95439">
        <ele>324</ele>
        <time>2021-03-21T15:37:44Z</time>
      </trkpt>
      <trkpt lat="43.94229" lon="1.95438">
        <ele>324</ele>
        <time>2021-03-21T15:37:45Z</time>
      </trkpt>
      <trkpt lat="43.94228" lon="1.95437">
        <ele>324.2</ele>
        <time>2021-03-21T15:37:46Z</time>
      </trkpt>
      <trkpt lat="43.94228" lon="1.95436">
        <ele>324.4</ele>
        <time>2021-03-21T15:37:47Z</time>
      </trkpt>
      <trkpt lat="43.94227" lon="1.95434">
        <ele>324.6</ele>
        <time>2021-03-21T15:37:48Z</time>
      </trkpt>
      <trkpt lat="43.94226" lon="1.95434">
        <ele>324.8</ele>
        <time>2021-03-21T15:37:49Z</time>
      </trkpt>
      <trkpt lat="43.94225" lon="1.95432">
        <ele>324.8</ele>
        <time>2021-03-21T15:37:50Z</time>
      </trkpt>
      <trkpt lat="43.94224" lon="1.95431">
        <ele>325</ele>
        <time>2021-03-21T15:37:51Z</time>
      </trkpt>
      <trkpt lat="43.94224" lon="1.95431">
        <ele>325.2</ele>
        <time>2021-03-21T15:37:52Z</time>
      </trkpt>
      <trkpt lat="43.94223" lon="1.9543">
        <ele>325.4</ele>
        <time>2021-03-21T15:37:53Z</time>
      </trkpt>
      <trkpt lat="43.94222" lon="1.95429">
        <ele>326</ele>
        <time>2021-03-21T15:37:54Z</time>
      </trkpt>
      <trkpt lat="43.94221" lon="1.95428">
        <ele>326.2</ele>
        <time>2021-03-21T15:37:55Z</time>
      </trkpt>
      <trkpt lat="43.9422" lon="1.95427">
        <ele>326.4</ele>
        <time>2021-03-21T15:37:56Z</time>
      </trkpt>
      <trkpt lat="43.9422" lon="1.95426">
        <ele>326.4</ele>
        <time>2021-03-21T15:37:57Z</time>
      </trkpt>
      <trkpt lat="43.94219" lon="1.95425">
        <ele>326.6</ele>
        <time>2021-03-21T15:37:58Z</time>
      </trkpt>
      <trkpt lat="43.94218" lon="1.95424">
        <ele>326.6</ele>
        <time>2021-03-21T15:37:59Z</time>
      </trkpt>
      <trkpt lat="43.94217" lon="1.95423">
        <ele>326.8</ele>
        <time>2021-03-21T15:38:00Z</time>
      </trkpt>
      <trkpt lat="43.94216" lon="1.95422">
        <ele>327</ele>
        <time>2021-03-21T15:38:01Z</time>
      </trkpt>
      <trkpt lat="43.94215" lon="1.95422">
        <ele>327</ele>
        <time>2021-03-21T15:38:02Z</time>
      </trkpt>
      <trkpt lat="43.94214" lon="1.95421">
        <ele>327.4</ele>
        <time>2021-03-21T15:38:03Z</time>
      </trkpt>
      <trkpt lat="43.94213" lon="1.95421">
        <ele>327.6</ele>
        <time>2021-03-21T15:38:04Z</time>
      </trkpt>
      <trkpt lat="43.94212" lon="1.95421">
        <ele>327.8</ele>
        <time>2021-03-21T15:38:05Z</time>
      </trkpt>
      <trkpt lat="43.94212" lon="1.95421">
        <ele>328</ele>
        <time>2021-03-21T15:38:06Z</time>
      </trkpt>
      <trkpt lat="43.94212" lon="1.95421">
        <ele>328</ele>
        <time>2021-03-21T15:38:07Z</time>
      </trkpt>
      <trkpt lat="43.94205" lon="1.95416">
        <ele>330.6</ele>
        <time>2021-03-21T15:38:26Z</time>
      </trkpt>
      <trkpt lat="43.94204" lon="1.95415">
        <ele>330.8</ele>
        <time>2021-03-21T15:38:27Z</time>
      </trkpt>
      <trkpt lat="43.94203" lon="1.95414">
        <ele>330.8</ele>
        <time>2021-03-21T15:38:28Z</time>
      </trkpt>
      <trkpt lat="43.94203" lon="1.95412">
        <ele>330.8</ele>
        <time>2021-03-21T15:38:29Z</time>
      </trkpt>
      <trkpt lat="43.94202" lon="1.95411">
        <ele>331</ele>
        <time>2021-03-21T15:38:30Z</time>
      </trkpt>
      <trkpt lat="43.94201" lon="1.9541">
        <ele>331</ele>
        <time>2021-03-21T15:38:31Z</time>
      </trkpt>
      <trkpt lat="43.942" lon="1.9541">
        <ele>331</ele>
        <time>2021-03-21T15:38:32Z</time>
      </trkpt>
      <trkpt lat="43.94199" lon="1.95409">
        <ele>331.2</ele>
        <time>2021-03-21T15:38:33Z</time>
      </trkpt>
      <trkpt lat="43.94198" lon="1.95408">
        <ele>331.2</ele>
        <time>2021-03-21T15:38:34Z</time>
      </trkpt>
      <trkpt lat="43.94197" lon="1.95407">
        <ele>331</ele>
        <time>2021-03-21T15:38:35Z</time>
      </trkpt>
      <trkpt lat="43.94196" lon="1.95406">
        <ele>331.4</ele>
        <time>2021-03-21T15:38:36Z</time>
      </trkpt>
      <trkpt lat="43.94195" lon="1.95405">
        <ele>331.4</ele>
        <time>2021-03-21T15:38:37Z</time>
      </trkpt>
      <trkpt lat="43.94194" lon="1.95404">
        <ele>331.6</ele>
        <time>2021-03-21T15:38:38Z</time>
      </trkpt>
      <trkpt lat="43.94194" lon="1.95403">
        <ele>331.4</ele>
        <time>2021-03-21T15:38:39Z</time>
      </trkpt>
      <trkpt lat="43.94193" lon="1.95402">
        <ele>331.6</ele>
        <time>2021-03-21T15:38:40Z</time>
      </trkpt>
      <trkpt lat="43.94192" lon="1.95401">
        <ele>331.6</ele>
        <time>2021-03-21T15:38:41Z</time>
      </trkpt>
      <trkpt lat="43.94191" lon="1.954">
        <ele>331.6</ele>
        <time>2021-03-21T15:38:43Z</time>
      </trkpt>
      <trkpt lat="43.9419" lon="1.95398">
        <ele>331.6</ele>
        <time>2021-03-21T15:38:44Z</time>
      </trkpt>
      <trkpt lat="43.94189" lon="1.95397">
        <ele>331.8</ele>
        <time>2021-03-21T15:38:45Z</time>
      </trkpt>
      <trkpt lat="43.94188" lon="1.95396">
        <ele>332</ele>
        <time>2021-03-21T15:38:46Z</time>
      </trkpt>
      <trkpt lat="43.94188" lon="1.95395">
        <ele>332.2</ele>
        <time>2021-03-21T15:38:47Z</time>
      </trkpt>
      <trkpt lat="43.94187" lon="1.95394">
        <ele>332.2</ele>
        <time>2021-03-21T15:38:48Z</time>
      </trkpt>
      <trkpt lat="43.94186" lon="1.95394">
        <ele>332.4</ele>
        <time>2021-03-21T15:38:49Z</time>
      </trkpt>
      <trkpt lat="43.94186" lon="1.95393">
        <ele>332.6</ele>
        <time>2021-03-21T15:38:50Z</time>
      </trkpt>
      <trkpt lat="43.94185" lon="1.95392">
        <ele>332.8</ele>
        <time>2021-03-21T15:38:51Z</time>
      </trkpt>
      <trkpt lat="43.94184" lon="1.9539">
        <ele>333</ele>
        <time>2021-03-21T15:38:52Z</time>
      </trkpt>
      <trkpt lat="43.94183" lon="1.9539">
        <ele>333.4</ele>
        <time>2021-03-21T15:38:53Z</time>
      </trkpt>
      <trkpt lat="43.94182" lon="1.95389">
        <ele>333.6</ele>
        <time>2021-03-21T15:38:54Z</time>
      </trkpt>
      <trkpt lat="43.94181" lon="1.95388">
        <ele>333.8</ele>
        <time>2021-03-21T15:38:55Z</time>
      </trkpt>
      <trkpt lat="43.94181" lon="1.95387">
        <ele>334</ele>
        <time>2021-03-21T15:38:56Z</time>
      </trkpt>
      <trkpt lat="43.94179" lon="1.95386">
        <ele>334.2</ele>
        <time>2021-03-21T15:38:57Z</time>
      </trkpt>
      <trkpt lat="43.94178" lon="1.95386">
        <ele>334.4</ele>
        <time>2021-03-21T15:38:58Z</time>
      </trkpt>
      <trkpt lat="43.94177" lon="1.95385">
        <ele>334.4</ele>
        <time>2021-03-21T15:38:59Z</time>
      </trkpt>
      <trkpt lat="43.94176" lon="1.95384">
        <ele>334.6</ele>
        <time>2021-03-21T15:39:00Z</time>
      </trkpt>
      <trkpt lat="43.94175" lon="1.95383">
        <ele>334.6</ele>
        <time>2021-03-21T15:39:01Z</time>
      </trkpt>
      <trkpt lat="43.94175" lon="1.95382">
        <ele>334.8</ele>
        <time>2021-03-21T15:39:02Z</time>
      </trkpt>
      <trkpt lat="43.94174" lon="1.95381">
        <ele>334.8</ele>
        <time>2021-03-21T15:39:03Z</time>
      </trkpt>
      <trkpt lat="43.94173" lon="1.9538">
        <ele>335</ele>
        <time>2021-03-21T15:39:04Z</time>
      </trkpt>
      <trkpt lat="43.94173" lon="1.95379">
        <ele>335</ele>
        <time>2021-03-21T15:39:05Z</time>
      </trkpt>
      <trkpt lat="43.94173" lon="1.95378">
        <ele>335</ele>
        <time>2021-03-21T15:39:06Z</time>
      </trkpt>
      <trkpt lat="43.94172" lon="1.95377">
        <ele>335</ele>
        <time>2021-03-21T15:39:07Z</time>
      </trkpt>
      <trkpt lat="43.94171" lon="1.95376">
        <ele>335</ele>
        <time>2021-03-21T15:39:08Z</time>
      </trkpt>
      <trkpt lat="43.94171" lon="1.95375">
        <ele>335.2</ele>
        <time>2021-03-21T15:39:09Z</time>
      </trkpt>
      <trkpt lat="43.9417" lon="1.95374">
        <ele>335</ele>
        <time>2021-03-21T15:39:10Z</time>
      </trkpt>
      <trkpt lat="43.94169" lon="1.95373">
        <ele>335.2</ele>
        <time>2021-03-21T15:39:11Z</time>
      </trkpt>
      <trkpt lat="43.94168" lon="1.95372">
        <ele>335.6</ele>
        <time>2021-03-21T15:39:12Z</time>
      </trkpt>
      <trkpt lat="43.94167" lon="1.95371">
        <ele>335.8</ele>
        <time>2021-03-21T15:39:13Z</time>
      </trkpt>
      <trkpt lat="43.94166" lon="1.95369">
        <ele>336.2</ele>
        <time>2021-03-21T15:39:14Z</time>
      </trkpt>
      <trkpt lat="43.94165" lon="1.95367">
        <ele>336.4</ele>
        <time>2021-03-21T15:39:15Z</time>
      </trkpt>
      <trkpt lat="43.94165" lon="1.95365">
        <ele>336.8</ele>
        <time>2021-03-21T15:39:16Z</time>
      </trkpt>
      <trkpt lat="43.94164" lon="1.95363">
        <ele>337</ele>
        <time>2021-03-21T15:39:17Z</time>
      </trkpt>
      <trkpt lat="43.94162" lon="1.95361">
        <ele>337.2</ele>
        <time>2021-03-21T15:39:18Z</time>
      </trkpt>
      <trkpt lat="43.94161" lon="1.9536">
        <ele>337.2</ele>
        <time>2021-03-21T15:39:19Z</time>
      </trkpt>
      <trkpt lat="43.9416" lon="1.95358">
        <ele>337.4</ele>
        <time>2021-03-21T15:39:20Z</time>
      </trkpt>
      <trkpt lat="43.9416" lon="1.95357">
        <ele>337.4</ele>
        <time>2021-03-21T15:39:21Z</time>
      </trkpt>
      <trkpt lat="43.94159" lon="1.95355">
        <ele>337.6</ele>
        <time>2021-03-21T15:39:22Z</time>
      </trkpt>
      <trkpt lat="43.94158" lon="1.95353">
        <ele>337.6</ele>
        <time>2021-03-21T15:39:23Z</time>
      </trkpt>
      <trkpt lat="43.94158" lon="1.95352">
        <ele>337.6</ele>
        <time>2021-03-21T15:39:24Z</time>
      </trkpt>
      <trkpt lat="43.94157" lon="1.95351">
        <ele>337.4</ele>
        <time>2021-03-21T15:39:25Z</time>
      </trkpt>
      <trkpt lat="43.94156" lon="1.95349">
        <ele>337.6</ele>
        <time>2021-03-21T15:39:26Z</time>
      </trkpt>
      <trkpt lat="43.94155" lon="1.95348">
        <ele>337.6</ele>
        <time>2021-03-21T15:39:27Z</time>
      </trkpt>
      <trkpt lat="43.94154" lon="1.95347">
        <ele>337.6</ele>
        <time>2021-03-21T15:39:28Z</time>
      </trkpt>
      <trkpt lat="43.94153" lon="1.95345">
        <ele>337.8</ele>
        <time>2021-03-21T15:39:29Z</time>
      </trkpt>
      <trkpt lat="43.94152" lon="1.95344">
        <ele>338</ele>
        <time>2021-03-21T15:39:30Z</time>
      </trkpt>
      <trkpt lat="43.94151" lon="1.95343">
        <ele>338.2</ele>
        <time>2021-03-21T15:39:31Z</time>
      </trkpt>
      <trkpt lat="43.94151" lon="1.95342">
        <ele>338</ele>
        <time>2021-03-21T15:39:32Z</time>
      </trkpt>
      <trkpt lat="43.9415" lon="1.9534">
        <ele>338.2</ele>
        <time>2021-03-21T15:39:33Z</time>
      </trkpt>
      <trkpt lat="43.9415" lon="1.95338">
        <ele>338.6</ele>
        <time>2021-03-21T15:39:34Z</time>
      </trkpt>
      <trkpt lat="43.9415" lon="1.95337">
        <ele>338.6</ele>
        <time>2021-03-21T15:39:35Z</time>
      </trkpt>
      <trkpt lat="43.9415" lon="1.95335">
        <ele>338.8</ele>
        <time>2021-03-21T15:39:36Z</time>
      </trkpt>
      <trkpt lat="43.94149" lon="1.95333">
        <ele>338.8</ele>
        <time>2021-03-21T15:39:37Z</time>
      </trkpt>
      <trkpt lat="43.94149" lon="1.95331">
        <ele>339</ele>
        <time>2021-03-21T15:39:38Z</time>
      </trkpt>
      <trkpt lat="43.94149" lon="1.95329">
        <ele>339.2</ele>
        <time>2021-03-21T15:39:39Z</time>
      </trkpt>
      <trkpt lat="43.94148" lon="1.95327">
        <ele>339.2</ele>
        <time>2021-03-21T15:39:40Z</time>
      </trkpt>
      <trkpt lat="43.94148" lon="1.95323">
        <ele>339.2</ele>
        <time>2021-03-21T15:39:42Z</time>
      </trkpt>
      <trkpt lat="43.94148" lon="1.95321">
        <ele>339.2</ele>
        <time>2021-03-21T15:39:43Z</time>
      </trkpt>
      <trkpt lat="43.94147" lon="1.95318">
        <ele>339.2</ele>
        <time>2021-03-21T15:39:44Z</time>
      </trkpt>
      <trkpt lat="43.94147" lon="1.95316">
        <ele>339.2</ele>
        <time>2021-03-21T15:39:45Z</time>
      </trkpt>
      <trkpt lat="43.94147" lon="1.95313">
        <ele>339.2</ele>
        <time>2021-03-21T15:39:46Z</time>
      </trkpt>
      <trkpt lat="43.94147" lon="1.95311">
        <ele>339.4</ele>
        <time>2021-03-21T15:39:47Z</time>
      </trkpt>
      <trkpt lat="43.94147" lon="1.95309">
        <ele>339.4</ele>
        <time>2021-03-21T15:39:48Z</time>
      </trkpt>
      <trkpt lat="43.94147" lon="1.95306">
        <ele>339.4</ele>
        <time>2021-03-21T15:39:49Z</time>
      </trkpt>
      <trkpt lat="43.94147" lon="1.95304">
        <ele>339.2</ele>
        <time>2021-03-21T15:39:50Z</time>
      </trkpt>
      <trkpt lat="43.94148" lon="1.95301">
        <ele>339.4</ele>
        <time>2021-03-21T15:39:51Z</time>
      </trkpt>
      <trkpt lat="43.94148" lon="1.95298">
        <ele>339.4</ele>
        <time>2021-03-21T15:39:52Z</time>
      </trkpt>
      <trkpt lat="43.94148" lon="1.95296">
        <ele>339.4</ele>
        <time>2021-03-21T15:39:53Z</time>
      </trkpt>
      <trkpt lat="43.94149" lon="1.9529">
        <ele>339.4</ele>
        <time>2021-03-21T15:39:55Z</time>
      </trkpt>
      <trkpt lat="43.94149" lon="1.95287">
        <ele>339.6</ele>
        <time>2021-03-21T15:39:56Z</time>
      </trkpt>
      <trkpt lat="43.94149" lon="1.95284">
        <ele>339.6</ele>
        <time>2021-03-21T15:39:57Z</time>
      </trkpt>
      <trkpt lat="43.9415" lon="1.95282">
        <ele>339.6</ele>
        <time>2021-03-21T15:39:58Z</time>
      </trkpt>
      <trkpt lat="43.9415" lon="1.95276">
        <ele>339.8</ele>
        <time>2021-03-21T15:40:00Z</time>
      </trkpt>
      <trkpt lat="43.94151" lon="1.95273">
        <ele>339.8</ele>
        <time>2021-03-21T15:40:01Z</time>
      </trkpt>
      <trkpt lat="43.94151" lon="1.9527">
        <ele>340</ele>
        <time>2021-03-21T15:40:02Z</time>
      </trkpt>
      <trkpt lat="43.94151" lon="1.95268">
        <ele>340</ele>
        <time>2021-03-21T15:40:03Z</time>
      </trkpt>
      <trkpt lat="43.94151" lon="1.95262">
        <ele>340.4</ele>
        <time>2021-03-21T15:40:05Z</time>
      </trkpt>
      <trkpt lat="43.94151" lon="1.95259">
        <ele>340.6</ele>
        <time>2021-03-21T15:40:06Z</time>
      </trkpt>
      <trkpt lat="43.9415" lon="1.95255">
        <ele>340.6</ele>
        <time>2021-03-21T15:40:07Z</time>
      </trkpt>
      <trkpt lat="43.9415" lon="1.95252">
        <ele>340.6</ele>
        <time>2021-03-21T15:40:08Z</time>
      </trkpt>
      <trkpt lat="43.94151" lon="1.95248">
        <ele>340.6</ele>
        <time>2021-03-21T15:40:09Z</time>
      </trkpt>
      <trkpt lat="43.94151" lon="1.95245">
        <ele>340.4</ele>
        <time>2021-03-21T15:40:10Z</time>
      </trkpt>
      <trkpt lat="43.9415" lon="1.95241">
        <ele>340.6</ele>
        <time>2021-03-21T15:40:11Z</time>
      </trkpt>
      <trkpt lat="43.94151" lon="1.95233">
        <ele>340.6</ele>
        <time>2021-03-21T15:40:13Z</time>
      </trkpt>
      <trkpt lat="43.9415" lon="1.95229">
        <ele>340.4</ele>
        <time>2021-03-21T15:40:14Z</time>
      </trkpt>
      <trkpt lat="43.9415" lon="1.95225">
        <ele>340.4</ele>
        <time>2021-03-21T15:40:15Z</time>
      </trkpt>
      <trkpt lat="43.9415" lon="1.95221">
        <ele>340</ele>
        <time>2021-03-21T15:40:16Z</time>
      </trkpt>
      <trkpt lat="43.94149" lon="1.95213">
        <ele>340</ele>
        <time>2021-03-21T15:40:18Z</time>
      </trkpt>
      <trkpt lat="43.94149" lon="1.95209">
        <ele>340</ele>
        <time>2021-03-21T15:40:19Z</time>
      </trkpt>
      <trkpt lat="43.94148" lon="1.95205">
        <ele>339.8</ele>
        <time>2021-03-21T15:40:20Z</time>
      </trkpt>
      <trkpt lat="43.94148" lon="1.952">
        <ele>339.8</ele>
        <time>2021-03-21T15:40:21Z</time>
      </trkpt>
      <trkpt lat="43.94148" lon="1.95196">
        <ele>339.8</ele>
        <time>2021-03-21T15:40:22Z</time>
      </trkpt>
      <trkpt lat="43.94149" lon="1.95192">
        <ele>339.8</ele>
        <time>2021-03-21T15:40:23Z</time>
      </trkpt>
      <trkpt lat="43.94149" lon="1.95188">
        <ele>339.6</ele>
        <time>2021-03-21T15:40:24Z</time>
      </trkpt>
      <trkpt lat="43.94149" lon="1.95184">
        <ele>339.8</ele>
        <time>2021-03-21T15:40:25Z</time>
      </trkpt>
      <trkpt lat="43.94148" lon="1.95181">
        <ele>339.6</ele>
        <time>2021-03-21T15:40:26Z</time>
      </trkpt>
      <trkpt lat="43.94148" lon="1.95176">
        <ele>339.8</ele>
        <time>2021-03-21T15:40:27Z</time>
      </trkpt>
      <trkpt lat="43.94148" lon="1.95172">
        <ele>339.8</ele>
        <time>2021-03-21T15:40:28Z</time>
      </trkpt>
      <trkpt lat="43.94147" lon="1.95168">
        <ele>339.8</ele>
        <time>2021-03-21T15:40:29Z</time>
      </trkpt>
      <trkpt lat="43.94147" lon="1.95163">
        <ele>340</ele>
        <time>2021-03-21T15:40:30Z</time>
      </trkpt>
      <trkpt lat="43.94147" lon="1.95158">
        <ele>339.8</ele>
        <time>2021-03-21T15:40:31Z</time>
      </trkpt>
      <trkpt lat="43.94147" lon="1.95154">
        <ele>339.8</ele>
        <time>2021-03-21T15:40:32Z</time>
      </trkpt>
      <trkpt lat="43.94147" lon="1.9515">
        <ele>339.8</ele>
        <time>2021-03-21T15:40:33Z</time>
      </trkpt>
      <trkpt lat="43.94147" lon="1.95145">
        <ele>340</ele>
        <time>2021-03-21T15:40:34Z</time>
      </trkpt>
      <trkpt lat="43.94147" lon="1.95141">
        <ele>340</ele>
        <time>2021-03-21T15:40:35Z</time>
      </trkpt>
      <trkpt lat="43.94146" lon="1.95137">
        <ele>340</ele>
        <time>2021-03-21T15:40:36Z</time>
      </trkpt>
      <trkpt lat="43.94147" lon="1.95133">
        <ele>340</ele>
        <time>2021-03-21T15:40:37Z</time>
      </trkpt>
      <trkpt lat="43.94147" lon="1.95129">
        <ele>340</ele>
        <time>2021-03-21T15:40:38Z</time>
      </trkpt>
      <trkpt lat="43.94147" lon="1.95124">
        <ele>340</ele>
        <time>2021-03-21T15:40:39Z</time>
      </trkpt>
      <trkpt lat="43.94147" lon="1.95115">
        <ele>340</ele>
        <time>2021-03-21T15:40:41Z</time>
      </trkpt>
      <trkpt lat="43.94147" lon="1.95111">
        <ele>340.2</ele>
        <time>2021-03-21T15:40:42Z</time>
      </trkpt>
      <trkpt lat="43.94147" lon="1.95107">
        <ele>340</ele>
        <time>2021-03-21T15:40:43Z</time>
      </trkpt>
      <trkpt lat="43.94147" lon="1.95103">
        <ele>340.2</ele>
        <time>2021-03-21T15:40:44Z</time>
      </trkpt>
      <trkpt lat="43.94147" lon="1.95098">
        <ele>340.2</ele>
        <time>2021-03-21T15:40:45Z</time>
      </trkpt>
      <trkpt lat="43.94148" lon="1.95094">
        <ele>340.2</ele>
        <time>2021-03-21T15:40:46Z</time>
      </trkpt>
      <trkpt lat="43.94148" lon="1.95089">
        <ele>340.4</ele>
        <time>2021-03-21T15:40:47Z</time>
      </trkpt>
      <trkpt lat="43.94148" lon="1.9508">
        <ele>340.2</ele>
        <time>2021-03-21T15:40:49Z</time>
      </trkpt>
      <trkpt lat="43.94148" lon="1.95075">
        <ele>340.2</ele>
        <time>2021-03-21T15:40:50Z</time>
      </trkpt>
      <trkpt lat="43.94149" lon="1.95071">
        <ele>340.4</ele>
        <time>2021-03-21T15:40:51Z</time>
      </trkpt>
      <trkpt lat="43.94149" lon="1.95067">
        <ele>340.2</ele>
        <time>2021-03-21T15:40:52Z</time>
      </trkpt>
      <trkpt lat="43.94149" lon="1.95063">
        <ele>340.2</ele>
        <time>2021-03-21T15:40:53Z</time>
      </trkpt>
      <trkpt lat="43.94149" lon="1.95059">
        <ele>340.2</ele>
        <time>2021-03-21T15:40:54Z</time>
      </trkpt>
      <trkpt lat="43.94149" lon="1.95056">
        <ele>340.4</ele>
        <time>2021-03-21T15:40:55Z</time>
      </trkpt>
      <trkpt lat="43.94149" lon="1.95053">
        <ele>340.4</ele>
        <time>2021-03-21T15:40:56Z</time>
      </trkpt>
      <trkpt lat="43.94149" lon="1.95051">
        <ele>340.4</ele>
        <time>2021-03-21T15:40:57Z</time>
      </trkpt>
      <trkpt lat="43.9415" lon="1.95048">
        <ele>340.4</ele>
        <time>2021-03-21T15:40:58Z</time>
      </trkpt>
      <trkpt lat="43.94151" lon="1.95045">
        <ele>340.4</ele>
        <time>2021-03-21T15:40:59Z</time>
      </trkpt>
      <trkpt lat="43.94153" lon="1.95043">
        <ele>340.4</ele>
        <time>2021-03-21T15:41:00Z</time>
      </trkpt>
      <trkpt lat="43.94153" lon="1.9504">
        <ele>340.6</ele>
        <time>2021-03-21T15:41:01Z</time>
      </trkpt>
      <trkpt lat="43.94154" lon="1.95036">
        <ele>340.6</ele>
        <time>2021-03-21T15:41:02Z</time>
      </trkpt>
      <trkpt lat="43.94154" lon="1.95028">
        <ele>340.2</ele>
        <time>2021-03-21T15:41:04Z</time>
      </trkpt>
      <trkpt lat="43.94155" lon="1.95024">
        <ele>340.2</ele>
        <time>2021-03-21T15:41:05Z</time>
      </trkpt>
      <trkpt lat="43.94155" lon="1.9502">
        <ele>340.2</ele>
        <time>2021-03-21T15:41:06Z</time>
      </trkpt>
      <trkpt lat="43.94155" lon="1.95017">
        <ele>340.4</ele>
        <time>2021-03-21T15:41:07Z</time>
      </trkpt>
      <trkpt lat="43.94155" lon="1.95009">
        <ele>340.4</ele>
        <time>2021-03-21T15:41:09Z</time>
      </trkpt>
      <trkpt lat="43.94154" lon="1.95005">
        <ele>340.4</ele>
        <time>2021-03-21T15:41:10Z</time>
      </trkpt>
      <trkpt lat="43.94153" lon="1.95002">
        <ele>340.4</ele>
        <time>2021-03-21T15:41:11Z</time>
      </trkpt>
      <trkpt lat="43.94151" lon="1.95">
        <ele>340.4</ele>
        <time>2021-03-21T15:41:12Z</time>
      </trkpt>
      <trkpt lat="43.9415" lon="1.94998">
        <ele>340.4</ele>
        <time>2021-03-21T15:41:13Z</time>
      </trkpt>
      <trkpt lat="43.94148" lon="1.94998">
        <ele>340.4</ele>
        <time>2021-03-21T15:41:14Z</time>
      </trkpt>
      <trkpt lat="43.94147" lon="1.94998">
        <ele>340.4</ele>
        <time>2021-03-21T15:41:15Z</time>
      </trkpt>
      <trkpt lat="43.94146" lon="1.94996">
        <ele>340.4</ele>
        <time>2021-03-21T15:41:16Z</time>
      </trkpt>
      <trkpt lat="43.94145" lon="1.94995">
        <ele>341</ele>
        <time>2021-03-21T15:41:17Z</time>
      </trkpt>
      <trkpt lat="43.94143" lon="1.94994">
        <ele>341.2</ele>
        <time>2021-03-21T15:41:18Z</time>
      </trkpt>
      <trkpt lat="43.94141" lon="1.94992">
        <ele>341.4</ele>
        <time>2021-03-21T15:41:19Z</time>
      </trkpt>
      <trkpt lat="43.94138" lon="1.9499">
        <ele>341.4</ele>
        <time>2021-03-21T15:41:20Z</time>
      </trkpt>
      <trkpt lat="43.94137" lon="1.94986">
        <ele>341.4</ele>
        <time>2021-03-21T15:41:21Z</time>
      </trkpt>
      <trkpt lat="43.94136" lon="1.94984">
        <ele>341.4</ele>
        <time>2021-03-21T15:41:22Z</time>
      </trkpt>
      <trkpt lat="43.94135" lon="1.94981">
        <ele>341.4</ele>
        <time>2021-03-21T15:41:23Z</time>
      </trkpt>
      <trkpt lat="43.94134" lon="1.94978">
        <ele>341.6</ele>
        <time>2021-03-21T15:41:24Z</time>
      </trkpt>
      <trkpt lat="43.94133" lon="1.94976">
        <ele>341.4</ele>
        <time>2021-03-21T15:41:25Z</time>
      </trkpt>
      <trkpt lat="43.94132" lon="1.94974">
        <ele>341.6</ele>
        <time>2021-03-21T15:41:26Z</time>
      </trkpt>
      <trkpt lat="43.9413" lon="1.94973">
        <ele>341.6</ele>
        <time>2021-03-21T15:41:27Z</time>
      </trkpt>
      <trkpt lat="43.94128" lon="1.94972">
        <ele>341.6</ele>
        <time>2021-03-21T15:41:28Z</time>
      </trkpt>
      <trkpt lat="43.94126" lon="1.94971">
        <ele>341.6</ele>
        <time>2021-03-21T15:41:29Z</time>
      </trkpt>
      <trkpt lat="43.94124" lon="1.94969">
        <ele>341.4</ele>
        <time>2021-03-21T15:41:30Z</time>
      </trkpt>
      <trkpt lat="43.94121" lon="1.94967">
        <ele>341.2</ele>
        <time>2021-03-21T15:41:31Z</time>
      </trkpt>
      <trkpt lat="43.94119" lon="1.94965">
        <ele>341.2</ele>
        <time>2021-03-21T15:41:32Z</time>
      </trkpt>
      <trkpt lat="43.94117" lon="1.94963">
        <ele>341.2</ele>
        <time>2021-03-21T15:41:33Z</time>
      </trkpt>
      <trkpt lat="43.94115" lon="1.9496">
        <ele>341</ele>
        <time>2021-03-21T15:41:34Z</time>
      </trkpt>
      <trkpt lat="43.94112" lon="1.94958">
        <ele>340.8</ele>
        <time>2021-03-21T15:41:35Z</time>
      </trkpt>
      <trkpt lat="43.9411" lon="1.94956">
        <ele>340.6</ele>
        <time>2021-03-21T15:41:36Z</time>
      </trkpt>
      <trkpt lat="43.94108" lon="1.94954">
        <ele>340.6</ele>
        <time>2021-03-21T15:41:37Z</time>
      </trkpt>
      <trkpt lat="43.94106" lon="1.94952">
        <ele>340.2</ele>
        <time>2021-03-21T15:41:38Z</time>
      </trkpt>
      <trkpt lat="43.94104" lon="1.9495">
        <ele>340</ele>
        <time>2021-03-21T15:41:39Z</time>
      </trkpt>
      <trkpt lat="43.94103" lon="1.94948">
        <ele>339.6</ele>
        <time>2021-03-21T15:41:40Z</time>
      </trkpt>
      <trkpt lat="43.94101" lon="1.94946">
        <ele>339.2</ele>
        <time>2021-03-21T15:41:41Z</time>
      </trkpt>
      <trkpt lat="43.94099" lon="1.94944">
        <ele>339.2</ele>
        <time>2021-03-21T15:41:42Z</time>
      </trkpt>
      <trkpt lat="43.94097" lon="1.94942">
        <ele>338.8</ele>
        <time>2021-03-21T15:41:43Z</time>
      </trkpt>
      <trkpt lat="43.94094" lon="1.9494">
        <ele>338.2</ele>
        <time>2021-03-21T15:41:44Z</time>
      </trkpt>
      <trkpt lat="43.94091" lon="1.94938">
        <ele>337.8</ele>
        <time>2021-03-21T15:41:45Z</time>
      </trkpt>
      <trkpt lat="43.94088" lon="1.94936">
        <ele>337.2</ele>
        <time>2021-03-21T15:41:46Z</time>
      </trkpt>
      <trkpt lat="43.94086" lon="1.94934">
        <ele>336.6</ele>
        <time>2021-03-21T15:41:47Z</time>
      </trkpt>
      <trkpt lat="43.94083" lon="1.94931">
        <ele>335.8</ele>
        <time>2021-03-21T15:41:48Z</time>
      </trkpt>
      <trkpt lat="43.94081" lon="1.94929">
        <ele>335.2</ele>
        <time>2021-03-21T15:41:49Z</time>
      </trkpt>
      <trkpt lat="43.94078" lon="1.94927">
        <ele>334.4</ele>
        <time>2021-03-21T15:41:50Z</time>
      </trkpt>
      <trkpt lat="43.94076" lon="1.94924">
        <ele>333.6</ele>
        <time>2021-03-21T15:41:51Z</time>
      </trkpt>
      <trkpt lat="43.94073" lon="1.94921">
        <ele>333</ele>
        <time>2021-03-21T15:41:52Z</time>
      </trkpt>
      <trkpt lat="43.94071" lon="1.94918">
        <ele>332.4</ele>
        <time>2021-03-21T15:41:53Z</time>
      </trkpt>
      <trkpt lat="43.94068" lon="1.94915">
        <ele>331.6</ele>
        <time>2021-03-21T15:41:54Z</time>
      </trkpt>
      <trkpt lat="43.94065" lon="1.94911">
        <ele>331</ele>
        <time>2021-03-21T15:41:55Z</time>
      </trkpt>
      <trkpt lat="43.94062" lon="1.94906">
        <ele>330.4</ele>
        <time>2021-03-21T15:41:56Z</time>
      </trkpt>
      <trkpt lat="43.94059" lon="1.94901">
        <ele>329.8</ele>
        <time>2021-03-21T15:41:57Z</time>
      </trkpt>
      <trkpt lat="43.94055" lon="1.94896">
        <ele>329.4</ele>
        <time>2021-03-21T15:41:58Z</time>
      </trkpt>
      <trkpt lat="43.94052" lon="1.94892">
        <ele>328.8</ele>
        <time>2021-03-21T15:41:59Z</time>
      </trkpt>
      <trkpt lat="43.94049" lon="1.94887">
        <ele>328</ele>
        <time>2021-03-21T15:42:00Z</time>
      </trkpt>
      <trkpt lat="43.94045" lon="1.94881">
        <ele>326.8</ele>
        <time>2021-03-21T15:42:01Z</time>
      </trkpt>
      <trkpt lat="43.94042" lon="1.94876">
        <ele>326.8</ele>
        <time>2021-03-21T15:42:02Z</time>
      </trkpt>
      <trkpt lat="43.94039" lon="1.94871">
        <ele>325.8</ele>
        <time>2021-03-21T15:42:03Z</time>
      </trkpt>
      <trkpt lat="43.94033" lon="1.94858">
        <ele>323.4</ele>
        <time>2021-03-21T15:42:05Z</time>
      </trkpt>
      <trkpt lat="43.9403" lon="1.94851">
        <ele>322.4</ele>
        <time>2021-03-21T15:42:06Z</time>
      </trkpt>
      <trkpt lat="43.94026" lon="1.94844">
        <ele>321.4</ele>
        <time>2021-03-21T15:42:07Z</time>
      </trkpt>
      <trkpt lat="43.94022" lon="1.94837">
        <ele>320.6</ele>
        <time>2021-03-21T15:42:08Z</time>
      </trkpt>
      <trkpt lat="43.94018" lon="1.9483">
        <ele>319.6</ele>
        <time>2021-03-21T15:42:09Z</time>
      </trkpt>
      <trkpt lat="43.94014" lon="1.94823">
        <ele>319</ele>
        <time>2021-03-21T15:42:10Z</time>
      </trkpt>
      <trkpt lat="43.9401" lon="1.94817">
        <ele>318.4</ele>
        <time>2021-03-21T15:42:11Z</time>
      </trkpt>
      <trkpt lat="43.94006" lon="1.9481">
        <ele>317</ele>
        <time>2021-03-21T15:42:12Z</time>
      </trkpt>
      <trkpt lat="43.94001" lon="1.94804">
        <ele>315.8</ele>
        <time>2021-03-21T15:42:13Z</time>
      </trkpt>
      <trkpt lat="43.93997" lon="1.94798">
        <ele>315</ele>
        <time>2021-03-21T15:42:14Z</time>
      </trkpt>
      <trkpt lat="43.93994" lon="1.94793">
        <ele>314</ele>
        <time>2021-03-21T15:42:15Z</time>
      </trkpt>
      <trkpt lat="43.9399" lon="1.94788">
        <ele>313.4</ele>
        <time>2021-03-21T15:42:16Z</time>
      </trkpt>
      <trkpt lat="43.93987" lon="1.94786">
        <ele>312.6</ele>
        <time>2021-03-21T15:42:17Z</time>
      </trkpt>
      <trkpt lat="43.93983" lon="1.94785">
        <ele>311.6</ele>
        <time>2021-03-21T15:42:18Z</time>
      </trkpt>
      <trkpt lat="43.93979" lon="1.94786">
        <ele>310.4</ele>
        <time>2021-03-21T15:42:19Z</time>
      </trkpt>
      <trkpt lat="43.93974" lon="1.94787">
        <ele>309.8</ele>
        <time>2021-03-21T15:42:20Z</time>
      </trkpt>
      <trkpt lat="43.9397" lon="1.94789">
        <ele>308.8</ele>
        <time>2021-03-21T15:42:21Z</time>
      </trkpt>
      <trkpt lat="43.93966" lon="1.94792">
        <ele>308.8</ele>
        <time>2021-03-21T15:42:22Z</time>
      </trkpt>
      <trkpt lat="43.93961" lon="1.94794">
        <ele>308.2</ele>
        <time>2021-03-21T15:42:23Z</time>
      </trkpt>
      <trkpt lat="43.93957" lon="1.94796">
        <ele>307.4</ele>
        <time>2021-03-21T15:42:24Z</time>
      </trkpt>
      <trkpt lat="43.93948" lon="1.948">
        <ele>306.4</ele>
        <time>2021-03-21T15:42:26Z</time>
      </trkpt>
      <trkpt lat="43.93943" lon="1.94803">
        <ele>306</ele>
        <time>2021-03-21T15:42:27Z</time>
      </trkpt>
      <trkpt lat="43.93937" lon="1.94805">
        <ele>305.8</ele>
        <time>2021-03-21T15:42:28Z</time>
      </trkpt>
      <trkpt lat="43.93932" lon="1.94807">
        <ele>305.4</ele>
        <time>2021-03-21T15:42:29Z</time>
      </trkpt>
      <trkpt lat="43.93927" lon="1.94809">
        <ele>305.2</ele>
        <time>2021-03-21T15:42:30Z</time>
      </trkpt>
      <trkpt lat="43.93921" lon="1.94811">
        <ele>305</ele>
        <time>2021-03-21T15:42:31Z</time>
      </trkpt>
      <trkpt lat="43.93915" lon="1.94813">
        <ele>304.8</ele>
        <time>2021-03-21T15:42:32Z</time>
      </trkpt>
      <trkpt lat="43.93903" lon="1.94817">
        <ele>304.4</ele>
        <time>2021-03-21T15:42:34Z</time>
      </trkpt>
      <trkpt lat="43.93898" lon="1.94819">
        <ele>304</ele>
        <time>2021-03-21T15:42:35Z</time>
      </trkpt>
      <trkpt lat="43.93892" lon="1.94821">
        <ele>303.8</ele>
        <time>2021-03-21T15:42:36Z</time>
      </trkpt>
      <trkpt lat="43.93886" lon="1.94823">
        <ele>303.6</ele>
        <time>2021-03-21T15:42:37Z</time>
      </trkpt>
      <trkpt lat="43.9388" lon="1.94824">
        <ele>303.6</ele>
        <time>2021-03-21T15:42:38Z</time>
      </trkpt>
      <trkpt lat="43.93874" lon="1.94826">
        <ele>303.4</ele>
        <time>2021-03-21T15:42:39Z</time>
      </trkpt>
      <trkpt lat="43.93868" lon="1.94827">
        <ele>303.4</ele>
        <time>2021-03-21T15:42:40Z</time>
      </trkpt>
      <trkpt lat="43.93862" lon="1.94828">
        <ele>303.4</ele>
        <time>2021-03-21T15:42:41Z</time>
      </trkpt>
      <trkpt lat="43.93856" lon="1.94829">
        <ele>303.2</ele>
        <time>2021-03-21T15:42:42Z</time>
      </trkpt>
      <trkpt lat="43.93851" lon="1.94829">
        <ele>303.2</ele>
        <time>2021-03-21T15:42:43Z</time>
      </trkpt>
      <trkpt lat="43.93845" lon="1.9483">
        <ele>303.2</ele>
        <time>2021-03-21T15:42:44Z</time>
      </trkpt>
      <trkpt lat="43.93839" lon="1.9483">
        <ele>302.6</ele>
        <time>2021-03-21T15:42:45Z</time>
      </trkpt>
      <trkpt lat="43.93834" lon="1.94831">
        <ele>302.2</ele>
        <time>2021-03-21T15:42:46Z</time>
      </trkpt>
      <trkpt lat="43.93828" lon="1.94831">
        <ele>302</ele>
        <time>2021-03-21T15:42:47Z</time>
      </trkpt>
      <trkpt lat="43.93823" lon="1.94831">
        <ele>301.8</ele>
        <time>2021-03-21T15:42:48Z</time>
      </trkpt>
      <trkpt lat="43.93812" lon="1.94833">
        <ele>301.8</ele>
        <time>2021-03-21T15:42:50Z</time>
      </trkpt>
      <trkpt lat="43.93807" lon="1.94834">
        <ele>301.4</ele>
        <time>2021-03-21T15:42:51Z</time>
      </trkpt>
      <trkpt lat="43.93801" lon="1.94835">
        <ele>301</ele>
        <time>2021-03-21T15:42:52Z</time>
      </trkpt>
      <trkpt lat="43.93796" lon="1.94836">
        <ele>301</ele>
        <time>2021-03-21T15:42:53Z</time>
      </trkpt>
      <trkpt lat="43.93792" lon="1.94837">
        <ele>300.6</ele>
        <time>2021-03-21T15:42:54Z</time>
      </trkpt>
      <trkpt lat="43.93787" lon="1.94839">
        <ele>300.6</ele>
        <time>2021-03-21T15:42:55Z</time>
      </trkpt>
      <trkpt lat="43.93783" lon="1.9484">
        <ele>300.2</ele>
        <time>2021-03-21T15:42:56Z</time>
      </trkpt>
      <trkpt lat="43.93779" lon="1.94842">
        <ele>299.6</ele>
        <time>2021-03-21T15:42:57Z</time>
      </trkpt>
      <trkpt lat="43.93775" lon="1.94843">
        <ele>299.4</ele>
        <time>2021-03-21T15:42:58Z</time>
      </trkpt>
      <trkpt lat="43.9377" lon="1.94844">
        <ele>299.4</ele>
        <time>2021-03-21T15:42:59Z</time>
      </trkpt>
      <trkpt lat="43.93765" lon="1.94845">
        <ele>299.4</ele>
        <time>2021-03-21T15:43:00Z</time>
      </trkpt>
      <trkpt lat="43.93762" lon="1.94846">
        <ele>299.4</ele>
        <time>2021-03-21T15:43:01Z</time>
      </trkpt>
      <trkpt lat="43.93758" lon="1.94846">
        <ele>299.2</ele>
        <time>2021-03-21T15:43:02Z</time>
      </trkpt>
      <trkpt lat="43.93754" lon="1.94846">
        <ele>299</ele>
        <time>2021-03-21T15:43:03Z</time>
      </trkpt>
      <trkpt lat="43.9375" lon="1.94846">
        <ele>299</ele>
        <time>2021-03-21T15:43:04Z</time>
      </trkpt>
      <trkpt lat="43.93746" lon="1.94846">
        <ele>298.8</ele>
        <time>2021-03-21T15:43:05Z</time>
      </trkpt>
      <trkpt lat="43.93741" lon="1.94847">
        <ele>298.8</ele>
        <time>2021-03-21T15:43:06Z</time>
      </trkpt>
      <trkpt lat="43.93737" lon="1.94847">
        <ele>298.8</ele>
        <time>2021-03-21T15:43:07Z</time>
      </trkpt>
      <trkpt lat="43.93733" lon="1.94848">
        <ele>298.2</ele>
        <time>2021-03-21T15:43:08Z</time>
      </trkpt>
      <trkpt lat="43.93729" lon="1.94848">
        <ele>298</ele>
        <time>2021-03-21T15:43:09Z</time>
      </trkpt>
      <trkpt lat="43.93725" lon="1.94849">
        <ele>297.6</ele>
        <time>2021-03-21T15:43:10Z</time>
      </trkpt>
      <trkpt lat="43.93721" lon="1.9485">
        <ele>297.4</ele>
        <time>2021-03-21T15:43:11Z</time>
      </trkpt>
      <trkpt lat="43.93713" lon="1.94852">
        <ele>296.4</ele>
        <time>2021-03-21T15:43:13Z</time>
      </trkpt>
      <trkpt lat="43.93709" lon="1.94853">
        <ele>296</ele>
        <time>2021-03-21T15:43:14Z</time>
      </trkpt>
      <trkpt lat="43.93704" lon="1.94854">
        <ele>295.4</ele>
        <time>2021-03-21T15:43:15Z</time>
      </trkpt>
      <trkpt lat="43.93698" lon="1.94855">
        <ele>295</ele>
        <time>2021-03-21T15:43:16Z</time>
      </trkpt>
      <trkpt lat="43.93693" lon="1.94857">
        <ele>294.6</ele>
        <time>2021-03-21T15:43:17Z</time>
      </trkpt>
      <trkpt lat="43.93688" lon="1.94859">
        <ele>294.4</ele>
        <time>2021-03-21T15:43:18Z</time>
      </trkpt>
      <trkpt lat="43.93682" lon="1.94861">
        <ele>294.4</ele>
        <time>2021-03-21T15:43:19Z</time>
      </trkpt>
      <trkpt lat="43.93677" lon="1.94864">
        <ele>294</ele>
        <time>2021-03-21T15:43:20Z</time>
      </trkpt>
      <trkpt lat="43.93672" lon="1.94867">
        <ele>292.8</ele>
        <time>2021-03-21T15:43:21Z</time>
      </trkpt>
      <trkpt lat="43.93667" lon="1.9487">
        <ele>292.2</ele>
        <time>2021-03-21T15:43:22Z</time>
      </trkpt>
      <trkpt lat="43.93662" lon="1.94873">
        <ele>291.6</ele>
        <time>2021-03-21T15:43:23Z</time>
      </trkpt>
      <trkpt lat="43.93658" lon="1.94876">
        <ele>290.6</ele>
        <time>2021-03-21T15:43:24Z</time>
      </trkpt>
      <trkpt lat="43.93654" lon="1.94879">
        <ele>289.8</ele>
        <time>2021-03-21T15:43:25Z</time>
      </trkpt>
      <trkpt lat="43.93652" lon="1.94882">
        <ele>289</ele>
        <time>2021-03-21T15:43:26Z</time>
      </trkpt>
      <trkpt lat="43.93649" lon="1.94885">
        <ele>288</ele>
        <time>2021-03-21T15:43:27Z</time>
      </trkpt>
      <trkpt lat="43.93646" lon="1.94888">
        <ele>287.8</ele>
        <time>2021-03-21T15:43:28Z</time>
      </trkpt>
      <trkpt lat="43.93642" lon="1.94892">
        <ele>287.4</ele>
        <time>2021-03-21T15:43:29Z</time>
      </trkpt>
      <trkpt lat="43.93637" lon="1.94895">
        <ele>286.6</ele>
        <time>2021-03-21T15:43:30Z</time>
      </trkpt>
      <trkpt lat="43.93632" lon="1.94899">
        <ele>286</ele>
        <time>2021-03-21T15:43:31Z</time>
      </trkpt>
      <trkpt lat="43.93627" lon="1.94903">
        <ele>285.4</ele>
        <time>2021-03-21T15:43:32Z</time>
      </trkpt>
      <trkpt lat="43.93621" lon="1.94906">
        <ele>285.2</ele>
        <time>2021-03-21T15:43:33Z</time>
      </trkpt>
      <trkpt lat="43.93615" lon="1.9491">
        <ele>285</ele>
        <time>2021-03-21T15:43:34Z</time>
      </trkpt>
      <trkpt lat="43.93608" lon="1.94913">
        <ele>284.8</ele>
        <time>2021-03-21T15:43:35Z</time>
      </trkpt>
      <trkpt lat="43.93602" lon="1.94915">
        <ele>284.8</ele>
        <time>2021-03-21T15:43:36Z</time>
      </trkpt>
      <trkpt lat="43.93596" lon="1.94918">
        <ele>284.6</ele>
        <time>2021-03-21T15:43:37Z</time>
      </trkpt>
      <trkpt lat="43.9359" lon="1.9492">
        <ele>284.2</ele>
        <time>2021-03-21T15:43:38Z</time>
      </trkpt>
      <trkpt lat="43.93584" lon="1.94922">
        <ele>284.2</ele>
        <time>2021-03-21T15:43:39Z</time>
      </trkpt>
      <trkpt lat="43.93579" lon="1.94924">
        <ele>283.4</ele>
        <time>2021-03-21T15:43:40Z</time>
      </trkpt>
      <trkpt lat="43.93575" lon="1.94926">
        <ele>282.6</ele>
        <time>2021-03-21T15:43:41Z</time>
      </trkpt>
      <trkpt lat="43.9357" lon="1.94929">
        <ele>282</ele>
        <time>2021-03-21T15:43:42Z</time>
      </trkpt>
      <trkpt lat="43.93566" lon="1.94931">
        <ele>281.6</ele>
        <time>2021-03-21T15:43:43Z</time>
      </trkpt>
      <trkpt lat="43.93562" lon="1.94932">
        <ele>281</ele>
        <time>2021-03-21T15:43:44Z</time>
      </trkpt>
      <trkpt lat="43.93558" lon="1.94934">
        <ele>280.6</ele>
        <time>2021-03-21T15:43:45Z</time>
      </trkpt>
      <trkpt lat="43.93554" lon="1.94935">
        <ele>280.4</ele>
        <time>2021-03-21T15:43:46Z</time>
      </trkpt>
      <trkpt lat="43.9355" lon="1.94935">
        <ele>280.2</ele>
        <time>2021-03-21T15:43:47Z</time>
      </trkpt>
      <trkpt lat="43.93546" lon="1.94936">
        <ele>280</ele>
        <time>2021-03-21T15:43:48Z</time>
      </trkpt>
      <trkpt lat="43.93542" lon="1.94936">
        <ele>280</ele>
        <time>2021-03-21T15:43:49Z</time>
      </trkpt>
      <trkpt lat="43.93538" lon="1.94936">
        <ele>279.8</ele>
        <time>2021-03-21T15:43:50Z</time>
      </trkpt>
      <trkpt lat="43.93535" lon="1.94936">
        <ele>279.8</ele>
        <time>2021-03-21T15:43:51Z</time>
      </trkpt>
      <trkpt lat="43.93531" lon="1.94936">
        <ele>279.8</ele>
        <time>2021-03-21T15:43:52Z</time>
      </trkpt>
      <trkpt lat="43.93527" lon="1.94934">
        <ele>279.6</ele>
        <time>2021-03-21T15:43:53Z</time>
      </trkpt>
      <trkpt lat="43.93523" lon="1.94933">
        <ele>279.6</ele>
        <time>2021-03-21T15:43:54Z</time>
      </trkpt>
      <trkpt lat="43.93518" lon="1.94931">
        <ele>279.6</ele>
        <time>2021-03-21T15:43:55Z</time>
      </trkpt>
      <trkpt lat="43.93513" lon="1.94929">
        <ele>279.6</ele>
        <time>2021-03-21T15:43:56Z</time>
      </trkpt>
      <trkpt lat="43.93509" lon="1.94927">
        <ele>279.6</ele>
        <time>2021-03-21T15:43:57Z</time>
      </trkpt>
      <trkpt lat="43.93504" lon="1.94926">
        <ele>279.2</ele>
        <time>2021-03-21T15:43:58Z</time>
      </trkpt>
      <trkpt lat="43.93499" lon="1.94925">
        <ele>279.2</ele>
        <time>2021-03-21T15:43:59Z</time>
      </trkpt>
      <trkpt lat="43.93494" lon="1.94924">
        <ele>278.8</ele>
        <time>2021-03-21T15:44:00Z</time>
      </trkpt>
      <trkpt lat="43.9349" lon="1.94922">
        <ele>278.8</ele>
        <time>2021-03-21T15:44:01Z</time>
      </trkpt>
      <trkpt lat="43.93486" lon="1.94921">
        <ele>278.2</ele>
        <time>2021-03-21T15:44:02Z</time>
      </trkpt>
      <trkpt lat="43.93482" lon="1.9492">
        <ele>277.8</ele>
        <time>2021-03-21T15:44:03Z</time>
      </trkpt>
      <trkpt lat="43.93478" lon="1.94918">
        <ele>277.6</ele>
        <time>2021-03-21T15:44:04Z</time>
      </trkpt>
      <trkpt lat="43.93475" lon="1.94917">
        <ele>277.6</ele>
        <time>2021-03-21T15:44:05Z</time>
      </trkpt>
      <trkpt lat="43.93471" lon="1.94916">
        <ele>277.4</ele>
        <time>2021-03-21T15:44:06Z</time>
      </trkpt>
      <trkpt lat="43.93467" lon="1.94915">
        <ele>277.4</ele>
        <time>2021-03-21T15:44:07Z</time>
      </trkpt>
      <trkpt lat="43.93464" lon="1.94915">
        <ele>277.4</ele>
        <time>2021-03-21T15:44:08Z</time>
      </trkpt>
      <trkpt lat="43.9346" lon="1.94913">
        <ele>277.2</ele>
        <time>2021-03-21T15:44:09Z</time>
      </trkpt>
      <trkpt lat="43.93453" lon="1.9491">
        <ele>277.4</ele>
        <time>2021-03-21T15:44:11Z</time>
      </trkpt>
      <trkpt lat="43.9345" lon="1.94909">
        <ele>277.2</ele>
        <time>2021-03-21T15:44:12Z</time>
      </trkpt>
      <trkpt lat="43.93446" lon="1.94908">
        <ele>277.2</ele>
        <time>2021-03-21T15:44:13Z</time>
      </trkpt>
      <trkpt lat="43.93442" lon="1.94907">
        <ele>277.2</ele>
        <time>2021-03-21T15:44:14Z</time>
      </trkpt>
      <trkpt lat="43.93439" lon="1.94907">
        <ele>277.2</ele>
        <time>2021-03-21T15:44:15Z</time>
      </trkpt>
      <trkpt lat="43.93435" lon="1.94906">
        <ele>277.2</ele>
        <time>2021-03-21T15:44:16Z</time>
      </trkpt>
      <trkpt lat="43.93432" lon="1.94905">
        <ele>277.2</ele>
        <time>2021-03-21T15:44:17Z</time>
      </trkpt>
      <trkpt lat="43.93429" lon="1.94904">
        <ele>277.2</ele>
        <time>2021-03-21T15:44:18Z</time>
      </trkpt>
      <trkpt lat="43.93425" lon="1.94903">
        <ele>277.2</ele>
        <time>2021-03-21T15:44:19Z</time>
      </trkpt>
      <trkpt lat="43.93422" lon="1.94902">
        <ele>277.2</ele>
        <time>2021-03-21T15:44:20Z</time>
      </trkpt>
      <trkpt lat="43.93419" lon="1.94901">
        <ele>277</ele>
        <time>2021-03-21T15:44:21Z</time>
      </trkpt>
      <trkpt lat="43.93415" lon="1.949">
        <ele>277.2</ele>
        <time>2021-03-21T15:44:22Z</time>
      </trkpt>
      <trkpt lat="43.93412" lon="1.94898">
        <ele>277.2</ele>
        <time>2021-03-21T15:44:23Z</time>
      </trkpt>
      <trkpt lat="43.93409" lon="1.94897">
        <ele>277.2</ele>
        <time>2021-03-21T15:44:24Z</time>
      </trkpt>
      <trkpt lat="43.93406" lon="1.94896">
        <ele>277</ele>
        <time>2021-03-21T15:44:25Z</time>
      </trkpt>
      <trkpt lat="43.93402" lon="1.94894">
        <ele>277</ele>
        <time>2021-03-21T15:44:26Z</time>
      </trkpt>
      <trkpt lat="43.93399" lon="1.94893">
        <ele>277</ele>
        <time>2021-03-21T15:44:27Z</time>
      </trkpt>
      <trkpt lat="43.93395" lon="1.94891">
        <ele>276.8</ele>
        <time>2021-03-21T15:44:28Z</time>
      </trkpt>
      <trkpt lat="43.93386" lon="1.94887">
        <ele>276.8</ele>
        <time>2021-03-21T15:44:30Z</time>
      </trkpt>
      <trkpt lat="43.93382" lon="1.94886">
        <ele>276.6</ele>
        <time>2021-03-21T15:44:31Z</time>
      </trkpt>
      <trkpt lat="43.93377" lon="1.94884">
        <ele>276.6</ele>
        <time>2021-03-21T15:44:32Z</time>
      </trkpt>
      <trkpt lat="43.93371" lon="1.94883">
        <ele>276.6</ele>
        <time>2021-03-21T15:44:33Z</time>
      </trkpt>
      <trkpt lat="43.93366" lon="1.94881">
        <ele>276.4</ele>
        <time>2021-03-21T15:44:34Z</time>
      </trkpt>
      <trkpt lat="43.93361" lon="1.9488">
        <ele>276.4</ele>
        <time>2021-03-21T15:44:35Z</time>
      </trkpt>
      <trkpt lat="43.93355" lon="1.94877">
        <ele>276.2</ele>
        <time>2021-03-21T15:44:36Z</time>
      </trkpt>
      <trkpt lat="43.9335" lon="1.94874">
        <ele>276</ele>
        <time>2021-03-21T15:44:37Z</time>
      </trkpt>
      <trkpt lat="43.93345" lon="1.94872">
        <ele>276</ele>
        <time>2021-03-21T15:44:38Z</time>
      </trkpt>
      <trkpt lat="43.93339" lon="1.94869">
        <ele>275.8</ele>
        <time>2021-03-21T15:44:39Z</time>
      </trkpt>
      <trkpt lat="43.93334" lon="1.94866">
        <ele>275.6</ele>
        <time>2021-03-21T15:44:40Z</time>
      </trkpt>
      <trkpt lat="43.93328" lon="1.94863">
        <ele>275.4</ele>
        <time>2021-03-21T15:44:41Z</time>
      </trkpt>
      <trkpt lat="43.93323" lon="1.94861">
        <ele>275.4</ele>
        <time>2021-03-21T15:44:42Z</time>
      </trkpt>
      <trkpt lat="43.93317" lon="1.94858">
        <ele>275.2</ele>
        <time>2021-03-21T15:44:43Z</time>
      </trkpt>
      <trkpt lat="43.93312" lon="1.94856">
        <ele>275.4</ele>
        <time>2021-03-21T15:44:44Z</time>
      </trkpt>
      <trkpt lat="43.933" lon="1.94851">
        <ele>275.2</ele>
        <time>2021-03-21T15:44:46Z</time>
      </trkpt>
      <trkpt lat="43.93295" lon="1.94849">
        <ele>275.2</ele>
        <time>2021-03-21T15:44:47Z</time>
      </trkpt>
      <trkpt lat="43.93289" lon="1.94848">
        <ele>275.2</ele>
        <time>2021-03-21T15:44:48Z</time>
      </trkpt>
      <trkpt lat="43.93283" lon="1.94846">
        <ele>275.2</ele>
        <time>2021-03-21T15:44:49Z</time>
      </trkpt>
      <trkpt lat="43.93277" lon="1.94844">
        <ele>275</ele>
        <time>2021-03-21T15:44:50Z</time>
      </trkpt>
      <trkpt lat="43.93271" lon="1.94843">
        <ele>275.2</ele>
        <time>2021-03-21T15:44:51Z</time>
      </trkpt>
      <trkpt lat="43.93265" lon="1.94842">
        <ele>275.2</ele>
        <time>2021-03-21T15:44:52Z</time>
      </trkpt>
      <trkpt lat="43.9326" lon="1.94841">
        <ele>275.2</ele>
        <time>2021-03-21T15:44:53Z</time>
      </trkpt>
      <trkpt lat="43.93254" lon="1.9484">
        <ele>275.2</ele>
        <time>2021-03-21T15:44:54Z</time>
      </trkpt>
      <trkpt lat="43.93248" lon="1.94839">
        <ele>275.2</ele>
        <time>2021-03-21T15:44:55Z</time>
      </trkpt>
      <trkpt lat="43.93243" lon="1.94838">
        <ele>275.2</ele>
        <time>2021-03-21T15:44:56Z</time>
      </trkpt>
      <trkpt lat="43.93237" lon="1.94837">
        <ele>275.2</ele>
        <time>2021-03-21T15:44:57Z</time>
      </trkpt>
      <trkpt lat="43.93232" lon="1.94836">
        <ele>275</ele>
        <time>2021-03-21T15:44:58Z</time>
      </trkpt>
      <trkpt lat="43.93226" lon="1.94836">
        <ele>275.2</ele>
        <time>2021-03-21T15:44:59Z</time>
      </trkpt>
      <trkpt lat="43.93221" lon="1.94836">
        <ele>275</ele>
        <time>2021-03-21T15:45:00Z</time>
      </trkpt>
      <trkpt lat="43.93217" lon="1.94836">
        <ele>275</ele>
        <time>2021-03-21T15:45:01Z</time>
      </trkpt>
      <trkpt lat="43.93212" lon="1.94837">
        <ele>275</ele>
        <time>2021-03-21T15:45:02Z</time>
      </trkpt>
      <trkpt lat="43.93207" lon="1.94836">
        <ele>275.2</ele>
        <time>2021-03-21T15:45:03Z</time>
      </trkpt>
      <trkpt lat="43.93202" lon="1.94837">
        <ele>275</ele>
        <time>2021-03-21T15:45:04Z</time>
      </trkpt>
      <trkpt lat="43.93196" lon="1.94837">
        <ele>275</ele>
        <time>2021-03-21T15:45:05Z</time>
      </trkpt>
      <trkpt lat="43.9319" lon="1.94837">
        <ele>275.2</ele>
        <time>2021-03-21T15:45:06Z</time>
      </trkpt>
      <trkpt lat="43.93185" lon="1.94838">
        <ele>275.4</ele>
        <time>2021-03-21T15:45:07Z</time>
      </trkpt>
      <trkpt lat="43.93179" lon="1.94838">
        <ele>275.2</ele>
        <time>2021-03-21T15:45:08Z</time>
      </trkpt>
      <trkpt lat="43.93173" lon="1.94839">
        <ele>275</ele>
        <time>2021-03-21T15:45:09Z</time>
      </trkpt>
      <trkpt lat="43.93167" lon="1.9484">
        <ele>275.2</ele>
        <time>2021-03-21T15:45:10Z</time>
      </trkpt>
      <trkpt lat="43.93161" lon="1.94842">
        <ele>275.2</ele>
        <time>2021-03-21T15:45:11Z</time>
      </trkpt>
      <trkpt lat="43.93155" lon="1.94843">
        <ele>275</ele>
        <time>2021-03-21T15:45:12Z</time>
      </trkpt>
      <trkpt lat="43.9315" lon="1.94845">
        <ele>275</ele>
        <time>2021-03-21T15:45:13Z</time>
      </trkpt>
      <trkpt lat="43.93144" lon="1.94846">
        <ele>274.8</ele>
        <time>2021-03-21T15:45:14Z</time>
      </trkpt>
      <trkpt lat="43.93138" lon="1.94848">
        <ele>274.8</ele>
        <time>2021-03-21T15:45:15Z</time>
      </trkpt>
      <trkpt lat="43.93133" lon="1.94849">
        <ele>275</ele>
        <time>2021-03-21T15:45:16Z</time>
      </trkpt>
      <trkpt lat="43.93127" lon="1.9485">
        <ele>275</ele>
        <time>2021-03-21T15:45:17Z</time>
      </trkpt>
      <trkpt lat="43.93122" lon="1.94851">
        <ele>275</ele>
        <time>2021-03-21T15:45:18Z</time>
      </trkpt>
      <trkpt lat="43.93117" lon="1.94853">
        <ele>275</ele>
        <time>2021-03-21T15:45:19Z</time>
      </trkpt>
      <trkpt lat="43.93112" lon="1.94854">
        <ele>275.2</ele>
        <time>2021-03-21T15:45:20Z</time>
      </trkpt>
      <trkpt lat="43.93107" lon="1.94856">
        <ele>275.2</ele>
        <time>2021-03-21T15:45:21Z</time>
      </trkpt>
      <trkpt lat="43.93102" lon="1.94857">
        <ele>275.2</ele>
        <time>2021-03-21T15:45:22Z</time>
      </trkpt>
      <trkpt lat="43.93097" lon="1.94859">
        <ele>275</ele>
        <time>2021-03-21T15:45:23Z</time>
      </trkpt>
      <trkpt lat="43.93091" lon="1.9486">
        <ele>275</ele>
        <time>2021-03-21T15:45:24Z</time>
      </trkpt>
      <trkpt lat="43.93085" lon="1.94862">
        <ele>275</ele>
        <time>2021-03-21T15:45:25Z</time>
      </trkpt>
      <trkpt lat="43.93079" lon="1.94863">
        <ele>274.8</ele>
        <time>2021-03-21T15:45:26Z</time>
      </trkpt>
      <trkpt lat="43.93073" lon="1.94865">
        <ele>275</ele>
        <time>2021-03-21T15:45:27Z</time>
      </trkpt>
      <trkpt lat="43.93066" lon="1.94867">
        <ele>274.8</ele>
        <time>2021-03-21T15:45:28Z</time>
      </trkpt>
      <trkpt lat="43.9306" lon="1.9487">
        <ele>274.8</ele>
        <time>2021-03-21T15:45:29Z</time>
      </trkpt>
      <trkpt lat="43.93054" lon="1.94872">
        <ele>274.8</ele>
        <time>2021-03-21T15:45:30Z</time>
      </trkpt>
      <trkpt lat="43.93047" lon="1.94875">
        <ele>274.8</ele>
        <time>2021-03-21T15:45:31Z</time>
      </trkpt>
      <trkpt lat="43.93041" lon="1.94878">
        <ele>274.8</ele>
        <time>2021-03-21T15:45:32Z</time>
      </trkpt>
      <trkpt lat="43.93034" lon="1.94882">
        <ele>274.8</ele>
        <time>2021-03-21T15:45:33Z</time>
      </trkpt>
      <trkpt lat="43.93029" lon="1.94887">
        <ele>274.8</ele>
        <time>2021-03-21T15:45:34Z</time>
      </trkpt>
      <trkpt lat="43.93017" lon="1.94898">
        <ele>274.8</ele>
        <time>2021-03-21T15:45:36Z</time>
      </trkpt>
      <trkpt lat="43.93012" lon="1.94904">
        <ele>274.6</ele>
        <time>2021-03-21T15:45:37Z</time>
      </trkpt>
      <trkpt lat="43.93006" lon="1.9491">
        <ele>274.6</ele>
        <time>2021-03-21T15:45:38Z</time>
      </trkpt>
      <trkpt lat="43.93001" lon="1.94916">
        <ele>274.6</ele>
        <time>2021-03-21T15:45:39Z</time>
      </trkpt>
      <trkpt lat="43.92995" lon="1.94922">
        <ele>274.6</ele>
        <time>2021-03-21T15:45:40Z</time>
      </trkpt>
      <trkpt lat="43.92989" lon="1.94928">
        <ele>274.4</ele>
        <time>2021-03-21T15:45:41Z</time>
      </trkpt>
      <trkpt lat="43.92984" lon="1.94934">
        <ele>274.4</ele>
        <time>2021-03-21T15:45:42Z</time>
      </trkpt>
      <trkpt lat="43.92973" lon="1.94947">
        <ele>274.2</ele>
        <time>2021-03-21T15:45:44Z</time>
      </trkpt>
      <trkpt lat="43.92967" lon="1.94954">
        <ele>274.2</ele>
        <time>2021-03-21T15:45:45Z</time>
      </trkpt>
      <trkpt lat="43.92962" lon="1.9496">
        <ele>274.4</ele>
        <time>2021-03-21T15:45:46Z</time>
      </trkpt>
      <trkpt lat="43.92957" lon="1.94967">
        <ele>274.4</ele>
        <time>2021-03-21T15:45:47Z</time>
      </trkpt>
      <trkpt lat="43.92952" lon="1.94974">
        <ele>274.4</ele>
        <time>2021-03-21T15:45:48Z</time>
      </trkpt>
      <trkpt lat="43.92947" lon="1.94981">
        <ele>274.2</ele>
        <time>2021-03-21T15:45:49Z</time>
      </trkpt>
      <trkpt lat="43.92942" lon="1.94989">
        <ele>274.2</ele>
        <time>2021-03-21T15:45:50Z</time>
      </trkpt>
      <trkpt lat="43.92938" lon="1.94996">
        <ele>274.2</ele>
        <time>2021-03-21T15:45:51Z</time>
      </trkpt>
      <trkpt lat="43.92933" lon="1.95004">
        <ele>274.2</ele>
        <time>2021-03-21T15:45:52Z</time>
      </trkpt>
      <trkpt lat="43.92928" lon="1.95011">
        <ele>274.2</ele>
        <time>2021-03-21T15:45:53Z</time>
      </trkpt>
      <trkpt lat="43.92923" lon="1.95018">
        <ele>274.2</ele>
        <time>2021-03-21T15:45:54Z</time>
      </trkpt>
      <trkpt lat="43.92918" lon="1.95025">
        <ele>274</ele>
        <time>2021-03-21T15:45:55Z</time>
      </trkpt>
      <trkpt lat="43.92913" lon="1.95032">
        <ele>274</ele>
        <time>2021-03-21T15:45:56Z</time>
      </trkpt>
      <trkpt lat="43.92908" lon="1.95038">
        <ele>273.8</ele>
        <time>2021-03-21T15:45:57Z</time>
      </trkpt>
      <trkpt lat="43.92902" lon="1.95043">
        <ele>273.8</ele>
        <time>2021-03-21T15:45:58Z</time>
      </trkpt>
      <trkpt lat="43.92895" lon="1.95047">
        <ele>273.8</ele>
        <time>2021-03-21T15:45:59Z</time>
      </trkpt>
      <trkpt lat="43.92889" lon="1.95051">
        <ele>273.8</ele>
        <time>2021-03-21T15:46:00Z</time>
      </trkpt>
      <trkpt lat="43.92882" lon="1.95054">
        <ele>273.8</ele>
        <time>2021-03-21T15:46:01Z</time>
      </trkpt>
      <trkpt lat="43.92876" lon="1.95056">
        <ele>273.8</ele>
        <time>2021-03-21T15:46:02Z</time>
      </trkpt>
      <trkpt lat="43.92869" lon="1.95058">
        <ele>273.6</ele>
        <time>2021-03-21T15:46:03Z</time>
      </trkpt>
      <trkpt lat="43.92863" lon="1.95059">
        <ele>273.8</ele>
        <time>2021-03-21T15:46:04Z</time>
      </trkpt>
      <trkpt lat="43.92856" lon="1.95061">
        <ele>273.8</ele>
        <time>2021-03-21T15:46:05Z</time>
      </trkpt>
      <trkpt lat="43.92849" lon="1.95062">
        <ele>273.6</ele>
        <time>2021-03-21T15:46:06Z</time>
      </trkpt>
      <trkpt lat="43.92842" lon="1.95063">
        <ele>273.6</ele>
        <time>2021-03-21T15:46:07Z</time>
      </trkpt>
      <trkpt lat="43.92835" lon="1.95064">
        <ele>273.6</ele>
        <time>2021-03-21T15:46:08Z</time>
      </trkpt>
      <trkpt lat="43.92828" lon="1.95066">
        <ele>273.6</ele>
        <time>2021-03-21T15:46:09Z</time>
      </trkpt>
      <trkpt lat="43.92822" lon="1.95067">
        <ele>273.4</ele>
        <time>2021-03-21T15:46:10Z</time>
      </trkpt>
      <trkpt lat="43.92815" lon="1.95069">
        <ele>273.6</ele>
        <time>2021-03-21T15:46:11Z</time>
      </trkpt>
      <trkpt lat="43.92809" lon="1.9507">
        <ele>273.4</ele>
        <time>2021-03-21T15:46:12Z</time>
      </trkpt>
      <trkpt lat="43.92802" lon="1.95071">
        <ele>273.4</ele>
        <time>2021-03-21T15:46:13Z</time>
      </trkpt>
      <trkpt lat="43.92796" lon="1.95072">
        <ele>273.2</ele>
        <time>2021-03-21T15:46:14Z</time>
      </trkpt>
      <trkpt lat="43.9279" lon="1.95073">
        <ele>273</ele>
        <time>2021-03-21T15:46:15Z</time>
      </trkpt>
      <trkpt lat="43.92783" lon="1.95074">
        <ele>272.8</ele>
        <time>2021-03-21T15:46:16Z</time>
      </trkpt>
      <trkpt lat="43.92777" lon="1.95076">
        <ele>272.8</ele>
        <time>2021-03-21T15:46:17Z</time>
      </trkpt>
      <trkpt lat="43.9277" lon="1.95077">
        <ele>272.8</ele>
        <time>2021-03-21T15:46:18Z</time>
      </trkpt>
      <trkpt lat="43.92764" lon="1.95078">
        <ele>272.8</ele>
        <time>2021-03-21T15:46:19Z</time>
      </trkpt>
      <trkpt lat="43.92757" lon="1.95079">
        <ele>273</ele>
        <time>2021-03-21T15:46:20Z</time>
      </trkpt>
      <trkpt lat="43.92751" lon="1.9508">
        <ele>273</ele>
        <time>2021-03-21T15:46:21Z</time>
      </trkpt>
      <trkpt lat="43.92744" lon="1.95081">
        <ele>273</ele>
        <time>2021-03-21T15:46:22Z</time>
      </trkpt>
      <trkpt lat="43.92737" lon="1.95082">
        <ele>273</ele>
        <time>2021-03-21T15:46:23Z</time>
      </trkpt>
      <trkpt lat="43.92731" lon="1.95083">
        <ele>272.8</ele>
        <time>2021-03-21T15:46:24Z</time>
      </trkpt>
      <trkpt lat="43.92724" lon="1.95085">
        <ele>273</ele>
        <time>2021-03-21T15:46:25Z</time>
      </trkpt>
      <trkpt lat="43.9271" lon="1.95087">
        <ele>273</ele>
        <time>2021-03-21T15:46:27Z</time>
      </trkpt>
      <trkpt lat="43.92704" lon="1.95088">
        <ele>272.8</ele>
        <time>2021-03-21T15:46:28Z</time>
      </trkpt>
      <trkpt lat="43.92697" lon="1.95089">
        <ele>272.8</ele>
        <time>2021-03-21T15:46:29Z</time>
      </trkpt>
      <trkpt lat="43.9269" lon="1.95089">
        <ele>272.8</ele>
        <time>2021-03-21T15:46:30Z</time>
      </trkpt>
      <trkpt lat="43.92683" lon="1.9509">
        <ele>272.8</ele>
        <time>2021-03-21T15:46:31Z</time>
      </trkpt>
      <trkpt lat="43.92676" lon="1.95091">
        <ele>272.8</ele>
        <time>2021-03-21T15:46:32Z</time>
      </trkpt>
      <trkpt lat="43.92669" lon="1.95092">
        <ele>273</ele>
        <time>2021-03-21T15:46:33Z</time>
      </trkpt>
      <trkpt lat="43.92662" lon="1.95092">
        <ele>272.8</ele>
        <time>2021-03-21T15:46:34Z</time>
      </trkpt>
      <trkpt lat="43.92655" lon="1.95092">
        <ele>273</ele>
        <time>2021-03-21T15:46:35Z</time>
      </trkpt>
      <trkpt lat="43.92648" lon="1.95092">
        <ele>272.8</ele>
        <time>2021-03-21T15:46:36Z</time>
      </trkpt>
      <trkpt lat="43.9264" lon="1.95091">
        <ele>272.8</ele>
        <time>2021-03-21T15:46:37Z</time>
      </trkpt>
      <trkpt lat="43.92633" lon="1.95089">
        <ele>272.8</ele>
        <time>2021-03-21T15:46:38Z</time>
      </trkpt>
      <trkpt lat="43.92626" lon="1.95088">
        <ele>272.8</ele>
        <time>2021-03-21T15:46:39Z</time>
      </trkpt>
      <trkpt lat="43.92619" lon="1.95086">
        <ele>272.8</ele>
        <time>2021-03-21T15:46:40Z</time>
      </trkpt>
      <trkpt lat="43.92613" lon="1.95084">
        <ele>272.8</ele>
        <time>2021-03-21T15:46:41Z</time>
      </trkpt>
      <trkpt lat="43.92606" lon="1.9508">
        <ele>272.8</ele>
        <time>2021-03-21T15:46:42Z</time>
      </trkpt>
      <trkpt lat="43.926" lon="1.95075">
        <ele>272.4</ele>
        <time>2021-03-21T15:46:43Z</time>
      </trkpt>
      <trkpt lat="43.92595" lon="1.9507">
        <ele>272</ele>
        <time>2021-03-21T15:46:44Z</time>
      </trkpt>
      <trkpt lat="43.9259" lon="1.95063">
        <ele>271.8</ele>
        <time>2021-03-21T15:46:45Z</time>
      </trkpt>
      <trkpt lat="43.92585" lon="1.95056">
        <ele>271.6</ele>
        <time>2021-03-21T15:46:46Z</time>
      </trkpt>
      <trkpt lat="43.92581" lon="1.95049">
        <ele>271.6</ele>
        <time>2021-03-21T15:46:47Z</time>
      </trkpt>
      <trkpt lat="43.92576" lon="1.95042">
        <ele>271.4</ele>
        <time>2021-03-21T15:46:48Z</time>
      </trkpt>
      <trkpt lat="43.92568" lon="1.95027">
        <ele>271.4</ele>
        <time>2021-03-21T15:46:50Z</time>
      </trkpt>
      <trkpt lat="43.92563" lon="1.9502">
        <ele>271.4</ele>
        <time>2021-03-21T15:46:51Z</time>
      </trkpt>
      <trkpt lat="43.92559" lon="1.95013">
        <ele>271.2</ele>
        <time>2021-03-21T15:46:52Z</time>
      </trkpt>
      <trkpt lat="43.92555" lon="1.95006">
        <ele>271.2</ele>
        <time>2021-03-21T15:46:53Z</time>
      </trkpt>
      <trkpt lat="43.92551" lon="1.94999">
        <ele>271.2</ele>
        <time>2021-03-21T15:46:54Z</time>
      </trkpt>
      <trkpt lat="43.92547" lon="1.94993">
        <ele>271</ele>
        <time>2021-03-21T15:46:55Z</time>
      </trkpt>
      <trkpt lat="43.92543" lon="1.94986">
        <ele>271</ele>
        <time>2021-03-21T15:46:56Z</time>
      </trkpt>
      <trkpt lat="43.92539" lon="1.9498">
        <ele>270.8</ele>
        <time>2021-03-21T15:46:57Z</time>
      </trkpt>
      <trkpt lat="43.92534" lon="1.94974">
        <ele>270.8</ele>
        <time>2021-03-21T15:46:58Z</time>
      </trkpt>
      <trkpt lat="43.92525" lon="1.94962">
        <ele>271</ele>
        <time>2021-03-21T15:47:00Z</time>
      </trkpt>
      <trkpt lat="43.92521" lon="1.94956">
        <ele>271</ele>
        <time>2021-03-21T15:47:01Z</time>
      </trkpt>
      <trkpt lat="43.92516" lon="1.94951">
        <ele>270.8</ele>
        <time>2021-03-21T15:47:02Z</time>
      </trkpt>
      <trkpt lat="43.92511" lon="1.94947">
        <ele>270.8</ele>
        <time>2021-03-21T15:47:03Z</time>
      </trkpt>
      <trkpt lat="43.925" lon="1.94938">
        <ele>270.6</ele>
        <time>2021-03-21T15:47:05Z</time>
      </trkpt>
      <trkpt lat="43.92495" lon="1.94934">
        <ele>270.6</ele>
        <time>2021-03-21T15:47:06Z</time>
      </trkpt>
      <trkpt lat="43.9249" lon="1.94929">
        <ele>270.6</ele>
        <time>2021-03-21T15:47:07Z</time>
      </trkpt>
      <trkpt lat="43.92485" lon="1.94925">
        <ele>270.6</ele>
        <time>2021-03-21T15:47:08Z</time>
      </trkpt>
      <trkpt lat="43.92479" lon="1.94921">
        <ele>270.6</ele>
        <time>2021-03-21T15:47:09Z</time>
      </trkpt>
      <trkpt lat="43.92474" lon="1.94918">
        <ele>270.6</ele>
        <time>2021-03-21T15:47:10Z</time>
      </trkpt>
      <trkpt lat="43.92469" lon="1.94914">
        <ele>270.6</ele>
        <time>2021-03-21T15:47:11Z</time>
      </trkpt>
      <trkpt lat="43.92464" lon="1.9491">
        <ele>270.6</ele>
        <time>2021-03-21T15:47:12Z</time>
      </trkpt>
      <trkpt lat="43.92459" lon="1.94907">
        <ele>270.8</ele>
        <time>2021-03-21T15:47:13Z</time>
      </trkpt>
      <trkpt lat="43.92454" lon="1.94904">
        <ele>270.8</ele>
        <time>2021-03-21T15:47:14Z</time>
      </trkpt>
      <trkpt lat="43.9245" lon="1.94901">
        <ele>270.6</ele>
        <time>2021-03-21T15:47:15Z</time>
      </trkpt>
      <trkpt lat="43.92445" lon="1.94899">
        <ele>270.6</ele>
        <time>2021-03-21T15:47:16Z</time>
      </trkpt>
      <trkpt lat="43.92435" lon="1.94893">
        <ele>271</ele>
        <time>2021-03-21T15:47:18Z</time>
      </trkpt>
      <trkpt lat="43.9243" lon="1.94889">
        <ele>271</ele>
        <time>2021-03-21T15:47:19Z</time>
      </trkpt>
      <trkpt lat="43.92425" lon="1.94886">
        <ele>271</ele>
        <time>2021-03-21T15:47:20Z</time>
      </trkpt>
      <trkpt lat="43.9242" lon="1.94882">
        <ele>271</ele>
        <time>2021-03-21T15:47:21Z</time>
      </trkpt>
      <trkpt lat="43.92415" lon="1.94879">
        <ele>271</ele>
        <time>2021-03-21T15:47:22Z</time>
      </trkpt>
      <trkpt lat="43.92409" lon="1.94875">
        <ele>271</ele>
        <time>2021-03-21T15:47:23Z</time>
      </trkpt>
      <trkpt lat="43.92404" lon="1.94871">
        <ele>271</ele>
        <time>2021-03-21T15:47:24Z</time>
      </trkpt>
      <trkpt lat="43.92399" lon="1.94867">
        <ele>271.2</ele>
        <time>2021-03-21T15:47:25Z</time>
      </trkpt>
      <trkpt lat="43.92394" lon="1.94863">
        <ele>271.2</ele>
        <time>2021-03-21T15:47:26Z</time>
      </trkpt>
      <trkpt lat="43.92389" lon="1.94858">
        <ele>271.4</ele>
        <time>2021-03-21T15:47:27Z</time>
      </trkpt>
      <trkpt lat="43.92384" lon="1.94853">
        <ele>271.4</ele>
        <time>2021-03-21T15:47:28Z</time>
      </trkpt>
      <trkpt lat="43.92379" lon="1.94848">
        <ele>271.4</ele>
        <time>2021-03-21T15:47:29Z</time>
      </trkpt>
      <trkpt lat="43.92374" lon="1.94843">
        <ele>271.6</ele>
        <time>2021-03-21T15:47:30Z</time>
      </trkpt>
      <trkpt lat="43.92369" lon="1.94837">
        <ele>271.4</ele>
        <time>2021-03-21T15:47:31Z</time>
      </trkpt>
      <trkpt lat="43.92364" lon="1.94832">
        <ele>271.6</ele>
        <time>2021-03-21T15:47:32Z</time>
      </trkpt>
      <trkpt lat="43.92359" lon="1.94827">
        <ele>271.6</ele>
        <time>2021-03-21T15:47:33Z</time>
      </trkpt>
      <trkpt lat="43.92354" lon="1.94822">
        <ele>271.6</ele>
        <time>2021-03-21T15:47:34Z</time>
      </trkpt>
      <trkpt lat="43.92349" lon="1.94816">
        <ele>271.6</ele>
        <time>2021-03-21T15:47:35Z</time>
      </trkpt>
      <trkpt lat="43.92345" lon="1.94811">
        <ele>271.6</ele>
        <time>2021-03-21T15:47:36Z</time>
      </trkpt>
      <trkpt lat="43.9234" lon="1.94806">
        <ele>271.6</ele>
        <time>2021-03-21T15:47:37Z</time>
      </trkpt>
      <trkpt lat="43.92331" lon="1.94795">
        <ele>271.6</ele>
        <time>2021-03-21T15:47:39Z</time>
      </trkpt>
      <trkpt lat="43.92326" lon="1.94789">
        <ele>271.4</ele>
        <time>2021-03-21T15:47:40Z</time>
      </trkpt>
      <trkpt lat="43.92321" lon="1.94784">
        <ele>271.6</ele>
        <time>2021-03-21T15:47:41Z</time>
      </trkpt>
      <trkpt lat="43.92317" lon="1.94779">
        <ele>271.4</ele>
        <time>2021-03-21T15:47:42Z</time>
      </trkpt>
      <trkpt lat="43.92307" lon="1.94769">
        <ele>271.4</ele>
        <time>2021-03-21T15:47:44Z</time>
      </trkpt>
      <trkpt lat="43.92302" lon="1.94764">
        <ele>271.4</ele>
        <time>2021-03-21T15:47:45Z</time>
      </trkpt>
      <trkpt lat="43.92292" lon="1.94755">
        <ele>271.2</ele>
        <time>2021-03-21T15:47:47Z</time>
      </trkpt>
      <trkpt lat="43.92286" lon="1.9475">
        <ele>270.8</ele>
        <time>2021-03-21T15:47:48Z</time>
      </trkpt>
      <trkpt lat="43.92281" lon="1.94746">
        <ele>270.8</ele>
        <time>2021-03-21T15:47:49Z</time>
      </trkpt>
      <trkpt lat="43.92276" lon="1.94741">
        <ele>270.8</ele>
        <time>2021-03-21T15:47:50Z</time>
      </trkpt>
      <trkpt lat="43.9227" lon="1.94737">
        <ele>270.8</ele>
        <time>2021-03-21T15:47:51Z</time>
      </trkpt>
      <trkpt lat="43.92265" lon="1.94733">
        <ele>270.8</ele>
        <time>2021-03-21T15:47:52Z</time>
      </trkpt>
      <trkpt lat="43.92259" lon="1.94728">
        <ele>270.8</ele>
        <time>2021-03-21T15:47:53Z</time>
      </trkpt>
      <trkpt lat="43.92254" lon="1.94724">
        <ele>270.8</ele>
        <time>2021-03-21T15:47:54Z</time>
      </trkpt>
      <trkpt lat="43.92249" lon="1.94719">
        <ele>270.8</ele>
        <time>2021-03-21T15:47:55Z</time>
      </trkpt>
      <trkpt lat="43.92244" lon="1.94715">
        <ele>270.6</ele>
        <time>2021-03-21T15:47:56Z</time>
      </trkpt>
      <trkpt lat="43.92238" lon="1.94711">
        <ele>270.6</ele>
        <time>2021-03-21T15:47:57Z</time>
      </trkpt>
      <trkpt lat="43.92233" lon="1.94705">
        <ele>270.6</ele>
        <time>2021-03-21T15:47:58Z</time>
      </trkpt>
      <trkpt lat="43.92228" lon="1.947">
        <ele>270.6</ele>
        <time>2021-03-21T15:47:59Z</time>
      </trkpt>
      <trkpt lat="43.92223" lon="1.94694">
        <ele>270.6</ele>
        <time>2021-03-21T15:48:00Z</time>
      </trkpt>
      <trkpt lat="43.92212" lon="1.94683">
        <ele>270.4</ele>
        <time>2021-03-21T15:48:02Z</time>
      </trkpt>
      <trkpt lat="43.92207" lon="1.94678">
        <ele>270.2</ele>
        <time>2021-03-21T15:48:03Z</time>
      </trkpt>
      <trkpt lat="43.92201" lon="1.94672">
        <ele>270.2</ele>
        <time>2021-03-21T15:48:04Z</time>
      </trkpt>
      <trkpt lat="43.92196" lon="1.94667">
        <ele>270</ele>
        <time>2021-03-21T15:48:05Z</time>
      </trkpt>
      <trkpt lat="43.92191" lon="1.94662">
        <ele>270</ele>
        <time>2021-03-21T15:48:06Z</time>
      </trkpt>
      <trkpt lat="43.92185" lon="1.94657">
        <ele>269.8</ele>
        <time>2021-03-21T15:48:07Z</time>
      </trkpt>
      <trkpt lat="43.92179" lon="1.94652">
        <ele>269.8</ele>
        <time>2021-03-21T15:48:08Z</time>
      </trkpt>
      <trkpt lat="43.92174" lon="1.94647">
        <ele>269.8</ele>
        <time>2021-03-21T15:48:09Z</time>
      </trkpt>
      <trkpt lat="43.9217" lon="1.94643">
        <ele>269.8</ele>
        <time>2021-03-21T15:48:10Z</time>
      </trkpt>
      <trkpt lat="43.92165" lon="1.94639">
        <ele>269.8</ele>
        <time>2021-03-21T15:48:11Z</time>
      </trkpt>
      <trkpt lat="43.9216" lon="1.94635">
        <ele>269.8</ele>
        <time>2021-03-21T15:48:12Z</time>
      </trkpt>
      <trkpt lat="43.92156" lon="1.9463">
        <ele>269.4</ele>
        <time>2021-03-21T15:48:13Z</time>
      </trkpt>
      <trkpt lat="43.92152" lon="1.94626">
        <ele>269.6</ele>
        <time>2021-03-21T15:48:14Z</time>
      </trkpt>
      <trkpt lat="43.92147" lon="1.94621">
        <ele>269.2</ele>
        <time>2021-03-21T15:48:15Z</time>
      </trkpt>
      <trkpt lat="43.92144" lon="1.94616">
        <ele>268.8</ele>
        <time>2021-03-21T15:48:16Z</time>
      </trkpt>
      <trkpt lat="43.92142" lon="1.94611">
        <ele>268.8</ele>
        <time>2021-03-21T15:48:17Z</time>
      </trkpt>
      <trkpt lat="43.92141" lon="1.94604">
        <ele>268.8</ele>
        <time>2021-03-21T15:48:18Z</time>
      </trkpt>
      <trkpt lat="43.92142" lon="1.94598">
        <ele>268.8</ele>
        <time>2021-03-21T15:48:19Z</time>
      </trkpt>
      <trkpt lat="43.92144" lon="1.94591">
        <ele>268.6</ele>
        <time>2021-03-21T15:48:20Z</time>
      </trkpt>
      <trkpt lat="43.92146" lon="1.94585">
        <ele>268.6</ele>
        <time>2021-03-21T15:48:21Z</time>
      </trkpt>
      <trkpt lat="43.9215" lon="1.94579">
        <ele>268.4</ele>
        <time>2021-03-21T15:48:22Z</time>
      </trkpt>
      <trkpt lat="43.92154" lon="1.94573">
        <ele>268.6</ele>
        <time>2021-03-21T15:48:23Z</time>
      </trkpt>
      <trkpt lat="43.92158" lon="1.94567">
        <ele>268.4</ele>
        <time>2021-03-21T15:48:24Z</time>
      </trkpt>
      <trkpt lat="43.92162" lon="1.94562">
        <ele>268.2</ele>
        <time>2021-03-21T15:48:25Z</time>
      </trkpt>
      <trkpt lat="43.92166" lon="1.94555">
        <ele>268.2</ele>
        <time>2021-03-21T15:48:26Z</time>
      </trkpt>
      <trkpt lat="43.92169" lon="1.9455">
        <ele>268.2</ele>
        <time>2021-03-21T15:48:27Z</time>
      </trkpt>
      <trkpt lat="43.92173" lon="1.94544">
        <ele>268</ele>
        <time>2021-03-21T15:48:28Z</time>
      </trkpt>
      <trkpt lat="43.92176" lon="1.94538">
        <ele>268</ele>
        <time>2021-03-21T15:48:29Z</time>
      </trkpt>
      <trkpt lat="43.9218" lon="1.94532">
        <ele>268</ele>
        <time>2021-03-21T15:48:30Z</time>
      </trkpt>
      <trkpt lat="43.92183" lon="1.94527">
        <ele>267.8</ele>
        <time>2021-03-21T15:48:31Z</time>
      </trkpt>
      <trkpt lat="43.92187" lon="1.94522">
        <ele>267.8</ele>
        <time>2021-03-21T15:48:32Z</time>
      </trkpt>
      <trkpt lat="43.9219" lon="1.94516">
        <ele>267.8</ele>
        <time>2021-03-21T15:48:33Z</time>
      </trkpt>
      <trkpt lat="43.92193" lon="1.94511">
        <ele>267.6</ele>
        <time>2021-03-21T15:48:34Z</time>
      </trkpt>
      <trkpt lat="43.92196" lon="1.94506">
        <ele>267.6</ele>
        <time>2021-03-21T15:48:35Z</time>
      </trkpt>
      <trkpt lat="43.92199" lon="1.94502">
        <ele>267.6</ele>
        <time>2021-03-21T15:48:36Z</time>
      </trkpt>
      <trkpt lat="43.92203" lon="1.94498">
        <ele>267.6</ele>
        <time>2021-03-21T15:48:37Z</time>
      </trkpt>
      <trkpt lat="43.92206" lon="1.94494">
        <ele>267.6</ele>
        <time>2021-03-21T15:48:38Z</time>
      </trkpt>
      <trkpt lat="43.92209" lon="1.9449">
        <ele>267.8</ele>
        <time>2021-03-21T15:48:39Z</time>
      </trkpt>
      <trkpt lat="43.92212" lon="1.94486">
        <ele>267.6</ele>
        <time>2021-03-21T15:48:40Z</time>
      </trkpt>
      <trkpt lat="43.92215" lon="1.94482">
        <ele>267.8</ele>
        <time>2021-03-21T15:48:41Z</time>
      </trkpt>
      <trkpt lat="43.92218" lon="1.94477">
        <ele>267.6</ele>
        <time>2021-03-21T15:48:42Z</time>
      </trkpt>
      <trkpt lat="43.92221" lon="1.94473">
        <ele>268</ele>
        <time>2021-03-21T15:48:43Z</time>
      </trkpt>
      <trkpt lat="43.92224" lon="1.94468">
        <ele>267.8</ele>
        <time>2021-03-21T15:48:44Z</time>
      </trkpt>
      <trkpt lat="43.92226" lon="1.94464">
        <ele>268</ele>
        <time>2021-03-21T15:48:45Z</time>
      </trkpt>
      <trkpt lat="43.92229" lon="1.94459">
        <ele>268</ele>
        <time>2021-03-21T15:48:46Z</time>
      </trkpt>
      <trkpt lat="43.92232" lon="1.94454">
        <ele>268</ele>
        <time>2021-03-21T15:48:47Z</time>
      </trkpt>
      <trkpt lat="43.92234" lon="1.94449">
        <ele>268</ele>
        <time>2021-03-21T15:48:48Z</time>
      </trkpt>
      <trkpt lat="43.92237" lon="1.94445">
        <ele>268.2</ele>
        <time>2021-03-21T15:48:49Z</time>
      </trkpt>
      <trkpt lat="43.9224" lon="1.94439">
        <ele>268.2</ele>
        <time>2021-03-21T15:48:50Z</time>
      </trkpt>
      <trkpt lat="43.92242" lon="1.94434">
        <ele>268.6</ele>
        <time>2021-03-21T15:48:51Z</time>
      </trkpt>
      <trkpt lat="43.92244" lon="1.94429">
        <ele>268.8</ele>
        <time>2021-03-21T15:48:52Z</time>
      </trkpt>
      <trkpt lat="43.92247" lon="1.94424">
        <ele>268.8</ele>
        <time>2021-03-21T15:48:53Z</time>
      </trkpt>
      <trkpt lat="43.92249" lon="1.94419">
        <ele>269</ele>
        <time>2021-03-21T15:48:54Z</time>
      </trkpt>
      <trkpt lat="43.92251" lon="1.94414">
        <ele>268.8</ele>
        <time>2021-03-21T15:48:55Z</time>
      </trkpt>
      <trkpt lat="43.92254" lon="1.94409">
        <ele>268.8</ele>
        <time>2021-03-21T15:48:56Z</time>
      </trkpt>
      <trkpt lat="43.92256" lon="1.94404">
        <ele>269</ele>
        <time>2021-03-21T15:48:57Z</time>
      </trkpt>
      <trkpt lat="43.92258" lon="1.94399">
        <ele>268.8</ele>
        <time>2021-03-21T15:48:58Z</time>
      </trkpt>
      <trkpt lat="43.92261" lon="1.94393">
        <ele>268.8</ele>
        <time>2021-03-21T15:48:59Z</time>
      </trkpt>
      <trkpt lat="43.92263" lon="1.94388">
        <ele>269</ele>
        <time>2021-03-21T15:49:00Z</time>
      </trkpt>
      <trkpt lat="43.92265" lon="1.94383">
        <ele>268.8</ele>
        <time>2021-03-21T15:49:01Z</time>
      </trkpt>
      <trkpt lat="43.92268" lon="1.94377">
        <ele>268.6</ele>
        <time>2021-03-21T15:49:02Z</time>
      </trkpt>
      <trkpt lat="43.9227" lon="1.94372">
        <ele>268.6</ele>
        <time>2021-03-21T15:49:03Z</time>
      </trkpt>
      <trkpt lat="43.92273" lon="1.94366">
        <ele>268.4</ele>
        <time>2021-03-21T15:49:04Z</time>
      </trkpt>
      <trkpt lat="43.92276" lon="1.94361">
        <ele>268.4</ele>
        <time>2021-03-21T15:49:05Z</time>
      </trkpt>
      <trkpt lat="43.92278" lon="1.94356">
        <ele>268.2</ele>
        <time>2021-03-21T15:49:06Z</time>
      </trkpt>
      <trkpt lat="43.9228" lon="1.94351">
        <ele>268.2</ele>
        <time>2021-03-21T15:49:07Z</time>
      </trkpt>
      <trkpt lat="43.92283" lon="1.94346">
        <ele>268.2</ele>
        <time>2021-03-21T15:49:08Z</time>
      </trkpt>
      <trkpt lat="43.92285" lon="1.94341">
        <ele>268</ele>
        <time>2021-03-21T15:49:09Z</time>
      </trkpt>
      <trkpt lat="43.92287" lon="1.94336">
        <ele>268</ele>
        <time>2021-03-21T15:49:10Z</time>
      </trkpt>
      <trkpt lat="43.92289" lon="1.94331">
        <ele>267.8</ele>
        <time>2021-03-21T15:49:11Z</time>
      </trkpt>
      <trkpt lat="43.92292" lon="1.94326">
        <ele>267.8</ele>
        <time>2021-03-21T15:49:12Z</time>
      </trkpt>
      <trkpt lat="43.92294" lon="1.94321">
        <ele>267.6</ele>
        <time>2021-03-21T15:49:13Z</time>
      </trkpt>
      <trkpt lat="43.92296" lon="1.94316">
        <ele>267.6</ele>
        <time>2021-03-21T15:49:14Z</time>
      </trkpt>
      <trkpt lat="43.92298" lon="1.9431">
        <ele>267.8</ele>
        <time>2021-03-21T15:49:15Z</time>
      </trkpt>
      <trkpt lat="43.92301" lon="1.94305">
        <ele>267.8</ele>
        <time>2021-03-21T15:49:16Z</time>
      </trkpt>
      <trkpt lat="43.92303" lon="1.943">
        <ele>267.8</ele>
        <time>2021-03-21T15:49:17Z</time>
      </trkpt>
      <trkpt lat="43.92306" lon="1.94295">
        <ele>267.8</ele>
        <time>2021-03-21T15:49:18Z</time>
      </trkpt>
      <trkpt lat="43.92308" lon="1.9429">
        <ele>267.8</ele>
        <time>2021-03-21T15:49:19Z</time>
      </trkpt>
      <trkpt lat="43.9231" lon="1.94285">
        <ele>267.8</ele>
        <time>2021-03-21T15:49:20Z</time>
      </trkpt>
      <trkpt lat="43.92313" lon="1.9428">
        <ele>267.6</ele>
        <time>2021-03-21T15:49:21Z</time>
      </trkpt>
      <trkpt lat="43.92315" lon="1.94275">
        <ele>267.8</ele>
        <time>2021-03-21T15:49:22Z</time>
      </trkpt>
      <trkpt lat="43.92317" lon="1.9427">
        <ele>267.8</ele>
        <time>2021-03-21T15:49:23Z</time>
      </trkpt>
      <trkpt lat="43.9232" lon="1.94265">
        <ele>268</ele>
        <time>2021-03-21T15:49:24Z</time>
      </trkpt>
      <trkpt lat="43.92322" lon="1.94259">
        <ele>268</ele>
        <time>2021-03-21T15:49:25Z</time>
      </trkpt>
      <trkpt lat="43.92324" lon="1.94254">
        <ele>268.2</ele>
        <time>2021-03-21T15:49:26Z</time>
      </trkpt>
      <trkpt lat="43.92325" lon="1.94248">
        <ele>268.2</ele>
        <time>2021-03-21T15:49:27Z</time>
      </trkpt>
      <trkpt lat="43.92326" lon="1.94243">
        <ele>268</ele>
        <time>2021-03-21T15:49:28Z</time>
      </trkpt>
      <trkpt lat="43.92328" lon="1.94238">
        <ele>268.4</ele>
        <time>2021-03-21T15:49:29Z</time>
      </trkpt>
      <trkpt lat="43.92331" lon="1.94227">
        <ele>268.6</ele>
        <time>2021-03-21T15:49:31Z</time>
      </trkpt>
      <trkpt lat="43.92333" lon="1.94222">
        <ele>268.4</ele>
        <time>2021-03-21T15:49:32Z</time>
      </trkpt>
      <trkpt lat="43.92335" lon="1.94217">
        <ele>268.6</ele>
        <time>2021-03-21T15:49:33Z</time>
      </trkpt>
      <trkpt lat="43.92336" lon="1.94212">
        <ele>268.8</ele>
        <time>2021-03-21T15:49:34Z</time>
      </trkpt>
      <trkpt lat="43.92338" lon="1.94206">
        <ele>268.6</ele>
        <time>2021-03-21T15:49:35Z</time>
      </trkpt>
      <trkpt lat="43.9234" lon="1.94201">
        <ele>268.6</ele>
        <time>2021-03-21T15:49:36Z</time>
      </trkpt>
      <trkpt lat="43.92341" lon="1.94195">
        <ele>268.8</ele>
        <time>2021-03-21T15:49:37Z</time>
      </trkpt>
      <trkpt lat="43.92344" lon="1.94184">
        <ele>269</ele>
        <time>2021-03-21T15:49:39Z</time>
      </trkpt>
      <trkpt lat="43.92345" lon="1.94178">
        <ele>269.2</ele>
        <time>2021-03-21T15:49:40Z</time>
      </trkpt>
      <trkpt lat="43.92346" lon="1.94172">
        <ele>269.2</ele>
        <time>2021-03-21T15:49:41Z</time>
      </trkpt>
      <trkpt lat="43.92347" lon="1.94166">
        <ele>269.4</ele>
        <time>2021-03-21T15:49:42Z</time>
      </trkpt>
      <trkpt lat="43.92348" lon="1.9416">
        <ele>269.2</ele>
        <time>2021-03-21T15:49:43Z</time>
      </trkpt>
      <trkpt lat="43.92349" lon="1.94154">
        <ele>269.2</ele>
        <time>2021-03-21T15:49:44Z</time>
      </trkpt>
      <trkpt lat="43.9235" lon="1.94148">
        <ele>269</ele>
        <time>2021-03-21T15:49:45Z</time>
      </trkpt>
      <trkpt lat="43.92351" lon="1.94142">
        <ele>269</ele>
        <time>2021-03-21T15:49:46Z</time>
      </trkpt>
      <trkpt lat="43.92352" lon="1.94136">
        <ele>269.2</ele>
        <time>2021-03-21T15:49:47Z</time>
      </trkpt>
      <trkpt lat="43.92353" lon="1.94131">
        <ele>269</ele>
        <time>2021-03-21T15:49:48Z</time>
      </trkpt>
      <trkpt lat="43.92355" lon="1.94125">
        <ele>269.2</ele>
        <time>2021-03-21T15:49:49Z</time>
      </trkpt>
      <trkpt lat="43.92357" lon="1.94119">
        <ele>269.2</ele>
        <time>2021-03-21T15:49:50Z</time>
      </trkpt>
      <trkpt lat="43.92359" lon="1.94107">
        <ele>269.2</ele>
        <time>2021-03-21T15:49:52Z</time>
      </trkpt>
      <trkpt lat="43.92361" lon="1.94101">
        <ele>269</ele>
        <time>2021-03-21T15:49:53Z</time>
      </trkpt>
      <trkpt lat="43.92362" lon="1.94095">
        <ele>269</ele>
        <time>2021-03-21T15:49:54Z</time>
      </trkpt>
      <trkpt lat="43.92364" lon="1.94089">
        <ele>269</ele>
        <time>2021-03-21T15:49:55Z</time>
      </trkpt>
      <trkpt lat="43.92365" lon="1.94084">
        <ele>268.8</ele>
        <time>2021-03-21T15:49:56Z</time>
      </trkpt>
      <trkpt lat="43.92366" lon="1.94078">
        <ele>268.8</ele>
        <time>2021-03-21T15:49:57Z</time>
      </trkpt>
      <trkpt lat="43.92367" lon="1.94072">
        <ele>268.6</ele>
        <time>2021-03-21T15:49:58Z</time>
      </trkpt>
      <trkpt lat="43.92368" lon="1.94067">
        <ele>268.8</ele>
        <time>2021-03-21T15:49:59Z</time>
      </trkpt>
      <trkpt lat="43.92369" lon="1.94062">
        <ele>268.6</ele>
        <time>2021-03-21T15:50:00Z</time>
      </trkpt>
      <trkpt lat="43.9237" lon="1.94056">
        <ele>268.6</ele>
        <time>2021-03-21T15:50:01Z</time>
      </trkpt>
      <trkpt lat="43.9237" lon="1.94051">
        <ele>268.6</ele>
        <time>2021-03-21T15:50:02Z</time>
      </trkpt>
      <trkpt lat="43.92371" lon="1.94045">
        <ele>268.6</ele>
        <time>2021-03-21T15:50:03Z</time>
      </trkpt>
      <trkpt lat="43.92372" lon="1.9404">
        <ele>268.6</ele>
        <time>2021-03-21T15:50:04Z</time>
      </trkpt>
      <trkpt lat="43.92373" lon="1.94034">
        <ele>268.4</ele>
        <time>2021-03-21T15:50:05Z</time>
      </trkpt>
      <trkpt lat="43.92373" lon="1.94029">
        <ele>268.4</ele>
        <time>2021-03-21T15:50:06Z</time>
      </trkpt>
      <trkpt lat="43.92375" lon="1.94017">
        <ele>268.2</ele>
        <time>2021-03-21T15:50:08Z</time>
      </trkpt>
      <trkpt lat="43.92376" lon="1.94012">
        <ele>268.2</ele>
        <time>2021-03-21T15:50:09Z</time>
      </trkpt>
      <trkpt lat="43.92377" lon="1.94006">
        <ele>268</ele>
        <time>2021-03-21T15:50:10Z</time>
      </trkpt>
      <trkpt lat="43.92378" lon="1.94">
        <ele>268</ele>
        <time>2021-03-21T15:50:11Z</time>
      </trkpt>
      <trkpt lat="43.92379" lon="1.93989">
        <ele>268.2</ele>
        <time>2021-03-21T15:50:13Z</time>
      </trkpt>
      <trkpt lat="43.9238" lon="1.93983">
        <ele>268</ele>
        <time>2021-03-21T15:50:14Z</time>
      </trkpt>
      <trkpt lat="43.92382" lon="1.93977">
        <ele>268</ele>
        <time>2021-03-21T15:50:15Z</time>
      </trkpt>
      <trkpt lat="43.92382" lon="1.93971">
        <ele>268</ele>
        <time>2021-03-21T15:50:16Z</time>
      </trkpt>
      <trkpt lat="43.92383" lon="1.93965">
        <ele>268</ele>
        <time>2021-03-21T15:50:17Z</time>
      </trkpt>
      <trkpt lat="43.92384" lon="1.93959">
        <ele>268</ele>
        <time>2021-03-21T15:50:18Z</time>
      </trkpt>
      <trkpt lat="43.92385" lon="1.93953">
        <ele>268</ele>
        <time>2021-03-21T15:50:19Z</time>
      </trkpt>
      <trkpt lat="43.92386" lon="1.93947">
        <ele>267.8</ele>
        <time>2021-03-21T15:50:20Z</time>
      </trkpt>
      <trkpt lat="43.92386" lon="1.93941">
        <ele>268</ele>
        <time>2021-03-21T15:50:21Z</time>
      </trkpt>
      <trkpt lat="43.92387" lon="1.93929">
        <ele>268</ele>
        <time>2021-03-21T15:50:23Z</time>
      </trkpt>
      <trkpt lat="43.92388" lon="1.93922">
        <ele>268</ele>
        <time>2021-03-21T15:50:24Z</time>
      </trkpt>
      <trkpt lat="43.92388" lon="1.93916">
        <ele>268</ele>
        <time>2021-03-21T15:50:25Z</time>
      </trkpt>
      <trkpt lat="43.92388" lon="1.9391">
        <ele>268</ele>
        <time>2021-03-21T15:50:26Z</time>
      </trkpt>
      <trkpt lat="43.92388" lon="1.93904">
        <ele>268</ele>
        <time>2021-03-21T15:50:27Z</time>
      </trkpt>
      <trkpt lat="43.92388" lon="1.93897">
        <ele>268</ele>
        <time>2021-03-21T15:50:28Z</time>
      </trkpt>
      <trkpt lat="43.92388" lon="1.93891">
        <ele>268</ele>
        <time>2021-03-21T15:50:29Z</time>
      </trkpt>
      <trkpt lat="43.92387" lon="1.93878">
        <ele>268</ele>
        <time>2021-03-21T15:50:31Z</time>
      </trkpt>
      <trkpt lat="43.92386" lon="1.93872">
        <ele>268</ele>
        <time>2021-03-21T15:50:32Z</time>
      </trkpt>
      <trkpt lat="43.92386" lon="1.93866">
        <ele>268</ele>
        <time>2021-03-21T15:50:33Z</time>
      </trkpt>
      <trkpt lat="43.92385" lon="1.93859">
        <ele>268</ele>
        <time>2021-03-21T15:50:34Z</time>
      </trkpt>
      <trkpt lat="43.92385" lon="1.93853">
        <ele>268.2</ele>
        <time>2021-03-21T15:50:35Z</time>
      </trkpt>
      <trkpt lat="43.92385" lon="1.93846">
        <ele>268.2</ele>
        <time>2021-03-21T15:50:36Z</time>
      </trkpt>
      <trkpt lat="43.92385" lon="1.9384">
        <ele>268.2</ele>
        <time>2021-03-21T15:50:37Z</time>
      </trkpt>
      <trkpt lat="43.92384" lon="1.93827">
        <ele>268.4</ele>
        <time>2021-03-21T15:50:39Z</time>
      </trkpt>
      <trkpt lat="43.92384" lon="1.9382">
        <ele>268.2</ele>
        <time>2021-03-21T15:50:40Z</time>
      </trkpt>
      <trkpt lat="43.92384" lon="1.93814">
        <ele>268</ele>
        <time>2021-03-21T15:50:41Z</time>
      </trkpt>
      <trkpt lat="43.92384" lon="1.93807">
        <ele>268</ele>
        <time>2021-03-21T15:50:42Z</time>
      </trkpt>
      <trkpt lat="43.92384" lon="1.93801">
        <ele>268</ele>
        <time>2021-03-21T15:50:43Z</time>
      </trkpt>
      <trkpt lat="43.92385" lon="1.93795">
        <ele>268</ele>
        <time>2021-03-21T15:50:44Z</time>
      </trkpt>
      <trkpt lat="43.92386" lon="1.93789">
        <ele>268</ele>
        <time>2021-03-21T15:50:45Z</time>
      </trkpt>
      <trkpt lat="43.92388" lon="1.93783">
        <ele>268</ele>
        <time>2021-03-21T15:50:46Z</time>
      </trkpt>
      <trkpt lat="43.92389" lon="1.93777">
        <ele>268</ele>
        <time>2021-03-21T15:50:47Z</time>
      </trkpt>
      <trkpt lat="43.92392" lon="1.93771">
        <ele>267.8</ele>
        <time>2021-03-21T15:50:48Z</time>
      </trkpt>
      <trkpt lat="43.92394" lon="1.93766">
        <ele>268</ele>
        <time>2021-03-21T15:50:49Z</time>
      </trkpt>
      <trkpt lat="43.92397" lon="1.9376">
        <ele>267.8</ele>
        <time>2021-03-21T15:50:50Z</time>
      </trkpt>
      <trkpt lat="43.92402" lon="1.93749">
        <ele>268</ele>
        <time>2021-03-21T15:50:52Z</time>
      </trkpt>
      <trkpt lat="43.92404" lon="1.93743">
        <ele>268</ele>
        <time>2021-03-21T15:50:53Z</time>
      </trkpt>
      <trkpt lat="43.92406" lon="1.93737">
        <ele>268</ele>
        <time>2021-03-21T15:50:54Z</time>
      </trkpt>
      <trkpt lat="43.92408" lon="1.93731">
        <ele>268</ele>
        <time>2021-03-21T15:50:55Z</time>
      </trkpt>
      <trkpt lat="43.9241" lon="1.93725">
        <ele>268.2</ele>
        <time>2021-03-21T15:50:56Z</time>
      </trkpt>
      <trkpt lat="43.92412" lon="1.93718">
        <ele>268.2</ele>
        <time>2021-03-21T15:50:57Z</time>
      </trkpt>
      <trkpt lat="43.92413" lon="1.93712">
        <ele>268.6</ele>
        <time>2021-03-21T15:50:58Z</time>
      </trkpt>
      <trkpt lat="43.92415" lon="1.93705">
        <ele>268.6</ele>
        <time>2021-03-21T15:50:59Z</time>
      </trkpt>
      <trkpt lat="43.92416" lon="1.93698">
        <ele>268.6</ele>
        <time>2021-03-21T15:51:00Z</time>
      </trkpt>
      <trkpt lat="43.92416" lon="1.93692">
        <ele>268.4</ele>
        <time>2021-03-21T15:51:01Z</time>
      </trkpt>
      <trkpt lat="43.92417" lon="1.93686">
        <ele>268.6</ele>
        <time>2021-03-21T15:51:02Z</time>
      </trkpt>
      <trkpt lat="43.92418" lon="1.93679">
        <ele>268.4</ele>
        <time>2021-03-21T15:51:03Z</time>
      </trkpt>
      <trkpt lat="43.92418" lon="1.93673">
        <ele>268.4</ele>
        <time>2021-03-21T15:51:04Z</time>
      </trkpt>
      <trkpt lat="43.92418" lon="1.93667">
        <ele>268.6</ele>
        <time>2021-03-21T15:51:05Z</time>
      </trkpt>
      <trkpt lat="43.92418" lon="1.9366">
        <ele>268.6</ele>
        <time>2021-03-21T15:51:06Z</time>
      </trkpt>
      <trkpt lat="43.92418" lon="1.93654">
        <ele>268.6</ele>
        <time>2021-03-21T15:51:07Z</time>
      </trkpt>
      <trkpt lat="43.92417" lon="1.93647">
        <ele>268.2</ele>
        <time>2021-03-21T15:51:08Z</time>
      </trkpt>
      <trkpt lat="43.92416" lon="1.93641">
        <ele>268</ele>
        <time>2021-03-21T15:51:09Z</time>
      </trkpt>
      <trkpt lat="43.92415" lon="1.93635">
        <ele>267.6</ele>
        <time>2021-03-21T15:51:10Z</time>
      </trkpt>
      <trkpt lat="43.92414" lon="1.93629">
        <ele>267.6</ele>
        <time>2021-03-21T15:51:11Z</time>
      </trkpt>
      <trkpt lat="43.92413" lon="1.93616">
        <ele>267</ele>
        <time>2021-03-21T15:51:13Z</time>
      </trkpt>
      <trkpt lat="43.92413" lon="1.93611">
        <ele>267</ele>
        <time>2021-03-21T15:51:14Z</time>
      </trkpt>
      <trkpt lat="43.92412" lon="1.93605">
        <ele>267</ele>
        <time>2021-03-21T15:51:15Z</time>
      </trkpt>
      <trkpt lat="43.92412" lon="1.93598">
        <ele>267</ele>
        <time>2021-03-21T15:51:16Z</time>
      </trkpt>
      <trkpt lat="43.92413" lon="1.93592">
        <ele>267</ele>
        <time>2021-03-21T15:51:17Z</time>
      </trkpt>
      <trkpt lat="43.92414" lon="1.93587">
        <ele>266.8</ele>
        <time>2021-03-21T15:51:18Z</time>
      </trkpt>
      <trkpt lat="43.92415" lon="1.93581">
        <ele>267</ele>
        <time>2021-03-21T15:51:19Z</time>
      </trkpt>
      <trkpt lat="43.92416" lon="1.93575">
        <ele>267</ele>
        <time>2021-03-21T15:51:20Z</time>
      </trkpt>
      <trkpt lat="43.92417" lon="1.9357">
        <ele>267</ele>
        <time>2021-03-21T15:51:21Z</time>
      </trkpt>
      <trkpt lat="43.92419" lon="1.93564">
        <ele>267</ele>
        <time>2021-03-21T15:51:22Z</time>
      </trkpt>
      <trkpt lat="43.92421" lon="1.93559">
        <ele>267.4</ele>
        <time>2021-03-21T15:51:23Z</time>
      </trkpt>
      <trkpt lat="43.92423" lon="1.93554">
        <ele>267.4</ele>
        <time>2021-03-21T15:51:24Z</time>
      </trkpt>
      <trkpt lat="43.92424" lon="1.93549">
        <ele>267.2</ele>
        <time>2021-03-21T15:51:25Z</time>
      </trkpt>
      <trkpt lat="43.92426" lon="1.93544">
        <ele>267.6</ele>
        <time>2021-03-21T15:51:26Z</time>
      </trkpt>
      <trkpt lat="43.92428" lon="1.93539">
        <ele>267.6</ele>
        <time>2021-03-21T15:51:27Z</time>
      </trkpt>
      <trkpt lat="43.9243" lon="1.93534">
        <ele>267.8</ele>
        <time>2021-03-21T15:51:28Z</time>
      </trkpt>
      <trkpt lat="43.92432" lon="1.93529">
        <ele>267.8</ele>
        <time>2021-03-21T15:51:29Z</time>
      </trkpt>
      <trkpt lat="43.92434" lon="1.93524">
        <ele>267.6</ele>
        <time>2021-03-21T15:51:30Z</time>
      </trkpt>
      <trkpt lat="43.92436" lon="1.93519">
        <ele>267.8</ele>
        <time>2021-03-21T15:51:31Z</time>
      </trkpt>
      <trkpt lat="43.92438" lon="1.93515">
        <ele>267.8</ele>
        <time>2021-03-21T15:51:32Z</time>
      </trkpt>
      <trkpt lat="43.92442" lon="1.93504">
        <ele>268</ele>
        <time>2021-03-21T15:51:34Z</time>
      </trkpt>
      <trkpt lat="43.92443" lon="1.93499">
        <ele>268</ele>
        <time>2021-03-21T15:51:35Z</time>
      </trkpt>
      <trkpt lat="43.92445" lon="1.93494">
        <ele>267.8</ele>
        <time>2021-03-21T15:51:36Z</time>
      </trkpt>
      <trkpt lat="43.92447" lon="1.93489">
        <ele>267.8</ele>
        <time>2021-03-21T15:51:37Z</time>
      </trkpt>
      <trkpt lat="43.92448" lon="1.93484">
        <ele>267.6</ele>
        <time>2021-03-21T15:51:38Z</time>
      </trkpt>
      <trkpt lat="43.92448" lon="1.93479">
        <ele>267.6</ele>
        <time>2021-03-21T15:51:39Z</time>
      </trkpt>
      <trkpt lat="43.92448" lon="1.93473">
        <ele>267.6</ele>
        <time>2021-03-21T15:51:40Z</time>
      </trkpt>
      <trkpt lat="43.92446" lon="1.93468">
        <ele>267.6</ele>
        <time>2021-03-21T15:51:41Z</time>
      </trkpt>
      <trkpt lat="43.92444" lon="1.93463">
        <ele>267.6</ele>
        <time>2021-03-21T15:51:42Z</time>
      </trkpt>
      <trkpt lat="43.92442" lon="1.93458">
        <ele>267.6</ele>
        <time>2021-03-21T15:51:43Z</time>
      </trkpt>
      <trkpt lat="43.92438" lon="1.93454">
        <ele>267.8</ele>
        <time>2021-03-21T15:51:44Z</time>
      </trkpt>
      <trkpt lat="43.92435" lon="1.9345">
        <ele>268</ele>
        <time>2021-03-21T15:51:45Z</time>
      </trkpt>
      <trkpt lat="43.92431" lon="1.93446">
        <ele>267.8</ele>
        <time>2021-03-21T15:51:46Z</time>
      </trkpt>
      <trkpt lat="43.92428" lon="1.93442">
        <ele>267.8</ele>
        <time>2021-03-21T15:51:47Z</time>
      </trkpt>
      <trkpt lat="43.92424" lon="1.93438">
        <ele>268.2</ele>
        <time>2021-03-21T15:51:48Z</time>
      </trkpt>
      <trkpt lat="43.92421" lon="1.93433">
        <ele>268.4</ele>
        <time>2021-03-21T15:51:49Z</time>
      </trkpt>
      <trkpt lat="43.92417" lon="1.93429">
        <ele>268.8</ele>
        <time>2021-03-21T15:51:50Z</time>
      </trkpt>
      <trkpt lat="43.92413" lon="1.93425">
        <ele>268.8</ele>
        <time>2021-03-21T15:51:51Z</time>
      </trkpt>
      <trkpt lat="43.92409" lon="1.93421">
        <ele>269</ele>
        <time>2021-03-21T15:51:52Z</time>
      </trkpt>
      <trkpt lat="43.92405" lon="1.93417">
        <ele>269</ele>
        <time>2021-03-21T15:51:53Z</time>
      </trkpt>
      <trkpt lat="43.92397" lon="1.93408">
        <ele>269</ele>
        <time>2021-03-21T15:51:55Z</time>
      </trkpt>
      <trkpt lat="43.92394" lon="1.93403">
        <ele>269</ele>
        <time>2021-03-21T15:51:56Z</time>
      </trkpt>
      <trkpt lat="43.9239" lon="1.93398">
        <ele>269</ele>
        <time>2021-03-21T15:51:57Z</time>
      </trkpt>
      <trkpt lat="43.92386" lon="1.93394">
        <ele>269</ele>
        <time>2021-03-21T15:51:58Z</time>
      </trkpt>
      <trkpt lat="43.92383" lon="1.93389">
        <ele>269</ele>
        <time>2021-03-21T15:51:59Z</time>
      </trkpt>
      <trkpt lat="43.92379" lon="1.93384">
        <ele>268.8</ele>
        <time>2021-03-21T15:52:00Z</time>
      </trkpt>
      <trkpt lat="43.92376" lon="1.93379">
        <ele>268.8</ele>
        <time>2021-03-21T15:52:01Z</time>
      </trkpt>
      <trkpt lat="43.92369" lon="1.93369">
        <ele>269</ele>
        <time>2021-03-21T15:52:03Z</time>
      </trkpt>
      <trkpt lat="43.92365" lon="1.93364">
        <ele>269</ele>
        <time>2021-03-21T15:52:04Z</time>
      </trkpt>
      <trkpt lat="43.92361" lon="1.93359">
        <ele>268.6</ele>
        <time>2021-03-21T15:52:05Z</time>
      </trkpt>
      <trkpt lat="43.92357" lon="1.93354">
        <ele>268.6</ele>
        <time>2021-03-21T15:52:06Z</time>
      </trkpt>
      <trkpt lat="43.92353" lon="1.93349">
        <ele>268.4</ele>
        <time>2021-03-21T15:52:07Z</time>
      </trkpt>
      <trkpt lat="43.9235" lon="1.93344">
        <ele>268.4</ele>
        <time>2021-03-21T15:52:08Z</time>
      </trkpt>
      <trkpt lat="43.92346" lon="1.93339">
        <ele>268.4</ele>
        <time>2021-03-21T15:52:09Z</time>
      </trkpt>
      <trkpt lat="43.92342" lon="1.93335">
        <ele>268.4</ele>
        <time>2021-03-21T15:52:10Z</time>
      </trkpt>
      <trkpt lat="43.92338" lon="1.93331">
        <ele>268.4</ele>
        <time>2021-03-21T15:52:11Z</time>
      </trkpt>
      <trkpt lat="43.92333" lon="1.93327">
        <ele>268.4</ele>
        <time>2021-03-21T15:52:12Z</time>
      </trkpt>
      <trkpt lat="43.92329" lon="1.93323">
        <ele>268.4</ele>
        <time>2021-03-21T15:52:13Z</time>
      </trkpt>
      <trkpt lat="43.92324" lon="1.93319">
        <ele>268.4</ele>
        <time>2021-03-21T15:52:14Z</time>
      </trkpt>
      <trkpt lat="43.92319" lon="1.93316">
        <ele>268.4</ele>
        <time>2021-03-21T15:52:15Z</time>
      </trkpt>
      <trkpt lat="43.92315" lon="1.93313">
        <ele>268.4</ele>
        <time>2021-03-21T15:52:16Z</time>
      </trkpt>
      <trkpt lat="43.9231" lon="1.9331">
        <ele>268.4</ele>
        <time>2021-03-21T15:52:17Z</time>
      </trkpt>
      <trkpt lat="43.92305" lon="1.93307">
        <ele>268.4</ele>
        <time>2021-03-21T15:52:18Z</time>
      </trkpt>
      <trkpt lat="43.92301" lon="1.93304">
        <ele>268.6</ele>
        <time>2021-03-21T15:52:19Z</time>
      </trkpt>
      <trkpt lat="43.92297" lon="1.93301">
        <ele>268.6</ele>
        <time>2021-03-21T15:52:20Z</time>
      </trkpt>
      <trkpt lat="43.92293" lon="1.93298">
        <ele>268.8</ele>
        <time>2021-03-21T15:52:21Z</time>
      </trkpt>
      <trkpt lat="43.92289" lon="1.93296">
        <ele>268.6</ele>
        <time>2021-03-21T15:52:22Z</time>
      </trkpt>
      <trkpt lat="43.92286" lon="1.93293">
        <ele>268.8</ele>
        <time>2021-03-21T15:52:23Z</time>
      </trkpt>
      <trkpt lat="43.92283" lon="1.93291">
        <ele>269</ele>
        <time>2021-03-21T15:52:24Z</time>
      </trkpt>
      <trkpt lat="43.9228" lon="1.93289">
        <ele>269.2</ele>
        <time>2021-03-21T15:52:25Z</time>
      </trkpt>
      <trkpt lat="43.92276" lon="1.93286">
        <ele>269.2</ele>
        <time>2021-03-21T15:52:26Z</time>
      </trkpt>
      <trkpt lat="43.92273" lon="1.93284">
        <ele>269.4</ele>
        <time>2021-03-21T15:52:27Z</time>
      </trkpt>
      <trkpt lat="43.92269" lon="1.93282">
        <ele>269.6</ele>
        <time>2021-03-21T15:52:28Z</time>
      </trkpt>
      <trkpt lat="43.92266" lon="1.9328">
        <ele>269.6</ele>
        <time>2021-03-21T15:52:29Z</time>
      </trkpt>
      <trkpt lat="43.92262" lon="1.93277">
        <ele>269.6</ele>
        <time>2021-03-21T15:52:30Z</time>
      </trkpt>
      <trkpt lat="43.92259" lon="1.93274">
        <ele>269.4</ele>
        <time>2021-03-21T15:52:31Z</time>
      </trkpt>
      <trkpt lat="43.92256" lon="1.93271">
        <ele>269.6</ele>
        <time>2021-03-21T15:52:32Z</time>
      </trkpt>
      <trkpt lat="43.92253" lon="1.93268">
        <ele>269.6</ele>
        <time>2021-03-21T15:52:33Z</time>
      </trkpt>
      <trkpt lat="43.9225" lon="1.93265">
        <ele>269.8</ele>
        <time>2021-03-21T15:52:34Z</time>
      </trkpt>
      <trkpt lat="43.92247" lon="1.93263">
        <ele>270</ele>
        <time>2021-03-21T15:52:35Z</time>
      </trkpt>
      <trkpt lat="43.92244" lon="1.93259">
        <ele>270</ele>
        <time>2021-03-21T15:52:36Z</time>
      </trkpt>
      <trkpt lat="43.92241" lon="1.93256">
        <ele>270</ele>
        <time>2021-03-21T15:52:37Z</time>
      </trkpt>
      <trkpt lat="43.92239" lon="1.93253">
        <ele>270.2</ele>
        <time>2021-03-21T15:52:38Z</time>
      </trkpt>
      <trkpt lat="43.92236" lon="1.9325">
        <ele>270.4</ele>
        <time>2021-03-21T15:52:39Z</time>
      </trkpt>
      <trkpt lat="43.92233" lon="1.93247">
        <ele>270.2</ele>
        <time>2021-03-21T15:52:40Z</time>
      </trkpt>
      <trkpt lat="43.92228" lon="1.93241">
        <ele>270.4</ele>
        <time>2021-03-21T15:52:42Z</time>
      </trkpt>
      <trkpt lat="43.92225" lon="1.93238">
        <ele>270.4</ele>
        <time>2021-03-21T15:52:43Z</time>
      </trkpt>
      <trkpt lat="43.92222" lon="1.93235">
        <ele>270.4</ele>
        <time>2021-03-21T15:52:44Z</time>
      </trkpt>
      <trkpt lat="43.92219" lon="1.93231">
        <ele>270.6</ele>
        <time>2021-03-21T15:52:45Z</time>
      </trkpt>
      <trkpt lat="43.92216" lon="1.93227">
        <ele>270.4</ele>
        <time>2021-03-21T15:52:46Z</time>
      </trkpt>
      <trkpt lat="43.92213" lon="1.93224">
        <ele>270.4</ele>
        <time>2021-03-21T15:52:47Z</time>
      </trkpt>
      <trkpt lat="43.9221" lon="1.9322">
        <ele>270.4</ele>
        <time>2021-03-21T15:52:48Z</time>
      </trkpt>
      <trkpt lat="43.92207" lon="1.93217">
        <ele>270.4</ele>
        <time>2021-03-21T15:52:49Z</time>
      </trkpt>
      <trkpt lat="43.92204" lon="1.93213">
        <ele>270.4</ele>
        <time>2021-03-21T15:52:50Z</time>
      </trkpt>
      <trkpt lat="43.92201" lon="1.9321">
        <ele>270.4</ele>
        <time>2021-03-21T15:52:51Z</time>
      </trkpt>
      <trkpt lat="43.92198" lon="1.93206">
        <ele>270.4</ele>
        <time>2021-03-21T15:52:52Z</time>
      </trkpt>
      <trkpt lat="43.92196" lon="1.93203">
        <ele>270.6</ele>
        <time>2021-03-21T15:52:53Z</time>
      </trkpt>
      <trkpt lat="43.92193" lon="1.932">
        <ele>270.6</ele>
        <time>2021-03-21T15:52:54Z</time>
      </trkpt>
      <trkpt lat="43.92191" lon="1.93196">
        <ele>270.8</ele>
        <time>2021-03-21T15:52:55Z</time>
      </trkpt>
      <trkpt lat="43.92189" lon="1.93193">
        <ele>270.8</ele>
        <time>2021-03-21T15:52:56Z</time>
      </trkpt>
      <trkpt lat="43.92187" lon="1.9319">
        <ele>270.8</ele>
        <time>2021-03-21T15:52:57Z</time>
      </trkpt>
      <trkpt lat="43.92184" lon="1.93187">
        <ele>270.6</ele>
        <time>2021-03-21T15:52:58Z</time>
      </trkpt>
      <trkpt lat="43.9218" lon="1.93181">
        <ele>270.6</ele>
        <time>2021-03-21T15:53:00Z</time>
      </trkpt>
      <trkpt lat="43.92177" lon="1.93177">
        <ele>270.8</ele>
        <time>2021-03-21T15:53:01Z</time>
      </trkpt>
      <trkpt lat="43.92174" lon="1.93173">
        <ele>270.8</ele>
        <time>2021-03-21T15:53:02Z</time>
      </trkpt>
      <trkpt lat="43.92172" lon="1.9317">
        <ele>270.8</ele>
        <time>2021-03-21T15:53:03Z</time>
      </trkpt>
      <trkpt lat="43.92169" lon="1.93166">
        <ele>270.6</ele>
        <time>2021-03-21T15:53:04Z</time>
      </trkpt>
      <trkpt lat="43.92166" lon="1.93162">
        <ele>270.6</ele>
        <time>2021-03-21T15:53:05Z</time>
      </trkpt>
      <trkpt lat="43.92162" lon="1.93158">
        <ele>270.8</ele>
        <time>2021-03-21T15:53:06Z</time>
      </trkpt>
      <trkpt lat="43.92156" lon="1.93149">
        <ele>270.8</ele>
        <time>2021-03-21T15:53:08Z</time>
      </trkpt>
      <trkpt lat="43.92153" lon="1.93144">
        <ele>270.8</ele>
        <time>2021-03-21T15:53:09Z</time>
      </trkpt>
      <trkpt lat="43.9215" lon="1.9314">
        <ele>270.8</ele>
        <time>2021-03-21T15:53:10Z</time>
      </trkpt>
      <trkpt lat="43.92146" lon="1.93135">
        <ele>270.8</ele>
        <time>2021-03-21T15:53:11Z</time>
      </trkpt>
      <trkpt lat="43.9214" lon="1.93126">
        <ele>270.8</ele>
        <time>2021-03-21T15:53:13Z</time>
      </trkpt>
      <trkpt lat="43.92136" lon="1.93122">
        <ele>270.6</ele>
        <time>2021-03-21T15:53:14Z</time>
      </trkpt>
      <trkpt lat="43.92133" lon="1.93117">
        <ele>270.6</ele>
        <time>2021-03-21T15:53:15Z</time>
      </trkpt>
      <trkpt lat="43.92129" lon="1.93113">
        <ele>270.4</ele>
        <time>2021-03-21T15:53:16Z</time>
      </trkpt>
      <trkpt lat="43.92125" lon="1.93108">
        <ele>270.4</ele>
        <time>2021-03-21T15:53:17Z</time>
      </trkpt>
      <trkpt lat="43.92122" lon="1.93103">
        <ele>270.4</ele>
        <time>2021-03-21T15:53:18Z</time>
      </trkpt>
      <trkpt lat="43.92118" lon="1.93099">
        <ele>270.4</ele>
        <time>2021-03-21T15:53:19Z</time>
      </trkpt>
      <trkpt lat="43.92114" lon="1.93094">
        <ele>270.4</ele>
        <time>2021-03-21T15:53:20Z</time>
      </trkpt>
      <trkpt lat="43.9211" lon="1.9309">
        <ele>270.2</ele>
        <time>2021-03-21T15:53:21Z</time>
      </trkpt>
      <trkpt lat="43.92107" lon="1.93085">
        <ele>270.4</ele>
        <time>2021-03-21T15:53:22Z</time>
      </trkpt>
      <trkpt lat="43.92103" lon="1.93081">
        <ele>270.2</ele>
        <time>2021-03-21T15:53:23Z</time>
      </trkpt>
      <trkpt lat="43.92099" lon="1.93076">
        <ele>270.4</ele>
        <time>2021-03-21T15:53:24Z</time>
      </trkpt>
      <trkpt lat="43.92095" lon="1.93071">
        <ele>270.4</ele>
        <time>2021-03-21T15:53:25Z</time>
      </trkpt>
      <trkpt lat="43.92091" lon="1.93067">
        <ele>270.2</ele>
        <time>2021-03-21T15:53:26Z</time>
      </trkpt>
      <trkpt lat="43.92087" lon="1.93062">
        <ele>270.2</ele>
        <time>2021-03-21T15:53:27Z</time>
      </trkpt>
      <trkpt lat="43.9208" lon="1.93052">
        <ele>270.2</ele>
        <time>2021-03-21T15:53:29Z</time>
      </trkpt>
      <trkpt lat="43.92076" lon="1.93048">
        <ele>270.2</ele>
        <time>2021-03-21T15:53:30Z</time>
      </trkpt>
      <trkpt lat="43.92072" lon="1.93043">
        <ele>270.2</ele>
        <time>2021-03-21T15:53:31Z</time>
      </trkpt>
      <trkpt lat="43.92068" lon="1.93039">
        <ele>270.2</ele>
        <time>2021-03-21T15:53:32Z</time>
      </trkpt>
      <trkpt lat="43.92064" lon="1.93034">
        <ele>270.2</ele>
        <time>2021-03-21T15:53:33Z</time>
      </trkpt>
      <trkpt lat="43.92061" lon="1.9303">
        <ele>270.2</ele>
        <time>2021-03-21T15:53:34Z</time>
      </trkpt>
      <trkpt lat="43.92057" lon="1.93026">
        <ele>270.2</ele>
        <time>2021-03-21T15:53:35Z</time>
      </trkpt>
      <trkpt lat="43.92053" lon="1.93022">
        <ele>270.2</ele>
        <time>2021-03-21T15:53:36Z</time>
      </trkpt>
      <trkpt lat="43.92049" lon="1.93019">
        <ele>270.2</ele>
        <time>2021-03-21T15:53:37Z</time>
      </trkpt>
      <trkpt lat="43.92045" lon="1.93016">
        <ele>270</ele>
        <time>2021-03-21T15:53:38Z</time>
      </trkpt>
      <trkpt lat="43.92042" lon="1.93012">
        <ele>270</ele>
        <time>2021-03-21T15:53:39Z</time>
      </trkpt>
      <trkpt lat="43.92038" lon="1.93009">
        <ele>270</ele>
        <time>2021-03-21T15:53:40Z</time>
      </trkpt>
      <trkpt lat="43.92034" lon="1.93006">
        <ele>270.2</ele>
        <time>2021-03-21T15:53:41Z</time>
      </trkpt>
      <trkpt lat="43.92031" lon="1.93004">
        <ele>270.2</ele>
        <time>2021-03-21T15:53:42Z</time>
      </trkpt>
      <trkpt lat="43.92027" lon="1.93001">
        <ele>270.4</ele>
        <time>2021-03-21T15:53:43Z</time>
      </trkpt>
      <trkpt lat="43.92024" lon="1.92998">
        <ele>270.6</ele>
        <time>2021-03-21T15:53:44Z</time>
      </trkpt>
      <trkpt lat="43.9202" lon="1.92995">
        <ele>270.6</ele>
        <time>2021-03-21T15:53:45Z</time>
      </trkpt>
      <trkpt lat="43.92017" lon="1.92992">
        <ele>270.6</ele>
        <time>2021-03-21T15:53:46Z</time>
      </trkpt>
      <trkpt lat="43.92013" lon="1.92989">
        <ele>270.6</ele>
        <time>2021-03-21T15:53:47Z</time>
      </trkpt>
      <trkpt lat="43.92009" lon="1.92986">
        <ele>270.6</ele>
        <time>2021-03-21T15:53:48Z</time>
      </trkpt>
      <trkpt lat="43.92005" lon="1.92983">
        <ele>270.8</ele>
        <time>2021-03-21T15:53:49Z</time>
      </trkpt>
      <trkpt lat="43.92001" lon="1.9298">
        <ele>270.6</ele>
        <time>2021-03-21T15:53:50Z</time>
      </trkpt>
      <trkpt lat="43.91997" lon="1.92976">
        <ele>270.6</ele>
        <time>2021-03-21T15:53:51Z</time>
      </trkpt>
      <trkpt lat="43.91989" lon="1.92969">
        <ele>270.6</ele>
        <time>2021-03-21T15:53:53Z</time>
      </trkpt>
      <trkpt lat="43.91985" lon="1.92966">
        <ele>270.6</ele>
        <time>2021-03-21T15:53:54Z</time>
      </trkpt>
      <trkpt lat="43.91981" lon="1.92962">
        <ele>270.8</ele>
        <time>2021-03-21T15:53:55Z</time>
      </trkpt>
      <trkpt lat="43.91976" lon="1.92958">
        <ele>270.6</ele>
        <time>2021-03-21T15:53:56Z</time>
      </trkpt>
      <trkpt lat="43.91967" lon="1.9295">
        <ele>270.4</ele>
        <time>2021-03-21T15:53:58Z</time>
      </trkpt>
      <trkpt lat="43.91963" lon="1.92946">
        <ele>270.4</ele>
        <time>2021-03-21T15:53:59Z</time>
      </trkpt>
      <trkpt lat="43.91958" lon="1.92942">
        <ele>270.2</ele>
        <time>2021-03-21T15:54:00Z</time>
      </trkpt>
      <trkpt lat="43.91954" lon="1.92938">
        <ele>270.4</ele>
        <time>2021-03-21T15:54:01Z</time>
      </trkpt>
      <trkpt lat="43.91949" lon="1.92933">
        <ele>270.2</ele>
        <time>2021-03-21T15:54:02Z</time>
      </trkpt>
      <trkpt lat="43.91945" lon="1.92929">
        <ele>270.2</ele>
        <time>2021-03-21T15:54:03Z</time>
      </trkpt>
      <trkpt lat="43.9194" lon="1.92924">
        <ele>270.2</ele>
        <time>2021-03-21T15:54:04Z</time>
      </trkpt>
      <trkpt lat="43.91936" lon="1.9292">
        <ele>269.8</ele>
        <time>2021-03-21T15:54:05Z</time>
      </trkpt>
      <trkpt lat="43.91931" lon="1.92915">
        <ele>269.8</ele>
        <time>2021-03-21T15:54:06Z</time>
      </trkpt>
      <trkpt lat="43.91927" lon="1.92911">
        <ele>269.6</ele>
        <time>2021-03-21T15:54:07Z</time>
      </trkpt>
      <trkpt lat="43.91922" lon="1.92907">
        <ele>269.2</ele>
        <time>2021-03-21T15:54:08Z</time>
      </trkpt>
      <trkpt lat="43.91918" lon="1.92902">
        <ele>269.2</ele>
        <time>2021-03-21T15:54:09Z</time>
      </trkpt>
      <trkpt lat="43.91914" lon="1.92898">
        <ele>269.2</ele>
        <time>2021-03-21T15:54:10Z</time>
      </trkpt>
      <trkpt lat="43.91909" lon="1.92893">
        <ele>269</ele>
        <time>2021-03-21T15:54:11Z</time>
      </trkpt>
      <trkpt lat="43.91905" lon="1.92889">
        <ele>269</ele>
        <time>2021-03-21T15:54:12Z</time>
      </trkpt>
      <trkpt lat="43.91896" lon="1.92879">
        <ele>268.8</ele>
        <time>2021-03-21T15:54:14Z</time>
      </trkpt>
      <trkpt lat="43.91891" lon="1.92875">
        <ele>268.8</ele>
        <time>2021-03-21T15:54:15Z</time>
      </trkpt>
      <trkpt lat="43.91887" lon="1.9287">
        <ele>268.8</ele>
        <time>2021-03-21T15:54:16Z</time>
      </trkpt>
      <trkpt lat="43.91882" lon="1.92865">
        <ele>268.8</ele>
        <time>2021-03-21T15:54:17Z</time>
      </trkpt>
      <trkpt lat="43.91878" lon="1.92861">
        <ele>268.6</ele>
        <time>2021-03-21T15:54:18Z</time>
      </trkpt>
      <trkpt lat="43.91873" lon="1.92856">
        <ele>268.6</ele>
        <time>2021-03-21T15:54:19Z</time>
      </trkpt>
      <trkpt lat="43.91869" lon="1.92851">
        <ele>268.4</ele>
        <time>2021-03-21T15:54:20Z</time>
      </trkpt>
      <trkpt lat="43.91864" lon="1.92846">
        <ele>268.4</ele>
        <time>2021-03-21T15:54:21Z</time>
      </trkpt>
      <trkpt lat="43.9186" lon="1.92842">
        <ele>268.4</ele>
        <time>2021-03-21T15:54:22Z</time>
      </trkpt>
      <trkpt lat="43.91855" lon="1.92837">
        <ele>268.4</ele>
        <time>2021-03-21T15:54:23Z</time>
      </trkpt>
      <trkpt lat="43.91851" lon="1.92833">
        <ele>268.2</ele>
        <time>2021-03-21T15:54:24Z</time>
      </trkpt>
      <trkpt lat="43.91846" lon="1.92828">
        <ele>268.2</ele>
        <time>2021-03-21T15:54:25Z</time>
      </trkpt>
      <trkpt lat="43.91842" lon="1.92824">
        <ele>268</ele>
        <time>2021-03-21T15:54:26Z</time>
      </trkpt>
      <trkpt lat="43.91837" lon="1.9282">
        <ele>268</ele>
        <time>2021-03-21T15:54:27Z</time>
      </trkpt>
      <trkpt lat="43.91833" lon="1.92815">
        <ele>268</ele>
        <time>2021-03-21T15:54:28Z</time>
      </trkpt>
      <trkpt lat="43.91828" lon="1.92811">
        <ele>268.2</ele>
        <time>2021-03-21T15:54:29Z</time>
      </trkpt>
      <trkpt lat="43.91824" lon="1.92807">
        <ele>268</ele>
        <time>2021-03-21T15:54:30Z</time>
      </trkpt>
      <trkpt lat="43.91819" lon="1.92803">
        <ele>268</ele>
        <time>2021-03-21T15:54:31Z</time>
      </trkpt>
      <trkpt lat="43.91816" lon="1.92798">
        <ele>267.8</ele>
        <time>2021-03-21T15:54:32Z</time>
      </trkpt>
      <trkpt lat="43.91812" lon="1.92793">
        <ele>268</ele>
        <time>2021-03-21T15:54:33Z</time>
      </trkpt>
      <trkpt lat="43.91809" lon="1.92788">
        <ele>268</ele>
        <time>2021-03-21T15:54:34Z</time>
      </trkpt>
      <trkpt lat="43.91806" lon="1.92782">
        <ele>268</ele>
        <time>2021-03-21T15:54:35Z</time>
      </trkpt>
      <trkpt lat="43.91803" lon="1.92776">
        <ele>268</ele>
        <time>2021-03-21T15:54:36Z</time>
      </trkpt>
      <trkpt lat="43.91802" lon="1.92769">
        <ele>268</ele>
        <time>2021-03-21T15:54:37Z</time>
      </trkpt>
      <trkpt lat="43.91801" lon="1.92762">
        <ele>268</ele>
        <time>2021-03-21T15:54:38Z</time>
      </trkpt>
      <trkpt lat="43.91799" lon="1.92748">
        <ele>267.8</ele>
        <time>2021-03-21T15:54:40Z</time>
      </trkpt>
      <trkpt lat="43.91798" lon="1.9274">
        <ele>268</ele>
        <time>2021-03-21T15:54:41Z</time>
      </trkpt>
      <trkpt lat="43.91797" lon="1.92733">
        <ele>268</ele>
        <time>2021-03-21T15:54:42Z</time>
      </trkpt>
      <trkpt lat="43.91796" lon="1.92726">
        <ele>268</ele>
        <time>2021-03-21T15:54:43Z</time>
      </trkpt>
      <trkpt lat="43.91795" lon="1.9272">
        <ele>267.8</ele>
        <time>2021-03-21T15:54:44Z</time>
      </trkpt>
      <trkpt lat="43.91793" lon="1.92713">
        <ele>267.8</ele>
        <time>2021-03-21T15:54:45Z</time>
      </trkpt>
      <trkpt lat="43.9179" lon="1.92707">
        <ele>268</ele>
        <time>2021-03-21T15:54:46Z</time>
      </trkpt>
      <trkpt lat="43.91787" lon="1.92701">
        <ele>268</ele>
        <time>2021-03-21T15:54:47Z</time>
      </trkpt>
      <trkpt lat="43.91785" lon="1.92695">
        <ele>268</ele>
        <time>2021-03-21T15:54:48Z</time>
      </trkpt>
      <trkpt lat="43.91782" lon="1.9269">
        <ele>268.2</ele>
        <time>2021-03-21T15:54:49Z</time>
      </trkpt>
      <trkpt lat="43.91778" lon="1.92684">
        <ele>268</ele>
        <time>2021-03-21T15:54:50Z</time>
      </trkpt>
      <trkpt lat="43.91775" lon="1.92679">
        <ele>268.2</ele>
        <time>2021-03-21T15:54:51Z</time>
      </trkpt>
      <trkpt lat="43.91772" lon="1.92674">
        <ele>268.2</ele>
        <time>2021-03-21T15:54:52Z</time>
      </trkpt>
      <trkpt lat="43.91769" lon="1.92669">
        <ele>268.2</ele>
        <time>2021-03-21T15:54:53Z</time>
      </trkpt>
      <trkpt lat="43.91766" lon="1.92664">
        <ele>268.2</ele>
        <time>2021-03-21T15:54:54Z</time>
      </trkpt>
      <trkpt lat="43.91763" lon="1.92659">
        <ele>268.2</ele>
        <time>2021-03-21T15:54:55Z</time>
      </trkpt>
      <trkpt lat="43.91759" lon="1.92654">
        <ele>268.6</ele>
        <time>2021-03-21T15:54:56Z</time>
      </trkpt>
      <trkpt lat="43.91756" lon="1.92649">
        <ele>268.2</ele>
        <time>2021-03-21T15:54:57Z</time>
      </trkpt>
      <trkpt lat="43.91753" lon="1.92644">
        <ele>268.2</ele>
        <time>2021-03-21T15:54:58Z</time>
      </trkpt>
      <trkpt lat="43.9175" lon="1.92639">
        <ele>268.2</ele>
        <time>2021-03-21T15:54:59Z</time>
      </trkpt>
      <trkpt lat="43.91747" lon="1.92634">
        <ele>268.2</ele>
        <time>2021-03-21T15:55:00Z</time>
      </trkpt>
      <trkpt lat="43.91743" lon="1.9263">
        <ele>268</ele>
        <time>2021-03-21T15:55:01Z</time>
      </trkpt>
      <trkpt lat="43.9174" lon="1.92625">
        <ele>268.2</ele>
        <time>2021-03-21T15:55:02Z</time>
      </trkpt>
      <trkpt lat="43.91736" lon="1.92621">
        <ele>268.2</ele>
        <time>2021-03-21T15:55:03Z</time>
      </trkpt>
      <trkpt lat="43.91732" lon="1.92616">
        <ele>268.4</ele>
        <time>2021-03-21T15:55:04Z</time>
      </trkpt>
      <trkpt lat="43.91724" lon="1.92608">
        <ele>268.2</ele>
        <time>2021-03-21T15:55:06Z</time>
      </trkpt>
      <trkpt lat="43.9172" lon="1.92604">
        <ele>268.2</ele>
        <time>2021-03-21T15:55:07Z</time>
      </trkpt>
      <trkpt lat="43.91716" lon="1.926">
        <ele>268.4</ele>
        <time>2021-03-21T15:55:08Z</time>
      </trkpt>
      <trkpt lat="43.91712" lon="1.92596">
        <ele>268.4</ele>
        <time>2021-03-21T15:55:09Z</time>
      </trkpt>
      <trkpt lat="43.91708" lon="1.92592">
        <ele>268.2</ele>
        <time>2021-03-21T15:55:10Z</time>
      </trkpt>
      <trkpt lat="43.91703" lon="1.92588">
        <ele>268.4</ele>
        <time>2021-03-21T15:55:11Z</time>
      </trkpt>
      <trkpt lat="43.91699" lon="1.92584">
        <ele>268.2</ele>
        <time>2021-03-21T15:55:12Z</time>
      </trkpt>
      <trkpt lat="43.91695" lon="1.9258">
        <ele>268.4</ele>
        <time>2021-03-21T15:55:13Z</time>
      </trkpt>
      <trkpt lat="43.9169" lon="1.92576">
        <ele>268.4</ele>
        <time>2021-03-21T15:55:14Z</time>
      </trkpt>
      <trkpt lat="43.91686" lon="1.92571">
        <ele>268.2</ele>
        <time>2021-03-21T15:55:15Z</time>
      </trkpt>
      <trkpt lat="43.91682" lon="1.92567">
        <ele>268.4</ele>
        <time>2021-03-21T15:55:16Z</time>
      </trkpt>
      <trkpt lat="43.91677" lon="1.92563">
        <ele>268.6</ele>
        <time>2021-03-21T15:55:17Z</time>
      </trkpt>
      <trkpt lat="43.91669" lon="1.92554">
        <ele>268.6</ele>
        <time>2021-03-21T15:55:19Z</time>
      </trkpt>
      <trkpt lat="43.91665" lon="1.92549">
        <ele>268.6</ele>
        <time>2021-03-21T15:55:20Z</time>
      </trkpt>
      <trkpt lat="43.9166" lon="1.92545">
        <ele>268.8</ele>
        <time>2021-03-21T15:55:21Z</time>
      </trkpt>
      <trkpt lat="43.91656" lon="1.9254">
        <ele>268.8</ele>
        <time>2021-03-21T15:55:22Z</time>
      </trkpt>
      <trkpt lat="43.91651" lon="1.92536">
        <ele>269</ele>
        <time>2021-03-21T15:55:23Z</time>
      </trkpt>
      <trkpt lat="43.91647" lon="1.92531">
        <ele>269</ele>
        <time>2021-03-21T15:55:24Z</time>
      </trkpt>
      <trkpt lat="43.91643" lon="1.92526">
        <ele>269</ele>
        <time>2021-03-21T15:55:25Z</time>
      </trkpt>
      <trkpt lat="43.91638" lon="1.92521">
        <ele>269.2</ele>
        <time>2021-03-21T15:55:26Z</time>
      </trkpt>
      <trkpt lat="43.91634" lon="1.92516">
        <ele>269.2</ele>
        <time>2021-03-21T15:55:27Z</time>
      </trkpt>
      <trkpt lat="43.91629" lon="1.92511">
        <ele>269.2</ele>
        <time>2021-03-21T15:55:28Z</time>
      </trkpt>
      <trkpt lat="43.91625" lon="1.92506">
        <ele>269.2</ele>
        <time>2021-03-21T15:55:29Z</time>
      </trkpt>
      <trkpt lat="43.91621" lon="1.925">
        <ele>269</ele>
        <time>2021-03-21T15:55:30Z</time>
      </trkpt>
      <trkpt lat="43.91617" lon="1.92495">
        <ele>269</ele>
        <time>2021-03-21T15:55:31Z</time>
      </trkpt>
      <trkpt lat="43.91613" lon="1.9249">
        <ele>269</ele>
        <time>2021-03-21T15:55:32Z</time>
      </trkpt>
      <trkpt lat="43.91609" lon="1.92485">
        <ele>269</ele>
        <time>2021-03-21T15:55:33Z</time>
      </trkpt>
      <trkpt lat="43.91605" lon="1.9248">
        <ele>269</ele>
        <time>2021-03-21T15:55:34Z</time>
      </trkpt>
      <trkpt lat="43.91601" lon="1.92475">
        <ele>268.8</ele>
        <time>2021-03-21T15:55:35Z</time>
      </trkpt>
      <trkpt lat="43.91597" lon="1.9247">
        <ele>268.6</ele>
        <time>2021-03-21T15:55:36Z</time>
      </trkpt>
      <trkpt lat="43.91593" lon="1.92464">
        <ele>268.6</ele>
        <time>2021-03-21T15:55:37Z</time>
      </trkpt>
      <trkpt lat="43.91589" lon="1.92459">
        <ele>268.6</ele>
        <time>2021-03-21T15:55:38Z</time>
      </trkpt>
      <trkpt lat="43.91585" lon="1.92454">
        <ele>268.6</ele>
        <time>2021-03-21T15:55:39Z</time>
      </trkpt>
      <trkpt lat="43.91582" lon="1.92449">
        <ele>268.4</ele>
        <time>2021-03-21T15:55:40Z</time>
      </trkpt>
      <trkpt lat="43.91578" lon="1.92444">
        <ele>268.6</ele>
        <time>2021-03-21T15:55:41Z</time>
      </trkpt>
      <trkpt lat="43.91571" lon="1.92434">
        <ele>268.4</ele>
        <time>2021-03-21T15:55:43Z</time>
      </trkpt>
      <trkpt lat="43.91567" lon="1.92428">
        <ele>268.4</ele>
        <time>2021-03-21T15:55:44Z</time>
      </trkpt>
      <trkpt lat="43.91563" lon="1.92423">
        <ele>268.4</ele>
        <time>2021-03-21T15:55:45Z</time>
      </trkpt>
      <trkpt lat="43.91559" lon="1.92417">
        <ele>268.4</ele>
        <time>2021-03-21T15:55:46Z</time>
      </trkpt>
      <trkpt lat="43.91552" lon="1.92406">
        <ele>268.4</ele>
        <time>2021-03-21T15:55:48Z</time>
      </trkpt>
      <trkpt lat="43.91548" lon="1.924">
        <ele>268.4</ele>
        <time>2021-03-21T15:55:49Z</time>
      </trkpt>
      <trkpt lat="43.91544" lon="1.92395">
        <ele>268.6</ele>
        <time>2021-03-21T15:55:50Z</time>
      </trkpt>
      <trkpt lat="43.9154" lon="1.92389">
        <ele>268.8</ele>
        <time>2021-03-21T15:55:51Z</time>
      </trkpt>
      <trkpt lat="43.91536" lon="1.92384">
        <ele>269</ele>
        <time>2021-03-21T15:55:52Z</time>
      </trkpt>
      <trkpt lat="43.91532" lon="1.92378">
        <ele>268.8</ele>
        <time>2021-03-21T15:55:53Z</time>
      </trkpt>
      <trkpt lat="43.91528" lon="1.92373">
        <ele>269</ele>
        <time>2021-03-21T15:55:54Z</time>
      </trkpt>
      <trkpt lat="43.91521" lon="1.92361">
        <ele>268.8</ele>
        <time>2021-03-21T15:55:56Z</time>
      </trkpt>
      <trkpt lat="43.91517" lon="1.92356">
        <ele>268.8</ele>
        <time>2021-03-21T15:55:57Z</time>
      </trkpt>
      <trkpt lat="43.91513" lon="1.9235">
        <ele>268.8</ele>
        <time>2021-03-21T15:55:58Z</time>
      </trkpt>
      <trkpt lat="43.91509" lon="1.92345">
        <ele>268.8</ele>
        <time>2021-03-21T15:55:59Z</time>
      </trkpt>
      <trkpt lat="43.91499" lon="1.92336">
        <ele>268.8</ele>
        <time>2021-03-21T15:56:01Z</time>
      </trkpt>
      <trkpt lat="43.91493" lon="1.92333">
        <ele>268.8</ele>
        <time>2021-03-21T15:56:02Z</time>
      </trkpt>
      <trkpt lat="43.91487" lon="1.92333">
        <ele>268.8</ele>
        <time>2021-03-21T15:56:03Z</time>
      </trkpt>
      <trkpt lat="43.91481" lon="1.92334">
        <ele>268.6</ele>
        <time>2021-03-21T15:56:04Z</time>
      </trkpt>
      <trkpt lat="43.91475" lon="1.92337">
        <ele>268.8</ele>
        <time>2021-03-21T15:56:05Z</time>
      </trkpt>
      <trkpt lat="43.9147" lon="1.92341">
        <ele>268.6</ele>
        <time>2021-03-21T15:56:06Z</time>
      </trkpt>
      <trkpt lat="43.91465" lon="1.92344">
        <ele>268.8</ele>
        <time>2021-03-21T15:56:07Z</time>
      </trkpt>
      <trkpt lat="43.91459" lon="1.92347">
        <ele>268.8</ele>
        <time>2021-03-21T15:56:08Z</time>
      </trkpt>
      <trkpt lat="43.91454" lon="1.92346">
        <ele>268.6</ele>
        <time>2021-03-21T15:56:09Z</time>
      </trkpt>
      <trkpt lat="43.9145" lon="1.92344">
        <ele>268.6</ele>
        <time>2021-03-21T15:56:10Z</time>
      </trkpt>
      <trkpt lat="43.91446" lon="1.92338">
        <ele>268.8</ele>
        <time>2021-03-21T15:56:11Z</time>
      </trkpt>
      <trkpt lat="43.91443" lon="1.92331">
        <ele>268.6</ele>
        <time>2021-03-21T15:56:12Z</time>
      </trkpt>
      <trkpt lat="43.91439" lon="1.92324">
        <ele>268.6</ele>
        <time>2021-03-21T15:56:13Z</time>
      </trkpt>
      <trkpt lat="43.91436" lon="1.92316">
        <ele>268.8</ele>
        <time>2021-03-21T15:56:14Z</time>
      </trkpt>
      <trkpt lat="43.91433" lon="1.9231">
        <ele>268.6</ele>
        <time>2021-03-21T15:56:15Z</time>
      </trkpt>
      <trkpt lat="43.91427" lon="1.92296">
        <ele>268.8</ele>
        <time>2021-03-21T15:56:17Z</time>
      </trkpt>
      <trkpt lat="43.91423" lon="1.9229">
        <ele>268.8</ele>
        <time>2021-03-21T15:56:18Z</time>
      </trkpt>
      <trkpt lat="43.9142" lon="1.92283">
        <ele>268.8</ele>
        <time>2021-03-21T15:56:19Z</time>
      </trkpt>
      <trkpt lat="43.91417" lon="1.92276">
        <ele>268.8</ele>
        <time>2021-03-21T15:56:20Z</time>
      </trkpt>
      <trkpt lat="43.91411" lon="1.92263">
        <ele>268.6</ele>
        <time>2021-03-21T15:56:22Z</time>
      </trkpt>
      <trkpt lat="43.91408" lon="1.92256">
        <ele>268.8</ele>
        <time>2021-03-21T15:56:23Z</time>
      </trkpt>
      <trkpt lat="43.91402" lon="1.92243">
        <ele>268.8</ele>
        <time>2021-03-21T15:56:25Z</time>
      </trkpt>
      <trkpt lat="43.91398" lon="1.92236">
        <ele>268.8</ele>
        <time>2021-03-21T15:56:26Z</time>
      </trkpt>
      <trkpt lat="43.91395" lon="1.92229">
        <ele>268.8</ele>
        <time>2021-03-21T15:56:27Z</time>
      </trkpt>
      <trkpt lat="43.91392" lon="1.92223">
        <ele>269</ele>
        <time>2021-03-21T15:56:28Z</time>
      </trkpt>
      <trkpt lat="43.91389" lon="1.92217">
        <ele>268.8</ele>
        <time>2021-03-21T15:56:29Z</time>
      </trkpt>
      <trkpt lat="43.91387" lon="1.92211">
        <ele>268.8</ele>
        <time>2021-03-21T15:56:30Z</time>
      </trkpt>
      <trkpt lat="43.91384" lon="1.92205">
        <ele>268.8</ele>
        <time>2021-03-21T15:56:31Z</time>
      </trkpt>
      <trkpt lat="43.91382" lon="1.922">
        <ele>268.8</ele>
        <time>2021-03-21T15:56:32Z</time>
      </trkpt>
      <trkpt lat="43.9138" lon="1.92195">
        <ele>268.8</ele>
        <time>2021-03-21T15:56:33Z</time>
      </trkpt>
      <trkpt lat="43.91378" lon="1.9219">
        <ele>269</ele>
        <time>2021-03-21T15:56:34Z</time>
      </trkpt>
      <trkpt lat="43.91376" lon="1.92186">
        <ele>269</ele>
        <time>2021-03-21T15:56:35Z</time>
      </trkpt>
      <trkpt lat="43.91374" lon="1.92182">
        <ele>268.8</ele>
        <time>2021-03-21T15:56:36Z</time>
      </trkpt>
      <trkpt lat="43.91373" lon="1.92179">
        <ele>268.8</ele>
        <time>2021-03-21T15:56:37Z</time>
      </trkpt>
      <trkpt lat="43.91373" lon="1.92176">
        <ele>269</ele>
        <time>2021-03-21T15:56:38Z</time>
      </trkpt>
      <trkpt lat="43.91372" lon="1.92175">
        <ele>269.2</ele>
        <time>2021-03-21T15:56:39Z</time>
      </trkpt>
      <trkpt lat="43.91372" lon="1.92174">
        <ele>269</ele>
        <time>2021-03-21T15:56:41Z</time>
      </trkpt>
      <trkpt lat="43.9137" lon="1.9217">
        <ele>270.8</ele>
        <time>2021-03-21T15:57:02Z</time>
      </trkpt>
      <trkpt lat="43.91369" lon="1.92168">
        <ele>270.8</ele>
        <time>2021-03-21T15:57:03Z</time>
      </trkpt>
      <trkpt lat="43.91367" lon="1.92167">
        <ele>270.6</ele>
        <time>2021-03-21T15:57:04Z</time>
      </trkpt>
      <trkpt lat="43.91364" lon="1.92164">
        <ele>270.6</ele>
        <time>2021-03-21T15:57:05Z</time>
      </trkpt>
      <trkpt lat="43.91362" lon="1.92161">
        <ele>270.6</ele>
        <time>2021-03-21T15:57:06Z</time>
      </trkpt>
      <trkpt lat="43.91355" lon="1.92154">
        <ele>270.6</ele>
        <time>2021-03-21T15:57:08Z</time>
      </trkpt>
      <trkpt lat="43.91352" lon="1.92151">
        <ele>270.6</ele>
        <time>2021-03-21T15:57:09Z</time>
      </trkpt>
      <trkpt lat="43.91349" lon="1.92146">
        <ele>270.6</ele>
        <time>2021-03-21T15:57:10Z</time>
      </trkpt>
      <trkpt lat="43.91346" lon="1.92142">
        <ele>270.4</ele>
        <time>2021-03-21T15:57:11Z</time>
      </trkpt>
      <trkpt lat="43.91343" lon="1.92137">
        <ele>270.2</ele>
        <time>2021-03-21T15:57:12Z</time>
      </trkpt>
      <trkpt lat="43.91341" lon="1.92133">
        <ele>270.2</ele>
        <time>2021-03-21T15:57:13Z</time>
      </trkpt>
      <trkpt lat="43.91338" lon="1.92128">
        <ele>270.2</ele>
        <time>2021-03-21T15:57:14Z</time>
      </trkpt>
      <trkpt lat="43.91335" lon="1.92123">
        <ele>270.2</ele>
        <time>2021-03-21T15:57:15Z</time>
      </trkpt>
      <trkpt lat="43.91333" lon="1.92118">
        <ele>270</ele>
        <time>2021-03-21T15:57:16Z</time>
      </trkpt>
      <trkpt lat="43.9133" lon="1.92114">
        <ele>269.8</ele>
        <time>2021-03-21T15:57:17Z</time>
      </trkpt>
      <trkpt lat="43.91324" lon="1.92104">
        <ele>269.2</ele>
        <time>2021-03-21T15:57:19Z</time>
      </trkpt>
      <trkpt lat="43.91321" lon="1.92099">
        <ele>268.8</ele>
        <time>2021-03-21T15:57:20Z</time>
      </trkpt>
      <trkpt lat="43.91315" lon="1.92089">
        <ele>268.6</ele>
        <time>2021-03-21T15:57:22Z</time>
      </trkpt>
      <trkpt lat="43.91312" lon="1.92084">
        <ele>268.6</ele>
        <time>2021-03-21T15:57:23Z</time>
      </trkpt>
      <trkpt lat="43.91309" lon="1.92079">
        <ele>268.4</ele>
        <time>2021-03-21T15:57:24Z</time>
      </trkpt>
      <trkpt lat="43.91306" lon="1.92073">
        <ele>268.2</ele>
        <time>2021-03-21T15:57:25Z</time>
      </trkpt>
      <trkpt lat="43.913" lon="1.92063">
        <ele>268</ele>
        <time>2021-03-21T15:57:27Z</time>
      </trkpt>
      <trkpt lat="43.91297" lon="1.92058">
        <ele>268</ele>
        <time>2021-03-21T15:57:28Z</time>
      </trkpt>
      <trkpt lat="43.91293" lon="1.92052">
        <ele>268</ele>
        <time>2021-03-21T15:57:29Z</time>
      </trkpt>
      <trkpt lat="43.9129" lon="1.92046">
        <ele>268</ele>
        <time>2021-03-21T15:57:30Z</time>
      </trkpt>
      <trkpt lat="43.91287" lon="1.92041">
        <ele>268</ele>
        <time>2021-03-21T15:57:31Z</time>
      </trkpt>
      <trkpt lat="43.91284" lon="1.92035">
        <ele>268</ele>
        <time>2021-03-21T15:57:32Z</time>
      </trkpt>
      <trkpt lat="43.91281" lon="1.92029">
        <ele>268</ele>
        <time>2021-03-21T15:57:33Z</time>
      </trkpt>
      <trkpt lat="43.91278" lon="1.92023">
        <ele>268.2</ele>
        <time>2021-03-21T15:57:34Z</time>
      </trkpt>
      <trkpt lat="43.91274" lon="1.92018">
        <ele>268</ele>
        <time>2021-03-21T15:57:35Z</time>
      </trkpt>
      <trkpt lat="43.91271" lon="1.92013">
        <ele>268</ele>
        <time>2021-03-21T15:57:36Z</time>
      </trkpt>
      <trkpt lat="43.91268" lon="1.92007">
        <ele>268</ele>
        <time>2021-03-21T15:57:37Z</time>
      </trkpt>
      <trkpt lat="43.91265" lon="1.92001">
        <ele>268</ele>
        <time>2021-03-21T15:57:38Z</time>
      </trkpt>
      <trkpt lat="43.91262" lon="1.91995">
        <ele>268</ele>
        <time>2021-03-21T15:57:39Z</time>
      </trkpt>
      <trkpt lat="43.91259" lon="1.91989">
        <ele>268</ele>
        <time>2021-03-21T15:57:40Z</time>
      </trkpt>
      <trkpt lat="43.91256" lon="1.91984">
        <ele>267.8</ele>
        <time>2021-03-21T15:57:41Z</time>
      </trkpt>
      <trkpt lat="43.91249" lon="1.91972">
        <ele>267.8</ele>
        <time>2021-03-21T15:57:43Z</time>
      </trkpt>
      <trkpt lat="43.91246" lon="1.91966">
        <ele>267.8</ele>
        <time>2021-03-21T15:57:44Z</time>
      </trkpt>
      <trkpt lat="43.91242" lon="1.91961">
        <ele>267.6</ele>
        <time>2021-03-21T15:57:45Z</time>
      </trkpt>
      <trkpt lat="43.91238" lon="1.91955">
        <ele>267.4</ele>
        <time>2021-03-21T15:57:46Z</time>
      </trkpt>
      <trkpt lat="43.9123" lon="1.91945">
        <ele>267</ele>
        <time>2021-03-21T15:57:48Z</time>
      </trkpt>
      <trkpt lat="43.91226" lon="1.91939">
        <ele>266.8</ele>
        <time>2021-03-21T15:57:49Z</time>
      </trkpt>
      <trkpt lat="43.91222" lon="1.91934">
        <ele>266.8</ele>
        <time>2021-03-21T15:57:50Z</time>
      </trkpt>
      <trkpt lat="43.91218" lon="1.91928">
        <ele>266.8</ele>
        <time>2021-03-21T15:57:51Z</time>
      </trkpt>
      <trkpt lat="43.91209" lon="1.91917">
        <ele>266.6</ele>
        <time>2021-03-21T15:57:53Z</time>
      </trkpt>
      <trkpt lat="43.91205" lon="1.91912">
        <ele>266.6</ele>
        <time>2021-03-21T15:57:54Z</time>
      </trkpt>
      <trkpt lat="43.912" lon="1.91908">
        <ele>266.4</ele>
        <time>2021-03-21T15:57:55Z</time>
      </trkpt>
      <trkpt lat="43.91196" lon="1.91904">
        <ele>266.6</ele>
        <time>2021-03-21T15:57:56Z</time>
      </trkpt>
      <trkpt lat="43.91191" lon="1.919">
        <ele>266.4</ele>
        <time>2021-03-21T15:57:57Z</time>
      </trkpt>
      <trkpt lat="43.91185" lon="1.91898">
        <ele>266.4</ele>
        <time>2021-03-21T15:57:58Z</time>
      </trkpt>
      <trkpt lat="43.9118" lon="1.91897">
        <ele>266.4</ele>
        <time>2021-03-21T15:57:59Z</time>
      </trkpt>
      <trkpt lat="43.91174" lon="1.91896">
        <ele>266.6</ele>
        <time>2021-03-21T15:58:00Z</time>
      </trkpt>
      <trkpt lat="43.91169" lon="1.91895">
        <ele>266.6</ele>
        <time>2021-03-21T15:58:01Z</time>
      </trkpt>
      <trkpt lat="43.91164" lon="1.91895">
        <ele>266.6</ele>
        <time>2021-03-21T15:58:02Z</time>
      </trkpt>
      <trkpt lat="43.91159" lon="1.91895">
        <ele>266.6</ele>
        <time>2021-03-21T15:58:03Z</time>
      </trkpt>
      <trkpt lat="43.91154" lon="1.91895">
        <ele>266.6</ele>
        <time>2021-03-21T15:58:04Z</time>
      </trkpt>
      <trkpt lat="43.91149" lon="1.91894">
        <ele>266.6</ele>
        <time>2021-03-21T15:58:05Z</time>
      </trkpt>
      <trkpt lat="43.91145" lon="1.91891">
        <ele>266.6</ele>
        <time>2021-03-21T15:58:06Z</time>
      </trkpt>
      <trkpt lat="43.91141" lon="1.91887">
        <ele>266.8</ele>
        <time>2021-03-21T15:58:07Z</time>
      </trkpt>
      <trkpt lat="43.91138" lon="1.91881">
        <ele>266.6</ele>
        <time>2021-03-21T15:58:08Z</time>
      </trkpt>
      <trkpt lat="43.91136" lon="1.91874">
        <ele>266.6</ele>
        <time>2021-03-21T15:58:09Z</time>
      </trkpt>
      <trkpt lat="43.91133" lon="1.91865">
        <ele>266.6</ele>
        <time>2021-03-21T15:58:10Z</time>
      </trkpt>
      <trkpt lat="43.9113" lon="1.91857">
        <ele>266.6</ele>
        <time>2021-03-21T15:58:11Z</time>
      </trkpt>
      <trkpt lat="43.91126" lon="1.91849">
        <ele>266.8</ele>
        <time>2021-03-21T15:58:12Z</time>
      </trkpt>
      <trkpt lat="43.91122" lon="1.91842">
        <ele>266.6</ele>
        <time>2021-03-21T15:58:13Z</time>
      </trkpt>
      <trkpt lat="43.91118" lon="1.91836">
        <ele>266.6</ele>
        <time>2021-03-21T15:58:14Z</time>
      </trkpt>
      <trkpt lat="43.91113" lon="1.9183">
        <ele>266.6</ele>
        <time>2021-03-21T15:58:15Z</time>
      </trkpt>
      <trkpt lat="43.91102" lon="1.9182">
        <ele>266</ele>
        <time>2021-03-21T15:58:17Z</time>
      </trkpt>
      <trkpt lat="43.91096" lon="1.91815">
        <ele>265.8</ele>
        <time>2021-03-21T15:58:18Z</time>
      </trkpt>
      <trkpt lat="43.91091" lon="1.9181">
        <ele>265.6</ele>
        <time>2021-03-21T15:58:19Z</time>
      </trkpt>
      <trkpt lat="43.91086" lon="1.91805">
        <ele>265.4</ele>
        <time>2021-03-21T15:58:20Z</time>
      </trkpt>
      <trkpt lat="43.91081" lon="1.918">
        <ele>265.2</ele>
        <time>2021-03-21T15:58:21Z</time>
      </trkpt>
      <trkpt lat="43.91076" lon="1.91795">
        <ele>265</ele>
        <time>2021-03-21T15:58:22Z</time>
      </trkpt>
      <trkpt lat="43.91071" lon="1.91789">
        <ele>265</ele>
        <time>2021-03-21T15:58:23Z</time>
      </trkpt>
      <trkpt lat="43.91067" lon="1.91785">
        <ele>265</ele>
        <time>2021-03-21T15:58:24Z</time>
      </trkpt>
      <trkpt lat="43.91062" lon="1.9178">
        <ele>265</ele>
        <time>2021-03-21T15:58:25Z</time>
      </trkpt>
      <trkpt lat="43.91058" lon="1.91776">
        <ele>264.8</ele>
        <time>2021-03-21T15:58:26Z</time>
      </trkpt>
      <trkpt lat="43.91054" lon="1.91772">
        <ele>265</ele>
        <time>2021-03-21T15:58:27Z</time>
      </trkpt>
      <trkpt lat="43.9105" lon="1.91767">
        <ele>265</ele>
        <time>2021-03-21T15:58:28Z</time>
      </trkpt>
      <trkpt lat="43.91046" lon="1.91763">
        <ele>264.8</ele>
        <time>2021-03-21T15:58:29Z</time>
      </trkpt>
      <trkpt lat="43.91043" lon="1.91761">
        <ele>265</ele>
        <time>2021-03-21T15:58:30Z</time>
      </trkpt>
      <trkpt lat="43.91038" lon="1.9176">
        <ele>265</ele>
        <time>2021-03-21T15:58:31Z</time>
      </trkpt>
      <trkpt lat="43.91034" lon="1.91762">
        <ele>265</ele>
        <time>2021-03-21T15:58:32Z</time>
      </trkpt>
      <trkpt lat="43.91029" lon="1.91765">
        <ele>264.8</ele>
        <time>2021-03-21T15:58:33Z</time>
      </trkpt>
      <trkpt lat="43.91025" lon="1.91768">
        <ele>264.8</ele>
        <time>2021-03-21T15:58:34Z</time>
      </trkpt>
      <trkpt lat="43.9102" lon="1.91772">
        <ele>265</ele>
        <time>2021-03-21T15:58:35Z</time>
      </trkpt>
      <trkpt lat="43.91016" lon="1.91776">
        <ele>265</ele>
        <time>2021-03-21T15:58:36Z</time>
      </trkpt>
      <trkpt lat="43.91012" lon="1.9178">
        <ele>265.2</ele>
        <time>2021-03-21T15:58:37Z</time>
      </trkpt>
      <trkpt lat="43.91008" lon="1.91783">
        <ele>265.4</ele>
        <time>2021-03-21T15:58:38Z</time>
      </trkpt>
      <trkpt lat="43.91004" lon="1.91787">
        <ele>265.4</ele>
        <time>2021-03-21T15:58:39Z</time>
      </trkpt>
      <trkpt lat="43.91" lon="1.9179">
        <ele>265.8</ele>
        <time>2021-03-21T15:58:40Z</time>
      </trkpt>
      <trkpt lat="43.90996" lon="1.91794">
        <ele>266.2</ele>
        <time>2021-03-21T15:58:41Z</time>
      </trkpt>
      <trkpt lat="43.90992" lon="1.91798">
        <ele>266.2</ele>
        <time>2021-03-21T15:58:42Z</time>
      </trkpt>
      <trkpt lat="43.90988" lon="1.91801">
        <ele>266.4</ele>
        <time>2021-03-21T15:58:43Z</time>
      </trkpt>
      <trkpt lat="43.90985" lon="1.91804">
        <ele>266.6</ele>
        <time>2021-03-21T15:58:44Z</time>
      </trkpt>
      <trkpt lat="43.90977" lon="1.91811">
        <ele>266.8</ele>
        <time>2021-03-21T15:58:46Z</time>
      </trkpt>
      <trkpt lat="43.90973" lon="1.91814">
        <ele>267</ele>
        <time>2021-03-21T15:58:47Z</time>
      </trkpt>
      <trkpt lat="43.90969" lon="1.91817">
        <ele>266.8</ele>
        <time>2021-03-21T15:58:48Z</time>
      </trkpt>
      <trkpt lat="43.90966" lon="1.9182">
        <ele>267</ele>
        <time>2021-03-21T15:58:49Z</time>
      </trkpt>
      <trkpt lat="43.90962" lon="1.91824">
        <ele>266.8</ele>
        <time>2021-03-21T15:58:50Z</time>
      </trkpt>
      <trkpt lat="43.90958" lon="1.91827">
        <ele>267</ele>
        <time>2021-03-21T15:58:51Z</time>
      </trkpt>
      <trkpt lat="43.90955" lon="1.9183">
        <ele>267</ele>
        <time>2021-03-21T15:58:52Z</time>
      </trkpt>
      <trkpt lat="43.90952" lon="1.91833">
        <ele>267.2</ele>
        <time>2021-03-21T15:58:53Z</time>
      </trkpt>
      <trkpt lat="43.90949" lon="1.91836">
        <ele>267</ele>
        <time>2021-03-21T15:58:54Z</time>
      </trkpt>
      <trkpt lat="43.90946" lon="1.91838">
        <ele>267.2</ele>
        <time>2021-03-21T15:58:55Z</time>
      </trkpt>
      <trkpt lat="43.90944" lon="1.91839">
        <ele>267</ele>
        <time>2021-03-21T15:58:56Z</time>
      </trkpt>
      <trkpt lat="43.90942" lon="1.91839">
        <ele>267</ele>
        <time>2021-03-21T15:58:57Z</time>
      </trkpt>
      <trkpt lat="43.90939" lon="1.91837">
        <ele>267.2</ele>
        <time>2021-03-21T15:58:58Z</time>
      </trkpt>
      <trkpt lat="43.90937" lon="1.91834">
        <ele>267.2</ele>
        <time>2021-03-21T15:58:59Z</time>
      </trkpt>
      <trkpt lat="43.90934" lon="1.9183">
        <ele>267.2</ele>
        <time>2021-03-21T15:59:00Z</time>
      </trkpt>
      <trkpt lat="43.90933" lon="1.91826">
        <ele>267.2</ele>
        <time>2021-03-21T15:59:01Z</time>
      </trkpt>
      <trkpt lat="43.90931" lon="1.91822">
        <ele>267</ele>
        <time>2021-03-21T15:59:02Z</time>
      </trkpt>
      <trkpt lat="43.90929" lon="1.91818">
        <ele>267</ele>
        <time>2021-03-21T15:59:03Z</time>
      </trkpt>
      <trkpt lat="43.90925" lon="1.91809">
        <ele>267</ele>
        <time>2021-03-21T15:59:05Z</time>
      </trkpt>
      <trkpt lat="43.90923" lon="1.91804">
        <ele>267</ele>
        <time>2021-03-21T15:59:06Z</time>
      </trkpt>
      <trkpt lat="43.9092" lon="1.91799">
        <ele>266.8</ele>
        <time>2021-03-21T15:59:07Z</time>
      </trkpt>
      <trkpt lat="43.90918" lon="1.91794">
        <ele>266.8</ele>
        <time>2021-03-21T15:59:08Z</time>
      </trkpt>
      <trkpt lat="43.90913" lon="1.91784">
        <ele>266.8</ele>
        <time>2021-03-21T15:59:10Z</time>
      </trkpt>
      <trkpt lat="43.90911" lon="1.91779">
        <ele>266.6</ele>
        <time>2021-03-21T15:59:11Z</time>
      </trkpt>
      <trkpt lat="43.90908" lon="1.91774">
        <ele>266.4</ele>
        <time>2021-03-21T15:59:12Z</time>
      </trkpt>
      <trkpt lat="43.90906" lon="1.91769">
        <ele>266.2</ele>
        <time>2021-03-21T15:59:13Z</time>
      </trkpt>
      <trkpt lat="43.90903" lon="1.91764">
        <ele>266.2</ele>
        <time>2021-03-21T15:59:14Z</time>
      </trkpt>
      <trkpt lat="43.90901" lon="1.91759">
        <ele>266</ele>
        <time>2021-03-21T15:59:15Z</time>
      </trkpt>
      <trkpt lat="43.90899" lon="1.91754">
        <ele>265.8</ele>
        <time>2021-03-21T15:59:16Z</time>
      </trkpt>
      <trkpt lat="43.90897" lon="1.91749">
        <ele>265.8</ele>
        <time>2021-03-21T15:59:17Z</time>
      </trkpt>
      <trkpt lat="43.90895" lon="1.91744">
        <ele>265.8</ele>
        <time>2021-03-21T15:59:18Z</time>
      </trkpt>
      <trkpt lat="43.90893" lon="1.91739">
        <ele>265.6</ele>
        <time>2021-03-21T15:59:19Z</time>
      </trkpt>
      <trkpt lat="43.90892" lon="1.91734">
        <ele>265.6</ele>
        <time>2021-03-21T15:59:20Z</time>
      </trkpt>
      <trkpt lat="43.90891" lon="1.91728">
        <ele>265.4</ele>
        <time>2021-03-21T15:59:21Z</time>
      </trkpt>
      <trkpt lat="43.90892" lon="1.91722">
        <ele>265.2</ele>
        <time>2021-03-21T15:59:22Z</time>
      </trkpt>
      <trkpt lat="43.90894" lon="1.91715">
        <ele>265.2</ele>
        <time>2021-03-21T15:59:23Z</time>
      </trkpt>
      <trkpt lat="43.90897" lon="1.9171">
        <ele>265.2</ele>
        <time>2021-03-21T15:59:24Z</time>
      </trkpt>
      <trkpt lat="43.909" lon="1.91704">
        <ele>265.2</ele>
        <time>2021-03-21T15:59:25Z</time>
      </trkpt>
      <trkpt lat="43.90904" lon="1.91699">
        <ele>265.2</ele>
        <time>2021-03-21T15:59:26Z</time>
      </trkpt>
      <trkpt lat="43.90908" lon="1.91695">
        <ele>265</ele>
        <time>2021-03-21T15:59:27Z</time>
      </trkpt>
      <trkpt lat="43.90912" lon="1.91691">
        <ele>265</ele>
        <time>2021-03-21T15:59:28Z</time>
      </trkpt>
      <trkpt lat="43.90916" lon="1.91688">
        <ele>264.8</ele>
        <time>2021-03-21T15:59:29Z</time>
      </trkpt>
      <trkpt lat="43.9092" lon="1.91684">
        <ele>264.6</ele>
        <time>2021-03-21T15:59:30Z</time>
      </trkpt>
      <trkpt lat="43.90924" lon="1.9168">
        <ele>264.4</ele>
        <time>2021-03-21T15:59:31Z</time>
      </trkpt>
      <trkpt lat="43.90928" lon="1.91677">
        <ele>264.4</ele>
        <time>2021-03-21T15:59:32Z</time>
      </trkpt>
      <trkpt lat="43.90932" lon="1.91674">
        <ele>264.2</ele>
        <time>2021-03-21T15:59:33Z</time>
      </trkpt>
      <trkpt lat="43.90936" lon="1.91671">
        <ele>264.2</ele>
        <time>2021-03-21T15:59:34Z</time>
      </trkpt>
      <trkpt lat="43.9094" lon="1.91669">
        <ele>264.2</ele>
        <time>2021-03-21T15:59:35Z</time>
      </trkpt>
      <trkpt lat="43.90945" lon="1.91666">
        <ele>264.2</ele>
        <time>2021-03-21T15:59:36Z</time>
      </trkpt>
      <trkpt lat="43.90949" lon="1.91664">
        <ele>264</ele>
        <time>2021-03-21T15:59:37Z</time>
      </trkpt>
      <trkpt lat="43.90953" lon="1.91661">
        <ele>264</ele>
        <time>2021-03-21T15:59:38Z</time>
      </trkpt>
      <trkpt lat="43.90957" lon="1.91659">
        <ele>264</ele>
        <time>2021-03-21T15:59:39Z</time>
      </trkpt>
      <trkpt lat="43.9096" lon="1.91656">
        <ele>264</ele>
        <time>2021-03-21T15:59:40Z</time>
      </trkpt>
      <trkpt lat="43.90963" lon="1.91652">
        <ele>264</ele>
        <time>2021-03-21T15:59:41Z</time>
      </trkpt>
      <trkpt lat="43.90966" lon="1.91648">
        <ele>264</ele>
        <time>2021-03-21T15:59:42Z</time>
      </trkpt>
      <trkpt lat="43.9097" lon="1.91639">
        <ele>264.2</ele>
        <time>2021-03-21T15:59:44Z</time>
      </trkpt>
      <trkpt lat="43.90973" lon="1.91634">
        <ele>264</ele>
        <time>2021-03-21T15:59:45Z</time>
      </trkpt>
      <trkpt lat="43.90975" lon="1.91629">
        <ele>264.2</ele>
        <time>2021-03-21T15:59:46Z</time>
      </trkpt>
      <trkpt lat="43.90979" lon="1.91625">
        <ele>264.2</ele>
        <time>2021-03-21T15:59:47Z</time>
      </trkpt>
      <trkpt lat="43.90983" lon="1.91621">
        <ele>264.2</ele>
        <time>2021-03-21T15:59:48Z</time>
      </trkpt>
      <trkpt lat="43.90988" lon="1.91619">
        <ele>264.2</ele>
        <time>2021-03-21T15:59:49Z</time>
      </trkpt>
      <trkpt lat="43.90992" lon="1.91616">
        <ele>264.2</ele>
        <time>2021-03-21T15:59:50Z</time>
      </trkpt>
      <trkpt lat="43.91001" lon="1.91611">
        <ele>264.2</ele>
        <time>2021-03-21T15:59:52Z</time>
      </trkpt>
      <trkpt lat="43.91005" lon="1.91609">
        <ele>264.4</ele>
        <time>2021-03-21T15:59:53Z</time>
      </trkpt>
      <trkpt lat="43.9101" lon="1.91606">
        <ele>264.2</ele>
        <time>2021-03-21T15:59:54Z</time>
      </trkpt>
      <trkpt lat="43.91014" lon="1.91604">
        <ele>264.2</ele>
        <time>2021-03-21T15:59:55Z</time>
      </trkpt>
      <trkpt lat="43.91018" lon="1.91602">
        <ele>264.4</ele>
        <time>2021-03-21T15:59:56Z</time>
      </trkpt>
      <trkpt lat="43.91023" lon="1.916">
        <ele>264.2</ele>
        <time>2021-03-21T15:59:57Z</time>
      </trkpt>
      <trkpt lat="43.91027" lon="1.91598">
        <ele>264.4</ele>
        <time>2021-03-21T15:59:58Z</time>
      </trkpt>
      <trkpt lat="43.91031" lon="1.91595">
        <ele>264.6</ele>
        <time>2021-03-21T15:59:59Z</time>
      </trkpt>
      <trkpt lat="43.91036" lon="1.91593">
        <ele>264.6</ele>
        <time>2021-03-21T16:00:00Z</time>
      </trkpt>
      <trkpt lat="43.91041" lon="1.91591">
        <ele>264.6</ele>
        <time>2021-03-21T16:00:01Z</time>
      </trkpt>
      <trkpt lat="43.91045" lon="1.9159">
        <ele>264.4</ele>
        <time>2021-03-21T16:00:02Z</time>
      </trkpt>
      <trkpt lat="43.9105" lon="1.91588">
        <ele>264.4</ele>
        <time>2021-03-21T16:00:03Z</time>
      </trkpt>
      <trkpt lat="43.91054" lon="1.91587">
        <ele>264.6</ele>
        <time>2021-03-21T16:00:04Z</time>
      </trkpt>
      <trkpt lat="43.91058" lon="1.91585">
        <ele>264.8</ele>
        <time>2021-03-21T16:00:05Z</time>
      </trkpt>
      <trkpt lat="43.91063" lon="1.91583">
        <ele>264.8</ele>
        <time>2021-03-21T16:00:06Z</time>
      </trkpt>
      <trkpt lat="43.91067" lon="1.91582">
        <ele>264.8</ele>
        <time>2021-03-21T16:00:07Z</time>
      </trkpt>
      <trkpt lat="43.91071" lon="1.91581">
        <ele>265</ele>
        <time>2021-03-21T16:00:08Z</time>
      </trkpt>
      <trkpt lat="43.91079" lon="1.91578">
        <ele>265.4</ele>
        <time>2021-03-21T16:00:10Z</time>
      </trkpt>
      <trkpt lat="43.91084" lon="1.91577">
        <ele>265.4</ele>
        <time>2021-03-21T16:00:11Z</time>
      </trkpt>
      <trkpt lat="43.91088" lon="1.91575">
        <ele>265.6</ele>
        <time>2021-03-21T16:00:12Z</time>
      </trkpt>
      <trkpt lat="43.91092" lon="1.91574">
        <ele>265.6</ele>
        <time>2021-03-21T16:00:13Z</time>
      </trkpt>
      <trkpt lat="43.91097" lon="1.91573">
        <ele>266</ele>
        <time>2021-03-21T16:00:14Z</time>
      </trkpt>
      <trkpt lat="43.91101" lon="1.91571">
        <ele>266</ele>
        <time>2021-03-21T16:00:15Z</time>
      </trkpt>
      <trkpt lat="43.91106" lon="1.9157">
        <ele>266.4</ele>
        <time>2021-03-21T16:00:16Z</time>
      </trkpt>
      <trkpt lat="43.91111" lon="1.91568">
        <ele>266.6</ele>
        <time>2021-03-21T16:00:17Z</time>
      </trkpt>
      <trkpt lat="43.91116" lon="1.91567">
        <ele>266.6</ele>
        <time>2021-03-21T16:00:18Z</time>
      </trkpt>
      <trkpt lat="43.91121" lon="1.91565">
        <ele>267</ele>
        <time>2021-03-21T16:00:19Z</time>
      </trkpt>
      <trkpt lat="43.91126" lon="1.91563">
        <ele>267</ele>
        <time>2021-03-21T16:00:20Z</time>
      </trkpt>
      <trkpt lat="43.9113" lon="1.91561">
        <ele>267.2</ele>
        <time>2021-03-21T16:00:21Z</time>
      </trkpt>
      <trkpt lat="43.91135" lon="1.91559">
        <ele>267.2</ele>
        <time>2021-03-21T16:00:22Z</time>
      </trkpt>
      <trkpt lat="43.9114" lon="1.91557">
        <ele>267.2</ele>
        <time>2021-03-21T16:00:23Z</time>
      </trkpt>
      <trkpt lat="43.91145" lon="1.91556">
        <ele>267.2</ele>
        <time>2021-03-21T16:00:24Z</time>
      </trkpt>
      <trkpt lat="43.9115" lon="1.91554">
        <ele>267.2</ele>
        <time>2021-03-21T16:00:25Z</time>
      </trkpt>
      <trkpt lat="43.91154" lon="1.91552">
        <ele>267.4</ele>
        <time>2021-03-21T16:00:26Z</time>
      </trkpt>
      <trkpt lat="43.91159" lon="1.91551">
        <ele>267.6</ele>
        <time>2021-03-21T16:00:27Z</time>
      </trkpt>
      <trkpt lat="43.91163" lon="1.91549">
        <ele>267.6</ele>
        <time>2021-03-21T16:00:28Z</time>
      </trkpt>
      <trkpt lat="43.91168" lon="1.91548">
        <ele>267.6</ele>
        <time>2021-03-21T16:00:29Z</time>
      </trkpt>
      <trkpt lat="43.91172" lon="1.91546">
        <ele>267.6</ele>
        <time>2021-03-21T16:00:30Z</time>
      </trkpt>
      <trkpt lat="43.91177" lon="1.91544">
        <ele>267.6</ele>
        <time>2021-03-21T16:00:31Z</time>
      </trkpt>
      <trkpt lat="43.91181" lon="1.91542">
        <ele>267.6</ele>
        <time>2021-03-21T16:00:32Z</time>
      </trkpt>
      <trkpt lat="43.91185" lon="1.91541">
        <ele>267.8</ele>
        <time>2021-03-21T16:00:33Z</time>
      </trkpt>
      <trkpt lat="43.91189" lon="1.91539">
        <ele>267.6</ele>
        <time>2021-03-21T16:00:34Z</time>
      </trkpt>
      <trkpt lat="43.91194" lon="1.91537">
        <ele>267.6</ele>
        <time>2021-03-21T16:00:35Z</time>
      </trkpt>
      <trkpt lat="43.91198" lon="1.91536">
        <ele>267.6</ele>
        <time>2021-03-21T16:00:36Z</time>
      </trkpt>
      <trkpt lat="43.91202" lon="1.91534">
        <ele>267.6</ele>
        <time>2021-03-21T16:00:37Z</time>
      </trkpt>
      <trkpt lat="43.91206" lon="1.91533">
        <ele>267.6</ele>
        <time>2021-03-21T16:00:38Z</time>
      </trkpt>
      <trkpt lat="43.91211" lon="1.91531">
        <ele>267.6</ele>
        <time>2021-03-21T16:00:39Z</time>
      </trkpt>
      <trkpt lat="43.91215" lon="1.91529">
        <ele>267.6</ele>
        <time>2021-03-21T16:00:40Z</time>
      </trkpt>
      <trkpt lat="43.91219" lon="1.91528">
        <ele>267.6</ele>
        <time>2021-03-21T16:00:41Z</time>
      </trkpt>
      <trkpt lat="43.91227" lon="1.91525">
        <ele>267.6</ele>
        <time>2021-03-21T16:00:43Z</time>
      </trkpt>
      <trkpt lat="43.91232" lon="1.91523">
        <ele>267.6</ele>
        <time>2021-03-21T16:00:44Z</time>
      </trkpt>
      <trkpt lat="43.91236" lon="1.91521">
        <ele>267.6</ele>
        <time>2021-03-21T16:00:45Z</time>
      </trkpt>
      <trkpt lat="43.9124" lon="1.9152">
        <ele>267.4</ele>
        <time>2021-03-21T16:00:46Z</time>
      </trkpt>
      <trkpt lat="43.91244" lon="1.91518">
        <ele>267.4</ele>
        <time>2021-03-21T16:00:47Z</time>
      </trkpt>
      <trkpt lat="43.91248" lon="1.91516">
        <ele>267.6</ele>
        <time>2021-03-21T16:00:48Z</time>
      </trkpt>
      <trkpt lat="43.91252" lon="1.91515">
        <ele>267.4</ele>
        <time>2021-03-21T16:00:49Z</time>
      </trkpt>
      <trkpt lat="43.91256" lon="1.91513">
        <ele>267.4</ele>
        <time>2021-03-21T16:00:50Z</time>
      </trkpt>
      <trkpt lat="43.9126" lon="1.91512">
        <ele>267.4</ele>
        <time>2021-03-21T16:00:51Z</time>
      </trkpt>
      <trkpt lat="43.91264" lon="1.9151">
        <ele>267.2</ele>
        <time>2021-03-21T16:00:52Z</time>
      </trkpt>
      <trkpt lat="43.91268" lon="1.91509">
        <ele>267.4</ele>
        <time>2021-03-21T16:00:53Z</time>
      </trkpt>
      <trkpt lat="43.91271" lon="1.91508">
        <ele>267.4</ele>
        <time>2021-03-21T16:00:54Z</time>
      </trkpt>
      <trkpt lat="43.91273" lon="1.91506">
        <ele>267.4</ele>
        <time>2021-03-21T16:00:55Z</time>
      </trkpt>
      <trkpt lat="43.91275" lon="1.91504">
        <ele>267.2</ele>
        <time>2021-03-21T16:00:56Z</time>
      </trkpt>
      <trkpt lat="43.91277" lon="1.91501">
        <ele>267.4</ele>
        <time>2021-03-21T16:00:57Z</time>
      </trkpt>
      <trkpt lat="43.91277" lon="1.91498">
        <ele>267.4</ele>
        <time>2021-03-21T16:00:58Z</time>
      </trkpt>
      <trkpt lat="43.91277" lon="1.91494">
        <ele>267.6</ele>
        <time>2021-03-21T16:00:59Z</time>
      </trkpt>
      <trkpt lat="43.91276" lon="1.9149">
        <ele>267.8</ele>
        <time>2021-03-21T16:01:00Z</time>
      </trkpt>
      <trkpt lat="43.91275" lon="1.91486">
        <ele>267.8</ele>
        <time>2021-03-21T16:01:01Z</time>
      </trkpt>
      <trkpt lat="43.91275" lon="1.91481">
        <ele>267.8</ele>
        <time>2021-03-21T16:01:02Z</time>
      </trkpt>
      <trkpt lat="43.91274" lon="1.91475">
        <ele>268</ele>
        <time>2021-03-21T16:01:03Z</time>
      </trkpt>
      <trkpt lat="43.91274" lon="1.9147">
        <ele>268</ele>
        <time>2021-03-21T16:01:04Z</time>
      </trkpt>
      <trkpt lat="43.91272" lon="1.91464">
        <ele>268</ele>
        <time>2021-03-21T16:01:05Z</time>
      </trkpt>
      <trkpt lat="43.91269" lon="1.91453">
        <ele>268.4</ele>
        <time>2021-03-21T16:01:07Z</time>
      </trkpt>
      <trkpt lat="43.91267" lon="1.91448">
        <ele>268.4</ele>
        <time>2021-03-21T16:01:08Z</time>
      </trkpt>
      <trkpt lat="43.91265" lon="1.91443">
        <ele>268.4</ele>
        <time>2021-03-21T16:01:09Z</time>
      </trkpt>
      <trkpt lat="43.91262" lon="1.91438">
        <ele>268.4</ele>
        <time>2021-03-21T16:01:10Z</time>
      </trkpt>
      <trkpt lat="43.9126" lon="1.91433">
        <ele>268.6</ele>
        <time>2021-03-21T16:01:11Z</time>
      </trkpt>
      <trkpt lat="43.91257" lon="1.91428">
        <ele>268.4</ele>
        <time>2021-03-21T16:01:12Z</time>
      </trkpt>
      <trkpt lat="43.91254" lon="1.91423">
        <ele>268.4</ele>
        <time>2021-03-21T16:01:13Z</time>
      </trkpt>
      <trkpt lat="43.91248" lon="1.91414">
        <ele>268.6</ele>
        <time>2021-03-21T16:01:15Z</time>
      </trkpt>
      <trkpt lat="43.91245" lon="1.91409">
        <ele>268.4</ele>
        <time>2021-03-21T16:01:16Z</time>
      </trkpt>
      <trkpt lat="43.91242" lon="1.91404">
        <ele>268.6</ele>
        <time>2021-03-21T16:01:17Z</time>
      </trkpt>
      <trkpt lat="43.91239" lon="1.91399">
        <ele>268.4</ele>
        <time>2021-03-21T16:01:18Z</time>
      </trkpt>
      <trkpt lat="43.91237" lon="1.91394">
        <ele>268.4</ele>
        <time>2021-03-21T16:01:19Z</time>
      </trkpt>
      <trkpt lat="43.91234" lon="1.91389">
        <ele>268.4</ele>
        <time>2021-03-21T16:01:20Z</time>
      </trkpt>
      <trkpt lat="43.91231" lon="1.91384">
        <ele>268.4</ele>
        <time>2021-03-21T16:01:21Z</time>
      </trkpt>
      <trkpt lat="43.91229" lon="1.91379">
        <ele>268.4</ele>
        <time>2021-03-21T16:01:22Z</time>
      </trkpt>
      <trkpt lat="43.91227" lon="1.91373">
        <ele>268.4</ele>
        <time>2021-03-21T16:01:23Z</time>
      </trkpt>
      <trkpt lat="43.91225" lon="1.91367">
        <ele>268.4</ele>
        <time>2021-03-21T16:01:24Z</time>
      </trkpt>
      <trkpt lat="43.91223" lon="1.91362">
        <ele>268.4</ele>
        <time>2021-03-21T16:01:25Z</time>
      </trkpt>
      <trkpt lat="43.91221" lon="1.91356">
        <ele>268</ele>
        <time>2021-03-21T16:01:26Z</time>
      </trkpt>
      <trkpt lat="43.91215" lon="1.91345">
        <ele>268</ele>
        <time>2021-03-21T16:01:28Z</time>
      </trkpt>
      <trkpt lat="43.91212" lon="1.9134">
        <ele>268</ele>
        <time>2021-03-21T16:01:29Z</time>
      </trkpt>
      <trkpt lat="43.91209" lon="1.91335">
        <ele>268</ele>
        <time>2021-03-21T16:01:30Z</time>
      </trkpt>
      <trkpt lat="43.91206" lon="1.9133">
        <ele>267.8</ele>
        <time>2021-03-21T16:01:31Z</time>
      </trkpt>
      <trkpt lat="43.91203" lon="1.91325">
        <ele>267.8</ele>
        <time>2021-03-21T16:01:32Z</time>
      </trkpt>
      <trkpt lat="43.912" lon="1.91321">
        <ele>267.8</ele>
        <time>2021-03-21T16:01:33Z</time>
      </trkpt>
      <trkpt lat="43.91197" lon="1.91316">
        <ele>267.8</ele>
        <time>2021-03-21T16:01:34Z</time>
      </trkpt>
      <trkpt lat="43.91194" lon="1.91312">
        <ele>267.8</ele>
        <time>2021-03-21T16:01:35Z</time>
      </trkpt>
      <trkpt lat="43.91191" lon="1.91307">
        <ele>267.8</ele>
        <time>2021-03-21T16:01:36Z</time>
      </trkpt>
      <trkpt lat="43.91188" lon="1.91303">
        <ele>267.6</ele>
        <time>2021-03-21T16:01:37Z</time>
      </trkpt>
      <trkpt lat="43.91184" lon="1.91298">
        <ele>267.8</ele>
        <time>2021-03-21T16:01:38Z</time>
      </trkpt>
      <trkpt lat="43.91181" lon="1.91294">
        <ele>267.6</ele>
        <time>2021-03-21T16:01:39Z</time>
      </trkpt>
      <trkpt lat="43.91177" lon="1.9129">
        <ele>267.8</ele>
        <time>2021-03-21T16:01:40Z</time>
      </trkpt>
      <trkpt lat="43.91173" lon="1.91287">
        <ele>267.6</ele>
        <time>2021-03-21T16:01:41Z</time>
      </trkpt>
      <trkpt lat="43.91169" lon="1.91283">
        <ele>267.6</ele>
        <time>2021-03-21T16:01:42Z</time>
      </trkpt>
      <trkpt lat="43.91165" lon="1.9128">
        <ele>267.8</ele>
        <time>2021-03-21T16:01:43Z</time>
      </trkpt>
      <trkpt lat="43.91161" lon="1.91277">
        <ele>267.8</ele>
        <time>2021-03-21T16:01:44Z</time>
      </trkpt>
      <trkpt lat="43.91156" lon="1.91273">
        <ele>267.8</ele>
        <time>2021-03-21T16:01:45Z</time>
      </trkpt>
      <trkpt lat="43.91152" lon="1.9127">
        <ele>267.6</ele>
        <time>2021-03-21T16:01:46Z</time>
      </trkpt>
      <trkpt lat="43.91147" lon="1.91266">
        <ele>267.6</ele>
        <time>2021-03-21T16:01:47Z</time>
      </trkpt>
      <trkpt lat="43.91143" lon="1.91263">
        <ele>267.4</ele>
        <time>2021-03-21T16:01:48Z</time>
      </trkpt>
      <trkpt lat="43.91138" lon="1.9126">
        <ele>267.4</ele>
        <time>2021-03-21T16:01:49Z</time>
      </trkpt>
      <trkpt lat="43.91133" lon="1.91257">
        <ele>267.2</ele>
        <time>2021-03-21T16:01:50Z</time>
      </trkpt>
      <trkpt lat="43.91129" lon="1.91253">
        <ele>267.2</ele>
        <time>2021-03-21T16:01:51Z</time>
      </trkpt>
      <trkpt lat="43.91125" lon="1.9125">
        <ele>267.2</ele>
        <time>2021-03-21T16:01:52Z</time>
      </trkpt>
      <trkpt lat="43.91121" lon="1.91246">
        <ele>267</ele>
        <time>2021-03-21T16:01:53Z</time>
      </trkpt>
      <trkpt lat="43.91118" lon="1.91242">
        <ele>267</ele>
        <time>2021-03-21T16:01:54Z</time>
      </trkpt>
      <trkpt lat="43.91114" lon="1.91236">
        <ele>266.8</ele>
        <time>2021-03-21T16:01:55Z</time>
      </trkpt>
      <trkpt lat="43.91111" lon="1.91231">
        <ele>267</ele>
        <time>2021-03-21T16:01:56Z</time>
      </trkpt>
      <trkpt lat="43.91108" lon="1.91225">
        <ele>267</ele>
        <time>2021-03-21T16:01:57Z</time>
      </trkpt>
      <trkpt lat="43.91104" lon="1.91219">
        <ele>267</ele>
        <time>2021-03-21T16:01:58Z</time>
      </trkpt>
      <trkpt lat="43.91101" lon="1.91213">
        <ele>267</ele>
        <time>2021-03-21T16:01:59Z</time>
      </trkpt>
      <trkpt lat="43.91098" lon="1.91207">
        <ele>267</ele>
        <time>2021-03-21T16:02:00Z</time>
      </trkpt>
      <trkpt lat="43.91096" lon="1.91202">
        <ele>267</ele>
        <time>2021-03-21T16:02:01Z</time>
      </trkpt>
      <trkpt lat="43.91093" lon="1.91197">
        <ele>267</ele>
        <time>2021-03-21T16:02:02Z</time>
      </trkpt>
      <trkpt lat="43.91091" lon="1.91192">
        <ele>267.4</ele>
        <time>2021-03-21T16:02:03Z</time>
      </trkpt>
      <trkpt lat="43.91088" lon="1.91187">
        <ele>267.6</ele>
        <time>2021-03-21T16:02:04Z</time>
      </trkpt>
      <trkpt lat="43.91084" lon="1.91182">
        <ele>267.6</ele>
        <time>2021-03-21T16:02:05Z</time>
      </trkpt>
      <trkpt lat="43.91081" lon="1.91177">
        <ele>267.4</ele>
        <time>2021-03-21T16:02:06Z</time>
      </trkpt>
      <trkpt lat="43.91077" lon="1.91172">
        <ele>267.4</ele>
        <time>2021-03-21T16:02:07Z</time>
      </trkpt>
      <trkpt lat="43.91073" lon="1.91167">
        <ele>267.2</ele>
        <time>2021-03-21T16:02:08Z</time>
      </trkpt>
      <trkpt lat="43.91069" lon="1.91162">
        <ele>267.4</ele>
        <time>2021-03-21T16:02:09Z</time>
      </trkpt>
      <trkpt lat="43.91065" lon="1.91157">
        <ele>267.6</ele>
        <time>2021-03-21T16:02:10Z</time>
      </trkpt>
      <trkpt lat="43.91061" lon="1.91153">
        <ele>267.6</ele>
        <time>2021-03-21T16:02:11Z</time>
      </trkpt>
      <trkpt lat="43.91058" lon="1.91149">
        <ele>267.4</ele>
        <time>2021-03-21T16:02:12Z</time>
      </trkpt>
      <trkpt lat="43.91055" lon="1.91146">
        <ele>267.6</ele>
        <time>2021-03-21T16:02:13Z</time>
      </trkpt>
      <trkpt lat="43.91052" lon="1.91144">
        <ele>267.8</ele>
        <time>2021-03-21T16:02:14Z</time>
      </trkpt>
      <trkpt lat="43.91049" lon="1.91141">
        <ele>267.8</ele>
        <time>2021-03-21T16:02:15Z</time>
      </trkpt>
      <trkpt lat="43.91047" lon="1.91139">
        <ele>267.6</ele>
        <time>2021-03-21T16:02:16Z</time>
      </trkpt>
      <trkpt lat="43.91046" lon="1.91137">
        <ele>267.6</ele>
        <time>2021-03-21T16:02:17Z</time>
      </trkpt>
      <trkpt lat="43.91046" lon="1.91136">
        <ele>267.6</ele>
        <time>2021-03-21T16:02:18Z</time>
      </trkpt>
      <trkpt lat="43.91046" lon="1.91135">
        <ele>267.8</ele>
        <time>2021-03-21T16:02:19Z</time>
      </trkpt>
      <trkpt lat="43.91046" lon="1.91135">
        <ele>267.6</ele>
        <time>2021-03-21T16:02:20Z</time>
      </trkpt>
      <trkpt lat="43.91042" lon="1.91133">
        <ele>267.8</ele>
        <time>2021-03-21T16:02:53Z</time>
      </trkpt>
      <trkpt lat="43.9104" lon="1.91132">
        <ele>267.8</ele>
        <time>2021-03-21T16:02:54Z</time>
      </trkpt>
      <trkpt lat="43.91038" lon="1.91131">
        <ele>268</ele>
        <time>2021-03-21T16:02:55Z</time>
      </trkpt>
      <trkpt lat="43.91036" lon="1.91129">
        <ele>268</ele>
        <time>2021-03-21T16:02:56Z</time>
      </trkpt>
      <trkpt lat="43.91033" lon="1.91127">
        <ele>267.8</ele>
        <time>2021-03-21T16:02:57Z</time>
      </trkpt>
      <trkpt lat="43.91031" lon="1.91124">
        <ele>267.8</ele>
        <time>2021-03-21T16:02:58Z</time>
      </trkpt>
      <trkpt lat="43.91028" lon="1.91121">
        <ele>267.8</ele>
        <time>2021-03-21T16:02:59Z</time>
      </trkpt>
      <trkpt lat="43.91025" lon="1.91118">
        <ele>268</ele>
        <time>2021-03-21T16:03:00Z</time>
      </trkpt>
      <trkpt lat="43.91022" lon="1.91115">
        <ele>267.8</ele>
        <time>2021-03-21T16:03:01Z</time>
      </trkpt>
      <trkpt lat="43.91019" lon="1.91111">
        <ele>267.8</ele>
        <time>2021-03-21T16:03:02Z</time>
      </trkpt>
      <trkpt lat="43.91012" lon="1.91104">
        <ele>267.8</ele>
        <time>2021-03-21T16:03:04Z</time>
      </trkpt>
      <trkpt lat="43.91009" lon="1.911">
        <ele>267.6</ele>
        <time>2021-03-21T16:03:05Z</time>
      </trkpt>
      <trkpt lat="43.91005" lon="1.91096">
        <ele>267.6</ele>
        <time>2021-03-21T16:03:06Z</time>
      </trkpt>
      <trkpt lat="43.91001" lon="1.91092">
        <ele>267.4</ele>
        <time>2021-03-21T16:03:07Z</time>
      </trkpt>
      <trkpt lat="43.90998" lon="1.91087">
        <ele>267.4</ele>
        <time>2021-03-21T16:03:08Z</time>
      </trkpt>
      <trkpt lat="43.90994" lon="1.91082">
        <ele>267.2</ele>
        <time>2021-03-21T16:03:09Z</time>
      </trkpt>
      <trkpt lat="43.90991" lon="1.91077">
        <ele>267.2</ele>
        <time>2021-03-21T16:03:10Z</time>
      </trkpt>
      <trkpt lat="43.90985" lon="1.91066">
        <ele>267.2</ele>
        <time>2021-03-21T16:03:12Z</time>
      </trkpt>
      <trkpt lat="43.90981" lon="1.91061">
        <ele>267.2</ele>
        <time>2021-03-21T16:03:13Z</time>
      </trkpt>
      <trkpt lat="43.90978" lon="1.91055">
        <ele>267</ele>
        <time>2021-03-21T16:03:14Z</time>
      </trkpt>
      <trkpt lat="43.90975" lon="1.91048">
        <ele>267</ele>
        <time>2021-03-21T16:03:15Z</time>
      </trkpt>
      <trkpt lat="43.9097" lon="1.91036">
        <ele>267</ele>
        <time>2021-03-21T16:03:17Z</time>
      </trkpt>
      <trkpt lat="43.90967" lon="1.91029">
        <ele>266.8</ele>
        <time>2021-03-21T16:03:18Z</time>
      </trkpt>
      <trkpt lat="43.90964" lon="1.91023">
        <ele>266.8</ele>
        <time>2021-03-21T16:03:19Z</time>
      </trkpt>
      <trkpt lat="43.90962" lon="1.91016">
        <ele>266.8</ele>
        <time>2021-03-21T16:03:20Z</time>
      </trkpt>
      <trkpt lat="43.90959" lon="1.91009">
        <ele>266.8</ele>
        <time>2021-03-21T16:03:21Z</time>
      </trkpt>
      <trkpt lat="43.90956" lon="1.91003">
        <ele>266.8</ele>
        <time>2021-03-21T16:03:22Z</time>
      </trkpt>
      <trkpt lat="43.90953" lon="1.90996">
        <ele>266.8</ele>
        <time>2021-03-21T16:03:23Z</time>
      </trkpt>
      <trkpt lat="43.90948" lon="1.90983">
        <ele>266.8</ele>
        <time>2021-03-21T16:03:25Z</time>
      </trkpt>
      <trkpt lat="43.90945" lon="1.90976">
        <ele>266.6</ele>
        <time>2021-03-21T16:03:26Z</time>
      </trkpt>
      <trkpt lat="43.90942" lon="1.9097">
        <ele>266.8</ele>
        <time>2021-03-21T16:03:27Z</time>
      </trkpt>
      <trkpt lat="43.90938" lon="1.90964">
        <ele>266.8</ele>
        <time>2021-03-21T16:03:28Z</time>
      </trkpt>
      <trkpt lat="43.90934" lon="1.90958">
        <ele>266.6</ele>
        <time>2021-03-21T16:03:29Z</time>
      </trkpt>
      <trkpt lat="43.9093" lon="1.90953">
        <ele>266.6</ele>
        <time>2021-03-21T16:03:30Z</time>
      </trkpt>
      <trkpt lat="43.90926" lon="1.90948">
        <ele>266.6</ele>
        <time>2021-03-21T16:03:31Z</time>
      </trkpt>
      <trkpt lat="43.90921" lon="1.90943">
        <ele>266.6</ele>
        <time>2021-03-21T16:03:32Z</time>
      </trkpt>
      <trkpt lat="43.90916" lon="1.90939">
        <ele>266.6</ele>
        <time>2021-03-21T16:03:33Z</time>
      </trkpt>
      <trkpt lat="43.90911" lon="1.90936">
        <ele>266.6</ele>
        <time>2021-03-21T16:03:34Z</time>
      </trkpt>
      <trkpt lat="43.90906" lon="1.90933">
        <ele>266.6</ele>
        <time>2021-03-21T16:03:35Z</time>
      </trkpt>
      <trkpt lat="43.90901" lon="1.9093">
        <ele>266.6</ele>
        <time>2021-03-21T16:03:36Z</time>
      </trkpt>
      <trkpt lat="43.9089" lon="1.90924">
        <ele>266.8</ele>
        <time>2021-03-21T16:03:38Z</time>
      </trkpt>
      <trkpt lat="43.90884" lon="1.90921">
        <ele>266.6</ele>
        <time>2021-03-21T16:03:39Z</time>
      </trkpt>
      <trkpt lat="43.90879" lon="1.90919">
        <ele>266.6</ele>
        <time>2021-03-21T16:03:40Z</time>
      </trkpt>
      <trkpt lat="43.90873" lon="1.90916">
        <ele>266.8</ele>
        <time>2021-03-21T16:03:41Z</time>
      </trkpt>
      <trkpt lat="43.90868" lon="1.90913">
        <ele>266.8</ele>
        <time>2021-03-21T16:03:42Z</time>
      </trkpt>
      <trkpt lat="43.90862" lon="1.9091">
        <ele>266.6</ele>
        <time>2021-03-21T16:03:43Z</time>
      </trkpt>
      <trkpt lat="43.90857" lon="1.90907">
        <ele>266.6</ele>
        <time>2021-03-21T16:03:44Z</time>
      </trkpt>
      <trkpt lat="43.90851" lon="1.90905">
        <ele>266.6</ele>
        <time>2021-03-21T16:03:45Z</time>
      </trkpt>
      <trkpt lat="43.90846" lon="1.90902">
        <ele>266.6</ele>
        <time>2021-03-21T16:03:46Z</time>
      </trkpt>
      <trkpt lat="43.9084" lon="1.90899">
        <ele>266.4</ele>
        <time>2021-03-21T16:03:47Z</time>
      </trkpt>
      <trkpt lat="43.90835" lon="1.90896">
        <ele>266.4</ele>
        <time>2021-03-21T16:03:48Z</time>
      </trkpt>
      <trkpt lat="43.9083" lon="1.90893">
        <ele>266.4</ele>
        <time>2021-03-21T16:03:49Z</time>
      </trkpt>
      <trkpt lat="43.90824" lon="1.9089">
        <ele>266.4</ele>
        <time>2021-03-21T16:03:50Z</time>
      </trkpt>
      <trkpt lat="43.90819" lon="1.90887">
        <ele>266.2</ele>
        <time>2021-03-21T16:03:51Z</time>
      </trkpt>
      <trkpt lat="43.90814" lon="1.90883">
        <ele>266.2</ele>
        <time>2021-03-21T16:03:52Z</time>
      </trkpt>
      <trkpt lat="43.90809" lon="1.90879">
        <ele>266.2</ele>
        <time>2021-03-21T16:03:53Z</time>
      </trkpt>
      <trkpt lat="43.90805" lon="1.90874">
        <ele>266</ele>
        <time>2021-03-21T16:03:54Z</time>
      </trkpt>
      <trkpt lat="43.90802" lon="1.90868">
        <ele>266</ele>
        <time>2021-03-21T16:03:55Z</time>
      </trkpt>
      <trkpt lat="43.90799" lon="1.90861">
        <ele>265.8</ele>
        <time>2021-03-21T16:03:56Z</time>
      </trkpt>
      <trkpt lat="43.90796" lon="1.90855">
        <ele>265.8</ele>
        <time>2021-03-21T16:03:57Z</time>
      </trkpt>
      <trkpt lat="43.90793" lon="1.90847">
        <ele>265.8</ele>
        <time>2021-03-21T16:03:58Z</time>
      </trkpt>
      <trkpt lat="43.9079" lon="1.9084">
        <ele>265.8</ele>
        <time>2021-03-21T16:03:59Z</time>
      </trkpt>
      <trkpt lat="43.90787" lon="1.90834">
        <ele>265.8</ele>
        <time>2021-03-21T16:04:00Z</time>
      </trkpt>
      <trkpt lat="43.90784" lon="1.90827">
        <ele>265.8</ele>
        <time>2021-03-21T16:04:01Z</time>
      </trkpt>
      <trkpt lat="43.90782" lon="1.9082">
        <ele>265.8</ele>
        <time>2021-03-21T16:04:02Z</time>
      </trkpt>
      <trkpt lat="43.90779" lon="1.90813">
        <ele>265.8</ele>
        <time>2021-03-21T16:04:03Z</time>
      </trkpt>
      <trkpt lat="43.90776" lon="1.90807">
        <ele>265.8</ele>
        <time>2021-03-21T16:04:04Z</time>
      </trkpt>
      <trkpt lat="43.90773" lon="1.908">
        <ele>265.6</ele>
        <time>2021-03-21T16:04:05Z</time>
      </trkpt>
      <trkpt lat="43.90766" lon="1.90787">
        <ele>265.6</ele>
        <time>2021-03-21T16:04:07Z</time>
      </trkpt>
      <trkpt lat="43.90762" lon="1.90781">
        <ele>265.8</ele>
        <time>2021-03-21T16:04:08Z</time>
      </trkpt>
      <trkpt lat="43.90754" lon="1.9077">
        <ele>265.8</ele>
        <time>2021-03-21T16:04:10Z</time>
      </trkpt>
      <trkpt lat="43.90749" lon="1.90766">
        <ele>265.8</ele>
        <time>2021-03-21T16:04:11Z</time>
      </trkpt>
      <trkpt lat="43.90745" lon="1.90762">
        <ele>265.8</ele>
        <time>2021-03-21T16:04:12Z</time>
      </trkpt>
      <trkpt lat="43.9074" lon="1.90758">
        <ele>265.8</ele>
        <time>2021-03-21T16:04:13Z</time>
      </trkpt>
      <trkpt lat="43.9073" lon="1.90752">
        <ele>265.8</ele>
        <time>2021-03-21T16:04:15Z</time>
      </trkpt>
      <trkpt lat="43.90724" lon="1.90749">
        <ele>265.8</ele>
        <time>2021-03-21T16:04:16Z</time>
      </trkpt>
      <trkpt lat="43.90719" lon="1.90746">
        <ele>265.8</ele>
        <time>2021-03-21T16:04:17Z</time>
      </trkpt>
      <trkpt lat="43.90714" lon="1.90743">
        <ele>265.6</ele>
        <time>2021-03-21T16:04:18Z</time>
      </trkpt>
      <trkpt lat="43.90709" lon="1.90741">
        <ele>265.6</ele>
        <time>2021-03-21T16:04:19Z</time>
      </trkpt>
      <trkpt lat="43.90704" lon="1.90738">
        <ele>265.8</ele>
        <time>2021-03-21T16:04:20Z</time>
      </trkpt>
      <trkpt lat="43.90699" lon="1.90735">
        <ele>265.6</ele>
        <time>2021-03-21T16:04:21Z</time>
      </trkpt>
      <trkpt lat="43.90694" lon="1.90732">
        <ele>265.6</ele>
        <time>2021-03-21T16:04:22Z</time>
      </trkpt>
      <trkpt lat="43.90689" lon="1.9073">
        <ele>265.6</ele>
        <time>2021-03-21T16:04:23Z</time>
      </trkpt>
      <trkpt lat="43.90684" lon="1.90727">
        <ele>265.6</ele>
        <time>2021-03-21T16:04:24Z</time>
      </trkpt>
      <trkpt lat="43.90679" lon="1.90724">
        <ele>265.6</ele>
        <time>2021-03-21T16:04:25Z</time>
      </trkpt>
      <trkpt lat="43.90675" lon="1.9072">
        <ele>265.6</ele>
        <time>2021-03-21T16:04:26Z</time>
      </trkpt>
      <trkpt lat="43.90671" lon="1.90715">
        <ele>265.6</ele>
        <time>2021-03-21T16:04:27Z</time>
      </trkpt>
      <trkpt lat="43.90668" lon="1.90708">
        <ele>265.4</ele>
        <time>2021-03-21T16:04:28Z</time>
      </trkpt>
      <trkpt lat="43.90667" lon="1.90702">
        <ele>265.2</ele>
        <time>2021-03-21T16:04:29Z</time>
      </trkpt>
      <trkpt lat="43.90666" lon="1.90694">
        <ele>265.2</ele>
        <time>2021-03-21T16:04:30Z</time>
      </trkpt>
      <trkpt lat="43.90664" lon="1.90687">
        <ele>265</ele>
        <time>2021-03-21T16:04:31Z</time>
      </trkpt>
      <trkpt lat="43.90663" lon="1.9068">
        <ele>264.8</ele>
        <time>2021-03-21T16:04:32Z</time>
      </trkpt>
      <trkpt lat="43.90663" lon="1.90672">
        <ele>264.8</ele>
        <time>2021-03-21T16:04:33Z</time>
      </trkpt>
      <trkpt lat="43.90662" lon="1.90665">
        <ele>264.6</ele>
        <time>2021-03-21T16:04:34Z</time>
      </trkpt>
      <trkpt lat="43.9066" lon="1.90649">
        <ele>264.8</ele>
        <time>2021-03-21T16:04:36Z</time>
      </trkpt>
      <trkpt lat="43.90659" lon="1.90642">
        <ele>264.6</ele>
        <time>2021-03-21T16:04:37Z</time>
      </trkpt>
      <trkpt lat="43.90658" lon="1.90634">
        <ele>264.6</ele>
        <time>2021-03-21T16:04:38Z</time>
      </trkpt>
      <trkpt lat="43.90657" lon="1.90627">
        <ele>264.6</ele>
        <time>2021-03-21T16:04:39Z</time>
      </trkpt>
      <trkpt lat="43.90657" lon="1.90619">
        <ele>264.6</ele>
        <time>2021-03-21T16:04:40Z</time>
      </trkpt>
      <trkpt lat="43.90656" lon="1.90612">
        <ele>264.6</ele>
        <time>2021-03-21T16:04:41Z</time>
      </trkpt>
      <trkpt lat="43.90655" lon="1.90604">
        <ele>264.6</ele>
        <time>2021-03-21T16:04:42Z</time>
      </trkpt>
      <trkpt lat="43.90653" lon="1.9059">
        <ele>264.6</ele>
        <time>2021-03-21T16:04:44Z</time>
      </trkpt>
      <trkpt lat="43.90653" lon="1.90583">
        <ele>264.6</ele>
        <time>2021-03-21T16:04:45Z</time>
      </trkpt>
      <trkpt lat="43.90652" lon="1.90576">
        <ele>264.6</ele>
        <time>2021-03-21T16:04:46Z</time>
      </trkpt>
      <trkpt lat="43.90652" lon="1.90569">
        <ele>264.6</ele>
        <time>2021-03-21T16:04:47Z</time>
      </trkpt>
      <trkpt lat="43.90651" lon="1.90562">
        <ele>264.4</ele>
        <time>2021-03-21T16:04:48Z</time>
      </trkpt>
      <trkpt lat="43.90649" lon="1.90555">
        <ele>264.6</ele>
        <time>2021-03-21T16:04:49Z</time>
      </trkpt>
      <trkpt lat="43.90648" lon="1.90548">
        <ele>264.6</ele>
        <time>2021-03-21T16:04:50Z</time>
      </trkpt>
      <trkpt lat="43.90647" lon="1.90541">
        <ele>264.4</ele>
        <time>2021-03-21T16:04:51Z</time>
      </trkpt>
      <trkpt lat="43.90645" lon="1.90535">
        <ele>264.6</ele>
        <time>2021-03-21T16:04:52Z</time>
      </trkpt>
      <trkpt lat="43.90643" lon="1.90528">
        <ele>264.8</ele>
        <time>2021-03-21T16:04:53Z</time>
      </trkpt>
      <trkpt lat="43.90642" lon="1.9052">
        <ele>264.6</ele>
        <time>2021-03-21T16:04:54Z</time>
      </trkpt>
      <trkpt lat="43.9064" lon="1.90513">
        <ele>264.8</ele>
        <time>2021-03-21T16:04:55Z</time>
      </trkpt>
      <trkpt lat="43.90639" lon="1.90506">
        <ele>264.8</ele>
        <time>2021-03-21T16:04:56Z</time>
      </trkpt>
      <trkpt lat="43.90637" lon="1.90499">
        <ele>264.8</ele>
        <time>2021-03-21T16:04:57Z</time>
      </trkpt>
      <trkpt lat="43.90636" lon="1.90491">
        <ele>264.6</ele>
        <time>2021-03-21T16:04:58Z</time>
      </trkpt>
      <trkpt lat="43.90633" lon="1.90476">
        <ele>265</ele>
        <time>2021-03-21T16:05:00Z</time>
      </trkpt>
      <trkpt lat="43.90632" lon="1.90469">
        <ele>265</ele>
        <time>2021-03-21T16:05:01Z</time>
      </trkpt>
      <trkpt lat="43.90631" lon="1.90462">
        <ele>265</ele>
        <time>2021-03-21T16:05:02Z</time>
      </trkpt>
      <trkpt lat="43.90631" lon="1.90456">
        <ele>265.2</ele>
        <time>2021-03-21T16:05:03Z</time>
      </trkpt>
      <trkpt lat="43.90632" lon="1.90449">
        <ele>265.4</ele>
        <time>2021-03-21T16:05:04Z</time>
      </trkpt>
      <trkpt lat="43.90632" lon="1.90444">
        <ele>265.6</ele>
        <time>2021-03-21T16:05:05Z</time>
      </trkpt>
      <trkpt lat="43.90632" lon="1.90439">
        <ele>265.6</ele>
        <time>2021-03-21T16:05:06Z</time>
      </trkpt>
      <trkpt lat="43.90632" lon="1.90434">
        <ele>265.8</ele>
        <time>2021-03-21T16:05:07Z</time>
      </trkpt>
      <trkpt lat="43.9063" lon="1.90428">
        <ele>265.8</ele>
        <time>2021-03-21T16:05:08Z</time>
      </trkpt>
      <trkpt lat="43.90628" lon="1.90423">
        <ele>265.8</ele>
        <time>2021-03-21T16:05:09Z</time>
      </trkpt>
      <trkpt lat="43.90625" lon="1.90419">
        <ele>265.6</ele>
        <time>2021-03-21T16:05:10Z</time>
      </trkpt>
      <trkpt lat="43.90622" lon="1.90414">
        <ele>265.6</ele>
        <time>2021-03-21T16:05:11Z</time>
      </trkpt>
      <trkpt lat="43.90619" lon="1.9041">
        <ele>265.4</ele>
        <time>2021-03-21T16:05:12Z</time>
      </trkpt>
      <trkpt lat="43.90617" lon="1.90404">
        <ele>265.6</ele>
        <time>2021-03-21T16:05:13Z</time>
      </trkpt>
      <trkpt lat="43.90615" lon="1.90398">
        <ele>265.6</ele>
        <time>2021-03-21T16:05:14Z</time>
      </trkpt>
      <trkpt lat="43.90615" lon="1.90391">
        <ele>265.4</ele>
        <time>2021-03-21T16:05:15Z</time>
      </trkpt>
      <trkpt lat="43.90615" lon="1.90385">
        <ele>265.6</ele>
        <time>2021-03-21T16:05:16Z</time>
      </trkpt>
      <trkpt lat="43.90615" lon="1.90378">
        <ele>265.4</ele>
        <time>2021-03-21T16:05:17Z</time>
      </trkpt>
      <trkpt lat="43.90616" lon="1.90365">
        <ele>265.6</ele>
        <time>2021-03-21T16:05:19Z</time>
      </trkpt>
      <trkpt lat="43.90617" lon="1.90359">
        <ele>265.6</ele>
        <time>2021-03-21T16:05:20Z</time>
      </trkpt>
      <trkpt lat="43.90617" lon="1.90352">
        <ele>265.4</ele>
        <time>2021-03-21T16:05:21Z</time>
      </trkpt>
      <trkpt lat="43.90618" lon="1.90346">
        <ele>265.4</ele>
        <time>2021-03-21T16:05:22Z</time>
      </trkpt>
      <trkpt lat="43.90618" lon="1.90339">
        <ele>265.4</ele>
        <time>2021-03-21T16:05:23Z</time>
      </trkpt>
      <trkpt lat="43.90619" lon="1.90333">
        <ele>265.4</ele>
        <time>2021-03-21T16:05:24Z</time>
      </trkpt>
      <trkpt lat="43.90619" lon="1.90326">
        <ele>265.4</ele>
        <time>2021-03-21T16:05:25Z</time>
      </trkpt>
      <trkpt lat="43.90618" lon="1.90319">
        <ele>265.4</ele>
        <time>2021-03-21T16:05:26Z</time>
      </trkpt>
      <trkpt lat="43.90617" lon="1.90313">
        <ele>265.2</ele>
        <time>2021-03-21T16:05:27Z</time>
      </trkpt>
      <trkpt lat="43.90616" lon="1.90306">
        <ele>265.2</ele>
        <time>2021-03-21T16:05:28Z</time>
      </trkpt>
      <trkpt lat="43.90614" lon="1.903">
        <ele>265.2</ele>
        <time>2021-03-21T16:05:29Z</time>
      </trkpt>
      <trkpt lat="43.90611" lon="1.90294">
        <ele>265.2</ele>
        <time>2021-03-21T16:05:30Z</time>
      </trkpt>
      <trkpt lat="43.90609" lon="1.90288">
        <ele>265.2</ele>
        <time>2021-03-21T16:05:31Z</time>
      </trkpt>
      <trkpt lat="43.90607" lon="1.90281">
        <ele>265</ele>
        <time>2021-03-21T16:05:32Z</time>
      </trkpt>
      <trkpt lat="43.90602" lon="1.90268">
        <ele>265</ele>
        <time>2021-03-21T16:05:34Z</time>
      </trkpt>
      <trkpt lat="43.906" lon="1.90262">
        <ele>265</ele>
        <time>2021-03-21T16:05:35Z</time>
      </trkpt>
      <trkpt lat="43.90596" lon="1.90248">
        <ele>264.8</ele>
        <time>2021-03-21T16:05:37Z</time>
      </trkpt>
      <trkpt lat="43.90594" lon="1.90242">
        <ele>264.8</ele>
        <time>2021-03-21T16:05:38Z</time>
      </trkpt>
      <trkpt lat="43.90592" lon="1.90236">
        <ele>264.6</ele>
        <time>2021-03-21T16:05:39Z</time>
      </trkpt>
      <trkpt lat="43.9059" lon="1.90229">
        <ele>264.6</ele>
        <time>2021-03-21T16:05:40Z</time>
      </trkpt>
      <trkpt lat="43.90588" lon="1.90222">
        <ele>264.6</ele>
        <time>2021-03-21T16:05:41Z</time>
      </trkpt>
      <trkpt lat="43.90586" lon="1.90215">
        <ele>264.6</ele>
        <time>2021-03-21T16:05:42Z</time>
      </trkpt>
      <trkpt lat="43.90584" lon="1.90208">
        <ele>264.6</ele>
        <time>2021-03-21T16:05:43Z</time>
      </trkpt>
      <trkpt lat="43.90581" lon="1.90201">
        <ele>264.4</ele>
        <time>2021-03-21T16:05:44Z</time>
      </trkpt>
      <trkpt lat="43.90579" lon="1.90194">
        <ele>264.6</ele>
        <time>2021-03-21T16:05:45Z</time>
      </trkpt>
      <trkpt lat="43.90577" lon="1.90187">
        <ele>264.6</ele>
        <time>2021-03-21T16:05:46Z</time>
      </trkpt>
      <trkpt lat="43.90575" lon="1.9018">
        <ele>264.6</ele>
        <time>2021-03-21T16:05:47Z</time>
      </trkpt>
      <trkpt lat="43.90572" lon="1.90173">
        <ele>264.6</ele>
        <time>2021-03-21T16:05:48Z</time>
      </trkpt>
      <trkpt lat="43.9057" lon="1.90165">
        <ele>264.6</ele>
        <time>2021-03-21T16:05:49Z</time>
      </trkpt>
      <trkpt lat="43.90568" lon="1.90158">
        <ele>264.6</ele>
        <time>2021-03-21T16:05:50Z</time>
      </trkpt>
      <trkpt lat="43.90566" lon="1.9015">
        <ele>264.6</ele>
        <time>2021-03-21T16:05:51Z</time>
      </trkpt>
      <trkpt lat="43.90564" lon="1.90143">
        <ele>264.8</ele>
        <time>2021-03-21T16:05:52Z</time>
      </trkpt>
      <trkpt lat="43.90562" lon="1.90137">
        <ele>264.8</ele>
        <time>2021-03-21T16:05:53Z</time>
      </trkpt>
      <trkpt lat="43.90559" lon="1.90131">
        <ele>264.8</ele>
        <time>2021-03-21T16:05:54Z</time>
      </trkpt>
      <trkpt lat="43.90557" lon="1.90125">
        <ele>264.8</ele>
        <time>2021-03-21T16:05:55Z</time>
      </trkpt>
      <trkpt lat="43.90555" lon="1.90118">
        <ele>264.8</ele>
        <time>2021-03-21T16:05:56Z</time>
      </trkpt>
      <trkpt lat="43.90553" lon="1.90112">
        <ele>264.8</ele>
        <time>2021-03-21T16:05:57Z</time>
      </trkpt>
      <trkpt lat="43.90551" lon="1.90105">
        <ele>264.8</ele>
        <time>2021-03-21T16:05:58Z</time>
      </trkpt>
      <trkpt lat="43.90549" lon="1.90099">
        <ele>264.8</ele>
        <time>2021-03-21T16:05:59Z</time>
      </trkpt>
      <trkpt lat="43.90546" lon="1.90086">
        <ele>264.8</ele>
        <time>2021-03-21T16:06:01Z</time>
      </trkpt>
      <trkpt lat="43.90543" lon="1.90079">
        <ele>264.8</ele>
        <time>2021-03-21T16:06:02Z</time>
      </trkpt>
      <trkpt lat="43.90539" lon="1.90065">
        <ele>264.8</ele>
        <time>2021-03-21T16:06:04Z</time>
      </trkpt>
      <trkpt lat="43.90537" lon="1.90058">
        <ele>264.6</ele>
        <time>2021-03-21T16:06:05Z</time>
      </trkpt>
      <trkpt lat="43.90535" lon="1.90051">
        <ele>264.8</ele>
        <time>2021-03-21T16:06:06Z</time>
      </trkpt>
      <trkpt lat="43.90534" lon="1.90043">
        <ele>264.8</ele>
        <time>2021-03-21T16:06:07Z</time>
      </trkpt>
      <trkpt lat="43.90532" lon="1.90036">
        <ele>264.8</ele>
        <time>2021-03-21T16:06:08Z</time>
      </trkpt>
      <trkpt lat="43.90531" lon="1.90028">
        <ele>264.8</ele>
        <time>2021-03-21T16:06:09Z</time>
      </trkpt>
      <trkpt lat="43.9053" lon="1.90021">
        <ele>264.6</ele>
        <time>2021-03-21T16:06:10Z</time>
      </trkpt>
      <trkpt lat="43.90529" lon="1.90014">
        <ele>264.6</ele>
        <time>2021-03-21T16:06:11Z</time>
      </trkpt>
      <trkpt lat="43.90528" lon="1.90006">
        <ele>264.4</ele>
        <time>2021-03-21T16:06:12Z</time>
      </trkpt>
      <trkpt lat="43.90525" lon="1.89992">
        <ele>264.4</ele>
        <time>2021-03-21T16:06:14Z</time>
      </trkpt>
      <trkpt lat="43.90524" lon="1.89985">
        <ele>264</ele>
        <time>2021-03-21T16:06:15Z</time>
      </trkpt>
      <trkpt lat="43.90523" lon="1.89978">
        <ele>264.2</ele>
        <time>2021-03-21T16:06:16Z</time>
      </trkpt>
      <trkpt lat="43.90521" lon="1.8997">
        <ele>264</ele>
        <time>2021-03-21T16:06:17Z</time>
      </trkpt>
      <trkpt lat="43.9052" lon="1.89963">
        <ele>264</ele>
        <time>2021-03-21T16:06:18Z</time>
      </trkpt>
      <trkpt lat="43.90519" lon="1.89955">
        <ele>264</ele>
        <time>2021-03-21T16:06:19Z</time>
      </trkpt>
      <trkpt lat="43.90518" lon="1.89948">
        <ele>263.8</ele>
        <time>2021-03-21T16:06:20Z</time>
      </trkpt>
      <trkpt lat="43.90517" lon="1.8994">
        <ele>264</ele>
        <time>2021-03-21T16:06:21Z</time>
      </trkpt>
      <trkpt lat="43.90517" lon="1.89932">
        <ele>264</ele>
        <time>2021-03-21T16:06:22Z</time>
      </trkpt>
      <trkpt lat="43.90516" lon="1.89924">
        <ele>263.8</ele>
        <time>2021-03-21T16:06:23Z</time>
      </trkpt>
      <trkpt lat="43.90515" lon="1.89917">
        <ele>263.8</ele>
        <time>2021-03-21T16:06:24Z</time>
      </trkpt>
      <trkpt lat="43.90514" lon="1.89909">
        <ele>263.8</ele>
        <time>2021-03-21T16:06:25Z</time>
      </trkpt>
      <trkpt lat="43.90514" lon="1.89901">
        <ele>263.8</ele>
        <time>2021-03-21T16:06:26Z</time>
      </trkpt>
      <trkpt lat="43.90513" lon="1.89894">
        <ele>263.8</ele>
        <time>2021-03-21T16:06:27Z</time>
      </trkpt>
      <trkpt lat="43.90512" lon="1.89888">
        <ele>263.8</ele>
        <time>2021-03-21T16:06:28Z</time>
      </trkpt>
      <trkpt lat="43.90511" lon="1.89882">
        <ele>263.8</ele>
        <time>2021-03-21T16:06:29Z</time>
      </trkpt>
      <trkpt lat="43.90511" lon="1.89876">
        <ele>263.8</ele>
        <time>2021-03-21T16:06:30Z</time>
      </trkpt>
      <trkpt lat="43.9051" lon="1.89869">
        <ele>263.8</ele>
        <time>2021-03-21T16:06:31Z</time>
      </trkpt>
      <trkpt lat="43.90508" lon="1.89864">
        <ele>263.8</ele>
        <time>2021-03-21T16:06:32Z</time>
      </trkpt>
      <trkpt lat="43.90507" lon="1.89858">
        <ele>263.8</ele>
        <time>2021-03-21T16:06:33Z</time>
      </trkpt>
      <trkpt lat="43.90504" lon="1.89845">
        <ele>263.8</ele>
        <time>2021-03-21T16:06:35Z</time>
      </trkpt>
      <trkpt lat="43.90503" lon="1.89838">
        <ele>263.8</ele>
        <time>2021-03-21T16:06:36Z</time>
      </trkpt>
      <trkpt lat="43.90501" lon="1.89832">
        <ele>263.8</ele>
        <time>2021-03-21T16:06:37Z</time>
      </trkpt>
      <trkpt lat="43.90501" lon="1.89826">
        <ele>263.8</ele>
        <time>2021-03-21T16:06:38Z</time>
      </trkpt>
      <trkpt lat="43.90501" lon="1.8982">
        <ele>263.8</ele>
        <time>2021-03-21T16:06:39Z</time>
      </trkpt>
      <trkpt lat="43.90501" lon="1.89814">
        <ele>264</ele>
        <time>2021-03-21T16:06:40Z</time>
      </trkpt>
      <trkpt lat="43.905" lon="1.89809">
        <ele>264</ele>
        <time>2021-03-21T16:06:41Z</time>
      </trkpt>
      <trkpt lat="43.905" lon="1.89804">
        <ele>264</ele>
        <time>2021-03-21T16:06:42Z</time>
      </trkpt>
      <trkpt lat="43.90498" lon="1.89799">
        <ele>264</ele>
        <time>2021-03-21T16:06:43Z</time>
      </trkpt>
      <trkpt lat="43.90496" lon="1.89795">
        <ele>264</ele>
        <time>2021-03-21T16:06:44Z</time>
      </trkpt>
      <trkpt lat="43.90492" lon="1.89792">
        <ele>264.2</ele>
        <time>2021-03-21T16:06:45Z</time>
      </trkpt>
      <trkpt lat="43.90489" lon="1.8979">
        <ele>264.2</ele>
        <time>2021-03-21T16:06:46Z</time>
      </trkpt>
      <trkpt lat="43.90484" lon="1.89788">
        <ele>264.2</ele>
        <time>2021-03-21T16:06:47Z</time>
      </trkpt>
      <trkpt lat="43.9048" lon="1.89787">
        <ele>264</ele>
        <time>2021-03-21T16:06:48Z</time>
      </trkpt>
      <trkpt lat="43.90476" lon="1.89785">
        <ele>264</ele>
        <time>2021-03-21T16:06:49Z</time>
      </trkpt>
      <trkpt lat="43.90471" lon="1.89782">
        <ele>264.2</ele>
        <time>2021-03-21T16:06:50Z</time>
      </trkpt>
      <trkpt lat="43.90467" lon="1.89779">
        <ele>264.2</ele>
        <time>2021-03-21T16:06:51Z</time>
      </trkpt>
      <trkpt lat="43.90462" lon="1.89777">
        <ele>264.2</ele>
        <time>2021-03-21T16:06:52Z</time>
      </trkpt>
      <trkpt lat="43.90458" lon="1.89774">
        <ele>264.2</ele>
        <time>2021-03-21T16:06:53Z</time>
      </trkpt>
      <trkpt lat="43.90453" lon="1.89771">
        <ele>264</ele>
        <time>2021-03-21T16:06:54Z</time>
      </trkpt>
      <trkpt lat="43.90448" lon="1.89769">
        <ele>264</ele>
        <time>2021-03-21T16:06:55Z</time>
      </trkpt>
      <trkpt lat="43.90443" lon="1.89766">
        <ele>264</ele>
        <time>2021-03-21T16:06:56Z</time>
      </trkpt>
      <trkpt lat="43.90437" lon="1.89764">
        <ele>264</ele>
        <time>2021-03-21T16:06:57Z</time>
      </trkpt>
      <trkpt lat="43.90432" lon="1.89761">
        <ele>263.8</ele>
        <time>2021-03-21T16:06:58Z</time>
      </trkpt>
      <trkpt lat="43.90427" lon="1.89758">
        <ele>263.8</ele>
        <time>2021-03-21T16:06:59Z</time>
      </trkpt>
      <trkpt lat="43.90421" lon="1.89756">
        <ele>263.6</ele>
        <time>2021-03-21T16:07:00Z</time>
      </trkpt>
      <trkpt lat="43.90416" lon="1.89753">
        <ele>263.6</ele>
        <time>2021-03-21T16:07:01Z</time>
      </trkpt>
      <trkpt lat="43.90411" lon="1.89751">
        <ele>263.6</ele>
        <time>2021-03-21T16:07:02Z</time>
      </trkpt>
      <trkpt lat="43.90407" lon="1.89748">
        <ele>263.6</ele>
        <time>2021-03-21T16:07:03Z</time>
      </trkpt>
      <trkpt lat="43.90402" lon="1.89745">
        <ele>263.6</ele>
        <time>2021-03-21T16:07:04Z</time>
      </trkpt>
      <trkpt lat="43.90398" lon="1.89741">
        <ele>263.4</ele>
        <time>2021-03-21T16:07:05Z</time>
      </trkpt>
      <trkpt lat="43.90395" lon="1.89736">
        <ele>263.4</ele>
        <time>2021-03-21T16:07:06Z</time>
      </trkpt>
      <trkpt lat="43.90392" lon="1.89728">
        <ele>263.2</ele>
        <time>2021-03-21T16:07:07Z</time>
      </trkpt>
      <trkpt lat="43.90391" lon="1.8972">
        <ele>263.4</ele>
        <time>2021-03-21T16:07:08Z</time>
      </trkpt>
      <trkpt lat="43.90392" lon="1.89713">
        <ele>263.2</ele>
        <time>2021-03-21T16:07:09Z</time>
      </trkpt>
      <trkpt lat="43.90395" lon="1.89706">
        <ele>263</ele>
        <time>2021-03-21T16:07:10Z</time>
      </trkpt>
      <trkpt lat="43.90398" lon="1.897">
        <ele>263</ele>
        <time>2021-03-21T16:07:11Z</time>
      </trkpt>
      <trkpt lat="43.90402" lon="1.89694">
        <ele>262.8</ele>
        <time>2021-03-21T16:07:12Z</time>
      </trkpt>
      <trkpt lat="43.90406" lon="1.8969">
        <ele>262.6</ele>
        <time>2021-03-21T16:07:13Z</time>
      </trkpt>
      <trkpt lat="43.9041" lon="1.89685">
        <ele>262.4</ele>
        <time>2021-03-21T16:07:14Z</time>
      </trkpt>
      <trkpt lat="43.90415" lon="1.89681">
        <ele>262</ele>
        <time>2021-03-21T16:07:15Z</time>
      </trkpt>
      <trkpt lat="43.90419" lon="1.89676">
        <ele>261.8</ele>
        <time>2021-03-21T16:07:16Z</time>
      </trkpt>
      <trkpt lat="43.90423" lon="1.89671">
        <ele>261.8</ele>
        <time>2021-03-21T16:07:17Z</time>
      </trkpt>
      <trkpt lat="43.90432" lon="1.89661">
        <ele>261</ele>
        <time>2021-03-21T16:07:19Z</time>
      </trkpt>
      <trkpt lat="43.90436" lon="1.89656">
        <ele>260.6</ele>
        <time>2021-03-21T16:07:20Z</time>
      </trkpt>
      <trkpt lat="43.9044" lon="1.89652">
        <ele>260.4</ele>
        <time>2021-03-21T16:07:21Z</time>
      </trkpt>
      <trkpt lat="43.90444" lon="1.89647">
        <ele>260.2</ele>
        <time>2021-03-21T16:07:22Z</time>
      </trkpt>
      <trkpt lat="43.90448" lon="1.89643">
        <ele>260.4</ele>
        <time>2021-03-21T16:07:23Z</time>
      </trkpt>
      <trkpt lat="43.90452" lon="1.89639">
        <ele>260.4</ele>
        <time>2021-03-21T16:07:24Z</time>
      </trkpt>
      <trkpt lat="43.90456" lon="1.89635">
        <ele>260.2</ele>
        <time>2021-03-21T16:07:25Z</time>
      </trkpt>
      <trkpt lat="43.90461" lon="1.8963">
        <ele>260.2</ele>
        <time>2021-03-21T16:07:26Z</time>
      </trkpt>
      <trkpt lat="43.90465" lon="1.89626">
        <ele>260.2</ele>
        <time>2021-03-21T16:07:27Z</time>
      </trkpt>
      <trkpt lat="43.90468" lon="1.89621">
        <ele>260.2</ele>
        <time>2021-03-21T16:07:28Z</time>
      </trkpt>
      <trkpt lat="43.90472" lon="1.89617">
        <ele>260</ele>
        <time>2021-03-21T16:07:29Z</time>
      </trkpt>
      <trkpt lat="43.90476" lon="1.89613">
        <ele>260</ele>
        <time>2021-03-21T16:07:30Z</time>
      </trkpt>
      <trkpt lat="43.90479" lon="1.89609">
        <ele>260.2</ele>
        <time>2021-03-21T16:07:31Z</time>
      </trkpt>
      <trkpt lat="43.90483" lon="1.89605">
        <ele>260.2</ele>
        <time>2021-03-21T16:07:32Z</time>
      </trkpt>
      <trkpt lat="43.90487" lon="1.89602">
        <ele>260.2</ele>
        <time>2021-03-21T16:07:33Z</time>
      </trkpt>
      <trkpt lat="43.90491" lon="1.89599">
        <ele>260.2</ele>
        <time>2021-03-21T16:07:34Z</time>
      </trkpt>
      <trkpt lat="43.90493" lon="1.89594">
        <ele>260.2</ele>
        <time>2021-03-21T16:07:35Z</time>
      </trkpt>
      <trkpt lat="43.90492" lon="1.89588">
        <ele>260.6</ele>
        <time>2021-03-21T16:07:36Z</time>
      </trkpt>
      <trkpt lat="43.90491" lon="1.89582">
        <ele>260.6</ele>
        <time>2021-03-21T16:07:37Z</time>
      </trkpt>
      <trkpt lat="43.90489" lon="1.89577">
        <ele>261.2</ele>
        <time>2021-03-21T16:07:38Z</time>
      </trkpt>
      <trkpt lat="43.90487" lon="1.89571">
        <ele>261.2</ele>
        <time>2021-03-21T16:07:39Z</time>
      </trkpt>
      <trkpt lat="43.90486" lon="1.89566">
        <ele>261.4</ele>
        <time>2021-03-21T16:07:40Z</time>
      </trkpt>
      <trkpt lat="43.90485" lon="1.8956">
        <ele>261.4</ele>
        <time>2021-03-21T16:07:41Z</time>
      </trkpt>
      <trkpt lat="43.90486" lon="1.89554">
        <ele>261.6</ele>
        <time>2021-03-21T16:07:42Z</time>
      </trkpt>
      <trkpt lat="43.90486" lon="1.89548">
        <ele>261.6</ele>
        <time>2021-03-21T16:07:43Z</time>
      </trkpt>
      <trkpt lat="43.90486" lon="1.89542">
        <ele>261.6</ele>
        <time>2021-03-21T16:07:44Z</time>
      </trkpt>
      <trkpt lat="43.90485" lon="1.89536">
        <ele>262</ele>
        <time>2021-03-21T16:07:45Z</time>
      </trkpt>
      <trkpt lat="43.90485" lon="1.8953">
        <ele>262.2</ele>
        <time>2021-03-21T16:07:46Z</time>
      </trkpt>
      <trkpt lat="43.90486" lon="1.89524">
        <ele>262.4</ele>
        <time>2021-03-21T16:07:47Z</time>
      </trkpt>
      <trkpt lat="43.90487" lon="1.89517">
        <ele>262.6</ele>
        <time>2021-03-21T16:07:48Z</time>
      </trkpt>
      <trkpt lat="43.90487" lon="1.89511">
        <ele>262.6</ele>
        <time>2021-03-21T16:07:49Z</time>
      </trkpt>
      <trkpt lat="43.90488" lon="1.89505">
        <ele>262.8</ele>
        <time>2021-03-21T16:07:50Z</time>
      </trkpt>
      <trkpt lat="43.90489" lon="1.89499">
        <ele>262.8</ele>
        <time>2021-03-21T16:07:51Z</time>
      </trkpt>
      <trkpt lat="43.90489" lon="1.89492">
        <ele>262.8</ele>
        <time>2021-03-21T16:07:52Z</time>
      </trkpt>
      <trkpt lat="43.9049" lon="1.89486">
        <ele>263</ele>
        <time>2021-03-21T16:07:53Z</time>
      </trkpt>
      <trkpt lat="43.90491" lon="1.89479">
        <ele>263</ele>
        <time>2021-03-21T16:07:54Z</time>
      </trkpt>
      <trkpt lat="43.90492" lon="1.89472">
        <ele>263.4</ele>
        <time>2021-03-21T16:07:55Z</time>
      </trkpt>
      <trkpt lat="43.90492" lon="1.89466">
        <ele>263.4</ele>
        <time>2021-03-21T16:07:56Z</time>
      </trkpt>
      <trkpt lat="43.90493" lon="1.8946">
        <ele>263.4</ele>
        <time>2021-03-21T16:07:57Z</time>
      </trkpt>
      <trkpt lat="43.90494" lon="1.89455">
        <ele>263.6</ele>
        <time>2021-03-21T16:07:58Z</time>
      </trkpt>
      <trkpt lat="43.90495" lon="1.89449">
        <ele>263.6</ele>
        <time>2021-03-21T16:07:59Z</time>
      </trkpt>
      <trkpt lat="43.90496" lon="1.89443">
        <ele>263.6</ele>
        <time>2021-03-21T16:08:00Z</time>
      </trkpt>
      <trkpt lat="43.90497" lon="1.89436">
        <ele>263.6</ele>
        <time>2021-03-21T16:08:01Z</time>
      </trkpt>
      <trkpt lat="43.90498" lon="1.89429">
        <ele>263.8</ele>
        <time>2021-03-21T16:08:02Z</time>
      </trkpt>
      <trkpt lat="43.90498" lon="1.89422">
        <ele>263.8</ele>
        <time>2021-03-21T16:08:03Z</time>
      </trkpt>
      <trkpt lat="43.90498" lon="1.89416">
        <ele>263.6</ele>
        <time>2021-03-21T16:08:04Z</time>
      </trkpt>
      <trkpt lat="43.90499" lon="1.89402">
        <ele>263.6</ele>
        <time>2021-03-21T16:08:06Z</time>
      </trkpt>
      <trkpt lat="43.90499" lon="1.89395">
        <ele>263.6</ele>
        <time>2021-03-21T16:08:07Z</time>
      </trkpt>
      <trkpt lat="43.90499" lon="1.89389">
        <ele>263.8</ele>
        <time>2021-03-21T16:08:08Z</time>
      </trkpt>
      <trkpt lat="43.905" lon="1.89382">
        <ele>263.8</ele>
        <time>2021-03-21T16:08:09Z</time>
      </trkpt>
      <trkpt lat="43.905" lon="1.89376">
        <ele>263.8</ele>
        <time>2021-03-21T16:08:10Z</time>
      </trkpt>
      <trkpt lat="43.905" lon="1.8937">
        <ele>264</ele>
        <time>2021-03-21T16:08:11Z</time>
      </trkpt>
      <trkpt lat="43.905" lon="1.89363">
        <ele>263.8</ele>
        <time>2021-03-21T16:08:12Z</time>
      </trkpt>
      <trkpt lat="43.90499" lon="1.89357">
        <ele>264</ele>
        <time>2021-03-21T16:08:13Z</time>
      </trkpt>
      <trkpt lat="43.90499" lon="1.89351">
        <ele>263.6</ele>
        <time>2021-03-21T16:08:14Z</time>
      </trkpt>
      <trkpt lat="43.90499" lon="1.89344">
        <ele>263.8</ele>
        <time>2021-03-21T16:08:15Z</time>
      </trkpt>
      <trkpt lat="43.90498" lon="1.89337">
        <ele>263.8</ele>
        <time>2021-03-21T16:08:16Z</time>
      </trkpt>
      <trkpt lat="43.90498" lon="1.89331">
        <ele>263.8</ele>
        <time>2021-03-21T16:08:17Z</time>
      </trkpt>
      <trkpt lat="43.90497" lon="1.89318">
        <ele>263.8</ele>
        <time>2021-03-21T16:08:19Z</time>
      </trkpt>
      <trkpt lat="43.90496" lon="1.89312">
        <ele>264</ele>
        <time>2021-03-21T16:08:20Z</time>
      </trkpt>
      <trkpt lat="43.90497" lon="1.89306">
        <ele>263.8</ele>
        <time>2021-03-21T16:08:21Z</time>
      </trkpt>
      <trkpt lat="43.90498" lon="1.893">
        <ele>264</ele>
        <time>2021-03-21T16:08:22Z</time>
      </trkpt>
      <trkpt lat="43.90499" lon="1.89294">
        <ele>264</ele>
        <time>2021-03-21T16:08:23Z</time>
      </trkpt>
      <trkpt lat="43.90502" lon="1.8929">
        <ele>264</ele>
        <time>2021-03-21T16:08:24Z</time>
      </trkpt>
      <trkpt lat="43.90505" lon="1.89286">
        <ele>263.8</ele>
        <time>2021-03-21T16:08:25Z</time>
      </trkpt>
      <trkpt lat="43.90508" lon="1.89283">
        <ele>263.8</ele>
        <time>2021-03-21T16:08:26Z</time>
      </trkpt>
      <trkpt lat="43.90512" lon="1.89279">
        <ele>264</ele>
        <time>2021-03-21T16:08:27Z</time>
      </trkpt>
      <trkpt lat="43.90516" lon="1.89277">
        <ele>264</ele>
        <time>2021-03-21T16:08:28Z</time>
      </trkpt>
      <trkpt lat="43.90521" lon="1.89276">
        <ele>264.2</ele>
        <time>2021-03-21T16:08:29Z</time>
      </trkpt>
      <trkpt lat="43.90526" lon="1.89279">
        <ele>264</ele>
        <time>2021-03-21T16:08:30Z</time>
      </trkpt>
      <trkpt lat="43.9053" lon="1.89283">
        <ele>264.2</ele>
        <time>2021-03-21T16:08:31Z</time>
      </trkpt>
      <trkpt lat="43.90533" lon="1.89288">
        <ele>264.4</ele>
        <time>2021-03-21T16:08:32Z</time>
      </trkpt>
      <trkpt lat="43.90536" lon="1.89294">
        <ele>264.4</ele>
        <time>2021-03-21T16:08:33Z</time>
      </trkpt>
      <trkpt lat="43.90539" lon="1.893">
        <ele>264.4</ele>
        <time>2021-03-21T16:08:34Z</time>
      </trkpt>
      <trkpt lat="43.90542" lon="1.89305">
        <ele>264.4</ele>
        <time>2021-03-21T16:08:35Z</time>
      </trkpt>
      <trkpt lat="43.90545" lon="1.89311">
        <ele>264.6</ele>
        <time>2021-03-21T16:08:36Z</time>
      </trkpt>
      <trkpt lat="43.90549" lon="1.89317">
        <ele>264.6</ele>
        <time>2021-03-21T16:08:37Z</time>
      </trkpt>
      <trkpt lat="43.90552" lon="1.89323">
        <ele>264.6</ele>
        <time>2021-03-21T16:08:38Z</time>
      </trkpt>
      <trkpt lat="43.90559" lon="1.89334">
        <ele>264.8</ele>
        <time>2021-03-21T16:08:40Z</time>
      </trkpt>
      <trkpt lat="43.90563" lon="1.89339">
        <ele>264.8</ele>
        <time>2021-03-21T16:08:41Z</time>
      </trkpt>
      <trkpt lat="43.90567" lon="1.89344">
        <ele>264.6</ele>
        <time>2021-03-21T16:08:42Z</time>
      </trkpt>
      <trkpt lat="43.90571" lon="1.89349">
        <ele>264.6</ele>
        <time>2021-03-21T16:08:43Z</time>
      </trkpt>
      <trkpt lat="43.90579" lon="1.8936">
        <ele>264.8</ele>
        <time>2021-03-21T16:08:45Z</time>
      </trkpt>
      <trkpt lat="43.90583" lon="1.89365">
        <ele>264.8</ele>
        <time>2021-03-21T16:08:46Z</time>
      </trkpt>
      <trkpt lat="43.90587" lon="1.8937">
        <ele>264.6</ele>
        <time>2021-03-21T16:08:47Z</time>
      </trkpt>
      <trkpt lat="43.90591" lon="1.89374">
        <ele>264.6</ele>
        <time>2021-03-21T16:08:48Z</time>
      </trkpt>
      <trkpt lat="43.90595" lon="1.89379">
        <ele>264.6</ele>
        <time>2021-03-21T16:08:49Z</time>
      </trkpt>
      <trkpt lat="43.90599" lon="1.89383">
        <ele>264.6</ele>
        <time>2021-03-21T16:08:50Z</time>
      </trkpt>
      <trkpt lat="43.90603" lon="1.89388">
        <ele>264.6</ele>
        <time>2021-03-21T16:08:51Z</time>
      </trkpt>
      <trkpt lat="43.90607" lon="1.89393">
        <ele>264.4</ele>
        <time>2021-03-21T16:08:52Z</time>
      </trkpt>
      <trkpt lat="43.9061" lon="1.89397">
        <ele>264.4</ele>
        <time>2021-03-21T16:08:53Z</time>
      </trkpt>
      <trkpt lat="43.90614" lon="1.89402">
        <ele>264.6</ele>
        <time>2021-03-21T16:08:54Z</time>
      </trkpt>
      <trkpt lat="43.90617" lon="1.89407">
        <ele>264.6</ele>
        <time>2021-03-21T16:08:55Z</time>
      </trkpt>
      <trkpt lat="43.90621" lon="1.89411">
        <ele>264.6</ele>
        <time>2021-03-21T16:08:56Z</time>
      </trkpt>
      <trkpt lat="43.90624" lon="1.89414">
        <ele>264.4</ele>
        <time>2021-03-21T16:08:57Z</time>
      </trkpt>
      <trkpt lat="43.90628" lon="1.89415">
        <ele>264.6</ele>
        <time>2021-03-21T16:08:58Z</time>
      </trkpt>
      <trkpt lat="43.90632" lon="1.89414">
        <ele>264.6</ele>
        <time>2021-03-21T16:08:59Z</time>
      </trkpt>
      <trkpt lat="43.90636" lon="1.89411">
        <ele>264.6</ele>
        <time>2021-03-21T16:09:00Z</time>
      </trkpt>
      <trkpt lat="43.90639" lon="1.89408">
        <ele>264.4</ele>
        <time>2021-03-21T16:09:01Z</time>
      </trkpt>
      <trkpt lat="43.90642" lon="1.89404">
        <ele>264.6</ele>
        <time>2021-03-21T16:09:02Z</time>
      </trkpt>
      <trkpt lat="43.90646" lon="1.89399">
        <ele>264.4</ele>
        <time>2021-03-21T16:09:03Z</time>
      </trkpt>
      <trkpt lat="43.90649" lon="1.89394">
        <ele>264.4</ele>
        <time>2021-03-21T16:09:04Z</time>
      </trkpt>
      <trkpt lat="43.90653" lon="1.8939">
        <ele>264.6</ele>
        <time>2021-03-21T16:09:05Z</time>
      </trkpt>
      <trkpt lat="43.90657" lon="1.89385">
        <ele>264.4</ele>
        <time>2021-03-21T16:09:06Z</time>
      </trkpt>
      <trkpt lat="43.90661" lon="1.8938">
        <ele>264.4</ele>
        <time>2021-03-21T16:09:07Z</time>
      </trkpt>
      <trkpt lat="43.90669" lon="1.89371">
        <ele>264.2</ele>
        <time>2021-03-21T16:09:09Z</time>
      </trkpt>
      <trkpt lat="43.90673" lon="1.89367">
        <ele>264</ele>
        <time>2021-03-21T16:09:10Z</time>
      </trkpt>
      <trkpt lat="43.90677" lon="1.89362">
        <ele>263.8</ele>
        <time>2021-03-21T16:09:11Z</time>
      </trkpt>
      <trkpt lat="43.90681" lon="1.89358">
        <ele>263.6</ele>
        <time>2021-03-21T16:09:12Z</time>
      </trkpt>
      <trkpt lat="43.90685" lon="1.89353">
        <ele>263.6</ele>
        <time>2021-03-21T16:09:13Z</time>
      </trkpt>
      <trkpt lat="43.90688" lon="1.89349">
        <ele>263.6</ele>
        <time>2021-03-21T16:09:14Z</time>
      </trkpt>
      <trkpt lat="43.90692" lon="1.89344">
        <ele>263.6</ele>
        <time>2021-03-21T16:09:15Z</time>
      </trkpt>
      <trkpt lat="43.90699" lon="1.89334">
        <ele>263.2</ele>
        <time>2021-03-21T16:09:17Z</time>
      </trkpt>
      <trkpt lat="43.90703" lon="1.89329">
        <ele>263</ele>
        <time>2021-03-21T16:09:18Z</time>
      </trkpt>
      <trkpt lat="43.90706" lon="1.89324">
        <ele>263</ele>
        <time>2021-03-21T16:09:19Z</time>
      </trkpt>
      <trkpt lat="43.90709" lon="1.89319">
        <ele>263</ele>
        <time>2021-03-21T16:09:20Z</time>
      </trkpt>
      <trkpt lat="43.90716" lon="1.8931">
        <ele>263</ele>
        <time>2021-03-21T16:09:22Z</time>
      </trkpt>
      <trkpt lat="43.9072" lon="1.89306">
        <ele>263</ele>
        <time>2021-03-21T16:09:23Z</time>
      </trkpt>
      <trkpt lat="43.90724" lon="1.89302">
        <ele>263</ele>
        <time>2021-03-21T16:09:24Z</time>
      </trkpt>
      <trkpt lat="43.90727" lon="1.89298">
        <ele>263</ele>
        <time>2021-03-21T16:09:25Z</time>
      </trkpt>
      <trkpt lat="43.9073" lon="1.89293">
        <ele>263.2</ele>
        <time>2021-03-21T16:09:26Z</time>
      </trkpt>
      <trkpt lat="43.90734" lon="1.89289">
        <ele>263.2</ele>
        <time>2021-03-21T16:09:27Z</time>
      </trkpt>
      <trkpt lat="43.90737" lon="1.89285">
        <ele>263.2</ele>
        <time>2021-03-21T16:09:28Z</time>
      </trkpt>
      <trkpt lat="43.90744" lon="1.89277">
        <ele>263.2</ele>
        <time>2021-03-21T16:09:30Z</time>
      </trkpt>
      <trkpt lat="43.90748" lon="1.89273">
        <ele>263.2</ele>
        <time>2021-03-21T16:09:31Z</time>
      </trkpt>
      <trkpt lat="43.90752" lon="1.89269">
        <ele>263.2</ele>
        <time>2021-03-21T16:09:32Z</time>
      </trkpt>
      <trkpt lat="43.90757" lon="1.89266">
        <ele>263.4</ele>
        <time>2021-03-21T16:09:33Z</time>
      </trkpt>
      <trkpt lat="43.90762" lon="1.89262">
        <ele>263.4</ele>
        <time>2021-03-21T16:09:34Z</time>
      </trkpt>
      <trkpt lat="43.90766" lon="1.89258">
        <ele>263.4</ele>
        <time>2021-03-21T16:09:35Z</time>
      </trkpt>
      <trkpt lat="43.9077" lon="1.89255">
        <ele>263.6</ele>
        <time>2021-03-21T16:09:36Z</time>
      </trkpt>
      <trkpt lat="43.90775" lon="1.89251">
        <ele>263.8</ele>
        <time>2021-03-21T16:09:37Z</time>
      </trkpt>
      <trkpt lat="43.90779" lon="1.89247">
        <ele>264</ele>
        <time>2021-03-21T16:09:38Z</time>
      </trkpt>
      <trkpt lat="43.90784" lon="1.89243">
        <ele>264</ele>
        <time>2021-03-21T16:09:39Z</time>
      </trkpt>
      <trkpt lat="43.90788" lon="1.89239">
        <ele>263.8</ele>
        <time>2021-03-21T16:09:40Z</time>
      </trkpt>
      <trkpt lat="43.90792" lon="1.89235">
        <ele>264</ele>
        <time>2021-03-21T16:09:41Z</time>
      </trkpt>
      <trkpt lat="43.90797" lon="1.89232">
        <ele>264</ele>
        <time>2021-03-21T16:09:42Z</time>
      </trkpt>
      <trkpt lat="43.90801" lon="1.89228">
        <ele>264</ele>
        <time>2021-03-21T16:09:43Z</time>
      </trkpt>
      <trkpt lat="43.90805" lon="1.89224">
        <ele>264</ele>
        <time>2021-03-21T16:09:44Z</time>
      </trkpt>
      <trkpt lat="43.90809" lon="1.89221">
        <ele>264</ele>
        <time>2021-03-21T16:09:45Z</time>
      </trkpt>
      <trkpt lat="43.90813" lon="1.89217">
        <ele>264.2</ele>
        <time>2021-03-21T16:09:46Z</time>
      </trkpt>
      <trkpt lat="43.90817" lon="1.89213">
        <ele>264</ele>
        <time>2021-03-21T16:09:47Z</time>
      </trkpt>
      <trkpt lat="43.90821" lon="1.89209">
        <ele>264</ele>
        <time>2021-03-21T16:09:48Z</time>
      </trkpt>
      <trkpt lat="43.90825" lon="1.89205">
        <ele>264</ele>
        <time>2021-03-21T16:09:49Z</time>
      </trkpt>
      <trkpt lat="43.90829" lon="1.89202">
        <ele>264.2</ele>
        <time>2021-03-21T16:09:50Z</time>
      </trkpt>
      <trkpt lat="43.90833" lon="1.89198">
        <ele>264</ele>
        <time>2021-03-21T16:09:51Z</time>
      </trkpt>
      <trkpt lat="43.90837" lon="1.89194">
        <ele>264.2</ele>
        <time>2021-03-21T16:09:52Z</time>
      </trkpt>
      <trkpt lat="43.9084" lon="1.89189">
        <ele>263.8</ele>
        <time>2021-03-21T16:09:53Z</time>
      </trkpt>
      <trkpt lat="43.90844" lon="1.89185">
        <ele>263.8</ele>
        <time>2021-03-21T16:09:54Z</time>
      </trkpt>
      <trkpt lat="43.90848" lon="1.89181">
        <ele>263.8</ele>
        <time>2021-03-21T16:09:55Z</time>
      </trkpt>
      <trkpt lat="43.90851" lon="1.89177">
        <ele>263.8</ele>
        <time>2021-03-21T16:09:56Z</time>
      </trkpt>
      <trkpt lat="43.90855" lon="1.89173">
        <ele>263.8</ele>
        <time>2021-03-21T16:09:57Z</time>
      </trkpt>
      <trkpt lat="43.90858" lon="1.89169">
        <ele>263.8</ele>
        <time>2021-03-21T16:09:58Z</time>
      </trkpt>
      <trkpt lat="43.90861" lon="1.89165">
        <ele>263.6</ele>
        <time>2021-03-21T16:09:59Z</time>
      </trkpt>
      <trkpt lat="43.90865" lon="1.89161">
        <ele>263.6</ele>
        <time>2021-03-21T16:10:00Z</time>
      </trkpt>
      <trkpt lat="43.90868" lon="1.89158">
        <ele>263.8</ele>
        <time>2021-03-21T16:10:01Z</time>
      </trkpt>
      <trkpt lat="43.90871" lon="1.89154">
        <ele>263.8</ele>
        <time>2021-03-21T16:10:02Z</time>
      </trkpt>
      <trkpt lat="43.90878" lon="1.89146">
        <ele>263.8</ele>
        <time>2021-03-21T16:10:04Z</time>
      </trkpt>
      <trkpt lat="43.90882" lon="1.89142">
        <ele>263.8</ele>
        <time>2021-03-21T16:10:05Z</time>
      </trkpt>
      <trkpt lat="43.90886" lon="1.89138">
        <ele>263.8</ele>
        <time>2021-03-21T16:10:06Z</time>
      </trkpt>
      <trkpt lat="43.90889" lon="1.89135">
        <ele>264</ele>
        <time>2021-03-21T16:10:07Z</time>
      </trkpt>
      <trkpt lat="43.90893" lon="1.89131">
        <ele>263.8</ele>
        <time>2021-03-21T16:10:08Z</time>
      </trkpt>
      <trkpt lat="43.90897" lon="1.89128">
        <ele>264</ele>
        <time>2021-03-21T16:10:09Z</time>
      </trkpt>
      <trkpt lat="43.909" lon="1.89125">
        <ele>264</ele>
        <time>2021-03-21T16:10:10Z</time>
      </trkpt>
      <trkpt lat="43.90908" lon="1.89118">
        <ele>264</ele>
        <time>2021-03-21T16:10:12Z</time>
      </trkpt>
      <trkpt lat="43.90911" lon="1.89115">
        <ele>264.2</ele>
        <time>2021-03-21T16:10:13Z</time>
      </trkpt>
      <trkpt lat="43.90915" lon="1.89112">
        <ele>264.2</ele>
        <time>2021-03-21T16:10:14Z</time>
      </trkpt>
      <trkpt lat="43.90919" lon="1.8911">
        <ele>264.4</ele>
        <time>2021-03-21T16:10:15Z</time>
      </trkpt>
      <trkpt lat="43.90927" lon="1.89105">
        <ele>264.4</ele>
        <time>2021-03-21T16:10:17Z</time>
      </trkpt>
      <trkpt lat="43.90932" lon="1.89104">
        <ele>264.4</ele>
        <time>2021-03-21T16:10:18Z</time>
      </trkpt>
      <trkpt lat="43.90936" lon="1.89102">
        <ele>264.6</ele>
        <time>2021-03-21T16:10:19Z</time>
      </trkpt>
      <trkpt lat="43.90941" lon="1.891">
        <ele>264.6</ele>
        <time>2021-03-21T16:10:20Z</time>
      </trkpt>
      <trkpt lat="43.90945" lon="1.89098">
        <ele>264.6</ele>
        <time>2021-03-21T16:10:21Z</time>
      </trkpt>
      <trkpt lat="43.9095" lon="1.89096">
        <ele>264.6</ele>
        <time>2021-03-21T16:10:22Z</time>
      </trkpt>
      <trkpt lat="43.90954" lon="1.89093">
        <ele>264.8</ele>
        <time>2021-03-21T16:10:23Z</time>
      </trkpt>
      <trkpt lat="43.90964" lon="1.89089">
        <ele>264.8</ele>
        <time>2021-03-21T16:10:25Z</time>
      </trkpt>
      <trkpt lat="43.90968" lon="1.89086">
        <ele>264.8</ele>
        <time>2021-03-21T16:10:26Z</time>
      </trkpt>
      <trkpt lat="43.90973" lon="1.89084">
        <ele>264.8</ele>
        <time>2021-03-21T16:10:27Z</time>
      </trkpt>
      <trkpt lat="43.90977" lon="1.89081">
        <ele>265.2</ele>
        <time>2021-03-21T16:10:28Z</time>
      </trkpt>
      <trkpt lat="43.90982" lon="1.89078">
        <ele>265.2</ele>
        <time>2021-03-21T16:10:29Z</time>
      </trkpt>
      <trkpt lat="43.90986" lon="1.89075">
        <ele>265.2</ele>
        <time>2021-03-21T16:10:30Z</time>
      </trkpt>
      <trkpt lat="43.9099" lon="1.89072">
        <ele>265.2</ele>
        <time>2021-03-21T16:10:31Z</time>
      </trkpt>
      <trkpt lat="43.90999" lon="1.89066">
        <ele>265.4</ele>
        <time>2021-03-21T16:10:33Z</time>
      </trkpt>
      <trkpt lat="43.91003" lon="1.89062">
        <ele>265.4</ele>
        <time>2021-03-21T16:10:34Z</time>
      </trkpt>
      <trkpt lat="43.91007" lon="1.89059">
        <ele>265.6</ele>
        <time>2021-03-21T16:10:35Z</time>
      </trkpt>
      <trkpt lat="43.91011" lon="1.89056">
        <ele>265.6</ele>
        <time>2021-03-21T16:10:36Z</time>
      </trkpt>
      <trkpt lat="43.91015" lon="1.89052">
        <ele>265.6</ele>
        <time>2021-03-21T16:10:37Z</time>
      </trkpt>
      <trkpt lat="43.91019" lon="1.89049">
        <ele>265.6</ele>
        <time>2021-03-21T16:10:38Z</time>
      </trkpt>
      <trkpt lat="43.91023" lon="1.89045">
        <ele>265.4</ele>
        <time>2021-03-21T16:10:39Z</time>
      </trkpt>
      <trkpt lat="43.91031" lon="1.89038">
        <ele>265.6</ele>
        <time>2021-03-21T16:10:41Z</time>
      </trkpt>
      <trkpt lat="43.91035" lon="1.89034">
        <ele>265.6</ele>
        <time>2021-03-21T16:10:42Z</time>
      </trkpt>
      <trkpt lat="43.91039" lon="1.89031">
        <ele>265.6</ele>
        <time>2021-03-21T16:10:43Z</time>
      </trkpt>
      <trkpt lat="43.91042" lon="1.89026">
        <ele>265.6</ele>
        <time>2021-03-21T16:10:44Z</time>
      </trkpt>
      <trkpt lat="43.91046" lon="1.89022">
        <ele>265.6</ele>
        <time>2021-03-21T16:10:45Z</time>
      </trkpt>
      <trkpt lat="43.9105" lon="1.89018">
        <ele>265.6</ele>
        <time>2021-03-21T16:10:46Z</time>
      </trkpt>
      <trkpt lat="43.91053" lon="1.89014">
        <ele>265.6</ele>
        <time>2021-03-21T16:10:47Z</time>
      </trkpt>
      <trkpt lat="43.91057" lon="1.8901">
        <ele>265.6</ele>
        <time>2021-03-21T16:10:48Z</time>
      </trkpt>
      <trkpt lat="43.9106" lon="1.89006">
        <ele>265.8</ele>
        <time>2021-03-21T16:10:49Z</time>
      </trkpt>
      <trkpt lat="43.91064" lon="1.89001">
        <ele>265.8</ele>
        <time>2021-03-21T16:10:50Z</time>
      </trkpt>
      <trkpt lat="43.91067" lon="1.88997">
        <ele>266</ele>
        <time>2021-03-21T16:10:51Z</time>
      </trkpt>
      <trkpt lat="43.9107" lon="1.88992">
        <ele>266</ele>
        <time>2021-03-21T16:10:52Z</time>
      </trkpt>
      <trkpt lat="43.91073" lon="1.88988">
        <ele>266</ele>
        <time>2021-03-21T16:10:53Z</time>
      </trkpt>
      <trkpt lat="43.91076" lon="1.88983">
        <ele>266</ele>
        <time>2021-03-21T16:10:54Z</time>
      </trkpt>
      <trkpt lat="43.9108" lon="1.88979">
        <ele>266.2</ele>
        <time>2021-03-21T16:10:55Z</time>
      </trkpt>
      <trkpt lat="43.91082" lon="1.88975">
        <ele>266</ele>
        <time>2021-03-21T16:10:56Z</time>
      </trkpt>
      <trkpt lat="43.91085" lon="1.88971">
        <ele>266</ele>
        <time>2021-03-21T16:10:57Z</time>
      </trkpt>
      <trkpt lat="43.91088" lon="1.88966">
        <ele>266</ele>
        <time>2021-03-21T16:10:58Z</time>
      </trkpt>
      <trkpt lat="43.91091" lon="1.88962">
        <ele>266</ele>
        <time>2021-03-21T16:10:59Z</time>
      </trkpt>
      <trkpt lat="43.91094" lon="1.88957">
        <ele>266.2</ele>
        <time>2021-03-21T16:11:00Z</time>
      </trkpt>
      <trkpt lat="43.91097" lon="1.88953">
        <ele>266</ele>
        <time>2021-03-21T16:11:01Z</time>
      </trkpt>
      <trkpt lat="43.911" lon="1.88949">
        <ele>266</ele>
        <time>2021-03-21T16:11:02Z</time>
      </trkpt>
      <trkpt lat="43.91103" lon="1.88945">
        <ele>266.2</ele>
        <time>2021-03-21T16:11:03Z</time>
      </trkpt>
      <trkpt lat="43.91106" lon="1.8894">
        <ele>266.2</ele>
        <time>2021-03-21T16:11:04Z</time>
      </trkpt>
      <trkpt lat="43.9111" lon="1.88936">
        <ele>266</ele>
        <time>2021-03-21T16:11:05Z</time>
      </trkpt>
      <trkpt lat="43.91113" lon="1.88931">
        <ele>266.2</ele>
        <time>2021-03-21T16:11:06Z</time>
      </trkpt>
      <trkpt lat="43.91116" lon="1.88927">
        <ele>266</ele>
        <time>2021-03-21T16:11:07Z</time>
      </trkpt>
      <trkpt lat="43.91119" lon="1.88922">
        <ele>266</ele>
        <time>2021-03-21T16:11:08Z</time>
      </trkpt>
      <trkpt lat="43.91122" lon="1.88918">
        <ele>266.2</ele>
        <time>2021-03-21T16:11:09Z</time>
      </trkpt>
      <trkpt lat="43.91125" lon="1.88913">
        <ele>266.2</ele>
        <time>2021-03-21T16:11:10Z</time>
      </trkpt>
      <trkpt lat="43.91131" lon="1.88903">
        <ele>266.2</ele>
        <time>2021-03-21T16:11:12Z</time>
      </trkpt>
      <trkpt lat="43.91135" lon="1.88898">
        <ele>266.2</ele>
        <time>2021-03-21T16:11:13Z</time>
      </trkpt>
      <trkpt lat="43.91138" lon="1.88893">
        <ele>266.2</ele>
        <time>2021-03-21T16:11:14Z</time>
      </trkpt>
      <trkpt lat="43.91141" lon="1.88889">
        <ele>266.2</ele>
        <time>2021-03-21T16:11:15Z</time>
      </trkpt>
      <trkpt lat="43.91144" lon="1.88884">
        <ele>266.2</ele>
        <time>2021-03-21T16:11:16Z</time>
      </trkpt>
      <trkpt lat="43.91147" lon="1.8888">
        <ele>266.2</ele>
        <time>2021-03-21T16:11:17Z</time>
      </trkpt>
      <trkpt lat="43.91151" lon="1.88875">
        <ele>266.2</ele>
        <time>2021-03-21T16:11:18Z</time>
      </trkpt>
      <trkpt lat="43.91154" lon="1.8887">
        <ele>266.2</ele>
        <time>2021-03-21T16:11:19Z</time>
      </trkpt>
      <trkpt lat="43.91157" lon="1.88865">
        <ele>266.2</ele>
        <time>2021-03-21T16:11:20Z</time>
      </trkpt>
      <trkpt lat="43.91159" lon="1.88861">
        <ele>266.2</ele>
        <time>2021-03-21T16:11:21Z</time>
      </trkpt>
      <trkpt lat="43.91162" lon="1.88856">
        <ele>266.2</ele>
        <time>2021-03-21T16:11:22Z</time>
      </trkpt>
      <trkpt lat="43.91165" lon="1.88851">
        <ele>266.2</ele>
        <time>2021-03-21T16:11:23Z</time>
      </trkpt>
      <trkpt lat="43.91168" lon="1.88846">
        <ele>266.2</ele>
        <time>2021-03-21T16:11:24Z</time>
      </trkpt>
      <trkpt lat="43.9117" lon="1.8884">
        <ele>266.2</ele>
        <time>2021-03-21T16:11:25Z</time>
      </trkpt>
      <trkpt lat="43.91175" lon="1.8883">
        <ele>266.2</ele>
        <time>2021-03-21T16:11:27Z</time>
      </trkpt>
      <trkpt lat="43.91177" lon="1.88824">
        <ele>266.2</ele>
        <time>2021-03-21T16:11:28Z</time>
      </trkpt>
      <trkpt lat="43.91179" lon="1.88818">
        <ele>266</ele>
        <time>2021-03-21T16:11:29Z</time>
      </trkpt>
      <trkpt lat="43.91181" lon="1.88813">
        <ele>266.2</ele>
        <time>2021-03-21T16:11:30Z</time>
      </trkpt>
      <trkpt lat="43.91186" lon="1.88801">
        <ele>266.4</ele>
        <time>2021-03-21T16:11:32Z</time>
      </trkpt>
      <trkpt lat="43.91188" lon="1.88796">
        <ele>266.4</ele>
        <time>2021-03-21T16:11:33Z</time>
      </trkpt>
      <trkpt lat="43.9119" lon="1.88791">
        <ele>266.6</ele>
        <time>2021-03-21T16:11:34Z</time>
      </trkpt>
      <trkpt lat="43.91193" lon="1.88785">
        <ele>266.6</ele>
        <time>2021-03-21T16:11:35Z</time>
      </trkpt>
      <trkpt lat="43.91195" lon="1.8878">
        <ele>266.6</ele>
        <time>2021-03-21T16:11:36Z</time>
      </trkpt>
      <trkpt lat="43.91197" lon="1.88775">
        <ele>266.6</ele>
        <time>2021-03-21T16:11:37Z</time>
      </trkpt>
      <trkpt lat="43.912" lon="1.88769">
        <ele>266.8</ele>
        <time>2021-03-21T16:11:38Z</time>
      </trkpt>
      <trkpt lat="43.91205" lon="1.88759">
        <ele>266.8</ele>
        <time>2021-03-21T16:11:40Z</time>
      </trkpt>
      <trkpt lat="43.91207" lon="1.88753">
        <ele>266.8</ele>
        <time>2021-03-21T16:11:41Z</time>
      </trkpt>
      <trkpt lat="43.91209" lon="1.88748">
        <ele>266.8</ele>
        <time>2021-03-21T16:11:42Z</time>
      </trkpt>
      <trkpt lat="43.91212" lon="1.88743">
        <ele>266.8</ele>
        <time>2021-03-21T16:11:43Z</time>
      </trkpt>
      <trkpt lat="43.91214" lon="1.88738">
        <ele>267</ele>
        <time>2021-03-21T16:11:44Z</time>
      </trkpt>
      <trkpt lat="43.91216" lon="1.88732">
        <ele>267</ele>
        <time>2021-03-21T16:11:45Z</time>
      </trkpt>
      <trkpt lat="43.91218" lon="1.88727">
        <ele>266.8</ele>
        <time>2021-03-21T16:11:46Z</time>
      </trkpt>
      <trkpt lat="43.9122" lon="1.88722">
        <ele>266.8</ele>
        <time>2021-03-21T16:11:47Z</time>
      </trkpt>
      <trkpt lat="43.91222" lon="1.88717">
        <ele>267</ele>
        <time>2021-03-21T16:11:48Z</time>
      </trkpt>
      <trkpt lat="43.91225" lon="1.88712">
        <ele>266.8</ele>
        <time>2021-03-21T16:11:49Z</time>
      </trkpt>
      <trkpt lat="43.91227" lon="1.88706">
        <ele>267</ele>
        <time>2021-03-21T16:11:50Z</time>
      </trkpt>
      <trkpt lat="43.91229" lon="1.88701">
        <ele>267</ele>
        <time>2021-03-21T16:11:51Z</time>
      </trkpt>
      <trkpt lat="43.9123" lon="1.88696">
        <ele>267</ele>
        <time>2021-03-21T16:11:52Z</time>
      </trkpt>
      <trkpt lat="43.91232" lon="1.88692">
        <ele>267</ele>
        <time>2021-03-21T16:11:53Z</time>
      </trkpt>
      <trkpt lat="43.91234" lon="1.88687">
        <ele>267.2</ele>
        <time>2021-03-21T16:11:54Z</time>
      </trkpt>
      <trkpt lat="43.91236" lon="1.88683">
        <ele>267.2</ele>
        <time>2021-03-21T16:11:55Z</time>
      </trkpt>
      <trkpt lat="43.91237" lon="1.88679">
        <ele>267.2</ele>
        <time>2021-03-21T16:11:56Z</time>
      </trkpt>
      <trkpt lat="43.91239" lon="1.88674">
        <ele>267.2</ele>
        <time>2021-03-21T16:11:57Z</time>
      </trkpt>
      <trkpt lat="43.91241" lon="1.88669">
        <ele>267.4</ele>
        <time>2021-03-21T16:11:58Z</time>
      </trkpt>
      <trkpt lat="43.91244" lon="1.8866">
        <ele>267.4</ele>
        <time>2021-03-21T16:12:00Z</time>
      </trkpt>
      <trkpt lat="43.91246" lon="1.88655">
        <ele>267.6</ele>
        <time>2021-03-21T16:12:01Z</time>
      </trkpt>
      <trkpt lat="43.91248" lon="1.88651">
        <ele>267.4</ele>
        <time>2021-03-21T16:12:02Z</time>
      </trkpt>
      <trkpt lat="43.91251" lon="1.88646">
        <ele>267.4</ele>
        <time>2021-03-21T16:12:03Z</time>
      </trkpt>
      <trkpt lat="43.91254" lon="1.88641">
        <ele>267.4</ele>
        <time>2021-03-21T16:12:04Z</time>
      </trkpt>
      <trkpt lat="43.91256" lon="1.88637">
        <ele>267.6</ele>
        <time>2021-03-21T16:12:05Z</time>
      </trkpt>
      <trkpt lat="43.91259" lon="1.88633">
        <ele>267.6</ele>
        <time>2021-03-21T16:12:06Z</time>
      </trkpt>
      <trkpt lat="43.91265" lon="1.88625">
        <ele>267.8</ele>
        <time>2021-03-21T16:12:08Z</time>
      </trkpt>
      <trkpt lat="43.91268" lon="1.88621">
        <ele>267.6</ele>
        <time>2021-03-21T16:12:09Z</time>
      </trkpt>
      <trkpt lat="43.9127" lon="1.88616">
        <ele>267.8</ele>
        <time>2021-03-21T16:12:10Z</time>
      </trkpt>
      <trkpt lat="43.91273" lon="1.88612">
        <ele>268</ele>
        <time>2021-03-21T16:12:11Z</time>
      </trkpt>
      <trkpt lat="43.91278" lon="1.88603">
        <ele>268</ele>
        <time>2021-03-21T16:12:13Z</time>
      </trkpt>
      <trkpt lat="43.91281" lon="1.88598">
        <ele>268</ele>
        <time>2021-03-21T16:12:14Z</time>
      </trkpt>
      <trkpt lat="43.91284" lon="1.88594">
        <ele>268.4</ele>
        <time>2021-03-21T16:12:15Z</time>
      </trkpt>
      <trkpt lat="43.91287" lon="1.8859">
        <ele>268.2</ele>
        <time>2021-03-21T16:12:16Z</time>
      </trkpt>
      <trkpt lat="43.9129" lon="1.88586">
        <ele>268.6</ele>
        <time>2021-03-21T16:12:17Z</time>
      </trkpt>
      <trkpt lat="43.91293" lon="1.88582">
        <ele>268.4</ele>
        <time>2021-03-21T16:12:18Z</time>
      </trkpt>
      <trkpt lat="43.91296" lon="1.88578">
        <ele>268.6</ele>
        <time>2021-03-21T16:12:19Z</time>
      </trkpt>
      <trkpt lat="43.91299" lon="1.88574">
        <ele>268.6</ele>
        <time>2021-03-21T16:12:20Z</time>
      </trkpt>
      <trkpt lat="43.91302" lon="1.8857">
        <ele>268.4</ele>
        <time>2021-03-21T16:12:21Z</time>
      </trkpt>
      <trkpt lat="43.91305" lon="1.88567">
        <ele>268.6</ele>
        <time>2021-03-21T16:12:22Z</time>
      </trkpt>
      <trkpt lat="43.91308" lon="1.88563">
        <ele>268.6</ele>
        <time>2021-03-21T16:12:23Z</time>
      </trkpt>
      <trkpt lat="43.91311" lon="1.88559">
        <ele>268.6</ele>
        <time>2021-03-21T16:12:24Z</time>
      </trkpt>
      <trkpt lat="43.91313" lon="1.88556">
        <ele>268.6</ele>
        <time>2021-03-21T16:12:25Z</time>
      </trkpt>
      <trkpt lat="43.91316" lon="1.88552">
        <ele>268.8</ele>
        <time>2021-03-21T16:12:26Z</time>
      </trkpt>
      <trkpt lat="43.91318" lon="1.88549">
        <ele>268.6</ele>
        <time>2021-03-21T16:12:27Z</time>
      </trkpt>
      <trkpt lat="43.91321" lon="1.88545">
        <ele>268.6</ele>
        <time>2021-03-21T16:12:28Z</time>
      </trkpt>
      <trkpt lat="43.91323" lon="1.88542">
        <ele>268.6</ele>
        <time>2021-03-21T16:12:29Z</time>
      </trkpt>
      <trkpt lat="43.91326" lon="1.88539">
        <ele>268.6</ele>
        <time>2021-03-21T16:12:30Z</time>
      </trkpt>
      <trkpt lat="43.91329" lon="1.88535">
        <ele>268.6</ele>
        <time>2021-03-21T16:12:31Z</time>
      </trkpt>
      <trkpt lat="43.91331" lon="1.88532">
        <ele>268.6</ele>
        <time>2021-03-21T16:12:32Z</time>
      </trkpt>
      <trkpt lat="43.91334" lon="1.88529">
        <ele>268.8</ele>
        <time>2021-03-21T16:12:33Z</time>
      </trkpt>
      <trkpt lat="43.91336" lon="1.88525">
        <ele>268.6</ele>
        <time>2021-03-21T16:12:34Z</time>
      </trkpt>
      <trkpt lat="43.91339" lon="1.88521">
        <ele>268.6</ele>
        <time>2021-03-21T16:12:35Z</time>
      </trkpt>
      <trkpt lat="43.91341" lon="1.88517">
        <ele>268.8</ele>
        <time>2021-03-21T16:12:36Z</time>
      </trkpt>
      <trkpt lat="43.91344" lon="1.88514">
        <ele>268.6</ele>
        <time>2021-03-21T16:12:37Z</time>
      </trkpt>
      <trkpt lat="43.91347" lon="1.8851">
        <ele>268.8</ele>
        <time>2021-03-21T16:12:38Z</time>
      </trkpt>
      <trkpt lat="43.91349" lon="1.88506">
        <ele>268.8</ele>
        <time>2021-03-21T16:12:39Z</time>
      </trkpt>
      <trkpt lat="43.91352" lon="1.88503">
        <ele>269.2</ele>
        <time>2021-03-21T16:12:40Z</time>
      </trkpt>
      <trkpt lat="43.91355" lon="1.88499">
        <ele>269.4</ele>
        <time>2021-03-21T16:12:41Z</time>
      </trkpt>
      <trkpt lat="43.91358" lon="1.88496">
        <ele>269.4</ele>
        <time>2021-03-21T16:12:42Z</time>
      </trkpt>
      <trkpt lat="43.9136" lon="1.88492">
        <ele>269.6</ele>
        <time>2021-03-21T16:12:43Z</time>
      </trkpt>
      <trkpt lat="43.91363" lon="1.88488">
        <ele>269.6</ele>
        <time>2021-03-21T16:12:44Z</time>
      </trkpt>
      <trkpt lat="43.91366" lon="1.88484">
        <ele>269.6</ele>
        <time>2021-03-21T16:12:45Z</time>
      </trkpt>
      <trkpt lat="43.91372" lon="1.88476">
        <ele>270</ele>
        <time>2021-03-21T16:12:47Z</time>
      </trkpt>
      <trkpt lat="43.91376" lon="1.88472">
        <ele>270.2</ele>
        <time>2021-03-21T16:12:48Z</time>
      </trkpt>
      <trkpt lat="43.91379" lon="1.88468">
        <ele>270.2</ele>
        <time>2021-03-21T16:12:49Z</time>
      </trkpt>
      <trkpt lat="43.91382" lon="1.88464">
        <ele>270.6</ele>
        <time>2021-03-21T16:12:50Z</time>
      </trkpt>
      <trkpt lat="43.91385" lon="1.8846">
        <ele>270.6</ele>
        <time>2021-03-21T16:12:51Z</time>
      </trkpt>
      <trkpt lat="43.91388" lon="1.88457">
        <ele>270.8</ele>
        <time>2021-03-21T16:12:52Z</time>
      </trkpt>
      <trkpt lat="43.91392" lon="1.88454">
        <ele>270.6</ele>
        <time>2021-03-21T16:12:53Z</time>
      </trkpt>
      <trkpt lat="43.91399" lon="1.88447">
        <ele>270.8</ele>
        <time>2021-03-21T16:12:55Z</time>
      </trkpt>
      <trkpt lat="43.91402" lon="1.88444">
        <ele>270.6</ele>
        <time>2021-03-21T16:12:56Z</time>
      </trkpt>
      <trkpt lat="43.91405" lon="1.8844">
        <ele>270.8</ele>
        <time>2021-03-21T16:12:57Z</time>
      </trkpt>
      <trkpt lat="43.91408" lon="1.88437">
        <ele>271</ele>
        <time>2021-03-21T16:12:58Z</time>
      </trkpt>
      <trkpt lat="43.91414" lon="1.88429">
        <ele>271</ele>
        <time>2021-03-21T16:13:00Z</time>
      </trkpt>
      <trkpt lat="43.91418" lon="1.88426">
        <ele>271.2</ele>
        <time>2021-03-21T16:13:01Z</time>
      </trkpt>
      <trkpt lat="43.91425" lon="1.88419">
        <ele>271.2</ele>
        <time>2021-03-21T16:13:03Z</time>
      </trkpt>
      <trkpt lat="43.91428" lon="1.88416">
        <ele>271.2</ele>
        <time>2021-03-21T16:13:04Z</time>
      </trkpt>
      <trkpt lat="43.91432" lon="1.88413">
        <ele>271.4</ele>
        <time>2021-03-21T16:13:05Z</time>
      </trkpt>
      <trkpt lat="43.91435" lon="1.8841">
        <ele>271.2</ele>
        <time>2021-03-21T16:13:06Z</time>
      </trkpt>
      <trkpt lat="43.91438" lon="1.88407">
        <ele>271.4</ele>
        <time>2021-03-21T16:13:07Z</time>
      </trkpt>
      <trkpt lat="43.91441" lon="1.88404">
        <ele>271.4</ele>
        <time>2021-03-21T16:13:08Z</time>
      </trkpt>
      <trkpt lat="43.91444" lon="1.88401">
        <ele>271.4</ele>
        <time>2021-03-21T16:13:09Z</time>
      </trkpt>
      <trkpt lat="43.91448" lon="1.88398">
        <ele>271.6</ele>
        <time>2021-03-21T16:13:10Z</time>
      </trkpt>
      <trkpt lat="43.91451" lon="1.88395">
        <ele>271.4</ele>
        <time>2021-03-21T16:13:11Z</time>
      </trkpt>
      <trkpt lat="43.91455" lon="1.88393">
        <ele>271.4</ele>
        <time>2021-03-21T16:13:12Z</time>
      </trkpt>
      <trkpt lat="43.91458" lon="1.8839">
        <ele>271.6</ele>
        <time>2021-03-21T16:13:13Z</time>
      </trkpt>
      <trkpt lat="43.91461" lon="1.88387">
        <ele>271.6</ele>
        <time>2021-03-21T16:13:14Z</time>
      </trkpt>
      <trkpt lat="43.91467" lon="1.88382">
        <ele>271.6</ele>
        <time>2021-03-21T16:13:16Z</time>
      </trkpt>
      <trkpt lat="43.91471" lon="1.8838">
        <ele>271.8</ele>
        <time>2021-03-21T16:13:17Z</time>
      </trkpt>
      <trkpt lat="43.91474" lon="1.88377">
        <ele>271.8</ele>
        <time>2021-03-21T16:13:18Z</time>
      </trkpt>
      <trkpt lat="43.91477" lon="1.88375">
        <ele>272</ele>
        <time>2021-03-21T16:13:19Z</time>
      </trkpt>
      <trkpt lat="43.9148" lon="1.88372">
        <ele>272</ele>
        <time>2021-03-21T16:13:20Z</time>
      </trkpt>
      <trkpt lat="43.91484" lon="1.8837">
        <ele>272.2</ele>
        <time>2021-03-21T16:13:21Z</time>
      </trkpt>
      <trkpt lat="43.91488" lon="1.88368">
        <ele>272.4</ele>
        <time>2021-03-21T16:13:22Z</time>
      </trkpt>
      <trkpt lat="43.91495" lon="1.88364">
        <ele>272.4</ele>
        <time>2021-03-21T16:13:24Z</time>
      </trkpt>
      <trkpt lat="43.91499" lon="1.88362">
        <ele>272.4</ele>
        <time>2021-03-21T16:13:25Z</time>
      </trkpt>
      <trkpt lat="43.91503" lon="1.8836">
        <ele>272.4</ele>
        <time>2021-03-21T16:13:26Z</time>
      </trkpt>
      <trkpt lat="43.91506" lon="1.88357">
        <ele>272.4</ele>
        <time>2021-03-21T16:13:27Z</time>
      </trkpt>
      <trkpt lat="43.9151" lon="1.88355">
        <ele>272.4</ele>
        <time>2021-03-21T16:13:28Z</time>
      </trkpt>
      <trkpt lat="43.91514" lon="1.88353">
        <ele>272.6</ele>
        <time>2021-03-21T16:13:29Z</time>
      </trkpt>
      <trkpt lat="43.91518" lon="1.88351">
        <ele>272.6</ele>
        <time>2021-03-21T16:13:30Z</time>
      </trkpt>
      <trkpt lat="43.91521" lon="1.88349">
        <ele>272.8</ele>
        <time>2021-03-21T16:13:31Z</time>
      </trkpt>
      <trkpt lat="43.91525" lon="1.88347">
        <ele>272.6</ele>
        <time>2021-03-21T16:13:32Z</time>
      </trkpt>
      <trkpt lat="43.91529" lon="1.88345">
        <ele>272.8</ele>
        <time>2021-03-21T16:13:33Z</time>
      </trkpt>
      <trkpt lat="43.91533" lon="1.88343">
        <ele>272.8</ele>
        <time>2021-03-21T16:13:34Z</time>
      </trkpt>
      <trkpt lat="43.91537" lon="1.88341">
        <ele>273</ele>
        <time>2021-03-21T16:13:35Z</time>
      </trkpt>
      <trkpt lat="43.91541" lon="1.88339">
        <ele>273</ele>
        <time>2021-03-21T16:13:36Z</time>
      </trkpt>
      <trkpt lat="43.91545" lon="1.88337">
        <ele>273.2</ele>
        <time>2021-03-21T16:13:37Z</time>
      </trkpt>
      <trkpt lat="43.91549" lon="1.88335">
        <ele>273.2</ele>
        <time>2021-03-21T16:13:38Z</time>
      </trkpt>
      <trkpt lat="43.91553" lon="1.88333">
        <ele>273.2</ele>
        <time>2021-03-21T16:13:39Z</time>
      </trkpt>
      <trkpt lat="43.91557" lon="1.88331">
        <ele>273.2</ele>
        <time>2021-03-21T16:13:40Z</time>
      </trkpt>
      <trkpt lat="43.91565" lon="1.88327">
        <ele>273.4</ele>
        <time>2021-03-21T16:13:42Z</time>
      </trkpt>
      <trkpt lat="43.91569" lon="1.88325">
        <ele>273.4</ele>
        <time>2021-03-21T16:13:43Z</time>
      </trkpt>
      <trkpt lat="43.91574" lon="1.88323">
        <ele>273.4</ele>
        <time>2021-03-21T16:13:44Z</time>
      </trkpt>
      <trkpt lat="43.91578" lon="1.88322">
        <ele>273.6</ele>
        <time>2021-03-21T16:13:45Z</time>
      </trkpt>
      <trkpt lat="43.91582" lon="1.8832">
        <ele>273.6</ele>
        <time>2021-03-21T16:13:46Z</time>
      </trkpt>
      <trkpt lat="43.91586" lon="1.88318">
        <ele>273.8</ele>
        <time>2021-03-21T16:13:47Z</time>
      </trkpt>
      <trkpt lat="43.91589" lon="1.88316">
        <ele>274</ele>
        <time>2021-03-21T16:13:48Z</time>
      </trkpt>
      <trkpt lat="43.91597" lon="1.88312">
        <ele>274</ele>
        <time>2021-03-21T16:13:50Z</time>
      </trkpt>
      <trkpt lat="43.91601" lon="1.8831">
        <ele>274.2</ele>
        <time>2021-03-21T16:13:51Z</time>
      </trkpt>
      <trkpt lat="43.91605" lon="1.88308">
        <ele>274</ele>
        <time>2021-03-21T16:13:52Z</time>
      </trkpt>
      <trkpt lat="43.91609" lon="1.88306">
        <ele>274.2</ele>
        <time>2021-03-21T16:13:53Z</time>
      </trkpt>
      <trkpt lat="43.91613" lon="1.88304">
        <ele>274.4</ele>
        <time>2021-03-21T16:13:54Z</time>
      </trkpt>
      <trkpt lat="43.91617" lon="1.88302">
        <ele>274.4</ele>
        <time>2021-03-21T16:13:55Z</time>
      </trkpt>
      <trkpt lat="43.91621" lon="1.883">
        <ele>274.4</ele>
        <time>2021-03-21T16:13:56Z</time>
      </trkpt>
      <trkpt lat="43.91625" lon="1.88298">
        <ele>274.4</ele>
        <time>2021-03-21T16:13:57Z</time>
      </trkpt>
      <trkpt lat="43.91629" lon="1.88295">
        <ele>274.6</ele>
        <time>2021-03-21T16:13:58Z</time>
      </trkpt>
      <trkpt lat="43.91633" lon="1.88293">
        <ele>274.6</ele>
        <time>2021-03-21T16:13:59Z</time>
      </trkpt>
      <trkpt lat="43.91637" lon="1.88291">
        <ele>274.6</ele>
        <time>2021-03-21T16:14:00Z</time>
      </trkpt>
      <trkpt lat="43.91641" lon="1.88289">
        <ele>274.6</ele>
        <time>2021-03-21T16:14:01Z</time>
      </trkpt>
      <trkpt lat="43.91645" lon="1.88287">
        <ele>274.6</ele>
        <time>2021-03-21T16:14:02Z</time>
      </trkpt>
      <trkpt lat="43.9165" lon="1.88285">
        <ele>274.8</ele>
        <time>2021-03-21T16:14:03Z</time>
      </trkpt>
      <trkpt lat="43.91654" lon="1.88283">
        <ele>274.8</ele>
        <time>2021-03-21T16:14:04Z</time>
      </trkpt>
      <trkpt lat="43.91658" lon="1.88281">
        <ele>274.8</ele>
        <time>2021-03-21T16:14:05Z</time>
      </trkpt>
      <trkpt lat="43.91662" lon="1.88279">
        <ele>274.8</ele>
        <time>2021-03-21T16:14:06Z</time>
      </trkpt>
      <trkpt lat="43.91667" lon="1.88277">
        <ele>274.8</ele>
        <time>2021-03-21T16:14:07Z</time>
      </trkpt>
      <trkpt lat="43.91671" lon="1.88275">
        <ele>275</ele>
        <time>2021-03-21T16:14:08Z</time>
      </trkpt>
      <trkpt lat="43.91675" lon="1.88272">
        <ele>274.8</ele>
        <time>2021-03-21T16:14:09Z</time>
      </trkpt>
      <trkpt lat="43.91683" lon="1.88268">
        <ele>274.8</ele>
        <time>2021-03-21T16:14:11Z</time>
      </trkpt>
      <trkpt lat="43.91687" lon="1.88266">
        <ele>275</ele>
        <time>2021-03-21T16:14:12Z</time>
      </trkpt>
      <trkpt lat="43.91692" lon="1.88264">
        <ele>275</ele>
        <time>2021-03-21T16:14:13Z</time>
      </trkpt>
      <trkpt lat="43.91695" lon="1.88262">
        <ele>275</ele>
        <time>2021-03-21T16:14:14Z</time>
      </trkpt>
      <trkpt lat="43.91699" lon="1.8826">
        <ele>275</ele>
        <time>2021-03-21T16:14:15Z</time>
      </trkpt>
      <trkpt lat="43.91703" lon="1.88258">
        <ele>275</ele>
        <time>2021-03-21T16:14:16Z</time>
      </trkpt>
      <trkpt lat="43.91707" lon="1.88257">
        <ele>275.2</ele>
        <time>2021-03-21T16:14:17Z</time>
      </trkpt>
      <trkpt lat="43.91712" lon="1.88255">
        <ele>275.2</ele>
        <time>2021-03-21T16:14:18Z</time>
      </trkpt>
      <trkpt lat="43.91715" lon="1.88253">
        <ele>275.2</ele>
        <time>2021-03-21T16:14:19Z</time>
      </trkpt>
      <trkpt lat="43.9172" lon="1.88251">
        <ele>275.2</ele>
        <time>2021-03-21T16:14:20Z</time>
      </trkpt>
      <trkpt lat="43.91724" lon="1.8825">
        <ele>275.2</ele>
        <time>2021-03-21T16:14:21Z</time>
      </trkpt>
      <trkpt lat="43.91728" lon="1.88248">
        <ele>275.4</ele>
        <time>2021-03-21T16:14:22Z</time>
      </trkpt>
      <trkpt lat="43.91732" lon="1.88246">
        <ele>275.4</ele>
        <time>2021-03-21T16:14:23Z</time>
      </trkpt>
      <trkpt lat="43.91736" lon="1.88245">
        <ele>275.4</ele>
        <time>2021-03-21T16:14:24Z</time>
      </trkpt>
      <trkpt lat="43.91741" lon="1.88243">
        <ele>275.4</ele>
        <time>2021-03-21T16:14:25Z</time>
      </trkpt>
      <trkpt lat="43.91745" lon="1.88242">
        <ele>275.4</ele>
        <time>2021-03-21T16:14:26Z</time>
      </trkpt>
      <trkpt lat="43.9175" lon="1.8824">
        <ele>275.6</ele>
        <time>2021-03-21T16:14:27Z</time>
      </trkpt>
      <trkpt lat="43.91759" lon="1.88238">
        <ele>275.6</ele>
        <time>2021-03-21T16:14:29Z</time>
      </trkpt>
      <trkpt lat="43.91764" lon="1.88236">
        <ele>275.6</ele>
        <time>2021-03-21T16:14:30Z</time>
      </trkpt>
      <trkpt lat="43.91768" lon="1.88234">
        <ele>275.8</ele>
        <time>2021-03-21T16:14:31Z</time>
      </trkpt>
      <trkpt lat="43.91773" lon="1.88233">
        <ele>275.8</ele>
        <time>2021-03-21T16:14:32Z</time>
      </trkpt>
      <trkpt lat="43.91778" lon="1.88232">
        <ele>276</ele>
        <time>2021-03-21T16:14:33Z</time>
      </trkpt>
      <trkpt lat="43.91783" lon="1.88231">
        <ele>276.4</ele>
        <time>2021-03-21T16:14:34Z</time>
      </trkpt>
      <trkpt lat="43.91787" lon="1.88229">
        <ele>276.2</ele>
        <time>2021-03-21T16:14:35Z</time>
      </trkpt>
      <trkpt lat="43.91792" lon="1.88228">
        <ele>276.2</ele>
        <time>2021-03-21T16:14:36Z</time>
      </trkpt>
      <trkpt lat="43.91797" lon="1.88227">
        <ele>276.4</ele>
        <time>2021-03-21T16:14:37Z</time>
      </trkpt>
      <trkpt lat="43.91801" lon="1.88226">
        <ele>276.4</ele>
        <time>2021-03-21T16:14:38Z</time>
      </trkpt>
      <trkpt lat="43.91806" lon="1.88225">
        <ele>276.6</ele>
        <time>2021-03-21T16:14:39Z</time>
      </trkpt>
      <trkpt lat="43.91811" lon="1.88224">
        <ele>276.6</ele>
        <time>2021-03-21T16:14:40Z</time>
      </trkpt>
      <trkpt lat="43.9182" lon="1.88222">
        <ele>276.8</ele>
        <time>2021-03-21T16:14:42Z</time>
      </trkpt>
      <trkpt lat="43.91825" lon="1.8822">
        <ele>276.8</ele>
        <time>2021-03-21T16:14:43Z</time>
      </trkpt>
      <trkpt lat="43.9183" lon="1.88219">
        <ele>276.8</ele>
        <time>2021-03-21T16:14:44Z</time>
      </trkpt>
      <trkpt lat="43.91834" lon="1.88218">
        <ele>276.8</ele>
        <time>2021-03-21T16:14:45Z</time>
      </trkpt>
      <trkpt lat="43.91839" lon="1.88217">
        <ele>277</ele>
        <time>2021-03-21T16:14:46Z</time>
      </trkpt>
      <trkpt lat="43.91843" lon="1.88216">
        <ele>276.8</ele>
        <time>2021-03-21T16:14:47Z</time>
      </trkpt>
      <trkpt lat="43.91847" lon="1.88215">
        <ele>277</ele>
        <time>2021-03-21T16:14:48Z</time>
      </trkpt>
      <trkpt lat="43.9185" lon="1.88214">
        <ele>277</ele>
        <time>2021-03-21T16:14:49Z</time>
      </trkpt>
      <trkpt lat="43.91853" lon="1.88213">
        <ele>277.2</ele>
        <time>2021-03-21T16:14:50Z</time>
      </trkpt>
      <trkpt lat="43.91856" lon="1.88213">
        <ele>277.4</ele>
        <time>2021-03-21T16:14:51Z</time>
      </trkpt>
      <trkpt lat="43.91859" lon="1.88213">
        <ele>277.4</ele>
        <time>2021-03-21T16:14:52Z</time>
      </trkpt>
      <trkpt lat="43.91861" lon="1.88213">
        <ele>277.4</ele>
        <time>2021-03-21T16:14:53Z</time>
      </trkpt>
      <trkpt lat="43.91866" lon="1.88215">
        <ele>277.6</ele>
        <time>2021-03-21T16:14:55Z</time>
      </trkpt>
      <trkpt lat="43.91868" lon="1.88218">
        <ele>277.6</ele>
        <time>2021-03-21T16:14:56Z</time>
      </trkpt>
      <trkpt lat="43.9187" lon="1.88221">
        <ele>277.8</ele>
        <time>2021-03-21T16:14:57Z</time>
      </trkpt>
      <trkpt lat="43.91872" lon="1.88224">
        <ele>277.8</ele>
        <time>2021-03-21T16:14:58Z</time>
      </trkpt>
      <trkpt lat="43.91875" lon="1.88228">
        <ele>278</ele>
        <time>2021-03-21T16:14:59Z</time>
      </trkpt>
      <trkpt lat="43.91877" lon="1.88232">
        <ele>278</ele>
        <time>2021-03-21T16:15:00Z</time>
      </trkpt>
      <trkpt lat="43.9188" lon="1.88237">
        <ele>278.4</ele>
        <time>2021-03-21T16:15:01Z</time>
      </trkpt>
      <trkpt lat="43.91886" lon="1.88246">
        <ele>278.6</ele>
        <time>2021-03-21T16:15:03Z</time>
      </trkpt>
      <trkpt lat="43.91889" lon="1.8825">
        <ele>278.8</ele>
        <time>2021-03-21T16:15:04Z</time>
      </trkpt>
      <trkpt lat="43.91892" lon="1.88254">
        <ele>278.8</ele>
        <time>2021-03-21T16:15:05Z</time>
      </trkpt>
      <trkpt lat="43.91895" lon="1.88258">
        <ele>278.8</ele>
        <time>2021-03-21T16:15:06Z</time>
      </trkpt>
      <trkpt lat="43.91899" lon="1.8826">
        <ele>278.6</ele>
        <time>2021-03-21T16:15:07Z</time>
      </trkpt>
      <trkpt lat="43.91902" lon="1.8826">
        <ele>278.8</ele>
        <time>2021-03-21T16:15:08Z</time>
      </trkpt>
      <trkpt lat="43.91905" lon="1.88258">
        <ele>278.8</ele>
        <time>2021-03-21T16:15:09Z</time>
      </trkpt>
      <trkpt lat="43.91907" lon="1.88255">
        <ele>278.8</ele>
        <time>2021-03-21T16:15:10Z</time>
      </trkpt>
      <trkpt lat="43.9191" lon="1.88252">
        <ele>278.6</ele>
        <time>2021-03-21T16:15:11Z</time>
      </trkpt>
      <trkpt lat="43.91912" lon="1.8825">
        <ele>278.4</ele>
        <time>2021-03-21T16:15:12Z</time>
      </trkpt>
      <trkpt lat="43.91914" lon="1.88247">
        <ele>278.4</ele>
        <time>2021-03-21T16:15:13Z</time>
      </trkpt>
      <trkpt lat="43.91915" lon="1.88245">
        <ele>278.2</ele>
        <time>2021-03-21T16:15:14Z</time>
      </trkpt>
      <trkpt lat="43.91917" lon="1.88242">
        <ele>278</ele>
        <time>2021-03-21T16:15:15Z</time>
      </trkpt>
      <trkpt lat="43.91919" lon="1.8824">
        <ele>277.6</ele>
        <time>2021-03-21T16:15:16Z</time>
      </trkpt>
      <trkpt lat="43.9192" lon="1.88238">
        <ele>277.2</ele>
        <time>2021-03-21T16:15:17Z</time>
      </trkpt>
      <trkpt lat="43.91922" lon="1.88235">
        <ele>277</ele>
        <time>2021-03-21T16:15:18Z</time>
      </trkpt>
      <trkpt lat="43.91924" lon="1.88232">
        <ele>276.8</ele>
        <time>2021-03-21T16:15:19Z</time>
      </trkpt>
      <trkpt lat="43.91927" lon="1.88228">
        <ele>276.6</ele>
        <time>2021-03-21T16:15:21Z</time>
      </trkpt>
      <trkpt lat="43.91929" lon="1.88226">
        <ele>276.6</ele>
        <time>2021-03-21T16:15:22Z</time>
      </trkpt>
      <trkpt lat="43.91931" lon="1.88224">
        <ele>276.4</ele>
        <time>2021-03-21T16:15:23Z</time>
      </trkpt>
      <trkpt lat="43.91933" lon="1.88221">
        <ele>276.4</ele>
        <time>2021-03-21T16:15:24Z</time>
      </trkpt>
      <trkpt lat="43.91935" lon="1.88219">
        <ele>276.4</ele>
        <time>2021-03-21T16:15:25Z</time>
      </trkpt>
      <trkpt lat="43.91937" lon="1.88217">
        <ele>276.2</ele>
        <time>2021-03-21T16:15:26Z</time>
      </trkpt>
      <trkpt lat="43.91939" lon="1.88215">
        <ele>276.4</ele>
        <time>2021-03-21T16:15:27Z</time>
      </trkpt>
      <trkpt lat="43.91941" lon="1.88213">
        <ele>276.6</ele>
        <time>2021-03-21T16:15:28Z</time>
      </trkpt>
      <trkpt lat="43.91943" lon="1.88211">
        <ele>276.4</ele>
        <time>2021-03-21T16:15:29Z</time>
      </trkpt>
      <trkpt lat="43.91945" lon="1.88209">
        <ele>276.6</ele>
        <time>2021-03-21T16:15:30Z</time>
      </trkpt>
      <trkpt lat="43.91947" lon="1.88207">
        <ele>276.6</ele>
        <time>2021-03-21T16:15:31Z</time>
      </trkpt>
      <trkpt lat="43.91949" lon="1.88205">
        <ele>276.8</ele>
        <time>2021-03-21T16:15:32Z</time>
      </trkpt>
      <trkpt lat="43.91953" lon="1.88201">
        <ele>277</ele>
        <time>2021-03-21T16:15:34Z</time>
      </trkpt>
      <trkpt lat="43.91955" lon="1.882">
        <ele>277.2</ele>
        <time>2021-03-21T16:15:35Z</time>
      </trkpt>
      <trkpt lat="43.91958" lon="1.88198">
        <ele>277.4</ele>
        <time>2021-03-21T16:15:36Z</time>
      </trkpt>
      <trkpt lat="43.9196" lon="1.88196">
        <ele>277.6</ele>
        <time>2021-03-21T16:15:37Z</time>
      </trkpt>
      <trkpt lat="43.91962" lon="1.88195">
        <ele>277.8</ele>
        <time>2021-03-21T16:15:38Z</time>
      </trkpt>
      <trkpt lat="43.91963" lon="1.88193">
        <ele>277.6</ele>
        <time>2021-03-21T16:15:39Z</time>
      </trkpt>
      <trkpt lat="43.91965" lon="1.88191">
        <ele>277.8</ele>
        <time>2021-03-21T16:15:40Z</time>
      </trkpt>
      <trkpt lat="43.91967" lon="1.88189">
        <ele>278</ele>
        <time>2021-03-21T16:15:41Z</time>
      </trkpt>
      <trkpt lat="43.91969" lon="1.88188">
        <ele>278</ele>
        <time>2021-03-21T16:15:42Z</time>
      </trkpt>
      <trkpt lat="43.91971" lon="1.88186">
        <ele>278</ele>
        <time>2021-03-21T16:15:43Z</time>
      </trkpt>
      <trkpt lat="43.91972" lon="1.88184">
        <ele>278</ele>
        <time>2021-03-21T16:15:44Z</time>
      </trkpt>
      <trkpt lat="43.91974" lon="1.88183">
        <ele>278</ele>
        <time>2021-03-21T16:15:45Z</time>
      </trkpt>
      <trkpt lat="43.91976" lon="1.88181">
        <ele>278.2</ele>
        <time>2021-03-21T16:15:46Z</time>
      </trkpt>
      <trkpt lat="43.91978" lon="1.88179">
        <ele>278</ele>
        <time>2021-03-21T16:15:47Z</time>
      </trkpt>
      <trkpt lat="43.91982" lon="1.88177">
        <ele>278.4</ele>
        <time>2021-03-21T16:15:49Z</time>
      </trkpt>
      <trkpt lat="43.91984" lon="1.88175">
        <ele>278.4</ele>
        <time>2021-03-21T16:15:50Z</time>
      </trkpt>
      <trkpt lat="43.91988" lon="1.88171">
        <ele>278.4</ele>
        <time>2021-03-21T16:15:52Z</time>
      </trkpt>
      <trkpt lat="43.9199" lon="1.88169">
        <ele>278.4</ele>
        <time>2021-03-21T16:15:53Z</time>
      </trkpt>
      <trkpt lat="43.91992" lon="1.88167">
        <ele>278.6</ele>
        <time>2021-03-21T16:15:54Z</time>
      </trkpt>
      <trkpt lat="43.91994" lon="1.88165">
        <ele>278.4</ele>
        <time>2021-03-21T16:15:55Z</time>
      </trkpt>
      <trkpt lat="43.91996" lon="1.88164">
        <ele>278.4</ele>
        <time>2021-03-21T16:15:56Z</time>
      </trkpt>
      <trkpt lat="43.91998" lon="1.88162">
        <ele>278.4</ele>
        <time>2021-03-21T16:15:57Z</time>
      </trkpt>
      <trkpt lat="43.91999" lon="1.88159">
        <ele>278.6</ele>
        <time>2021-03-21T16:15:58Z</time>
      </trkpt>
      <trkpt lat="43.92001" lon="1.88157">
        <ele>278.4</ele>
        <time>2021-03-21T16:15:59Z</time>
      </trkpt>
      <trkpt lat="43.92003" lon="1.88155">
        <ele>278.4</ele>
        <time>2021-03-21T16:16:00Z</time>
      </trkpt>
      <trkpt lat="43.92005" lon="1.88154">
        <ele>278.4</ele>
        <time>2021-03-21T16:16:01Z</time>
      </trkpt>
      <trkpt lat="43.92007" lon="1.88152">
        <ele>278.4</ele>
        <time>2021-03-21T16:16:02Z</time>
      </trkpt>
      <trkpt lat="43.92009" lon="1.8815">
        <ele>278.6</ele>
        <time>2021-03-21T16:16:03Z</time>
      </trkpt>
      <trkpt lat="43.92011" lon="1.88149">
        <ele>278.6</ele>
        <time>2021-03-21T16:16:04Z</time>
      </trkpt>
      <trkpt lat="43.92013" lon="1.88147">
        <ele>278.6</ele>
        <time>2021-03-21T16:16:05Z</time>
      </trkpt>
      <trkpt lat="43.92016" lon="1.88143">
        <ele>278.6</ele>
        <time>2021-03-21T16:16:07Z</time>
      </trkpt>
      <trkpt lat="43.92018" lon="1.88142">
        <ele>278.6</ele>
        <time>2021-03-21T16:16:08Z</time>
      </trkpt>
      <trkpt lat="43.92019" lon="1.8814">
        <ele>278.6</ele>
        <time>2021-03-21T16:16:09Z</time>
      </trkpt>
      <trkpt lat="43.92021" lon="1.88138">
        <ele>278.6</ele>
        <time>2021-03-21T16:16:10Z</time>
      </trkpt>
      <trkpt lat="43.92023" lon="1.88137">
        <ele>278.4</ele>
        <time>2021-03-21T16:16:11Z</time>
      </trkpt>
      <trkpt lat="43.92024" lon="1.88135">
        <ele>278.6</ele>
        <time>2021-03-21T16:16:12Z</time>
      </trkpt>
      <trkpt lat="43.92026" lon="1.88133">
        <ele>278.8</ele>
        <time>2021-03-21T16:16:13Z</time>
      </trkpt>
      <trkpt lat="43.92028" lon="1.88132">
        <ele>278.6</ele>
        <time>2021-03-21T16:16:14Z</time>
      </trkpt>
      <trkpt lat="43.9203" lon="1.8813">
        <ele>278.8</ele>
        <time>2021-03-21T16:16:15Z</time>
      </trkpt>
      <trkpt lat="43.92034" lon="1.88127">
        <ele>278.8</ele>
        <time>2021-03-21T16:16:17Z</time>
      </trkpt>
      <trkpt lat="43.92036" lon="1.88125">
        <ele>278.8</ele>
        <time>2021-03-21T16:16:18Z</time>
      </trkpt>
      <trkpt lat="43.92038" lon="1.88123">
        <ele>279</ele>
        <time>2021-03-21T16:16:19Z</time>
      </trkpt>
      <trkpt lat="43.9204" lon="1.88122">
        <ele>279</ele>
        <time>2021-03-21T16:16:20Z</time>
      </trkpt>
      <trkpt lat="43.92042" lon="1.8812">
        <ele>278.8</ele>
        <time>2021-03-21T16:16:21Z</time>
      </trkpt>
      <trkpt lat="43.92044" lon="1.88118">
        <ele>279</ele>
        <time>2021-03-21T16:16:22Z</time>
      </trkpt>
      <trkpt lat="43.92046" lon="1.88117">
        <ele>279</ele>
        <time>2021-03-21T16:16:23Z</time>
      </trkpt>
      <trkpt lat="43.92049" lon="1.88114">
        <ele>279</ele>
        <time>2021-03-21T16:16:25Z</time>
      </trkpt>
      <trkpt lat="43.92051" lon="1.88113">
        <ele>279</ele>
        <time>2021-03-21T16:16:26Z</time>
      </trkpt>
      <trkpt lat="43.92053" lon="1.88111">
        <ele>279</ele>
        <time>2021-03-21T16:16:27Z</time>
      </trkpt>
      <trkpt lat="43.92055" lon="1.8811">
        <ele>279</ele>
        <time>2021-03-21T16:16:28Z</time>
      </trkpt>
      <trkpt lat="43.92056" lon="1.88108">
        <ele>279</ele>
        <time>2021-03-21T16:16:29Z</time>
      </trkpt>
      <trkpt lat="43.92058" lon="1.88107">
        <ele>279</ele>
        <time>2021-03-21T16:16:30Z</time>
      </trkpt>
      <trkpt lat="43.92059" lon="1.88105">
        <ele>279.2</ele>
        <time>2021-03-21T16:16:31Z</time>
      </trkpt>
      <trkpt lat="43.92061" lon="1.88104">
        <ele>279.2</ele>
        <time>2021-03-21T16:16:32Z</time>
      </trkpt>
      <trkpt lat="43.92063" lon="1.88102">
        <ele>279</ele>
        <time>2021-03-21T16:16:33Z</time>
      </trkpt>
      <trkpt lat="43.92064" lon="1.881">
        <ele>279.2</ele>
        <time>2021-03-21T16:16:34Z</time>
      </trkpt>
      <trkpt lat="43.92066" lon="1.88099">
        <ele>279</ele>
        <time>2021-03-21T16:16:35Z</time>
      </trkpt>
      <trkpt lat="43.92068" lon="1.88097">
        <ele>279.2</ele>
        <time>2021-03-21T16:16:36Z</time>
      </trkpt>
      <trkpt lat="43.92071" lon="1.88093">
        <ele>279.4</ele>
        <time>2021-03-21T16:16:38Z</time>
      </trkpt>
      <trkpt lat="43.92073" lon="1.88091">
        <ele>279.4</ele>
        <time>2021-03-21T16:16:39Z</time>
      </trkpt>
      <trkpt lat="43.92074" lon="1.88089">
        <ele>279.6</ele>
        <time>2021-03-21T16:16:40Z</time>
      </trkpt>
      <trkpt lat="43.92076" lon="1.88087">
        <ele>279.6</ele>
        <time>2021-03-21T16:16:41Z</time>
      </trkpt>
      <trkpt lat="43.92077" lon="1.88085">
        <ele>279.6</ele>
        <time>2021-03-21T16:16:42Z</time>
      </trkpt>
      <trkpt lat="43.92079" lon="1.88083">
        <ele>279.6</ele>
        <time>2021-03-21T16:16:43Z</time>
      </trkpt>
      <trkpt lat="43.9208" lon="1.88081">
        <ele>279.6</ele>
        <time>2021-03-21T16:16:44Z</time>
      </trkpt>
      <trkpt lat="43.92081" lon="1.88079">
        <ele>279.6</ele>
        <time>2021-03-21T16:16:45Z</time>
      </trkpt>
      <trkpt lat="43.92083" lon="1.88076">
        <ele>279.6</ele>
        <time>2021-03-21T16:16:46Z</time>
      </trkpt>
      <trkpt lat="43.92084" lon="1.88075">
        <ele>279.8</ele>
        <time>2021-03-21T16:16:47Z</time>
      </trkpt>
      <trkpt lat="43.92085" lon="1.88073">
        <ele>279.8</ele>
        <time>2021-03-21T16:16:48Z</time>
      </trkpt>
      <trkpt lat="43.92085" lon="1.88071">
        <ele>279.6</ele>
        <time>2021-03-21T16:16:49Z</time>
      </trkpt>
      <trkpt lat="43.92086" lon="1.88069">
        <ele>279.6</ele>
        <time>2021-03-21T16:16:50Z</time>
      </trkpt>
      <trkpt lat="43.92086" lon="1.88066">
        <ele>280</ele>
        <time>2021-03-21T16:16:51Z</time>
      </trkpt>
      <trkpt lat="43.92088" lon="1.88062">
        <ele>280</ele>
        <time>2021-03-21T16:16:53Z</time>
      </trkpt>
      <trkpt lat="43.92089" lon="1.8806">
        <ele>280.2</ele>
        <time>2021-03-21T16:16:54Z</time>
      </trkpt>
      <trkpt lat="43.9209" lon="1.88058">
        <ele>280.4</ele>
        <time>2021-03-21T16:16:55Z</time>
      </trkpt>
      <trkpt lat="43.92091" lon="1.88056">
        <ele>280.4</ele>
        <time>2021-03-21T16:16:56Z</time>
      </trkpt>
      <trkpt lat="43.92092" lon="1.88053">
        <ele>280.4</ele>
        <time>2021-03-21T16:16:57Z</time>
      </trkpt>
      <trkpt lat="43.92094" lon="1.88051">
        <ele>280.8</ele>
        <time>2021-03-21T16:16:58Z</time>
      </trkpt>
      <trkpt lat="43.92095" lon="1.88049">
        <ele>280.8</ele>
        <time>2021-03-21T16:16:59Z</time>
      </trkpt>
      <trkpt lat="43.92096" lon="1.88047">
        <ele>281</ele>
        <time>2021-03-21T16:17:00Z</time>
      </trkpt>
      <trkpt lat="43.92097" lon="1.88045">
        <ele>281.2</ele>
        <time>2021-03-21T16:17:01Z</time>
      </trkpt>
      <trkpt lat="43.921" lon="1.8804">
        <ele>281.2</ele>
        <time>2021-03-21T16:17:03Z</time>
      </trkpt>
      <trkpt lat="43.92101" lon="1.88038">
        <ele>281.2</ele>
        <time>2021-03-21T16:17:04Z</time>
      </trkpt>
      <trkpt lat="43.92102" lon="1.88035">
        <ele>281.2</ele>
        <time>2021-03-21T16:17:05Z</time>
      </trkpt>
      <trkpt lat="43.92103" lon="1.88033">
        <ele>281.2</ele>
        <time>2021-03-21T16:17:06Z</time>
      </trkpt>
      <trkpt lat="43.92106" lon="1.88028">
        <ele>281.6</ele>
        <time>2021-03-21T16:17:08Z</time>
      </trkpt>
      <trkpt lat="43.92107" lon="1.88026">
        <ele>281.6</ele>
        <time>2021-03-21T16:17:09Z</time>
      </trkpt>
      <trkpt lat="43.92108" lon="1.88024">
        <ele>281.8</ele>
        <time>2021-03-21T16:17:10Z</time>
      </trkpt>
      <trkpt lat="43.92109" lon="1.88022">
        <ele>282</ele>
        <time>2021-03-21T16:17:11Z</time>
      </trkpt>
      <trkpt lat="43.9211" lon="1.88019">
        <ele>282.2</ele>
        <time>2021-03-21T16:17:12Z</time>
      </trkpt>
      <trkpt lat="43.92111" lon="1.88017">
        <ele>282.2</ele>
        <time>2021-03-21T16:17:13Z</time>
      </trkpt>
      <trkpt lat="43.92112" lon="1.88015">
        <ele>282.2</ele>
        <time>2021-03-21T16:17:14Z</time>
      </trkpt>
      <trkpt lat="43.92114" lon="1.88011">
        <ele>282.4</ele>
        <time>2021-03-21T16:17:16Z</time>
      </trkpt>
      <trkpt lat="43.92116" lon="1.88009">
        <ele>282.4</ele>
        <time>2021-03-21T16:17:17Z</time>
      </trkpt>
      <trkpt lat="43.92117" lon="1.88007">
        <ele>282.4</ele>
        <time>2021-03-21T16:17:18Z</time>
      </trkpt>
      <trkpt lat="43.92118" lon="1.88006">
        <ele>282.6</ele>
        <time>2021-03-21T16:17:19Z</time>
      </trkpt>
      <trkpt lat="43.9212" lon="1.88001">
        <ele>282.6</ele>
        <time>2021-03-21T16:17:21Z</time>
      </trkpt>
      <trkpt lat="43.92122" lon="1.88">
        <ele>282.6</ele>
        <time>2021-03-21T16:17:22Z</time>
      </trkpt>
      <trkpt lat="43.92123" lon="1.87998">
        <ele>282.6</ele>
        <time>2021-03-21T16:17:23Z</time>
      </trkpt>
      <trkpt lat="43.92123" lon="1.87996">
        <ele>282.6</ele>
        <time>2021-03-21T16:17:24Z</time>
      </trkpt>
      <trkpt lat="43.92126" lon="1.87993">
        <ele>282.8</ele>
        <time>2021-03-21T16:17:26Z</time>
      </trkpt>
      <trkpt lat="43.92127" lon="1.87991">
        <ele>282.8</ele>
        <time>2021-03-21T16:17:27Z</time>
      </trkpt>
      <trkpt lat="43.92128" lon="1.8799">
        <ele>283</ele>
        <time>2021-03-21T16:17:28Z</time>
      </trkpt>
      <trkpt lat="43.92129" lon="1.87988">
        <ele>283</ele>
        <time>2021-03-21T16:17:29Z</time>
      </trkpt>
      <trkpt lat="43.9213" lon="1.87986">
        <ele>283</ele>
        <time>2021-03-21T16:17:30Z</time>
      </trkpt>
      <trkpt lat="43.92131" lon="1.87984">
        <ele>283</ele>
        <time>2021-03-21T16:17:31Z</time>
      </trkpt>
      <trkpt lat="43.92131" lon="1.87982">
        <ele>283.2</ele>
        <time>2021-03-21T16:17:32Z</time>
      </trkpt>
      <trkpt lat="43.92132" lon="1.8798">
        <ele>283.2</ele>
        <time>2021-03-21T16:17:33Z</time>
      </trkpt>
      <trkpt lat="43.92133" lon="1.87978">
        <ele>283.2</ele>
        <time>2021-03-21T16:17:34Z</time>
      </trkpt>
      <trkpt lat="43.92133" lon="1.87976">
        <ele>283.6</ele>
        <time>2021-03-21T16:17:35Z</time>
      </trkpt>
      <trkpt lat="43.92134" lon="1.87975">
        <ele>283.8</ele>
        <time>2021-03-21T16:17:36Z</time>
      </trkpt>
      <trkpt lat="43.92135" lon="1.87973">
        <ele>283.8</ele>
        <time>2021-03-21T16:17:37Z</time>
      </trkpt>
      <trkpt lat="43.92135" lon="1.87971">
        <ele>284</ele>
        <time>2021-03-21T16:17:38Z</time>
      </trkpt>
      <trkpt lat="43.92136" lon="1.8797">
        <ele>284.2</ele>
        <time>2021-03-21T16:17:39Z</time>
      </trkpt>
      <trkpt lat="43.92137" lon="1.87969">
        <ele>284.6</ele>
        <time>2021-03-21T16:17:40Z</time>
      </trkpt>
      <trkpt lat="43.92138" lon="1.87968">
        <ele>285</ele>
        <time>2021-03-21T16:17:41Z</time>
      </trkpt>
      <trkpt lat="43.92138" lon="1.87966">
        <ele>285.2</ele>
        <time>2021-03-21T16:17:42Z</time>
      </trkpt>
      <trkpt lat="43.92139" lon="1.87965">
        <ele>285.4</ele>
        <time>2021-03-21T16:17:43Z</time>
      </trkpt>
      <trkpt lat="43.9214" lon="1.87964">
        <ele>285.4</ele>
        <time>2021-03-21T16:17:44Z</time>
      </trkpt>
      <trkpt lat="43.92141" lon="1.87963">
        <ele>285.8</ele>
        <time>2021-03-21T16:17:45Z</time>
      </trkpt>
      <trkpt lat="43.92141" lon="1.87961">
        <ele>286.2</ele>
        <time>2021-03-21T16:17:46Z</time>
      </trkpt>
      <trkpt lat="43.92142" lon="1.8796">
        <ele>286.4</ele>
        <time>2021-03-21T16:17:47Z</time>
      </trkpt>
      <trkpt lat="43.92143" lon="1.87959">
        <ele>286.6</ele>
        <time>2021-03-21T16:17:48Z</time>
      </trkpt>
      <trkpt lat="43.92143" lon="1.87958">
        <ele>286.6</ele>
        <time>2021-03-21T16:17:49Z</time>
      </trkpt>
      <trkpt lat="43.92144" lon="1.87957">
        <ele>286.8</ele>
        <time>2021-03-21T16:17:50Z</time>
      </trkpt>
      <trkpt lat="43.92145" lon="1.87956">
        <ele>286.8</ele>
        <time>2021-03-21T16:17:51Z</time>
      </trkpt>
      <trkpt lat="43.92145" lon="1.87955">
        <ele>286.8</ele>
        <time>2021-03-21T16:17:52Z</time>
      </trkpt>
      <trkpt lat="43.92146" lon="1.87954">
        <ele>287.2</ele>
        <time>2021-03-21T16:17:53Z</time>
      </trkpt>
      <trkpt lat="43.92146" lon="1.87953">
        <ele>287.2</ele>
        <time>2021-03-21T16:17:54Z</time>
      </trkpt>
      <trkpt lat="43.92147" lon="1.87951">
        <ele>287.4</ele>
        <time>2021-03-21T16:17:55Z</time>
      </trkpt>
      <trkpt lat="43.92148" lon="1.87951">
        <ele>287.4</ele>
        <time>2021-03-21T16:17:56Z</time>
      </trkpt>
      <trkpt lat="43.92148" lon="1.8795">
        <ele>287.8</ele>
        <time>2021-03-21T16:17:57Z</time>
      </trkpt>
      <trkpt lat="43.92149" lon="1.87949">
        <ele>287.8</ele>
        <time>2021-03-21T16:17:58Z</time>
      </trkpt>
      <trkpt lat="43.9215" lon="1.87948">
        <ele>288</ele>
        <time>2021-03-21T16:17:59Z</time>
      </trkpt>
      <trkpt lat="43.9215" lon="1.87947">
        <ele>288</ele>
        <time>2021-03-21T16:18:00Z</time>
      </trkpt>
      <trkpt lat="43.92151" lon="1.87946">
        <ele>288.2</ele>
        <time>2021-03-21T16:18:01Z</time>
      </trkpt>
      <trkpt lat="43.92151" lon="1.87945">
        <ele>288.4</ele>
        <time>2021-03-21T16:18:02Z</time>
      </trkpt>
      <trkpt lat="43.92152" lon="1.87944">
        <ele>288.4</ele>
        <time>2021-03-21T16:18:03Z</time>
      </trkpt>
      <trkpt lat="43.92152" lon="1.87942">
        <ele>288.2</ele>
        <time>2021-03-21T16:18:04Z</time>
      </trkpt>
      <trkpt lat="43.92152" lon="1.87941">
        <ele>288.6</ele>
        <time>2021-03-21T16:18:05Z</time>
      </trkpt>
      <trkpt lat="43.92153" lon="1.8794">
        <ele>288.6</ele>
        <time>2021-03-21T16:18:06Z</time>
      </trkpt>
      <trkpt lat="43.92153" lon="1.87939">
        <ele>288.8</ele>
        <time>2021-03-21T16:18:07Z</time>
      </trkpt>
      <trkpt lat="43.92154" lon="1.87937">
        <ele>289</ele>
        <time>2021-03-21T16:18:08Z</time>
      </trkpt>
      <trkpt lat="43.92154" lon="1.87936">
        <ele>289.2</ele>
        <time>2021-03-21T16:18:09Z</time>
      </trkpt>
      <trkpt lat="43.92155" lon="1.87936">
        <ele>289.4</ele>
        <time>2021-03-21T16:18:10Z</time>
      </trkpt>
      <trkpt lat="43.92156" lon="1.87935">
        <ele>289.6</ele>
        <time>2021-03-21T16:18:11Z</time>
      </trkpt>
      <trkpt lat="43.92156" lon="1.87934">
        <ele>289.8</ele>
        <time>2021-03-21T16:18:12Z</time>
      </trkpt>
      <trkpt lat="43.92157" lon="1.87933">
        <ele>290</ele>
        <time>2021-03-21T16:18:13Z</time>
      </trkpt>
      <trkpt lat="43.92158" lon="1.87932">
        <ele>290.2</ele>
        <time>2021-03-21T16:18:14Z</time>
      </trkpt>
      <trkpt lat="43.92158" lon="1.8793">
        <ele>290.4</ele>
        <time>2021-03-21T16:18:15Z</time>
      </trkpt>
      <trkpt lat="43.92159" lon="1.87929">
        <ele>290.4</ele>
        <time>2021-03-21T16:18:16Z</time>
      </trkpt>
      <trkpt lat="43.92159" lon="1.87928">
        <ele>290.6</ele>
        <time>2021-03-21T16:18:17Z</time>
      </trkpt>
      <trkpt lat="43.9216" lon="1.87927">
        <ele>290.8</ele>
        <time>2021-03-21T16:18:18Z</time>
      </trkpt>
      <trkpt lat="43.9216" lon="1.87926">
        <ele>291</ele>
        <time>2021-03-21T16:18:19Z</time>
      </trkpt>
      <trkpt lat="43.92161" lon="1.87925">
        <ele>291.2</ele>
        <time>2021-03-21T16:18:20Z</time>
      </trkpt>
      <trkpt lat="43.92162" lon="1.87924">
        <ele>291.2</ele>
        <time>2021-03-21T16:18:21Z</time>
      </trkpt>
      <trkpt lat="43.92163" lon="1.87923">
        <ele>291.6</ele>
        <time>2021-03-21T16:18:22Z</time>
      </trkpt>
      <trkpt lat="43.92164" lon="1.87922">
        <ele>291.6</ele>
        <time>2021-03-21T16:18:23Z</time>
      </trkpt>
      <trkpt lat="43.92165" lon="1.87922">
        <ele>291.6</ele>
        <time>2021-03-21T16:18:24Z</time>
      </trkpt>
      <trkpt lat="43.92166" lon="1.87921">
        <ele>291.8</ele>
        <time>2021-03-21T16:18:25Z</time>
      </trkpt>
      <trkpt lat="43.92167" lon="1.8792">
        <ele>291.8</ele>
        <time>2021-03-21T16:18:26Z</time>
      </trkpt>
      <trkpt lat="43.92168" lon="1.8792">
        <ele>292</ele>
        <time>2021-03-21T16:18:27Z</time>
      </trkpt>
      <trkpt lat="43.92169" lon="1.87919">
        <ele>292.2</ele>
        <time>2021-03-21T16:18:28Z</time>
      </trkpt>
      <trkpt lat="43.9217" lon="1.87918">
        <ele>292.2</ele>
        <time>2021-03-21T16:18:29Z</time>
      </trkpt>
      <trkpt lat="43.9217" lon="1.87917">
        <ele>292.2</ele>
        <time>2021-03-21T16:18:30Z</time>
      </trkpt>
      <trkpt lat="43.92171" lon="1.87917">
        <ele>292.2</ele>
        <time>2021-03-21T16:18:31Z</time>
      </trkpt>
      <trkpt lat="43.92172" lon="1.87916">
        <ele>292.2</ele>
        <time>2021-03-21T16:18:32Z</time>
      </trkpt>
      <trkpt lat="43.92173" lon="1.87915">
        <ele>292.4</ele>
        <time>2021-03-21T16:18:33Z</time>
      </trkpt>
      <trkpt lat="43.92173" lon="1.87914">
        <ele>292.8</ele>
        <time>2021-03-21T16:18:34Z</time>
      </trkpt>
      <trkpt lat="43.92174" lon="1.87914">
        <ele>293</ele>
        <time>2021-03-21T16:18:35Z</time>
      </trkpt>
      <trkpt lat="43.92175" lon="1.87914">
        <ele>293.2</ele>
        <time>2021-03-21T16:18:36Z</time>
      </trkpt>
      <trkpt lat="43.92176" lon="1.87913">
        <ele>293.4</ele>
        <time>2021-03-21T16:18:37Z</time>
      </trkpt>
      <trkpt lat="43.92177" lon="1.87913">
        <ele>293.6</ele>
        <time>2021-03-21T16:18:38Z</time>
      </trkpt>
      <trkpt lat="43.92178" lon="1.87913">
        <ele>293.8</ele>
        <time>2021-03-21T16:18:39Z</time>
      </trkpt>
      <trkpt lat="43.92179" lon="1.87913">
        <ele>294.4</ele>
        <time>2021-03-21T16:18:40Z</time>
      </trkpt>
      <trkpt lat="43.9218" lon="1.87913">
        <ele>294.8</ele>
        <time>2021-03-21T16:18:41Z</time>
      </trkpt>
      <trkpt lat="43.92181" lon="1.87913">
        <ele>295</ele>
        <time>2021-03-21T16:18:42Z</time>
      </trkpt>
      <trkpt lat="43.92182" lon="1.87912">
        <ele>295</ele>
        <time>2021-03-21T16:18:43Z</time>
      </trkpt>
      <trkpt lat="43.92183" lon="1.87912">
        <ele>295.2</ele>
        <time>2021-03-21T16:18:44Z</time>
      </trkpt>
      <trkpt lat="43.92184" lon="1.87912">
        <ele>295.4</ele>
        <time>2021-03-21T16:18:45Z</time>
      </trkpt>
      <trkpt lat="43.92185" lon="1.87911">
        <ele>295.6</ele>
        <time>2021-03-21T16:18:46Z</time>
      </trkpt>
      <trkpt lat="43.92186" lon="1.87911">
        <ele>295.4</ele>
        <time>2021-03-21T16:18:47Z</time>
      </trkpt>
      <trkpt lat="43.92187" lon="1.8791">
        <ele>295.8</ele>
        <time>2021-03-21T16:18:48Z</time>
      </trkpt>
      <trkpt lat="43.92188" lon="1.8791">
        <ele>295.8</ele>
        <time>2021-03-21T16:18:49Z</time>
      </trkpt>
      <trkpt lat="43.92189" lon="1.8791">
        <ele>296</ele>
        <time>2021-03-21T16:18:50Z</time>
      </trkpt>
      <trkpt lat="43.9219" lon="1.87909">
        <ele>295.8</ele>
        <time>2021-03-21T16:18:51Z</time>
      </trkpt>
      <trkpt lat="43.92191" lon="1.87909">
        <ele>296</ele>
        <time>2021-03-21T16:18:52Z</time>
      </trkpt>
      <trkpt lat="43.92192" lon="1.87908">
        <ele>296.2</ele>
        <time>2021-03-21T16:18:53Z</time>
      </trkpt>
      <trkpt lat="43.92193" lon="1.87908">
        <ele>296.2</ele>
        <time>2021-03-21T16:18:54Z</time>
      </trkpt>
      <trkpt lat="43.92194" lon="1.87907">
        <ele>296.2</ele>
        <time>2021-03-21T16:18:55Z</time>
      </trkpt>
      <trkpt lat="43.92195" lon="1.87907">
        <ele>296.2</ele>
        <time>2021-03-21T16:18:56Z</time>
      </trkpt>
      <trkpt lat="43.92195" lon="1.87906">
        <ele>296.6</ele>
        <time>2021-03-21T16:18:57Z</time>
      </trkpt>
      <trkpt lat="43.92196" lon="1.87905">
        <ele>296.8</ele>
        <time>2021-03-21T16:18:58Z</time>
      </trkpt>
      <trkpt lat="43.92197" lon="1.87905">
        <ele>297.2</ele>
        <time>2021-03-21T16:18:59Z</time>
      </trkpt>
      <trkpt lat="43.92198" lon="1.87904">
        <ele>297.2</ele>
        <time>2021-03-21T16:19:00Z</time>
      </trkpt>
      <trkpt lat="43.92199" lon="1.87904">
        <ele>297.6</ele>
        <time>2021-03-21T16:19:01Z</time>
      </trkpt>
      <trkpt lat="43.922" lon="1.87903">
        <ele>297.8</ele>
        <time>2021-03-21T16:19:02Z</time>
      </trkpt>
      <trkpt lat="43.92201" lon="1.87902">
        <ele>297.8</ele>
        <time>2021-03-21T16:19:03Z</time>
      </trkpt>
      <trkpt lat="43.92202" lon="1.87902">
        <ele>298</ele>
        <time>2021-03-21T16:19:04Z</time>
      </trkpt>
      <trkpt lat="43.92203" lon="1.87901">
        <ele>298.4</ele>
        <time>2021-03-21T16:19:05Z</time>
      </trkpt>
      <trkpt lat="43.92203" lon="1.879">
        <ele>298.8</ele>
        <time>2021-03-21T16:19:06Z</time>
      </trkpt>
      <trkpt lat="43.92204" lon="1.87899">
        <ele>298.8</ele>
        <time>2021-03-21T16:19:07Z</time>
      </trkpt>
      <trkpt lat="43.92205" lon="1.87898">
        <ele>299</ele>
        <time>2021-03-21T16:19:08Z</time>
      </trkpt>
      <trkpt lat="43.92206" lon="1.87897">
        <ele>299.2</ele>
        <time>2021-03-21T16:19:09Z</time>
      </trkpt>
      <trkpt lat="43.92206" lon="1.87896">
        <ele>299.2</ele>
        <time>2021-03-21T16:19:10Z</time>
      </trkpt>
      <trkpt lat="43.92207" lon="1.87895">
        <ele>299.4</ele>
        <time>2021-03-21T16:19:11Z</time>
      </trkpt>
      <trkpt lat="43.92207" lon="1.87894">
        <ele>299.4</ele>
        <time>2021-03-21T16:19:12Z</time>
      </trkpt>
      <trkpt lat="43.92208" lon="1.87894">
        <ele>299.4</ele>
        <time>2021-03-21T16:19:13Z</time>
      </trkpt>
      <trkpt lat="43.92209" lon="1.87893">
        <ele>299.6</ele>
        <time>2021-03-21T16:19:14Z</time>
      </trkpt>
      <trkpt lat="43.92209" lon="1.87892">
        <ele>299.6</ele>
        <time>2021-03-21T16:19:15Z</time>
      </trkpt>
      <trkpt lat="43.9221" lon="1.87891">
        <ele>299.6</ele>
        <time>2021-03-21T16:19:16Z</time>
      </trkpt>
      <trkpt lat="43.9221" lon="1.8789">
        <ele>299.6</ele>
        <time>2021-03-21T16:19:17Z</time>
      </trkpt>
      <trkpt lat="43.9221" lon="1.87889">
        <ele>299.6</ele>
        <time>2021-03-21T16:19:18Z</time>
      </trkpt>
      <trkpt lat="43.92211" lon="1.87888">
        <ele>299.8</ele>
        <time>2021-03-21T16:19:19Z</time>
      </trkpt>
      <trkpt lat="43.92212" lon="1.87887">
        <ele>299.8</ele>
        <time>2021-03-21T16:19:20Z</time>
      </trkpt>
      <trkpt lat="43.92213" lon="1.87886">
        <ele>300</ele>
        <time>2021-03-21T16:19:21Z</time>
      </trkpt>
      <trkpt lat="43.92213" lon="1.87885">
        <ele>300</ele>
        <time>2021-03-21T16:19:22Z</time>
      </trkpt>
      <trkpt lat="43.92214" lon="1.87883">
        <ele>300.2</ele>
        <time>2021-03-21T16:19:23Z</time>
      </trkpt>
      <trkpt lat="43.92214" lon="1.87882">
        <ele>300.4</ele>
        <time>2021-03-21T16:19:24Z</time>
      </trkpt>
      <trkpt lat="43.92215" lon="1.87881">
        <ele>300.8</ele>
        <time>2021-03-21T16:19:25Z</time>
      </trkpt>
      <trkpt lat="43.92215" lon="1.8788">
        <ele>300.8</ele>
        <time>2021-03-21T16:19:26Z</time>
      </trkpt>
      <trkpt lat="43.92216" lon="1.87878">
        <ele>301</ele>
        <time>2021-03-21T16:19:27Z</time>
      </trkpt>
      <trkpt lat="43.92216" lon="1.87877">
        <ele>301</ele>
        <time>2021-03-21T16:19:28Z</time>
      </trkpt>
      <trkpt lat="43.92217" lon="1.87875">
        <ele>301</ele>
        <time>2021-03-21T16:19:29Z</time>
      </trkpt>
      <trkpt lat="43.92217" lon="1.87874">
        <ele>301.4</ele>
        <time>2021-03-21T16:19:30Z</time>
      </trkpt>
      <trkpt lat="43.92217" lon="1.87873">
        <ele>301.6</ele>
        <time>2021-03-21T16:19:31Z</time>
      </trkpt>
      <trkpt lat="43.92218" lon="1.87872">
        <ele>301.6</ele>
        <time>2021-03-21T16:19:32Z</time>
      </trkpt>
      <trkpt lat="43.92218" lon="1.8787">
        <ele>301.8</ele>
        <time>2021-03-21T16:19:33Z</time>
      </trkpt>
      <trkpt lat="43.92219" lon="1.87869">
        <ele>301.8</ele>
        <time>2021-03-21T16:19:34Z</time>
      </trkpt>
      <trkpt lat="43.92219" lon="1.87868">
        <ele>302</ele>
        <time>2021-03-21T16:19:35Z</time>
      </trkpt>
      <trkpt lat="43.9222" lon="1.87867">
        <ele>302</ele>
        <time>2021-03-21T16:19:36Z</time>
      </trkpt>
      <trkpt lat="43.9222" lon="1.87865">
        <ele>302.2</ele>
        <time>2021-03-21T16:19:37Z</time>
      </trkpt>
      <trkpt lat="43.92221" lon="1.87864">
        <ele>302.2</ele>
        <time>2021-03-21T16:19:38Z</time>
      </trkpt>
      <trkpt lat="43.92222" lon="1.87863">
        <ele>302.4</ele>
        <time>2021-03-21T16:19:39Z</time>
      </trkpt>
      <trkpt lat="43.92223" lon="1.87862">
        <ele>302.6</ele>
        <time>2021-03-21T16:19:40Z</time>
      </trkpt>
      <trkpt lat="43.92224" lon="1.87861">
        <ele>302.8</ele>
        <time>2021-03-21T16:19:41Z</time>
      </trkpt>
      <trkpt lat="43.92225" lon="1.8786">
        <ele>303.2</ele>
        <time>2021-03-21T16:19:42Z</time>
      </trkpt>
      <trkpt lat="43.92226" lon="1.87859">
        <ele>303.2</ele>
        <time>2021-03-21T16:19:43Z</time>
      </trkpt>
      <trkpt lat="43.92227" lon="1.87859">
        <ele>303.4</ele>
        <time>2021-03-21T16:19:44Z</time>
      </trkpt>
      <trkpt lat="43.92229" lon="1.87858">
        <ele>303.6</ele>
        <time>2021-03-21T16:19:45Z</time>
      </trkpt>
      <trkpt lat="43.9223" lon="1.87858">
        <ele>303.6</ele>
        <time>2021-03-21T16:19:46Z</time>
      </trkpt>
      <trkpt lat="43.92232" lon="1.87858">
        <ele>303.8</ele>
        <time>2021-03-21T16:19:47Z</time>
      </trkpt>
      <trkpt lat="43.92233" lon="1.87859">
        <ele>303.8</ele>
        <time>2021-03-21T16:19:48Z</time>
      </trkpt>
      <trkpt lat="43.92235" lon="1.8786">
        <ele>303.8</ele>
        <time>2021-03-21T16:19:49Z</time>
      </trkpt>
      <trkpt lat="43.92236" lon="1.8786">
        <ele>304</ele>
        <time>2021-03-21T16:19:50Z</time>
      </trkpt>
      <trkpt lat="43.92237" lon="1.87861">
        <ele>304</ele>
        <time>2021-03-21T16:19:51Z</time>
      </trkpt>
      <trkpt lat="43.92238" lon="1.87861">
        <ele>304</ele>
        <time>2021-03-21T16:19:52Z</time>
      </trkpt>
      <trkpt lat="43.92239" lon="1.87863">
        <ele>304.2</ele>
        <time>2021-03-21T16:19:53Z</time>
      </trkpt>
      <trkpt lat="43.9224" lon="1.87864">
        <ele>304.4</ele>
        <time>2021-03-21T16:19:54Z</time>
      </trkpt>
      <trkpt lat="43.92241" lon="1.87865">
        <ele>304.6</ele>
        <time>2021-03-21T16:19:55Z</time>
      </trkpt>
      <trkpt lat="43.92242" lon="1.87866">
        <ele>304.6</ele>
        <time>2021-03-21T16:19:56Z</time>
      </trkpt>
      <trkpt lat="43.92243" lon="1.87867">
        <ele>304.6</ele>
        <time>2021-03-21T16:19:57Z</time>
      </trkpt>
      <trkpt lat="43.92244" lon="1.87868">
        <ele>304.6</ele>
        <time>2021-03-21T16:19:58Z</time>
      </trkpt>
      <trkpt lat="43.92244" lon="1.87869">
        <ele>304.8</ele>
        <time>2021-03-21T16:19:59Z</time>
      </trkpt>
      <trkpt lat="43.92245" lon="1.8787">
        <ele>305</ele>
        <time>2021-03-21T16:20:00Z</time>
      </trkpt>
      <trkpt lat="43.92246" lon="1.87871">
        <ele>305</ele>
        <time>2021-03-21T16:20:01Z</time>
      </trkpt>
      <trkpt lat="43.92247" lon="1.87872">
        <ele>305.2</ele>
        <time>2021-03-21T16:20:02Z</time>
      </trkpt>
      <trkpt lat="43.92248" lon="1.87873">
        <ele>305.2</ele>
        <time>2021-03-21T16:20:03Z</time>
      </trkpt>
      <trkpt lat="43.92249" lon="1.87874">
        <ele>305.4</ele>
        <time>2021-03-21T16:20:04Z</time>
      </trkpt>
      <trkpt lat="43.9225" lon="1.87875">
        <ele>305.6</ele>
        <time>2021-03-21T16:20:05Z</time>
      </trkpt>
      <trkpt lat="43.92251" lon="1.87876">
        <ele>305.8</ele>
        <time>2021-03-21T16:20:06Z</time>
      </trkpt>
      <trkpt lat="43.92252" lon="1.87877">
        <ele>306</ele>
        <time>2021-03-21T16:20:07Z</time>
      </trkpt>
      <trkpt lat="43.92253" lon="1.87878">
        <ele>306.2</ele>
        <time>2021-03-21T16:20:08Z</time>
      </trkpt>
      <trkpt lat="43.92254" lon="1.87879">
        <ele>306.4</ele>
        <time>2021-03-21T16:20:09Z</time>
      </trkpt>
      <trkpt lat="43.92256" lon="1.87879">
        <ele>306.4</ele>
        <time>2021-03-21T16:20:10Z</time>
      </trkpt>
      <trkpt lat="43.92257" lon="1.87881">
        <ele>306.4</ele>
        <time>2021-03-21T16:20:11Z</time>
      </trkpt>
      <trkpt lat="43.92258" lon="1.87882">
        <ele>306.8</ele>
        <time>2021-03-21T16:20:12Z</time>
      </trkpt>
      <trkpt lat="43.92259" lon="1.87883">
        <ele>306.8</ele>
        <time>2021-03-21T16:20:13Z</time>
      </trkpt>
      <trkpt lat="43.9226" lon="1.87884">
        <ele>307</ele>
        <time>2021-03-21T16:20:14Z</time>
      </trkpt>
      <trkpt lat="43.92261" lon="1.87885">
        <ele>307.2</ele>
        <time>2021-03-21T16:20:15Z</time>
      </trkpt>
      <trkpt lat="43.92262" lon="1.87887">
        <ele>307.4</ele>
        <time>2021-03-21T16:20:16Z</time>
      </trkpt>
      <trkpt lat="43.92264" lon="1.87888">
        <ele>307.6</ele>
        <time>2021-03-21T16:20:17Z</time>
      </trkpt>
      <trkpt lat="43.92265" lon="1.87889">
        <ele>307.6</ele>
        <time>2021-03-21T16:20:18Z</time>
      </trkpt>
      <trkpt lat="43.92266" lon="1.8789">
        <ele>307.8</ele>
        <time>2021-03-21T16:20:19Z</time>
      </trkpt>
      <trkpt lat="43.92268" lon="1.87891">
        <ele>307.8</ele>
        <time>2021-03-21T16:20:20Z</time>
      </trkpt>
      <trkpt lat="43.92269" lon="1.87892">
        <ele>308</ele>
        <time>2021-03-21T16:20:21Z</time>
      </trkpt>
      <trkpt lat="43.92271" lon="1.87894">
        <ele>307.8</ele>
        <time>2021-03-21T16:20:22Z</time>
      </trkpt>
      <trkpt lat="43.92272" lon="1.87895">
        <ele>308</ele>
        <time>2021-03-21T16:20:23Z</time>
      </trkpt>
      <trkpt lat="43.92274" lon="1.87896">
        <ele>308</ele>
        <time>2021-03-21T16:20:24Z</time>
      </trkpt>
      <trkpt lat="43.92275" lon="1.87897">
        <ele>308</ele>
        <time>2021-03-21T16:20:25Z</time>
      </trkpt>
      <trkpt lat="43.92277" lon="1.87899">
        <ele>308</ele>
        <time>2021-03-21T16:20:26Z</time>
      </trkpt>
      <trkpt lat="43.92278" lon="1.879">
        <ele>308</ele>
        <time>2021-03-21T16:20:27Z</time>
      </trkpt>
      <trkpt lat="43.9228" lon="1.87901">
        <ele>308</ele>
        <time>2021-03-21T16:20:28Z</time>
      </trkpt>
      <trkpt lat="43.92281" lon="1.87902">
        <ele>308.2</ele>
        <time>2021-03-21T16:20:29Z</time>
      </trkpt>
      <trkpt lat="43.92283" lon="1.87903">
        <ele>308.2</ele>
        <time>2021-03-21T16:20:30Z</time>
      </trkpt>
      <trkpt lat="43.92284" lon="1.87905">
        <ele>308.4</ele>
        <time>2021-03-21T16:20:31Z</time>
      </trkpt>
      <trkpt lat="43.92286" lon="1.87906">
        <ele>308.4</ele>
        <time>2021-03-21T16:20:32Z</time>
      </trkpt>
      <trkpt lat="43.92287" lon="1.87907">
        <ele>308.4</ele>
        <time>2021-03-21T16:20:33Z</time>
      </trkpt>
      <trkpt lat="43.92289" lon="1.87909">
        <ele>308.4</ele>
        <time>2021-03-21T16:20:34Z</time>
      </trkpt>
      <trkpt lat="43.9229" lon="1.8791">
        <ele>308.6</ele>
        <time>2021-03-21T16:20:35Z</time>
      </trkpt>
      <trkpt lat="43.92292" lon="1.87912">
        <ele>308.6</ele>
        <time>2021-03-21T16:20:36Z</time>
      </trkpt>
      <trkpt lat="43.92294" lon="1.87915">
        <ele>308.8</ele>
        <time>2021-03-21T16:20:38Z</time>
      </trkpt>
      <trkpt lat="43.92296" lon="1.87916">
        <ele>309</ele>
        <time>2021-03-21T16:20:39Z</time>
      </trkpt>
      <trkpt lat="43.92298" lon="1.87917">
        <ele>309</ele>
        <time>2021-03-21T16:20:40Z</time>
      </trkpt>
      <trkpt lat="43.92299" lon="1.87919">
        <ele>309.2</ele>
        <time>2021-03-21T16:20:41Z</time>
      </trkpt>
      <trkpt lat="43.92301" lon="1.8792">
        <ele>309.2</ele>
        <time>2021-03-21T16:20:42Z</time>
      </trkpt>
      <trkpt lat="43.92303" lon="1.87921">
        <ele>309.2</ele>
        <time>2021-03-21T16:20:43Z</time>
      </trkpt>
      <trkpt lat="43.92305" lon="1.87922">
        <ele>309.2</ele>
        <time>2021-03-21T16:20:44Z</time>
      </trkpt>
      <trkpt lat="43.92306" lon="1.87924">
        <ele>309.4</ele>
        <time>2021-03-21T16:20:45Z</time>
      </trkpt>
      <trkpt lat="43.92308" lon="1.87925">
        <ele>309.4</ele>
        <time>2021-03-21T16:20:46Z</time>
      </trkpt>
      <trkpt lat="43.92312" lon="1.87927">
        <ele>309.6</ele>
        <time>2021-03-21T16:20:48Z</time>
      </trkpt>
      <trkpt lat="43.92314" lon="1.87928">
        <ele>309.8</ele>
        <time>2021-03-21T16:20:49Z</time>
      </trkpt>
      <trkpt lat="43.92315" lon="1.87929">
        <ele>310</ele>
        <time>2021-03-21T16:20:50Z</time>
      </trkpt>
      <trkpt lat="43.92317" lon="1.8793">
        <ele>309.8</ele>
        <time>2021-03-21T16:20:51Z</time>
      </trkpt>
      <trkpt lat="43.92321" lon="1.87932">
        <ele>310</ele>
        <time>2021-03-21T16:20:53Z</time>
      </trkpt>
      <trkpt lat="43.92323" lon="1.87933">
        <ele>310.2</ele>
        <time>2021-03-21T16:20:54Z</time>
      </trkpt>
      <trkpt lat="43.92325" lon="1.87933">
        <ele>310.4</ele>
        <time>2021-03-21T16:20:55Z</time>
      </trkpt>
      <trkpt lat="43.92327" lon="1.87934">
        <ele>310.4</ele>
        <time>2021-03-21T16:20:56Z</time>
      </trkpt>
      <trkpt lat="43.92329" lon="1.87934">
        <ele>310.4</ele>
        <time>2021-03-21T16:20:57Z</time>
      </trkpt>
      <trkpt lat="43.92331" lon="1.87933">
        <ele>310.6</ele>
        <time>2021-03-21T16:20:58Z</time>
      </trkpt>
      <trkpt lat="43.92333" lon="1.87933">
        <ele>310.6</ele>
        <time>2021-03-21T16:20:59Z</time>
      </trkpt>
      <trkpt lat="43.92334" lon="1.87933">
        <ele>310.8</ele>
        <time>2021-03-21T16:21:00Z</time>
      </trkpt>
      <trkpt lat="43.92336" lon="1.87932">
        <ele>310.8</ele>
        <time>2021-03-21T16:21:01Z</time>
      </trkpt>
      <trkpt lat="43.92338" lon="1.87931">
        <ele>311</ele>
        <time>2021-03-21T16:21:02Z</time>
      </trkpt>
      <trkpt lat="43.92339" lon="1.8793">
        <ele>311</ele>
        <time>2021-03-21T16:21:03Z</time>
      </trkpt>
      <trkpt lat="43.92341" lon="1.87929">
        <ele>311</ele>
        <time>2021-03-21T16:21:04Z</time>
      </trkpt>
      <trkpt lat="43.92342" lon="1.87927">
        <ele>310.8</ele>
        <time>2021-03-21T16:21:05Z</time>
      </trkpt>
      <trkpt lat="43.92344" lon="1.87926">
        <ele>311.2</ele>
        <time>2021-03-21T16:21:06Z</time>
      </trkpt>
      <trkpt lat="43.92345" lon="1.87925">
        <ele>311.2</ele>
        <time>2021-03-21T16:21:07Z</time>
      </trkpt>
      <trkpt lat="43.92346" lon="1.87923">
        <ele>311</ele>
        <time>2021-03-21T16:21:08Z</time>
      </trkpt>
      <trkpt lat="43.92347" lon="1.87922">
        <ele>311.4</ele>
        <time>2021-03-21T16:21:09Z</time>
      </trkpt>
      <trkpt lat="43.92349" lon="1.8792">
        <ele>311.4</ele>
        <time>2021-03-21T16:21:10Z</time>
      </trkpt>
      <trkpt lat="43.9235" lon="1.87919">
        <ele>311.4</ele>
        <time>2021-03-21T16:21:11Z</time>
      </trkpt>
      <trkpt lat="43.92351" lon="1.87917">
        <ele>311.6</ele>
        <time>2021-03-21T16:21:12Z</time>
      </trkpt>
      <trkpt lat="43.92352" lon="1.87916">
        <ele>312</ele>
        <time>2021-03-21T16:21:13Z</time>
      </trkpt>
      <trkpt lat="43.92354" lon="1.87915">
        <ele>312</ele>
        <time>2021-03-21T16:21:14Z</time>
      </trkpt>
      <trkpt lat="43.92355" lon="1.87913">
        <ele>312.4</ele>
        <time>2021-03-21T16:21:15Z</time>
      </trkpt>
      <trkpt lat="43.92356" lon="1.87912">
        <ele>312.4</ele>
        <time>2021-03-21T16:21:16Z</time>
      </trkpt>
      <trkpt lat="43.92358" lon="1.87912">
        <ele>312.6</ele>
        <time>2021-03-21T16:21:17Z</time>
      </trkpt>
      <trkpt lat="43.92359" lon="1.87911">
        <ele>312.6</ele>
        <time>2021-03-21T16:21:18Z</time>
      </trkpt>
      <trkpt lat="43.92361" lon="1.8791">
        <ele>312.6</ele>
        <time>2021-03-21T16:21:19Z</time>
      </trkpt>
      <trkpt lat="43.92362" lon="1.87909">
        <ele>312.8</ele>
        <time>2021-03-21T16:21:20Z</time>
      </trkpt>
      <trkpt lat="43.92363" lon="1.87907">
        <ele>312.8</ele>
        <time>2021-03-21T16:21:21Z</time>
      </trkpt>
      <trkpt lat="43.92365" lon="1.87907">
        <ele>313</ele>
        <time>2021-03-21T16:21:22Z</time>
      </trkpt>
      <trkpt lat="43.92366" lon="1.87906">
        <ele>313</ele>
        <time>2021-03-21T16:21:23Z</time>
      </trkpt>
      <trkpt lat="43.92367" lon="1.87906">
        <ele>313.4</ele>
        <time>2021-03-21T16:21:24Z</time>
      </trkpt>
      <trkpt lat="43.92369" lon="1.87905">
        <ele>313.4</ele>
        <time>2021-03-21T16:21:25Z</time>
      </trkpt>
      <trkpt lat="43.9237" lon="1.87904">
        <ele>313.8</ele>
        <time>2021-03-21T16:21:26Z</time>
      </trkpt>
      <trkpt lat="43.92371" lon="1.87903">
        <ele>314</ele>
        <time>2021-03-21T16:21:27Z</time>
      </trkpt>
      <trkpt lat="43.92373" lon="1.87903">
        <ele>314.2</ele>
        <time>2021-03-21T16:21:28Z</time>
      </trkpt>
      <trkpt lat="43.92374" lon="1.87902">
        <ele>314.2</ele>
        <time>2021-03-21T16:21:29Z</time>
      </trkpt>
      <trkpt lat="43.92375" lon="1.87901">
        <ele>314.2</ele>
        <time>2021-03-21T16:21:30Z</time>
      </trkpt>
      <trkpt lat="43.92377" lon="1.87901">
        <ele>314.4</ele>
        <time>2021-03-21T16:21:31Z</time>
      </trkpt>
      <trkpt lat="43.92378" lon="1.879">
        <ele>314.4</ele>
        <time>2021-03-21T16:21:32Z</time>
      </trkpt>
      <trkpt lat="43.9238" lon="1.87899">
        <ele>314.6</ele>
        <time>2021-03-21T16:21:33Z</time>
      </trkpt>
      <trkpt lat="43.92381" lon="1.87899">
        <ele>314.8</ele>
        <time>2021-03-21T16:21:34Z</time>
      </trkpt>
      <trkpt lat="43.92382" lon="1.87898">
        <ele>315</ele>
        <time>2021-03-21T16:21:35Z</time>
      </trkpt>
      <trkpt lat="43.92383" lon="1.87898">
        <ele>315.2</ele>
        <time>2021-03-21T16:21:36Z</time>
      </trkpt>
      <trkpt lat="43.92385" lon="1.87897">
        <ele>315.4</ele>
        <time>2021-03-21T16:21:37Z</time>
      </trkpt>
      <trkpt lat="43.92386" lon="1.87897">
        <ele>315.4</ele>
        <time>2021-03-21T16:21:38Z</time>
      </trkpt>
      <trkpt lat="43.92387" lon="1.87896">
        <ele>315.6</ele>
        <time>2021-03-21T16:21:39Z</time>
      </trkpt>
      <trkpt lat="43.92388" lon="1.87896">
        <ele>315.8</ele>
        <time>2021-03-21T16:21:40Z</time>
      </trkpt>
      <trkpt lat="43.9239" lon="1.87895">
        <ele>316</ele>
        <time>2021-03-21T16:21:41Z</time>
      </trkpt>
      <trkpt lat="43.92391" lon="1.87895">
        <ele>316</ele>
        <time>2021-03-21T16:21:42Z</time>
      </trkpt>
      <trkpt lat="43.92392" lon="1.87895">
        <ele>316</ele>
        <time>2021-03-21T16:21:43Z</time>
      </trkpt>
      <trkpt lat="43.92393" lon="1.87894">
        <ele>316.2</ele>
        <time>2021-03-21T16:21:44Z</time>
      </trkpt>
      <trkpt lat="43.92394" lon="1.87894">
        <ele>316.2</ele>
        <time>2021-03-21T16:21:45Z</time>
      </trkpt>
      <trkpt lat="43.92396" lon="1.87893">
        <ele>316.4</ele>
        <time>2021-03-21T16:21:46Z</time>
      </trkpt>
      <trkpt lat="43.92397" lon="1.87893">
        <ele>316.6</ele>
        <time>2021-03-21T16:21:47Z</time>
      </trkpt>
      <trkpt lat="43.92398" lon="1.87893">
        <ele>316.6</ele>
        <time>2021-03-21T16:21:48Z</time>
      </trkpt>
      <trkpt lat="43.924" lon="1.87892">
        <ele>316.8</ele>
        <time>2021-03-21T16:21:49Z</time>
      </trkpt>
      <trkpt lat="43.92401" lon="1.87892">
        <ele>317.2</ele>
        <time>2021-03-21T16:21:50Z</time>
      </trkpt>
      <trkpt lat="43.92402" lon="1.87892">
        <ele>317.4</ele>
        <time>2021-03-21T16:21:51Z</time>
      </trkpt>
      <trkpt lat="43.92404" lon="1.87891">
        <ele>317.4</ele>
        <time>2021-03-21T16:21:52Z</time>
      </trkpt>
      <trkpt lat="43.92405" lon="1.87891">
        <ele>317.8</ele>
        <time>2021-03-21T16:21:53Z</time>
      </trkpt>
      <trkpt lat="43.92406" lon="1.87891">
        <ele>317.8</ele>
        <time>2021-03-21T16:21:54Z</time>
      </trkpt>
      <trkpt lat="43.92407" lon="1.8789">
        <ele>318</ele>
        <time>2021-03-21T16:21:55Z</time>
      </trkpt>
      <trkpt lat="43.92409" lon="1.8789">
        <ele>318.2</ele>
        <time>2021-03-21T16:21:56Z</time>
      </trkpt>
      <trkpt lat="43.9241" lon="1.8789">
        <ele>318.2</ele>
        <time>2021-03-21T16:21:57Z</time>
      </trkpt>
      <trkpt lat="43.92411" lon="1.8789">
        <ele>318.4</ele>
        <time>2021-03-21T16:21:58Z</time>
      </trkpt>
      <trkpt lat="43.92412" lon="1.87889">
        <ele>318.4</ele>
        <time>2021-03-21T16:21:59Z</time>
      </trkpt>
      <trkpt lat="43.92414" lon="1.87889">
        <ele>318.6</ele>
        <time>2021-03-21T16:22:00Z</time>
      </trkpt>
      <trkpt lat="43.92415" lon="1.87889">
        <ele>318.8</ele>
        <time>2021-03-21T16:22:01Z</time>
      </trkpt>
      <trkpt lat="43.92416" lon="1.87889">
        <ele>318.8</ele>
        <time>2021-03-21T16:22:02Z</time>
      </trkpt>
      <trkpt lat="43.92417" lon="1.87889">
        <ele>319</ele>
        <time>2021-03-21T16:22:03Z</time>
      </trkpt>
      <trkpt lat="43.92419" lon="1.87888">
        <ele>319</ele>
        <time>2021-03-21T16:22:04Z</time>
      </trkpt>
      <trkpt lat="43.9242" lon="1.87888">
        <ele>319</ele>
        <time>2021-03-21T16:22:05Z</time>
      </trkpt>
      <trkpt lat="43.92421" lon="1.87888">
        <ele>319.2</ele>
        <time>2021-03-21T16:22:06Z</time>
      </trkpt>
      <trkpt lat="43.92423" lon="1.87888">
        <ele>319.4</ele>
        <time>2021-03-21T16:22:07Z</time>
      </trkpt>
      <trkpt lat="43.92424" lon="1.87888">
        <ele>319.4</ele>
        <time>2021-03-21T16:22:08Z</time>
      </trkpt>
      <trkpt lat="43.92425" lon="1.87888">
        <ele>319.6</ele>
        <time>2021-03-21T16:22:09Z</time>
      </trkpt>
      <trkpt lat="43.92427" lon="1.87888">
        <ele>320</ele>
        <time>2021-03-21T16:22:10Z</time>
      </trkpt>
      <trkpt lat="43.92428" lon="1.87887">
        <ele>320.2</ele>
        <time>2021-03-21T16:22:11Z</time>
      </trkpt>
      <trkpt lat="43.92429" lon="1.87887">
        <ele>320.4</ele>
        <time>2021-03-21T16:22:12Z</time>
      </trkpt>
      <trkpt lat="43.9243" lon="1.87887">
        <ele>320.4</ele>
        <time>2021-03-21T16:22:13Z</time>
      </trkpt>
      <trkpt lat="43.92432" lon="1.87886">
        <ele>320.4</ele>
        <time>2021-03-21T16:22:14Z</time>
      </trkpt>
      <trkpt lat="43.92433" lon="1.87886">
        <ele>320.6</ele>
        <time>2021-03-21T16:22:15Z</time>
      </trkpt>
      <trkpt lat="43.92434" lon="1.87886">
        <ele>320.6</ele>
        <time>2021-03-21T16:22:16Z</time>
      </trkpt>
      <trkpt lat="43.92436" lon="1.87886">
        <ele>320.6</ele>
        <time>2021-03-21T16:22:17Z</time>
      </trkpt>
      <trkpt lat="43.92437" lon="1.87886">
        <ele>321</ele>
        <time>2021-03-21T16:22:18Z</time>
      </trkpt>
      <trkpt lat="43.92438" lon="1.87886">
        <ele>321.2</ele>
        <time>2021-03-21T16:22:19Z</time>
      </trkpt>
      <trkpt lat="43.9244" lon="1.87886">
        <ele>321.2</ele>
        <time>2021-03-21T16:22:20Z</time>
      </trkpt>
      <trkpt lat="43.92441" lon="1.87886">
        <ele>321.4</ele>
        <time>2021-03-21T16:22:21Z</time>
      </trkpt>
      <trkpt lat="43.92442" lon="1.87886">
        <ele>321.4</ele>
        <time>2021-03-21T16:22:22Z</time>
      </trkpt>
      <trkpt lat="43.92444" lon="1.87886">
        <ele>321.6</ele>
        <time>2021-03-21T16:22:23Z</time>
      </trkpt>
      <trkpt lat="43.92445" lon="1.87886">
        <ele>321.4</ele>
        <time>2021-03-21T16:22:24Z</time>
      </trkpt>
      <trkpt lat="43.92446" lon="1.87886">
        <ele>321.8</ele>
        <time>2021-03-21T16:22:25Z</time>
      </trkpt>
      <trkpt lat="43.92448" lon="1.87886">
        <ele>321.8</ele>
        <time>2021-03-21T16:22:26Z</time>
      </trkpt>
      <trkpt lat="43.92449" lon="1.87886">
        <ele>322</ele>
        <time>2021-03-21T16:22:27Z</time>
      </trkpt>
      <trkpt lat="43.9245" lon="1.87886">
        <ele>322.2</ele>
        <time>2021-03-21T16:22:28Z</time>
      </trkpt>
      <trkpt lat="43.92452" lon="1.87886">
        <ele>322.4</ele>
        <time>2021-03-21T16:22:29Z</time>
      </trkpt>
      <trkpt lat="43.92453" lon="1.87886">
        <ele>322.8</ele>
        <time>2021-03-21T16:22:30Z</time>
      </trkpt>
      <trkpt lat="43.92454" lon="1.87886">
        <ele>322.8</ele>
        <time>2021-03-21T16:22:31Z</time>
      </trkpt>
      <trkpt lat="43.92455" lon="1.87886">
        <ele>322.8</ele>
        <time>2021-03-21T16:22:32Z</time>
      </trkpt>
      <trkpt lat="43.92457" lon="1.87886">
        <ele>323</ele>
        <time>2021-03-21T16:22:33Z</time>
      </trkpt>
      <trkpt lat="43.92458" lon="1.87886">
        <ele>323.4</ele>
        <time>2021-03-21T16:22:34Z</time>
      </trkpt>
      <trkpt lat="43.92459" lon="1.87886">
        <ele>323.4</ele>
        <time>2021-03-21T16:22:35Z</time>
      </trkpt>
      <trkpt lat="43.9246" lon="1.87885">
        <ele>323.6</ele>
        <time>2021-03-21T16:22:36Z</time>
      </trkpt>
      <trkpt lat="43.92461" lon="1.87885">
        <ele>323.6</ele>
        <time>2021-03-21T16:22:37Z</time>
      </trkpt>
      <trkpt lat="43.92463" lon="1.87885">
        <ele>324</ele>
        <time>2021-03-21T16:22:38Z</time>
      </trkpt>
      <trkpt lat="43.92464" lon="1.87885">
        <ele>324</ele>
        <time>2021-03-21T16:22:39Z</time>
      </trkpt>
      <trkpt lat="43.92465" lon="1.87885">
        <ele>324.2</ele>
        <time>2021-03-21T16:22:40Z</time>
      </trkpt>
      <trkpt lat="43.92466" lon="1.87885">
        <ele>324.2</ele>
        <time>2021-03-21T16:22:41Z</time>
      </trkpt>
      <trkpt lat="43.92467" lon="1.87885">
        <ele>324.6</ele>
        <time>2021-03-21T16:22:42Z</time>
      </trkpt>
      <trkpt lat="43.92468" lon="1.87885">
        <ele>324.8</ele>
        <time>2021-03-21T16:22:43Z</time>
      </trkpt>
      <trkpt lat="43.9247" lon="1.87885">
        <ele>324.8</ele>
        <time>2021-03-21T16:22:44Z</time>
      </trkpt>
      <trkpt lat="43.92471" lon="1.87885">
        <ele>324.8</ele>
        <time>2021-03-21T16:22:45Z</time>
      </trkpt>
      <trkpt lat="43.92472" lon="1.87884">
        <ele>325.2</ele>
        <time>2021-03-21T16:22:46Z</time>
      </trkpt>
      <trkpt lat="43.92473" lon="1.87884">
        <ele>325</ele>
        <time>2021-03-21T16:22:47Z</time>
      </trkpt>
      <trkpt lat="43.92474" lon="1.87884">
        <ele>325.4</ele>
        <time>2021-03-21T16:22:48Z</time>
      </trkpt>
      <trkpt lat="43.92475" lon="1.87883">
        <ele>325.6</ele>
        <time>2021-03-21T16:22:49Z</time>
      </trkpt>
      <trkpt lat="43.92477" lon="1.87883">
        <ele>325.8</ele>
        <time>2021-03-21T16:22:50Z</time>
      </trkpt>
      <trkpt lat="43.92478" lon="1.87882">
        <ele>325.8</ele>
        <time>2021-03-21T16:22:51Z</time>
      </trkpt>
      <trkpt lat="43.92479" lon="1.87881">
        <ele>325.8</ele>
        <time>2021-03-21T16:22:52Z</time>
      </trkpt>
      <trkpt lat="43.9248" lon="1.87881">
        <ele>326</ele>
        <time>2021-03-21T16:22:53Z</time>
      </trkpt>
      <trkpt lat="43.92481" lon="1.8788">
        <ele>326.2</ele>
        <time>2021-03-21T16:22:54Z</time>
      </trkpt>
      <trkpt lat="43.92482" lon="1.87879">
        <ele>326.4</ele>
        <time>2021-03-21T16:22:55Z</time>
      </trkpt>
      <trkpt lat="43.92483" lon="1.87878">
        <ele>326.4</ele>
        <time>2021-03-21T16:22:56Z</time>
      </trkpt>
      <trkpt lat="43.92484" lon="1.87877">
        <ele>326.6</ele>
        <time>2021-03-21T16:22:57Z</time>
      </trkpt>
      <trkpt lat="43.92485" lon="1.87876">
        <ele>326.8</ele>
        <time>2021-03-21T16:22:58Z</time>
      </trkpt>
      <trkpt lat="43.92485" lon="1.87874">
        <ele>326.6</ele>
        <time>2021-03-21T16:22:59Z</time>
      </trkpt>
      <trkpt lat="43.92486" lon="1.87873">
        <ele>326.8</ele>
        <time>2021-03-21T16:23:00Z</time>
      </trkpt>
      <trkpt lat="43.92487" lon="1.87871">
        <ele>326.8</ele>
        <time>2021-03-21T16:23:01Z</time>
      </trkpt>
      <trkpt lat="43.92487" lon="1.8787">
        <ele>326.6</ele>
        <time>2021-03-21T16:23:02Z</time>
      </trkpt>
      <trkpt lat="43.92488" lon="1.87869">
        <ele>326.8</ele>
        <time>2021-03-21T16:23:03Z</time>
      </trkpt>
      <trkpt lat="43.92489" lon="1.87867">
        <ele>326.6</ele>
        <time>2021-03-21T16:23:04Z</time>
      </trkpt>
      <trkpt lat="43.92489" lon="1.87866">
        <ele>326.8</ele>
        <time>2021-03-21T16:23:05Z</time>
      </trkpt>
      <trkpt lat="43.9249" lon="1.87865">
        <ele>326.8</ele>
        <time>2021-03-21T16:23:06Z</time>
      </trkpt>
      <trkpt lat="43.92491" lon="1.87863">
        <ele>327</ele>
        <time>2021-03-21T16:23:07Z</time>
      </trkpt>
      <trkpt lat="43.92491" lon="1.87862">
        <ele>327.2</ele>
        <time>2021-03-21T16:23:08Z</time>
      </trkpt>
      <trkpt lat="43.92492" lon="1.8786">
        <ele>327.4</ele>
        <time>2021-03-21T16:23:09Z</time>
      </trkpt>
      <trkpt lat="43.92493" lon="1.87859">
        <ele>327.6</ele>
        <time>2021-03-21T16:23:10Z</time>
      </trkpt>
      <trkpt lat="43.92494" lon="1.87857">
        <ele>327.8</ele>
        <time>2021-03-21T16:23:11Z</time>
      </trkpt>
      <trkpt lat="43.92494" lon="1.87856">
        <ele>328.2</ele>
        <time>2021-03-21T16:23:12Z</time>
      </trkpt>
      <trkpt lat="43.92495" lon="1.87854">
        <ele>328.2</ele>
        <time>2021-03-21T16:23:13Z</time>
      </trkpt>
      <trkpt lat="43.92496" lon="1.87852">
        <ele>328.4</ele>
        <time>2021-03-21T16:23:14Z</time>
      </trkpt>
      <trkpt lat="43.92496" lon="1.87851">
        <ele>328.4</ele>
        <time>2021-03-21T16:23:15Z</time>
      </trkpt>
      <trkpt lat="43.92498" lon="1.87848">
        <ele>328.4</ele>
        <time>2021-03-21T16:23:17Z</time>
      </trkpt>
      <trkpt lat="43.92499" lon="1.87847">
        <ele>328.4</ele>
        <time>2021-03-21T16:23:18Z</time>
      </trkpt>
      <trkpt lat="43.925" lon="1.87846">
        <ele>328.6</ele>
        <time>2021-03-21T16:23:19Z</time>
      </trkpt>
      <trkpt lat="43.925" lon="1.87844">
        <ele>328.6</ele>
        <time>2021-03-21T16:23:20Z</time>
      </trkpt>
      <trkpt lat="43.92502" lon="1.87841">
        <ele>328.6</ele>
        <time>2021-03-21T16:23:22Z</time>
      </trkpt>
      <trkpt lat="43.92503" lon="1.8784">
        <ele>328.6</ele>
        <time>2021-03-21T16:23:23Z</time>
      </trkpt>
      <trkpt lat="43.92504" lon="1.87838">
        <ele>328.8</ele>
        <time>2021-03-21T16:23:24Z</time>
      </trkpt>
      <trkpt lat="43.92505" lon="1.87837">
        <ele>328.8</ele>
        <time>2021-03-21T16:23:25Z</time>
      </trkpt>
      <trkpt lat="43.92505" lon="1.87835">
        <ele>328.8</ele>
        <time>2021-03-21T16:23:26Z</time>
      </trkpt>
      <trkpt lat="43.92506" lon="1.87834">
        <ele>328.8</ele>
        <time>2021-03-21T16:23:27Z</time>
      </trkpt>
      <trkpt lat="43.92507" lon="1.87832">
        <ele>329</ele>
        <time>2021-03-21T16:23:28Z</time>
      </trkpt>
      <trkpt lat="43.92508" lon="1.87831">
        <ele>329.2</ele>
        <time>2021-03-21T16:23:29Z</time>
      </trkpt>
      <trkpt lat="43.92508" lon="1.87829">
        <ele>329.4</ele>
        <time>2021-03-21T16:23:30Z</time>
      </trkpt>
      <trkpt lat="43.92509" lon="1.87827">
        <ele>329.6</ele>
        <time>2021-03-21T16:23:31Z</time>
      </trkpt>
      <trkpt lat="43.9251" lon="1.87826">
        <ele>329.6</ele>
        <time>2021-03-21T16:23:32Z</time>
      </trkpt>
      <trkpt lat="43.92511" lon="1.87824">
        <ele>329.6</ele>
        <time>2021-03-21T16:23:33Z</time>
      </trkpt>
      <trkpt lat="43.92512" lon="1.87823">
        <ele>330</ele>
        <time>2021-03-21T16:23:34Z</time>
      </trkpt>
      <trkpt lat="43.92512" lon="1.87821">
        <ele>330</ele>
        <time>2021-03-21T16:23:35Z</time>
      </trkpt>
      <trkpt lat="43.92513" lon="1.8782">
        <ele>330</ele>
        <time>2021-03-21T16:23:36Z</time>
      </trkpt>
      <trkpt lat="43.92514" lon="1.87818">
        <ele>330.2</ele>
        <time>2021-03-21T16:23:37Z</time>
      </trkpt>
      <trkpt lat="43.92515" lon="1.87817">
        <ele>330.6</ele>
        <time>2021-03-21T16:23:38Z</time>
      </trkpt>
      <trkpt lat="43.92516" lon="1.87816">
        <ele>330.6</ele>
        <time>2021-03-21T16:23:39Z</time>
      </trkpt>
      <trkpt lat="43.92516" lon="1.87814">
        <ele>330.8</ele>
        <time>2021-03-21T16:23:40Z</time>
      </trkpt>
      <trkpt lat="43.92517" lon="1.87813">
        <ele>330.8</ele>
        <time>2021-03-21T16:23:41Z</time>
      </trkpt>
      <trkpt lat="43.92518" lon="1.87811">
        <ele>331.2</ele>
        <time>2021-03-21T16:23:42Z</time>
      </trkpt>
      <trkpt lat="43.92518" lon="1.8781">
        <ele>331.2</ele>
        <time>2021-03-21T16:23:43Z</time>
      </trkpt>
      <trkpt lat="43.92519" lon="1.87808">
        <ele>331.4</ele>
        <time>2021-03-21T16:23:44Z</time>
      </trkpt>
      <trkpt lat="43.92519" lon="1.87807">
        <ele>331.4</ele>
        <time>2021-03-21T16:23:45Z</time>
      </trkpt>
      <trkpt lat="43.9252" lon="1.87805">
        <ele>331.4</ele>
        <time>2021-03-21T16:23:46Z</time>
      </trkpt>
      <trkpt lat="43.92521" lon="1.87804">
        <ele>331.4</ele>
        <time>2021-03-21T16:23:47Z</time>
      </trkpt>
      <trkpt lat="43.92521" lon="1.87803">
        <ele>331.4</ele>
        <time>2021-03-21T16:23:48Z</time>
      </trkpt>
      <trkpt lat="43.92522" lon="1.87801">
        <ele>331.8</ele>
        <time>2021-03-21T16:23:49Z</time>
      </trkpt>
      <trkpt lat="43.92523" lon="1.878">
        <ele>331.8</ele>
        <time>2021-03-21T16:23:50Z</time>
      </trkpt>
      <trkpt lat="43.92523" lon="1.87798">
        <ele>332.2</ele>
        <time>2021-03-21T16:23:51Z</time>
      </trkpt>
      <trkpt lat="43.92524" lon="1.87797">
        <ele>332.2</ele>
        <time>2021-03-21T16:23:52Z</time>
      </trkpt>
      <trkpt lat="43.92525" lon="1.87795">
        <ele>332.4</ele>
        <time>2021-03-21T16:23:53Z</time>
      </trkpt>
      <trkpt lat="43.92525" lon="1.87794">
        <ele>332.6</ele>
        <time>2021-03-21T16:23:54Z</time>
      </trkpt>
      <trkpt lat="43.92526" lon="1.87792">
        <ele>332.8</ele>
        <time>2021-03-21T16:23:55Z</time>
      </trkpt>
      <trkpt lat="43.92526" lon="1.87791">
        <ele>333</ele>
        <time>2021-03-21T16:23:56Z</time>
      </trkpt>
      <trkpt lat="43.92527" lon="1.87789">
        <ele>333.2</ele>
        <time>2021-03-21T16:23:57Z</time>
      </trkpt>
      <trkpt lat="43.92528" lon="1.87788">
        <ele>333.2</ele>
        <time>2021-03-21T16:23:58Z</time>
      </trkpt>
      <trkpt lat="43.92529" lon="1.87786">
        <ele>333.6</ele>
        <time>2021-03-21T16:23:59Z</time>
      </trkpt>
      <trkpt lat="43.92529" lon="1.87785">
        <ele>333.6</ele>
        <time>2021-03-21T16:24:00Z</time>
      </trkpt>
      <trkpt lat="43.9253" lon="1.87783">
        <ele>333.6</ele>
        <time>2021-03-21T16:24:01Z</time>
      </trkpt>
      <trkpt lat="43.92531" lon="1.87782">
        <ele>333.6</ele>
        <time>2021-03-21T16:24:02Z</time>
      </trkpt>
      <trkpt lat="43.92532" lon="1.87781">
        <ele>334</ele>
        <time>2021-03-21T16:24:03Z</time>
      </trkpt>
      <trkpt lat="43.92533" lon="1.87779">
        <ele>334.2</ele>
        <time>2021-03-21T16:24:04Z</time>
      </trkpt>
      <trkpt lat="43.92534" lon="1.87778">
        <ele>334.4</ele>
        <time>2021-03-21T16:24:05Z</time>
      </trkpt>
      <trkpt lat="43.92534" lon="1.87777">
        <ele>334.8</ele>
        <time>2021-03-21T16:24:06Z</time>
      </trkpt>
      <trkpt lat="43.92535" lon="1.87775">
        <ele>335</ele>
        <time>2021-03-21T16:24:07Z</time>
      </trkpt>
      <trkpt lat="43.92536" lon="1.87774">
        <ele>335</ele>
        <time>2021-03-21T16:24:08Z</time>
      </trkpt>
      <trkpt lat="43.92536" lon="1.87772">
        <ele>335.2</ele>
        <time>2021-03-21T16:24:09Z</time>
      </trkpt>
      <trkpt lat="43.92537" lon="1.87771">
        <ele>335.4</ele>
        <time>2021-03-21T16:24:10Z</time>
      </trkpt>
      <trkpt lat="43.92538" lon="1.8777">
        <ele>335.6</ele>
        <time>2021-03-21T16:24:11Z</time>
      </trkpt>
      <trkpt lat="43.92539" lon="1.87768">
        <ele>336</ele>
        <time>2021-03-21T16:24:12Z</time>
      </trkpt>
      <trkpt lat="43.92539" lon="1.87767">
        <ele>336.4</ele>
        <time>2021-03-21T16:24:13Z</time>
      </trkpt>
      <trkpt lat="43.9254" lon="1.87766">
        <ele>336.6</ele>
        <time>2021-03-21T16:24:14Z</time>
      </trkpt>
      <trkpt lat="43.92541" lon="1.87765">
        <ele>336.8</ele>
        <time>2021-03-21T16:24:15Z</time>
      </trkpt>
      <trkpt lat="43.92542" lon="1.87764">
        <ele>337.2</ele>
        <time>2021-03-21T16:24:16Z</time>
      </trkpt>
      <trkpt lat="43.92543" lon="1.87763">
        <ele>337.4</ele>
        <time>2021-03-21T16:24:17Z</time>
      </trkpt>
      <trkpt lat="43.92544" lon="1.87761">
        <ele>337.6</ele>
        <time>2021-03-21T16:24:18Z</time>
      </trkpt>
      <trkpt lat="43.92545" lon="1.8776">
        <ele>337.6</ele>
        <time>2021-03-21T16:24:19Z</time>
      </trkpt>
      <trkpt lat="43.92546" lon="1.87759">
        <ele>337.6</ele>
        <time>2021-03-21T16:24:20Z</time>
      </trkpt>
      <trkpt lat="43.92547" lon="1.87757">
        <ele>337.8</ele>
        <time>2021-03-21T16:24:21Z</time>
      </trkpt>
      <trkpt lat="43.92547" lon="1.87756">
        <ele>337.8</ele>
        <time>2021-03-21T16:24:22Z</time>
      </trkpt>
      <trkpt lat="43.92548" lon="1.87755">
        <ele>337.8</ele>
        <time>2021-03-21T16:24:23Z</time>
      </trkpt>
      <trkpt lat="43.92549" lon="1.87754">
        <ele>338</ele>
        <time>2021-03-21T16:24:24Z</time>
      </trkpt>
      <trkpt lat="43.9255" lon="1.87753">
        <ele>338</ele>
        <time>2021-03-21T16:24:25Z</time>
      </trkpt>
      <trkpt lat="43.92551" lon="1.87752">
        <ele>338.4</ele>
        <time>2021-03-21T16:24:26Z</time>
      </trkpt>
      <trkpt lat="43.92552" lon="1.87751">
        <ele>338.6</ele>
        <time>2021-03-21T16:24:27Z</time>
      </trkpt>
      <trkpt lat="43.92553" lon="1.8775">
        <ele>338.8</ele>
        <time>2021-03-21T16:24:28Z</time>
      </trkpt>
      <trkpt lat="43.92554" lon="1.87749">
        <ele>339</ele>
        <time>2021-03-21T16:24:29Z</time>
      </trkpt>
      <trkpt lat="43.92556" lon="1.87747">
        <ele>338.8</ele>
        <time>2021-03-21T16:24:30Z</time>
      </trkpt>
      <trkpt lat="43.92557" lon="1.87746">
        <ele>339</ele>
        <time>2021-03-21T16:24:31Z</time>
      </trkpt>
      <trkpt lat="43.92558" lon="1.87745">
        <ele>339.4</ele>
        <time>2021-03-21T16:24:32Z</time>
      </trkpt>
      <trkpt lat="43.92559" lon="1.87744">
        <ele>339.4</ele>
        <time>2021-03-21T16:24:33Z</time>
      </trkpt>
      <trkpt lat="43.9256" lon="1.87743">
        <ele>339.4</ele>
        <time>2021-03-21T16:24:34Z</time>
      </trkpt>
      <trkpt lat="43.92561" lon="1.87742">
        <ele>339.6</ele>
        <time>2021-03-21T16:24:35Z</time>
      </trkpt>
      <trkpt lat="43.92562" lon="1.87741">
        <ele>339.6</ele>
        <time>2021-03-21T16:24:36Z</time>
      </trkpt>
      <trkpt lat="43.92563" lon="1.8774">
        <ele>339.8</ele>
        <time>2021-03-21T16:24:37Z</time>
      </trkpt>
      <trkpt lat="43.92564" lon="1.87739">
        <ele>339.8</ele>
        <time>2021-03-21T16:24:38Z</time>
      </trkpt>
      <trkpt lat="43.92566" lon="1.87738">
        <ele>340.2</ele>
        <time>2021-03-21T16:24:39Z</time>
      </trkpt>
      <trkpt lat="43.92567" lon="1.87738">
        <ele>340.2</ele>
        <time>2021-03-21T16:24:40Z</time>
      </trkpt>
      <trkpt lat="43.92568" lon="1.87737">
        <ele>340.4</ele>
        <time>2021-03-21T16:24:41Z</time>
      </trkpt>
      <trkpt lat="43.92569" lon="1.87736">
        <ele>340.4</ele>
        <time>2021-03-21T16:24:42Z</time>
      </trkpt>
      <trkpt lat="43.9257" lon="1.87736">
        <ele>340.8</ele>
        <time>2021-03-21T16:24:43Z</time>
      </trkpt>
      <trkpt lat="43.92572" lon="1.87735">
        <ele>340.8</ele>
        <time>2021-03-21T16:24:44Z</time>
      </trkpt>
      <trkpt lat="43.92573" lon="1.87734">
        <ele>341</ele>
        <time>2021-03-21T16:24:45Z</time>
      </trkpt>
      <trkpt lat="43.92575" lon="1.87734">
        <ele>341</ele>
        <time>2021-03-21T16:24:46Z</time>
      </trkpt>
      <trkpt lat="43.92576" lon="1.87733">
        <ele>341</ele>
        <time>2021-03-21T16:24:47Z</time>
      </trkpt>
      <trkpt lat="43.92578" lon="1.87732">
        <ele>341.2</ele>
        <time>2021-03-21T16:24:48Z</time>
      </trkpt>
      <trkpt lat="43.92579" lon="1.87731">
        <ele>341</ele>
        <time>2021-03-21T16:24:49Z</time>
      </trkpt>
      <trkpt lat="43.92581" lon="1.8773">
        <ele>341.2</ele>
        <time>2021-03-21T16:24:50Z</time>
      </trkpt>
      <trkpt lat="43.92582" lon="1.8773">
        <ele>341.2</ele>
        <time>2021-03-21T16:24:51Z</time>
      </trkpt>
      <trkpt lat="43.92584" lon="1.87729">
        <ele>341.2</ele>
        <time>2021-03-21T16:24:52Z</time>
      </trkpt>
      <trkpt lat="43.92585" lon="1.87729">
        <ele>341.2</ele>
        <time>2021-03-21T16:24:53Z</time>
      </trkpt>
      <trkpt lat="43.92587" lon="1.87728">
        <ele>341.4</ele>
        <time>2021-03-21T16:24:54Z</time>
      </trkpt>
      <trkpt lat="43.92588" lon="1.87727">
        <ele>341.4</ele>
        <time>2021-03-21T16:24:55Z</time>
      </trkpt>
      <trkpt lat="43.9259" lon="1.87726">
        <ele>341.2</ele>
        <time>2021-03-21T16:24:56Z</time>
      </trkpt>
      <trkpt lat="43.92593" lon="1.87725">
        <ele>341.2</ele>
        <time>2021-03-21T16:24:57Z</time>
      </trkpt>
      <trkpt lat="43.92597" lon="1.87724">
        <ele>341.2</ele>
        <time>2021-03-21T16:24:59Z</time>
      </trkpt>
      <trkpt lat="43.92599" lon="1.87722">
        <ele>341.4</ele>
        <time>2021-03-21T16:25:00Z</time>
      </trkpt>
      <trkpt lat="43.92602" lon="1.87721">
        <ele>341.6</ele>
        <time>2021-03-21T16:25:01Z</time>
      </trkpt>
      <trkpt lat="43.92604" lon="1.87721">
        <ele>341.6</ele>
        <time>2021-03-21T16:25:02Z</time>
      </trkpt>
      <trkpt lat="43.92606" lon="1.8772">
        <ele>341.6</ele>
        <time>2021-03-21T16:25:03Z</time>
      </trkpt>
      <trkpt lat="43.92608" lon="1.8772">
        <ele>341.6</ele>
        <time>2021-03-21T16:25:04Z</time>
      </trkpt>
      <trkpt lat="43.9261" lon="1.87719">
        <ele>341.6</ele>
        <time>2021-03-21T16:25:05Z</time>
      </trkpt>
      <trkpt lat="43.92612" lon="1.87718">
        <ele>341.6</ele>
        <time>2021-03-21T16:25:06Z</time>
      </trkpt>
      <trkpt lat="43.92614" lon="1.87716">
        <ele>341.8</ele>
        <time>2021-03-21T16:25:07Z</time>
      </trkpt>
      <trkpt lat="43.92615" lon="1.87715">
        <ele>341.6</ele>
        <time>2021-03-21T16:25:08Z</time>
      </trkpt>
      <trkpt lat="43.92617" lon="1.87713">
        <ele>341.8</ele>
        <time>2021-03-21T16:25:09Z</time>
      </trkpt>
      <trkpt lat="43.92619" lon="1.87712">
        <ele>341.8</ele>
        <time>2021-03-21T16:25:10Z</time>
      </trkpt>
      <trkpt lat="43.9262" lon="1.8771">
        <ele>341.8</ele>
        <time>2021-03-21T16:25:11Z</time>
      </trkpt>
      <trkpt lat="43.92622" lon="1.87708">
        <ele>341.8</ele>
        <time>2021-03-21T16:25:12Z</time>
      </trkpt>
      <trkpt lat="43.92624" lon="1.87707">
        <ele>341.8</ele>
        <time>2021-03-21T16:25:13Z</time>
      </trkpt>
      <trkpt lat="43.92625" lon="1.87705">
        <ele>341.8</ele>
        <time>2021-03-21T16:25:14Z</time>
      </trkpt>
      <trkpt lat="43.92628" lon="1.87701">
        <ele>341.8</ele>
        <time>2021-03-21T16:25:16Z</time>
      </trkpt>
      <trkpt lat="43.92629" lon="1.87699">
        <ele>341.8</ele>
        <time>2021-03-21T16:25:17Z</time>
      </trkpt>
      <trkpt lat="43.92631" lon="1.87697">
        <ele>341.8</ele>
        <time>2021-03-21T16:25:18Z</time>
      </trkpt>
      <trkpt lat="43.92632" lon="1.87695">
        <ele>341.8</ele>
        <time>2021-03-21T16:25:19Z</time>
      </trkpt>
      <trkpt lat="43.92633" lon="1.87693">
        <ele>341.8</ele>
        <time>2021-03-21T16:25:20Z</time>
      </trkpt>
      <trkpt lat="43.92634" lon="1.87691">
        <ele>341.6</ele>
        <time>2021-03-21T16:25:21Z</time>
      </trkpt>
      <trkpt lat="43.92636" lon="1.87689">
        <ele>341.8</ele>
        <time>2021-03-21T16:25:22Z</time>
      </trkpt>
      <trkpt lat="43.92638" lon="1.87685">
        <ele>342</ele>
        <time>2021-03-21T16:25:24Z</time>
      </trkpt>
      <trkpt lat="43.92639" lon="1.87683">
        <ele>342</ele>
        <time>2021-03-21T16:25:25Z</time>
      </trkpt>
      <trkpt lat="43.9264" lon="1.87681">
        <ele>342.2</ele>
        <time>2021-03-21T16:25:26Z</time>
      </trkpt>
      <trkpt lat="43.92641" lon="1.87679">
        <ele>342.4</ele>
        <time>2021-03-21T16:25:27Z</time>
      </trkpt>
      <trkpt lat="43.92642" lon="1.87677">
        <ele>342.6</ele>
        <time>2021-03-21T16:25:28Z</time>
      </trkpt>
      <trkpt lat="43.92643" lon="1.87674">
        <ele>343</ele>
        <time>2021-03-21T16:25:29Z</time>
      </trkpt>
      <trkpt lat="43.92644" lon="1.87672">
        <ele>343</ele>
        <time>2021-03-21T16:25:30Z</time>
      </trkpt>
      <trkpt lat="43.92645" lon="1.8767">
        <ele>343.2</ele>
        <time>2021-03-21T16:25:31Z</time>
      </trkpt>
      <trkpt lat="43.92646" lon="1.87668">
        <ele>343.4</ele>
        <time>2021-03-21T16:25:32Z</time>
      </trkpt>
      <trkpt lat="43.92646" lon="1.87665">
        <ele>343.8</ele>
        <time>2021-03-21T16:25:33Z</time>
      </trkpt>
      <trkpt lat="43.92647" lon="1.87663">
        <ele>343.8</ele>
        <time>2021-03-21T16:25:34Z</time>
      </trkpt>
      <trkpt lat="43.92648" lon="1.87661">
        <ele>344.2</ele>
        <time>2021-03-21T16:25:35Z</time>
      </trkpt>
      <trkpt lat="43.92649" lon="1.8766">
        <ele>344.6</ele>
        <time>2021-03-21T16:25:36Z</time>
      </trkpt>
      <trkpt lat="43.92649" lon="1.87658">
        <ele>345</ele>
        <time>2021-03-21T16:25:37Z</time>
      </trkpt>
      <trkpt lat="43.9265" lon="1.87656">
        <ele>345</ele>
        <time>2021-03-21T16:25:38Z</time>
      </trkpt>
      <trkpt lat="43.92651" lon="1.87654">
        <ele>345.2</ele>
        <time>2021-03-21T16:25:39Z</time>
      </trkpt>
      <trkpt lat="43.92651" lon="1.87652">
        <ele>345.4</ele>
        <time>2021-03-21T16:25:40Z</time>
      </trkpt>
      <trkpt lat="43.92652" lon="1.8765">
        <ele>345.6</ele>
        <time>2021-03-21T16:25:41Z</time>
      </trkpt>
      <trkpt lat="43.92653" lon="1.87648">
        <ele>345.8</ele>
        <time>2021-03-21T16:25:42Z</time>
      </trkpt>
      <trkpt lat="43.92653" lon="1.87647">
        <ele>346</ele>
        <time>2021-03-21T16:25:43Z</time>
      </trkpt>
      <trkpt lat="43.92654" lon="1.87645">
        <ele>346.2</ele>
        <time>2021-03-21T16:25:44Z</time>
      </trkpt>
      <trkpt lat="43.92655" lon="1.87643">
        <ele>346.4</ele>
        <time>2021-03-21T16:25:45Z</time>
      </trkpt>
      <trkpt lat="43.92656" lon="1.87641">
        <ele>346.4</ele>
        <time>2021-03-21T16:25:46Z</time>
      </trkpt>
      <trkpt lat="43.92657" lon="1.87639">
        <ele>346.4</ele>
        <time>2021-03-21T16:25:47Z</time>
      </trkpt>
      <trkpt lat="43.92659" lon="1.87637">
        <ele>346.6</ele>
        <time>2021-03-21T16:25:48Z</time>
      </trkpt>
      <trkpt lat="43.9266" lon="1.87636">
        <ele>346.8</ele>
        <time>2021-03-21T16:25:49Z</time>
      </trkpt>
      <trkpt lat="43.92661" lon="1.87634">
        <ele>346.8</ele>
        <time>2021-03-21T16:25:50Z</time>
      </trkpt>
      <trkpt lat="43.92662" lon="1.87633">
        <ele>346.8</ele>
        <time>2021-03-21T16:25:51Z</time>
      </trkpt>
      <trkpt lat="43.92663" lon="1.87631">
        <ele>346.8</ele>
        <time>2021-03-21T16:25:52Z</time>
      </trkpt>
      <trkpt lat="43.92664" lon="1.87629">
        <ele>347</ele>
        <time>2021-03-21T16:25:53Z</time>
      </trkpt>
      <trkpt lat="43.92665" lon="1.87627">
        <ele>347.2</ele>
        <time>2021-03-21T16:25:54Z</time>
      </trkpt>
      <trkpt lat="43.92666" lon="1.87626">
        <ele>347.2</ele>
        <time>2021-03-21T16:25:55Z</time>
      </trkpt>
      <trkpt lat="43.92667" lon="1.87624">
        <ele>347.4</ele>
        <time>2021-03-21T16:25:56Z</time>
      </trkpt>
      <trkpt lat="43.92668" lon="1.87622">
        <ele>347.4</ele>
        <time>2021-03-21T16:25:57Z</time>
      </trkpt>
      <trkpt lat="43.92669" lon="1.8762">
        <ele>347.4</ele>
        <time>2021-03-21T16:25:58Z</time>
      </trkpt>
      <trkpt lat="43.9267" lon="1.87618">
        <ele>347.4</ele>
        <time>2021-03-21T16:25:59Z</time>
      </trkpt>
      <trkpt lat="43.92671" lon="1.87616">
        <ele>347.6</ele>
        <time>2021-03-21T16:26:00Z</time>
      </trkpt>
      <trkpt lat="43.92672" lon="1.87614">
        <ele>347.6</ele>
        <time>2021-03-21T16:26:01Z</time>
      </trkpt>
      <trkpt lat="43.92673" lon="1.87612">
        <ele>347.6</ele>
        <time>2021-03-21T16:26:02Z</time>
      </trkpt>
      <trkpt lat="43.92674" lon="1.8761">
        <ele>348.2</ele>
        <time>2021-03-21T16:26:03Z</time>
      </trkpt>
      <trkpt lat="43.92675" lon="1.87608">
        <ele>348.2</ele>
        <time>2021-03-21T16:26:04Z</time>
      </trkpt>
      <trkpt lat="43.92676" lon="1.87606">
        <ele>348.4</ele>
        <time>2021-03-21T16:26:05Z</time>
      </trkpt>
      <trkpt lat="43.92678" lon="1.87603">
        <ele>348.4</ele>
        <time>2021-03-21T16:26:06Z</time>
      </trkpt>
      <trkpt lat="43.92679" lon="1.87601">
        <ele>348.6</ele>
        <time>2021-03-21T16:26:07Z</time>
      </trkpt>
      <trkpt lat="43.9268" lon="1.87599">
        <ele>348.6</ele>
        <time>2021-03-21T16:26:08Z</time>
      </trkpt>
      <trkpt lat="43.92681" lon="1.87597">
        <ele>348.8</ele>
        <time>2021-03-21T16:26:09Z</time>
      </trkpt>
      <trkpt lat="43.92683" lon="1.87593">
        <ele>349</ele>
        <time>2021-03-21T16:26:11Z</time>
      </trkpt>
      <trkpt lat="43.92685" lon="1.87591">
        <ele>349</ele>
        <time>2021-03-21T16:26:12Z</time>
      </trkpt>
      <trkpt lat="43.92686" lon="1.87589">
        <ele>349</ele>
        <time>2021-03-21T16:26:13Z</time>
      </trkpt>
      <trkpt lat="43.92687" lon="1.87587">
        <ele>349</ele>
        <time>2021-03-21T16:26:14Z</time>
      </trkpt>
      <trkpt lat="43.9269" lon="1.87583">
        <ele>349.2</ele>
        <time>2021-03-21T16:26:16Z</time>
      </trkpt>
      <trkpt lat="43.92691" lon="1.87581">
        <ele>349.2</ele>
        <time>2021-03-21T16:26:17Z</time>
      </trkpt>
      <trkpt lat="43.92692" lon="1.87579">
        <ele>349.2</ele>
        <time>2021-03-21T16:26:18Z</time>
      </trkpt>
      <trkpt lat="43.92693" lon="1.87577">
        <ele>349.2</ele>
        <time>2021-03-21T16:26:19Z</time>
      </trkpt>
      <trkpt lat="43.92694" lon="1.87575">
        <ele>349.2</ele>
        <time>2021-03-21T16:26:20Z</time>
      </trkpt>
      <trkpt lat="43.92695" lon="1.87573">
        <ele>349.4</ele>
        <time>2021-03-21T16:26:21Z</time>
      </trkpt>
      <trkpt lat="43.92697" lon="1.8757">
        <ele>349.4</ele>
        <time>2021-03-21T16:26:22Z</time>
      </trkpt>
      <trkpt lat="43.927" lon="1.87566">
        <ele>349.8</ele>
        <time>2021-03-21T16:26:24Z</time>
      </trkpt>
      <trkpt lat="43.92702" lon="1.87564">
        <ele>350.2</ele>
        <time>2021-03-21T16:26:25Z</time>
      </trkpt>
      <trkpt lat="43.92703" lon="1.87562">
        <ele>350.2</ele>
        <time>2021-03-21T16:26:26Z</time>
      </trkpt>
      <trkpt lat="43.92705" lon="1.8756">
        <ele>350.4</ele>
        <time>2021-03-21T16:26:27Z</time>
      </trkpt>
      <trkpt lat="43.92706" lon="1.87558">
        <ele>350.4</ele>
        <time>2021-03-21T16:26:28Z</time>
      </trkpt>
      <trkpt lat="43.92707" lon="1.87556">
        <ele>350.4</ele>
        <time>2021-03-21T16:26:29Z</time>
      </trkpt>
      <trkpt lat="43.92709" lon="1.87554">
        <ele>350.6</ele>
        <time>2021-03-21T16:26:30Z</time>
      </trkpt>
      <trkpt lat="43.92712" lon="1.8755">
        <ele>350.6</ele>
        <time>2021-03-21T16:26:32Z</time>
      </trkpt>
      <trkpt lat="43.92714" lon="1.87548">
        <ele>350.6</ele>
        <time>2021-03-21T16:26:33Z</time>
      </trkpt>
      <trkpt lat="43.92715" lon="1.87547">
        <ele>350.6</ele>
        <time>2021-03-21T16:26:34Z</time>
      </trkpt>
      <trkpt lat="43.92717" lon="1.87545">
        <ele>350.6</ele>
        <time>2021-03-21T16:26:35Z</time>
      </trkpt>
      <trkpt lat="43.92718" lon="1.87544">
        <ele>350.6</ele>
        <time>2021-03-21T16:26:36Z</time>
      </trkpt>
      <trkpt lat="43.92719" lon="1.87543">
        <ele>350.6</ele>
        <time>2021-03-21T16:26:37Z</time>
      </trkpt>
      <trkpt lat="43.92719" lon="1.87543">
        <ele>350.6</ele>
        <time>2021-03-21T16:26:38Z</time>
      </trkpt>
      <trkpt lat="43.92721" lon="1.87536">
        <ele>349.4</ele>
        <time>2021-03-21T16:27:04Z</time>
      </trkpt>
      <trkpt lat="43.92723" lon="1.87533">
        <ele>349.4</ele>
        <time>2021-03-21T16:27:05Z</time>
      </trkpt>
      <trkpt lat="43.92724" lon="1.8753">
        <ele>349.2</ele>
        <time>2021-03-21T16:27:06Z</time>
      </trkpt>
      <trkpt lat="43.92725" lon="1.87527">
        <ele>349</ele>
        <time>2021-03-21T16:27:07Z</time>
      </trkpt>
      <trkpt lat="43.92727" lon="1.87524">
        <ele>348.8</ele>
        <time>2021-03-21T16:27:08Z</time>
      </trkpt>
      <trkpt lat="43.92728" lon="1.8752">
        <ele>348.4</ele>
        <time>2021-03-21T16:27:09Z</time>
      </trkpt>
      <trkpt lat="43.9273" lon="1.87517">
        <ele>348.2</ele>
        <time>2021-03-21T16:27:10Z</time>
      </trkpt>
      <trkpt lat="43.92732" lon="1.87514">
        <ele>348.2</ele>
        <time>2021-03-21T16:27:11Z</time>
      </trkpt>
      <trkpt lat="43.92735" lon="1.8751">
        <ele>348</ele>
        <time>2021-03-21T16:27:12Z</time>
      </trkpt>
      <trkpt lat="43.92737" lon="1.87507">
        <ele>347.8</ele>
        <time>2021-03-21T16:27:13Z</time>
      </trkpt>
      <trkpt lat="43.9274" lon="1.87503">
        <ele>347.6</ele>
        <time>2021-03-21T16:27:14Z</time>
      </trkpt>
      <trkpt lat="43.92741" lon="1.875">
        <ele>347.6</ele>
        <time>2021-03-21T16:27:15Z</time>
      </trkpt>
      <trkpt lat="43.92743" lon="1.87497">
        <ele>347.2</ele>
        <time>2021-03-21T16:27:16Z</time>
      </trkpt>
      <trkpt lat="43.92745" lon="1.87494">
        <ele>347.4</ele>
        <time>2021-03-21T16:27:17Z</time>
      </trkpt>
      <trkpt lat="43.92747" lon="1.87491">
        <ele>347</ele>
        <time>2021-03-21T16:27:18Z</time>
      </trkpt>
      <trkpt lat="43.92749" lon="1.87488">
        <ele>346.8</ele>
        <time>2021-03-21T16:27:19Z</time>
      </trkpt>
      <trkpt lat="43.92751" lon="1.87485">
        <ele>346.6</ele>
        <time>2021-03-21T16:27:20Z</time>
      </trkpt>
      <trkpt lat="43.92753" lon="1.87481">
        <ele>346.4</ele>
        <time>2021-03-21T16:27:21Z</time>
      </trkpt>
      <trkpt lat="43.92755" lon="1.87478">
        <ele>346.2</ele>
        <time>2021-03-21T16:27:22Z</time>
      </trkpt>
      <trkpt lat="43.92757" lon="1.87474">
        <ele>346.2</ele>
        <time>2021-03-21T16:27:23Z</time>
      </trkpt>
      <trkpt lat="43.9276" lon="1.8747">
        <ele>346.2</ele>
        <time>2021-03-21T16:27:24Z</time>
      </trkpt>
      <trkpt lat="43.92763" lon="1.87466">
        <ele>346</ele>
        <time>2021-03-21T16:27:25Z</time>
      </trkpt>
      <trkpt lat="43.92765" lon="1.87462">
        <ele>345.6</ele>
        <time>2021-03-21T16:27:26Z</time>
      </trkpt>
      <trkpt lat="43.92768" lon="1.87458">
        <ele>345.4</ele>
        <time>2021-03-21T16:27:27Z</time>
      </trkpt>
      <trkpt lat="43.9277" lon="1.87454">
        <ele>345.4</ele>
        <time>2021-03-21T16:27:28Z</time>
      </trkpt>
      <trkpt lat="43.92773" lon="1.8745">
        <ele>345.2</ele>
        <time>2021-03-21T16:27:29Z</time>
      </trkpt>
      <trkpt lat="43.92776" lon="1.87446">
        <ele>345.2</ele>
        <time>2021-03-21T16:27:30Z</time>
      </trkpt>
      <trkpt lat="43.92781" lon="1.87438">
        <ele>345</ele>
        <time>2021-03-21T16:27:32Z</time>
      </trkpt>
      <trkpt lat="43.92784" lon="1.87433">
        <ele>344.6</ele>
        <time>2021-03-21T16:27:33Z</time>
      </trkpt>
      <trkpt lat="43.92787" lon="1.87428">
        <ele>344.6</ele>
        <time>2021-03-21T16:27:34Z</time>
      </trkpt>
      <trkpt lat="43.9279" lon="1.87423">
        <ele>344.4</ele>
        <time>2021-03-21T16:27:35Z</time>
      </trkpt>
      <trkpt lat="43.92796" lon="1.87414">
        <ele>344</ele>
        <time>2021-03-21T16:27:37Z</time>
      </trkpt>
      <trkpt lat="43.92799" lon="1.87409">
        <ele>343.8</ele>
        <time>2021-03-21T16:27:38Z</time>
      </trkpt>
      <trkpt lat="43.92802" lon="1.87404">
        <ele>343.8</ele>
        <time>2021-03-21T16:27:39Z</time>
      </trkpt>
      <trkpt lat="43.92806" lon="1.874">
        <ele>343.8</ele>
        <time>2021-03-21T16:27:40Z</time>
      </trkpt>
      <trkpt lat="43.92809" lon="1.87395">
        <ele>343.6</ele>
        <time>2021-03-21T16:27:41Z</time>
      </trkpt>
      <trkpt lat="43.92812" lon="1.87391">
        <ele>343.4</ele>
        <time>2021-03-21T16:27:42Z</time>
      </trkpt>
      <trkpt lat="43.92816" lon="1.87387">
        <ele>343.4</ele>
        <time>2021-03-21T16:27:43Z</time>
      </trkpt>
      <trkpt lat="43.92819" lon="1.87384">
        <ele>343.2</ele>
        <time>2021-03-21T16:27:44Z</time>
      </trkpt>
      <trkpt lat="43.92821" lon="1.8738">
        <ele>342.6</ele>
        <time>2021-03-21T16:27:45Z</time>
      </trkpt>
      <trkpt lat="43.92824" lon="1.87376">
        <ele>342.2</ele>
        <time>2021-03-21T16:27:46Z</time>
      </trkpt>
      <trkpt lat="43.92825" lon="1.87373">
        <ele>342</ele>
        <time>2021-03-21T16:27:47Z</time>
      </trkpt>
      <trkpt lat="43.92827" lon="1.87371">
        <ele>341.8</ele>
        <time>2021-03-21T16:27:48Z</time>
      </trkpt>
      <trkpt lat="43.92827" lon="1.87369">
        <ele>341.4</ele>
        <time>2021-03-21T16:27:49Z</time>
      </trkpt>
      <trkpt lat="43.92827" lon="1.87367">
        <ele>341.4</ele>
        <time>2021-03-21T16:27:50Z</time>
      </trkpt>
      <trkpt lat="43.92827" lon="1.87365">
        <ele>341</ele>
        <time>2021-03-21T16:27:51Z</time>
      </trkpt>
      <trkpt lat="43.92825" lon="1.87363">
        <ele>341</ele>
        <time>2021-03-21T16:27:52Z</time>
      </trkpt>
      <trkpt lat="43.92822" lon="1.87361">
        <ele>340.6</ele>
        <time>2021-03-21T16:27:53Z</time>
      </trkpt>
      <trkpt lat="43.92819" lon="1.8736">
        <ele>340.6</ele>
        <time>2021-03-21T16:27:54Z</time>
      </trkpt>
      <trkpt lat="43.92816" lon="1.8736">
        <ele>340.4</ele>
        <time>2021-03-21T16:27:55Z</time>
      </trkpt>
      <trkpt lat="43.92812" lon="1.87362">
        <ele>340</ele>
        <time>2021-03-21T16:27:56Z</time>
      </trkpt>
      <trkpt lat="43.92808" lon="1.87363">
        <ele>339.8</ele>
        <time>2021-03-21T16:27:57Z</time>
      </trkpt>
      <trkpt lat="43.92804" lon="1.87364">
        <ele>339.6</ele>
        <time>2021-03-21T16:27:58Z</time>
      </trkpt>
      <trkpt lat="43.928" lon="1.87365">
        <ele>339.6</ele>
        <time>2021-03-21T16:27:59Z</time>
      </trkpt>
      <trkpt lat="43.92796" lon="1.87366">
        <ele>339.6</ele>
        <time>2021-03-21T16:28:00Z</time>
      </trkpt>
      <trkpt lat="43.92792" lon="1.87368">
        <ele>339.6</ele>
        <time>2021-03-21T16:28:01Z</time>
      </trkpt>
      <trkpt lat="43.92788" lon="1.8737">
        <ele>339.4</ele>
        <time>2021-03-21T16:28:02Z</time>
      </trkpt>
      <trkpt lat="43.92784" lon="1.87372">
        <ele>339.4</ele>
        <time>2021-03-21T16:28:03Z</time>
      </trkpt>
      <trkpt lat="43.92779" lon="1.87375">
        <ele>339.6</ele>
        <time>2021-03-21T16:28:04Z</time>
      </trkpt>
      <trkpt lat="43.92775" lon="1.87377">
        <ele>339.4</ele>
        <time>2021-03-21T16:28:05Z</time>
      </trkpt>
      <trkpt lat="43.9277" lon="1.87379">
        <ele>339.4</ele>
        <time>2021-03-21T16:28:06Z</time>
      </trkpt>
      <trkpt lat="43.92765" lon="1.87381">
        <ele>339.6</ele>
        <time>2021-03-21T16:28:07Z</time>
      </trkpt>
      <trkpt lat="43.9276" lon="1.87384">
        <ele>339.4</ele>
        <time>2021-03-21T16:28:08Z</time>
      </trkpt>
      <trkpt lat="43.92755" lon="1.87387">
        <ele>339.4</ele>
        <time>2021-03-21T16:28:09Z</time>
      </trkpt>
      <trkpt lat="43.9275" lon="1.8739">
        <ele>339.4</ele>
        <time>2021-03-21T16:28:10Z</time>
      </trkpt>
      <trkpt lat="43.92745" lon="1.87394">
        <ele>339.6</ele>
        <time>2021-03-21T16:28:11Z</time>
      </trkpt>
      <trkpt lat="43.92739" lon="1.87398">
        <ele>339.4</ele>
        <time>2021-03-21T16:28:12Z</time>
      </trkpt>
      <trkpt lat="43.92729" lon="1.87406">
        <ele>339.4</ele>
        <time>2021-03-21T16:28:14Z</time>
      </trkpt>
      <trkpt lat="43.92723" lon="1.87411">
        <ele>339.2</ele>
        <time>2021-03-21T16:28:15Z</time>
      </trkpt>
      <trkpt lat="43.92717" lon="1.87415">
        <ele>339.2</ele>
        <time>2021-03-21T16:28:16Z</time>
      </trkpt>
      <trkpt lat="43.92711" lon="1.8742">
        <ele>339</ele>
        <time>2021-03-21T16:28:17Z</time>
      </trkpt>
      <trkpt lat="43.92704" lon="1.87425">
        <ele>339</ele>
        <time>2021-03-21T16:28:18Z</time>
      </trkpt>
      <trkpt lat="43.92697" lon="1.87429">
        <ele>338.6</ele>
        <time>2021-03-21T16:28:19Z</time>
      </trkpt>
      <trkpt lat="43.9269" lon="1.87434">
        <ele>338.2</ele>
        <time>2021-03-21T16:28:20Z</time>
      </trkpt>
      <trkpt lat="43.92683" lon="1.8744">
        <ele>338.2</ele>
        <time>2021-03-21T16:28:21Z</time>
      </trkpt>
      <trkpt lat="43.92676" lon="1.87446">
        <ele>338</ele>
        <time>2021-03-21T16:28:22Z</time>
      </trkpt>
      <trkpt lat="43.92668" lon="1.87452">
        <ele>337.6</ele>
        <time>2021-03-21T16:28:23Z</time>
      </trkpt>
      <trkpt lat="43.92661" lon="1.87458">
        <ele>337.4</ele>
        <time>2021-03-21T16:28:24Z</time>
      </trkpt>
      <trkpt lat="43.92653" lon="1.87465">
        <ele>337.4</ele>
        <time>2021-03-21T16:28:25Z</time>
      </trkpt>
      <trkpt lat="43.92645" lon="1.87472">
        <ele>336.6</ele>
        <time>2021-03-21T16:28:26Z</time>
      </trkpt>
      <trkpt lat="43.92638" lon="1.8748">
        <ele>336</ele>
        <time>2021-03-21T16:28:27Z</time>
      </trkpt>
      <trkpt lat="43.9263" lon="1.87488">
        <ele>335.2</ele>
        <time>2021-03-21T16:28:28Z</time>
      </trkpt>
      <trkpt lat="43.92614" lon="1.87503">
        <ele>333.8</ele>
        <time>2021-03-21T16:28:30Z</time>
      </trkpt>
      <trkpt lat="43.92605" lon="1.8751">
        <ele>332.8</ele>
        <time>2021-03-21T16:28:31Z</time>
      </trkpt>
      <trkpt lat="43.92596" lon="1.87514">
        <ele>332.2</ele>
        <time>2021-03-21T16:28:32Z</time>
      </trkpt>
      <trkpt lat="43.92586" lon="1.87517">
        <ele>331.8</ele>
        <time>2021-03-21T16:28:33Z</time>
      </trkpt>
      <trkpt lat="43.92576" lon="1.87518">
        <ele>331.4</ele>
        <time>2021-03-21T16:28:34Z</time>
      </trkpt>
      <trkpt lat="43.92566" lon="1.87519">
        <ele>330.4</ele>
        <time>2021-03-21T16:28:35Z</time>
      </trkpt>
      <trkpt lat="43.92556" lon="1.87519">
        <ele>329.8</ele>
        <time>2021-03-21T16:28:36Z</time>
      </trkpt>
      <trkpt lat="43.92545" lon="1.87519">
        <ele>328.6</ele>
        <time>2021-03-21T16:28:37Z</time>
      </trkpt>
      <trkpt lat="43.92534" lon="1.87519">
        <ele>327.8</ele>
        <time>2021-03-21T16:28:38Z</time>
      </trkpt>
      <trkpt lat="43.92523" lon="1.8752">
        <ele>327.6</ele>
        <time>2021-03-21T16:28:39Z</time>
      </trkpt>
      <trkpt lat="43.92511" lon="1.87521">
        <ele>327.2</ele>
        <time>2021-03-21T16:28:40Z</time>
      </trkpt>
      <trkpt lat="43.925" lon="1.87522">
        <ele>326.4</ele>
        <time>2021-03-21T16:28:41Z</time>
      </trkpt>
      <trkpt lat="43.92477" lon="1.87524">
        <ele>324</ele>
        <time>2021-03-21T16:28:43Z</time>
      </trkpt>
      <trkpt lat="43.92465" lon="1.87525">
        <ele>321.8</ele>
        <time>2021-03-21T16:28:44Z</time>
      </trkpt>
      <trkpt lat="43.92453" lon="1.87525">
        <ele>321.8</ele>
        <time>2021-03-21T16:28:45Z</time>
      </trkpt>
      <trkpt lat="43.92441" lon="1.87525">
        <ele>320.4</ele>
        <time>2021-03-21T16:28:46Z</time>
      </trkpt>
      <trkpt lat="43.9243" lon="1.87525">
        <ele>319.4</ele>
        <time>2021-03-21T16:28:47Z</time>
      </trkpt>
      <trkpt lat="43.92418" lon="1.87526">
        <ele>317.6</ele>
        <time>2021-03-21T16:28:48Z</time>
      </trkpt>
      <trkpt lat="43.92406" lon="1.87526">
        <ele>316.2</ele>
        <time>2021-03-21T16:28:49Z</time>
      </trkpt>
      <trkpt lat="43.92395" lon="1.87527">
        <ele>314.6</ele>
        <time>2021-03-21T16:28:50Z</time>
      </trkpt>
      <trkpt lat="43.92383" lon="1.87527">
        <ele>313.2</ele>
        <time>2021-03-21T16:28:51Z</time>
      </trkpt>
      <trkpt lat="43.92371" lon="1.87528">
        <ele>312.4</ele>
        <time>2021-03-21T16:28:52Z</time>
      </trkpt>
      <trkpt lat="43.9236" lon="1.8753">
        <ele>312</ele>
        <time>2021-03-21T16:28:53Z</time>
      </trkpt>
      <trkpt lat="43.92348" lon="1.87533">
        <ele>311.6</ele>
        <time>2021-03-21T16:28:54Z</time>
      </trkpt>
      <trkpt lat="43.92337" lon="1.87537">
        <ele>311</ele>
        <time>2021-03-21T16:28:55Z</time>
      </trkpt>
      <trkpt lat="43.92325" lon="1.87542">
        <ele>310.6</ele>
        <time>2021-03-21T16:28:56Z</time>
      </trkpt>
      <trkpt lat="43.92314" lon="1.87548">
        <ele>309.4</ele>
        <time>2021-03-21T16:28:57Z</time>
      </trkpt>
      <trkpt lat="43.92303" lon="1.87555">
        <ele>308.2</ele>
        <time>2021-03-21T16:28:58Z</time>
      </trkpt>
      <trkpt lat="43.92292" lon="1.87563">
        <ele>307.4</ele>
        <time>2021-03-21T16:28:59Z</time>
      </trkpt>
      <trkpt lat="43.92282" lon="1.87572">
        <ele>306.4</ele>
        <time>2021-03-21T16:29:00Z</time>
      </trkpt>
      <trkpt lat="43.92271" lon="1.87583">
        <ele>305.8</ele>
        <time>2021-03-21T16:29:01Z</time>
      </trkpt>
      <trkpt lat="43.92261" lon="1.87593">
        <ele>305.4</ele>
        <time>2021-03-21T16:29:02Z</time>
      </trkpt>
      <trkpt lat="43.92251" lon="1.87605">
        <ele>305.2</ele>
        <time>2021-03-21T16:29:03Z</time>
      </trkpt>
      <trkpt lat="43.92241" lon="1.87616">
        <ele>304.8</ele>
        <time>2021-03-21T16:29:04Z</time>
      </trkpt>
      <trkpt lat="43.92231" lon="1.87627">
        <ele>304.8</ele>
        <time>2021-03-21T16:29:05Z</time>
      </trkpt>
      <trkpt lat="43.92222" lon="1.87638">
        <ele>304</ele>
        <time>2021-03-21T16:29:06Z</time>
      </trkpt>
      <trkpt lat="43.92214" lon="1.87647">
        <ele>302.4</ele>
        <time>2021-03-21T16:29:07Z</time>
      </trkpt>
      <trkpt lat="43.92207" lon="1.87656">
        <ele>301.4</ele>
        <time>2021-03-21T16:29:08Z</time>
      </trkpt>
      <trkpt lat="43.92199" lon="1.87665">
        <ele>300.8</ele>
        <time>2021-03-21T16:29:09Z</time>
      </trkpt>
      <trkpt lat="43.92192" lon="1.87674">
        <ele>299.8</ele>
        <time>2021-03-21T16:29:10Z</time>
      </trkpt>
      <trkpt lat="43.92184" lon="1.87683">
        <ele>298.8</ele>
        <time>2021-03-21T16:29:11Z</time>
      </trkpt>
      <trkpt lat="43.92177" lon="1.87692">
        <ele>298</ele>
        <time>2021-03-21T16:29:12Z</time>
      </trkpt>
      <trkpt lat="43.92169" lon="1.87702">
        <ele>296.8</ele>
        <time>2021-03-21T16:29:13Z</time>
      </trkpt>
      <trkpt lat="43.92162" lon="1.87713">
        <ele>295.8</ele>
        <time>2021-03-21T16:29:14Z</time>
      </trkpt>
      <trkpt lat="43.92156" lon="1.87725">
        <ele>295.4</ele>
        <time>2021-03-21T16:29:15Z</time>
      </trkpt>
      <trkpt lat="43.92142" lon="1.87749">
        <ele>294.6</ele>
        <time>2021-03-21T16:29:17Z</time>
      </trkpt>
      <trkpt lat="43.92136" lon="1.87761">
        <ele>294.4</ele>
        <time>2021-03-21T16:29:18Z</time>
      </trkpt>
      <trkpt lat="43.92121" lon="1.87784">
        <ele>293.2</ele>
        <time>2021-03-21T16:29:20Z</time>
      </trkpt>
      <trkpt lat="43.92113" lon="1.87795">
        <ele>292.8</ele>
        <time>2021-03-21T16:29:21Z</time>
      </trkpt>
      <trkpt lat="43.92104" lon="1.87806">
        <ele>292.4</ele>
        <time>2021-03-21T16:29:22Z</time>
      </trkpt>
      <trkpt lat="43.92095" lon="1.87816">
        <ele>292.2</ele>
        <time>2021-03-21T16:29:23Z</time>
      </trkpt>
      <trkpt lat="43.92086" lon="1.87825">
        <ele>292.2</ele>
        <time>2021-03-21T16:29:24Z</time>
      </trkpt>
      <trkpt lat="43.92077" lon="1.87835">
        <ele>291.8</ele>
        <time>2021-03-21T16:29:25Z</time>
      </trkpt>
      <trkpt lat="43.92067" lon="1.87844">
        <ele>291</ele>
        <time>2021-03-21T16:29:26Z</time>
      </trkpt>
      <trkpt lat="43.92058" lon="1.87853">
        <ele>290.4</ele>
        <time>2021-03-21T16:29:27Z</time>
      </trkpt>
      <trkpt lat="43.92048" lon="1.87862">
        <ele>290.2</ele>
        <time>2021-03-21T16:29:28Z</time>
      </trkpt>
      <trkpt lat="43.92039" lon="1.87871">
        <ele>289.6</ele>
        <time>2021-03-21T16:29:29Z</time>
      </trkpt>
      <trkpt lat="43.92029" lon="1.87879">
        <ele>289</ele>
        <time>2021-03-21T16:29:30Z</time>
      </trkpt>
      <trkpt lat="43.9202" lon="1.87888">
        <ele>288.2</ele>
        <time>2021-03-21T16:29:31Z</time>
      </trkpt>
      <trkpt lat="43.92011" lon="1.87896">
        <ele>287</ele>
        <time>2021-03-21T16:29:32Z</time>
      </trkpt>
      <trkpt lat="43.92002" lon="1.87905">
        <ele>286.4</ele>
        <time>2021-03-21T16:29:33Z</time>
      </trkpt>
      <trkpt lat="43.91993" lon="1.87913">
        <ele>285</ele>
        <time>2021-03-21T16:29:34Z</time>
      </trkpt>
      <trkpt lat="43.91985" lon="1.87922">
        <ele>284.2</ele>
        <time>2021-03-21T16:29:35Z</time>
      </trkpt>
      <trkpt lat="43.91977" lon="1.8793">
        <ele>283.8</ele>
        <time>2021-03-21T16:29:36Z</time>
      </trkpt>
      <trkpt lat="43.91968" lon="1.87939">
        <ele>283.6</ele>
        <time>2021-03-21T16:29:37Z</time>
      </trkpt>
      <trkpt lat="43.91961" lon="1.87947">
        <ele>283.4</ele>
        <time>2021-03-21T16:29:38Z</time>
      </trkpt>
      <trkpt lat="43.91954" lon="1.87956">
        <ele>283.2</ele>
        <time>2021-03-21T16:29:39Z</time>
      </trkpt>
      <trkpt lat="43.91947" lon="1.87966">
        <ele>283</ele>
        <time>2021-03-21T16:29:40Z</time>
      </trkpt>
      <trkpt lat="43.91942" lon="1.87976">
        <ele>282.4</ele>
        <time>2021-03-21T16:29:41Z</time>
      </trkpt>
      <trkpt lat="43.91938" lon="1.87987">
        <ele>282.4</ele>
        <time>2021-03-21T16:29:42Z</time>
      </trkpt>
      <trkpt lat="43.91934" lon="1.87999">
        <ele>281.8</ele>
        <time>2021-03-21T16:29:43Z</time>
      </trkpt>
      <trkpt lat="43.91932" lon="1.8801">
        <ele>281.8</ele>
        <time>2021-03-21T16:29:44Z</time>
      </trkpt>
      <trkpt lat="43.9193" lon="1.88022">
        <ele>281.4</ele>
        <time>2021-03-21T16:29:45Z</time>
      </trkpt>
      <trkpt lat="43.91927" lon="1.88033">
        <ele>281.2</ele>
        <time>2021-03-21T16:29:46Z</time>
      </trkpt>
      <trkpt lat="43.91925" lon="1.88044">
        <ele>281</ele>
        <time>2021-03-21T16:29:47Z</time>
      </trkpt>
      <trkpt lat="43.91923" lon="1.88055">
        <ele>281</ele>
        <time>2021-03-21T16:29:48Z</time>
      </trkpt>
      <trkpt lat="43.91921" lon="1.88065">
        <ele>280.8</ele>
        <time>2021-03-21T16:29:49Z</time>
      </trkpt>
      <trkpt lat="43.91918" lon="1.88075">
        <ele>280.6</ele>
        <time>2021-03-21T16:29:50Z</time>
      </trkpt>
      <trkpt lat="43.91915" lon="1.88085">
        <ele>280.4</ele>
        <time>2021-03-21T16:29:51Z</time>
      </trkpt>
      <trkpt lat="43.91912" lon="1.88094">
        <ele>280.4</ele>
        <time>2021-03-21T16:29:52Z</time>
      </trkpt>
      <trkpt lat="43.91906" lon="1.88113">
        <ele>280</ele>
        <time>2021-03-21T16:29:54Z</time>
      </trkpt>
      <trkpt lat="43.91902" lon="1.88122">
        <ele>280</ele>
        <time>2021-03-21T16:29:55Z</time>
      </trkpt>
      <trkpt lat="43.91899" lon="1.88131">
        <ele>279.6</ele>
        <time>2021-03-21T16:29:56Z</time>
      </trkpt>
      <trkpt lat="43.91896" lon="1.88139">
        <ele>279.8</ele>
        <time>2021-03-21T16:29:57Z</time>
      </trkpt>
      <trkpt lat="43.91892" lon="1.88148">
        <ele>279.6</ele>
        <time>2021-03-21T16:29:58Z</time>
      </trkpt>
      <trkpt lat="43.91889" lon="1.88156">
        <ele>279.6</ele>
        <time>2021-03-21T16:29:59Z</time>
      </trkpt>
      <trkpt lat="43.91886" lon="1.88164">
        <ele>279.4</ele>
        <time>2021-03-21T16:30:00Z</time>
      </trkpt>
      <trkpt lat="43.91883" lon="1.88172">
        <ele>279.2</ele>
        <time>2021-03-21T16:30:01Z</time>
      </trkpt>
      <trkpt lat="43.91879" lon="1.8818">
        <ele>279</ele>
        <time>2021-03-21T16:30:02Z</time>
      </trkpt>
      <trkpt lat="43.91876" lon="1.88188">
        <ele>279</ele>
        <time>2021-03-21T16:30:03Z</time>
      </trkpt>
      <trkpt lat="43.91873" lon="1.88195">
        <ele>279</ele>
        <time>2021-03-21T16:30:04Z</time>
      </trkpt>
      <trkpt lat="43.9187" lon="1.882">
        <ele>279</ele>
        <time>2021-03-21T16:30:05Z</time>
      </trkpt>
      <trkpt lat="43.91867" lon="1.88203">
        <ele>279</ele>
        <time>2021-03-21T16:30:06Z</time>
      </trkpt>
      <trkpt lat="43.91865" lon="1.88205">
        <ele>278.8</ele>
        <time>2021-03-21T16:30:07Z</time>
      </trkpt>
      <trkpt lat="43.91862" lon="1.88207">
        <ele>278.8</ele>
        <time>2021-03-21T16:30:08Z</time>
      </trkpt>
      <trkpt lat="43.91859" lon="1.8821">
        <ele>278.8</ele>
        <time>2021-03-21T16:30:09Z</time>
      </trkpt>
      <trkpt lat="43.91856" lon="1.88211">
        <ele>279</ele>
        <time>2021-03-21T16:30:10Z</time>
      </trkpt>
      <trkpt lat="43.91852" lon="1.88212">
        <ele>278.8</ele>
        <time>2021-03-21T16:30:11Z</time>
      </trkpt>
      <trkpt lat="43.91847" lon="1.88214">
        <ele>279</ele>
        <time>2021-03-21T16:30:12Z</time>
      </trkpt>
      <trkpt lat="43.91843" lon="1.88215">
        <ele>278.8</ele>
        <time>2021-03-21T16:30:13Z</time>
      </trkpt>
      <trkpt lat="43.91839" lon="1.88216">
        <ele>278.8</ele>
        <time>2021-03-21T16:30:14Z</time>
      </trkpt>
      <trkpt lat="43.91834" lon="1.88217">
        <ele>278.8</ele>
        <time>2021-03-21T16:30:15Z</time>
      </trkpt>
      <trkpt lat="43.91829" lon="1.88219">
        <ele>278.8</ele>
        <time>2021-03-21T16:30:16Z</time>
      </trkpt>
      <trkpt lat="43.91819" lon="1.88222">
        <ele>278.6</ele>
        <time>2021-03-21T16:30:18Z</time>
      </trkpt>
      <trkpt lat="43.91813" lon="1.88223">
        <ele>278.6</ele>
        <time>2021-03-21T16:30:19Z</time>
      </trkpt>
      <trkpt lat="43.91808" lon="1.88224">
        <ele>278.6</ele>
        <time>2021-03-21T16:30:20Z</time>
      </trkpt>
      <trkpt lat="43.91802" lon="1.88225">
        <ele>278.4</ele>
        <time>2021-03-21T16:30:21Z</time>
      </trkpt>
      <trkpt lat="43.91791" lon="1.88227">
        <ele>278.4</ele>
        <time>2021-03-21T16:30:23Z</time>
      </trkpt>
      <trkpt lat="43.91785" lon="1.88228">
        <ele>278.6</ele>
        <time>2021-03-21T16:30:24Z</time>
      </trkpt>
      <trkpt lat="43.91779" lon="1.88229">
        <ele>278.6</ele>
        <time>2021-03-21T16:30:25Z</time>
      </trkpt>
      <trkpt lat="43.91773" lon="1.88231">
        <ele>278.4</ele>
        <time>2021-03-21T16:30:26Z</time>
      </trkpt>
      <trkpt lat="43.91768" lon="1.88232">
        <ele>278.4</ele>
        <time>2021-03-21T16:30:27Z</time>
      </trkpt>
      <trkpt lat="43.91762" lon="1.88234">
        <ele>278.2</ele>
        <time>2021-03-21T16:30:28Z</time>
      </trkpt>
      <trkpt lat="43.91756" lon="1.88236">
        <ele>278.2</ele>
        <time>2021-03-21T16:30:29Z</time>
      </trkpt>
      <trkpt lat="43.91744" lon="1.88241">
        <ele>278</ele>
        <time>2021-03-21T16:30:31Z</time>
      </trkpt>
      <trkpt lat="43.91738" lon="1.88243">
        <ele>278</ele>
        <time>2021-03-21T16:30:32Z</time>
      </trkpt>
      <trkpt lat="43.91725" lon="1.88248">
        <ele>277.8</ele>
        <time>2021-03-21T16:30:34Z</time>
      </trkpt>
      <trkpt lat="43.91719" lon="1.8825">
        <ele>277.6</ele>
        <time>2021-03-21T16:30:35Z</time>
      </trkpt>
      <trkpt lat="43.91712" lon="1.88253">
        <ele>277.6</ele>
        <time>2021-03-21T16:30:36Z</time>
      </trkpt>
      <trkpt lat="43.91706" lon="1.88256">
        <ele>277.6</ele>
        <time>2021-03-21T16:30:37Z</time>
      </trkpt>
      <trkpt lat="43.91693" lon="1.88261">
        <ele>277.6</ele>
        <time>2021-03-21T16:30:39Z</time>
      </trkpt>
      <trkpt lat="43.91687" lon="1.88265">
        <ele>277.6</ele>
        <time>2021-03-21T16:30:40Z</time>
      </trkpt>
      <trkpt lat="43.91681" lon="1.88268">
        <ele>277.6</ele>
        <time>2021-03-21T16:30:41Z</time>
      </trkpt>
      <trkpt lat="43.91674" lon="1.88271">
        <ele>277.6</ele>
        <time>2021-03-21T16:30:42Z</time>
      </trkpt>
      <trkpt lat="43.91668" lon="1.88275">
        <ele>277.6</ele>
        <time>2021-03-21T16:30:43Z</time>
      </trkpt>
      <trkpt lat="43.91661" lon="1.88278">
        <ele>277.6</ele>
        <time>2021-03-21T16:30:44Z</time>
      </trkpt>
      <trkpt lat="43.91655" lon="1.88281">
        <ele>277.4</ele>
        <time>2021-03-21T16:30:45Z</time>
      </trkpt>
      <trkpt lat="43.91648" lon="1.88284">
        <ele>277.4</ele>
        <time>2021-03-21T16:30:46Z</time>
      </trkpt>
      <trkpt lat="43.91642" lon="1.88287">
        <ele>277.4</ele>
        <time>2021-03-21T16:30:47Z</time>
      </trkpt>
      <trkpt lat="43.91635" lon="1.88291">
        <ele>277.4</ele>
        <time>2021-03-21T16:30:48Z</time>
      </trkpt>
      <trkpt lat="43.91629" lon="1.88294">
        <ele>277.4</ele>
        <time>2021-03-21T16:30:49Z</time>
      </trkpt>
      <trkpt lat="43.91623" lon="1.88297">
        <ele>277.4</ele>
        <time>2021-03-21T16:30:50Z</time>
      </trkpt>
      <trkpt lat="43.91617" lon="1.883">
        <ele>277.4</ele>
        <time>2021-03-21T16:30:51Z</time>
      </trkpt>
      <trkpt lat="43.91611" lon="1.88303">
        <ele>277.4</ele>
        <time>2021-03-21T16:30:52Z</time>
      </trkpt>
      <trkpt lat="43.91605" lon="1.88307">
        <ele>277.2</ele>
        <time>2021-03-21T16:30:53Z</time>
      </trkpt>
      <trkpt lat="43.916" lon="1.8831">
        <ele>277</ele>
        <time>2021-03-21T16:30:54Z</time>
      </trkpt>
      <trkpt lat="43.91595" lon="1.88312">
        <ele>277</ele>
        <time>2021-03-21T16:30:55Z</time>
      </trkpt>
      <trkpt lat="43.91592" lon="1.88314">
        <ele>276.8</ele>
        <time>2021-03-21T16:30:56Z</time>
      </trkpt>
      <trkpt lat="43.91589" lon="1.88317">
        <ele>276.8</ele>
        <time>2021-03-21T16:30:57Z</time>
      </trkpt>
      <trkpt lat="43.91588" lon="1.8832">
        <ele>276.8</ele>
        <time>2021-03-21T16:30:58Z</time>
      </trkpt>
      <trkpt lat="43.91588" lon="1.88322">
        <ele>276.8</ele>
        <time>2021-03-21T16:30:59Z</time>
      </trkpt>
      <trkpt lat="43.91589" lon="1.88324">
        <ele>276.8</ele>
        <time>2021-03-21T16:31:00Z</time>
      </trkpt>
      <trkpt lat="43.91588" lon="1.88324">
        <ele>276.8</ele>
        <time>2021-03-21T16:31:01Z</time>
      </trkpt>
      <trkpt lat="43.91588" lon="1.88324">
        <ele>276.8</ele>
        <time>2021-03-21T16:31:02Z</time>
      </trkpt>
    </trkseg>
  </trk>
</gpx>